<?xml version='1.0' encoding='UTF-8'?><gpx version="1.1" creator="JPX - https://github.com/jenetics/jpx" xmlns="http://www.topografix.com/GPX/1/1"><trk><trkseg><trkpt lat="45.530192694302585" lon="11.308707426312074"><ele>139.0</ele><time>2026-04-11T12:07:30.999Z</time></trkpt><trkpt lat="45.53024556335871" lon="11.308827398745493"><ele>139.0</ele><time>2026-04-11T12:07:32.999Z</time></trkpt><trkpt lat="45.530320516836596" lon="11.308932948928916"><ele>139.0</ele><time>2026-04-11T12:07:34.999Z</time></trkpt><trkpt lat="45.53036553750057" lon="11.309074814228326"><ele>139.0</ele><time>2026-04-11T12:07:36.999Z</time></trkpt><trkpt lat="45.53042256749145" lon="11.30918994272873"><ele>139.0</ele><time>2026-04-11T12:07:38.999Z</time></trkpt><trkpt lat="45.53046669333083" lon="11.309265325473543"><ele>138.8</ele><time>2026-04-11T12:07:42.999Z</time></trkpt><trkpt lat="45.53046214260075" lon="11.309404493888339"><ele>138.60000000000002</ele><time>2026-04-11T12:07:53.999Z</time></trkpt><trkpt lat="45.53040756373924" lon="11.309512769608709"><ele>138.4</ele><time>2026-04-11T12:07:54.999Z</time></trkpt><trkpt lat="45.53034810572566" lon="11.309649874541453"><ele>138.20000000000002</ele><time>2026-04-11T12:07:55.999Z</time></trkpt><trkpt lat="45.53029013488503" lon="11.309809310414991"><ele>138.0</ele><time>2026-04-11T12:07:56.999Z</time></trkpt><trkpt lat="45.53022980973251" lon="11.309967463603762"><ele>137.75</ele><time>2026-04-11T12:07:57.999Z</time></trkpt><trkpt lat="45.530170936090244" lon="11.310120071045493"><ele>137.5</ele><time>2026-04-11T12:07:58.998Z</time></trkpt><trkpt lat="45.53011593595324" lon="11.310265099733307"><ele>137.25</ele><time>2026-04-11T12:07:59.998Z</time></trkpt><trkpt lat="45.53006121092832" lon="11.310410509143047"><ele>137.0</ele><time>2026-04-11T12:08:00.998Z</time></trkpt><trkpt lat="45.53000512614631" lon="11.310561809605803"><ele>137.25</ele><time>2026-04-11T12:08:01.998Z</time></trkpt><trkpt lat="45.529949529909345" lon="11.310709578471394"><ele>137.5</ele><time>2026-04-11T12:08:02.998Z</time></trkpt><trkpt lat="45.529893773842836" lon="11.310859069971036"><ele>137.75</ele><time>2026-04-11T12:08:03.998Z</time></trkpt><trkpt lat="45.52983901258397" lon="11.31101394699505"><ele>138.0</ele><time>2026-04-11T12:08:04.998Z</time></trkpt><trkpt lat="45.52978355345567" lon="11.311171325208075"><ele>138.0</ele><time>2026-04-11T12:08:05.998Z</time></trkpt><trkpt lat="45.52972581178393" lon="11.311330934575485"><ele>138.0</ele><time>2026-04-11T12:08:06.998Z</time></trkpt><trkpt lat="45.52966692046087" lon="11.31149053981332"><ele>138.0</ele><time>2026-04-11T12:08:07.998Z</time></trkpt><trkpt lat="45.52960825611041" lon="11.311653039426618"><ele>138.0</ele><time>2026-04-11T12:08:08.998Z</time></trkpt><trkpt lat="45.529547887111214" lon="11.31181517389639"><ele>137.5</ele><time>2026-04-11T12:08:09.998Z</time></trkpt><trkpt lat="45.5294836233517" lon="11.311982857188754"><ele>137.0</ele><time>2026-04-11T12:08:10.998Z</time></trkpt><trkpt lat="45.52942146855083" lon="11.312149806454679"><ele>136.5</ele><time>2026-04-11T12:08:11.998Z</time></trkpt><trkpt lat="45.52935946655165" lon="11.31232061283345"><ele>136.0</ele><time>2026-04-11T12:08:12.998Z</time></trkpt><trkpt lat="45.52930014743299" lon="11.31248178293609"><ele>135.75</ele><time>2026-04-11T12:08:13.998Z</time></trkpt><trkpt lat="45.52924285005477" lon="11.312637045134668"><ele>135.5</ele><time>2026-04-11T12:08:14.998Z</time></trkpt><trkpt lat="45.52918517585432" lon="11.312788799893642"><ele>135.25</ele><time>2026-04-11T12:08:15.998Z</time></trkpt><trkpt lat="45.529129164365614" lon="11.312939980178689"><ele>135.0</ele><time>2026-04-11T12:08:16.998Z</time></trkpt><trkpt lat="45.529042698313354" lon="11.31316485721873"><ele>136.25</ele><time>2026-04-11T12:08:17.998Z</time></trkpt><trkpt lat="45.52897720833695" lon="11.313337937596172"><ele>137.5</ele><time>2026-04-11T12:08:18.998Z</time></trkpt><trkpt lat="45.5289090104488" lon="11.313517263356811"><ele>138.75</ele><time>2026-04-11T12:08:19.998Z</time></trkpt><trkpt lat="45.52883855340023" lon="11.313697036095192"><ele>140.0</ele><time>2026-04-11T12:08:20.998Z</time></trkpt><trkpt lat="45.52876995743923" lon="11.313866721915947"><ele>138.75</ele><time>2026-04-11T12:08:21.998Z</time></trkpt><trkpt lat="45.528699245513955" lon="11.314037717094989"><ele>137.5</ele><time>2026-04-11T12:08:22.998Z</time></trkpt><trkpt lat="45.52862406202778" lon="11.314219906890953"><ele>136.25</ele><time>2026-04-11T12:08:23.998Z</time></trkpt><trkpt lat="45.528547849987184" lon="11.314400724755718"><ele>135.0</ele><time>2026-04-11T12:08:24.998Z</time></trkpt><trkpt lat="45.528467948746396" lon="11.314592315964338"><ele>135.33333333333334</ele><time>2026-04-11T12:08:25.998Z</time></trkpt><trkpt lat="45.52838931500432" lon="11.314780302559845"><ele>135.66666666666669</ele><time>2026-04-11T12:08:26.998Z</time></trkpt><trkpt lat="45.528304819976576" lon="11.31498242393476"><ele>136.0</ele><time>2026-04-11T12:08:27.998Z</time></trkpt><trkpt lat="45.528220555916015" lon="11.315185241157069"><ele>136.0</ele><time>2026-04-11T12:08:28.998Z</time></trkpt><trkpt lat="45.52813851367167" lon="11.315381947337906"><ele>136.0</ele><time>2026-04-11T12:08:29.998Z</time></trkpt><trkpt lat="45.528059143979775" lon="11.31557441880263"><ele>136.0</ele><time>2026-04-11T12:08:30.998Z</time></trkpt><trkpt lat="45.527980811792695" lon="11.315762257154065"><ele>136.33333333333334</ele><time>2026-04-11T12:08:31.998Z</time></trkpt><trkpt lat="45.52790152148879" lon="11.315950983407621"><ele>136.66666666666666</ele><time>2026-04-11T12:08:32.998Z</time></trkpt><trkpt lat="45.52782562745849" lon="11.316141450221382"><ele>137.0</ele><time>2026-04-11T12:08:33.998Z</time></trkpt><trkpt lat="45.52774209139946" lon="11.316326127099146"><ele>134.0</ele><time>2026-04-11T12:08:34.998Z</time></trkpt><trkpt lat="45.527657958576576" lon="11.316513656022135"><ele>131.0</ele><time>2026-04-11T12:08:35.998Z</time></trkpt><trkpt lat="45.527574959739034" lon="11.31671452785881"><ele>128.0</ele><time>2026-04-11T12:08:36.998Z</time></trkpt><trkpt lat="45.52749738024327" lon="11.316902110219427"><ele>128.0</ele><time>2026-04-11T12:08:37.998Z</time></trkpt><trkpt lat="45.52743238445787" lon="11.317066773940402"><ele>128.0</ele><time>2026-04-11T12:08:38.998Z</time></trkpt><trkpt lat="45.52735832590514" lon="11.317256077047446"><ele>128.0</ele><time>2026-04-11T12:08:39.998Z</time></trkpt><trkpt lat="45.52726282394213" lon="11.317467056764695"><ele>128.33333333333331</ele><time>2026-04-11T12:08:40.998Z</time></trkpt><trkpt lat="45.52716453533685" lon="11.317685353669546"><ele>128.66666666666666</ele><time>2026-04-11T12:08:41.997Z</time></trkpt><trkpt lat="45.527070231526" lon="11.317916081392815"><ele>129.0</ele><time>2026-04-11T12:08:42.997Z</time></trkpt><trkpt lat="45.52697949754236" lon="11.318152937054172"><ele>128.33333333333334</ele><time>2026-04-11T12:08:43.997Z</time></trkpt><trkpt lat="45.526898064762484" lon="11.318376605679495"><ele>127.66666666666667</ele><time>2026-04-11T12:08:44.997Z</time></trkpt><trkpt lat="45.52682551208039" lon="11.318592356864361"><ele>127.0</ele><time>2026-04-11T12:08:45.997Z</time></trkpt><trkpt lat="45.526758685897306" lon="11.318809659413755"><ele>127.0</ele><time>2026-04-11T12:08:46.997Z</time></trkpt><trkpt lat="45.526694135178204" lon="11.319023322302106"><ele>127.0</ele><time>2026-04-11T12:08:47.997Z</time></trkpt><trkpt lat="45.52662851027102" lon="11.319236614357651"><ele>127.0</ele><time>2026-04-11T12:08:48.997Z</time></trkpt><trkpt lat="45.52656653593717" lon="11.319450676041663"><ele>127.0</ele><time>2026-04-11T12:08:50Z</time></trkpt><trkpt lat="45.526506792728625" lon="11.319665703712369"><ele>127.0</ele><time>2026-04-11T12:08:51Z</time></trkpt><trkpt lat="45.52644641351782" lon="11.319878420163132"><ele>127.0</ele><time>2026-04-11T12:08:52Z</time></trkpt><trkpt lat="45.52638016630944" lon="11.320093224225161"><ele>127.33333333333334</ele><time>2026-04-11T12:08:53Z</time></trkpt><trkpt lat="45.52631117982988" lon="11.320303179056268"><ele>127.66666666666666</ele><time>2026-04-11T12:08:54Z</time></trkpt><trkpt lat="45.52623827566126" lon="11.320497568987296"><ele>128.0</ele><time>2026-04-11T12:08:55Z</time></trkpt><trkpt lat="45.5261641041513" lon="11.320684352900939"><ele>127.33333333333333</ele><time>2026-04-11T12:08:56Z</time></trkpt><trkpt lat="45.52608795654072" lon="11.320870814316722"><ele>126.66666666666666</ele><time>2026-04-11T12:08:57Z</time></trkpt><trkpt lat="45.52600779680342" lon="11.321058739175628"><ele>126.0</ele><time>2026-04-11T12:08:58Z</time></trkpt><trkpt lat="45.52592424671568" lon="11.321241097853008"><ele>126.25</ele><time>2026-04-11T12:08:59Z</time></trkpt><trkpt lat="45.525838392751425" lon="11.32141528085132"><ele>126.5</ele><time>2026-04-11T12:09:00Z</time></trkpt><trkpt lat="45.52575110887304" lon="11.321585673772534"><ele>126.75</ele><time>2026-04-11T12:09:01Z</time></trkpt><trkpt lat="45.52566228571933" lon="11.321752958719406"><ele>127.0</ele><time>2026-04-11T12:09:02Z</time></trkpt><trkpt lat="45.525578785640555" lon="11.321913613638916"><ele>127.0</ele><time>2026-04-11T12:09:03Z</time></trkpt><trkpt lat="45.525481534586646" lon="11.322079211233566"><ele>127.0</ele><time>2026-04-11T12:09:04Z</time></trkpt><trkpt lat="45.5253877579275" lon="11.322238726649378"><ele>127.0</ele><time>2026-04-11T12:09:05Z</time></trkpt><trkpt lat="45.525293755316405" lon="11.322391401905575"><ele>127.0</ele><time>2026-04-11T12:09:06Z</time></trkpt><trkpt lat="45.525204123111855" lon="11.322523601640448"><ele>126.6</ele><time>2026-04-11T12:09:07Z</time></trkpt><trkpt lat="45.52511810484491" lon="11.32264317079994"><ele>126.19999999999999</ele><time>2026-04-11T12:09:08Z</time></trkpt><trkpt lat="45.52503931442419" lon="11.322741796470375"><ele>125.8</ele><time>2026-04-11T12:09:09Z</time></trkpt><trkpt lat="45.52495123550791" lon="11.32282075851443"><ele>125.4</ele><time>2026-04-11T12:09:10Z</time></trkpt><trkpt lat="45.524869739973596" lon="11.322889724180316"><ele>125.0</ele><time>2026-04-11T12:09:11Z</time></trkpt><trkpt lat="45.52479367451073" lon="11.322941323867497"><ele>124.99999999999999</ele><time>2026-04-11T12:09:12Z</time></trkpt><trkpt lat="45.52471714660552" lon="11.322971894545324"><ele>125.0</ele><time>2026-04-11T12:09:13Z</time></trkpt><trkpt lat="45.52463736738912" lon="11.322979074451995"><ele>125.0</ele><time>2026-04-11T12:09:14Z</time></trkpt><trkpt lat="45.5245537642723" lon="11.322953404698572"><ele>125.0</ele><time>2026-04-11T12:09:15Z</time></trkpt><trkpt lat="45.5244724198112" lon="11.322894961930176"><ele>124.99999999999999</ele><time>2026-04-11T12:09:16Z</time></trkpt><trkpt lat="45.52438699653011" lon="11.322819512076412"><ele>125.0</ele><time>2026-04-11T12:09:16.999Z</time></trkpt><trkpt lat="45.52429792237569" lon="11.32282129344742"><ele>124.6</ele><time>2026-04-11T12:09:17.999Z</time></trkpt><trkpt lat="45.52421440575102" lon="11.322886178706273"><ele>124.2</ele><time>2026-04-11T12:09:18.999Z</time></trkpt><trkpt lat="45.5241441262013" lon="11.322959683412037"><ele>123.80000000000001</ele><time>2026-04-11T12:09:19.999Z</time></trkpt><trkpt lat="45.52406229268623" lon="11.322992504428756"><ele>123.4</ele><time>2026-04-11T12:09:20.999Z</time></trkpt><trkpt lat="45.523985008572446" lon="11.322982543543"><ele>123.0</ele><time>2026-04-11T12:09:21.999Z</time></trkpt><trkpt lat="45.52390187742898" lon="11.322883296269902"><ele>123.0</ele><time>2026-04-11T12:09:22.999Z</time></trkpt><trkpt lat="45.5238217216331" lon="11.32279411417586"><ele>123.00000000000001</ele><time>2026-04-11T12:09:23.999Z</time></trkpt><trkpt lat="45.523738446415486" lon="11.322709491917827"><ele>123.00000000000001</ele><time>2026-04-11T12:09:24.999Z</time></trkpt><trkpt lat="45.52364521000923" lon="11.322621739608222"><ele>123.0</ele><time>2026-04-11T12:09:25.999Z</time></trkpt><trkpt lat="45.52354876439201" lon="11.322529247591131"><ele>123.0</ele><time>2026-04-11T12:09:26.999Z</time></trkpt><trkpt lat="45.52345362458879" lon="11.322437472822575"><ele>123.0</ele><time>2026-04-11T12:09:27.999Z</time></trkpt><trkpt lat="45.5233626779463" lon="11.322348269145573"><ele>123.00000000000001</ele><time>2026-04-11T12:09:28.999Z</time></trkpt><trkpt lat="45.52327369507419" lon="11.32226673093656"><ele>123.00000000000001</ele><time>2026-04-11T12:09:29.999Z</time></trkpt><trkpt lat="45.523185373987225" lon="11.322185266574694"><ele>123.0</ele><time>2026-04-11T12:09:30.999Z</time></trkpt><trkpt lat="45.52309912071906" lon="11.322105525363758"><ele>123.0</ele><time>2026-04-11T12:09:31.999Z</time></trkpt><trkpt lat="45.52301168099201" lon="11.322030545095217"><ele>123.0</ele><time>2026-04-11T12:09:32.999Z</time></trkpt><trkpt lat="45.522923563422026" lon="11.32196890268979"><ele>123.00000000000001</ele><time>2026-04-11T12:09:33.999Z</time></trkpt><trkpt lat="45.52283248580896" lon="11.321923900378398"><ele>123.00000000000001</ele><time>2026-04-11T12:09:34.999Z</time></trkpt><trkpt lat="45.52273588810005" lon="11.321897200780947"><ele>123.0</ele><time>2026-04-11T12:09:35.999Z</time></trkpt><trkpt lat="45.52264311680994" lon="11.321858113197175"><ele>123.0</ele><time>2026-04-11T12:09:36.999Z</time></trkpt><trkpt lat="45.52256099863981" lon="11.321798786462564"><ele>123.0</ele><time>2026-04-11T12:09:37.999Z</time></trkpt><trkpt lat="45.52249848599878" lon="11.321731761688389"><ele>123.0</ele><time>2026-04-11T12:09:38.999Z</time></trkpt><trkpt lat="45.52243482378485" lon="11.321697848038815"><ele>123.0</ele><time>2026-04-11T12:09:39.999Z</time></trkpt><trkpt lat="45.522363985523555" lon="11.321727132930976"><ele>123.0</ele><time>2026-04-11T12:09:40.999Z</time></trkpt><trkpt lat="45.52229988888011" lon="11.321795693953574"><ele>123.0</ele><time>2026-04-11T12:09:41.999Z</time></trkpt><trkpt lat="45.522248500835666" lon="11.321904818883763"><ele>123.0</ele><time>2026-04-11T12:09:42.999Z</time></trkpt><trkpt lat="45.522204314168256" lon="11.322024150405785"><ele>123.0</ele><time>2026-04-11T12:09:43.999Z</time></trkpt><trkpt lat="45.52214892886633" lon="11.322154367758227"><ele>123.0</ele><time>2026-04-11T12:09:44.999Z</time></trkpt><trkpt lat="45.52207317469303" lon="11.322288748293488"><ele>123.0</ele><time>2026-04-11T12:09:45.999Z</time></trkpt><trkpt lat="45.521990674346455" lon="11.322426263617583"><ele>123.0</ele><time>2026-04-11T12:09:46.999Z</time></trkpt><trkpt lat="45.521902122297604" lon="11.32257984898546"><ele>123.0</ele><time>2026-04-11T12:09:47.999Z</time></trkpt><trkpt lat="45.52180941124278" lon="11.322740377459919"><ele>123.0</ele><time>2026-04-11T12:09:48.999Z</time></trkpt><trkpt lat="45.521708680550155" lon="11.322908173137723"><ele>123.0</ele><time>2026-04-11T12:09:49.999Z</time></trkpt><trkpt lat="45.52160986695127" lon="11.323080531936013"><ele>123.0</ele><time>2026-04-11T12:09:50.999Z</time></trkpt><trkpt lat="45.521505436016184" lon="11.323259976799749"><ele>123.0</ele><time>2026-04-11T12:09:51.999Z</time></trkpt><trkpt lat="45.52140067667577" lon="11.323445811877173"><ele>123.0</ele><time>2026-04-11T12:09:52.999Z</time></trkpt><trkpt lat="45.521292706375505" lon="11.323629775742708"><ele>122.66666666666666</ele><time>2026-04-11T12:09:53.999Z</time></trkpt><trkpt lat="45.52119556795748" lon="11.323805643603986"><ele>122.33333333333333</ele><time>2026-04-11T12:09:54.999Z</time></trkpt><trkpt lat="45.52109837890583" lon="11.323984686900069"><ele>122.0</ele><time>2026-04-11T12:09:55.999Z</time></trkpt><trkpt lat="45.521001867719306" lon="11.324159161827382"><ele>121.33333333333333</ele><time>2026-04-11T12:09:56.999Z</time></trkpt><trkpt lat="45.520904588806644" lon="11.324333406411897"><ele>120.66666666666666</ele><time>2026-04-11T12:09:57.999Z</time></trkpt><trkpt lat="45.52080658392717" lon="11.324510210237918"><ele>120.0</ele><time>2026-04-11T12:09:58.999Z</time></trkpt><trkpt lat="45.520711790723865" lon="11.324685758030824"><ele>120.0</ele><time>2026-04-11T12:09:59.999Z</time></trkpt><trkpt lat="45.52062470406345" lon="11.32485501402498"><ele>120.0</ele><time>2026-04-11T12:10:00.999Z</time></trkpt><trkpt lat="45.52054358614231" lon="11.325002946020716"><ele>120.0</ele><time>2026-04-11T12:10:01.999Z</time></trkpt><trkpt lat="45.52045778793255" lon="11.325153315623977"><ele>120.0</ele><time>2026-04-11T12:10:02.999Z</time></trkpt><trkpt lat="45.52035963462957" lon="11.325328225590793"><ele>120.0</ele><time>2026-04-11T12:10:03.998Z</time></trkpt><trkpt lat="45.52024384221997" lon="11.325526859262562"><ele>120.0</ele><time>2026-04-11T12:10:04.998Z</time></trkpt><trkpt lat="45.52012764383853" lon="11.325757472275287"><ele>120.0</ele><time>2026-04-11T12:10:05.998Z</time></trkpt><trkpt lat="45.52000057687653" lon="11.325990448021665"><ele>120.0</ele><time>2026-04-11T12:10:06.998Z</time></trkpt><trkpt lat="45.519904789478936" lon="11.32618958006541"><ele>120.0</ele><time>2026-04-11T12:10:07.998Z</time></trkpt><trkpt lat="45.51978847604038" lon="11.326406417889647"><ele>120.0</ele><time>2026-04-11T12:10:08.998Z</time></trkpt><trkpt lat="45.51968208225827" lon="11.326619976535795"><ele>119.66666666666666</ele><time>2026-04-11T12:10:09.998Z</time></trkpt><trkpt lat="45.519582925189496" lon="11.326821312900293"><ele>119.33333333333333</ele><time>2026-04-11T12:10:10.998Z</time></trkpt><trkpt lat="45.519486223810794" lon="11.327027018408133"><ele>119.0</ele><time>2026-04-11T12:10:11.998Z</time></trkpt><trkpt lat="45.5193891702541" lon="11.327239658459995"><ele>118.33333333333333</ele><time>2026-04-11T12:10:12.998Z</time></trkpt><trkpt lat="45.51930863802401" lon="11.327437357435844"><ele>117.66666666666666</ele><time>2026-04-11T12:10:13.998Z</time></trkpt><trkpt lat="45.51923880917887" lon="11.327630550251001"><ele>117.0</ele><time>2026-04-11T12:10:14.998Z</time></trkpt><trkpt lat="45.51917264432858" lon="11.327820011229372"><ele>117.0</ele><time>2026-04-11T12:10:15.998Z</time></trkpt><trkpt lat="45.51910088737961" lon="11.328012242481611"><ele>117.0</ele><time>2026-04-11T12:10:16.998Z</time></trkpt><trkpt lat="45.519024968937906" lon="11.32820257682972"><ele>117.0</ele><time>2026-04-11T12:10:17.998Z</time></trkpt><trkpt lat="45.51894903809258" lon="11.328392331748962"><ele>117.0</ele><time>2026-04-11T12:10:18.998Z</time></trkpt><trkpt lat="45.518876338476346" lon="11.328574092725002"><ele>117.0</ele><time>2026-04-11T12:10:19.998Z</time></trkpt><trkpt lat="45.51880696721509" lon="11.328748537950093"><ele>117.0</ele><time>2026-04-11T12:10:20.998Z</time></trkpt><trkpt lat="45.51873497023005" lon="11.32892960514793"><ele>117.0</ele><time>2026-04-11T12:10:21.998Z</time></trkpt><trkpt lat="45.51866451711076" lon="11.329115942181607"><ele>116.5</ele><time>2026-04-11T12:10:22.998Z</time></trkpt><trkpt lat="45.51859642162307" lon="11.329300337929713"><ele>116.0</ele><time>2026-04-11T12:10:23.998Z</time></trkpt><trkpt lat="45.518529143621336" lon="11.329472223187459"><ele>115.5</ele><time>2026-04-11T12:10:24.998Z</time></trkpt><trkpt lat="45.518466035755836" lon="11.329633006319678"><ele>115.0</ele><time>2026-04-11T12:10:25.998Z</time></trkpt><trkpt lat="45.518406823913566" lon="11.32978937673657"><ele>115.0</ele><time>2026-04-11T12:10:26.998Z</time></trkpt><trkpt lat="45.518346174098056" lon="11.329947223640836"><ele>115.0</ele><time>2026-04-11T12:10:27.998Z</time></trkpt><trkpt lat="45.51828756445297" lon="11.330107390377355"><ele>115.0</ele><time>2026-04-11T12:10:28.998Z</time></trkpt><trkpt lat="45.51822628548746" lon="11.330263312354857"><ele>115.0</ele><time>2026-04-11T12:10:29.998Z</time></trkpt><trkpt lat="45.51817433404526" lon="11.330419230028223"><ele>115.5</ele><time>2026-04-11T12:10:30.998Z</time></trkpt><trkpt lat="45.51811631577368" lon="11.330573569333165"><ele>116.0</ele><time>2026-04-11T12:10:31.998Z</time></trkpt><trkpt lat="45.5180626680217" lon="11.330722350762601"><ele>116.5</ele><time>2026-04-11T12:10:32.998Z</time></trkpt><trkpt lat="45.518010011322886" lon="11.330869935295476"><ele>117.0</ele><time>2026-04-11T12:10:33.998Z</time></trkpt><trkpt lat="45.517959087594825" lon="11.331008161081707"><ele>117.0</ele><time>2026-04-11T12:10:34.998Z</time></trkpt><trkpt lat="45.517909310761624" lon="11.331142983100964"><ele>116.99999999999999</ele><time>2026-04-11T12:10:35.998Z</time></trkpt><trkpt lat="45.51786384345074" lon="11.331278112608766"><ele>116.99999999999999</ele><time>2026-04-11T12:10:36.998Z</time></trkpt><trkpt lat="45.517819549977574" lon="11.331408601238175"><ele>117.0</ele><time>2026-04-11T12:10:37.998Z</time></trkpt><trkpt lat="45.51777560363913" lon="11.331550844365905"><ele>117.0</ele><time>2026-04-11T12:10:38.998Z</time></trkpt><trkpt lat="45.51772877283223" lon="11.331689371114125"><ele>117.25</ele><time>2026-04-11T12:10:39.998Z</time></trkpt><trkpt lat="45.517674147845185" lon="11.331840388916916"><ele>117.5</ele><time>2026-04-11T12:10:40.998Z</time></trkpt><trkpt lat="45.517614524599395" lon="11.33201355610795"><ele>117.75</ele><time>2026-04-11T12:10:41.998Z</time></trkpt><trkpt lat="45.51756001414265" lon="11.332187763744889"><ele>118.0</ele><time>2026-04-11T12:10:42.998Z</time></trkpt><trkpt lat="45.51750779055184" lon="11.332357576985878"><ele>117.5</ele><time>2026-04-11T12:10:43.998Z</time></trkpt><trkpt lat="45.517455944133914" lon="11.332518787605057"><ele>117.0</ele><time>2026-04-11T12:10:44.998Z</time></trkpt><trkpt lat="45.517406095804276" lon="11.33267857419699"><ele>116.5</ele><time>2026-04-11T12:10:45.998Z</time></trkpt><trkpt lat="45.517358116670756" lon="11.332837767983992"><ele>116.0</ele><time>2026-04-11T12:10:46.998Z</time></trkpt><trkpt lat="45.51730623317155" lon="11.333009970191743"><ele>115.5</ele><time>2026-04-11T12:10:47.997Z</time></trkpt><trkpt lat="45.51725645635902" lon="11.33318480978591"><ele>115.0</ele><time>2026-04-11T12:10:48.997Z</time></trkpt><trkpt lat="45.517213272344094" lon="11.333346925583491"><ele>114.5</ele><time>2026-04-11T12:10:49.997Z</time></trkpt><trkpt lat="45.517165367234746" lon="11.33349941644057"><ele>114.0</ele><time>2026-04-11T12:10:50.997Z</time></trkpt><trkpt lat="45.517124187816485" lon="11.333640472587343"><ele>114.0</ele><time>2026-04-11T12:10:51.997Z</time></trkpt><trkpt lat="45.517090926637515" lon="11.333757977620884"><ele>114.0</ele><time>2026-04-11T12:10:52.997Z</time></trkpt><trkpt lat="45.51706133815777" lon="11.333865266524038"><ele>114.0</ele><time>2026-04-11T12:10:53.997Z</time></trkpt><trkpt lat="45.517017228177835" lon="11.333983921804464"><ele>114.0</ele><time>2026-04-11T12:10:54.997Z</time></trkpt><trkpt lat="45.51694825519865" lon="11.33407105759717"><ele>114.0</ele><time>2026-04-11T12:10:55.999Z</time></trkpt><trkpt lat="45.5169130437267" lon="11.334151469788688"><ele>114.0</ele><time>2026-04-11T12:10:56.999Z</time></trkpt><trkpt lat="45.51688785934478" lon="11.3342791334954"><ele>113.33333333333334</ele><time>2026-04-11T12:10:57.999Z</time></trkpt><trkpt lat="45.516905996353" lon="11.334443603437041"><ele>112.66666666666667</ele><time>2026-04-11T12:10:58.999Z</time></trkpt><trkpt lat="45.516863300300564" lon="11.334675095599431"><ele>112.0</ele><time>2026-04-11T12:10:59.999Z</time></trkpt><trkpt lat="45.51679631340672" lon="11.334921280486288"><ele>112.0</ele><time>2026-04-11T12:11:00.999Z</time></trkpt><trkpt lat="45.51671566442006" lon="11.335184618134429"><ele>112.0</ele><time>2026-04-11T12:11:01.999Z</time></trkpt><trkpt lat="45.516647247108544" lon="11.335449179050482"><ele>112.0</ele><time>2026-04-11T12:11:02.999Z</time></trkpt><trkpt lat="45.51657315054359" lon="11.335703062805218"><ele>111.66666666666667</ele><time>2026-04-11T12:11:03.999Z</time></trkpt><trkpt lat="45.5165019923385" lon="11.335951312349959"><ele>111.33333333333334</ele><time>2026-04-11T12:11:04.999Z</time></trkpt><trkpt lat="45.51643675124239" lon="11.336202137311888"><ele>111.0</ele><time>2026-04-11T12:11:05.999Z</time></trkpt><trkpt lat="45.51636493200964" lon="11.336452930935685"><ele>111.0</ele><time>2026-04-11T12:11:06.999Z</time></trkpt><trkpt lat="45.516285972435355" lon="11.336712920431673"><ele>111.0</ele><time>2026-04-11T12:11:08Z</time></trkpt><trkpt lat="45.51619335293008" lon="11.336978448158215"><ele>111.0</ele><time>2026-04-11T12:11:09Z</time></trkpt><trkpt lat="45.51609063106376" lon="11.337236493227708"><ele>111.0</ele><time>2026-04-11T12:11:10Z</time></trkpt><trkpt lat="45.515983838650826" lon="11.337473285842114"><ele>111.0</ele><time>2026-04-11T12:11:11Z</time></trkpt><trkpt lat="45.515885382697306" lon="11.33769742496432"><ele>111.0</ele><time>2026-04-11T12:11:12Z</time></trkpt><trkpt lat="45.51579119222272" lon="11.337920734810078"><ele>110.33333333333334</ele><time>2026-04-11T12:11:13Z</time></trkpt><trkpt lat="45.51569400828056" lon="11.338148091518331"><ele>109.66666666666667</ele><time>2026-04-11T12:11:13.999Z</time></trkpt><trkpt lat="45.51559869192998" lon="11.338378256410236"><ele>109.0</ele><time>2026-04-11T12:11:14.999Z</time></trkpt><trkpt lat="45.51550073148067" lon="11.338606858331824"><ele>109.0</ele><time>2026-04-11T12:11:15.999Z</time></trkpt><trkpt lat="45.51540682781547" lon="11.338825609076137"><ele>109.0</ele><time>2026-04-11T12:11:16.999Z</time></trkpt><trkpt lat="45.51532102193206" lon="11.339023352496456"><ele>109.0</ele><time>2026-04-11T12:11:17.999Z</time></trkpt><trkpt lat="45.51523508848306" lon="11.339225017011028"><ele>108.66666666666667</ele><time>2026-04-11T12:11:18.999Z</time></trkpt><trkpt lat="45.51515422882278" lon="11.339415616445507"><ele>108.33333333333334</ele><time>2026-04-11T12:11:19.999Z</time></trkpt><trkpt lat="45.51507401299495" lon="11.33959789228132"><ele>108.0</ele><time>2026-04-11T12:11:20.999Z</time></trkpt><trkpt lat="45.514995545113386" lon="11.339779830646675"><ele>108.5</ele><time>2026-04-11T12:11:21.999Z</time></trkpt><trkpt lat="45.514918353899766" lon="11.339956303896768"><ele>109.0</ele><time>2026-04-11T12:11:22.999Z</time></trkpt><trkpt lat="45.51484639771104" lon="11.340116484419754"><ele>109.5</ele><time>2026-04-11T12:11:23.999Z</time></trkpt><trkpt lat="45.51477929365825" lon="11.340255643315368"><ele>110.0</ele><time>2026-04-11T12:11:24.999Z</time></trkpt><trkpt lat="45.51471785174826" lon="11.340378811678654"><ele>110.0</ele><time>2026-04-11T12:11:25.999Z</time></trkpt><trkpt lat="45.514657002622656" lon="11.34050024572187"><ele>110.0</ele><time>2026-04-11T12:11:26.999Z</time></trkpt><trkpt lat="45.51459286804733" lon="11.340640381558659"><ele>110.0</ele><time>2026-04-11T12:11:27.999Z</time></trkpt><trkpt lat="45.514523421494275" lon="11.340808895656552"><ele>110.0</ele><time>2026-04-11T12:11:28.999Z</time></trkpt><trkpt lat="45.51444288193492" lon="11.340994440188728"><ele>109.66666666666666</ele><time>2026-04-11T12:11:29.999Z</time></trkpt><trkpt lat="45.51436204094386" lon="11.341186938821528"><ele>109.33333333333334</ele><time>2026-04-11T12:11:30.999Z</time></trkpt><trkpt lat="45.51427424658424" lon="11.341384925642753"><ele>109.0</ele><time>2026-04-11T12:11:31.999Z</time></trkpt><trkpt lat="45.5141825438759" lon="11.341595781435416"><ele>108.0</ele><time>2026-04-11T12:11:32.999Z</time></trkpt><trkpt lat="45.51409785795344" lon="11.341789780878404"><ele>107.0</ele><time>2026-04-11T12:11:33.999Z</time></trkpt><trkpt lat="45.514014645538765" lon="11.341980501817762"><ele>106.0</ele><time>2026-04-11T12:11:34.999Z</time></trkpt><trkpt lat="45.513932599963674" lon="11.342170167237832"><ele>106.0</ele><time>2026-04-11T12:11:35.999Z</time></trkpt><trkpt lat="45.51385252652279" lon="11.342352667320538"><ele>106.0</ele><time>2026-04-11T12:11:36.999Z</time></trkpt><trkpt lat="45.51376842473312" lon="11.342540019246984"><ele>106.0</ele><time>2026-04-11T12:11:37.999Z</time></trkpt><trkpt lat="45.51368630926188" lon="11.342734138480552"><ele>106.0</ele><time>2026-04-11T12:11:38.999Z</time></trkpt><trkpt lat="45.51359744174619" lon="11.342948244271927"><ele>106.0</ele><time>2026-04-11T12:11:39.999Z</time></trkpt><trkpt lat="45.51350120255665" lon="11.343168044173161"><ele>106.0</ele><time>2026-04-11T12:11:40.999Z</time></trkpt><trkpt lat="45.51339330088398" lon="11.343385908926386"><ele>105.66666666666667</ele><time>2026-04-11T12:11:41.999Z</time></trkpt><trkpt lat="45.513296747075536" lon="11.343587668387503"><ele>105.33333333333334</ele><time>2026-04-11T12:11:42.999Z</time></trkpt><trkpt lat="45.513197803172005" lon="11.343813983800947"><ele>105.0</ele><time>2026-04-11T12:11:43.999Z</time></trkpt><trkpt lat="45.51309701137106" lon="11.344044657185169"><ele>105.0</ele><time>2026-04-11T12:11:44.999Z</time></trkpt><trkpt lat="45.51299952517022" lon="11.344269990894235"><ele>105.0</ele><time>2026-04-11T12:11:45.999Z</time></trkpt><trkpt lat="45.512911583606645" lon="11.344477114037959"><ele>105.0</ele><time>2026-04-11T12:11:46.999Z</time></trkpt><trkpt lat="45.51281995485475" lon="11.344677880644197"><ele>104.0</ele><time>2026-04-11T12:11:47.999Z</time></trkpt><trkpt lat="45.51273081845343" lon="11.344870469552063"><ele>103.0</ele><time>2026-04-11T12:11:48.999Z</time></trkpt><trkpt lat="45.51264519424267" lon="11.345058471569509"><ele>102.0</ele><time>2026-04-11T12:11:49.999Z</time></trkpt><trkpt lat="45.512555735889556" lon="11.345249286224464"><ele>102.0</ele><time>2026-04-11T12:11:50.999Z</time></trkpt><trkpt lat="45.512471875628506" lon="11.345432862486001"><ele>102.0</ele><time>2026-04-11T12:11:51.999Z</time></trkpt><trkpt lat="45.51238849251244" lon="11.345617432507847"><ele>102.0</ele><time>2026-04-11T12:11:52.999Z</time></trkpt><trkpt lat="45.512307612973714" lon="11.34579687363675"><ele>101.75</ele><time>2026-04-11T12:11:53.999Z</time></trkpt><trkpt lat="45.51223586710195" lon="11.34595678272382"><ele>101.5</ele><time>2026-04-11T12:11:54.999Z</time></trkpt><trkpt lat="45.51216375398783" lon="11.346119717385681"><ele>101.25</ele><time>2026-04-11T12:11:55.999Z</time></trkpt><trkpt lat="45.512095722234264" lon="11.34628252189755"><ele>101.0</ele><time>2026-04-11T12:11:56.999Z</time></trkpt><trkpt lat="45.512023481279535" lon="11.346448016870605"><ele>101.0</ele><time>2026-04-11T12:11:57.999Z</time></trkpt><trkpt lat="45.51195546894421" lon="11.346603118106925"><ele>101.0</ele><time>2026-04-11T12:11:58.999Z</time></trkpt><trkpt lat="45.51189160839293" lon="11.346756792445674"><ele>101.0</ele><time>2026-04-11T12:11:59.999Z</time></trkpt><trkpt lat="45.5118307586585" lon="11.346902913446305"><ele>101.0</ele><time>2026-04-11T12:12:00.999Z</time></trkpt><trkpt lat="45.51177064447289" lon="11.34701948268485"><ele>101.0</ele><time>2026-04-11T12:12:01.999Z</time></trkpt><trkpt lat="45.51169393375844" lon="11.34709627339439"><ele>101.0</ele><time>2026-04-11T12:12:02.999Z</time></trkpt><trkpt lat="45.511601892395724" lon="11.34714733674482"><ele>101.0</ele><time>2026-04-11T12:12:03.999Z</time></trkpt><trkpt lat="45.511498359538884" lon="11.347164480676115"><ele>101.0</ele><time>2026-04-11T12:12:04.999Z</time></trkpt><trkpt lat="45.51138905201887" lon="11.347161158433956"><ele>101.0</ele><time>2026-04-11T12:12:05.999Z</time></trkpt><trkpt lat="45.51127336352754" lon="11.347160109122987"><ele>100.5</ele><time>2026-04-11T12:12:06.999Z</time></trkpt><trkpt lat="45.511151980378074" lon="11.34715412840735"><ele>100.0</ele><time>2026-04-11T12:12:07.999Z</time></trkpt><trkpt lat="45.511027002503134" lon="11.347143269347274"><ele>99.5</ele><time>2026-04-11T12:12:08.999Z</time></trkpt><trkpt lat="45.5108981867312" lon="11.347138003825604"><ele>99.0</ele><time>2026-04-11T12:12:09.998Z</time></trkpt><trkpt lat="45.51077576221913" lon="11.34713260370073"><ele>99.0</ele><time>2026-04-11T12:12:10.998Z</time></trkpt><trkpt lat="45.51066345158629" lon="11.347129715154988"><ele>99.0</ele><time>2026-04-11T12:12:11.998Z</time></trkpt><trkpt lat="45.51055719313994" lon="11.347150333853842"><ele>99.0</ele><time>2026-04-11T12:12:12.998Z</time></trkpt><trkpt lat="45.51047474072777" lon="11.347231177119875"><ele>99.0</ele><time>2026-04-11T12:12:13.998Z</time></trkpt><trkpt lat="45.51041281717859" lon="11.34736265441198"><ele>99.0</ele><time>2026-04-11T12:12:14.998Z</time></trkpt><trkpt lat="45.51038621784086" lon="11.347574645476357"><ele>98.66666666666666</ele><time>2026-04-11T12:12:15.998Z</time></trkpt><trkpt lat="45.51034521774006" lon="11.347824429514533"><ele>98.33333333333333</ele><time>2026-04-11T12:12:16.998Z</time></trkpt><trkpt lat="45.51030742804604" lon="11.348087853191599"><ele>98.0</ele><time>2026-04-11T12:12:17.998Z</time></trkpt><trkpt lat="45.51027393488937" lon="11.348310009916258"><ele>98.0</ele><time>2026-04-11T12:12:18.998Z</time></trkpt><trkpt lat="45.51026057020513" lon="11.348510567540695"><ele>98.0</ele><time>2026-04-11T12:12:19.998Z</time></trkpt><trkpt lat="45.51023446691405" lon="11.348679956506098"><ele>98.0</ele><time>2026-04-11T12:12:20.998Z</time></trkpt><trkpt lat="45.51022299909523" lon="11.348842184159981"><ele>98.0</ele><time>2026-04-11T12:12:21.998Z</time></trkpt><trkpt lat="45.51024962078388" lon="11.349007860568637"><ele>98.0</ele><time>2026-04-11T12:12:22.998Z</time></trkpt><trkpt lat="45.51032669449172" lon="11.349135385570584"><ele>98.0</ele><time>2026-04-11T12:12:23.998Z</time></trkpt><trkpt lat="45.51044009952342" lon="11.349209326898505"><ele>98.0</ele><time>2026-04-11T12:12:24.998Z</time></trkpt><trkpt lat="45.51058063392912" lon="11.3492275011795"><ele>98.0</ele><time>2026-04-11T12:12:25.998Z</time></trkpt><trkpt lat="45.510764642808674" lon="11.349193350910603"><ele>98.33333333333333</ele><time>2026-04-11T12:12:26.998Z</time></trkpt><trkpt lat="45.51095977070849" lon="11.349202006894036"><ele>98.66666666666666</ele><time>2026-04-11T12:12:27.998Z</time></trkpt><trkpt lat="45.511118758358755" lon="11.349223912241701"><ele>99.0</ele><time>2026-04-11T12:12:28.998Z</time></trkpt><trkpt lat="45.51125603283978" lon="11.34924093695933"><ele>99.0</ele><time>2026-04-11T12:12:29.998Z</time></trkpt><trkpt lat="45.51137060893218" lon="11.349291806036694"><ele>99.0</ele><time>2026-04-11T12:12:30.998Z</time></trkpt><trkpt lat="45.51145337959417" lon="11.349393359661756"><ele>99.0</ele><time>2026-04-11T12:12:31.998Z</time></trkpt><trkpt lat="45.51153230001479" lon="11.3494923642069"><ele>99.0</ele><time>2026-04-11T12:12:32.998Z</time></trkpt><trkpt lat="45.511540496271934" lon="11.349720091790589"><ele>99.0</ele><time>2026-04-11T12:12:33.998Z</time></trkpt><trkpt lat="45.51155288819494" lon="11.349935649498557"><ele>99.0</ele><time>2026-04-11T12:12:34.998Z</time></trkpt><trkpt lat="45.51156088063664" lon="11.350180681365007"><ele>99.0</ele><time>2026-04-11T12:12:35.998Z</time></trkpt><trkpt lat="45.51157635491486" lon="11.350431219112128"><ele>99.0</ele><time>2026-04-11T12:12:36.998Z</time></trkpt><trkpt lat="45.511597685609814" lon="11.350687725778212"><ele>99.0</ele><time>2026-04-11T12:12:37.998Z</time></trkpt><trkpt lat="45.511615591542814" lon="11.350950450733498"><ele>99.0</ele><time>2026-04-11T12:12:38.998Z</time></trkpt><trkpt lat="45.51163249637394" lon="11.351232520609285"><ele>99.0</ele><time>2026-04-11T12:12:39.998Z</time></trkpt><trkpt lat="45.51165072452972" lon="11.351511956192319"><ele>99.0</ele><time>2026-04-11T12:12:40.998Z</time></trkpt><trkpt lat="45.511670466866" lon="11.35177965375011"><ele>99.0</ele><time>2026-04-11T12:12:41.998Z</time></trkpt><trkpt lat="45.51169079624297" lon="11.352046830328174"><ele>98.66666666666666</ele><time>2026-04-11T12:12:42.998Z</time></trkpt><trkpt lat="45.511713916494436" lon="11.35231826812617"><ele>98.33333333333333</ele><time>2026-04-11T12:12:43.998Z</time></trkpt><trkpt lat="45.51173436052155" lon="11.352589447162908"><ele>98.0</ele><time>2026-04-11T12:12:44.998Z</time></trkpt><trkpt lat="45.511756555642506" lon="11.3528652939555"><ele>98.0</ele><time>2026-04-11T12:12:45.998Z</time></trkpt><trkpt lat="45.511776419610285" lon="11.353140074853759"><ele>98.0</ele><time>2026-04-11T12:12:46.998Z</time></trkpt><trkpt lat="45.51179665858585" lon="11.353424686752925"><ele>98.0</ele><time>2026-04-11T12:12:47.998Z</time></trkpt><trkpt lat="45.511816315375484" lon="11.353696335123688"><ele>98.0</ele><time>2026-04-11T12:12:48.998Z</time></trkpt><trkpt lat="45.51183560662988" lon="11.35397413225506"><ele>98.0</ele><time>2026-04-11T12:12:49.998Z</time></trkpt><trkpt lat="45.51185366717978" lon="11.354245661534737"><ele>98.0</ele><time>2026-04-11T12:12:50.998Z</time></trkpt><trkpt lat="45.51187110023016" lon="11.354523556091635"><ele>97.66666666666666</ele><time>2026-04-11T12:12:51.998Z</time></trkpt><trkpt lat="45.511892085297774" lon="11.354804833131595"><ele>97.33333333333334</ele><time>2026-04-11T12:12:52.998Z</time></trkpt><trkpt lat="45.511910974076216" lon="11.355081580908859"><ele>97.0</ele><time>2026-04-11T12:12:53.998Z</time></trkpt><trkpt lat="45.511930681420054" lon="11.355358548613673"><ele>96.66666666666667</ele><time>2026-04-11T12:12:54.998Z</time></trkpt><trkpt lat="45.51195626571188" lon="11.35563811678616"><ele>96.33333333333334</ele><time>2026-04-11T12:12:55.998Z</time></trkpt><trkpt lat="45.51199179647175" lon="11.355915050377426"><ele>96.0</ele><time>2026-04-11T12:12:56.998Z</time></trkpt><trkpt lat="45.51204080966376" lon="11.356191610798303"><ele>96.33333333333334</ele><time>2026-04-11T12:12:57.997Z</time></trkpt><trkpt lat="45.5121021849972" lon="11.356477343605272"><ele>96.66666666666667</ele><time>2026-04-11T12:12:58.997Z</time></trkpt><trkpt lat="45.51218646292108" lon="11.356775745946392"><ele>97.0</ele><time>2026-04-11T12:12:59.997Z</time></trkpt><trkpt lat="45.51229270933741" lon="11.357133931601808"><ele>97.0</ele><time>2026-04-11T12:13:00.997Z</time></trkpt><trkpt lat="45.51240653697103" lon="11.357527904358921"><ele>97.0</ele><time>2026-04-11T12:13:01.999Z</time></trkpt><trkpt lat="45.51249528026916" lon="11.357865086680562"><ele>96.0</ele><time>2026-04-11T12:13:03.999Z</time></trkpt><trkpt lat="45.512578547153396" lon="11.358133786563178"><ele>95.0</ele><time>2026-04-11T12:13:04.999Z</time></trkpt><trkpt lat="45.51265661859011" lon="11.358396116225308"><ele>94.0</ele><time>2026-04-11T12:13:05.999Z</time></trkpt><trkpt lat="45.51272450128474" lon="11.358646233572497"><ele>94.0</ele><time>2026-04-11T12:13:06.999Z</time></trkpt><trkpt lat="45.512788616516886" lon="11.358876345131815"><ele>94.0</ele><time>2026-04-11T12:13:07.999Z</time></trkpt><trkpt lat="45.51284971244365" lon="11.3590880171131"><ele>94.0</ele><time>2026-04-11T12:13:08.999Z</time></trkpt><trkpt lat="45.51290406979844" lon="11.35927637023726"><ele>94.25</ele><time>2026-04-11T12:13:09.999Z</time></trkpt><trkpt lat="45.51295912197693" lon="11.3594563484893"><ele>94.5</ele><time>2026-04-11T12:13:10.999Z</time></trkpt><trkpt lat="45.513012277280595" lon="11.35963139697336"><ele>94.75</ele><time>2026-04-11T12:13:12Z</time></trkpt><trkpt lat="45.51305829877808" lon="11.359783932730426"><ele>95.0</ele><time>2026-04-11T12:13:13Z</time></trkpt><trkpt lat="45.51310125414518" lon="11.359921603279398"><ele>95.16666666666667</ele><time>2026-04-11T12:13:14Z</time></trkpt><trkpt lat="45.513139776706126" lon="11.360045570772781"><ele>95.33333333333334</ele><time>2026-04-11T12:13:15Z</time></trkpt><trkpt lat="45.51317823030807" lon="11.36015040775395"><ele>95.5</ele><time>2026-04-11T12:13:16Z</time></trkpt><trkpt lat="45.51320757125474" lon="11.360245206468171"><ele>95.66666666666667</ele><time>2026-04-11T12:13:17Z</time></trkpt><trkpt lat="45.51323473666277" lon="11.360351176037334"><ele>95.83333333333333</ele><time>2026-04-11T12:13:19Z</time></trkpt><trkpt lat="45.513250362460795" lon="11.360490298842526"><ele>96.0</ele><time>2026-04-11T12:13:21Z</time></trkpt><trkpt lat="45.51326363450264" lon="11.360589791268579"><ele>95.4</ele><time>2026-04-11T12:13:21.999Z</time></trkpt><trkpt lat="45.513291713743165" lon="11.360694320524024"><ele>94.8</ele><time>2026-04-11T12:13:22.999Z</time></trkpt><trkpt lat="45.51333744026429" lon="11.360799632854695"><ele>94.2</ele><time>2026-04-11T12:13:23.999Z</time></trkpt><trkpt lat="45.51338867437635" lon="11.360955367124701"><ele>93.60000000000001</ele><time>2026-04-11T12:13:24.999Z</time></trkpt><trkpt lat="45.51340861089527" lon="11.361099272638395"><ele>93.0</ele><time>2026-04-11T12:13:25.999Z</time></trkpt><trkpt lat="45.51342326870113" lon="11.361256152843062"><ele>93.25</ele><time>2026-04-11T12:13:26.999Z</time></trkpt><trkpt lat="45.513419785045265" lon="11.36142182721645"><ele>93.5</ele><time>2026-04-11T12:13:27.999Z</time></trkpt><trkpt lat="45.513424063907905" lon="11.361621022540549"><ele>93.75</ele><time>2026-04-11T12:13:28.999Z</time></trkpt><trkpt lat="45.51343018024074" lon="11.36184761440053"><ele>94.0</ele><time>2026-04-11T12:13:29.999Z</time></trkpt><trkpt lat="45.51343572799949" lon="11.362082668965162"><ele>93.5</ele><time>2026-04-11T12:13:30.999Z</time></trkpt><trkpt lat="45.51343906267247" lon="11.362285508402076"><ele>93.0</ele><time>2026-04-11T12:13:31.999Z</time></trkpt><trkpt lat="45.513437817081474" lon="11.362474381204855"><ele>92.5</ele><time>2026-04-11T12:13:32.999Z</time></trkpt><trkpt lat="45.51343577205339" lon="11.362640815861711"><ele>92.0</ele><time>2026-04-11T12:13:33.999Z</time></trkpt><trkpt lat="45.51343335713712" lon="11.362786716518851"><ele>92.0</ele><time>2026-04-11T12:13:34.999Z</time></trkpt><trkpt lat="45.51343240544211" lon="11.362912630576252"><ele>92.0</ele><time>2026-04-11T12:13:35.999Z</time></trkpt><trkpt lat="45.51344001212538" lon="11.363038067472504"><ele>92.0</ele><time>2026-04-11T12:13:36.999Z</time></trkpt><trkpt lat="45.51345288005774" lon="11.3631491988065"><ele>92.0</ele><time>2026-04-11T12:13:37.999Z</time></trkpt><trkpt lat="45.513471313967266" lon="11.363251179730094"><ele>92.0</ele><time>2026-04-11T12:13:38.999Z</time></trkpt><trkpt lat="45.513490184662814" lon="11.363343033261394"><ele>92.0</ele><time>2026-04-11T12:13:39.999Z</time></trkpt><trkpt lat="45.51350659839799" lon="11.36346135195883"><ele>92.0</ele><time>2026-04-11T12:13:41.999Z</time></trkpt><trkpt lat="45.51344049787015" lon="11.363593513964512"><ele>92.0</ele><time>2026-04-11T12:13:44.999Z</time></trkpt><trkpt lat="45.513425108401236" lon="11.363682669249869"><ele>92.0</ele><time>2026-04-11T12:13:45.999Z</time></trkpt><trkpt lat="45.513418811245174" lon="11.363779101834863"><ele>92.0</ele><time>2026-04-11T12:13:46.999Z</time></trkpt><trkpt lat="45.513434810494594" lon="11.363871173234692"><ele>92.0</ele><time>2026-04-11T12:13:47.999Z</time></trkpt><trkpt lat="45.513464205712765" lon="11.36395452415487"><ele>92.0</ele><time>2026-04-11T12:13:48.999Z</time></trkpt><trkpt lat="45.51350807104064" lon="11.36402136875164"><ele>92.0</ele><time>2026-04-11T12:13:49.999Z</time></trkpt><trkpt lat="45.513469146484226" lon="11.364132721451353"><ele>91.6</ele><time>2026-04-11T12:13:50.999Z</time></trkpt><trkpt lat="45.51347330046882" lon="11.36424588606587"><ele>91.19999999999999</ele><time>2026-04-11T12:13:52.999Z</time></trkpt><trkpt lat="45.51347844236137" lon="11.364358614242214"><ele>90.8</ele><time>2026-04-11T12:13:53.999Z</time></trkpt><trkpt lat="45.5134869220821" lon="11.364531845874758"><ele>90.4</ele><time>2026-04-11T12:13:54.999Z</time></trkpt><trkpt lat="45.51348255476514" lon="11.364764783286372"><ele>90.0</ele><time>2026-04-11T12:13:55.999Z</time></trkpt><trkpt lat="45.51348804738511" lon="11.365048083232633"><ele>89.66666666666667</ele><time>2026-04-11T12:13:56.999Z</time></trkpt><trkpt lat="45.51349627127245" lon="11.365339700108484"><ele>89.33333333333334</ele><time>2026-04-11T12:13:57.999Z</time></trkpt><trkpt lat="45.513507323038624" lon="11.365668088662526"><ele>89.0</ele><time>2026-04-11T12:13:58.999Z</time></trkpt><trkpt lat="45.51351687465447" lon="11.36600657571106"><ele>88.66666666666667</ele><time>2026-04-11T12:13:59.999Z</time></trkpt><trkpt lat="45.51352407192978" lon="11.366328189875757"><ele>88.33333333333333</ele><time>2026-04-11T12:14:00.999Z</time></trkpt><trkpt lat="45.513531410174686" lon="11.366641417304542"><ele>88.0</ele><time>2026-04-11T12:14:01.999Z</time></trkpt><trkpt lat="45.513535938493405" lon="11.36694698699725"><ele>87.0</ele><time>2026-04-11T12:14:02.999Z</time></trkpt><trkpt lat="45.51353966935054" lon="11.367218876370769"><ele>86.0</ele><time>2026-04-11T12:14:03.999Z</time></trkpt><trkpt lat="45.51354386132086" lon="11.367485010431816"><ele>85.0</ele><time>2026-04-11T12:14:04.999Z</time></trkpt><trkpt lat="45.51354883670843" lon="11.367726871956425"><ele>85.0</ele><time>2026-04-11T12:14:05.999Z</time></trkpt><trkpt lat="45.51355623788993" lon="11.367965374407504"><ele>85.0</ele><time>2026-04-11T12:14:06.999Z</time></trkpt><trkpt lat="45.51355973638277" lon="11.368203209222248"><ele>85.0</ele><time>2026-04-11T12:14:07.999Z</time></trkpt><trkpt lat="45.51356442321385" lon="11.368448561499378"><ele>84.33333333333333</ele><time>2026-04-11T12:14:08.999Z</time></trkpt><trkpt lat="45.513569649660404" lon="11.36869976093927"><ele>83.66666666666667</ele><time>2026-04-11T12:14:09.999Z</time></trkpt><trkpt lat="45.5135732397844" lon="11.368941998575016"><ele>83.0</ele><time>2026-04-11T12:14:10.999Z</time></trkpt><trkpt lat="45.51357928105589" lon="11.369183434038376"><ele>83.0</ele><time>2026-04-11T12:14:11.999Z</time></trkpt><trkpt lat="45.513582616178006" lon="11.36942181716896"><ele>83.0</ele><time>2026-04-11T12:14:12.999Z</time></trkpt><trkpt lat="45.513586067146555" lon="11.369649737186684"><ele>83.0</ele><time>2026-04-11T12:14:13.999Z</time></trkpt><trkpt lat="45.513592351811255" lon="11.369864568583534"><ele>83.0</ele><time>2026-04-11T12:14:14.999Z</time></trkpt><trkpt lat="45.51359805713276" lon="11.370073836952134"><ele>83.0</ele><time>2026-04-11T12:14:15.999Z</time></trkpt><trkpt lat="45.513604978365905" lon="11.37029269376489"><ele>83.0</ele><time>2026-04-11T12:14:16.999Z</time></trkpt><trkpt lat="45.51360598178488" lon="11.37051643103809"><ele>82.5</ele><time>2026-04-11T12:14:17.999Z</time></trkpt><trkpt lat="45.513610447087636" lon="11.370727849456225"><ele>82.0</ele><time>2026-04-11T12:14:18.999Z</time></trkpt><trkpt lat="45.51361110001452" lon="11.370932530904716"><ele>81.5</ele><time>2026-04-11T12:14:19.999Z</time></trkpt><trkpt lat="45.51361359487371" lon="11.371149451146275"><ele>81.0</ele><time>2026-04-11T12:14:20.998Z</time></trkpt><trkpt lat="45.513604918028236" lon="11.37136709623044"><ele>80.66666666666667</ele><time>2026-04-11T12:14:21.998Z</time></trkpt><trkpt lat="45.513593737790224" lon="11.371600176774084"><ele>80.33333333333334</ele><time>2026-04-11T12:14:22.998Z</time></trkpt><trkpt lat="45.51356856437314" lon="11.371827795812226"><ele>80.0</ele><time>2026-04-11T12:14:23.998Z</time></trkpt><trkpt lat="45.513529686905144" lon="11.372058659510577"><ele>80.0</ele><time>2026-04-11T12:14:24.998Z</time></trkpt><trkpt lat="45.51347402633598" lon="11.372295012487864"><ele>80.0</ele><time>2026-04-11T12:14:25.998Z</time></trkpt><trkpt lat="45.51340296542022" lon="11.372507728938324"><ele>80.0</ele><time>2026-04-11T12:14:26.998Z</time></trkpt><trkpt lat="45.51331300371323" lon="11.372712614671752"><ele>80.0</ele><time>2026-04-11T12:14:27.998Z</time></trkpt><trkpt lat="45.51322433160985" lon="11.372906752487314"><ele>80.0</ele><time>2026-04-11T12:14:28.998Z</time></trkpt><trkpt lat="45.5131321670239" lon="11.373111770742852"><ele>80.0</ele><time>2026-04-11T12:14:29.998Z</time></trkpt><trkpt lat="45.51305178416299" lon="11.373300353528741"><ele>80.0</ele><time>2026-04-11T12:14:30.998Z</time></trkpt><trkpt lat="45.512969887158626" lon="11.373492336078899"><ele>80.0</ele><time>2026-04-11T12:14:31.998Z</time></trkpt><trkpt lat="45.51288252839466" lon="11.373692955855397"><ele>80.0</ele><time>2026-04-11T12:14:32.998Z</time></trkpt><trkpt lat="45.51279768138334" lon="11.373892918671705"><ele>81.0</ele><time>2026-04-11T12:14:33.998Z</time></trkpt><trkpt lat="45.51271523112426" lon="11.374088201184174"><ele>82.0</ele><time>2026-04-11T12:14:34.998Z</time></trkpt><trkpt lat="45.512629495626435" lon="11.374287516645916"><ele>83.0</ele><time>2026-04-11T12:14:35.998Z</time></trkpt><trkpt lat="45.51253714041418" lon="11.374497801220684"><ele>83.66666666666667</ele><time>2026-04-11T12:14:36.998Z</time></trkpt><trkpt lat="45.51244989831961" lon="11.374700715910365"><ele>84.33333333333333</ele><time>2026-04-11T12:14:37.998Z</time></trkpt><trkpt lat="45.51236636304427" lon="11.37490144879375"><ele>85.0</ele><time>2026-04-11T12:14:38.998Z</time></trkpt><trkpt lat="45.51229015526125" lon="11.375098948939806"><ele>85.0</ele><time>2026-04-11T12:14:39.998Z</time></trkpt><trkpt lat="45.512236177309155" lon="11.375315299303203"><ele>85.0</ele><time>2026-04-11T12:14:40.998Z</time></trkpt><trkpt lat="45.5121927691402" lon="11.375532938831135"><ele>85.0</ele><time>2026-04-11T12:14:41.998Z</time></trkpt><trkpt lat="45.51216747264681" lon="11.375756688617319"><ele>84.66666666666666</ele><time>2026-04-11T12:14:42.998Z</time></trkpt><trkpt lat="45.512143276463306" lon="11.375988404782962"><ele>84.33333333333333</ele><time>2026-04-11T12:14:43.998Z</time></trkpt><trkpt lat="45.51210734546411" lon="11.376223484006765"><ele>84.0</ele><time>2026-04-11T12:14:44.998Z</time></trkpt><trkpt lat="45.51205036667534" lon="11.376459516101471"><ele>84.0</ele><time>2026-04-11T12:14:45.998Z</time></trkpt><trkpt lat="45.51197986621277" lon="11.376692121110347"><ele>84.0</ele><time>2026-04-11T12:14:46.998Z</time></trkpt><trkpt lat="45.51189976145535" lon="11.376914437161636"><ele>84.0</ele><time>2026-04-11T12:14:47.998Z</time></trkpt><trkpt lat="45.51180960018585" lon="11.377136104182915"><ele>84.33333333333333</ele><time>2026-04-11T12:14:48.998Z</time></trkpt><trkpt lat="45.511728286893714" lon="11.377346394058916"><ele>84.66666666666666</ele><time>2026-04-11T12:14:49.998Z</time></trkpt><trkpt lat="45.51165463254082" lon="11.377548336095835"><ele>85.0</ele><time>2026-04-11T12:14:50.998Z</time></trkpt><trkpt lat="45.51158026113178" lon="11.37774938312877"><ele>85.0</ele><time>2026-04-11T12:14:51.998Z</time></trkpt><trkpt lat="45.51149913186522" lon="11.377956804886265"><ele>85.0</ele><time>2026-04-11T12:14:52.998Z</time></trkpt><trkpt lat="45.511419260299476" lon="11.378161448438828"><ele>85.0</ele><time>2026-04-11T12:14:53.998Z</time></trkpt><trkpt lat="45.51134586486435" lon="11.378366707998003"><ele>84.0</ele><time>2026-04-11T12:14:54.998Z</time></trkpt><trkpt lat="45.511271656248375" lon="11.378565775443015"><ele>83.0</ele><time>2026-04-11T12:14:55.998Z</time></trkpt><trkpt lat="45.511193707010946" lon="11.378762878334157"><ele>82.0</ele><time>2026-04-11T12:14:56.998Z</time></trkpt><trkpt lat="45.51111922448758" lon="11.378958514703244"><ele>81.0</ele><time>2026-04-11T12:14:57.998Z</time></trkpt><trkpt lat="45.51104420497102" lon="11.379158944209218"><ele>80.0</ele><time>2026-04-11T12:14:58.998Z</time></trkpt><trkpt lat="45.51097150257216" lon="11.379361414455289"><ele>79.0</ele><time>2026-04-11T12:14:59.998Z</time></trkpt><trkpt lat="45.51090047493772" lon="11.379572126977754"><ele>80.33333333333333</ele><time>2026-04-11T12:15:00.998Z</time></trkpt><trkpt lat="45.51082357160668" lon="11.37977209029691"><ele>81.66666666666667</ele><time>2026-04-11T12:15:01.998Z</time></trkpt><trkpt lat="45.51073844103737" lon="11.379986212471147"><ele>83.0</ele><time>2026-04-11T12:15:02.998Z</time></trkpt><trkpt lat="45.51065638588358" lon="11.380211959002471"><ele>83.0</ele><time>2026-04-11T12:15:03.998Z</time></trkpt><trkpt lat="45.51058818881043" lon="11.380435649612085"><ele>83.0</ele><time>2026-04-11T12:15:04.998Z</time></trkpt><trkpt lat="45.51053695191672" lon="11.380648509641679"><ele>83.0</ele><time>2026-04-11T12:15:05.998Z</time></trkpt><trkpt lat="45.51049414864088" lon="11.380860918790749"><ele>82.66666666666667</ele><time>2026-04-11T12:15:06.998Z</time></trkpt><trkpt lat="45.51045181313839" lon="11.38107614154718"><ele>82.33333333333333</ele><time>2026-04-11T12:15:08Z</time></trkpt><trkpt lat="45.51040862552701" lon="11.381288671730363"><ele>82.0</ele><time>2026-04-11T12:15:09Z</time></trkpt><trkpt lat="45.51036278536554" lon="11.381508043928921"><ele>81.66666666666666</ele><time>2026-04-11T12:15:10Z</time></trkpt><trkpt lat="45.510312621157745" lon="11.3817293945285"><ele>81.33333333333333</ele><time>2026-04-11T12:15:11Z</time></trkpt><trkpt lat="45.510264440053696" lon="11.38194676550883"><ele>81.0</ele><time>2026-04-11T12:15:12Z</time></trkpt><trkpt lat="45.51022116886045" lon="11.382161813298078"><ele>81.0</ele><time>2026-04-11T12:15:13Z</time></trkpt><trkpt lat="45.51017731047222" lon="11.382366679853442"><ele>81.0</ele><time>2026-04-11T12:15:14Z</time></trkpt><trkpt lat="45.51013609360972" lon="11.382582462557082"><ele>81.0</ele><time>2026-04-11T12:15:15Z</time></trkpt><trkpt lat="45.510089248631964" lon="11.38279503120912"><ele>81.0</ele><time>2026-04-11T12:15:16Z</time></trkpt><trkpt lat="45.51004028952964" lon="11.383005351988821"><ele>81.0</ele><time>2026-04-11T12:15:17Z</time></trkpt><trkpt lat="45.509994682327864" lon="11.38321684715032"><ele>81.0</ele><time>2026-04-11T12:15:18Z</time></trkpt><trkpt lat="45.509945195148774" lon="11.383444256850492"><ele>80.33333333333333</ele><time>2026-04-11T12:15:19Z</time></trkpt><trkpt lat="45.50989645158668" lon="11.383674412069027"><ele>79.66666666666666</ele><time>2026-04-11T12:15:20Z</time></trkpt><trkpt lat="45.50984465018164" lon="11.383905850558595"><ele>79.0</ele><time>2026-04-11T12:15:21Z</time></trkpt><trkpt lat="45.50979722467825" lon="11.38413630554112"><ele>79.0</ele><time>2026-04-11T12:15:22Z</time></trkpt><trkpt lat="45.50975430192301" lon="11.384362013085125"><ele>79.0</ele><time>2026-04-11T12:15:23Z</time></trkpt><trkpt lat="45.50970500924117" lon="11.384587918303174"><ele>79.0</ele><time>2026-04-11T12:15:24Z</time></trkpt><trkpt lat="45.50966144794738" lon="11.384804612913902"><ele>79.66666666666666</ele><time>2026-04-11T12:15:25Z</time></trkpt><trkpt lat="45.50961669509325" lon="11.385022637933396"><ele>80.33333333333333</ele><time>2026-04-11T12:15:26Z</time></trkpt><trkpt lat="45.5095750072253" lon="11.385246118031525"><ele>81.0</ele><time>2026-04-11T12:15:27Z</time></trkpt><trkpt lat="45.50952438629627" lon="11.385467013543346"><ele>81.0</ele><time>2026-04-11T12:15:28Z</time></trkpt><trkpt lat="45.50947956509063" lon="11.385677505826386"><ele>81.0</ele><time>2026-04-11T12:15:29Z</time></trkpt><trkpt lat="45.50943912469401" lon="11.385880131187891"><ele>81.0</ele><time>2026-04-11T12:15:30Z</time></trkpt><trkpt lat="45.50940323721862" lon="11.386086369817768"><ele>81.0</ele><time>2026-04-11T12:15:31Z</time></trkpt><trkpt lat="45.509376465972025" lon="11.386293270012743"><ele>81.0</ele><time>2026-04-11T12:15:32Z</time></trkpt><trkpt lat="45.509358497093245" lon="11.386490031445424"><ele>81.0</ele><time>2026-04-11T12:15:33Z</time></trkpt><trkpt lat="45.509344814736494" lon="11.386672042815809"><ele>81.0</ele><time>2026-04-11T12:15:34Z</time></trkpt><trkpt lat="45.50933861170021" lon="11.386853408471891"><ele>80.6</ele><time>2026-04-11T12:15:35Z</time></trkpt><trkpt lat="45.509343583899984" lon="11.38703463344999"><ele>80.19999999999999</ele><time>2026-04-11T12:15:36Z</time></trkpt><trkpt lat="45.509357090592744" lon="11.387196803982361"><ele>79.80000000000001</ele><time>2026-04-11T12:15:36.999Z</time></trkpt><trkpt lat="45.50937056173189" lon="11.387331613093487"><ele>79.4</ele><time>2026-04-11T12:15:37.999Z</time></trkpt><trkpt lat="45.5093709980849" lon="11.38746753255753"><ele>79.0</ele><time>2026-04-11T12:15:38.999Z</time></trkpt><trkpt lat="45.50935147530643" lon="11.387591102346741"><ele>78.60000000000001</ele><time>2026-04-11T12:15:39.999Z</time></trkpt><trkpt lat="45.50931396222078" lon="11.387704147260646"><ele>78.2</ele><time>2026-04-11T12:15:40.999Z</time></trkpt><trkpt lat="45.509256726409994" lon="11.387824330367662"><ele>77.80000000000001</ele><time>2026-04-11T12:15:41.999Z</time></trkpt><trkpt lat="45.509185182023366" lon="11.387958378393131"><ele>77.4</ele><time>2026-04-11T12:15:42.999Z</time></trkpt><trkpt lat="45.50910395288467" lon="11.388100332207678"><ele>77.0</ele><time>2026-04-11T12:15:43.999Z</time></trkpt><trkpt lat="45.50902373635275" lon="11.388260247584778"><ele>77.0</ele><time>2026-04-11T12:15:44.999Z</time></trkpt><trkpt lat="45.50897481942188" lon="11.388451800013687"><ele>77.0</ele><time>2026-04-11T12:15:45.999Z</time></trkpt><trkpt lat="45.508969472540684" lon="11.388657551757925"><ele>77.0</ele><time>2026-04-11T12:15:46.999Z</time></trkpt><trkpt lat="45.50889853289917" lon="11.38883754234504"><ele>77.0</ele><time>2026-04-11T12:15:47.999Z</time></trkpt><trkpt lat="45.50882219247978" lon="11.388993306603002"><ele>76.66666666666667</ele><time>2026-04-11T12:15:48.999Z</time></trkpt><trkpt lat="45.50869200080562" lon="11.389084975855697"><ele>76.33333333333333</ele><time>2026-04-11T12:15:49.999Z</time></trkpt><trkpt lat="45.508562800046704" lon="11.389200198869576"><ele>76.0</ele><time>2026-04-11T12:15:50.999Z</time></trkpt><trkpt lat="45.508404021803926" lon="11.389297212965065"><ele>76.0</ele><time>2026-04-11T12:15:51.999Z</time></trkpt><trkpt lat="45.50822540597537" lon="11.38944321543356"><ele>76.0</ele><time>2026-04-11T12:15:52.999Z</time></trkpt><trkpt lat="45.50805501295775" lon="11.389598328822432"><ele>76.0</ele><time>2026-04-11T12:15:53.999Z</time></trkpt><trkpt lat="45.50786249101383" lon="11.38976300513552"><ele>76.0</ele><time>2026-04-11T12:15:54.999Z</time></trkpt><trkpt lat="45.507660152945235" lon="11.389931933485277"><ele>76.0</ele><time>2026-04-11T12:15:55.999Z</time></trkpt><trkpt lat="45.50745254104599" lon="11.390108296928258"><ele>76.0</ele><time>2026-04-11T12:15:56.999Z</time></trkpt><trkpt lat="45.507235001029315" lon="11.390301276328135"><ele>76.0</ele><time>2026-04-11T12:15:57.999Z</time></trkpt><trkpt lat="45.50701451668767" lon="11.390499796416698"><ele>74.5</ele><time>2026-04-11T12:15:58.999Z</time></trkpt><trkpt lat="45.50678720219598" lon="11.390703551132601"><ele>73.0</ele><time>2026-04-11T12:15:59.999Z</time></trkpt><trkpt lat="45.506550615968536" lon="11.390913018646257"><ele>73.0</ele><time>2026-04-11T12:16:00.999Z</time></trkpt><trkpt lat="45.50630444588229" lon="11.391100083714148"><ele>73.0</ele><time>2026-04-11T12:16:01.999Z</time></trkpt><trkpt lat="45.50607384121969" lon="11.391330233876136"><ele>71.5</ele><time>2026-04-11T12:16:02.999Z</time></trkpt><trkpt lat="45.50583380459255" lon="11.391520216407967"><ele>70.0</ele><time>2026-04-11T12:16:03.999Z</time></trkpt><trkpt lat="45.50559929279896" lon="11.3917299580698"><ele>70.5</ele><time>2026-04-11T12:16:04.999Z</time></trkpt><trkpt lat="45.50536663524393" lon="11.391937989901162"><ele>71.0</ele><time>2026-04-11T12:16:05.999Z</time></trkpt><trkpt lat="45.505135737442274" lon="11.39214438418824"><ele>71.0</ele><time>2026-04-11T12:16:06.999Z</time></trkpt><trkpt lat="45.504904513389334" lon="11.392351070829802"><ele>71.0</ele><time>2026-04-11T12:16:07.999Z</time></trkpt><trkpt lat="45.504673665341365" lon="11.392557349536544"><ele>69.0</ele><time>2026-04-11T12:16:08.999Z</time></trkpt><trkpt lat="45.50444131236176" lon="11.39276435880748"><ele>67.0</ele><time>2026-04-11T12:16:09.999Z</time></trkpt><trkpt lat="45.50420768225037" lon="11.392972001624447"><ele>68.0</ele><time>2026-04-11T12:16:10.999Z</time></trkpt><trkpt lat="45.50397872498901" lon="11.393175253071155"><ele>69.0</ele><time>2026-04-11T12:16:11.999Z</time></trkpt><trkpt lat="45.50375041871878" lon="11.393377920515066"><ele>69.0</ele><time>2026-04-11T12:16:12.999Z</time></trkpt><trkpt lat="45.50352585796366" lon="11.39357675566373"><ele>69.0</ele><time>2026-04-11T12:16:13.999Z</time></trkpt><trkpt lat="45.50329998657564" lon="11.393766218231184"><ele>69.0</ele><time>2026-04-11T12:16:14.999Z</time></trkpt><trkpt lat="45.50307063624725" lon="11.393965718003889"><ele>69.0</ele><time>2026-04-11T12:16:15.999Z</time></trkpt><trkpt lat="45.502853022587345" lon="11.394139600349618"><ele>69.0</ele><time>2026-04-11T12:16:16.999Z</time></trkpt><trkpt lat="45.50261906028463" lon="11.394303099190962"><ele>69.0</ele><time>2026-04-11T12:16:17.999Z</time></trkpt><trkpt lat="45.50241888619478" lon="11.394582537958872"><ele>69.0</ele><time>2026-04-11T12:16:18.999Z</time></trkpt><trkpt lat="45.50219993026237" lon="11.394774402631553"><ele>69.0</ele><time>2026-04-11T12:16:19.999Z</time></trkpt><trkpt lat="45.50197805712871" lon="11.394969335861346"><ele>69.0</ele><time>2026-04-11T12:16:20.999Z</time></trkpt><trkpt lat="45.501760966394116" lon="11.395170340810004"><ele>69.0</ele><time>2026-04-11T12:16:21.999Z</time></trkpt><trkpt lat="45.50154727328538" lon="11.395381119828532"><ele>69.5</ele><time>2026-04-11T12:16:22.999Z</time></trkpt><trkpt lat="45.501329332243266" lon="11.395608431128384"><ele>70.0</ele><time>2026-04-11T12:16:23.999Z</time></trkpt><trkpt lat="45.501126242351" lon="11.395846834569026"><ele>70.0</ele><time>2026-04-11T12:16:24.999Z</time></trkpt><trkpt lat="45.50091438382988" lon="11.396090287115648"><ele>70.0</ele><time>2026-04-11T12:16:25.999Z</time></trkpt><trkpt lat="45.50072001513912" lon="11.396349291630893"><ele>69.0</ele><time>2026-04-11T12:16:26.999Z</time></trkpt><trkpt lat="45.50052638661927" lon="11.39661246142052"><ele>68.0</ele><time>2026-04-11T12:16:27.999Z</time></trkpt><trkpt lat="45.50033981132919" lon="11.396883723379448"><ele>65.0</ele><time>2026-04-11T12:16:28.999Z</time></trkpt><trkpt lat="45.50016023685238" lon="11.397163950593624"><ele>62.0</ele><time>2026-04-11T12:16:29.999Z</time></trkpt><trkpt lat="45.49998844279949" lon="11.397447449951505"><ele>63.0</ele><time>2026-04-11T12:16:30.999Z</time></trkpt><trkpt lat="45.49983200275156" lon="11.397739635623708"><ele>64.0</ele><time>2026-04-11T12:16:31.999Z</time></trkpt><trkpt lat="45.49968151976448" lon="11.398032238703712"><ele>64.5</ele><time>2026-04-11T12:16:32.999Z</time></trkpt><trkpt lat="45.49952701078334" lon="11.39834466089973"><ele>65.0</ele><time>2026-04-11T12:16:33.999Z</time></trkpt><trkpt lat="45.499380617618556" lon="11.398660171853216"><ele>65.0</ele><time>2026-04-11T12:16:34.998Z</time></trkpt><trkpt lat="45.49923803697513" lon="11.398994623259657"><ele>65.0</ele><time>2026-04-11T12:16:35.998Z</time></trkpt><trkpt lat="45.499103371763994" lon="11.399336323605004"><ele>65.0</ele><time>2026-04-11T12:16:36.998Z</time></trkpt><trkpt lat="45.4989715809262" lon="11.399686025943863"><ele>65.0</ele><time>2026-04-11T12:16:37.998Z</time></trkpt><trkpt lat="45.49883822322588" lon="11.400042572978796"><ele>66.5</ele><time>2026-04-11T12:16:38.998Z</time></trkpt><trkpt lat="45.498703067119095" lon="11.400397340525974"><ele>68.0</ele><time>2026-04-11T12:16:39.998Z</time></trkpt><trkpt lat="45.49856743416195" lon="11.400751661774608"><ele>68.0</ele><time>2026-04-11T12:16:40.998Z</time></trkpt><trkpt lat="45.4984265890762" lon="11.401113039474055"><ele>68.0</ele><time>2026-04-11T12:16:41.998Z</time></trkpt><trkpt lat="45.49828585504998" lon="11.401476973147991"><ele>67.5</ele><time>2026-04-11T12:16:42.998Z</time></trkpt><trkpt lat="45.498143727485065" lon="11.401847515179382"><ele>67.0</ele><time>2026-04-11T12:16:43.998Z</time></trkpt><trkpt lat="45.498001358469395" lon="11.402222616167423"><ele>67.0</ele><time>2026-04-11T12:16:44.998Z</time></trkpt><trkpt lat="45.49785370680361" lon="11.4026138981518"><ele>67.0</ele><time>2026-04-11T12:16:45.998Z</time></trkpt><trkpt lat="45.497707076218504" lon="11.402996399490805"><ele>67.5</ele><time>2026-04-11T12:16:46.998Z</time></trkpt><trkpt lat="45.497552929878566" lon="11.403380966163018"><ele>68.0</ele><time>2026-04-11T12:16:47.998Z</time></trkpt><trkpt lat="45.497402122541246" lon="11.403765445503735"><ele>68.0</ele><time>2026-04-11T12:16:48.998Z</time></trkpt><trkpt lat="45.497253591723556" lon="11.404154651946184"><ele>68.0</ele><time>2026-04-11T12:16:49.998Z</time></trkpt><trkpt lat="45.49710619141228" lon="11.404544703032258"><ele>66.5</ele><time>2026-04-11T12:16:50.998Z</time></trkpt><trkpt lat="45.49696088875498" lon="11.404931792003358"><ele>65.0</ele><time>2026-04-11T12:16:51.998Z</time></trkpt><trkpt lat="45.49681320669223" lon="11.405316811659228"><ele>64.0</ele><time>2026-04-11T12:16:52.998Z</time></trkpt><trkpt lat="45.496661931544416" lon="11.405697519275519"><ele>63.0</ele><time>2026-04-11T12:16:53.998Z</time></trkpt><trkpt lat="45.49650883931958" lon="11.406076936998875"><ele>62.5</ele><time>2026-04-11T12:16:54.998Z</time></trkpt><trkpt lat="45.496349670594626" lon="11.406455481462388"><ele>62.0</ele><time>2026-04-11T12:16:55.998Z</time></trkpt><trkpt lat="45.49618548807828" lon="11.406824252834264"><ele>60.5</ele><time>2026-04-11T12:16:56.998Z</time></trkpt><trkpt lat="45.49601641371343" lon="11.40717468192624"><ele>59.0</ele><time>2026-04-11T12:16:57.998Z</time></trkpt><trkpt lat="45.49581771496474" lon="11.407522985819623"><ele>59.0</ele><time>2026-04-11T12:16:58.998Z</time></trkpt><trkpt lat="45.495614975789785" lon="11.407861975465327"><ele>59.0</ele><time>2026-04-11T12:16:59.998Z</time></trkpt><trkpt lat="45.495408052977055" lon="11.40818315612369"><ele>59.0</ele><time>2026-04-11T12:17:00.998Z</time></trkpt><trkpt lat="45.49519232720907" lon="11.40849651089257"><ele>59.0</ele><time>2026-04-11T12:17:01.998Z</time></trkpt><trkpt lat="45.494982126309665" lon="11.408797563468022"><ele>59.0</ele><time>2026-04-11T12:17:02.998Z</time></trkpt><trkpt lat="45.49477956613871" lon="11.409087555797843"><ele>59.0</ele><time>2026-04-11T12:17:03.998Z</time></trkpt><trkpt lat="45.4945844618742" lon="11.40937167006809"><ele>59.0</ele><time>2026-04-11T12:17:04.998Z</time></trkpt><trkpt lat="45.49438841220024" lon="11.409655581720177"><ele>59.0</ele><time>2026-04-11T12:17:05.998Z</time></trkpt><trkpt lat="45.49418951763701" lon="11.40994141118599"><ele>59.0</ele><time>2026-04-11T12:17:06.998Z</time></trkpt><trkpt lat="45.49399436192873" lon="11.410222850402128"><ele>59.0</ele><time>2026-04-11T12:17:07.998Z</time></trkpt><trkpt lat="45.49381229597304" lon="11.410483383500152"><ele>58.5</ele><time>2026-04-11T12:17:08.998Z</time></trkpt><trkpt lat="45.49362543316032" lon="11.410750427114582"><ele>58.0</ele><time>2026-04-11T12:17:09.998Z</time></trkpt><trkpt lat="45.49344114516423" lon="11.411018269511807"><ele>58.0</ele><time>2026-04-11T12:17:10.998Z</time></trkpt><trkpt lat="45.4932525887849" lon="11.411291824977553"><ele>58.0</ele><time>2026-04-11T12:17:11.998Z</time></trkpt><trkpt lat="45.49305923658841" lon="11.411564024583418"><ele>58.0</ele><time>2026-04-11T12:17:12.998Z</time></trkpt><trkpt lat="45.49286181545042" lon="11.411842039970628"><ele>58.0</ele><time>2026-04-11T12:17:14Z</time></trkpt><trkpt lat="45.492668570420285" lon="11.412119535374542"><ele>58.0</ele><time>2026-04-11T12:17:15Z</time></trkpt><trkpt lat="45.492471652914155" lon="11.412408261269885"><ele>58.0</ele><time>2026-04-11T12:17:16Z</time></trkpt><trkpt lat="45.49227696785455" lon="11.412687650839427"><ele>57.0</ele><time>2026-04-11T12:17:17Z</time></trkpt><trkpt lat="45.49207923180416" lon="11.412972705984648"><ele>56.0</ele><time>2026-04-11T12:17:18Z</time></trkpt><trkpt lat="45.49187889674302" lon="11.413269909380462"><ele>56.0</ele><time>2026-04-11T12:17:19Z</time></trkpt><trkpt lat="45.49168442072455" lon="11.413564920456503"><ele>56.0</ele><time>2026-04-11T12:17:20Z</time></trkpt><trkpt lat="45.49149046245183" lon="11.41386393935667"><ele>56.0</ele><time>2026-04-11T12:17:21Z</time></trkpt><trkpt lat="45.491297554359456" lon="11.41415280563475"><ele>56.0</ele><time>2026-04-11T12:17:22Z</time></trkpt><trkpt lat="45.49110315897945" lon="11.41442854456057"><ele>56.5</ele><time>2026-04-11T12:17:23Z</time></trkpt><trkpt lat="45.49090426062021" lon="11.414703916149266"><ele>57.0</ele><time>2026-04-11T12:17:24Z</time></trkpt><trkpt lat="45.4907067523831" lon="11.41497035419051"><ele>57.0</ele><time>2026-04-11T12:17:25Z</time></trkpt><trkpt lat="45.490510009477106" lon="11.415239676645474"><ele>57.0</ele><time>2026-04-11T12:17:26Z</time></trkpt><trkpt lat="45.4903136259637" lon="11.415514307908914"><ele>60.5</ele><time>2026-04-11T12:17:27Z</time></trkpt><trkpt lat="45.49011740809874" lon="11.415788151867046"><ele>64.0</ele><time>2026-04-11T12:17:28Z</time></trkpt><trkpt lat="45.48992431300036" lon="11.416057921643857"><ele>61.5</ele><time>2026-04-11T12:17:29Z</time></trkpt><trkpt lat="45.48972789245237" lon="11.4163288408507"><ele>59.0</ele><time>2026-04-11T12:17:30Z</time></trkpt><trkpt lat="45.48954766876108" lon="11.416586569980197"><ele>58.5</ele><time>2026-04-11T12:17:31Z</time></trkpt><trkpt lat="45.48934241084626" lon="11.416838172796702"><ele>58.0</ele><time>2026-04-11T12:17:32Z</time></trkpt><trkpt lat="45.489139652460715" lon="11.417103299721719"><ele>58.5</ele><time>2026-04-11T12:17:33Z</time></trkpt><trkpt lat="45.48894465116111" lon="11.417350551584555"><ele>59.0</ele><time>2026-04-11T12:17:34Z</time></trkpt><trkpt lat="45.48875554427901" lon="11.417584063831034"><ele>58.0</ele><time>2026-04-11T12:17:35Z</time></trkpt><trkpt lat="45.48857974064944" lon="11.41779402648946"><ele>57.0</ele><time>2026-04-11T12:17:36Z</time></trkpt><trkpt lat="45.48839824789957" lon="11.41799384901431"><ele>57.0</ele><time>2026-04-11T12:17:37Z</time></trkpt><trkpt lat="45.48821066906898" lon="11.418165903660686"><ele>57.0</ele><time>2026-04-11T12:17:38Z</time></trkpt><trkpt lat="45.48802535694324" lon="11.418322754334284"><ele>57.0</ele><time>2026-04-11T12:17:39Z</time></trkpt><trkpt lat="45.4878475582098" lon="11.418473603152771"><ele>57.0</ele><time>2026-04-11T12:17:40Z</time></trkpt><trkpt lat="45.487675682150375" lon="11.418639950769753"><ele>57.0</ele><time>2026-04-11T12:17:41Z</time></trkpt><trkpt lat="45.487505256572554" lon="11.418834375339374"><ele>57.0</ele><time>2026-04-11T12:17:42Z</time></trkpt><trkpt lat="45.48734984404624" lon="11.41903439154328"><ele>57.0</ele><time>2026-04-11T12:17:43Z</time></trkpt><trkpt lat="45.4872025797025" lon="11.419253227405353"><ele>57.0</ele><time>2026-04-11T12:17:44Z</time></trkpt><trkpt lat="45.487052444431555" lon="11.419473939844078"><ele>57.0</ele><time>2026-04-11T12:17:45Z</time></trkpt><trkpt lat="45.48690035731798" lon="11.419695570951014"><ele>55.0</ele><time>2026-04-11T12:17:46Z</time></trkpt><trkpt lat="45.4867427154048" lon="11.419926112430856"><ele>53.0</ele><time>2026-04-11T12:17:47Z</time></trkpt><trkpt lat="45.486599055600635" lon="11.420153843594155"><ele>51.0</ele><time>2026-04-11T12:17:48Z</time></trkpt><trkpt lat="45.48651005476893" lon="11.420396610596171"><ele>51.33333333333333</ele><time>2026-04-11T12:17:49Z</time></trkpt><trkpt lat="45.486438028307866" lon="11.420643212803846"><ele>51.666666666666664</ele><time>2026-04-11T12:17:50Z</time></trkpt><trkpt lat="45.486381285457774" lon="11.420901092362882"><ele>52.0</ele><time>2026-04-11T12:17:51Z</time></trkpt><trkpt lat="45.48632968339891" lon="11.421145095237717"><ele>53.0</ele><time>2026-04-11T12:17:52Z</time></trkpt><trkpt lat="45.48628859977633" lon="11.421371087036066"><ele>54.0</ele><time>2026-04-11T12:17:53Z</time></trkpt><trkpt lat="45.48622387942836" lon="11.421570905271357"><ele>55.0</ele><time>2026-04-11T12:17:54Z</time></trkpt><trkpt lat="45.48614240640588" lon="11.421740162685532"><ele>55.0</ele><time>2026-04-11T12:17:55Z</time></trkpt><trkpt lat="45.48606280411269" lon="11.421869641149208"><ele>55.0</ele><time>2026-04-11T12:17:56Z</time></trkpt><trkpt lat="45.486000270076865" lon="11.421980789841797"><ele>55.0</ele><time>2026-04-11T12:17:57Z</time></trkpt><trkpt lat="45.485953311649574" lon="11.42206565037079"><ele>55.0</ele><time>2026-04-11T12:17:58Z</time></trkpt><trkpt lat="45.485897734387216" lon="11.422147617859444"><ele>55.0</ele><time>2026-04-11T12:18:00Z</time></trkpt><trkpt lat="45.4857767942475" lon="11.42224307553388"><ele>54.6</ele><time>2026-04-11T12:18:02Z</time></trkpt><trkpt lat="45.485683616555676" lon="11.42230509701858"><ele>54.2</ele><time>2026-04-11T12:18:03Z</time></trkpt><trkpt lat="45.48559723341162" lon="11.422375553869315"><ele>53.8</ele><time>2026-04-11T12:18:04Z</time></trkpt><trkpt lat="45.485519278071024" lon="11.422470357313557"><ele>53.4</ele><time>2026-04-11T12:18:05Z</time></trkpt><trkpt lat="45.485469878494946" lon="11.422609665822076"><ele>53.0</ele><time>2026-04-11T12:18:06Z</time></trkpt><trkpt lat="45.485429116036805" lon="11.422751440380363"><ele>52.8</ele><time>2026-04-11T12:18:07Z</time></trkpt><trkpt lat="45.48540752854113" lon="11.422902099002016"><ele>52.599999999999994</ele><time>2026-04-11T12:18:08Z</time></trkpt><trkpt lat="45.485404189248015" lon="11.423039212493668"><ele>52.400000000000006</ele><time>2026-04-11T12:18:08.999Z</time></trkpt><trkpt lat="45.48541381688623" lon="11.423163513056645"><ele>52.2</ele><time>2026-04-11T12:18:09.999Z</time></trkpt><trkpt lat="45.485374410700985" lon="11.423310448830112"><ele>52.0</ele><time>2026-04-11T12:18:10.999Z</time></trkpt><trkpt lat="45.485354043675855" lon="11.423428008752216"><ele>51.6</ele><time>2026-04-11T12:18:11.999Z</time></trkpt><trkpt lat="45.48532155209857" lon="11.423558481066559"><ele>51.2</ele><time>2026-04-11T12:18:12.999Z</time></trkpt><trkpt lat="45.485277655395805" lon="11.423683679449386"><ele>50.8</ele><time>2026-04-11T12:18:13.999Z</time></trkpt><trkpt lat="45.48521257229586" lon="11.423822525775057"><ele>50.4</ele><time>2026-04-11T12:18:14.999Z</time></trkpt><trkpt lat="45.485141516133524" lon="11.423964255161602"><ele>50.0</ele><time>2026-04-11T12:18:15.999Z</time></trkpt><trkpt lat="45.48507120872517" lon="11.424110882160631"><ele>49.8</ele><time>2026-04-11T12:18:16.999Z</time></trkpt><trkpt lat="45.485009583621796" lon="11.424250250055495"><ele>49.6</ele><time>2026-04-11T12:18:17.999Z</time></trkpt><trkpt lat="45.48494914927396" lon="11.424364554245063"><ele>49.400000000000006</ele><time>2026-04-11T12:18:18.999Z</time></trkpt><trkpt lat="45.48488644379438" lon="11.424475407026822"><ele>49.2</ele><time>2026-04-11T12:18:19.999Z</time></trkpt><trkpt lat="45.48481570054278" lon="11.424587820120909"><ele>49.0</ele><time>2026-04-11T12:18:20.999Z</time></trkpt><trkpt lat="45.484723819475114" lon="11.42469138083762"><ele>49.0</ele><time>2026-04-11T12:18:21.999Z</time></trkpt><trkpt lat="45.48462637544755" lon="11.42476362719137"><ele>49.0</ele><time>2026-04-11T12:18:22.999Z</time></trkpt><trkpt lat="45.48452513838695" lon="11.42483471109797"><ele>49.0</ele><time>2026-04-11T12:18:23.999Z</time></trkpt><trkpt lat="45.48443297504333" lon="11.424936661965535"><ele>49.0</ele><time>2026-04-11T12:18:24.999Z</time></trkpt><trkpt lat="45.484362914381" lon="11.425070749409006"><ele>49.0</ele><time>2026-04-11T12:18:25.999Z</time></trkpt><trkpt lat="45.48432306578932" lon="11.42523475223214"><ele>49.0</ele><time>2026-04-11T12:18:26.999Z</time></trkpt><trkpt lat="45.48431037255086" lon="11.425402282512223"><ele>49.0</ele><time>2026-04-11T12:18:27.999Z</time></trkpt><trkpt lat="45.4843200230056" lon="11.425559183595405"><ele>49.0</ele><time>2026-04-11T12:18:28.999Z</time></trkpt><trkpt lat="45.48434555366041" lon="11.42571765659738"><ele>49.2</ele><time>2026-04-11T12:18:29.999Z</time></trkpt><trkpt lat="45.48440223936526" lon="11.425862346358555"><ele>49.400000000000006</ele><time>2026-04-11T12:18:30.999Z</time></trkpt><trkpt lat="45.48447675346705" lon="11.425971865396646"><ele>49.6</ele><time>2026-04-11T12:18:31.999Z</time></trkpt><trkpt lat="45.48456267657949" lon="11.426058506632483"><ele>49.8</ele><time>2026-04-11T12:18:32.999Z</time></trkpt><trkpt lat="45.48466179014399" lon="11.426119283990191"><ele>50.0</ele><time>2026-04-11T12:18:33.999Z</time></trkpt><trkpt lat="45.484789067960605" lon="11.426141787924866"><ele>50.4</ele><time>2026-04-11T12:18:34.999Z</time></trkpt><trkpt lat="45.484894217742905" lon="11.426143932927717"><ele>50.8</ele><time>2026-04-11T12:18:35.999Z</time></trkpt><trkpt lat="45.48499855650195" lon="11.426137063854911"><ele>51.2</ele><time>2026-04-11T12:18:36.999Z</time></trkpt><trkpt lat="45.48509911199131" lon="11.426144416554466"><ele>51.6</ele><time>2026-04-11T12:18:37.999Z</time></trkpt><trkpt lat="45.48519469102503" lon="11.426195254844059"><ele>52.0</ele><time>2026-04-11T12:18:38.999Z</time></trkpt><trkpt lat="45.48529332803206" lon="11.426234419711491"><ele>52.0</ele><time>2026-04-11T12:18:39.999Z</time></trkpt><trkpt lat="45.48534728308424" lon="11.42641532352676"><ele>52.0</ele><time>2026-04-11T12:18:40.999Z</time></trkpt><trkpt lat="45.48538337026286" lon="11.426565839468356"><ele>52.0</ele><time>2026-04-11T12:18:41.999Z</time></trkpt><trkpt lat="45.485400331595734" lon="11.426736353957368"><ele>52.0</ele><time>2026-04-11T12:18:42.999Z</time></trkpt><trkpt lat="45.48538150579519" lon="11.426906992275354"><ele>52.0</ele><time>2026-04-11T12:18:43.999Z</time></trkpt><trkpt lat="45.48533463363826" lon="11.427074455338797"><ele>52.0</ele><time>2026-04-11T12:18:44.999Z</time></trkpt><trkpt lat="45.485255348618956" lon="11.427227322319249"><ele>52.0</ele><time>2026-04-11T12:18:45.999Z</time></trkpt><trkpt lat="45.48516278466815" lon="11.427374689383566"><ele>52.0</ele><time>2026-04-11T12:18:46.999Z</time></trkpt><trkpt lat="45.48506376037286" lon="11.427529745725133"><ele>52.0</ele><time>2026-04-11T12:18:47.999Z</time></trkpt><trkpt lat="45.484967710546606" lon="11.427698171536568"><ele>52.0</ele><time>2026-04-11T12:18:48.999Z</time></trkpt><trkpt lat="45.48488215608595" lon="11.42788543042057"><ele>52.0</ele><time>2026-04-11T12:18:49.999Z</time></trkpt><trkpt lat="45.484815298713315" lon="11.428085783397876"><ele>51.666666666666664</ele><time>2026-04-11T12:18:50.999Z</time></trkpt><trkpt lat="45.48477421869935" lon="11.428287024738683"><ele>51.33333333333333</ele><time>2026-04-11T12:18:51.999Z</time></trkpt><trkpt lat="45.48477352091451" lon="11.428474371276833"><ele>51.0</ele><time>2026-04-11T12:18:52.999Z</time></trkpt><trkpt lat="45.484741681538296" lon="11.428752667724694"><ele>50.66666666666667</ele><time>2026-04-11T12:18:53.999Z</time></trkpt><trkpt lat="45.48478208202226" lon="11.428989300117514"><ele>50.333333333333336</ele><time>2026-04-11T12:18:54.999Z</time></trkpt><trkpt lat="45.484833078078225" lon="11.429218942783056"><ele>50.0</ele><time>2026-04-11T12:18:55.999Z</time></trkpt><trkpt lat="45.484911885391554" lon="11.429422326677187"><ele>50.0</ele><time>2026-04-11T12:18:56.999Z</time></trkpt><trkpt lat="45.48500255199716" lon="11.429624463191749"><ele>50.0</ele><time>2026-04-11T12:18:57.999Z</time></trkpt><trkpt lat="45.48511659753163" lon="11.429800617878133"><ele>50.0</ele><time>2026-04-11T12:18:58.999Z</time></trkpt><trkpt lat="45.485248892511194" lon="11.42995872793693"><ele>50.0</ele><time>2026-04-11T12:18:59.999Z</time></trkpt><trkpt lat="45.485397886014226" lon="11.430110000359239"><ele>50.0</ele><time>2026-04-11T12:19:00.999Z</time></trkpt><trkpt lat="45.485550683395395" lon="11.430267674897854"><ele>50.0</ele><time>2026-04-11T12:19:01.999Z</time></trkpt><trkpt lat="45.48572087194607" lon="11.430396459828827"><ele>50.333333333333336</ele><time>2026-04-11T12:19:02.999Z</time></trkpt><trkpt lat="45.485880132188896" lon="11.43052700857375"><ele>50.66666666666667</ele><time>2026-04-11T12:19:03.999Z</time></trkpt><trkpt lat="45.48602875655192" lon="11.430653571407047"><ele>51.0</ele><time>2026-04-11T12:19:04.999Z</time></trkpt><trkpt lat="45.48616504887648" lon="11.430774431054974"><ele>51.0</ele><time>2026-04-11T12:19:05.999Z</time></trkpt><trkpt lat="45.48629598658678" lon="11.430903135800623"><ele>51.0</ele><time>2026-04-11T12:19:06.999Z</time></trkpt><trkpt lat="45.48642460190366" lon="11.43104763444766"><ele>51.0</ele><time>2026-04-11T12:19:07.999Z</time></trkpt><trkpt lat="45.48654985809861" lon="11.431211517928164"><ele>50.66666666666667</ele><time>2026-04-11T12:19:08.999Z</time></trkpt><trkpt lat="45.48666426935132" lon="11.431412327556364"><ele>50.333333333333336</ele><time>2026-04-11T12:19:09.998Z</time></trkpt><trkpt lat="45.48675273483743" lon="11.431647122919506"><ele>50.0</ele><time>2026-04-11T12:19:10.998Z</time></trkpt><trkpt lat="45.486811047345604" lon="11.431874946653638"><ele>50.0</ele><time>2026-04-11T12:19:11.998Z</time></trkpt><trkpt lat="45.48683958210517" lon="11.432120155203377"><ele>50.0</ele><time>2026-04-11T12:19:12.998Z</time></trkpt><trkpt lat="45.48683688227304" lon="11.43235568233573"><ele>50.0</ele><time>2026-04-11T12:19:13.998Z</time></trkpt><trkpt lat="45.486818692400874" lon="11.432601756618308"><ele>49.66666666666667</ele><time>2026-04-11T12:19:14.998Z</time></trkpt><trkpt lat="45.48677524274635" lon="11.432841983967196"><ele>49.33333333333333</ele><time>2026-04-11T12:19:15.998Z</time></trkpt><trkpt lat="45.48673072902109" lon="11.433069583540087"><ele>49.0</ele><time>2026-04-11T12:19:16.998Z</time></trkpt><trkpt lat="45.48669540298327" lon="11.433301441618303"><ele>49.0</ele><time>2026-04-11T12:19:17.998Z</time></trkpt><trkpt lat="45.486667481446986" lon="11.433540433592619"><ele>49.0</ele><time>2026-04-11T12:19:18.998Z</time></trkpt><trkpt lat="45.486662268319144" lon="11.433791934577139"><ele>49.0</ele><time>2026-04-11T12:19:20Z</time></trkpt><trkpt lat="45.486681430407465" lon="11.43404073566431"><ele>50.0</ele><time>2026-04-11T12:19:21Z</time></trkpt><trkpt lat="45.48673462392858" lon="11.434293928363243"><ele>51.0</ele><time>2026-04-11T12:19:22Z</time></trkpt><trkpt lat="45.486809612904295" lon="11.434515395301478"><ele>52.0</ele><time>2026-04-11T12:19:23Z</time></trkpt><trkpt lat="45.48689409784979" lon="11.434669118405072"><ele>52.0</ele><time>2026-04-11T12:19:24Z</time></trkpt><trkpt lat="45.486988533510804" lon="11.434841168039386"><ele>52.0</ele><time>2026-04-11T12:19:25Z</time></trkpt><trkpt lat="45.48716761691839" lon="11.43512069683801"><ele>52.0</ele><time>2026-04-11T12:19:26Z</time></trkpt><trkpt lat="45.487309295192766" lon="11.435310833423335"><ele>51.666666666666664</ele><time>2026-04-11T12:19:27Z</time></trkpt><trkpt lat="45.48745118347402" lon="11.43550313949393"><ele>51.33333333333333</ele><time>2026-04-11T12:19:28Z</time></trkpt><trkpt lat="45.4875876041665" lon="11.435692384314821"><ele>51.0</ele><time>2026-04-11T12:19:29Z</time></trkpt><trkpt lat="45.48771757643301" lon="11.435880274240688"><ele>51.0</ele><time>2026-04-11T12:19:30Z</time></trkpt><trkpt lat="45.48784840586604" lon="11.436063490925713"><ele>51.0</ele><time>2026-04-11T12:19:31Z</time></trkpt><trkpt lat="45.487968711809735" lon="11.436230227597875"><ele>51.0</ele><time>2026-04-11T12:19:32Z</time></trkpt><trkpt lat="45.48807311976044" lon="11.436381126798471"><ele>51.75</ele><time>2026-04-11T12:19:33Z</time></trkpt><trkpt lat="45.488170466224084" lon="11.436528969666533"><ele>52.5</ele><time>2026-04-11T12:19:34Z</time></trkpt><trkpt lat="45.48827491930116" lon="11.436678471043153"><ele>53.25</ele><time>2026-04-11T12:19:35Z</time></trkpt><trkpt lat="45.48837290572464" lon="11.43681548850147"><ele>54.0</ele><time>2026-04-11T12:19:36Z</time></trkpt><trkpt lat="45.488459386657816" lon="11.436935090871422"><ele>54.0</ele><time>2026-04-11T12:19:37Z</time></trkpt><trkpt lat="45.48853205273222" lon="11.437041754750586"><ele>54.00000000000001</ele><time>2026-04-11T12:19:38Z</time></trkpt><trkpt lat="45.488591313276515" lon="11.43713684980859"><ele>54.00000000000001</ele><time>2026-04-11T12:19:39Z</time></trkpt><trkpt lat="45.48862731375399" lon="11.437213022069377"><ele>54.0</ele><time>2026-04-11T12:19:40Z</time></trkpt><trkpt lat="45.4886399574444" lon="11.437406536492219"><ele>54.0</ele><time>2026-04-11T12:19:42Z</time></trkpt><trkpt lat="45.48861877113203" lon="11.437532676275548"><ele>54.0</ele><time>2026-04-11T12:19:43Z</time></trkpt><trkpt lat="45.48859797806344" lon="11.437655052567719"><ele>54.0</ele><time>2026-04-11T12:19:44Z</time></trkpt><trkpt lat="45.488609518251266" lon="11.437814246533895"><ele>54.0</ele><time>2026-04-11T12:19:45Z</time></trkpt><trkpt lat="45.488485567565974" lon="11.43795360325865"><ele>54.0</ele><time>2026-04-11T12:19:46Z</time></trkpt><trkpt lat="45.488376220501834" lon="11.438057924582218"><ele>54.0</ele><time>2026-04-11T12:19:47Z</time></trkpt><trkpt lat="45.48823855776848" lon="11.438107926390893"><ele>54.0</ele><time>2026-04-11T12:19:48Z</time></trkpt><trkpt lat="45.48807068599519" lon="11.438106151438998"><ele>54.0</ele><time>2026-04-11T12:19:49Z</time></trkpt><trkpt lat="45.48789070846073" lon="11.438119765680437"><ele>53.33333333333333</ele><time>2026-04-11T12:19:50Z</time></trkpt><trkpt lat="45.487710044380485" lon="11.438151838329889"><ele>52.666666666666664</ele><time>2026-04-11T12:19:51Z</time></trkpt><trkpt lat="45.487519889034076" lon="11.4381891189063"><ele>52.0</ele><time>2026-04-11T12:19:52Z</time></trkpt><trkpt lat="45.487324366357214" lon="11.438224980951043"><ele>52.0</ele><time>2026-04-11T12:19:53Z</time></trkpt><trkpt lat="45.487124100711384" lon="11.43826106041631"><ele>52.0</ele><time>2026-04-11T12:19:54Z</time></trkpt><trkpt lat="45.48691851609012" lon="11.438291626940355"><ele>52.0</ele><time>2026-04-11T12:19:55Z</time></trkpt><trkpt lat="45.48670896747367" lon="11.43832354383547"><ele>52.0</ele><time>2026-04-11T12:19:56Z</time></trkpt><trkpt lat="45.486498148445264" lon="11.438361771207001"><ele>52.0</ele><time>2026-04-11T12:19:57Z</time></trkpt><trkpt lat="45.48626060563085" lon="11.438387187553309"><ele>51.5</ele><time>2026-04-11T12:19:58Z</time></trkpt><trkpt lat="45.48601769609964" lon="11.438368014019003"><ele>51.0</ele><time>2026-04-11T12:19:59Z</time></trkpt><trkpt lat="45.485781000609386" lon="11.43829200081248"><ele>51.0</ele><time>2026-04-11T12:20:00Z</time></trkpt><trkpt lat="45.48555032082498" lon="11.438154717186382"><ele>51.0</ele><time>2026-04-11T12:20:01Z</time></trkpt><trkpt lat="45.485336996522406" lon="11.437981056625281"><ele>50.0</ele><time>2026-04-11T12:20:02Z</time></trkpt><trkpt lat="45.48514477516652" lon="11.437775364593692"><ele>49.0</ele><time>2026-04-11T12:20:03Z</time></trkpt><trkpt lat="45.48497286133062" lon="11.437544206845963"><ele>49.0</ele><time>2026-04-11T12:20:04Z</time></trkpt><trkpt lat="45.48481448170743" lon="11.43729957104481"><ele>49.0</ele><time>2026-04-11T12:20:04.999Z</time></trkpt><trkpt lat="45.48466010224627" lon="11.437061287586241"><ele>49.666666666666664</ele><time>2026-04-11T12:20:05.999Z</time></trkpt><trkpt lat="45.48449921719856" lon="11.436832472688227"><ele>50.33333333333333</ele><time>2026-04-11T12:20:06.999Z</time></trkpt><trkpt lat="45.48433301803783" lon="11.436625877825316"><ele>51.0</ele><time>2026-04-11T12:20:07.999Z</time></trkpt><trkpt lat="45.48416063529464" lon="11.4364239036722"><ele>51.33333333333333</ele><time>2026-04-11T12:20:08.999Z</time></trkpt><trkpt lat="45.483990157666774" lon="11.436223774386077"><ele>51.666666666666664</ele><time>2026-04-11T12:20:09.999Z</time></trkpt><trkpt lat="45.48381452852724" lon="11.43601582850494"><ele>52.0</ele><time>2026-04-11T12:20:10.999Z</time></trkpt><trkpt lat="45.483641372779616" lon="11.435813893964252"><ele>52.0</ele><time>2026-04-11T12:20:11.999Z</time></trkpt><trkpt lat="45.483470709285555" lon="11.435619841901756"><ele>52.0</ele><time>2026-04-11T12:20:12.999Z</time></trkpt><trkpt lat="45.483307455011754" lon="11.435436870370829"><ele>52.0</ele><time>2026-04-11T12:20:13.999Z</time></trkpt><trkpt lat="45.483164351147025" lon="11.435267450597307"><ele>52.0</ele><time>2026-04-11T12:20:14.999Z</time></trkpt><trkpt lat="45.4830403917988" lon="11.43511969674813"><ele>52.0</ele><time>2026-04-11T12:20:15.999Z</time></trkpt><trkpt lat="45.48291986851849" lon="11.434979022948609"><ele>52.0</ele><time>2026-04-11T12:20:16.999Z</time></trkpt><trkpt lat="45.48279744323828" lon="11.434838245023327"><ele>51.666666666666664</ele><time>2026-04-11T12:20:17.999Z</time></trkpt><trkpt lat="45.48266625279996" lon="11.434688305681046"><ele>51.33333333333333</ele><time>2026-04-11T12:20:18.999Z</time></trkpt><trkpt lat="45.48253715667734" lon="11.434531438315858"><ele>51.0</ele><time>2026-04-11T12:20:19.999Z</time></trkpt><trkpt lat="45.48241094348094" lon="11.434378981101798"><ele>51.0</ele><time>2026-04-11T12:20:20.999Z</time></trkpt><trkpt lat="45.48227970418144" lon="11.434223345336193"><ele>51.0</ele><time>2026-04-11T12:20:21.999Z</time></trkpt><trkpt lat="45.48215244346454" lon="11.43407064093039"><ele>51.0</ele><time>2026-04-11T12:20:22.999Z</time></trkpt><trkpt lat="45.48202876815851" lon="11.433925581513506"><ele>50.75</ele><time>2026-04-11T12:20:23.999Z</time></trkpt><trkpt lat="45.48191196138045" lon="11.433789229618927"><ele>50.5</ele><time>2026-04-11T12:20:24.999Z</time></trkpt><trkpt lat="45.481804444274594" lon="11.43366587675238"><ele>50.25</ele><time>2026-04-11T12:20:25.999Z</time></trkpt><trkpt lat="45.48169856847062" lon="11.433543890038038"><ele>50.0</ele><time>2026-04-11T12:20:26.999Z</time></trkpt><trkpt lat="45.48159051274901" lon="11.433422977479617"><ele>50.0</ele><time>2026-04-11T12:20:27.999Z</time></trkpt><trkpt lat="45.48148601329994" lon="11.433307864763933"><ele>50.0</ele><time>2026-04-11T12:20:28.999Z</time></trkpt><trkpt lat="45.481391102645816" lon="11.433204517764418"><ele>50.0</ele><time>2026-04-11T12:20:29.999Z</time></trkpt><trkpt lat="45.48130377812334" lon="11.43310794842322"><ele>50.0</ele><time>2026-04-11T12:20:30.999Z</time></trkpt><trkpt lat="45.481218531076145" lon="11.433016957193198"><ele>50.00000000000001</ele><time>2026-04-11T12:20:31.999Z</time></trkpt><trkpt lat="45.481147941307206" lon="11.432932717342151"><ele>50.0</ele><time>2026-04-11T12:20:32.999Z</time></trkpt><trkpt lat="45.48108746268189" lon="11.432837862131802"><ele>50.0</ele><time>2026-04-11T12:20:33.999Z</time></trkpt><trkpt lat="45.48103794432979" lon="11.43273027736827"><ele>50.0</ele><time>2026-04-11T12:20:34.999Z</time></trkpt><trkpt lat="45.48097981188185" lon="11.432640921959683"><ele>50.00000000000001</ele><time>2026-04-11T12:20:35.999Z</time></trkpt><trkpt lat="45.48090809017581" lon="11.432606851597434"><ele>50.0</ele><time>2026-04-11T12:20:36.999Z</time></trkpt><trkpt lat="45.48083821015882" lon="11.432650537638503"><ele>50.00000000000001</ele><time>2026-04-11T12:20:37.999Z</time></trkpt><trkpt lat="45.480788904962424" lon="11.432735406590433"><ele>50.0</ele><time>2026-04-11T12:20:38.999Z</time></trkpt><trkpt lat="45.48076532913043" lon="11.432842277454954"><ele>50.0</ele><time>2026-04-11T12:20:39.999Z</time></trkpt><trkpt lat="45.480756166146605" lon="11.43295294716058"><ele>50.0</ele><time>2026-04-11T12:20:40.999Z</time></trkpt><trkpt lat="45.4807448315496" lon="11.433063572981895"><ele>50.00000000000001</ele><time>2026-04-11T12:20:41.999Z</time></trkpt><trkpt lat="45.48073489746203" lon="11.433188765388502"><ele>50.0</ele><time>2026-04-11T12:20:42.999Z</time></trkpt><trkpt lat="45.48063911491756" lon="11.43330472331888"><ele>50.0</ele><time>2026-04-11T12:20:43.999Z</time></trkpt><trkpt lat="45.480551026552426" lon="11.433427815498291"><ele>50.0</ele><time>2026-04-11T12:20:44.999Z</time></trkpt><trkpt lat="45.480457318864204" lon="11.433562554159845"><ele>50.0</ele><time>2026-04-11T12:20:45.999Z</time></trkpt><trkpt lat="45.480364437835675" lon="11.433707617866347"><ele>50.0</ele><time>2026-04-11T12:20:46.999Z</time></trkpt><trkpt lat="45.48026823749845" lon="11.433862347530512"><ele>50.333333333333336</ele><time>2026-04-11T12:20:47.999Z</time></trkpt><trkpt lat="45.48016316463655" lon="11.43402363325795"><ele>50.66666666666667</ele><time>2026-04-11T12:20:48.999Z</time></trkpt><trkpt lat="45.48005073313295" lon="11.434192834262817"><ele>51.0</ele><time>2026-04-11T12:20:49.999Z</time></trkpt><trkpt lat="45.47993633663303" lon="11.434368899339443"><ele>51.0</ele><time>2026-04-11T12:20:50.999Z</time></trkpt><trkpt lat="45.47982107786647" lon="11.434548482606147"><ele>51.0</ele><time>2026-04-11T12:20:51.999Z</time></trkpt><trkpt lat="45.47970745226485" lon="11.434724456818962"><ele>51.0</ele><time>2026-04-11T12:20:52.999Z</time></trkpt><trkpt lat="45.4795935096992" lon="11.434899635433952"><ele>50.66666666666667</ele><time>2026-04-11T12:20:53.999Z</time></trkpt><trkpt lat="45.47948673867779" lon="11.435063080312155"><ele>50.333333333333336</ele><time>2026-04-11T12:20:54.999Z</time></trkpt><trkpt lat="45.47938167363745" lon="11.435223105810119"><ele>50.0</ele><time>2026-04-11T12:20:55.999Z</time></trkpt><trkpt lat="45.4792812981394" lon="11.435378002142105"><ele>50.0</ele><time>2026-04-11T12:20:56.999Z</time></trkpt><trkpt lat="45.47918368639139" lon="11.435529799051885"><ele>50.0</ele><time>2026-04-11T12:20:57.999Z</time></trkpt><trkpt lat="45.47909097427858" lon="11.435678763407047"><ele>50.0</ele><time>2026-04-11T12:20:58.999Z</time></trkpt><trkpt lat="45.47899590229851" lon="11.435823699192012"><ele>50.0</ele><time>2026-04-11T12:20:59.999Z</time></trkpt><trkpt lat="45.47890039003058" lon="11.43597282138805"><ele>50.0</ele><time>2026-04-11T12:21:00.999Z</time></trkpt><trkpt lat="45.478801386035755" lon="11.436123679513734"><ele>50.0</ele><time>2026-04-11T12:21:01.999Z</time></trkpt><trkpt lat="45.47870376869893" lon="11.436276129821065"><ele>50.0</ele><time>2026-04-11T12:21:02.999Z</time></trkpt><trkpt lat="45.47860623721546" lon="11.436431964284754"><ele>50.0</ele><time>2026-04-11T12:21:03.998Z</time></trkpt><trkpt lat="45.478506767376714" lon="11.436588424882107"><ele>49.5</ele><time>2026-04-11T12:21:04.998Z</time></trkpt><trkpt lat="45.47840712784579" lon="11.436742976182344"><ele>49.0</ele><time>2026-04-11T12:21:05.998Z</time></trkpt><trkpt lat="45.47831089330106" lon="11.436896751963513"><ele>48.5</ele><time>2026-04-11T12:21:06.998Z</time></trkpt><trkpt lat="45.47821197453514" lon="11.437052952695796"><ele>48.0</ele><time>2026-04-11T12:21:07.998Z</time></trkpt><trkpt lat="45.47811546350206" lon="11.437200652531914"><ele>48.0</ele><time>2026-04-11T12:21:08.998Z</time></trkpt><trkpt lat="45.47802138854157" lon="11.43734299623764"><ele>48.0</ele><time>2026-04-11T12:21:09.998Z</time></trkpt><trkpt lat="45.477929527196245" lon="11.437485476798738"><ele>48.0</ele><time>2026-04-11T12:21:10.998Z</time></trkpt><trkpt lat="45.47783956831567" lon="11.437624032524607"><ele>48.0</ele><time>2026-04-11T12:21:11.998Z</time></trkpt><trkpt lat="45.4777470056181" lon="11.437762632058433"><ele>48.0</ele><time>2026-04-11T12:21:12.998Z</time></trkpt><trkpt lat="45.47765575810052" lon="11.437903681979629"><ele>48.0</ele><time>2026-04-11T12:21:13.998Z</time></trkpt><trkpt lat="45.4775663869015" lon="11.43804786350527"><ele>48.0</ele><time>2026-04-11T12:21:14.998Z</time></trkpt><trkpt lat="45.47747123705323" lon="11.438197994091404"><ele>48.0</ele><time>2026-04-11T12:21:15.998Z</time></trkpt><trkpt lat="45.47737268995139" lon="11.438352342900371"><ele>48.0</ele><time>2026-04-11T12:21:16.998Z</time></trkpt><trkpt lat="45.47727706244691" lon="11.438500970948095"><ele>48.0</ele><time>2026-04-11T12:21:17.998Z</time></trkpt><trkpt lat="45.47718474084601" lon="11.438644791091097"><ele>48.0</ele><time>2026-04-11T12:21:18.998Z</time></trkpt><trkpt lat="45.47708854521777" lon="11.43879260929175"><ele>48.0</ele><time>2026-04-11T12:21:19.998Z</time></trkpt><trkpt lat="45.47699294152394" lon="11.438940859636373"><ele>47.75</ele><time>2026-04-11T12:21:20.998Z</time></trkpt><trkpt lat="45.47689637104029" lon="11.439090079568516"><ele>47.5</ele><time>2026-04-11T12:21:21.998Z</time></trkpt><trkpt lat="45.47680463406382" lon="11.439233475797735"><ele>47.25</ele><time>2026-04-11T12:21:22.998Z</time></trkpt><trkpt lat="45.47671012652057" lon="11.439380878184458"><ele>47.0</ele><time>2026-04-11T12:21:23.998Z</time></trkpt><trkpt lat="45.47661470072266" lon="11.4395268399295"><ele>47.25</ele><time>2026-04-11T12:21:24.998Z</time></trkpt><trkpt lat="45.47651898898604" lon="11.439676463292443"><ele>47.5</ele><time>2026-04-11T12:21:26Z</time></trkpt><trkpt lat="45.47642322563411" lon="11.43983059828292"><ele>47.75</ele><time>2026-04-11T12:21:27Z</time></trkpt><trkpt lat="45.47632919207036" lon="11.439978903118531"><ele>48.0</ele><time>2026-04-11T12:21:28Z</time></trkpt><trkpt lat="45.476243870023104" lon="11.44010884513642"><ele>47.25</ele><time>2026-04-11T12:21:29Z</time></trkpt><trkpt lat="45.47615882071648" lon="11.44024053720118"><ele>46.5</ele><time>2026-04-11T12:21:30Z</time></trkpt><trkpt lat="45.476073189171174" lon="11.440372373718246"><ele>45.75</ele><time>2026-04-11T12:21:31Z</time></trkpt><trkpt lat="45.47599308179616" lon="11.4404971002716"><ele>45.0</ele><time>2026-04-11T12:21:32Z</time></trkpt><trkpt lat="45.47592284530327" lon="11.44060920902258"><ele>45.0</ele><time>2026-04-11T12:21:33Z</time></trkpt><trkpt lat="45.475850865497065" lon="11.440696799973491"><ele>45.0</ele><time>2026-04-11T12:21:34Z</time></trkpt><trkpt lat="45.47576661460526" lon="11.440766651364834"><ele>45.0</ele><time>2026-04-11T12:21:35Z</time></trkpt><trkpt lat="45.47571308404813" lon="11.44087102148745"><ele>45.0</ele><time>2026-04-11T12:21:36Z</time></trkpt><trkpt lat="45.47564382332705" lon="11.440972184039381"><ele>45.0</ele><time>2026-04-11T12:21:37Z</time></trkpt><trkpt lat="45.47557151848049" lon="11.441052460248386"><ele>45.0</ele><time>2026-04-11T12:21:38Z</time></trkpt><trkpt lat="45.47554151369558" lon="11.441199560163724"><ele>45.0</ele><time>2026-04-11T12:21:39Z</time></trkpt><trkpt lat="45.47546917096356" lon="11.441333617884357"><ele>45.0</ele><time>2026-04-11T12:21:40Z</time></trkpt><trkpt lat="45.47537443884029" lon="11.441460041190577"><ele>45.0</ele><time>2026-04-11T12:21:41Z</time></trkpt><trkpt lat="45.4752892030684" lon="11.441578388325139"><ele>45.5</ele><time>2026-04-11T12:21:42Z</time></trkpt><trkpt lat="45.47520247066582" lon="11.441713976713181"><ele>46.0</ele><time>2026-04-11T12:21:43Z</time></trkpt><trkpt lat="45.47511136102577" lon="11.44185133690412"><ele>46.5</ele><time>2026-04-11T12:21:44Z</time></trkpt><trkpt lat="45.47501437705808" lon="11.44198760328915"><ele>47.0</ele><time>2026-04-11T12:21:45Z</time></trkpt><trkpt lat="45.47491960160451" lon="11.44212208316497"><ele>47.0</ele><time>2026-04-11T12:21:46Z</time></trkpt><trkpt lat="45.47483019061789" lon="11.442250457789"><ele>47.0</ele><time>2026-04-11T12:21:47Z</time></trkpt><trkpt lat="45.474741583054424" lon="11.442377202533594"><ele>47.0</ele><time>2026-04-11T12:21:48Z</time></trkpt><trkpt lat="45.47465018963261" lon="11.44250427650082"><ele>47.0</ele><time>2026-04-11T12:21:49Z</time></trkpt><trkpt lat="45.47456073832506" lon="11.442626742706633"><ele>47.0</ele><time>2026-04-11T12:21:50Z</time></trkpt><trkpt lat="45.474470843177265" lon="11.442751752696166"><ele>47.0</ele><time>2026-04-11T12:21:51Z</time></trkpt><trkpt lat="45.47438382812401" lon="11.442875560505305"><ele>47.0</ele><time>2026-04-11T12:21:52Z</time></trkpt><trkpt lat="45.474297844557974" lon="11.442996937662107"><ele>47.0</ele><time>2026-04-11T12:21:53Z</time></trkpt><trkpt lat="45.474210797252425" lon="11.44311650497168"><ele>47.0</ele><time>2026-04-11T12:21:54Z</time></trkpt><trkpt lat="45.47412188531163" lon="11.443236658450303"><ele>47.0</ele><time>2026-04-11T12:21:55Z</time></trkpt><trkpt lat="45.47403089378143" lon="11.443359530015838"><ele>47.0</ele><time>2026-04-11T12:21:56Z</time></trkpt><trkpt lat="45.47394107589574" lon="11.443494604662922"><ele>47.0</ele><time>2026-04-11T12:21:57Z</time></trkpt><trkpt lat="45.473852576515235" lon="11.44362813928532"><ele>47.25</ele><time>2026-04-11T12:21:58Z</time></trkpt><trkpt lat="45.47376320877771" lon="11.443768683848395"><ele>47.5</ele><time>2026-04-11T12:21:59Z</time></trkpt><trkpt lat="45.47367032960433" lon="11.443903478684195"><ele>47.75</ele><time>2026-04-11T12:22:00Z</time></trkpt><trkpt lat="45.47357533768802" lon="11.444039103952722"><ele>48.0</ele><time>2026-04-11T12:22:01Z</time></trkpt><trkpt lat="45.47350489233927" lon="11.444148486865217"><ele>48.0</ele><time>2026-04-11T12:22:02Z</time></trkpt><trkpt lat="45.4734449401652" lon="11.444244358999311"><ele>48.0</ele><time>2026-04-11T12:22:03Z</time></trkpt><trkpt lat="45.47339839100942" lon="11.444315491316262"><ele>48.0</ele><time>2026-04-11T12:22:04Z</time></trkpt><trkpt lat="45.47334310673796" lon="11.44439993212353"><ele>48.0</ele><time>2026-04-11T12:22:05Z</time></trkpt><trkpt lat="45.47327253163593" lon="11.444508767474113"><ele>48.0</ele><time>2026-04-11T12:22:06Z</time></trkpt><trkpt lat="45.47319547970273" lon="11.44462557797181"><ele>48.25</ele><time>2026-04-11T12:22:07Z</time></trkpt><trkpt lat="45.47311265080839" lon="11.444756250799761"><ele>48.5</ele><time>2026-04-11T12:22:08Z</time></trkpt><trkpt lat="45.47303620215408" lon="11.444889106358183"><ele>48.75</ele><time>2026-04-11T12:22:09Z</time></trkpt><trkpt lat="45.47295968226784" lon="11.44502542282638"><ele>49.0</ele><time>2026-04-11T12:22:10Z</time></trkpt><trkpt lat="45.472887020786146" lon="11.445160205080114"><ele>49.0</ele><time>2026-04-11T12:22:11Z</time></trkpt><trkpt lat="45.47281774229708" lon="11.445294085652918"><ele>49.0</ele><time>2026-04-11T12:22:12Z</time></trkpt><trkpt lat="45.472747796417224" lon="11.445430865508161"><ele>49.0</ele><time>2026-04-11T12:22:13Z</time></trkpt><trkpt lat="45.47267643522776" lon="11.44556705467655"><ele>49.0</ele><time>2026-04-11T12:22:14Z</time></trkpt><trkpt lat="45.47260879864018" lon="11.44569585575301"><ele>49.166666666666664</ele><time>2026-04-11T12:22:14.999Z</time></trkpt><trkpt lat="45.47254602407475" lon="11.445812922725"><ele>49.33333333333333</ele><time>2026-04-11T12:22:15.999Z</time></trkpt><trkpt lat="45.472487330890964" lon="11.445921200950389"><ele>49.5</ele><time>2026-04-11T12:22:16.999Z</time></trkpt><trkpt lat="45.47243421337938" lon="11.446024233411416"><ele>49.66666666666667</ele><time>2026-04-11T12:22:17.999Z</time></trkpt><trkpt lat="45.47238447586718" lon="11.446110238140484"><ele>49.833333333333336</ele><time>2026-04-11T12:22:18.999Z</time></trkpt><trkpt lat="45.47233071542481" lon="11.44617181046172"><ele>50.0</ele><time>2026-04-11T12:22:19.999Z</time></trkpt><trkpt lat="45.47217965987006" lon="11.446168453351651"><ele>50.0</ele><time>2026-04-11T12:22:21.999Z</time></trkpt><trkpt lat="45.47212123802396" lon="11.446069002229605"><ele>50.0</ele><time>2026-04-11T12:22:22.999Z</time></trkpt><trkpt lat="45.47204061296359" lon="11.44598010765843"><ele>50.0</ele><time>2026-04-11T12:22:23.999Z</time></trkpt><trkpt lat="45.4719742509236" lon="11.44586368867182"><ele>50.0</ele><time>2026-04-11T12:22:24.999Z</time></trkpt><trkpt lat="45.471895174723215" lon="11.44574479011952"><ele>50.0</ele><time>2026-04-11T12:22:25.999Z</time></trkpt><trkpt lat="45.47181047976187" lon="11.4456179624808"><ele>49.75</ele><time>2026-04-11T12:22:26.999Z</time></trkpt><trkpt lat="45.47172441236209" lon="11.445493427502957"><ele>49.5</ele><time>2026-04-11T12:22:27.999Z</time></trkpt><trkpt lat="45.47162502512898" lon="11.445352637123635"><ele>49.25</ele><time>2026-04-11T12:22:28.999Z</time></trkpt><trkpt lat="45.47152126295809" lon="11.445191566514719"><ele>49.0</ele><time>2026-04-11T12:22:29.999Z</time></trkpt><trkpt lat="45.47140739137624" lon="11.445027581631518"><ele>49.0</ele><time>2026-04-11T12:22:30.999Z</time></trkpt><trkpt lat="45.47127661160697" lon="11.444846888862452"><ele>49.0</ele><time>2026-04-11T12:22:31.999Z</time></trkpt><trkpt lat="45.47113271762962" lon="11.444647958395455"><ele>49.0</ele><time>2026-04-11T12:22:32.999Z</time></trkpt><trkpt lat="45.47098331020298" lon="11.444417795144727"><ele>48.666666666666664</ele><time>2026-04-11T12:22:33.999Z</time></trkpt><trkpt lat="45.47084485120094" lon="11.444187288758501"><ele>48.33333333333333</ele><time>2026-04-11T12:22:34.999Z</time></trkpt><trkpt lat="45.47072133503856" lon="11.443996787529201"><ele>48.0</ele><time>2026-04-11T12:22:35.999Z</time></trkpt><trkpt lat="45.470600375378325" lon="11.443824749554729"><ele>47.75</ele><time>2026-04-11T12:22:36.999Z</time></trkpt><trkpt lat="45.47049104757999" lon="11.443658000271963"><ele>47.5</ele><time>2026-04-11T12:22:37.999Z</time></trkpt><trkpt lat="45.47039153993827" lon="11.443497109973203"><ele>47.25</ele><time>2026-04-11T12:22:38.999Z</time></trkpt><trkpt lat="45.47030246755279" lon="11.443361027011187"><ele>47.0</ele><time>2026-04-11T12:22:39.999Z</time></trkpt><trkpt lat="45.47019596361532" lon="11.443256713646706"><ele>46.5</ele><time>2026-04-11T12:22:40.999Z</time></trkpt><trkpt lat="45.47006710134487" lon="11.443220626919745"><ele>46.0</ele><time>2026-04-11T12:22:41.999Z</time></trkpt><trkpt lat="45.46993280985867" lon="11.443275571338381"><ele>45.5</ele><time>2026-04-11T12:22:42.999Z</time></trkpt><trkpt lat="45.469802245757585" lon="11.443381209284366"><ele>45.0</ele><time>2026-04-11T12:22:43.999Z</time></trkpt><trkpt lat="45.469674033771696" lon="11.44356084347242"><ele>44.666666666666664</ele><time>2026-04-11T12:22:44.999Z</time></trkpt><trkpt lat="45.469545817848825" lon="11.443749456454539"><ele>44.33333333333333</ele><time>2026-04-11T12:22:45.999Z</time></trkpt><trkpt lat="45.46938803533883" lon="11.443921241756524"><ele>44.0</ele><time>2026-04-11T12:22:46.999Z</time></trkpt><trkpt lat="45.46924410046652" lon="11.444124131495045"><ele>44.0</ele><time>2026-04-11T12:22:47.999Z</time></trkpt><trkpt lat="45.469092614910764" lon="11.444294777886599"><ele>44.0</ele><time>2026-04-11T12:22:48.999Z</time></trkpt><trkpt lat="45.468936268868866" lon="11.44445251459211"><ele>44.0</ele><time>2026-04-11T12:22:49.999Z</time></trkpt><trkpt lat="45.4687939185971" lon="11.444614413062594"><ele>44.33333333333333</ele><time>2026-04-11T12:22:50.999Z</time></trkpt><trkpt lat="45.46864964740836" lon="11.444792015725957"><ele>44.666666666666664</ele><time>2026-04-11T12:22:51.999Z</time></trkpt><trkpt lat="45.468507164318744" lon="11.444967258971856"><ele>45.0</ele><time>2026-04-11T12:22:52.999Z</time></trkpt><trkpt lat="45.468370926065106" lon="11.445144675916843"><ele>45.0</ele><time>2026-04-11T12:22:53.999Z</time></trkpt><trkpt lat="45.46823560946218" lon="11.445326004778135"><ele>45.0</ele><time>2026-04-11T12:22:54.999Z</time></trkpt><trkpt lat="45.46810682477936" lon="11.44550904488941"><ele>45.0</ele><time>2026-04-11T12:22:55.999Z</time></trkpt><trkpt lat="45.467989764774586" lon="11.445667579060137"><ele>44.666666666666664</ele><time>2026-04-11T12:22:56.999Z</time></trkpt><trkpt lat="45.46789347280748" lon="11.445796537009816"><ele>44.33333333333333</ele><time>2026-04-11T12:22:57.999Z</time></trkpt><trkpt lat="45.46770358972589" lon="11.445958293296137"><ele>44.0</ele><time>2026-04-11T12:22:58.999Z</time></trkpt><trkpt lat="45.467534793169804" lon="11.446008512883642"><ele>44.0</ele><time>2026-04-11T12:22:59.999Z</time></trkpt><trkpt lat="45.4673669322368" lon="11.446054343434213"><ele>44.0</ele><time>2026-04-11T12:23:00.999Z</time></trkpt><trkpt lat="45.46718902494144" lon="11.446109124681891"><ele>44.0</ele><time>2026-04-11T12:23:01.999Z</time></trkpt><trkpt lat="45.46700290176106" lon="11.446135786001564"><ele>44.666666666666664</ele><time>2026-04-11T12:23:02.999Z</time></trkpt><trkpt lat="45.466815449029106" lon="11.446172938378696"><ele>45.333333333333336</ele><time>2026-04-11T12:23:03.999Z</time></trkpt><trkpt lat="45.46662054929433" lon="11.446217777914002"><ele>46.0</ele><time>2026-04-11T12:23:04.999Z</time></trkpt><trkpt lat="45.46642308649512" lon="11.446261345353667"><ele>46.333333333333336</ele><time>2026-04-11T12:23:05.999Z</time></trkpt><trkpt lat="45.46621147108902" lon="11.446311034370297"><ele>46.666666666666664</ele><time>2026-04-11T12:23:06.999Z</time></trkpt><trkpt lat="45.466005771236134" lon="11.446354314883825"><ele>47.0</ele><time>2026-04-11T12:23:07.999Z</time></trkpt><trkpt lat="45.46578817314204" lon="11.446404877731295"><ele>47.0</ele><time>2026-04-11T12:23:08.999Z</time></trkpt><trkpt lat="45.46558371564598" lon="11.446446843421551"><ele>47.0</ele><time>2026-04-11T12:23:09.999Z</time></trkpt><trkpt lat="45.4653973602589" lon="11.446482026482501"><ele>47.0</ele><time>2026-04-11T12:23:10.999Z</time></trkpt><trkpt lat="45.46520704394933" lon="11.446529217870008"><ele>46.0</ele><time>2026-04-11T12:23:11.998Z</time></trkpt><trkpt lat="45.46501183109512" lon="11.446568287692385"><ele>45.0</ele><time>2026-04-11T12:23:12.998Z</time></trkpt><trkpt lat="45.464814958915625" lon="11.446615590248184"><ele>44.0</ele><time>2026-04-11T12:23:13.998Z</time></trkpt><trkpt lat="45.464615457309485" lon="11.446666065556103"><ele>44.0</ele><time>2026-04-11T12:23:14.998Z</time></trkpt><trkpt lat="45.46441890533784" lon="11.446707878095877"><ele>44.0</ele><time>2026-04-11T12:23:15.998Z</time></trkpt><trkpt lat="45.464217842130324" lon="11.446752771364025"><ele>44.0</ele><time>2026-04-11T12:23:16.998Z</time></trkpt><trkpt lat="45.46402001111962" lon="11.446791200944624"><ele>44.0</ele><time>2026-04-11T12:23:17.998Z</time></trkpt><trkpt lat="45.463823803368435" lon="11.446840629690772"><ele>44.0</ele><time>2026-04-11T12:23:18.998Z</time></trkpt><trkpt lat="45.46363140623114" lon="11.446882541002848"><ele>44.0</ele><time>2026-04-11T12:23:19.998Z</time></trkpt><trkpt lat="45.46343327450185" lon="11.446922296108923"><ele>44.33333333333333</ele><time>2026-04-11T12:23:20.998Z</time></trkpt><trkpt lat="45.46322267119299" lon="11.446965004024651"><ele>44.666666666666664</ele><time>2026-04-11T12:23:21.998Z</time></trkpt><trkpt lat="45.463021701488934" lon="11.44701009460008"><ele>45.0</ele><time>2026-04-11T12:23:22.998Z</time></trkpt><trkpt lat="45.46282924500104" lon="11.447061366728837"><ele>45.0</ele><time>2026-04-11T12:23:23.998Z</time></trkpt><trkpt lat="45.462639349812555" lon="11.447089306227154"><ele>45.0</ele><time>2026-04-11T12:23:24.998Z</time></trkpt><trkpt lat="45.46245343019124" lon="11.447037900791837"><ele>45.0</ele><time>2026-04-11T12:23:25.998Z</time></trkpt><trkpt lat="45.46226691266127" lon="11.446977826962277"><ele>45.666666666666664</ele><time>2026-04-11T12:23:26.998Z</time></trkpt><trkpt lat="45.46209489887788" lon="11.44681733494188"><ele>46.33333333333333</ele><time>2026-04-11T12:23:27.998Z</time></trkpt><trkpt lat="45.4619249333181" lon="11.446652205806666"><ele>47.0</ele><time>2026-04-11T12:23:28.998Z</time></trkpt><trkpt lat="45.46175719260241" lon="11.446492227591033"><ele>47.0</ele><time>2026-04-11T12:23:29.998Z</time></trkpt><trkpt lat="45.46159398417284" lon="11.446317007058246"><ele>47.0</ele><time>2026-04-11T12:23:30.998Z</time></trkpt><trkpt lat="45.46142277665583" lon="11.446146755505836"><ele>47.0</ele><time>2026-04-11T12:23:32Z</time></trkpt><trkpt lat="45.46124540146772" lon="11.445975583121006"><ele>48.0</ele><time>2026-04-11T12:23:33Z</time></trkpt><trkpt lat="45.461069072285476" lon="11.445790725758402"><ele>49.0</ele><time>2026-04-11T12:23:34Z</time></trkpt><trkpt lat="45.46089900325369" lon="11.445602955301753"><ele>50.0</ele><time>2026-04-11T12:23:35Z</time></trkpt><trkpt lat="45.460735081351565" lon="11.445423758606365"><ele>50.0</ele><time>2026-04-11T12:23:36Z</time></trkpt><trkpt lat="45.46056656697178" lon="11.445248004966952"><ele>50.0</ele><time>2026-04-11T12:23:37Z</time></trkpt><trkpt lat="45.460389926445096" lon="11.445065753531424"><ele>50.0</ele><time>2026-04-11T12:23:38Z</time></trkpt><trkpt lat="45.46022999561144" lon="11.444903401716708"><ele>50.0</ele><time>2026-04-11T12:23:39Z</time></trkpt><trkpt lat="45.460065009437464" lon="11.444741633819811"><ele>50.0</ele><time>2026-04-11T12:23:40Z</time></trkpt><trkpt lat="45.45989617732118" lon="11.444564715808893"><ele>50.0</ele><time>2026-04-11T12:23:41Z</time></trkpt><trkpt lat="45.45973479511742" lon="11.444394576406609"><ele>48.0</ele><time>2026-04-11T12:23:42Z</time></trkpt><trkpt lat="45.45957793073347" lon="11.444234898818674"><ele>46.0</ele><time>2026-04-11T12:23:43Z</time></trkpt><trkpt lat="45.45942489165715" lon="11.44409051507355"><ele>44.0</ele><time>2026-04-11T12:23:44Z</time></trkpt><trkpt lat="45.459262517012355" lon="11.443960162146226"><ele>44.0</ele><time>2026-04-11T12:23:45Z</time></trkpt><trkpt lat="45.45908849152798" lon="11.443863033024979"><ele>44.0</ele><time>2026-04-11T12:23:46Z</time></trkpt><trkpt lat="45.45890917613416" lon="11.443796033352864"><ele>44.0</ele><time>2026-04-11T12:23:47Z</time></trkpt><trkpt lat="45.458718510522154" lon="11.4437741087438"><ele>43.666666666666664</ele><time>2026-04-11T12:23:48Z</time></trkpt><trkpt lat="45.458529214249594" lon="11.443787117280843"><ele>43.333333333333336</ele><time>2026-04-11T12:23:49Z</time></trkpt><trkpt lat="45.45833921548063" lon="11.443840164705199"><ele>43.0</ele><time>2026-04-11T12:23:50Z</time></trkpt><trkpt lat="45.458140545842774" lon="11.443878496401707"><ele>43.0</ele><time>2026-04-11T12:23:51Z</time></trkpt><trkpt lat="45.457951403943554" lon="11.443955523105885"><ele>43.0</ele><time>2026-04-11T12:23:52Z</time></trkpt><trkpt lat="45.45776663032765" lon="11.444009852642054"><ele>43.0</ele><time>2026-04-11T12:23:53Z</time></trkpt><trkpt lat="45.45760284641658" lon="11.444080478110893"><ele>43.0</ele><time>2026-04-11T12:23:54Z</time></trkpt><trkpt lat="45.4574583037472" lon="11.444180480119918"><ele>43.0</ele><time>2026-04-11T12:23:55Z</time></trkpt><trkpt lat="45.4573308271186" lon="11.444310187574144"><ele>43.0</ele><time>2026-04-11T12:23:56Z</time></trkpt><trkpt lat="45.45721782892555" lon="11.444471377116932"><ele>43.0</ele><time>2026-04-11T12:23:57Z</time></trkpt><trkpt lat="45.45712304732553" lon="11.444657111149185"><ele>43.0</ele><time>2026-04-11T12:23:58Z</time></trkpt><trkpt lat="45.457055109343344" lon="11.444868661067689"><ele>43.0</ele><time>2026-04-11T12:23:59Z</time></trkpt><trkpt lat="45.45700882234059" lon="11.44509750475078"><ele>42.75</ele><time>2026-04-11T12:24:00Z</time></trkpt><trkpt lat="45.45697136126712" lon="11.445320246465778"><ele>42.5</ele><time>2026-04-11T12:24:01Z</time></trkpt><trkpt lat="45.4569429216799" lon="11.44552667532151"><ele>42.25</ele><time>2026-04-11T12:24:02Z</time></trkpt><trkpt lat="45.45691891808375" lon="11.445715939080788"><ele>42.0</ele><time>2026-04-11T12:24:03Z</time></trkpt><trkpt lat="45.45689429740713" lon="11.445883634614045"><ele>42.2</ele><time>2026-04-11T12:24:04Z</time></trkpt><trkpt lat="45.45687363218309" lon="11.446024998910874"><ele>42.400000000000006</ele><time>2026-04-11T12:24:05Z</time></trkpt><trkpt lat="45.45685582770993" lon="11.446147079641197"><ele>42.599999999999994</ele><time>2026-04-11T12:24:06Z</time></trkpt><trkpt lat="45.456836823191" lon="11.446258708650264"><ele>42.8</ele><time>2026-04-11T12:24:07Z</time></trkpt><trkpt lat="45.456816523421836" lon="11.44635677054116"><ele>43.0</ele><time>2026-04-11T12:24:08Z</time></trkpt><trkpt lat="45.45676074779006" lon="11.44651756184192"><ele>43.0</ele><time>2026-04-11T12:24:10Z</time></trkpt><trkpt lat="45.45671704607937" lon="11.446600505195695"><ele>43.0</ele><time>2026-04-11T12:24:11Z</time></trkpt><trkpt lat="45.45669265334763" lon="11.44669065255121"><ele>43.0</ele><time>2026-04-11T12:24:12Z</time></trkpt><trkpt lat="45.45669382797823" lon="11.446810522144348"><ele>43.0</ele><time>2026-04-11T12:24:13Z</time></trkpt><trkpt lat="45.45667901136457" lon="11.446950556856265"><ele>43.0</ele><time>2026-04-11T12:24:14Z</time></trkpt><trkpt lat="45.45664283120939" lon="11.447103505897575"><ele>43.0</ele><time>2026-04-11T12:24:15Z</time></trkpt><trkpt lat="45.456601662804076" lon="11.447267414771385"><ele>43.25</ele><time>2026-04-11T12:24:16Z</time></trkpt><trkpt lat="45.45655567789559" lon="11.44743959219766"><ele>43.5</ele><time>2026-04-11T12:24:17Z</time></trkpt><trkpt lat="45.45652938342513" lon="11.447623061550816"><ele>43.75</ele><time>2026-04-11T12:24:17.999Z</time></trkpt><trkpt lat="45.45649425877368" lon="11.447792097783804"><ele>44.0</ele><time>2026-04-11T12:24:18.999Z</time></trkpt><trkpt lat="45.45645866894824" lon="11.44796845594428"><ele>43.75</ele><time>2026-04-11T12:24:19.999Z</time></trkpt><trkpt lat="45.4564279320312" lon="11.44814048826205"><ele>43.5</ele><time>2026-04-11T12:24:20.999Z</time></trkpt><trkpt lat="45.45638630324717" lon="11.448306955095422"><ele>43.25</ele><time>2026-04-11T12:24:21.999Z</time></trkpt><trkpt lat="45.45630926502068" lon="11.448461240212128"><ele>43.0</ele><time>2026-04-11T12:24:22.999Z</time></trkpt><trkpt lat="45.456240535509544" lon="11.448632517886498"><ele>43.0</ele><time>2026-04-11T12:24:23.999Z</time></trkpt><trkpt lat="45.45614449889198" lon="11.448791875278554"><ele>43.0</ele><time>2026-04-11T12:24:24.999Z</time></trkpt><trkpt lat="45.45604773145203" lon="11.44896651476988"><ele>43.0</ele><time>2026-04-11T12:24:25.999Z</time></trkpt><trkpt lat="45.45595071577034" lon="11.449147014761726"><ele>42.66666666666667</ele><time>2026-04-11T12:24:26.999Z</time></trkpt><trkpt lat="45.455846560973676" lon="11.449344091109552"><ele>42.333333333333336</ele><time>2026-04-11T12:24:27.999Z</time></trkpt><trkpt lat="45.45573459794606" lon="11.449552526850018"><ele>42.0</ele><time>2026-04-11T12:24:28.999Z</time></trkpt><trkpt lat="45.4556308079143" lon="11.449748534278287"><ele>42.0</ele><time>2026-04-11T12:24:29.999Z</time></trkpt><trkpt lat="45.45551916554372" lon="11.449944333049764"><ele>42.0</ele><time>2026-04-11T12:24:30.999Z</time></trkpt><trkpt lat="45.455404622955164" lon="11.45015262569474"><ele>42.0</ele><time>2026-04-11T12:24:31.999Z</time></trkpt><trkpt lat="45.455297681321596" lon="11.450350953637884"><ele>42.333333333333336</ele><time>2026-04-11T12:24:32.999Z</time></trkpt><trkpt lat="45.45517997307233" lon="11.450574097834014"><ele>42.66666666666667</ele><time>2026-04-11T12:24:33.999Z</time></trkpt><trkpt lat="45.45507054780337" lon="11.450779578788335"><ele>43.0</ele><time>2026-04-11T12:24:34.999Z</time></trkpt><trkpt lat="45.45496835822896" lon="11.450971643376674"><ele>43.0</ele><time>2026-04-11T12:24:35.999Z</time></trkpt><trkpt lat="45.454861321222076" lon="11.451181538045535"><ele>43.0</ele><time>2026-04-11T12:24:36.999Z</time></trkpt><trkpt lat="45.45475319344934" lon="11.45137735922215"><ele>43.0</ele><time>2026-04-11T12:24:37.999Z</time></trkpt><trkpt lat="45.454645143800775" lon="11.451574158940348"><ele>42.333333333333336</ele><time>2026-04-11T12:24:38.999Z</time></trkpt><trkpt lat="45.454534840429965" lon="11.451775977241635"><ele>41.666666666666664</ele><time>2026-04-11T12:24:39.999Z</time></trkpt><trkpt lat="45.45443641275283" lon="11.451980718535985"><ele>41.0</ele><time>2026-04-11T12:24:40.999Z</time></trkpt><trkpt lat="45.45434664043964" lon="11.452187233205112"><ele>41.0</ele><time>2026-04-11T12:24:41.999Z</time></trkpt><trkpt lat="45.45427189197368" lon="11.452406708178932"><ele>41.0</ele><time>2026-04-11T12:24:42.999Z</time></trkpt><trkpt lat="45.454214921648884" lon="11.452648385000247"><ele>41.0</ele><time>2026-04-11T12:24:43.999Z</time></trkpt><trkpt lat="45.454183651520694" lon="11.452901707348188"><ele>41.666666666666664</ele><time>2026-04-11T12:24:44.999Z</time></trkpt><trkpt lat="45.45418254656822" lon="11.453160190729843"><ele>42.333333333333336</ele><time>2026-04-11T12:24:45.999Z</time></trkpt><trkpt lat="45.4541886936022" lon="11.453447971841571"><ele>43.0</ele><time>2026-04-11T12:24:46.999Z</time></trkpt><trkpt lat="45.45420460246423" lon="11.45372593769164"><ele>43.0</ele><time>2026-04-11T12:24:47.999Z</time></trkpt><trkpt lat="45.454210324112516" lon="11.453990466025399"><ele>43.0</ele><time>2026-04-11T12:24:48.999Z</time></trkpt><trkpt lat="45.45421314505246" lon="11.454264732009932"><ele>43.0</ele><time>2026-04-11T12:24:49.999Z</time></trkpt><trkpt lat="45.45421875386087" lon="11.454533073595787"><ele>41.333333333333336</ele><time>2026-04-11T12:24:50.999Z</time></trkpt><trkpt lat="45.454225066083836" lon="11.454809329821913"><ele>39.666666666666664</ele><time>2026-04-11T12:24:51.999Z</time></trkpt><trkpt lat="45.45423240065305" lon="11.45508254108847"><ele>38.0</ele><time>2026-04-11T12:24:52.999Z</time></trkpt><trkpt lat="45.45423748362969" lon="11.455335312608389"><ele>37.33333333333333</ele><time>2026-04-11T12:24:53.999Z</time></trkpt><trkpt lat="45.454242314827475" lon="11.45556291449107"><ele>36.666666666666664</ele><time>2026-04-11T12:24:54.999Z</time></trkpt><trkpt lat="45.45424590719887" lon="11.455779755269212"><ele>36.0</ele><time>2026-04-11T12:24:55.999Z</time></trkpt><trkpt lat="45.45424717646033" lon="11.45598217195706"><ele>36.0</ele><time>2026-04-11T12:24:56.999Z</time></trkpt><trkpt lat="45.45423969809528" lon="11.45615701852128"><ele>36.0</ele><time>2026-04-11T12:24:57.999Z</time></trkpt><trkpt lat="45.454215947746725" lon="11.456306176702505"><ele>36.0</ele><time>2026-04-11T12:24:58.999Z</time></trkpt><trkpt lat="45.454170740288966" lon="11.456416747766461"><ele>36.0</ele><time>2026-04-11T12:24:59.999Z</time></trkpt><trkpt lat="45.45422389029078" lon="11.456602851613434"><ele>36.75</ele><time>2026-04-11T12:25:01.999Z</time></trkpt><trkpt lat="45.454300250784414" lon="11.45668334677435"><ele>37.5</ele><time>2026-04-11T12:25:02.999Z</time></trkpt><trkpt lat="45.454401052605995" lon="11.456775682514916"><ele>38.25</ele><time>2026-04-11T12:25:03.999Z</time></trkpt><trkpt lat="45.45450891421029" lon="11.456892871358557"><ele>39.0</ele><time>2026-04-11T12:25:04.999Z</time></trkpt><trkpt lat="45.454594809200735" lon="11.457039969179505"><ele>40.0</ele><time>2026-04-11T12:25:05.999Z</time></trkpt><trkpt lat="45.45464218172257" lon="11.457226753012327"><ele>41.0</ele><time>2026-04-11T12:25:06.999Z</time></trkpt><trkpt lat="45.45471273451245" lon="11.457408187160551"><ele>42.0</ele><time>2026-04-11T12:25:07.999Z</time></trkpt><trkpt lat="45.454783599992915" lon="11.457578739294776"><ele>43.0</ele><time>2026-04-11T12:25:08.999Z</time></trkpt><trkpt lat="45.45489414412237" lon="11.457707451446684"><ele>43.0</ele><time>2026-04-11T12:25:09.999Z</time></trkpt><trkpt lat="45.45504347240804" lon="11.457794596194857"><ele>43.0</ele><time>2026-04-11T12:25:10.999Z</time></trkpt><trkpt lat="45.45517901003439" lon="11.457868233486835"><ele>43.0</ele><time>2026-04-11T12:25:11.999Z</time></trkpt><trkpt lat="45.455277803421666" lon="11.457990247260291"><ele>43.0</ele><time>2026-04-11T12:25:12.998Z</time></trkpt><trkpt lat="45.45534527406225" lon="11.458113320645786"><ele>44.75</ele><time>2026-04-11T12:25:13.998Z</time></trkpt><trkpt lat="45.45539135819204" lon="11.458278547038091"><ele>46.5</ele><time>2026-04-11T12:25:14.998Z</time></trkpt><trkpt lat="45.455390154560924" lon="11.45846209095194"><ele>48.25</ele><time>2026-04-11T12:25:15.998Z</time></trkpt><trkpt lat="45.45537476954022" lon="11.45863442081845"><ele>50.0</ele><time>2026-04-11T12:25:16.998Z</time></trkpt><trkpt lat="45.455350590939325" lon="11.458820696454758"><ele>51.25</ele><time>2026-04-11T12:25:17.998Z</time></trkpt><trkpt lat="45.45531583489938" lon="11.459003646047726"><ele>52.5</ele><time>2026-04-11T12:25:18.998Z</time></trkpt><trkpt lat="45.45527188765169" lon="11.459159387854209"><ele>53.75</ele><time>2026-04-11T12:25:19.998Z</time></trkpt><trkpt lat="45.45521929313798" lon="11.459263391396432"><ele>55.0</ele><time>2026-04-11T12:25:20.998Z</time></trkpt><trkpt lat="45.45512295900503" lon="11.459335711258134"><ele>55.0</ele><time>2026-04-11T12:25:21.998Z</time></trkpt><trkpt lat="45.455003831136004" lon="11.45933120030429"><ele>55.0</ele><time>2026-04-11T12:25:22.998Z</time></trkpt><trkpt lat="45.45488526515142" lon="11.459385338099308"><ele>55.0</ele><time>2026-04-11T12:25:23.998Z</time></trkpt><trkpt lat="45.45477582065998" lon="11.459429275582448"><ele>55.0</ele><time>2026-04-11T12:25:24.998Z</time></trkpt><trkpt lat="45.4546772655548" lon="11.459525050384785"><ele>56.0</ele><time>2026-04-11T12:25:25.998Z</time></trkpt><trkpt lat="45.45459408151452" lon="11.459650173452534"><ele>57.0</ele><time>2026-04-11T12:25:26.998Z</time></trkpt><trkpt lat="45.45453135278081" lon="11.459784184688429"><ele>58.0</ele><time>2026-04-11T12:25:27.998Z</time></trkpt><trkpt lat="45.454516400752894" lon="11.459927010418328"><ele>59.0</ele><time>2026-04-11T12:25:28.998Z</time></trkpt><trkpt lat="45.454522256864536" lon="11.460094789927087"><ele>59.0</ele><time>2026-04-11T12:25:29.998Z</time></trkpt><trkpt lat="45.454549696272736" lon="11.460284979563454"><ele>59.0</ele><time>2026-04-11T12:25:30.998Z</time></trkpt><trkpt lat="45.454575964398984" lon="11.460499084841775"><ele>59.0</ele><time>2026-04-11T12:25:31.998Z</time></trkpt><trkpt lat="45.45455523623083" lon="11.460719562531487"><ele>59.0</ele><time>2026-04-11T12:25:32.998Z</time></trkpt><trkpt lat="45.45454975027759" lon="11.460926494817501"><ele>60.333333333333336</ele><time>2026-04-11T12:25:33.998Z</time></trkpt><trkpt lat="45.45454591521007" lon="11.461144622010051"><ele>61.66666666666667</ele><time>2026-04-11T12:25:34.998Z</time></trkpt><trkpt lat="45.45448583360569" lon="11.46135944433072"><ele>63.0</ele><time>2026-04-11T12:25:35.998Z</time></trkpt><trkpt lat="45.454435116562" lon="11.461556641885673"><ele>64.0</ele><time>2026-04-11T12:25:36.998Z</time></trkpt><trkpt lat="45.45441618707593" lon="11.461724157165426"><ele>65.0</ele><time>2026-04-11T12:25:38Z</time></trkpt><trkpt lat="45.4544178290028" lon="11.461884459902814"><ele>66.0</ele><time>2026-04-11T12:25:39Z</time></trkpt><trkpt lat="45.45446343241984" lon="11.462078352241242"><ele>67.0</ele><time>2026-04-11T12:25:40Z</time></trkpt><trkpt lat="45.45449028193527" lon="11.46230326415793"><ele>69.0</ele><time>2026-04-11T12:25:41Z</time></trkpt><trkpt lat="45.45449992080271" lon="11.462551456076103"><ele>71.0</ele><time>2026-04-11T12:25:42Z</time></trkpt><trkpt lat="45.4544948736447" lon="11.46282317300671"><ele>73.0</ele><time>2026-04-11T12:25:43Z</time></trkpt><trkpt lat="45.4544647724148" lon="11.463086363838617"><ele>74.33333333333333</ele><time>2026-04-11T12:25:44Z</time></trkpt><trkpt lat="45.45442903131835" lon="11.463332127110974"><ele>75.66666666666667</ele><time>2026-04-11T12:25:45Z</time></trkpt><trkpt lat="45.454388216834886" lon="11.463582045404436"><ele>77.0</ele><time>2026-04-11T12:25:46Z</time></trkpt><trkpt lat="45.45433937628377" lon="11.463798505381384"><ele>78.5</ele><time>2026-04-11T12:25:47Z</time></trkpt><trkpt lat="45.45426937953271" lon="11.463992295010891"><ele>80.0</ele><time>2026-04-11T12:25:48Z</time></trkpt><trkpt lat="45.45419116600027" lon="11.464170487468039"><ele>81.5</ele><time>2026-04-11T12:25:49Z</time></trkpt><trkpt lat="45.45414446307683" lon="11.464330564329794"><ele>83.0</ele><time>2026-04-11T12:25:50Z</time></trkpt><trkpt lat="45.45413206371128" lon="11.464498871265494"><ele>84.75</ele><time>2026-04-11T12:25:51Z</time></trkpt><trkpt lat="45.45416107535829" lon="11.464680748459484"><ele>86.5</ele><time>2026-04-11T12:25:52Z</time></trkpt><trkpt lat="45.45418224370039" lon="11.464874240664095"><ele>88.25</ele><time>2026-04-11T12:25:53Z</time></trkpt><trkpt lat="45.45420908662523" lon="11.465064769895427"><ele>90.0</ele><time>2026-04-11T12:25:54Z</time></trkpt><trkpt lat="45.454260784815006" lon="11.465250351834575"><ele>90.0</ele><time>2026-04-11T12:25:55Z</time></trkpt><trkpt lat="45.454339463155755" lon="11.465422613782058"><ele>90.0</ele><time>2026-04-11T12:25:56Z</time></trkpt><trkpt lat="45.45441650426702" lon="11.465610744367247"><ele>90.0</ele><time>2026-04-11T12:25:57Z</time></trkpt><trkpt lat="45.45446850806836" lon="11.465825852290235"><ele>91.5</ele><time>2026-04-11T12:25:58Z</time></trkpt><trkpt lat="45.45450701338555" lon="11.466048955225133"><ele>93.0</ele><time>2026-04-11T12:25:59Z</time></trkpt><trkpt lat="45.45452600865037" lon="11.466270615979692"><ele>94.5</ele><time>2026-04-11T12:26:00Z</time></trkpt><trkpt lat="45.454556252509825" lon="11.466450861302233"><ele>96.0</ele><time>2026-04-11T12:26:01Z</time></trkpt><trkpt lat="45.454602496476134" lon="11.466589650841389"><ele>99.0</ele><time>2026-04-11T12:26:02Z</time></trkpt><trkpt lat="45.45469517074916" lon="11.466724153652017"><ele>102.0</ele><time>2026-04-11T12:26:03Z</time></trkpt><trkpt lat="45.45482065109047" lon="11.466834421099508"><ele>105.0</ele><time>2026-04-11T12:26:04Z</time></trkpt><trkpt lat="45.45497169578403" lon="11.466959691535795"><ele>105.0</ele><time>2026-04-11T12:26:05Z</time></trkpt><trkpt lat="45.45512684738169" lon="11.467110311234737"><ele>105.0</ele><time>2026-04-11T12:26:06Z</time></trkpt><trkpt lat="45.45526979289597" lon="11.467254510127175"><ele>105.0</ele><time>2026-04-11T12:26:07Z</time></trkpt><trkpt lat="45.45537073424363" lon="11.467383647526766"><ele>107.0</ele><time>2026-04-11T12:26:08Z</time></trkpt><trkpt lat="45.45545669822462" lon="11.46750224472855"><ele>109.0</ele><time>2026-04-11T12:26:09Z</time></trkpt><trkpt lat="45.4555345479724" lon="11.46763694647164"><ele>111.0</ele><time>2026-04-11T12:26:10Z</time></trkpt><trkpt lat="45.455590308476616" lon="11.467789127638888"><ele>113.0</ele><time>2026-04-11T12:26:11Z</time></trkpt><trkpt lat="45.45562206906936" lon="11.467924493710717"><ele>113.0</ele><time>2026-04-11T12:26:12Z</time></trkpt><trkpt lat="45.455651301956635" lon="11.468046757243101"><ele>113.00000000000001</ele><time>2026-04-11T12:26:13Z</time></trkpt><trkpt lat="45.45559126845904" lon="11.468159012582415"><ele>113.00000000000001</ele><time>2026-04-11T12:26:14Z</time></trkpt><trkpt lat="45.4555501099348" lon="11.46827685158974"><ele>113.0</ele><time>2026-04-11T12:26:15Z</time></trkpt><trkpt lat="45.455506809469306" lon="11.468413662881979"><ele>113.0</ele><time>2026-04-11T12:26:16Z</time></trkpt><trkpt lat="45.455424394311734" lon="11.46853026595489"><ele>115.25</ele><time>2026-04-11T12:26:17Z</time></trkpt><trkpt lat="45.45535264835172" lon="11.46868322419005"><ele>117.5</ele><time>2026-04-11T12:26:18Z</time></trkpt><trkpt lat="45.45524781895354" lon="11.468827481357797"><ele>119.75</ele><time>2026-04-11T12:26:19Z</time></trkpt><trkpt lat="45.45517025780374" lon="11.46901128037171"><ele>122.0</ele><time>2026-04-11T12:26:20Z</time></trkpt><trkpt lat="45.455066135879555" lon="11.469192472216282"><ele>122.0</ele><time>2026-04-11T12:26:20.999Z</time></trkpt><trkpt lat="45.45497002470065" lon="11.469361220083341"><ele>122.0</ele><time>2026-04-11T12:26:21.999Z</time></trkpt><trkpt lat="45.45487562783649" lon="11.469527625947345"><ele>122.0</ele><time>2026-04-11T12:26:22.999Z</time></trkpt><trkpt lat="45.45476679713367" lon="11.469701451410643"><ele>122.0</ele><time>2026-04-11T12:26:23.999Z</time></trkpt><trkpt lat="45.454679057916245" lon="11.469844101947693"><ele>122.0</ele><time>2026-04-11T12:26:24.999Z</time></trkpt><trkpt lat="45.45459056054918" lon="11.470002542696491"><ele>122.0</ele><time>2026-04-11T12:26:25.999Z</time></trkpt><trkpt lat="45.454480341521105" lon="11.470137866998902"><ele>122.0</ele><time>2026-04-11T12:26:26.999Z</time></trkpt><trkpt lat="45.45433598822221" lon="11.470210317919788"><ele>123.75</ele><time>2026-04-11T12:26:27.999Z</time></trkpt><trkpt lat="45.4542341526165" lon="11.47031655596067"><ele>125.5</ele><time>2026-04-11T12:26:28.999Z</time></trkpt><trkpt lat="45.45414127216398" lon="11.470430826259822"><ele>127.25</ele><time>2026-04-11T12:26:29.999Z</time></trkpt><trkpt lat="45.45408263369634" lon="11.470591126406243"><ele>129.0</ele><time>2026-04-11T12:26:30.999Z</time></trkpt><trkpt lat="45.45404491144364" lon="11.470747394156206"><ele>131.6</ele><time>2026-04-11T12:26:31.999Z</time></trkpt><trkpt lat="45.45399527364646" lon="11.470861346196315"><ele>134.2</ele><time>2026-04-11T12:26:32.999Z</time></trkpt><trkpt lat="45.45398390816065" lon="11.470965373089355"><ele>136.79999999999998</ele><time>2026-04-11T12:26:33.999Z</time></trkpt><trkpt lat="45.453957940031906" lon="11.471065101467598"><ele>139.4</ele><time>2026-04-11T12:26:34.999Z</time></trkpt><trkpt lat="45.45393009479067" lon="11.47118814967174"><ele>142.0</ele><time>2026-04-11T12:26:35.999Z</time></trkpt><trkpt lat="45.45389054241175" lon="11.471370556046406"><ele>142.0</ele><time>2026-04-11T12:26:36.999Z</time></trkpt><trkpt lat="45.45384492247353" lon="11.47160171704964"><ele>142.0</ele><time>2026-04-11T12:26:37.999Z</time></trkpt><trkpt lat="45.453783858456774" lon="11.471883994122924"><ele>142.0</ele><time>2026-04-11T12:26:38.999Z</time></trkpt><trkpt lat="45.453713418464275" lon="11.472196339239972"><ele>144.66666666666669</ele><time>2026-04-11T12:26:39.999Z</time></trkpt><trkpt lat="45.453645107475204" lon="11.472491884585114"><ele>147.33333333333334</ele><time>2026-04-11T12:26:40.999Z</time></trkpt><trkpt lat="45.45358421700202" lon="11.472779637610637"><ele>150.0</ele><time>2026-04-11T12:26:41.999Z</time></trkpt><trkpt lat="45.453527718034515" lon="11.473041257773257"><ele>154.0</ele><time>2026-04-11T12:26:42.999Z</time></trkpt><trkpt lat="45.45348123315513" lon="11.473288930034446"><ele>158.0</ele><time>2026-04-11T12:26:43.999Z</time></trkpt><trkpt lat="45.45342823090282" lon="11.473545657792224"><ele>162.0</ele><time>2026-04-11T12:26:44.999Z</time></trkpt><trkpt lat="45.45339773420863" lon="11.473802468637409"><ele>164.66666666666666</ele><time>2026-04-11T12:26:45.999Z</time></trkpt><trkpt lat="45.45338851198167" lon="11.474057235166635"><ele>167.33333333333331</ele><time>2026-04-11T12:26:46.999Z</time></trkpt><trkpt lat="45.45338311308093" lon="11.474272621527497"><ele>170.0</ele><time>2026-04-11T12:26:47.999Z</time></trkpt><trkpt lat="45.453358494743696" lon="11.474463238476428"><ele>170.25</ele><time>2026-04-11T12:26:48.999Z</time></trkpt><trkpt lat="45.45332355543194" lon="11.474653501478139"><ele>170.5</ele><time>2026-04-11T12:26:49.999Z</time></trkpt><trkpt lat="45.45326548859506" lon="11.47484188743342"><ele>170.75</ele><time>2026-04-11T12:26:50.999Z</time></trkpt><trkpt lat="45.4532076102923" lon="11.475008714312624"><ele>171.0</ele><time>2026-04-11T12:26:51.999Z</time></trkpt><trkpt lat="45.45315083148744" lon="11.475156980407029"><ele>171.0</ele><time>2026-04-11T12:26:52.999Z</time></trkpt><trkpt lat="45.453102079838104" lon="11.475275041308269"><ele>171.0</ele><time>2026-04-11T12:26:53.999Z</time></trkpt><trkpt lat="45.45304311627394" lon="11.475331702434907"><ele>171.0</ele><time>2026-04-11T12:26:54.999Z</time></trkpt><trkpt lat="45.45295944701549" lon="11.475347887658689"><ele>171.0</ele><time>2026-04-11T12:26:55.999Z</time></trkpt><trkpt lat="45.452871205841404" lon="11.475252995029452"><ele>171.0</ele><time>2026-04-11T12:26:56.999Z</time></trkpt><trkpt lat="45.452778562443406" lon="11.475134174511714"><ele>177.0</ele><time>2026-04-11T12:26:57.999Z</time></trkpt><trkpt lat="45.45264406911495" lon="11.475035685154339"><ele>183.0</ele><time>2026-04-11T12:26:58.999Z</time></trkpt><trkpt lat="45.45248715048651" lon="11.474888610865165"><ele>189.0</ele><time>2026-04-11T12:26:59.999Z</time></trkpt><trkpt lat="45.45232046246538" lon="11.474733793277052"><ele>189.66666666666666</ele><time>2026-04-11T12:27:00.999Z</time></trkpt><trkpt lat="45.45217191036611" lon="11.474593428367383"><ele>190.33333333333331</ele><time>2026-04-11T12:27:01.999Z</time></trkpt><trkpt lat="45.45201913019485" lon="11.474483492183456"><ele>191.0</ele><time>2026-04-11T12:27:02.999Z</time></trkpt><trkpt lat="45.451896752494136" lon="11.474389398152304"><ele>191.0</ele><time>2026-04-11T12:27:03.999Z</time></trkpt><trkpt lat="45.45179121768503" lon="11.474316302442464"><ele>191.0</ele><time>2026-04-11T12:27:04.999Z</time></trkpt><trkpt lat="45.45168843820034" lon="11.474253822460588"><ele>191.0</ele><time>2026-04-11T12:27:05.999Z</time></trkpt><trkpt lat="45.4515821018795" lon="11.474189260610402"><ele>191.0</ele><time>2026-04-11T12:27:06.999Z</time></trkpt><trkpt lat="45.451462413533164" lon="11.474146337437627"><ele>191.0</ele><time>2026-04-11T12:27:07.999Z</time></trkpt><trkpt lat="45.4513292480748" lon="11.474158724957798"><ele>191.0</ele><time>2026-04-11T12:27:08.999Z</time></trkpt><trkpt lat="45.451184770889036" lon="11.474193953513272"><ele>191.0</ele><time>2026-04-11T12:27:09.999Z</time></trkpt><trkpt lat="45.4510264964479" lon="11.474225770634249"><ele>191.0</ele><time>2026-04-11T12:27:10.999Z</time></trkpt><trkpt lat="45.45085458923504" lon="11.474249224361548"><ele>189.33333333333331</ele><time>2026-04-11T12:27:11.999Z</time></trkpt><trkpt lat="45.45069693693962" lon="11.474272492588874"><ele>187.66666666666666</ele><time>2026-04-11T12:27:12.999Z</time></trkpt><trkpt lat="45.450543137555336" lon="11.474289602081425"><ele>186.0</ele><time>2026-04-11T12:27:13.999Z</time></trkpt><trkpt lat="45.450391939356855" lon="11.474298766845084"><ele>185.0</ele><time>2026-04-11T12:27:14.998Z</time></trkpt><trkpt lat="45.45023905784787" lon="11.474315884007565"><ele>184.0</ele><time>2026-04-11T12:27:15.998Z</time></trkpt><trkpt lat="45.45007986171868" lon="11.474358710176208"><ele>183.0</ele><time>2026-04-11T12:27:16.998Z</time></trkpt><trkpt lat="45.449912221309624" lon="11.474422294353444"><ele>183.0</ele><time>2026-04-11T12:27:17.998Z</time></trkpt><trkpt lat="45.44975124713563" lon="11.474507606725375"><ele>183.0</ele><time>2026-04-11T12:27:18.998Z</time></trkpt><trkpt lat="45.44958618433943" lon="11.474620764388627"><ele>183.0</ele><time>2026-04-11T12:27:19.998Z</time></trkpt><trkpt lat="45.44942341612707" lon="11.474727796838508"><ele>190.0</ele><time>2026-04-11T12:27:20.998Z</time></trkpt><trkpt lat="45.44925982558188" lon="11.474828884591153"><ele>197.0</ele><time>2026-04-11T12:27:21.998Z</time></trkpt><trkpt lat="45.449107095871064" lon="11.474905171072338"><ele>204.0</ele><time>2026-04-11T12:27:22.998Z</time></trkpt><trkpt lat="45.448940083996554" lon="11.47497077470136"><ele>207.0</ele><time>2026-04-11T12:27:23.998Z</time></trkpt><trkpt lat="45.44875338643758" lon="11.474997689498032"><ele>210.0</ele><time>2026-04-11T12:27:24.998Z</time></trkpt><trkpt lat="45.44854332344821" lon="11.475005644658493"><ele>213.0</ele><time>2026-04-11T12:27:25.998Z</time></trkpt><trkpt lat="45.448333522807424" lon="11.474992637261915"><ele>213.0</ele><time>2026-04-11T12:27:26.998Z</time></trkpt><trkpt lat="45.448142459368164" lon="11.475002273957429"><ele>213.0</ele><time>2026-04-11T12:27:27.998Z</time></trkpt><trkpt lat="45.447986571569345" lon="11.47498654670202"><ele>213.0</ele><time>2026-04-11T12:27:28.998Z</time></trkpt><trkpt lat="45.4478478063736" lon="11.474997196108822"><ele>214.0</ele><time>2026-04-11T12:27:29.998Z</time></trkpt><trkpt lat="45.44772149641875" lon="11.475028503144706"><ele>215.0</ele><time>2026-04-11T12:27:30.998Z</time></trkpt><trkpt lat="45.44760037289425" lon="11.47511991616314"><ele>216.0</ele><time>2026-04-11T12:27:31.998Z</time></trkpt><trkpt lat="45.447483904691936" lon="11.475239271449006"><ele>217.0</ele><time>2026-04-11T12:27:32.998Z</time></trkpt><trkpt lat="45.447370409854734" lon="11.475358473674225"><ele>217.0</ele><time>2026-04-11T12:27:33.998Z</time></trkpt><trkpt lat="45.44724415253955" lon="11.475399573120004"><ele>217.0</ele><time>2026-04-11T12:27:34.998Z</time></trkpt><trkpt lat="45.44711768518622" lon="11.47546391129997"><ele>217.0</ele><time>2026-04-11T12:27:35.998Z</time></trkpt><trkpt lat="45.44697811107836" lon="11.475483628494926"><ele>217.0</ele><time>2026-04-11T12:27:36.998Z</time></trkpt><trkpt lat="45.44683535179525" lon="11.475502263801056"><ele>223.75</ele><time>2026-04-11T12:27:37.998Z</time></trkpt><trkpt lat="45.44669575635379" lon="11.475523234903722"><ele>230.5</ele><time>2026-04-11T12:27:38.998Z</time></trkpt><trkpt lat="45.446561070087164" lon="11.475531973976711"><ele>237.25</ele><time>2026-04-11T12:27:39.998Z</time></trkpt><trkpt lat="45.44641587702635" lon="11.475566833449761"><ele>244.0</ele><time>2026-04-11T12:27:40.998Z</time></trkpt><trkpt lat="45.4462739491687" lon="11.475618537169325"><ele>244.0</ele><time>2026-04-11T12:27:41.998Z</time></trkpt><trkpt lat="45.44611590031215" lon="11.475669295061348"><ele>244.0</ele><time>2026-04-11T12:27:42.998Z</time></trkpt><trkpt lat="45.445934121416606" lon="11.475634716801977"><ele>244.0</ele><time>2026-04-11T12:27:44Z</time></trkpt><trkpt lat="45.44575364018467" lon="11.475618707391074"><ele>244.0</ele><time>2026-04-11T12:27:45Z</time></trkpt><trkpt lat="45.44556492169193" lon="11.475565313520146"><ele>244.0</ele><time>2026-04-11T12:27:46Z</time></trkpt><trkpt lat="45.445378530238465" lon="11.475510042942185"><ele>244.0</ele><time>2026-04-11T12:27:47Z</time></trkpt><trkpt lat="45.44518515730575" lon="11.475453759611622"><ele>239.66666666666666</ele><time>2026-04-11T12:27:48Z</time></trkpt><trkpt lat="45.44500064894796" lon="11.475368701614347"><ele>235.33333333333331</ele><time>2026-04-11T12:27:49Z</time></trkpt><trkpt lat="45.444811466490016" lon="11.475306126821037"><ele>231.0</ele><time>2026-04-11T12:27:50Z</time></trkpt><trkpt lat="45.44460270175268" lon="11.475218915386101"><ele>231.0</ele><time>2026-04-11T12:27:51Z</time></trkpt><trkpt lat="45.44435452031894" lon="11.475151603082187"><ele>231.0</ele><time>2026-04-11T12:27:52Z</time></trkpt><trkpt lat="45.444082911561765" lon="11.475090146033178"><ele>231.0</ele><time>2026-04-11T12:27:53Z</time></trkpt><trkpt lat="45.443828122594944" lon="11.475029796165396"><ele>231.0</ele><time>2026-04-11T12:27:54Z</time></trkpt><trkpt lat="45.44360903746598" lon="11.474967167194194"><ele>235.0</ele><time>2026-04-11T12:27:55Z</time></trkpt><trkpt lat="45.443444170631835" lon="11.474914203228641"><ele>239.0</ele><time>2026-04-11T12:27:56Z</time></trkpt><trkpt lat="45.44332341657345" lon="11.47481815986217"><ele>243.0</ele><time>2026-04-11T12:27:57Z</time></trkpt><trkpt lat="45.44320804999406" lon="11.474765155888434"><ele>247.0</ele><time>2026-04-11T12:27:58Z</time></trkpt><trkpt lat="45.44310793210183" lon="11.474672366004105"><ele>245.75</ele><time>2026-04-11T12:27:59Z</time></trkpt><trkpt lat="45.44301693847489" lon="11.474554775539769"><ele>244.5</ele><time>2026-04-11T12:28:00Z</time></trkpt><trkpt lat="45.442917008829774" lon="11.474427536718041"><ele>243.25</ele><time>2026-04-11T12:28:01Z</time></trkpt><trkpt lat="45.44281579223585" lon="11.474281154594896"><ele>242.0</ele><time>2026-04-11T12:28:02Z</time></trkpt><trkpt lat="45.442713184186104" lon="11.474188498833168"><ele>242.0</ele><time>2026-04-11T12:28:03Z</time></trkpt><trkpt lat="45.442586361025924" lon="11.474144730370039"><ele>242.0</ele><time>2026-04-11T12:28:04Z</time></trkpt><trkpt lat="45.44244672819282" lon="11.474120889722434"><ele>242.0</ele><time>2026-04-11T12:28:05Z</time></trkpt><trkpt lat="45.44230965829203" lon="11.474074564903411"><ele>242.0</ele><time>2026-04-11T12:28:06Z</time></trkpt><trkpt lat="45.44218356065039" lon="11.47399898115369"><ele>245.25</ele><time>2026-04-11T12:28:07Z</time></trkpt><trkpt lat="45.44206720463037" lon="11.473865059848743"><ele>248.5</ele><time>2026-04-11T12:28:08Z</time></trkpt><trkpt lat="45.441930620942415" lon="11.47379521442769"><ele>251.75</ele><time>2026-04-11T12:28:09Z</time></trkpt><trkpt lat="45.441789689462894" lon="11.473736470431072"><ele>255.0</ele><time>2026-04-11T12:28:10Z</time></trkpt><trkpt lat="45.44163596406609" lon="11.4737114726351"><ele>257.25</ele><time>2026-04-11T12:28:11Z</time></trkpt><trkpt lat="45.44149365590641" lon="11.473686835530538"><ele>259.5</ele><time>2026-04-11T12:28:12Z</time></trkpt><trkpt lat="45.44136901276799" lon="11.47366041164674"><ele>261.75</ele><time>2026-04-11T12:28:13Z</time></trkpt><trkpt lat="45.441259158766194" lon="11.473650419730367"><ele>264.0</ele><time>2026-04-11T12:28:14Z</time></trkpt><trkpt lat="45.44117457263695" lon="11.47366123341674"><ele>264.0</ele><time>2026-04-11T12:28:15Z</time></trkpt><trkpt lat="45.441111899898345" lon="11.473678393432515"><ele>264.0</ele><time>2026-04-11T12:28:16Z</time></trkpt><trkpt lat="45.44104256948281" lon="11.47369469602876"><ele>264.0</ele><time>2026-04-11T12:28:18Z</time></trkpt><trkpt lat="45.44096322516907" lon="11.473750634940231"><ele>264.0</ele><time>2026-04-11T12:28:20Z</time></trkpt><trkpt lat="45.44086966959582" lon="11.473686490980523"><ele>264.0</ele><time>2026-04-11T12:28:26Z</time></trkpt><trkpt lat="45.44079289101921" lon="11.473607405338836"><ele>264.0</ele><time>2026-04-11T12:28:26.999Z</time></trkpt><trkpt lat="45.44073520243911" lon="11.4735109121066"><ele>264.0</ele><time>2026-04-11T12:28:27.999Z</time></trkpt><trkpt lat="45.44065610594551" lon="11.4734209142299"><ele>264.0</ele><time>2026-04-11T12:28:28.999Z</time></trkpt><trkpt lat="45.44052936028656" lon="11.473360631156524"><ele>264.0</ele><time>2026-04-11T12:28:29.999Z</time></trkpt><trkpt lat="45.440405555566244" lon="11.473258029528555"><ele>264.0</ele><time>2026-04-11T12:28:30.999Z</time></trkpt><trkpt lat="45.44026457598798" lon="11.47314184007978"><ele>266.6666666666667</ele><time>2026-04-11T12:28:31.999Z</time></trkpt><trkpt lat="45.44012058426587" lon="11.473029111927142"><ele>269.33333333333337</ele><time>2026-04-11T12:28:32.999Z</time></trkpt><trkpt lat="45.439976421986096" lon="11.472916934093815"><ele>272.0</ele><time>2026-04-11T12:28:33.999Z</time></trkpt><trkpt lat="45.43984814545482" lon="11.472784541253988"><ele>272.0</ele><time>2026-04-11T12:28:34.999Z</time></trkpt><trkpt lat="45.43971517336586" lon="11.472653444602289"><ele>272.0</ele><time>2026-04-11T12:28:35.999Z</time></trkpt><trkpt lat="45.43957805451118" lon="11.472515221522482"><ele>272.0</ele><time>2026-04-11T12:28:36.999Z</time></trkpt><trkpt lat="45.43943726543705" lon="11.47237040814067"><ele>270.6666666666667</ele><time>2026-04-11T12:28:37.999Z</time></trkpt><trkpt lat="45.439278974894954" lon="11.472234885258079"><ele>269.3333333333333</ele><time>2026-04-11T12:28:38.999Z</time></trkpt><trkpt lat="45.43911499712703" lon="11.472069469895652"><ele>268.0</ele><time>2026-04-11T12:28:39.999Z</time></trkpt><trkpt lat="45.438954271783594" lon="11.471914420769696"><ele>260.0</ele><time>2026-04-11T12:28:40.999Z</time></trkpt><trkpt lat="45.43878599151108" lon="11.471748950895956"><ele>252.0</ele><time>2026-04-11T12:28:41.999Z</time></trkpt><trkpt lat="45.438623693716515" lon="11.471597462782855"><ele>244.0</ele><time>2026-04-11T12:28:42.999Z</time></trkpt><trkpt lat="45.43848119781568" lon="11.471460012844304"><ele>244.0</ele><time>2026-04-11T12:28:43.999Z</time></trkpt><trkpt lat="45.43834601500042" lon="11.471329219780616"><ele>244.0</ele><time>2026-04-11T12:28:44.999Z</time></trkpt><trkpt lat="45.43820903209621" lon="11.47121057753796"><ele>244.0</ele><time>2026-04-11T12:28:45.999Z</time></trkpt><trkpt lat="45.43806375956958" lon="11.471123282153787"><ele>242.75</ele><time>2026-04-11T12:28:46.999Z</time></trkpt><trkpt lat="45.437906617009574" lon="11.471061440619547"><ele>241.5</ele><time>2026-04-11T12:28:47.999Z</time></trkpt><trkpt lat="45.43777532444152" lon="11.470979487125769"><ele>240.25</ele><time>2026-04-11T12:28:48.999Z</time></trkpt><trkpt lat="45.437653018470975" lon="11.470922479288554"><ele>239.0</ele><time>2026-04-11T12:28:49.999Z</time></trkpt><trkpt lat="45.43755748893232" lon="11.470875550282395"><ele>239.0</ele><time>2026-04-11T12:28:50.999Z</time></trkpt><trkpt lat="45.43748369770348" lon="11.470835256355016"><ele>238.99999999999997</ele><time>2026-04-11T12:28:51.999Z</time></trkpt><trkpt lat="45.437443177769424" lon="11.470732445162568"><ele>238.99999999999997</ele><time>2026-04-11T12:28:52.999Z</time></trkpt><trkpt lat="45.437449200033484" lon="11.470596820771364"><ele>239.0</ele><time>2026-04-11T12:28:53.999Z</time></trkpt><trkpt lat="45.437525590402785" lon="11.470465071557875"><ele>239.0</ele><time>2026-04-11T12:28:54.999Z</time></trkpt><trkpt lat="45.43759346000287" lon="11.47029901377043"><ele>238.75</ele><time>2026-04-11T12:28:55.999Z</time></trkpt><trkpt lat="45.437652280997405" lon="11.470133757441623"><ele>238.5</ele><time>2026-04-11T12:28:56.999Z</time></trkpt><trkpt lat="45.43764360344737" lon="11.469933947244288"><ele>238.25</ele><time>2026-04-11T12:28:57.999Z</time></trkpt><trkpt lat="45.43758851194459" lon="11.469701127157322"><ele>238.0</ele><time>2026-04-11T12:28:58.999Z</time></trkpt><trkpt lat="45.43752120316066" lon="11.469466069436645"><ele>236.75</ele><time>2026-04-11T12:28:59.999Z</time></trkpt><trkpt lat="45.437496475493305" lon="11.469240897324942"><ele>235.5</ele><time>2026-04-11T12:29:00.999Z</time></trkpt><trkpt lat="45.43747669434987" lon="11.469043329185446"><ele>234.25</ele><time>2026-04-11T12:29:01.999Z</time></trkpt><trkpt lat="45.43747528822618" lon="11.468865892447422"><ele>233.0</ele><time>2026-04-11T12:29:02.999Z</time></trkpt><trkpt lat="45.43753977009641" lon="11.468698776664331"><ele>230.0</ele><time>2026-04-11T12:29:03.999Z</time></trkpt><trkpt lat="45.43759200097353" lon="11.468511901646506"><ele>227.0</ele><time>2026-04-11T12:29:04.999Z</time></trkpt><trkpt lat="45.43768419142508" lon="11.468340657465442"><ele>224.0</ele><time>2026-04-11T12:29:05.999Z</time></trkpt><trkpt lat="45.437790173680966" lon="11.468191107669782"><ele>221.0</ele><time>2026-04-11T12:29:06.999Z</time></trkpt><trkpt lat="45.437930426559575" lon="11.468053572672613"><ele>219.66666666666669</ele><time>2026-04-11T12:29:07.999Z</time></trkpt><trkpt lat="45.43808308346932" lon="11.467916326477425"><ele>218.33333333333331</ele><time>2026-04-11T12:29:08.999Z</time></trkpt><trkpt lat="45.43823085251812" lon="11.467775498125162"><ele>217.0</ele><time>2026-04-11T12:29:09.999Z</time></trkpt><trkpt lat="45.4383661545304" lon="11.467643151683507"><ele>217.0</ele><time>2026-04-11T12:29:10.999Z</time></trkpt><trkpt lat="45.43848625999938" lon="11.467530683362845"><ele>217.0</ele><time>2026-04-11T12:29:11.999Z</time></trkpt><trkpt lat="45.438590737842716" lon="11.467443388041735"><ele>217.0</ele><time>2026-04-11T12:29:12.999Z</time></trkpt><trkpt lat="45.43868058530016" lon="11.467366527396548"><ele>217.0</ele><time>2026-04-11T12:29:13.999Z</time></trkpt><trkpt lat="45.43873039385305" lon="11.467232823349608"><ele>219.75</ele><time>2026-04-11T12:29:14.999Z</time></trkpt><trkpt lat="45.43873257866981" lon="11.46705157131774"><ele>222.5</ele><time>2026-04-11T12:29:15.999Z</time></trkpt><trkpt lat="45.4387267952103" lon="11.466842093373536"><ele>225.25</ele><time>2026-04-11T12:29:16.999Z</time></trkpt><trkpt lat="45.43879033575126" lon="11.466649364116101"><ele>228.0</ele><time>2026-04-11T12:29:17.999Z</time></trkpt><trkpt lat="45.43886729928807" lon="11.46644021527263"><ele>223.66666666666669</ele><time>2026-04-11T12:29:18.999Z</time></trkpt><trkpt lat="45.43894062786948" lon="11.466199947353584"><ele>219.33333333333334</ele><time>2026-04-11T12:29:19.999Z</time></trkpt><trkpt lat="45.43900778953026" lon="11.465996769534362"><ele>215.0</ele><time>2026-04-11T12:29:20.998Z</time></trkpt><trkpt lat="45.439062612522875" lon="11.465801878463006"><ele>215.0</ele><time>2026-04-11T12:29:21.998Z</time></trkpt><trkpt lat="45.439104508086764" lon="11.465639644386226"><ele>215.0</ele><time>2026-04-11T12:29:22.998Z</time></trkpt><trkpt lat="45.43912775303681" lon="11.465510994302129"><ele>215.0</ele><time>2026-04-11T12:29:23.998Z</time></trkpt><trkpt lat="45.43912255439947" lon="11.46536710831979"><ele>215.0</ele><time>2026-04-11T12:29:24.998Z</time></trkpt><trkpt lat="45.43908301470957" lon="11.465236012216865"><ele>215.0</ele><time>2026-04-11T12:29:25.998Z</time></trkpt><trkpt lat="45.43900455575196" lon="11.465122002948114"><ele>213.0</ele><time>2026-04-11T12:29:26.998Z</time></trkpt><trkpt lat="45.43889033515603" lon="11.465058803306478"><ele>211.0</ele><time>2026-04-11T12:29:27.998Z</time></trkpt><trkpt lat="45.43875891732989" lon="11.465030476217175"><ele>209.0</ele><time>2026-04-11T12:29:28.998Z</time></trkpt><trkpt lat="45.43862649720539" lon="11.465013310727432"><ele>207.0</ele><time>2026-04-11T12:29:29.998Z</time></trkpt><trkpt lat="45.4385254303464" lon="11.46494408513223"><ele>206.2</ele><time>2026-04-11T12:29:30.998Z</time></trkpt><trkpt lat="45.43845386385931" lon="11.464850871781767"><ele>205.39999999999998</ele><time>2026-04-11T12:29:31.998Z</time></trkpt><trkpt lat="45.438397369841354" lon="11.464716840602053"><ele>204.60000000000002</ele><time>2026-04-11T12:29:32.998Z</time></trkpt><trkpt lat="45.438341409242625" lon="11.464580111144858"><ele>203.8</ele><time>2026-04-11T12:29:33.998Z</time></trkpt><trkpt lat="45.43828528276949" lon="11.464448418900314"><ele>203.0</ele><time>2026-04-11T12:29:34.998Z</time></trkpt><trkpt lat="45.438188901657924" lon="11.464335357036886"><ele>201.5</ele><time>2026-04-11T12:29:35.998Z</time></trkpt><trkpt lat="45.43805745342868" lon="11.46426140598941"><ele>200.0</ele><time>2026-04-11T12:29:36.998Z</time></trkpt><trkpt lat="45.43789551565723" lon="11.464240103169955"><ele>198.5</ele><time>2026-04-11T12:29:37.998Z</time></trkpt><trkpt lat="45.43776030392557" lon="11.464213293000514"><ele>197.0</ele><time>2026-04-11T12:29:38.998Z</time></trkpt><trkpt lat="45.43762751503952" lon="11.46416075630254"><ele>194.25</ele><time>2026-04-11T12:29:39.998Z</time></trkpt><trkpt lat="45.43749481842953" lon="11.464122049141977"><ele>191.5</ele><time>2026-04-11T12:29:40.998Z</time></trkpt><trkpt lat="45.43736964950203" lon="11.464112576510585"><ele>188.75</ele><time>2026-04-11T12:29:41.998Z</time></trkpt><trkpt lat="45.43725120996313" lon="11.46413520464023"><ele>186.0</ele><time>2026-04-11T12:29:42.998Z</time></trkpt><trkpt lat="45.43714691041967" lon="11.464207730950536"><ele>182.0</ele><time>2026-04-11T12:29:43.998Z</time></trkpt><trkpt lat="45.43705190045999" lon="11.464323927630568"><ele>178.0</ele><time>2026-04-11T12:29:44.998Z</time></trkpt><trkpt lat="45.436933553669256" lon="11.464435526461546"><ele>174.0</ele><time>2026-04-11T12:29:45.998Z</time></trkpt><trkpt lat="45.43680852733313" lon="11.464482910763234"><ele>170.0</ele><time>2026-04-11T12:29:46.998Z</time></trkpt><trkpt lat="45.43667484664303" lon="11.464514618486017"><ele>170.0</ele><time>2026-04-11T12:29:47.998Z</time></trkpt><trkpt lat="45.43653789897055" lon="11.464559496210367"><ele>170.0</ele><time>2026-04-11T12:29:49Z</time></trkpt><trkpt lat="45.43638872820326" lon="11.46461103792676"><ele>170.0</ele><time>2026-04-11T12:29:50Z</time></trkpt><trkpt lat="45.43624419959669" lon="11.46465758172761"><ele>170.0</ele><time>2026-04-11T12:29:51Z</time></trkpt><trkpt lat="45.43610014034251" lon="11.46469998618157"><ele>167.0</ele><time>2026-04-11T12:29:52Z</time></trkpt><trkpt lat="45.43595743590948" lon="11.46474080140784"><ele>164.0</ele><time>2026-04-11T12:29:53Z</time></trkpt><trkpt lat="45.43582545124632" lon="11.464780722682702"><ele>161.0</ele><time>2026-04-11T12:29:54Z</time></trkpt><trkpt lat="45.435691596666274" lon="11.464825948778"><ele>158.0</ele><time>2026-04-11T12:29:55Z</time></trkpt><trkpt lat="45.435563161617125" lon="11.464867977878672"><ele>154.75</ele><time>2026-04-11T12:29:56Z</time></trkpt><trkpt lat="45.435449045803" lon="11.464897704238888"><ele>151.5</ele><time>2026-04-11T12:29:57Z</time></trkpt><trkpt lat="45.435331449446" lon="11.464900046965544"><ele>148.25</ele><time>2026-04-11T12:29:58Z</time></trkpt><trkpt lat="45.43520841692392" lon="11.464852113841687"><ele>145.0</ele><time>2026-04-11T12:29:59Z</time></trkpt><trkpt lat="45.435070475401204" lon="11.464754411020083"><ele>145.0</ele><time>2026-04-11T12:30:00Z</time></trkpt><trkpt lat="45.43492969526764" lon="11.464649161030653"><ele>145.0</ele><time>2026-04-11T12:30:01Z</time></trkpt><trkpt lat="45.4347736484258" lon="11.464547655725593"><ele>145.0</ele><time>2026-04-11T12:30:02Z</time></trkpt><trkpt lat="45.4346068729519" lon="11.464471363751523"><ele>145.6</ele><time>2026-04-11T12:30:03Z</time></trkpt><trkpt lat="45.43445107471991" lon="11.464404659929361"><ele>146.2</ele><time>2026-04-11T12:30:04Z</time></trkpt><trkpt lat="45.43437891040279" lon="11.46441353053461"><ele>146.8</ele><time>2026-04-11T12:30:05Z</time></trkpt><trkpt lat="45.43429306727743" lon="11.464422919668456"><ele>147.4</ele><time>2026-04-11T12:30:06Z</time></trkpt><trkpt lat="45.4342276563027" lon="11.46445694301891"><ele>148.0</ele><time>2026-04-11T12:30:07Z</time></trkpt><trkpt lat="45.43415013750983" lon="11.464496823360227"><ele>148.0</ele><time>2026-04-11T12:30:09Z</time></trkpt><trkpt lat="45.43405406156612" lon="11.464494776554726"><ele>148.0</ele><time>2026-04-11T12:30:19Z</time></trkpt><trkpt lat="45.433976503694026" lon="11.46454793671838"><ele>148.0</ele><time>2026-04-11T12:30:20Z</time></trkpt><trkpt lat="45.433886611578856" lon="11.464613153346601"><ele>148.0</ele><time>2026-04-11T12:30:21Z</time></trkpt><trkpt lat="45.43378072555838" lon="11.464670097984104"><ele>148.0</ele><time>2026-04-11T12:30:22Z</time></trkpt><trkpt lat="45.43366477198427" lon="11.464741735975053"><ele>145.25</ele><time>2026-04-11T12:30:23Z</time></trkpt><trkpt lat="45.433539622015104" lon="11.464821081505056"><ele>142.5</ele><time>2026-04-11T12:30:24Z</time></trkpt><trkpt lat="45.43340160632224" lon="11.464911558269465"><ele>139.75</ele><time>2026-04-11T12:30:25Z</time></trkpt><trkpt lat="45.433273554509455" lon="11.464995074428002"><ele>137.0</ele><time>2026-04-11T12:30:26Z</time></trkpt><trkpt lat="45.43313723011974" lon="11.465084814005316"><ele>137.0</ele><time>2026-04-11T12:30:27Z</time></trkpt><trkpt lat="45.43300672366221" lon="11.465181813168119"><ele>137.0</ele><time>2026-04-11T12:30:28Z</time></trkpt><trkpt lat="45.43288471326707" lon="11.465298464777353"><ele>137.0</ele><time>2026-04-11T12:30:29Z</time></trkpt><trkpt lat="45.43277961836961" lon="11.465420068425065"><ele>137.0</ele><time>2026-04-11T12:30:30Z</time></trkpt><trkpt lat="45.43268480170222" lon="11.465547034732225"><ele>134.79999999999998</ele><time>2026-04-11T12:30:30.999Z</time></trkpt><trkpt lat="45.432589217039684" lon="11.465665301699145"><ele>132.6</ele><time>2026-04-11T12:30:31.999Z</time></trkpt><trkpt lat="45.4324919910864" lon="11.465768044723081"><ele>130.39999999999998</ele><time>2026-04-11T12:30:32.999Z</time></trkpt><trkpt lat="45.432410045216365" lon="11.465857634043825"><ele>128.2</ele><time>2026-04-11T12:30:33.999Z</time></trkpt><trkpt lat="45.432346584804506" lon="11.465953774239933"><ele>126.0</ele><time>2026-04-11T12:30:34.999Z</time></trkpt><trkpt lat="45.43231991794495" lon="11.466076895803912"><ele>126.0</ele><time>2026-04-11T12:30:35.999Z</time></trkpt><trkpt lat="45.43234833043777" lon="11.466188070734816"><ele>126.0</ele><time>2026-04-11T12:30:36.999Z</time></trkpt><trkpt lat="45.43241658228886" lon="11.466264290549026"><ele>126.0</ele><time>2026-04-11T12:30:37.999Z</time></trkpt><trkpt lat="45.43251318110555" lon="11.466254308975575"><ele>126.0</ele><time>2026-04-11T12:30:38.999Z</time></trkpt><trkpt lat="45.432614936321926" lon="11.466197303702387"><ele>126.0</ele><time>2026-04-11T12:30:39.999Z</time></trkpt><trkpt lat="45.43273344892083" lon="11.466069077252113"><ele>126.0</ele><time>2026-04-11T12:30:40.999Z</time></trkpt><trkpt lat="45.43284842655989" lon="11.465953235682498"><ele>126.0</ele><time>2026-04-11T12:30:41.999Z</time></trkpt><trkpt lat="45.43303006177954" lon="11.465809050227051"><ele>126.0</ele><time>2026-04-11T12:30:42.999Z</time></trkpt><trkpt lat="45.433190040365105" lon="11.465765436567121"><ele>123.0</ele><time>2026-04-11T12:30:43.999Z</time></trkpt><trkpt lat="45.43335373439205" lon="11.465786395052772"><ele>120.0</ele><time>2026-04-11T12:30:44.999Z</time></trkpt><trkpt lat="45.43351080602261" lon="11.465852787651285"><ele>117.0</ele><time>2026-04-11T12:30:45.999Z</time></trkpt><trkpt lat="45.43367472166532" lon="11.465877843605316"><ele>117.0</ele><time>2026-04-11T12:30:46.999Z</time></trkpt><trkpt lat="45.43382686375819" lon="11.465875194356032"><ele>117.0</ele><time>2026-04-11T12:30:47.999Z</time></trkpt><trkpt lat="45.433964442745875" lon="11.465887063913053"><ele>117.0</ele><time>2026-04-11T12:30:48.999Z</time></trkpt><trkpt lat="45.43409741555319" lon="11.465910158196857"><ele>117.0</ele><time>2026-04-11T12:30:49.999Z</time></trkpt><trkpt lat="45.4342073878432" lon="11.465932992021566"><ele>117.0</ele><time>2026-04-11T12:30:50.999Z</time></trkpt><trkpt lat="45.43429954569268" lon="11.46595580222985"><ele>116.99999999999999</ele><time>2026-04-11T12:30:51.999Z</time></trkpt><trkpt lat="45.43433318884248" lon="11.466109725210993"><ele>116.99999999999999</ele><time>2026-04-11T12:30:53.999Z</time></trkpt><trkpt lat="45.434264607531375" lon="11.46619546379714"><ele>117.0</ele><time>2026-04-11T12:30:54.999Z</time></trkpt><trkpt lat="45.434164005793804" lon="11.466215027519533"><ele>117.0</ele><time>2026-04-11T12:30:55.999Z</time></trkpt><trkpt lat="45.434056304432964" lon="11.466240725898635"><ele>114.0</ele><time>2026-04-11T12:30:56.999Z</time></trkpt><trkpt lat="45.43394729269794" lon="11.466296145108819"><ele>111.0</ele><time>2026-04-11T12:30:57.999Z</time></trkpt><trkpt lat="45.4338078933326" lon="11.466350936545924"><ele>108.0</ele><time>2026-04-11T12:30:58.999Z</time></trkpt><trkpt lat="45.43364492427418" lon="11.466416889437422"><ele>105.0</ele><time>2026-04-11T12:30:59.999Z</time></trkpt><trkpt lat="45.43348094861999" lon="11.466483072541848"><ele>104.0</ele><time>2026-04-11T12:31:00.999Z</time></trkpt><trkpt lat="45.43333207614373" lon="11.466540297616667"><ele>103.0</ele><time>2026-04-11T12:31:01.999Z</time></trkpt><trkpt lat="45.4331943820586" lon="11.46659376634545"><ele>102.0</ele><time>2026-04-11T12:31:02.999Z</time></trkpt><trkpt lat="45.43307702243944" lon="11.466661804854045"><ele>101.0</ele><time>2026-04-11T12:31:03.999Z</time></trkpt><trkpt lat="45.432981283608974" lon="11.46677408017276"><ele>100.25</ele><time>2026-04-11T12:31:04.999Z</time></trkpt><trkpt lat="45.43290752203393" lon="11.466933503283737"><ele>99.5</ele><time>2026-04-11T12:31:05.999Z</time></trkpt><trkpt lat="45.432854100931664" lon="11.467134921093132"><ele>98.75</ele><time>2026-04-11T12:31:06.999Z</time></trkpt><trkpt lat="45.43277015933511" lon="11.467325234131838"><ele>98.0</ele><time>2026-04-11T12:31:07.999Z</time></trkpt><trkpt lat="45.432629520067785" lon="11.467449947510147"><ele>98.0</ele><time>2026-04-11T12:31:08.999Z</time></trkpt><trkpt lat="45.43246680455391" lon="11.467523446488064"><ele>98.0</ele><time>2026-04-11T12:31:09.999Z</time></trkpt><trkpt lat="45.43228593150522" lon="11.467609982602774"><ele>98.0</ele><time>2026-04-11T12:31:10.999Z</time></trkpt><trkpt lat="45.432103570563264" lon="11.467723297596295"><ele>97.33333333333333</ele><time>2026-04-11T12:31:11.999Z</time></trkpt><trkpt lat="45.431905454135986" lon="11.46780423442654"><ele>96.66666666666666</ele><time>2026-04-11T12:31:12.999Z</time></trkpt><trkpt lat="45.43172529269617" lon="11.46789370241628"><ele>96.0</ele><time>2026-04-11T12:31:13.999Z</time></trkpt><trkpt lat="45.43154737822074" lon="11.46798219675884"><ele>92.0</ele><time>2026-04-11T12:31:14.999Z</time></trkpt><trkpt lat="45.43137482611699" lon="11.46806567674768"><ele>88.0</ele><time>2026-04-11T12:31:15.999Z</time></trkpt><trkpt lat="45.43120658752257" lon="11.468157679438345"><ele>84.0</ele><time>2026-04-11T12:31:16.999Z</time></trkpt><trkpt lat="45.43104109698297" lon="11.468265234771474"><ele>84.0</ele><time>2026-04-11T12:31:17.999Z</time></trkpt><trkpt lat="45.4308852636401" lon="11.468399890599203"><ele>84.0</ele><time>2026-04-11T12:31:18.999Z</time></trkpt><trkpt lat="45.430743370060526" lon="11.468557997724814"><ele>84.0</ele><time>2026-04-11T12:31:19.999Z</time></trkpt><trkpt lat="45.43059265749222" lon="11.468700323963722"><ele>79.33333333333333</ele><time>2026-04-11T12:31:20.999Z</time></trkpt><trkpt lat="45.43041880309651" lon="11.468770871235343"><ele>74.66666666666666</ele><time>2026-04-11T12:31:21.999Z</time></trkpt><trkpt lat="45.430244823319576" lon="11.468835215567692"><ele>70.0</ele><time>2026-04-11T12:31:22.999Z</time></trkpt><trkpt lat="45.43008690977481" lon="11.468933686493488"><ele>70.0</ele><time>2026-04-11T12:31:23.999Z</time></trkpt><trkpt lat="45.429948408254944" lon="11.469061781525287"><ele>70.0</ele><time>2026-04-11T12:31:24.998Z</time></trkpt><trkpt lat="45.42983108205685" lon="11.469248482447046"><ele>70.0</ele><time>2026-04-11T12:31:25.998Z</time></trkpt><trkpt lat="45.42971336382942" lon="11.469429777789655"><ele>66.66666666666666</ele><time>2026-04-11T12:31:26.998Z</time></trkpt><trkpt lat="45.429548235539215" lon="11.469520664018434"><ele>63.33333333333333</ele><time>2026-04-11T12:31:27.998Z</time></trkpt><trkpt lat="45.4293843304297" lon="11.469622036428706"><ele>60.0</ele><time>2026-04-11T12:31:28.998Z</time></trkpt><trkpt lat="45.42922464850198" lon="11.469730662556454"><ele>60.0</ele><time>2026-04-11T12:31:29.998Z</time></trkpt><trkpt lat="45.42906567669584" lon="11.469828663239069"><ele>60.0</ele><time>2026-04-11T12:31:30.998Z</time></trkpt><trkpt lat="45.42889846946901" lon="11.469942177961457"><ele>60.0</ele><time>2026-04-11T12:31:31.998Z</time></trkpt><trkpt lat="45.428719217573395" lon="11.470024415204211"><ele>65.0</ele><time>2026-04-11T12:31:32.998Z</time></trkpt><trkpt lat="45.42855721303372" lon="11.470140193820487"><ele>70.0</ele><time>2026-04-11T12:31:33.998Z</time></trkpt><trkpt lat="45.42838831041577" lon="11.470231673824403"><ele>75.0</ele><time>2026-04-11T12:31:34.998Z</time></trkpt><trkpt lat="45.42823053580479" lon="11.470327337447854"><ele>75.0</ele><time>2026-04-11T12:31:35.998Z</time></trkpt><trkpt lat="45.42808169424229" lon="11.470427065663914"><ele>75.0</ele><time>2026-04-11T12:31:36.998Z</time></trkpt><trkpt lat="45.42794662094892" lon="11.470553262535116"><ele>75.0</ele><time>2026-04-11T12:31:37.998Z</time></trkpt><trkpt lat="45.427838502655895" lon="11.470710748637487"><ele>68.66666666666667</ele><time>2026-04-11T12:31:38.998Z</time></trkpt><trkpt lat="45.42774999645538" lon="11.470887839356122"><ele>62.333333333333336</ele><time>2026-04-11T12:31:39.998Z</time></trkpt><trkpt lat="45.42768600699434" lon="11.471095461542367"><ele>56.0</ele><time>2026-04-11T12:31:40.998Z</time></trkpt><trkpt lat="45.427638416497075" lon="11.471312755661629"><ele>53.66666666666667</ele><time>2026-04-11T12:31:41.998Z</time></trkpt><trkpt lat="45.427598737616776" lon="11.471539155879439"><ele>51.33333333333333</ele><time>2026-04-11T12:31:42.998Z</time></trkpt><trkpt lat="45.42754865323135" lon="11.47175248754155"><ele>49.0</ele><time>2026-04-11T12:31:43.998Z</time></trkpt><trkpt lat="45.42749490185149" lon="11.471963266211999"><ele>49.5</ele><time>2026-04-11T12:31:44.998Z</time></trkpt><trkpt lat="45.42743439788358" lon="11.472163448836037"><ele>50.0</ele><time>2026-04-11T12:31:45.998Z</time></trkpt><trkpt lat="45.4273392700002" lon="11.472320815999835"><ele>50.5</ele><time>2026-04-11T12:31:46.998Z</time></trkpt><trkpt lat="45.42723021270278" lon="11.47246633680733"><ele>51.0</ele><time>2026-04-11T12:31:47.998Z</time></trkpt><trkpt lat="45.42710849526353" lon="11.472624513691665"><ele>51.0</ele><time>2026-04-11T12:31:48.998Z</time></trkpt><trkpt lat="45.426964811496674" lon="11.472767432584405"><ele>51.0</ele><time>2026-04-11T12:31:49.998Z</time></trkpt><trkpt lat="45.426810923710335" lon="11.472917285655997"><ele>51.0</ele><time>2026-04-11T12:31:50.998Z</time></trkpt><trkpt lat="45.426664136664584" lon="11.473059361848842"><ele>50.0</ele><time>2026-04-11T12:31:51.998Z</time></trkpt><trkpt lat="45.42650542178848" lon="11.473203029017242"><ele>49.0</ele><time>2026-04-11T12:31:52.998Z</time></trkpt><trkpt lat="45.426344020959974" lon="11.473360353433288"><ele>48.0</ele><time>2026-04-11T12:31:53.998Z</time></trkpt><trkpt lat="45.42618781903193" lon="11.473507496757815"><ele>48.0</ele><time>2026-04-11T12:31:55Z</time></trkpt><trkpt lat="45.426006727093394" lon="11.473664767391947"><ele>48.0</ele><time>2026-04-11T12:31:56Z</time></trkpt><trkpt lat="45.42589927118643" lon="11.473780357619459"><ele>48.0</ele><time>2026-04-11T12:31:57Z</time></trkpt><trkpt lat="45.42575644173413" lon="11.4738378309174"><ele>45.666666666666664</ele><time>2026-04-11T12:31:58Z</time></trkpt><trkpt lat="45.425615290218566" lon="11.473889437310211"><ele>43.33333333333333</ele><time>2026-04-11T12:31:59Z</time></trkpt><trkpt lat="45.42541467204828" lon="11.473919616210685"><ele>41.0</ele><time>2026-04-11T12:32:00Z</time></trkpt><trkpt lat="45.42527797210599" lon="11.473907261519859"><ele>41.0</ele><time>2026-04-11T12:32:01Z</time></trkpt><trkpt lat="45.425139404878024" lon="11.473956072583428"><ele>41.0</ele><time>2026-04-11T12:32:02Z</time></trkpt><trkpt lat="45.4250227733725" lon="11.473902083543482"><ele>41.0</ele><time>2026-04-11T12:32:03Z</time></trkpt><trkpt lat="45.424932603852916" lon="11.473835790061942"><ele>41.0</ele><time>2026-04-11T12:32:04Z</time></trkpt><trkpt lat="45.42486609407701" lon="11.473776572638346"><ele>41.0</ele><time>2026-04-11T12:32:05Z</time></trkpt><trkpt lat="45.424798773953114" lon="11.473670581269358"><ele>41.0</ele><time>2026-04-11T12:32:07Z</time></trkpt><trkpt lat="45.424752808559035" lon="11.473891216661475"><ele>41.0</ele><time>2026-04-11T12:32:08Z</time></trkpt><trkpt lat="45.424727240401126" lon="11.474005307901106"><ele>41.0</ele><time>2026-04-11T12:32:09Z</time></trkpt><trkpt lat="45.42473292081755" lon="11.474172839691601"><ele>41.0</ele><time>2026-04-11T12:32:10Z</time></trkpt><trkpt lat="45.4247329445616" lon="11.474369532553713"><ele>41.0</ele><time>2026-04-11T12:32:11Z</time></trkpt><trkpt lat="45.424726345094896" lon="11.474587404856903"><ele>41.0</ele><time>2026-04-11T12:32:12Z</time></trkpt><trkpt lat="45.42472059600336" lon="11.474815728189881"><ele>41.0</ele><time>2026-04-11T12:32:13Z</time></trkpt><trkpt lat="45.42470100378696" lon="11.475021027524544"><ele>41.0</ele><time>2026-04-11T12:32:14Z</time></trkpt><trkpt lat="45.42465100132333" lon="11.475191765094861"><ele>41.0</ele><time>2026-04-11T12:32:15Z</time></trkpt><trkpt lat="45.424606262443454" lon="11.475336180167538"><ele>41.0</ele><time>2026-04-11T12:32:16Z</time></trkpt><trkpt lat="45.42456399938563" lon="11.475468023798928"><ele>41.0</ele><time>2026-04-11T12:32:17Z</time></trkpt><trkpt lat="45.42466363559377" lon="11.475685841890328"><ele>41.0</ele><time>2026-04-11T12:32:18Z</time></trkpt><trkpt lat="45.424708565130956" lon="11.475877794719965"><ele>41.0</ele><time>2026-04-11T12:32:19Z</time></trkpt><trkpt lat="45.424737590017536" lon="11.476114009528036"><ele>41.0</ele><time>2026-04-11T12:32:20Z</time></trkpt><trkpt lat="45.42479468824553" lon="11.47637243160061"><ele>41.5</ele><time>2026-04-11T12:32:21Z</time></trkpt><trkpt lat="45.42492410016526" lon="11.476598144173632"><ele>42.0</ele><time>2026-04-11T12:32:22Z</time></trkpt><trkpt lat="45.42511364603139" lon="11.476835647471727"><ele>42.0</ele><time>2026-04-11T12:32:23Z</time></trkpt><trkpt lat="45.4253086072399" lon="11.47702253080247"><ele>42.0</ele><time>2026-04-11T12:32:24Z</time></trkpt><trkpt lat="45.42549484971124" lon="11.477196878687858"><ele>44.0</ele><time>2026-04-11T12:32:25Z</time></trkpt><trkpt lat="45.42564258443306" lon="11.477358597875542"><ele>46.0</ele><time>2026-04-11T12:32:26Z</time></trkpt><trkpt lat="45.425780449118875" lon="11.47751289406382"><ele>48.0</ele><time>2026-04-11T12:32:27Z</time></trkpt><trkpt lat="45.42591648361562" lon="11.477614232414098"><ele>48.0</ele><time>2026-04-11T12:32:28Z</time></trkpt><trkpt lat="45.42608105975862" lon="11.477656364301318"><ele>48.0</ele><time>2026-04-11T12:32:29Z</time></trkpt><trkpt lat="45.42624946470503" lon="11.477655584966298"><ele>48.0</ele><time>2026-04-11T12:32:30Z</time></trkpt><trkpt lat="45.426390315324575" lon="11.477639112416423"><ele>49.599999999999994</ele><time>2026-04-11T12:32:31Z</time></trkpt><trkpt lat="45.42649788751658" lon="11.477626118895884"><ele>51.199999999999996</ele><time>2026-04-11T12:32:32Z</time></trkpt><trkpt lat="45.426573106024755" lon="11.47763665014988"><ele>52.8</ele><time>2026-04-11T12:32:33Z</time></trkpt><trkpt lat="45.426628713455685" lon="11.477691226807883"><ele>54.4</ele><time>2026-04-11T12:32:35Z</time></trkpt><trkpt lat="45.426535982136045" lon="11.477817350907198"><ele>56.0</ele><time>2026-04-11T12:32:37Z</time></trkpt><trkpt lat="45.42643631203043" lon="11.477791689451534"><ele>56.0</ele><time>2026-04-11T12:32:37.999Z</time></trkpt><trkpt lat="45.42632217998854" lon="11.477840578726909"><ele>56.0</ele><time>2026-04-11T12:32:38.999Z</time></trkpt><trkpt lat="45.42620446963852" lon="11.477896866538815"><ele>56.0</ele><time>2026-04-11T12:32:39.999Z</time></trkpt><trkpt lat="45.42609515390719" lon="11.477994608161252"><ele>56.0</ele><time>2026-04-11T12:32:40.999Z</time></trkpt><trkpt lat="45.42600864287222" lon="11.478110100475352"><ele>57.25</ele><time>2026-04-11T12:32:41.999Z</time></trkpt><trkpt lat="45.42595107590932" lon="11.478245030762501"><ele>58.5</ele><time>2026-04-11T12:32:42.999Z</time></trkpt><trkpt lat="45.4259441585879" lon="11.478421759568354"><ele>59.75</ele><time>2026-04-11T12:32:43.999Z</time></trkpt><trkpt lat="45.42597155419357" lon="11.478606389318607"><ele>61.0</ele><time>2026-04-11T12:32:44.999Z</time></trkpt><trkpt lat="45.42601017472244" lon="11.478817423837299"><ele>63.666666666666664</ele><time>2026-04-11T12:32:45.999Z</time></trkpt><trkpt lat="45.4260482285323" lon="11.47906837549683"><ele>66.33333333333333</ele><time>2026-04-11T12:32:46.999Z</time></trkpt><trkpt lat="45.42608825228416" lon="11.479343344808166"><ele>69.0</ele><time>2026-04-11T12:32:47.999Z</time></trkpt><trkpt lat="45.42609103608448" lon="11.479582721915722"><ele>72.0</ele><time>2026-04-11T12:32:48.999Z</time></trkpt><trkpt lat="45.42609154702805" lon="11.479793334529003"><ele>75.0</ele><time>2026-04-11T12:32:49.999Z</time></trkpt><trkpt lat="45.42608927496435" lon="11.479971415241984"><ele>78.0</ele><time>2026-04-11T12:32:50.999Z</time></trkpt><trkpt lat="45.42609642903567" lon="11.480131171264873"><ele>81.0</ele><time>2026-04-11T12:32:51.999Z</time></trkpt><trkpt lat="45.42608454323473" lon="11.480268633451313"><ele>81.0</ele><time>2026-04-11T12:32:52.999Z</time></trkpt><trkpt lat="45.42605755267117" lon="11.480370853926198"><ele>81.0</ele><time>2026-04-11T12:32:53.999Z</time></trkpt><trkpt lat="45.42598172555474" lon="11.48043959669037"><ele>81.0</ele><time>2026-04-11T12:32:54.999Z</time></trkpt><trkpt lat="45.42588781212586" lon="11.48049500411306"><ele>81.0</ele><time>2026-04-11T12:32:55.999Z</time></trkpt><trkpt lat="45.42578081143577" lon="11.48055910086388"><ele>81.0</ele><time>2026-04-11T12:32:56.999Z</time></trkpt><trkpt lat="45.425670347202676" lon="11.480644109514735"><ele>83.5</ele><time>2026-04-11T12:32:57.999Z</time></trkpt><trkpt lat="45.42555372979779" lon="11.48071577506269"><ele>86.0</ele><time>2026-04-11T12:32:58.999Z</time></trkpt><trkpt lat="45.42542831664997" lon="11.480802655548645"><ele>88.5</ele><time>2026-04-11T12:32:59.999Z</time></trkpt><trkpt lat="45.42529478324068" lon="11.48088416281833"><ele>91.0</ele><time>2026-04-11T12:33:00.999Z</time></trkpt><trkpt lat="45.42517447999897" lon="11.480957470344595"><ele>91.0</ele><time>2026-04-11T12:33:01.999Z</time></trkpt><trkpt lat="45.42506177844437" lon="11.48103251681763"><ele>91.0</ele><time>2026-04-11T12:33:02.999Z</time></trkpt><trkpt lat="45.424944622064274" lon="11.481121253883408"><ele>91.0</ele><time>2026-04-11T12:33:03.999Z</time></trkpt><trkpt lat="45.424837713776725" lon="11.481245514012718"><ele>91.0</ele><time>2026-04-11T12:33:04.999Z</time></trkpt><trkpt lat="45.424730775723496" lon="11.481372559804843"><ele>95.0</ele><time>2026-04-11T12:33:05.999Z</time></trkpt><trkpt lat="45.424639457225005" lon="11.481503968561578"><ele>99.0</ele><time>2026-04-11T12:33:06.999Z</time></trkpt><trkpt lat="45.424543984870986" lon="11.481588827931663"><ele>103.0</ele><time>2026-04-11T12:33:07.999Z</time></trkpt><trkpt lat="45.42445575597762" lon="11.481649320726756"><ele>107.0</ele><time>2026-04-11T12:33:08.999Z</time></trkpt><trkpt lat="45.42434866608142" lon="11.481695268550341"><ele>107.0</ele><time>2026-04-11T12:33:09.999Z</time></trkpt><trkpt lat="45.42422551394944" lon="11.48163104119332"><ele>107.0</ele><time>2026-04-11T12:33:10.999Z</time></trkpt><trkpt lat="45.42408763520958" lon="11.481619848142332"><ele>107.0</ele><time>2026-04-11T12:33:11.999Z</time></trkpt><trkpt lat="45.42397746374717" lon="11.481571719375225"><ele>107.0</ele><time>2026-04-11T12:33:12.999Z</time></trkpt><trkpt lat="45.423889405395336" lon="11.48156269364797"><ele>107.0</ele><time>2026-04-11T12:33:13.999Z</time></trkpt><trkpt lat="45.423815793356134" lon="11.481590875544834"><ele>107.0</ele><time>2026-04-11T12:33:14.999Z</time></trkpt><trkpt lat="45.42375273541238" lon="11.4816811368409"><ele>107.0</ele><time>2026-04-11T12:33:15.999Z</time></trkpt><trkpt lat="45.42362975610462" lon="11.481756436651793"><ele>107.0</ele><time>2026-04-11T12:33:16.999Z</time></trkpt><trkpt lat="45.42369789402155" lon="11.482033282211194"><ele>106.66666666666666</ele><time>2026-04-11T12:33:17.999Z</time></trkpt><trkpt lat="45.42367104566821" lon="11.482268498528933"><ele>106.33333333333334</ele><time>2026-04-11T12:33:18.999Z</time></trkpt><trkpt lat="45.423619041723775" lon="11.482566534567384"><ele>106.0</ele><time>2026-04-11T12:33:19.999Z</time></trkpt><trkpt lat="45.4235674987341" lon="11.482878976281913"><ele>109.33333333333334</ele><time>2026-04-11T12:33:20.999Z</time></trkpt><trkpt lat="45.423523933316325" lon="11.483169779293902"><ele>112.66666666666666</ele><time>2026-04-11T12:33:21.999Z</time></trkpt><trkpt lat="45.42348529171603" lon="11.483403736010892"><ele>116.0</ele><time>2026-04-11T12:33:22.999Z</time></trkpt><trkpt lat="45.42344967090992" lon="11.483591705841803"><ele>116.0</ele><time>2026-04-11T12:33:23.999Z</time></trkpt><trkpt lat="45.423424559077006" lon="11.483729018710859"><ele>116.0</ele><time>2026-04-11T12:33:24.999Z</time></trkpt><trkpt lat="45.42342119405893" lon="11.483845327994667"><ele>116.0</ele><time>2026-04-11T12:33:25.999Z</time></trkpt><trkpt lat="45.42346872365243" lon="11.483943378304673"><ele>116.0</ele><time>2026-04-11T12:33:26.999Z</time></trkpt><trkpt lat="45.42356430396014" lon="11.483982977559709"><ele>116.0</ele><time>2026-04-11T12:33:27.999Z</time></trkpt><trkpt lat="45.42368117080414" lon="11.483932092241414"><ele>119.33333333333333</ele><time>2026-04-11T12:33:28.999Z</time></trkpt><trkpt lat="45.42379023864766" lon="11.483830595636158"><ele>122.66666666666666</ele><time>2026-04-11T12:33:29.998Z</time></trkpt><trkpt lat="45.42391045834678" lon="11.483715091310772"><ele>126.0</ele><time>2026-04-11T12:33:30.998Z</time></trkpt><trkpt lat="45.424074440853694" lon="11.483580598954692"><ele>130.5</ele><time>2026-04-11T12:33:31.998Z</time></trkpt><trkpt lat="45.42427239217381" lon="11.483420512363328"><ele>135.0</ele><time>2026-04-11T12:33:32.998Z</time></trkpt><trkpt lat="45.42447792255826" lon="11.483262115813883"><ele>137.0</ele><time>2026-04-11T12:33:33.998Z</time></trkpt><trkpt lat="45.424690021955335" lon="11.483098912678537"><ele>139.0</ele><time>2026-04-11T12:33:34.998Z</time></trkpt><trkpt lat="45.42488157724459" lon="11.48292183152565"><ele>139.0</ele><time>2026-04-11T12:33:35.998Z</time></trkpt><trkpt lat="45.42504926766309" lon="11.482724823431651"><ele>139.0</ele><time>2026-04-11T12:33:36.998Z</time></trkpt><trkpt lat="45.425217840085395" lon="11.482556479343227"><ele>139.0</ele><time>2026-04-11T12:33:37.998Z</time></trkpt><trkpt lat="45.42538914139509" lon="11.482398674604882"><ele>139.66666666666669</ele><time>2026-04-11T12:33:38.998Z</time></trkpt><trkpt lat="45.42557407931171" lon="11.482266603265266"><ele>140.33333333333334</ele><time>2026-04-11T12:33:39.998Z</time></trkpt><trkpt lat="45.4257498368744" lon="11.482158940394852"><ele>141.0</ele><time>2026-04-11T12:33:40.998Z</time></trkpt><trkpt lat="45.425891571837404" lon="11.482058488091656"><ele>141.0</ele><time>2026-04-11T12:33:41.998Z</time></trkpt><trkpt lat="45.426037606647924" lon="11.482051933752778"><ele>141.0</ele><time>2026-04-11T12:33:42.998Z</time></trkpt><trkpt lat="45.426196698064274" lon="11.482054110206422"><ele>141.0</ele><time>2026-04-11T12:33:43.998Z</time></trkpt><trkpt lat="45.42636915469801" lon="11.482045319246769"><ele>146.33333333333334</ele><time>2026-04-11T12:33:44.998Z</time></trkpt><trkpt lat="45.4265574115197" lon="11.482026856087444"><ele>151.66666666666669</ele><time>2026-04-11T12:33:45.998Z</time></trkpt><trkpt lat="45.42674581151772" lon="11.481952196878549"><ele>157.0</ele><time>2026-04-11T12:33:46.998Z</time></trkpt><trkpt lat="45.426933886486246" lon="11.481843324370674"><ele>157.0</ele><time>2026-04-11T12:33:47.998Z</time></trkpt><trkpt lat="45.427125126154365" lon="11.481721914789597"><ele>157.0</ele><time>2026-04-11T12:33:48.998Z</time></trkpt><trkpt lat="45.427305639164096" lon="11.481585924314848"><ele>157.0</ele><time>2026-04-11T12:33:49.998Z</time></trkpt><trkpt lat="45.42745406245822" lon="11.481447243449788"><ele>164.0</ele><time>2026-04-11T12:33:50.998Z</time></trkpt><trkpt lat="45.42760339967111" lon="11.481375735309108"><ele>171.0</ele><time>2026-04-11T12:33:51.998Z</time></trkpt><trkpt lat="45.427770122904995" lon="11.481327507644652"><ele>178.0</ele><time>2026-04-11T12:33:52.998Z</time></trkpt><trkpt lat="45.42792226407197" lon="11.481327859996066"><ele>179.66666666666669</ele><time>2026-04-11T12:33:53.998Z</time></trkpt><trkpt lat="45.42807768353927" lon="11.481374974271066"><ele>181.33333333333334</ele><time>2026-04-11T12:33:54.998Z</time></trkpt><trkpt lat="45.42825639665209" lon="11.4814402434559"><ele>183.0</ele><time>2026-04-11T12:33:55.998Z</time></trkpt><trkpt lat="45.42845262401648" lon="11.481502574775106"><ele>183.0</ele><time>2026-04-11T12:33:56.998Z</time></trkpt><trkpt lat="45.42863378033991" lon="11.481576785443403"><ele>183.0</ele><time>2026-04-11T12:33:57.998Z</time></trkpt><trkpt lat="45.4287831581226" lon="11.48161611063516"><ele>183.0</ele><time>2026-04-11T12:33:58.998Z</time></trkpt><trkpt lat="45.428903958096825" lon="11.481649860411242"><ele>183.0</ele><time>2026-04-11T12:33:59.998Z</time></trkpt><trkpt lat="45.42898764560985" lon="11.481695569883383"><ele>183.0</ele><time>2026-04-11T12:34:01Z</time></trkpt><trkpt lat="45.42904120117986" lon="11.481757956922982"><ele>183.0</ele><time>2026-04-11T12:34:02Z</time></trkpt><trkpt lat="45.42903704671496" lon="11.481856868135859"><ele>183.0</ele><time>2026-04-11T12:34:03Z</time></trkpt><trkpt lat="45.428977635962696" lon="11.481929746430405"><ele>183.0</ele><time>2026-04-11T12:34:04Z</time></trkpt><trkpt lat="45.428885160423235" lon="11.481957034098581"><ele>183.0</ele><time>2026-04-11T12:34:05Z</time></trkpt><trkpt lat="45.428757622943515" lon="11.481949630953169"><ele>183.0</ele><time>2026-04-11T12:34:06Z</time></trkpt><trkpt lat="45.428593651072994" lon="11.48196139226045"><ele>183.0</ele><time>2026-04-11T12:34:07Z</time></trkpt><trkpt lat="45.4284102353355" lon="11.482007351677291"><ele>183.0</ele><time>2026-04-11T12:34:08Z</time></trkpt><trkpt lat="45.42820530726782" lon="11.482088104297828"><ele>187.33333333333331</ele><time>2026-04-11T12:34:09Z</time></trkpt><trkpt lat="45.428001237638234" lon="11.482215665152692"><ele>191.66666666666666</ele><time>2026-04-11T12:34:10Z</time></trkpt><trkpt lat="45.42781603764544" lon="11.482382136817938"><ele>196.0</ele><time>2026-04-11T12:34:11Z</time></trkpt><trkpt lat="45.427635234562835" lon="11.482596578606598"><ele>196.0</ele><time>2026-04-11T12:34:12Z</time></trkpt><trkpt lat="45.42745165735538" lon="11.482826519105446"><ele>196.0</ele><time>2026-04-11T12:34:13Z</time></trkpt><trkpt lat="45.42725735949804" lon="11.483023203169596"><ele>197.66666666666666</ele><time>2026-04-11T12:34:14Z</time></trkpt><trkpt lat="45.427098436211445" lon="11.483221571872784"><ele>199.33333333333331</ele><time>2026-04-11T12:34:15Z</time></trkpt><trkpt lat="45.42696385893645" lon="11.483364349663564"><ele>201.0</ele><time>2026-04-11T12:34:16Z</time></trkpt><trkpt lat="45.42685991759258" lon="11.483478953517105"><ele>201.0</ele><time>2026-04-11T12:34:17Z</time></trkpt><trkpt lat="45.42678527412863" lon="11.483569204224617"><ele>201.0</ele><time>2026-04-11T12:34:18Z</time></trkpt><trkpt lat="45.42676264125752" lon="11.483666498614042"><ele>201.0</ele><time>2026-04-11T12:34:19Z</time></trkpt><trkpt lat="45.4267975342837" lon="11.483770533499381"><ele>201.0</ele><time>2026-04-11T12:34:20Z</time></trkpt><trkpt lat="45.42688856227878" lon="11.483840134383952"><ele>201.0</ele><time>2026-04-11T12:34:21Z</time></trkpt><trkpt lat="45.42701904584593" lon="11.483856548232371"><ele>208.0</ele><time>2026-04-11T12:34:22Z</time></trkpt><trkpt lat="45.42719043188328" lon="11.483839390277534"><ele>215.0</ele><time>2026-04-11T12:34:23Z</time></trkpt><trkpt lat="45.427397438084995" lon="11.483855428830285"><ele>222.0</ele><time>2026-04-11T12:34:24Z</time></trkpt><trkpt lat="45.42762210469312" lon="11.48385092640901"><ele>222.0</ele><time>2026-04-11T12:34:25Z</time></trkpt><trkpt lat="45.42783708852323" lon="11.483862499825966"><ele>222.0</ele><time>2026-04-11T12:34:26Z</time></trkpt><trkpt lat="45.428000874711664" lon="11.483868728253944"><ele>222.0</ele><time>2026-04-11T12:34:27Z</time></trkpt><trkpt lat="45.428106413730795" lon="11.483930958865592"><ele>222.0</ele><time>2026-04-11T12:34:28Z</time></trkpt><trkpt lat="45.428175339260626" lon="11.483999002149398"><ele>222.0</ele><time>2026-04-11T12:34:29Z</time></trkpt><trkpt lat="45.42819210583464" lon="11.484122094153271"><ele>222.0</ele><time>2026-04-11T12:34:30Z</time></trkpt><trkpt lat="45.428173119173984" lon="11.484262604891493"><ele>222.0</ele><time>2026-04-11T12:34:31Z</time></trkpt><trkpt lat="45.42807946404223" lon="11.48439388118627"><ele>222.0</ele><time>2026-04-11T12:34:32Z</time></trkpt><trkpt lat="45.42796500645528" lon="11.484521862479422"><ele>226.0</ele><time>2026-04-11T12:34:33Z</time></trkpt><trkpt lat="45.42782931917596" lon="11.484686372692018"><ele>230.0</ele><time>2026-04-11T12:34:34Z</time></trkpt><trkpt lat="45.42766060624287" lon="11.484858710793624"><ele>234.0</ele><time>2026-04-11T12:34:35Z</time></trkpt><trkpt lat="45.42748938255494" lon="11.485053811591042"><ele>234.0</ele><time>2026-04-11T12:34:36Z</time></trkpt><trkpt lat="45.427306461375395" lon="11.485254725399106"><ele>234.0</ele><time>2026-04-11T12:34:37Z</time></trkpt><trkpt lat="45.42711000342853" lon="11.485460837834642"><ele>240.5</ele><time>2026-04-11T12:34:38Z</time></trkpt><trkpt lat="45.426913033610845" lon="11.485663365498318"><ele>247.0</ele><time>2026-04-11T12:34:39Z</time></trkpt><trkpt lat="45.42670930013043" lon="11.485856393400212"><ele>247.0</ele><time>2026-04-11T12:34:40Z</time></trkpt><trkpt lat="45.42649216347381" lon="11.485997098389394"><ele>247.0</ele><time>2026-04-11T12:34:41Z</time></trkpt><trkpt lat="45.42628600853892" lon="11.486168446422333"><ele>250.0</ele><time>2026-04-11T12:34:41.999Z</time></trkpt><trkpt lat="45.42607608743942" lon="11.486314487754782"><ele>253.0</ele><time>2026-04-11T12:34:42.999Z</time></trkpt><trkpt lat="45.42589584373035" lon="11.486443480840048"><ele>256.0</ele><time>2026-04-11T12:34:43.999Z</time></trkpt><trkpt lat="45.425740888042405" lon="11.486574848678698"><ele>256.0</ele><time>2026-04-11T12:34:44.999Z</time></trkpt><trkpt lat="45.425613053385185" lon="11.486738972015122"><ele>256.0</ele><time>2026-04-11T12:34:45.999Z</time></trkpt><trkpt lat="45.42549968984198" lon="11.486947453932652"><ele>256.0</ele><time>2026-04-11T12:34:46.999Z</time></trkpt><trkpt lat="45.42540559827791" lon="11.487145920054562"><ele>254.25</ele><time>2026-04-11T12:34:47.999Z</time></trkpt><trkpt lat="45.42532567851932" lon="11.487333631274813"><ele>252.5</ele><time>2026-04-11T12:34:48.999Z</time></trkpt><trkpt lat="45.42524814371519" lon="11.48751643417037"><ele>250.75</ele><time>2026-04-11T12:34:49.999Z</time></trkpt><trkpt lat="45.42518214803069" lon="11.487684631563988"><ele>249.0</ele><time>2026-04-11T12:34:50.999Z</time></trkpt><trkpt lat="45.42515060198216" lon="11.487836024793111"><ele>250.66666666666669</ele><time>2026-04-11T12:34:51.999Z</time></trkpt><trkpt lat="45.42517866470597" lon="11.488004496095504"><ele>252.33333333333334</ele><time>2026-04-11T12:34:52.999Z</time></trkpt><trkpt lat="45.42524040365891" lon="11.488216717752685"><ele>254.0</ele><time>2026-04-11T12:34:53.999Z</time></trkpt><trkpt lat="45.42532865839203" lon="11.488471257849618"><ele>255.0</ele><time>2026-04-11T12:34:54.999Z</time></trkpt><trkpt lat="45.425414941255355" lon="11.488762592169765"><ele>256.0</ele><time>2026-04-11T12:34:55.999Z</time></trkpt><trkpt lat="45.42549461548113" lon="11.489083454628139"><ele>261.0</ele><time>2026-04-11T12:34:56.999Z</time></trkpt><trkpt lat="45.42558145548321" lon="11.489421574027231"><ele>266.0</ele><time>2026-04-11T12:34:57.999Z</time></trkpt><trkpt lat="45.42569304226999" lon="11.489757252888774"><ele>266.0</ele><time>2026-04-11T12:34:58.999Z</time></trkpt><trkpt lat="45.42584470995382" lon="11.490090749490438"><ele>266.0</ele><time>2026-04-11T12:34:59.999Z</time></trkpt><trkpt lat="45.426010771650105" lon="11.490417230989134"><ele>268.5</ele><time>2026-04-11T12:35:00.999Z</time></trkpt><trkpt lat="45.42615400590935" lon="11.490716815089122"><ele>271.0</ele><time>2026-04-11T12:35:01.999Z</time></trkpt><trkpt lat="45.42627457199315" lon="11.49096791970699"><ele>272.0</ele><time>2026-04-11T12:35:02.999Z</time></trkpt><trkpt lat="45.42639114105751" lon="11.491190560839607"><ele>273.0</ele><time>2026-04-11T12:35:03.999Z</time></trkpt><trkpt lat="45.42654643153923" lon="11.491391444332535"><ele>274.0</ele><time>2026-04-11T12:35:04.999Z</time></trkpt><trkpt lat="45.426738538341695" lon="11.491601007347313"><ele>276.5</ele><time>2026-04-11T12:35:05.999Z</time></trkpt><trkpt lat="45.42693905900778" lon="11.491823722977804"><ele>279.0</ele><time>2026-04-11T12:35:06.999Z</time></trkpt><trkpt lat="45.42710911205046" lon="11.492025210934038"><ele>280.6666666666667</ele><time>2026-04-11T12:35:07.999Z</time></trkpt><trkpt lat="45.427278668328604" lon="11.49220711925181"><ele>282.33333333333337</ele><time>2026-04-11T12:35:08.999Z</time></trkpt><trkpt lat="45.4274433673164" lon="11.492403740710927"><ele>284.0</ele><time>2026-04-11T12:35:09.999Z</time></trkpt><trkpt lat="45.427625024818" lon="11.492603435709954"><ele>284.0</ele><time>2026-04-11T12:35:10.999Z</time></trkpt><trkpt lat="45.42779656425222" lon="11.492795062768145"><ele>284.0</ele><time>2026-04-11T12:35:11.999Z</time></trkpt><trkpt lat="45.42795439467178" lon="11.49297313384498"><ele>284.0</ele><time>2026-04-11T12:35:12.999Z</time></trkpt><trkpt lat="45.428106460268765" lon="11.493144617408499"><ele>285.33333333333337</ele><time>2026-04-11T12:35:13.999Z</time></trkpt><trkpt lat="45.42825290086551" lon="11.493309779028307"><ele>286.6666666666667</ele><time>2026-04-11T12:35:14.999Z</time></trkpt><trkpt lat="45.428390382523446" lon="11.493469497617875"><ele>288.0</ele><time>2026-04-11T12:35:15.999Z</time></trkpt><trkpt lat="45.42852336560166" lon="11.49362225434428"><ele>285.6666666666667</ele><time>2026-04-11T12:35:16.999Z</time></trkpt><trkpt lat="45.42864312196947" lon="11.493781996908458"><ele>283.33333333333337</ele><time>2026-04-11T12:35:17.999Z</time></trkpt><trkpt lat="45.42871739239439" lon="11.493983071035228"><ele>281.0</ele><time>2026-04-11T12:35:18.999Z</time></trkpt><trkpt lat="45.42875462280521" lon="11.494192443006167"><ele>281.0</ele><time>2026-04-11T12:35:19.999Z</time></trkpt><trkpt lat="45.42875363004509" lon="11.494401573073928"><ele>281.0</ele><time>2026-04-11T12:35:20.999Z</time></trkpt><trkpt lat="45.42872557697292" lon="11.494608859847773"><ele>281.0</ele><time>2026-04-11T12:35:21.999Z</time></trkpt><trkpt lat="45.42866504951849" lon="11.494817350737687"><ele>282.25</ele><time>2026-04-11T12:35:22.999Z</time></trkpt><trkpt lat="45.42858857851297" lon="11.494985242093028"><ele>283.5</ele><time>2026-04-11T12:35:23.999Z</time></trkpt><trkpt lat="45.428527713144454" lon="11.495146417134317"><ele>284.75</ele><time>2026-04-11T12:35:24.999Z</time></trkpt><trkpt lat="45.42845320786183" lon="11.495281910267675"><ele>286.0</ele><time>2026-04-11T12:35:25.999Z</time></trkpt><trkpt lat="45.42839802826445" lon="11.495423324399551"><ele>286.2</ele><time>2026-04-11T12:35:26.999Z</time></trkpt><trkpt lat="45.428366581607555" lon="11.49556359345322"><ele>286.40000000000003</ele><time>2026-04-11T12:35:27.999Z</time></trkpt><trkpt lat="45.42838002385185" lon="11.495702477926057"><ele>286.6</ele><time>2026-04-11T12:35:28.999Z</time></trkpt><trkpt lat="45.42843665100155" lon="11.495824664103882"><ele>286.8</ele><time>2026-04-11T12:35:29.999Z</time></trkpt><trkpt lat="45.428530959891816" lon="11.49591333007147"><ele>287.0</ele><time>2026-04-11T12:35:30.999Z</time></trkpt><trkpt lat="45.42865789366194" lon="11.495938623864905"><ele>287.0</ele><time>2026-04-11T12:35:31.999Z</time></trkpt><trkpt lat="45.42880158763799" lon="11.495912426168365"><ele>287.0</ele><time>2026-04-11T12:35:32.999Z</time></trkpt><trkpt lat="45.42893901183141" lon="11.495843883901898"><ele>287.0</ele><time>2026-04-11T12:35:33.998Z</time></trkpt><trkpt lat="45.42908017509878" lon="11.495766763175343"><ele>287.0</ele><time>2026-04-11T12:35:34.998Z</time></trkpt><trkpt lat="45.429225508220796" lon="11.495722512921876"><ele>286.4</ele><time>2026-04-11T12:35:35.998Z</time></trkpt><trkpt lat="45.42935405288926" lon="11.49568011075399"><ele>285.79999999999995</ele><time>2026-04-11T12:35:36.998Z</time></trkpt><trkpt lat="45.429455778176745" lon="11.495645113103654"><ele>285.2</ele><time>2026-04-11T12:35:37.998Z</time></trkpt><trkpt lat="45.429538019982594" lon="11.49564752878081"><ele>284.59999999999997</ele><time>2026-04-11T12:35:38.998Z</time></trkpt><trkpt lat="45.42959647813908" lon="11.495710346905154"><ele>284.0</ele><time>2026-04-11T12:35:39.998Z</time></trkpt><trkpt lat="45.429617445128514" lon="11.495830693295776"><ele>284.0</ele><time>2026-04-11T12:35:40.998Z</time></trkpt><trkpt lat="45.42959675611265" lon="11.495955341342714"><ele>284.0</ele><time>2026-04-11T12:35:41.998Z</time></trkpt><trkpt lat="45.42951164583706" lon="11.496052972555846"><ele>284.0</ele><time>2026-04-11T12:35:42.998Z</time></trkpt><trkpt lat="45.429463995367364" lon="11.496179767238816"><ele>284.0</ele><time>2026-04-11T12:35:43.998Z</time></trkpt><trkpt lat="45.42940842471471" lon="11.496301090312125"><ele>284.0</ele><time>2026-04-11T12:35:44.998Z</time></trkpt><trkpt lat="45.429362292958494" lon="11.496431557275868"><ele>282.2</ele><time>2026-04-11T12:35:45.998Z</time></trkpt><trkpt lat="45.4293211745398" lon="11.496568050132513"><ele>280.4</ele><time>2026-04-11T12:35:46.998Z</time></trkpt><trkpt lat="45.4292908262602" lon="11.49671275563284"><ele>278.6</ele><time>2026-04-11T12:35:47.998Z</time></trkpt><trkpt lat="45.42926503076871" lon="11.496866629695147"><ele>276.8</ele><time>2026-04-11T12:35:48.998Z</time></trkpt><trkpt lat="45.429236274707364" lon="11.497014777268559"><ele>275.0</ele><time>2026-04-11T12:35:49.998Z</time></trkpt><trkpt lat="45.42920090441142" lon="11.497166545408566"><ele>274.75</ele><time>2026-04-11T12:35:50.998Z</time></trkpt><trkpt lat="45.42916654284758" lon="11.497316359536766"><ele>274.5</ele><time>2026-04-11T12:35:51.998Z</time></trkpt><trkpt lat="45.42912779901731" lon="11.497471053386324"><ele>274.25</ele><time>2026-04-11T12:35:52.998Z</time></trkpt><trkpt lat="45.42908456519416" lon="11.497624448601988"><ele>274.0</ele><time>2026-04-11T12:35:53.998Z</time></trkpt><trkpt lat="45.42903137575799" lon="11.497777197392319"><ele>274.75</ele><time>2026-04-11T12:35:54.998Z</time></trkpt><trkpt lat="45.4289704448983" lon="11.497931889664901"><ele>275.5</ele><time>2026-04-11T12:35:55.998Z</time></trkpt><trkpt lat="45.428903599254824" lon="11.498079963004948"><ele>276.25</ele><time>2026-04-11T12:35:56.998Z</time></trkpt><trkpt lat="45.42883868610894" lon="11.498218950124578"><ele>277.0</ele><time>2026-04-11T12:35:57.998Z</time></trkpt><trkpt lat="45.428771865635035" lon="11.498365918314637"><ele>273.25</ele><time>2026-04-11T12:35:58.998Z</time></trkpt><trkpt lat="45.42869862236189" lon="11.498506798110975"><ele>269.5</ele><time>2026-04-11T12:35:59.998Z</time></trkpt><trkpt lat="45.42863364082125" lon="11.498656957554893"><ele>265.75</ele><time>2026-04-11T12:36:00.998Z</time></trkpt><trkpt lat="45.42856738784545" lon="11.498804076854418"><ele>262.0</ele><time>2026-04-11T12:36:01.998Z</time></trkpt><trkpt lat="45.42850159072881" lon="11.49894341249096"><ele>262.0</ele><time>2026-04-11T12:36:02.998Z</time></trkpt><trkpt lat="45.42843461235183" lon="11.499085743253028"><ele>262.0</ele><time>2026-04-11T12:36:03.998Z</time></trkpt><trkpt lat="45.42836814395231" lon="11.499219959223744"><ele>262.0</ele><time>2026-04-11T12:36:04.998Z</time></trkpt><trkpt lat="45.428311009343744" lon="11.49935553862484"><ele>262.0</ele><time>2026-04-11T12:36:05.998Z</time></trkpt><trkpt lat="45.42825547708804" lon="11.499503504018959"><ele>263.5</ele><time>2026-04-11T12:36:07Z</time></trkpt><trkpt lat="45.42821526945993" lon="11.499675622984427"><ele>265.0</ele><time>2026-04-11T12:36:08Z</time></trkpt><trkpt lat="45.428196751689974" lon="11.499868330005631"><ele>266.5</ele><time>2026-04-11T12:36:09Z</time></trkpt><trkpt lat="45.42819748603938" lon="11.500071564865955"><ele>268.0</ele><time>2026-04-11T12:36:10Z</time></trkpt><trkpt lat="45.42824478743166" lon="11.500256295093902"><ele>267.0</ele><time>2026-04-11T12:36:11Z</time></trkpt><trkpt lat="45.42832470121875" lon="11.500434078504862"><ele>266.0</ele><time>2026-04-11T12:36:12Z</time></trkpt><trkpt lat="45.42842363392887" lon="11.500603947651934"><ele>265.0</ele><time>2026-04-11T12:36:13Z</time></trkpt><trkpt lat="45.428529486167065" lon="11.50077082012244"><ele>265.0</ele><time>2026-04-11T12:36:14Z</time></trkpt><trkpt lat="45.42864041839475" lon="11.500924949701599"><ele>265.0</ele><time>2026-04-11T12:36:15Z</time></trkpt><trkpt lat="45.42873874936359" lon="11.50106169601338"><ele>265.0</ele><time>2026-04-11T12:36:16Z</time></trkpt><trkpt lat="45.428848001008184" lon="11.501155657932713"><ele>265.0</ele><time>2026-04-11T12:36:17Z</time></trkpt><trkpt lat="45.42897952630341" lon="11.50120374461829"><ele>266.0</ele><time>2026-04-11T12:36:18Z</time></trkpt><trkpt lat="45.429097297928784" lon="11.50122350670367"><ele>267.0</ele><time>2026-04-11T12:36:19Z</time></trkpt><trkpt lat="45.429169415488516" lon="11.501258817239412"><ele>268.0</ele><time>2026-04-11T12:36:20Z</time></trkpt><trkpt lat="45.42920367543127" lon="11.501360689998117"><ele>269.0</ele><time>2026-04-11T12:36:21Z</time></trkpt><trkpt lat="45.429180101608964" lon="11.501485705421363"><ele>270.0</ele><time>2026-04-11T12:36:22Z</time></trkpt><trkpt lat="45.429101308433225" lon="11.501605942755514"><ele>270.0</ele><time>2026-04-11T12:36:23Z</time></trkpt><trkpt lat="45.42898102453494" lon="11.501651887083199"><ele>270.0</ele><time>2026-04-11T12:36:24Z</time></trkpt><trkpt lat="45.42885934112829" lon="11.50172240032772"><ele>270.0</ele><time>2026-04-11T12:36:25Z</time></trkpt><trkpt lat="45.42872525782189" lon="11.501818359544739"><ele>270.0</ele><time>2026-04-11T12:36:26Z</time></trkpt><trkpt lat="45.42859930833954" lon="11.501906832086192"><ele>270.0</ele><time>2026-04-11T12:36:27Z</time></trkpt><trkpt lat="45.42846902625074" lon="11.50196778322172"><ele>270.0</ele><time>2026-04-11T12:36:28Z</time></trkpt><trkpt lat="45.428367473573736" lon="11.502031627679042"><ele>270.0</ele><time>2026-04-11T12:36:29Z</time></trkpt><trkpt lat="45.42828233235849" lon="11.502216066769343"><ele>270.0</ele><time>2026-04-11T12:36:30Z</time></trkpt><trkpt lat="45.42816686081195" lon="11.50231211915527"><ele>272.2</ele><time>2026-04-11T12:36:31Z</time></trkpt><trkpt lat="45.428062625197114" lon="11.502340315779067"><ele>274.4</ele><time>2026-04-11T12:36:32Z</time></trkpt><trkpt lat="45.427956586551325" lon="11.502313443866965"><ele>276.6</ele><time>2026-04-11T12:36:33Z</time></trkpt><trkpt lat="45.4278566092263" lon="11.502236890965087"><ele>278.8</ele><time>2026-04-11T12:36:34Z</time></trkpt><trkpt lat="45.42777070285583" lon="11.502120427161062"><ele>281.0</ele><time>2026-04-11T12:36:35Z</time></trkpt><trkpt lat="45.427721327813984" lon="11.502007922393203"><ele>281.0</ele><time>2026-04-11T12:36:36Z</time></trkpt><trkpt lat="45.427667222425605" lon="11.5019416391288"><ele>281.0</ele><time>2026-04-11T12:36:37Z</time></trkpt><trkpt lat="45.427593833326014" lon="11.50207271786013"><ele>281.0</ele><time>2026-04-11T12:36:39Z</time></trkpt><trkpt lat="45.42770317404002" lon="11.502296680531732"><ele>281.0</ele><time>2026-04-11T12:36:41Z</time></trkpt><trkpt lat="45.427793108505014" lon="11.502461651533158"><ele>281.25</ele><time>2026-04-11T12:36:42Z</time></trkpt><trkpt lat="45.427870618168186" lon="11.502626300189444"><ele>281.5</ele><time>2026-04-11T12:36:43Z</time></trkpt><trkpt lat="45.42798414193648" lon="11.502763225614409"><ele>281.75</ele><time>2026-04-11T12:36:44Z</time></trkpt><trkpt lat="45.42810658627101" lon="11.502822997069297"><ele>282.0</ele><time>2026-04-11T12:36:45Z</time></trkpt><trkpt lat="45.42820999174939" lon="11.502824091886266"><ele>282.8333333333333</ele><time>2026-04-11T12:36:45.999Z</time></trkpt><trkpt lat="45.42828751692299" lon="11.502807943292023"><ele>283.6666666666667</ele><time>2026-04-11T12:36:46.999Z</time></trkpt><trkpt lat="45.428319245605714" lon="11.502912381335054"><ele>284.5</ele><time>2026-04-11T12:36:48.999Z</time></trkpt><trkpt lat="45.42827470239765" lon="11.502982178675492"><ele>285.33333333333337</ele><time>2026-04-11T12:36:49.999Z</time></trkpt><trkpt lat="45.42819050009822" lon="11.503002048719377"><ele>286.1666666666667</ele><time>2026-04-11T12:36:50.999Z</time></trkpt><trkpt lat="45.42808739204017" lon="11.502986784758916"><ele>287.0</ele><time>2026-04-11T12:36:51.999Z</time></trkpt><trkpt lat="45.42800312596491" lon="11.502969289626984"><ele>286.6</ele><time>2026-04-11T12:36:52.999Z</time></trkpt><trkpt lat="45.427928078036146" lon="11.502981132616288"><ele>286.2</ele><time>2026-04-11T12:36:53.999Z</time></trkpt><trkpt lat="45.427855814922665" lon="11.503056705006998"><ele>285.8</ele><time>2026-04-11T12:36:54.999Z</time></trkpt><trkpt lat="45.42780823720139" lon="11.503187982805434"><ele>285.4</ele><time>2026-04-11T12:36:55.999Z</time></trkpt><trkpt lat="45.42775377243118" lon="11.503325800185259"><ele>285.0</ele><time>2026-04-11T12:36:56.999Z</time></trkpt><trkpt lat="45.42769988446331" lon="11.503453797049287"><ele>285.0</ele><time>2026-04-11T12:36:57.999Z</time></trkpt><trkpt lat="45.42765640624655" lon="11.503567583948781"><ele>285.0</ele><time>2026-04-11T12:36:58.999Z</time></trkpt><trkpt lat="45.42764448295335" lon="11.503662727962853"><ele>285.0</ele><time>2026-04-11T12:36:59.999Z</time></trkpt><trkpt lat="45.42766089676688" lon="11.50375495010692"><ele>285.0</ele><time>2026-04-11T12:37:00.999Z</time></trkpt><trkpt lat="45.42773535884928" lon="11.503863249546994"><ele>285.0</ele><time>2026-04-11T12:37:02.999Z</time></trkpt><trkpt lat="45.42785996803626" lon="11.503905386343604"><ele>291.6666666666667</ele><time>2026-04-11T12:37:04.999Z</time></trkpt><trkpt lat="45.42799915889364" lon="11.503905107037511"><ele>298.33333333333337</ele><time>2026-04-11T12:37:05.999Z</time></trkpt><trkpt lat="45.42816593308809" lon="11.50394148167373"><ele>305.0</ele><time>2026-04-11T12:37:06.999Z</time></trkpt><trkpt lat="45.428331032783355" lon="11.503989760250997"><ele>305.0</ele><time>2026-04-11T12:37:07.999Z</time></trkpt><trkpt lat="45.42849099299682" lon="11.504075744168768"><ele>305.0</ele><time>2026-04-11T12:37:08.999Z</time></trkpt><trkpt lat="45.42862809383934" lon="11.504199953926936"><ele>305.0</ele><time>2026-04-11T12:37:09.999Z</time></trkpt><trkpt lat="45.42875770660152" lon="11.504338803809274"><ele>306.33333333333337</ele><time>2026-04-11T12:37:10.999Z</time></trkpt><trkpt lat="45.428892393844826" lon="11.504457603538436"><ele>307.6666666666667</ele><time>2026-04-11T12:37:11.999Z</time></trkpt><trkpt lat="45.4290347080487" lon="11.504562383708842"><ele>309.0</ele><time>2026-04-11T12:37:12.999Z</time></trkpt><trkpt lat="45.429179037899445" lon="11.504657090354272"><ele>310.75</ele><time>2026-04-11T12:37:13.999Z</time></trkpt><trkpt lat="45.42932559885535" lon="11.504719386933782"><ele>312.5</ele><time>2026-04-11T12:37:14.999Z</time></trkpt><trkpt lat="45.429475445980174" lon="11.5047305730981"><ele>314.25</ele><time>2026-04-11T12:37:15.999Z</time></trkpt><trkpt lat="45.42960176879434" lon="11.504699113273146"><ele>316.0</ele><time>2026-04-11T12:37:16.999Z</time></trkpt><trkpt lat="45.429691343300675" lon="11.504690462326879"><ele>317.0</ele><time>2026-04-11T12:37:17.999Z</time></trkpt><trkpt lat="45.429769805631096" lon="11.504752201795124"><ele>318.0</ele><time>2026-04-11T12:37:18.999Z</time></trkpt><trkpt lat="45.42982973784081" lon="11.50487719966247"><ele>319.0</ele><time>2026-04-11T12:37:19.999Z</time></trkpt><trkpt lat="45.429869013141" lon="11.505052876128405"><ele>320.0</ele><time>2026-04-11T12:37:20.999Z</time></trkpt><trkpt lat="45.42990065517521" lon="11.505233489080634"><ele>321.75</ele><time>2026-04-11T12:37:21.999Z</time></trkpt><trkpt lat="45.42993965708975" lon="11.505425575130106"><ele>323.5</ele><time>2026-04-11T12:37:22.999Z</time></trkpt><trkpt lat="45.429983092861285" lon="11.505613644612083"><ele>325.25</ele><time>2026-04-11T12:37:23.999Z</time></trkpt><trkpt lat="45.43001114492269" lon="11.505813000364196"><ele>327.0</ele><time>2026-04-11T12:37:24.999Z</time></trkpt><trkpt lat="45.43004038047558" lon="11.506024838239261"><ele>327.0</ele><time>2026-04-11T12:37:25.999Z</time></trkpt><trkpt lat="45.43006084948057" lon="11.506241888544944"><ele>327.0</ele><time>2026-04-11T12:37:26.999Z</time></trkpt><trkpt lat="45.43007129327799" lon="11.506465108755458"><ele>327.0</ele><time>2026-04-11T12:37:27.999Z</time></trkpt><trkpt lat="45.43006245785066" lon="11.506701216784377"><ele>327.75</ele><time>2026-04-11T12:37:28.999Z</time></trkpt><trkpt lat="45.43005499457938" lon="11.506891404042161"><ele>328.5</ele><time>2026-04-11T12:37:29.999Z</time></trkpt><trkpt lat="45.43009343632317" lon="11.50705751890436"><ele>329.25</ele><time>2026-04-11T12:37:30.999Z</time></trkpt><trkpt lat="45.43019054733095" lon="11.507191023839349"><ele>330.0</ele><time>2026-04-11T12:37:31.999Z</time></trkpt><trkpt lat="45.4303461343636" lon="11.5073110970206"><ele>335.6666666666667</ele><time>2026-04-11T12:37:32.999Z</time></trkpt><trkpt lat="45.430518979228395" lon="11.507457809957346"><ele>341.33333333333337</ele><time>2026-04-11T12:37:33.999Z</time></trkpt><trkpt lat="45.43068454652894" lon="11.507611580915105"><ele>347.0</ele><time>2026-04-11T12:37:34.999Z</time></trkpt><trkpt lat="45.43081904331433" lon="11.50770363645566"><ele>347.0</ele><time>2026-04-11T12:37:35.999Z</time></trkpt><trkpt lat="45.43092962264804" lon="11.507738874958074"><ele>347.0</ele><time>2026-04-11T12:37:36.999Z</time></trkpt><trkpt lat="45.431031229645995" lon="11.50777064854159"><ele>347.0</ele><time>2026-04-11T12:37:37.999Z</time></trkpt><trkpt lat="45.431134697319415" lon="11.507825006559862"><ele>347.0</ele><time>2026-04-11T12:37:38.998Z</time></trkpt><trkpt lat="45.43123424223403" lon="11.50792629957725"><ele>347.75</ele><time>2026-04-11T12:37:39.998Z</time></trkpt><trkpt lat="45.431331046179785" lon="11.508068386761224"><ele>348.5</ele><time>2026-04-11T12:37:40.998Z</time></trkpt><trkpt lat="45.431415725955034" lon="11.508198856034292"><ele>349.25</ele><time>2026-04-11T12:37:41.998Z</time></trkpt><trkpt lat="45.43148527649788" lon="11.508299242688269"><ele>350.0</ele><time>2026-04-11T12:37:42.998Z</time></trkpt><trkpt lat="45.43154060129536" lon="11.508405217149996"><ele>350.0</ele><time>2026-04-11T12:37:43.998Z</time></trkpt><trkpt lat="45.431583451218295" lon="11.50855452057729"><ele>350.0</ele><time>2026-04-11T12:37:44.998Z</time></trkpt><trkpt lat="45.43161449797681" lon="11.508728784653487"><ele>350.0</ele><time>2026-04-11T12:37:45.998Z</time></trkpt><trkpt lat="45.43162826624607" lon="11.508902674091846"><ele>350.0</ele><time>2026-04-11T12:37:46.998Z</time></trkpt><trkpt lat="45.43163416792904" lon="11.509074111728884"><ele>350.4</ele><time>2026-04-11T12:37:47.998Z</time></trkpt><trkpt lat="45.431649304171145" lon="11.509230575511806"><ele>350.8</ele><time>2026-04-11T12:37:48.998Z</time></trkpt><trkpt lat="45.43166216205928" lon="11.509363174449588"><ele>351.20000000000005</ele><time>2026-04-11T12:37:49.998Z</time></trkpt><trkpt lat="45.43167205683625" lon="11.509482172006459"><ele>351.6</ele><time>2026-04-11T12:37:50.998Z</time></trkpt><trkpt lat="45.43168086454839" lon="11.509607555104822"><ele>352.0</ele><time>2026-04-11T12:37:51.998Z</time></trkpt><trkpt lat="45.431661256710925" lon="11.509767175099862"><ele>352.75</ele><time>2026-04-11T12:37:52.998Z</time></trkpt><trkpt lat="45.43160729596735" lon="11.509932502430308"><ele>353.5</ele><time>2026-04-11T12:37:53.998Z</time></trkpt><trkpt lat="45.43154108160122" lon="11.510112647154578"><ele>354.25</ele><time>2026-04-11T12:37:54.998Z</time></trkpt><trkpt lat="45.43147740511571" lon="11.510315628008266"><ele>355.0</ele><time>2026-04-11T12:37:55.998Z</time></trkpt><trkpt lat="45.431410904519815" lon="11.510504538573809"><ele>353.3333333333333</ele><time>2026-04-11T12:37:56.998Z</time></trkpt><trkpt lat="45.43132277418234" lon="11.510672691083663"><ele>351.6666666666667</ele><time>2026-04-11T12:37:57.998Z</time></trkpt><trkpt lat="45.43121065326457" lon="11.510831908701062"><ele>350.0</ele><time>2026-04-11T12:37:58.998Z</time></trkpt><trkpt lat="45.431094994065994" lon="11.511003531235144"><ele>350.0</ele><time>2026-04-11T12:37:59.998Z</time></trkpt><trkpt lat="45.43100920274252" lon="11.511179967337622"><ele>350.0</ele><time>2026-04-11T12:38:00.998Z</time></trkpt><trkpt lat="45.430951136408616" lon="11.511360278448135"><ele>350.0</ele><time>2026-04-11T12:38:01.998Z</time></trkpt><trkpt lat="45.43087767956383" lon="11.51151739145978"><ele>350.0</ele><time>2026-04-11T12:38:02.998Z</time></trkpt><trkpt lat="45.43081111994936" lon="11.511666115768767"><ele>350.25</ele><time>2026-04-11T12:38:03.998Z</time></trkpt><trkpt lat="45.430745154864226" lon="11.511786929543502"><ele>350.5</ele><time>2026-04-11T12:38:04.998Z</time></trkpt><trkpt lat="45.4306676746959" lon="11.511885125995184"><ele>350.75</ele><time>2026-04-11T12:38:05.998Z</time></trkpt><trkpt lat="45.4305628988535" lon="11.511978749205818"><ele>351.0</ele><time>2026-04-11T12:38:06.998Z</time></trkpt><trkpt lat="45.430415867310494" lon="11.512035461585027"><ele>351.0</ele><time>2026-04-11T12:38:07.998Z</time></trkpt><trkpt lat="45.43025597365589" lon="11.512066897459832"><ele>351.0</ele><time>2026-04-11T12:38:08.998Z</time></trkpt><trkpt lat="45.430087888652764" lon="11.512120801946097"><ele>351.0</ele><time>2026-04-11T12:38:09.998Z</time></trkpt><trkpt lat="45.429927654363084" lon="11.512196962805037"><ele>352.25</ele><time>2026-04-11T12:38:10.998Z</time></trkpt><trkpt lat="45.42978983302567" lon="11.512276743281783"><ele>353.5</ele><time>2026-04-11T12:38:11.998Z</time></trkpt><trkpt lat="45.42968629626804" lon="11.51240102372401"><ele>354.75</ele><time>2026-04-11T12:38:13Z</time></trkpt><trkpt lat="45.42960062830059" lon="11.512592501603857"><ele>356.0</ele><time>2026-04-11T12:38:14Z</time></trkpt><trkpt lat="45.42953087518364" lon="11.51281288092144"><ele>358.33333333333337</ele><time>2026-04-11T12:38:15Z</time></trkpt><trkpt lat="45.42942987201289" lon="11.513018288735243"><ele>360.6666666666667</ele><time>2026-04-11T12:38:16Z</time></trkpt><trkpt lat="45.42931719918917" lon="11.513193784525676"><ele>363.0</ele><time>2026-04-11T12:38:17Z</time></trkpt><trkpt lat="45.42923886139143" lon="11.513363417874416"><ele>363.0</ele><time>2026-04-11T12:38:18Z</time></trkpt><trkpt lat="45.42922052819236" lon="11.513552643809799"><ele>363.0</ele><time>2026-04-11T12:38:19Z</time></trkpt><trkpt lat="45.42924788643846" lon="11.513761446838998"><ele>363.0</ele><time>2026-04-11T12:38:20Z</time></trkpt><trkpt lat="45.42932212765405" lon="11.513972902237558"><ele>363.0</ele><time>2026-04-11T12:38:21Z</time></trkpt><trkpt lat="45.42939341927897" lon="11.514182645583503"><ele>364.5</ele><time>2026-04-11T12:38:22Z</time></trkpt><trkpt lat="45.429437987663185" lon="11.514358777271513"><ele>366.0</ele><time>2026-04-11T12:38:23Z</time></trkpt><trkpt lat="45.42945052696819" lon="11.514538473888331"><ele>367.5</ele><time>2026-04-11T12:38:24Z</time></trkpt><trkpt lat="45.429423958561465" lon="11.514734711215121"><ele>369.0</ele><time>2026-04-11T12:38:25Z</time></trkpt><trkpt lat="45.429397865458895" lon="11.514943700384174"><ele>369.25</ele><time>2026-04-11T12:38:26Z</time></trkpt><trkpt lat="45.42937291245507" lon="11.515147922866477"><ele>369.5</ele><time>2026-04-11T12:38:27Z</time></trkpt><trkpt lat="45.42936697205395" lon="11.515321256047823"><ele>369.75</ele><time>2026-04-11T12:38:28Z</time></trkpt><trkpt lat="45.429370823022346" lon="11.515471657285637"><ele>370.0</ele><time>2026-04-11T12:38:29Z</time></trkpt><trkpt lat="45.42940235984693" lon="11.515607375898044"><ele>370.0</ele><time>2026-04-11T12:38:30Z</time></trkpt><trkpt lat="45.429474804188146" lon="11.515729387986179"><ele>370.0</ele><time>2026-04-11T12:38:31Z</time></trkpt><trkpt lat="45.42957305704141" lon="11.515844359451537"><ele>370.0</ele><time>2026-04-11T12:38:32Z</time></trkpt><trkpt lat="45.42966755818281" lon="11.515976194761043"><ele>370.0</ele><time>2026-04-11T12:38:33Z</time></trkpt><trkpt lat="45.42975456478212" lon="11.516117532496626"><ele>365.25</ele><time>2026-04-11T12:38:34Z</time></trkpt><trkpt lat="45.42983104354155" lon="11.516241752763506"><ele>360.5</ele><time>2026-04-11T12:38:35Z</time></trkpt><trkpt lat="45.429932221336784" lon="11.516328911171557"><ele>355.75</ele><time>2026-04-11T12:38:36Z</time></trkpt><trkpt lat="45.430068506094045" lon="11.516375936000548"><ele>351.0</ele><time>2026-04-11T12:38:37Z</time></trkpt><trkpt lat="45.43020925393585" lon="11.516369740540062"><ele>351.0</ele><time>2026-04-11T12:38:38Z</time></trkpt><trkpt lat="45.43036519164808" lon="11.516371834668305"><ele>351.0</ele><time>2026-04-11T12:38:39Z</time></trkpt><trkpt lat="45.430511674847025" lon="11.516411436495702"><ele>351.0</ele><time>2026-04-11T12:38:40Z</time></trkpt><trkpt lat="45.43062471502489" lon="11.516470695945367"><ele>351.0</ele><time>2026-04-11T12:38:41Z</time></trkpt><trkpt lat="45.430704727754765" lon="11.516544452579748"><ele>352.25</ele><time>2026-04-11T12:38:42Z</time></trkpt><trkpt lat="45.43075552499219" lon="11.516658697065267"><ele>353.5</ele><time>2026-04-11T12:38:43Z</time></trkpt><trkpt lat="45.4307356138965" lon="11.516797582770812"><ele>354.75</ele><time>2026-04-11T12:38:44Z</time></trkpt><trkpt lat="45.43065441361717" lon="11.516917844996929"><ele>356.0</ele><time>2026-04-11T12:38:45Z</time></trkpt><trkpt lat="45.43053085023279" lon="11.517017822299922"><ele>351.0</ele><time>2026-04-11T12:38:46Z</time></trkpt><trkpt lat="45.43038923474644" lon="11.517145455491002"><ele>346.0</ele><time>2026-04-11T12:38:47Z</time></trkpt><trkpt lat="45.4302563967015" lon="11.517295767001906"><ele>341.0</ele><time>2026-04-11T12:38:48Z</time></trkpt><trkpt lat="45.430111372590645" lon="11.517505537596609"><ele>341.0</ele><time>2026-04-11T12:38:49Z</time></trkpt><trkpt lat="45.42996268390475" lon="11.517708109040187"><ele>341.0</ele><time>2026-04-11T12:38:50Z</time></trkpt><trkpt lat="45.4298358580172" lon="11.517891594067468"><ele>341.0</ele><time>2026-04-11T12:38:51Z</time></trkpt><trkpt lat="45.429712513842695" lon="11.518078252267408"><ele>339.6666666666667</ele><time>2026-04-11T12:38:51.999Z</time></trkpt><trkpt lat="45.42960800636271" lon="11.518276336129192"><ele>338.3333333333333</ele><time>2026-04-11T12:38:52.999Z</time></trkpt><trkpt lat="45.42951190643374" lon="11.518520380866471"><ele>337.0</ele><time>2026-04-11T12:38:53.999Z</time></trkpt><trkpt lat="45.429443464501176" lon="11.518771555538594"><ele>333.3333333333333</ele><time>2026-04-11T12:38:54.999Z</time></trkpt><trkpt lat="45.429404384361156" lon="11.519004341356249"><ele>329.6666666666667</ele><time>2026-04-11T12:38:55.999Z</time></trkpt><trkpt lat="45.42937914016533" lon="11.519232192046687"><ele>326.0</ele><time>2026-04-11T12:38:56.999Z</time></trkpt><trkpt lat="45.42934098157392" lon="11.51942949713209"><ele>326.4</ele><time>2026-04-11T12:38:57.999Z</time></trkpt><trkpt lat="45.42930981476881" lon="11.519597205164413"><ele>326.8</ele><time>2026-04-11T12:38:58.999Z</time></trkpt><trkpt lat="45.42927938897252" lon="11.519730769610666"><ele>327.2</ele><time>2026-04-11T12:38:59.999Z</time></trkpt><trkpt lat="45.429252275570995" lon="11.519825594724791"><ele>327.59999999999997</ele><time>2026-04-11T12:39:00.999Z</time></trkpt><trkpt lat="45.429235042054096" lon="11.51994753825869"><ele>328.0</ele><time>2026-04-11T12:39:02.999Z</time></trkpt><trkpt lat="45.42933766949909" lon="11.52002015094656"><ele>328.0</ele><time>2026-04-11T12:39:04.999Z</time></trkpt><trkpt lat="45.42944419575476" lon="11.520095916450193"><ele>328.0</ele><time>2026-04-11T12:39:05.999Z</time></trkpt><trkpt lat="45.429565096218376" lon="11.52022024879213"><ele>328.0</ele><time>2026-04-11T12:39:06.999Z</time></trkpt><trkpt lat="45.429700135076246" lon="11.520360471578952"><ele>328.0</ele><time>2026-04-11T12:39:07.999Z</time></trkpt><trkpt lat="45.42984987381318" lon="11.52050612040925"><ele>331.0</ele><time>2026-04-11T12:39:08.999Z</time></trkpt><trkpt lat="45.43000960339138" lon="11.520651744037929"><ele>334.0</ele><time>2026-04-11T12:39:09.999Z</time></trkpt><trkpt lat="45.43017559291238" lon="11.520767532598416"><ele>337.0</ele><time>2026-04-11T12:39:10.999Z</time></trkpt><trkpt lat="45.43035248612951" lon="11.520854697951327"><ele>341.0</ele><time>2026-04-11T12:39:11.999Z</time></trkpt><trkpt lat="45.430553847732526" lon="11.520942040435168"><ele>345.0</ele><time>2026-04-11T12:39:12.999Z</time></trkpt><trkpt lat="45.430748755705984" lon="11.521046350565056"><ele>349.0</ele><time>2026-04-11T12:39:13.999Z</time></trkpt><trkpt lat="45.43095108018654" lon="11.521173459166082"><ele>348.3333333333333</ele><time>2026-04-11T12:39:14.999Z</time></trkpt><trkpt lat="45.43115015173098" lon="11.52132294462474"><ele>347.6666666666667</ele><time>2026-04-11T12:39:15.999Z</time></trkpt><trkpt lat="45.431334422640234" lon="11.5214613300328"><ele>347.0</ele><time>2026-04-11T12:39:16.999Z</time></trkpt><trkpt lat="45.431496354324445" lon="11.521575883078082"><ele>347.0</ele><time>2026-04-11T12:39:17.999Z</time></trkpt><trkpt lat="45.431647055689865" lon="11.52167843969642"><ele>347.0</ele><time>2026-04-11T12:39:18.999Z</time></trkpt><trkpt lat="45.431785514025414" lon="11.521768574085419"><ele>347.0</ele><time>2026-04-11T12:39:19.999Z</time></trkpt><trkpt lat="45.43193032201547" lon="11.521864238101918"><ele>347.0</ele><time>2026-04-11T12:39:20.999Z</time></trkpt><trkpt lat="45.43208724245035" lon="11.521976168825653"><ele>347.0</ele><time>2026-04-11T12:39:21.999Z</time></trkpt><trkpt lat="45.43224185512837" lon="11.522095074505147"><ele>347.0</ele><time>2026-04-11T12:39:22.999Z</time></trkpt><trkpt lat="45.43237882204271" lon="11.52221124040204"><ele>347.8</ele><time>2026-04-11T12:39:23.999Z</time></trkpt><trkpt lat="45.432504456937494" lon="11.522302579973514"><ele>348.6</ele><time>2026-04-11T12:39:24.999Z</time></trkpt><trkpt lat="45.432616833636594" lon="11.522366871283777"><ele>349.40000000000003</ele><time>2026-04-11T12:39:25.999Z</time></trkpt><trkpt lat="45.43271512884242" lon="11.52241439581764"><ele>350.20000000000005</ele><time>2026-04-11T12:39:26.999Z</time></trkpt><trkpt lat="45.43279421967858" lon="11.522449531092445"><ele>351.0</ele><time>2026-04-11T12:39:27.999Z</time></trkpt><trkpt lat="45.432861650921595" lon="11.522497076786676"><ele>351.0</ele><time>2026-04-11T12:39:28.999Z</time></trkpt><trkpt lat="45.4329213668775" lon="11.522556345534948"><ele>351.0</ele><time>2026-04-11T12:39:29.999Z</time></trkpt><trkpt lat="45.43295093652721" lon="11.522714071837115"><ele>351.0</ele><time>2026-04-11T12:39:31.999Z</time></trkpt><trkpt lat="45.43291574982876" lon="11.522810093030385"><ele>351.0</ele><time>2026-04-11T12:39:32.999Z</time></trkpt><trkpt lat="45.432831745015584" lon="11.522861328651299"><ele>351.0</ele><time>2026-04-11T12:39:33.999Z</time></trkpt><trkpt lat="45.43272332436995" lon="11.522834926078108"><ele>351.0</ele><time>2026-04-11T12:39:34.999Z</time></trkpt><trkpt lat="45.4326000079639" lon="11.522753104954282"><ele>351.0</ele><time>2026-04-11T12:39:35.999Z</time></trkpt><trkpt lat="45.432462684004406" lon="11.52265137179862"><ele>351.0</ele><time>2026-04-11T12:39:36.999Z</time></trkpt><trkpt lat="45.432309639581526" lon="11.522553113938237"><ele>351.0</ele><time>2026-04-11T12:39:37.999Z</time></trkpt><trkpt lat="45.43215254848355" lon="11.522449873577823"><ele>351.0</ele><time>2026-04-11T12:39:38.999Z</time></trkpt><trkpt lat="45.43201276549313" lon="11.522335944472825"><ele>351.0</ele><time>2026-04-11T12:39:39.999Z</time></trkpt><trkpt lat="45.43188702219704" lon="11.522253987775718"><ele>354.0</ele><time>2026-04-11T12:39:40.999Z</time></trkpt><trkpt lat="45.43175686510918" lon="11.522219409225553"><ele>357.0</ele><time>2026-04-11T12:39:41.999Z</time></trkpt><trkpt lat="45.43161546115271" lon="11.52225840370347"><ele>360.0</ele><time>2026-04-11T12:39:42.999Z</time></trkpt><trkpt lat="45.431486973000126" lon="11.522318129624201"><ele>363.0</ele><time>2026-04-11T12:39:43.999Z</time></trkpt><trkpt lat="45.431358412539744" lon="11.522399416028986"><ele>363.5</ele><time>2026-04-11T12:39:44.998Z</time></trkpt><trkpt lat="45.43126220137054" lon="11.522500074152514"><ele>364.0</ele><time>2026-04-11T12:39:45.998Z</time></trkpt><trkpt lat="45.431205511587365" lon="11.522632719362402"><ele>364.5</ele><time>2026-04-11T12:39:46.998Z</time></trkpt><trkpt lat="45.43118572764385" lon="11.522821410275313"><ele>365.0</ele><time>2026-04-11T12:39:47.998Z</time></trkpt><trkpt lat="45.43114976214965" lon="11.52303368395883"><ele>365.0</ele><time>2026-04-11T12:39:48.998Z</time></trkpt><trkpt lat="45.43104988624725" lon="11.523261347513323"><ele>365.0</ele><time>2026-04-11T12:39:49.998Z</time></trkpt><trkpt lat="45.43092800299709" lon="11.523474456418906"><ele>365.0</ele><time>2026-04-11T12:39:50.998Z</time></trkpt><trkpt lat="45.4308403386853" lon="11.523699845605844"><ele>369.33333333333337</ele><time>2026-04-11T12:39:51.998Z</time></trkpt><trkpt lat="45.4307629407077" lon="11.523954188540019"><ele>373.6666666666667</ele><time>2026-04-11T12:39:52.998Z</time></trkpt><trkpt lat="45.43067325918705" lon="11.52418929321924"><ele>378.0</ele><time>2026-04-11T12:39:53.998Z</time></trkpt><trkpt lat="45.43058551820823" lon="11.52437765829063"><ele>378.0</ele><time>2026-04-11T12:39:54.998Z</time></trkpt><trkpt lat="45.43054392873945" lon="11.524550310053593"><ele>378.0</ele><time>2026-04-11T12:39:55.998Z</time></trkpt><trkpt lat="45.4305472925473" lon="11.524695314978107"><ele>378.0</ele><time>2026-04-11T12:39:56.998Z</time></trkpt><trkpt lat="45.430584025393614" lon="11.52480428347944"><ele>378.0</ele><time>2026-04-11T12:39:57.998Z</time></trkpt><trkpt lat="45.43065090357238" lon="11.52490422832009"><ele>378.0</ele><time>2026-04-11T12:39:58.998Z</time></trkpt><trkpt lat="45.43074179177292" lon="11.525024083598057"><ele>377.75</ele><time>2026-04-11T12:39:59.998Z</time></trkpt><trkpt lat="45.430823142291864" lon="11.525186144046797"><ele>377.5</ele><time>2026-04-11T12:40:00.998Z</time></trkpt><trkpt lat="45.430905147625005" lon="11.525364198775623"><ele>377.25</ele><time>2026-04-11T12:40:01.998Z</time></trkpt><trkpt lat="45.43100186716083" lon="11.525513784166947"><ele>377.0</ele><time>2026-04-11T12:40:02.998Z</time></trkpt><trkpt lat="45.43111851793101" lon="11.525606025908344"><ele>377.0</ele><time>2026-04-11T12:40:03.998Z</time></trkpt><trkpt lat="45.4312202521877" lon="11.525708356470755"><ele>377.0</ele><time>2026-04-11T12:40:04.998Z</time></trkpt><trkpt lat="45.43127962953156" lon="11.525884178784024"><ele>377.0</ele><time>2026-04-11T12:40:05.998Z</time></trkpt><trkpt lat="45.43128737486304" lon="11.526101026380271"><ele>377.0</ele><time>2026-04-11T12:40:06.998Z</time></trkpt><trkpt lat="45.43127337701981" lon="11.526320600226658"><ele>380.33333333333337</ele><time>2026-04-11T12:40:07.998Z</time></trkpt><trkpt lat="45.431265948364256" lon="11.526542819719394"><ele>383.6666666666667</ele><time>2026-04-11T12:40:08.998Z</time></trkpt><trkpt lat="45.43125960087079" lon="11.526784027951647"><ele>387.0</ele><time>2026-04-11T12:40:09.998Z</time></trkpt><trkpt lat="45.431261276121944" lon="11.526989998778795"><ele>389.5</ele><time>2026-04-11T12:40:10.998Z</time></trkpt><trkpt lat="45.43126685327317" lon="11.527165096423433"><ele>392.0</ele><time>2026-04-11T12:40:11.998Z</time></trkpt><trkpt lat="45.43130251323207" lon="11.527315373150968"><ele>394.5</ele><time>2026-04-11T12:40:12.998Z</time></trkpt><trkpt lat="45.43138341378474" lon="11.52742511411885"><ele>397.0</ele><time>2026-04-11T12:40:13.998Z</time></trkpt><trkpt lat="45.43150435121625" lon="11.527479724868755"><ele>397.0</ele><time>2026-04-11T12:40:14.998Z</time></trkpt><trkpt lat="45.431642257801116" lon="11.527489831892423"><ele>397.0</ele><time>2026-04-11T12:40:15.998Z</time></trkpt><trkpt lat="45.431789032104945" lon="11.52746310051769"><ele>397.0</ele><time>2026-04-11T12:40:16.998Z</time></trkpt><trkpt lat="45.4319048685991" lon="11.527393809047606"><ele>397.0</ele><time>2026-04-11T12:40:17.998Z</time></trkpt><trkpt lat="45.431997942716386" lon="11.527379203828788"><ele>397.0</ele><time>2026-04-11T12:40:19Z</time></trkpt><trkpt lat="45.43206834437593" lon="11.527444357813934"><ele>397.0</ele><time>2026-04-11T12:40:20Z</time></trkpt><trkpt lat="45.432109428341654" lon="11.527562321456701"><ele>397.0</ele><time>2026-04-11T12:40:21Z</time></trkpt><trkpt lat="45.43211952099739" lon="11.527716970003938"><ele>397.0</ele><time>2026-04-11T12:40:22Z</time></trkpt><trkpt lat="45.432136446851665" lon="11.52789396799017"><ele>397.0</ele><time>2026-04-11T12:40:23Z</time></trkpt><trkpt lat="45.432175923283204" lon="11.528063152590606"><ele>397.75</ele><time>2026-04-11T12:40:24Z</time></trkpt><trkpt lat="45.43226546199564" lon="11.528184538143927"><ele>398.5</ele><time>2026-04-11T12:40:25Z</time></trkpt><trkpt lat="45.432375207917055" lon="11.528251421179833"><ele>399.25</ele><time>2026-04-11T12:40:26Z</time></trkpt><trkpt lat="45.43249860075336" lon="11.528253578240193"><ele>400.0</ele><time>2026-04-11T12:40:27Z</time></trkpt><trkpt lat="45.43261125295803" lon="11.528192462574221"><ele>400.0</ele><time>2026-04-11T12:40:28Z</time></trkpt><trkpt lat="45.432704048643146" lon="11.528125813764321"><ele>400.0</ele><time>2026-04-11T12:40:29Z</time></trkpt><trkpt lat="45.432787946853296" lon="11.528135919496087"><ele>400.0</ele><time>2026-04-11T12:40:30Z</time></trkpt><trkpt lat="45.432869352123376" lon="11.528220704323058"><ele>400.0</ele><time>2026-04-11T12:40:31Z</time></trkpt><trkpt lat="45.43292375324968" lon="11.5283746317672"><ele>400.0</ele><time>2026-04-11T12:40:32Z</time></trkpt><trkpt lat="45.43299005491448" lon="11.528523033207454"><ele>399.5</ele><time>2026-04-11T12:40:33Z</time></trkpt><trkpt lat="45.433081305018554" lon="11.528654504998977"><ele>399.0</ele><time>2026-04-11T12:40:34Z</time></trkpt><trkpt lat="45.43319185993378" lon="11.528762406397654"><ele>398.5</ele><time>2026-04-11T12:40:35Z</time></trkpt><trkpt lat="45.43328701525532" lon="11.528875653947289"><ele>398.0</ele><time>2026-04-11T12:40:36Z</time></trkpt><trkpt lat="45.43335317011124" lon="11.529000905626285"><ele>398.0</ele><time>2026-04-11T12:40:37Z</time></trkpt><trkpt lat="45.43339683639393" lon="11.529153997381293"><ele>398.0</ele><time>2026-04-11T12:40:38Z</time></trkpt><trkpt lat="45.433417356597715" lon="11.529347065152532"><ele>398.0</ele><time>2026-04-11T12:40:39Z</time></trkpt><trkpt lat="45.43342234037768" lon="11.529557594527597"><ele>398.0</ele><time>2026-04-11T12:40:40Z</time></trkpt><trkpt lat="45.433440559481525" lon="11.529768789910092"><ele>397.3333333333333</ele><time>2026-04-11T12:40:41Z</time></trkpt><trkpt lat="45.43346204874966" lon="11.529991047001594"><ele>396.66666666666663</ele><time>2026-04-11T12:40:42Z</time></trkpt><trkpt lat="45.43346914033221" lon="11.530211060053016"><ele>396.0</ele><time>2026-04-11T12:40:43Z</time></trkpt><trkpt lat="45.43344689762631" lon="11.530409264149421"><ele>396.0</ele><time>2026-04-11T12:40:44Z</time></trkpt><trkpt lat="45.433404351990205" lon="11.530623207878262"><ele>396.0</ele><time>2026-04-11T12:40:45Z</time></trkpt><trkpt lat="45.433337800955435" lon="11.530812276298732"><ele>396.0</ele><time>2026-04-11T12:40:46Z</time></trkpt><trkpt lat="45.43324081738749" lon="11.530967076100362"><ele>396.0</ele><time>2026-04-11T12:40:47Z</time></trkpt><trkpt lat="45.433123816659645" lon="11.531093721277655"><ele>396.0</ele><time>2026-04-11T12:40:48Z</time></trkpt><trkpt lat="45.433010490345964" lon="11.531218375890758"><ele>396.0</ele><time>2026-04-11T12:40:49Z</time></trkpt><trkpt lat="45.43292247981161" lon="11.53138153319843"><ele>396.0</ele><time>2026-04-11T12:40:50Z</time></trkpt><trkpt lat="45.43286361918158" lon="11.531580562724852"><ele>393.0</ele><time>2026-04-11T12:40:51Z</time></trkpt><trkpt lat="45.43283901616065" lon="11.531802996608235"><ele>390.0</ele><time>2026-04-11T12:40:52Z</time></trkpt><trkpt lat="45.432832534779436" lon="11.532004888638184"><ele>387.0</ele><time>2026-04-11T12:40:53Z</time></trkpt><trkpt lat="45.432838530929395" lon="11.532202170450946"><ele>384.0</ele><time>2026-04-11T12:40:54Z</time></trkpt><trkpt lat="45.43287992183439" lon="11.532409338750888"><ele>382.3333333333333</ele><time>2026-04-11T12:40:55Z</time></trkpt><trkpt lat="45.43295227766543" lon="11.532639677859375"><ele>380.66666666666663</ele><time>2026-04-11T12:40:56Z</time></trkpt><trkpt lat="45.43304208729029" lon="11.532868833722462"><ele>379.0</ele><time>2026-04-11T12:40:57Z</time></trkpt><trkpt lat="45.43312740255585" lon="11.533087188621758"><ele>382.25</ele><time>2026-04-11T12:40:58Z</time></trkpt><trkpt lat="45.43321017237425" lon="11.533275515603643"><ele>385.5</ele><time>2026-04-11T12:40:59Z</time></trkpt><trkpt lat="45.43329864103896" lon="11.533427109017715"><ele>388.75</ele><time>2026-04-11T12:41:00Z</time></trkpt><trkpt lat="45.43342446635397" lon="11.533542665671822"><ele>392.0</ele><time>2026-04-11T12:41:00.999Z</time></trkpt><trkpt lat="45.43357145164507" lon="11.533627471744975"><ele>392.0</ele><time>2026-04-11T12:41:01.999Z</time></trkpt><trkpt lat="45.43373593732292" lon="11.533723599478655"><ele>392.0</ele><time>2026-04-11T12:41:02.999Z</time></trkpt><trkpt lat="45.43391012329813" lon="11.533808480280294"><ele>392.0</ele><time>2026-04-11T12:41:03.999Z</time></trkpt><trkpt lat="45.43409736749197" lon="11.533872542192801"><ele>392.0</ele><time>2026-04-11T12:41:04.999Z</time></trkpt><trkpt lat="45.43426211624415" lon="11.533926532852627"><ele>392.0</ele><time>2026-04-11T12:41:05.999Z</time></trkpt><trkpt lat="45.43440861860008" lon="11.533975832144002"><ele>392.0</ele><time>2026-04-11T12:41:06.999Z</time></trkpt><trkpt lat="45.43453736425469" lon="11.534035460023487"><ele>392.0</ele><time>2026-04-11T12:41:07.999Z</time></trkpt><trkpt lat="45.43463339361374" lon="11.534116238782616"><ele>392.0</ele><time>2026-04-11T12:41:08.999Z</time></trkpt><trkpt lat="45.43468400879561" lon="11.53422588219323"><ele>392.0</ele><time>2026-04-11T12:41:09.999Z</time></trkpt><trkpt lat="45.43468565767567" lon="11.534364743903307"><ele>392.0</ele><time>2026-04-11T12:41:10.999Z</time></trkpt><trkpt lat="45.43464242408022" lon="11.5344907044319"><ele>392.0</ele><time>2026-04-11T12:41:11.999Z</time></trkpt><trkpt lat="45.43462593782131" lon="11.534615863746188"><ele>394.25</ele><time>2026-04-11T12:41:12.999Z</time></trkpt><trkpt lat="45.43466788276832" lon="11.53472970735658"><ele>396.5</ele><time>2026-04-11T12:41:13.999Z</time></trkpt><trkpt lat="45.43476935763945" lon="11.53480894325904"><ele>398.75</ele><time>2026-04-11T12:41:14.999Z</time></trkpt><trkpt lat="45.4349002804477" lon="11.534863679904214"><ele>401.0</ele><time>2026-04-11T12:41:15.999Z</time></trkpt><trkpt lat="45.43504390069016" lon="11.534906976358975"><ele>401.0</ele><time>2026-04-11T12:41:16.999Z</time></trkpt><trkpt lat="45.435191457545066" lon="11.534914672674061"><ele>401.0</ele><time>2026-04-11T12:41:17.999Z</time></trkpt><trkpt lat="45.43534668924681" lon="11.534872532727958"><ele>401.0</ele><time>2026-04-11T12:41:18.999Z</time></trkpt><trkpt lat="45.43548202728793" lon="11.534821051893534"><ele>401.0</ele><time>2026-04-11T12:41:19.999Z</time></trkpt><trkpt lat="45.43561026147248" lon="11.534783155633056"><ele>402.4</ele><time>2026-04-11T12:41:20.999Z</time></trkpt><trkpt lat="45.435731053937964" lon="11.534765926440691"><ele>403.8</ele><time>2026-04-11T12:41:21.999Z</time></trkpt><trkpt lat="45.43583354956749" lon="11.534787306916044"><ele>405.2</ele><time>2026-04-11T12:41:22.999Z</time></trkpt><trkpt lat="45.43593406106873" lon="11.534859332186327"><ele>406.59999999999997</ele><time>2026-04-11T12:41:23.999Z</time></trkpt><trkpt lat="45.436037168353145" lon="11.534917424781966"><ele>408.0</ele><time>2026-04-11T12:41:24.999Z</time></trkpt><trkpt lat="45.43614963445139" lon="11.534897859537393"><ele>408.0</ele><time>2026-04-11T12:41:25.999Z</time></trkpt><trkpt lat="45.43626540988966" lon="11.534835332654627"><ele>408.0</ele><time>2026-04-11T12:41:26.999Z</time></trkpt><trkpt lat="45.43637310599371" lon="11.5347265635153"><ele>408.0</ele><time>2026-04-11T12:41:27.999Z</time></trkpt><trkpt lat="45.436482409587704" lon="11.534617139513367"><ele>408.0</ele><time>2026-04-11T12:41:28.999Z</time></trkpt><trkpt lat="45.436598111270435" lon="11.534523707785047"><ele>408.2</ele><time>2026-04-11T12:41:29.999Z</time></trkpt><trkpt lat="45.43670141470583" lon="11.53445019378102"><ele>408.4</ele><time>2026-04-11T12:41:30.999Z</time></trkpt><trkpt lat="45.43678940030535" lon="11.534391048660092"><ele>408.59999999999997</ele><time>2026-04-11T12:41:31.999Z</time></trkpt><trkpt lat="45.43686807999101" lon="11.53435572377921"><ele>408.79999999999995</ele><time>2026-04-11T12:41:32.999Z</time></trkpt><trkpt lat="45.43694524817303" lon="11.534356350183259"><ele>409.0</ele><time>2026-04-11T12:41:33.999Z</time></trkpt><trkpt lat="45.43702207281686" lon="11.534393246022617"><ele>409.0</ele><time>2026-04-11T12:41:34.999Z</time></trkpt><trkpt lat="45.437090448266275" lon="11.534458556827715"><ele>409.0</ele><time>2026-04-11T12:41:35.999Z</time></trkpt><trkpt lat="45.437167862608696" lon="11.534517940534375"><ele>409.0</ele><time>2026-04-11T12:41:36.999Z</time></trkpt><trkpt lat="45.437251307822024" lon="11.534589934490777"><ele>409.0</ele><time>2026-04-11T12:41:37.999Z</time></trkpt><trkpt lat="45.43731824995419" lon="11.534694173600622"><ele>409.0</ele><time>2026-04-11T12:41:38.999Z</time></trkpt><trkpt lat="45.43738162024257" lon="11.53481996759131"><ele>409.25</ele><time>2026-04-11T12:41:39.999Z</time></trkpt><trkpt lat="45.43743731795865" lon="11.534972821863631"><ele>409.5</ele><time>2026-04-11T12:41:40.999Z</time></trkpt><trkpt lat="45.437481673947026" lon="11.535125941135579"><ele>409.75</ele><time>2026-04-11T12:41:41.999Z</time></trkpt><trkpt lat="45.43752615379211" lon="11.535277437623163"><ele>410.0</ele><time>2026-04-11T12:41:42.999Z</time></trkpt><trkpt lat="45.43758787962429" lon="11.535427244414487"><ele>410.0</ele><time>2026-04-11T12:41:43.999Z</time></trkpt><trkpt lat="45.437672005323485" lon="11.535565631778928"><ele>410.0</ele><time>2026-04-11T12:41:44.999Z</time></trkpt><trkpt lat="45.437775467290145" lon="11.535665665456138"><ele>410.0</ele><time>2026-04-11T12:41:45.999Z</time></trkpt><trkpt lat="45.43789836023865" lon="11.535744927819708"><ele>410.0</ele><time>2026-04-11T12:41:46.999Z</time></trkpt><trkpt lat="45.438039332403804" lon="11.535797263836983"><ele>406.66666666666663</ele><time>2026-04-11T12:41:47.999Z</time></trkpt><trkpt lat="45.43818661584918" lon="11.535832711361849"><ele>403.33333333333337</ele><time>2026-04-11T12:41:48.999Z</time></trkpt><trkpt lat="45.43834103943434" lon="11.535848299906156"><ele>400.0</ele><time>2026-04-11T12:41:49.999Z</time></trkpt><trkpt lat="45.438492794981634" lon="11.535841800276168"><ele>400.0</ele><time>2026-04-11T12:41:50.999Z</time></trkpt><trkpt lat="45.43865396710238" lon="11.535822170507851"><ele>400.0</ele><time>2026-04-11T12:41:51.999Z</time></trkpt><trkpt lat="45.4388270056067" lon="11.535796684364243"><ele>400.0</ele><time>2026-04-11T12:41:52.998Z</time></trkpt><trkpt lat="45.43899077581563" lon="11.535760420696775"><ele>401.0</ele><time>2026-04-11T12:41:53.998Z</time></trkpt><trkpt lat="45.43914140464881" lon="11.535722814013253"><ele>402.0</ele><time>2026-04-11T12:41:54.998Z</time></trkpt><trkpt lat="45.439279961606516" lon="11.535683848737317"><ele>403.0</ele><time>2026-04-11T12:41:55.998Z</time></trkpt><trkpt lat="45.43940745250132" lon="11.535652444123608"><ele>404.0</ele><time>2026-04-11T12:41:56.998Z</time></trkpt><trkpt lat="45.4395065186046" lon="11.535620570200015"><ele>403.99999999999994</ele><time>2026-04-11T12:41:57.998Z</time></trkpt><trkpt lat="45.43958827782969" lon="11.535582518990399"><ele>404.0</ele><time>2026-04-11T12:41:58.998Z</time></trkpt><trkpt lat="45.43966641205824" lon="11.535580232506927"><ele>404.0</ele><time>2026-04-11T12:41:59.998Z</time></trkpt><trkpt lat="45.43973053261572" lon="11.53562166342975"><ele>404.0</ele><time>2026-04-11T12:42:00.998Z</time></trkpt><trkpt lat="45.4397634480315" lon="11.535717254216172"><ele>403.99999999999994</ele><time>2026-04-11T12:42:01.998Z</time></trkpt><trkpt lat="45.43977502616089" lon="11.535842464862535"><ele>404.0</ele><time>2026-04-11T12:42:02.998Z</time></trkpt><trkpt lat="45.439769577614655" lon="11.535994295738787"><ele>403.79999999999995</ele><time>2026-04-11T12:42:03.998Z</time></trkpt><trkpt lat="45.439775611971164" lon="11.536158030444852"><ele>403.59999999999997</ele><time>2026-04-11T12:42:04.998Z</time></trkpt><trkpt lat="45.43976626741384" lon="11.536324294395122"><ele>403.4</ele><time>2026-04-11T12:42:05.998Z</time></trkpt><trkpt lat="45.439742292569754" lon="11.536477380647696"><ele>403.2</ele><time>2026-04-11T12:42:06.998Z</time></trkpt><trkpt lat="45.439697524609336" lon="11.536601269805997"><ele>403.0</ele><time>2026-04-11T12:42:07.998Z</time></trkpt><trkpt lat="45.4396179030231" lon="11.536692521244957"><ele>401.5</ele><time>2026-04-11T12:42:08.998Z</time></trkpt><trkpt lat="45.4395084066603" lon="11.536733366707917"><ele>400.0</ele><time>2026-04-11T12:42:09.998Z</time></trkpt><trkpt lat="45.439370657258465" lon="11.536765865685618"><ele>398.5</ele><time>2026-04-11T12:42:10.998Z</time></trkpt><trkpt lat="45.43922272667894" lon="11.536805533262465"><ele>397.0</ele><time>2026-04-11T12:42:11.998Z</time></trkpt><trkpt lat="45.439061938133506" lon="11.536885560448669"><ele>397.0</ele><time>2026-04-11T12:42:12.998Z</time></trkpt><trkpt lat="45.43889906744301" lon="11.53701093065135"><ele>397.0</ele><time>2026-04-11T12:42:13.998Z</time></trkpt><trkpt lat="45.4387497254825" lon="11.537148633608536"><ele>397.0</ele><time>2026-04-11T12:42:14.998Z</time></trkpt><trkpt lat="45.438632544135736" lon="11.537282920646215"><ele>396.0</ele><time>2026-04-11T12:42:15.998Z</time></trkpt><trkpt lat="45.43852206481905" lon="11.537444274867317"><ele>395.0</ele><time>2026-04-11T12:42:16.998Z</time></trkpt><trkpt lat="45.438425804525565" lon="11.53763133432802"><ele>394.0</ele><time>2026-04-11T12:42:17.998Z</time></trkpt><trkpt lat="45.438338330866976" lon="11.537830476348498"><ele>392.75</ele><time>2026-04-11T12:42:18.998Z</time></trkpt><trkpt lat="45.43826405679093" lon="11.538048910481393"><ele>391.5</ele><time>2026-04-11T12:42:19.998Z</time></trkpt><trkpt lat="45.438207071845454" lon="11.53824554075018"><ele>390.25</ele><time>2026-04-11T12:42:20.998Z</time></trkpt><trkpt lat="45.43817082636463" lon="11.538418540370463"><ele>389.0</ele><time>2026-04-11T12:42:21.998Z</time></trkpt><trkpt lat="45.438156245630594" lon="11.538577718965632"><ele>387.0</ele><time>2026-04-11T12:42:22.998Z</time></trkpt><trkpt lat="45.438162890924765" lon="11.538766564805666"><ele>385.0</ele><time>2026-04-11T12:42:23.998Z</time></trkpt><trkpt lat="45.438199929715545" lon="11.539003144796848"><ele>383.0</ele><time>2026-04-11T12:42:25Z</time></trkpt><trkpt lat="45.43823699459213" lon="11.539257480660286"><ele>383.0</ele><time>2026-04-11T12:42:26Z</time></trkpt><trkpt lat="45.43826499234889" lon="11.539518633494401"><ele>383.0</ele><time>2026-04-11T12:42:27Z</time></trkpt><trkpt lat="45.438260132842515" lon="11.539773898227676"><ele>383.0</ele><time>2026-04-11T12:42:28Z</time></trkpt><trkpt lat="45.43823207373762" lon="11.540007740820027"><ele>381.5</ele><time>2026-04-11T12:42:29Z</time></trkpt><trkpt lat="45.43818552846701" lon="11.540206936230131"><ele>380.0</ele><time>2026-04-11T12:42:30Z</time></trkpt><trkpt lat="45.43815110496649" lon="11.540397491243912"><ele>378.5</ele><time>2026-04-11T12:42:31Z</time></trkpt><trkpt lat="45.438159435954596" lon="11.540594774834794"><ele>377.0</ele><time>2026-04-11T12:42:32Z</time></trkpt><trkpt lat="45.4382305792625" lon="11.540782548107007"><ele>375.75</ele><time>2026-04-11T12:42:33Z</time></trkpt><trkpt lat="45.438325036990506" lon="11.540970425658003"><ele>374.5</ele><time>2026-04-11T12:42:34Z</time></trkpt><trkpt lat="45.438406511425434" lon="11.541139341818452"><ele>373.25</ele><time>2026-04-11T12:42:35Z</time></trkpt><trkpt lat="45.43849532927326" lon="11.541293108160318"><ele>372.0</ele><time>2026-04-11T12:42:36Z</time></trkpt><trkpt lat="45.43862144874838" lon="11.541419811465486"><ele>371.3333333333333</ele><time>2026-04-11T12:42:37Z</time></trkpt><trkpt lat="45.438779791230196" lon="11.541497734861876"><ele>370.66666666666663</ele><time>2026-04-11T12:42:38Z</time></trkpt><trkpt lat="45.438958944411304" lon="11.54153743229992"><ele>370.0</ele><time>2026-04-11T12:42:39Z</time></trkpt><trkpt lat="45.43913718546476" lon="11.541535021583936"><ele>368.0</ele><time>2026-04-11T12:42:40Z</time></trkpt><trkpt lat="45.43929072301718" lon="11.54152476616699"><ele>366.0</ele><time>2026-04-11T12:42:41Z</time></trkpt><trkpt lat="45.439439889739326" lon="11.541562070767597"><ele>364.0</ele><time>2026-04-11T12:42:42Z</time></trkpt><trkpt lat="45.43960385810914" lon="11.541675634231957"><ele>363.0</ele><time>2026-04-11T12:42:43Z</time></trkpt><trkpt lat="45.43978821160609" lon="11.541787422359905"><ele>362.0</ele><time>2026-04-11T12:42:44Z</time></trkpt><trkpt lat="45.43997428985783" lon="11.541875524477506"><ele>361.0</ele><time>2026-04-11T12:42:45Z</time></trkpt><trkpt lat="45.44013868219545" lon="11.5419528732458"><ele>361.0</ele><time>2026-04-11T12:42:46Z</time></trkpt><trkpt lat="45.44029027716939" lon="11.542026870800523"><ele>361.0</ele><time>2026-04-11T12:42:47Z</time></trkpt><trkpt lat="45.4404337228537" lon="11.542096932757437"><ele>361.0</ele><time>2026-04-11T12:42:48Z</time></trkpt><trkpt lat="45.440587217226344" lon="11.542167133001836"><ele>359.66666666666663</ele><time>2026-04-11T12:42:49Z</time></trkpt><trkpt lat="45.44073929643645" lon="11.542247612211943"><ele>358.3333333333333</ele><time>2026-04-11T12:42:50Z</time></trkpt><trkpt lat="45.440878998805246" lon="11.542317788370339"><ele>357.0</ele><time>2026-04-11T12:42:51Z</time></trkpt><trkpt lat="45.44102020402583" lon="11.542396898354072"><ele>357.0</ele><time>2026-04-11T12:42:52Z</time></trkpt><trkpt lat="45.441161019069476" lon="11.54249154000632"><ele>357.0</ele><time>2026-04-11T12:42:53Z</time></trkpt><trkpt lat="45.4412921042355" lon="11.542601203898856"><ele>357.0</ele><time>2026-04-11T12:42:54Z</time></trkpt><trkpt lat="45.44139706371256" lon="11.542733772800489"><ele>357.0</ele><time>2026-04-11T12:42:55Z</time></trkpt><trkpt lat="45.44148617957395" lon="11.542900717075188"><ele>355.6666666666667</ele><time>2026-04-11T12:42:56Z</time></trkpt><trkpt lat="45.441554100134205" lon="11.543110689968215"><ele>354.33333333333337</ele><time>2026-04-11T12:42:57Z</time></trkpt><trkpt lat="45.44160365294769" lon="11.543343047205882"><ele>353.0</ele><time>2026-04-11T12:42:58Z</time></trkpt><trkpt lat="45.44162100067071" lon="11.543597306934519"><ele>354.0</ele><time>2026-04-11T12:42:59Z</time></trkpt><trkpt lat="45.4416127311492" lon="11.54385894273907"><ele>355.0</ele><time>2026-04-11T12:43:00Z</time></trkpt><trkpt lat="45.44160344653249" lon="11.544104927043238"><ele>356.0</ele><time>2026-04-11T12:43:01Z</time></trkpt><trkpt lat="45.44159743010467" lon="11.544310006781227"><ele>356.0</ele><time>2026-04-11T12:43:02Z</time></trkpt><trkpt lat="45.44156167385369" lon="11.544486155847713"><ele>356.0</ele><time>2026-04-11T12:43:03Z</time></trkpt><trkpt lat="45.44148122929336" lon="11.544664059826818"><ele>356.0</ele><time>2026-04-11T12:43:04Z</time></trkpt><trkpt lat="45.441382966640205" lon="11.544849832164845"><ele>356.0</ele><time>2026-04-11T12:43:05Z</time></trkpt><trkpt lat="45.441283237607855" lon="11.545043761401947"><ele>358.6666666666667</ele><time>2026-04-11T12:43:06Z</time></trkpt><trkpt lat="45.441184202369534" lon="11.545216309791032"><ele>361.3333333333333</ele><time>2026-04-11T12:43:07Z</time></trkpt><trkpt lat="45.44110918995078" lon="11.545409968057248"><ele>364.0</ele><time>2026-04-11T12:43:08Z</time></trkpt><trkpt lat="45.44108249179416" lon="11.54562705388062"><ele>364.0</ele><time>2026-04-11T12:43:08.999Z</time></trkpt><trkpt lat="45.44107012015192" lon="11.545860117664192"><ele>364.0</ele><time>2026-04-11T12:43:09.999Z</time></trkpt><trkpt lat="45.44108989052279" lon="11.546110913795884"><ele>364.0</ele><time>2026-04-11T12:43:10.999Z</time></trkpt><trkpt lat="45.44111609841651" lon="11.546361585217333"><ele>362.3333333333333</ele><time>2026-04-11T12:43:11.999Z</time></trkpt><trkpt lat="45.441145564727904" lon="11.546598040472468"><ele>360.6666666666667</ele><time>2026-04-11T12:43:12.999Z</time></trkpt><trkpt lat="45.4411533323982" lon="11.546816549890428"><ele>359.0</ele><time>2026-04-11T12:43:13.999Z</time></trkpt><trkpt lat="45.44113064679352" lon="11.547016830529666"><ele>359.33333333333337</ele><time>2026-04-11T12:43:14.999Z</time></trkpt><trkpt lat="45.44108282180985" lon="11.54723245215945"><ele>359.6666666666667</ele><time>2026-04-11T12:43:15.999Z</time></trkpt><trkpt lat="45.441022266154164" lon="11.547453205620931"><ele>360.0</ele><time>2026-04-11T12:43:16.999Z</time></trkpt><trkpt lat="45.44097232754266" lon="11.547653282799898"><ele>360.0</ele><time>2026-04-11T12:43:17.999Z</time></trkpt><trkpt lat="45.44094710630247" lon="11.547822218940833"><ele>360.0</ele><time>2026-04-11T12:43:18.999Z</time></trkpt><trkpt lat="45.440944060528956" lon="11.54797300710017"><ele>360.0</ele><time>2026-04-11T12:43:19.999Z</time></trkpt><trkpt lat="45.440979659344244" lon="11.548090582803333"><ele>360.0</ele><time>2026-04-11T12:43:20.999Z</time></trkpt><trkpt lat="45.441047835390044" lon="11.548185389831907"><ele>360.0</ele><time>2026-04-11T12:43:21.999Z</time></trkpt><trkpt lat="45.441121319073446" lon="11.548293890649493"><ele>359.8</ele><time>2026-04-11T12:43:22.999Z</time></trkpt><trkpt lat="45.441158529726174" lon="11.548435626576943"><ele>359.6</ele><time>2026-04-11T12:43:23.999Z</time></trkpt><trkpt lat="45.44114856033518" lon="11.548588336197328"><ele>359.4</ele><time>2026-04-11T12:43:24.999Z</time></trkpt><trkpt lat="45.441094644652644" lon="11.548719134558796"><ele>359.2</ele><time>2026-04-11T12:43:25.999Z</time></trkpt><trkpt lat="45.44102253896233" lon="11.548834237341772"><ele>359.0</ele><time>2026-04-11T12:43:26.999Z</time></trkpt><trkpt lat="45.440949198509486" lon="11.548946624658035"><ele>358.6</ele><time>2026-04-11T12:43:27.999Z</time></trkpt><trkpt lat="45.440879149047056" lon="11.54905210775179"><ele>358.2</ele><time>2026-04-11T12:43:28.999Z</time></trkpt><trkpt lat="45.44082420277204" lon="11.549146202873388"><ele>357.8</ele><time>2026-04-11T12:43:29.999Z</time></trkpt><trkpt lat="45.44079484830909" lon="11.54926610056029"><ele>357.40000000000003</ele><time>2026-04-11T12:43:30.999Z</time></trkpt><trkpt lat="45.44079469382278" lon="11.549419274295444"><ele>357.0</ele><time>2026-04-11T12:43:31.999Z</time></trkpt><trkpt lat="45.44081672597255" lon="11.549618049048188"><ele>357.0</ele><time>2026-04-11T12:43:32.999Z</time></trkpt><trkpt lat="45.440811252849585" lon="11.549812659031295"><ele>357.0</ele><time>2026-04-11T12:43:33.999Z</time></trkpt><trkpt lat="45.440763683324114" lon="11.549985708693855"><ele>357.0</ele><time>2026-04-11T12:43:34.999Z</time></trkpt><trkpt lat="45.440686587533705" lon="11.550124579202778"><ele>357.0</ele><time>2026-04-11T12:43:35.999Z</time></trkpt><trkpt lat="45.44057298906266" lon="11.550231825225534"><ele>357.0</ele><time>2026-04-11T12:43:36.999Z</time></trkpt><trkpt lat="45.440482941243275" lon="11.55031789928297"><ele>357.0</ele><time>2026-04-11T12:43:37.999Z</time></trkpt><trkpt lat="45.44042874174427" lon="11.55043871803966"><ele>357.0</ele><time>2026-04-11T12:43:38.999Z</time></trkpt><trkpt lat="45.440415872496565" lon="11.55060647541687"><ele>357.0</ele><time>2026-04-11T12:43:39.999Z</time></trkpt><trkpt lat="45.44043892041244" lon="11.550831642259078"><ele>357.3333333333333</ele><time>2026-04-11T12:43:40.999Z</time></trkpt><trkpt lat="45.44047498770455" lon="11.55107276847621"><ele>357.66666666666663</ele><time>2026-04-11T12:43:41.999Z</time></trkpt><trkpt lat="45.44046642835519" lon="11.55132023911516"><ele>358.0</ele><time>2026-04-11T12:43:42.999Z</time></trkpt><trkpt lat="45.44042987277056" lon="11.551539288602203"><ele>353.66666666666663</ele><time>2026-04-11T12:43:43.999Z</time></trkpt><trkpt lat="45.44040174334067" lon="11.551735198804595"><ele>349.3333333333333</ele><time>2026-04-11T12:43:44.999Z</time></trkpt><trkpt lat="45.440391347562084" lon="11.551943656473226"><ele>345.0</ele><time>2026-04-11T12:43:45.999Z</time></trkpt><trkpt lat="45.44040256424926" lon="11.55217821412507"><ele>342.3333333333333</ele><time>2026-04-11T12:43:46.999Z</time></trkpt><trkpt lat="45.4404392045826" lon="11.552427716142176"><ele>339.66666666666663</ele><time>2026-04-11T12:43:47.999Z</time></trkpt><trkpt lat="45.440462713910286" lon="11.55267784053058"><ele>337.0</ele><time>2026-04-11T12:43:48.999Z</time></trkpt><trkpt lat="45.440451883841334" lon="11.55292384870557"><ele>333.66666666666663</ele><time>2026-04-11T12:43:49.999Z</time></trkpt><trkpt lat="45.4404387858891" lon="11.553154679488046"><ele>330.3333333333333</ele><time>2026-04-11T12:43:50.999Z</time></trkpt><trkpt lat="45.440437957673225" lon="11.553379239606407"><ele>327.0</ele><time>2026-04-11T12:43:51.999Z</time></trkpt><trkpt lat="45.44045089255565" lon="11.553615942027866"><ele>326.5</ele><time>2026-04-11T12:43:52.999Z</time></trkpt><trkpt lat="45.44047652587311" lon="11.553837700051712"><ele>326.0</ele><time>2026-04-11T12:43:53.999Z</time></trkpt><trkpt lat="45.44050202017347" lon="11.554031197006626"><ele>325.5</ele><time>2026-04-11T12:43:54.999Z</time></trkpt><trkpt lat="45.44051714124343" lon="11.554188659413063"><ele>325.0</ele><time>2026-04-11T12:43:55.999Z</time></trkpt><trkpt lat="45.4405040865616" lon="11.554340832893566"><ele>324.0</ele><time>2026-04-11T12:43:56.999Z</time></trkpt><trkpt lat="45.440445969506676" lon="11.554487022795414"><ele>323.0</ele><time>2026-04-11T12:43:57.999Z</time></trkpt><trkpt lat="45.440344566610435" lon="11.554612540053139"><ele>322.0</ele><time>2026-04-11T12:43:58.999Z</time></trkpt><trkpt lat="45.44021380895343" lon="11.554735902426387"><ele>321.0</ele><time>2026-04-11T12:43:59.998Z</time></trkpt><trkpt lat="45.44007241402257" lon="11.554870877994476"><ele>321.0</ele><time>2026-04-11T12:44:00.998Z</time></trkpt><trkpt lat="45.43993574084891" lon="11.555014843084725"><ele>321.0</ele><time>2026-04-11T12:44:01.998Z</time></trkpt><trkpt lat="45.43980789610929" lon="11.555152148794017"><ele>321.0</ele><time>2026-04-11T12:44:02.998Z</time></trkpt><trkpt lat="45.43968621620596" lon="11.55527724366204"><ele>317.3333333333333</ele><time>2026-04-11T12:44:03.998Z</time></trkpt><trkpt lat="45.439569236577384" lon="11.555420998399228"><ele>313.66666666666663</ele><time>2026-04-11T12:44:04.998Z</time></trkpt><trkpt lat="45.439466618755375" lon="11.55559899196106"><ele>310.0</ele><time>2026-04-11T12:44:05.998Z</time></trkpt><trkpt lat="45.439378041849814" lon="11.555792557215364"><ele>310.0</ele><time>2026-04-11T12:44:06.998Z</time></trkpt><trkpt lat="45.43928722649572" lon="11.555975853222169"><ele>310.0</ele><time>2026-04-11T12:44:07.998Z</time></trkpt><trkpt lat="45.43918691616686" lon="11.556122762387009"><ele>310.0</ele><time>2026-04-11T12:44:08.998Z</time></trkpt><trkpt lat="45.439083740098994" lon="11.556248083722544"><ele>310.0</ele><time>2026-04-11T12:44:09.998Z</time></trkpt><trkpt lat="45.438994971241755" lon="11.55637350463087"><ele>310.25</ele><time>2026-04-11T12:44:10.998Z</time></trkpt><trkpt lat="45.4389307561645" lon="11.556520254930401"><ele>310.5</ele><time>2026-04-11T12:44:11.998Z</time></trkpt><trkpt lat="45.43888563194189" lon="11.556684848382552"><ele>310.75</ele><time>2026-04-11T12:44:12.998Z</time></trkpt><trkpt lat="45.43886025221485" lon="11.55685316031289"><ele>311.0</ele><time>2026-04-11T12:44:13.998Z</time></trkpt><trkpt lat="45.43883963305652" lon="11.557007810226237"><ele>310.33333333333337</ele><time>2026-04-11T12:44:14.998Z</time></trkpt><trkpt lat="45.438810553765144" lon="11.557132497398568"><ele>309.6666666666667</ele><time>2026-04-11T12:44:15.998Z</time></trkpt><trkpt lat="45.43877458037072" lon="11.557225549510038"><ele>309.0</ele><time>2026-04-11T12:44:16.998Z</time></trkpt><trkpt lat="45.43871909468418" lon="11.557356859399357"><ele>308.3333333333333</ele><time>2026-04-11T12:44:18.998Z</time></trkpt><trkpt lat="45.43876713919549" lon="11.557422096767374"><ele>307.66666666666663</ele><time>2026-04-11T12:44:20.998Z</time></trkpt><trkpt lat="45.43884426152676" lon="11.55737336521401"><ele>307.0</ele><time>2026-04-11T12:44:22.998Z</time></trkpt><trkpt lat="45.43889663364047" lon="11.557314024174293"><ele>306.66666666666663</ele><time>2026-04-11T12:44:23.998Z</time></trkpt><trkpt lat="45.43895818508005" lon="11.55724223732936"><ele>306.3333333333333</ele><time>2026-04-11T12:44:24.998Z</time></trkpt><trkpt lat="45.43902101310174" lon="11.557162420766197"><ele>306.0</ele><time>2026-04-11T12:44:25.998Z</time></trkpt><trkpt lat="45.439077752548314" lon="11.55707477770496"><ele>305.6666666666667</ele><time>2026-04-11T12:44:26.998Z</time></trkpt><trkpt lat="45.439126850260266" lon="11.556987952355104"><ele>305.33333333333337</ele><time>2026-04-11T12:44:27.998Z</time></trkpt><trkpt lat="45.43917597964618" lon="11.556913573788727"><ele>305.0</ele><time>2026-04-11T12:44:28.998Z</time></trkpt><trkpt lat="45.43924234469864" lon="11.556849475605539"><ele>306.5</ele><time>2026-04-11T12:44:29.998Z</time></trkpt><trkpt lat="45.43932277342844" lon="11.556792600481703"><ele>308.0</ele><time>2026-04-11T12:44:31Z</time></trkpt><trkpt lat="45.43942472063484" lon="11.556727527631791"><ele>309.5</ele><time>2026-04-11T12:44:32Z</time></trkpt><trkpt lat="45.43952899562546" lon="11.556653419011726"><ele>311.0</ele><time>2026-04-11T12:44:33Z</time></trkpt><trkpt lat="45.439650129021345" lon="11.556575017315044"><ele>311.0</ele><time>2026-04-11T12:44:34Z</time></trkpt><trkpt lat="45.439780039552986" lon="11.556506424908326"><ele>311.0</ele><time>2026-04-11T12:44:35Z</time></trkpt><trkpt lat="45.43991730193886" lon="11.556460337505271"><ele>311.0</ele><time>2026-04-11T12:44:36Z</time></trkpt><trkpt lat="45.440063238854584" lon="11.556443347492664"><ele>311.0</ele><time>2026-04-11T12:44:37Z</time></trkpt><trkpt lat="45.440217927642195" lon="11.556430085093746"><ele>311.0</ele><time>2026-04-11T12:44:38Z</time></trkpt><trkpt lat="45.44038447105854" lon="11.556373461857314"><ele>311.0</ele><time>2026-04-11T12:44:39Z</time></trkpt><trkpt lat="45.44053414756694" lon="11.556278749451467"><ele>311.0</ele><time>2026-04-11T12:44:40Z</time></trkpt><trkpt lat="45.44066905385025" lon="11.556175680468565"><ele>312.25</ele><time>2026-04-11T12:44:41Z</time></trkpt><trkpt lat="45.44078183720759" lon="11.556072937700531"><ele>313.5</ele><time>2026-04-11T12:44:42Z</time></trkpt><trkpt lat="45.44087778551659" lon="11.555940719294025"><ele>314.75</ele><time>2026-04-11T12:44:43Z</time></trkpt><trkpt lat="45.44096979734644" lon="11.555772122072243"><ele>316.0</ele><time>2026-04-11T12:44:44Z</time></trkpt><trkpt lat="45.441069913016115" lon="11.555631272907233"><ele>316.0</ele><time>2026-04-11T12:44:45Z</time></trkpt><trkpt lat="45.44116893976354" lon="11.555526354095276"><ele>316.0</ele><time>2026-04-11T12:44:46Z</time></trkpt><trkpt lat="45.44124066926789" lon="11.555412469441213"><ele>316.0</ele><time>2026-04-11T12:44:47Z</time></trkpt><trkpt lat="45.44128903169609" lon="11.555261868502539"><ele>316.0</ele><time>2026-04-11T12:44:48Z</time></trkpt><trkpt lat="45.441316485734205" lon="11.555073513307788"><ele>316.25</ele><time>2026-04-11T12:44:49Z</time></trkpt><trkpt lat="45.44134154551593" lon="11.554887858307884"><ele>316.5</ele><time>2026-04-11T12:44:50Z</time></trkpt><trkpt lat="45.4413794518861" lon="11.55473499549734"><ele>316.75</ele><time>2026-04-11T12:44:51Z</time></trkpt><trkpt lat="45.441452704610775" lon="11.55461628401106"><ele>317.0</ele><time>2026-04-11T12:44:52Z</time></trkpt><trkpt lat="45.441551980764785" lon="11.55452602376004"><ele>317.0</ele><time>2026-04-11T12:44:53Z</time></trkpt><trkpt lat="45.44166115427681" lon="11.554488511387452"><ele>317.0</ele><time>2026-04-11T12:44:54Z</time></trkpt><trkpt lat="45.44178306537411" lon="11.55446651278791"><ele>317.0</ele><time>2026-04-11T12:44:55Z</time></trkpt><trkpt lat="45.44191297644983" lon="11.554463567293544"><ele>317.0</ele><time>2026-04-11T12:44:56Z</time></trkpt><trkpt lat="45.4420428368082" lon="11.554480980627389"><ele>317.0</ele><time>2026-04-11T12:44:57Z</time></trkpt><trkpt lat="45.442142375673185" lon="11.554508986829498"><ele>317.0</ele><time>2026-04-11T12:44:58Z</time></trkpt><trkpt lat="45.442202498932524" lon="11.55456349132791"><ele>317.0</ele><time>2026-04-11T12:44:59Z</time></trkpt><trkpt lat="45.44225302940414" lon="11.55464523221736"><ele>317.0</ele><time>2026-04-11T12:45:00Z</time></trkpt><trkpt lat="45.4423046339503" lon="11.554757628086211"><ele>317.0</ele><time>2026-04-11T12:45:01Z</time></trkpt><trkpt lat="45.442356714205104" lon="11.554898238586057"><ele>317.0</ele><time>2026-04-11T12:45:02Z</time></trkpt><trkpt lat="45.44240178300968" lon="11.555049265768933"><ele>317.0</ele><time>2026-04-11T12:45:03Z</time></trkpt><trkpt lat="45.44243416751451" lon="11.555208986163501"><ele>317.0</ele><time>2026-04-11T12:45:04Z</time></trkpt><trkpt lat="45.442455552060736" lon="11.55537974243263"><ele>317.0</ele><time>2026-04-11T12:45:05Z</time></trkpt><trkpt lat="45.44245723012121" lon="11.555557530644164"><ele>317.0</ele><time>2026-04-11T12:45:06Z</time></trkpt><trkpt lat="45.44245206784315" lon="11.55575343105563"><ele>317.0</ele><time>2026-04-11T12:45:07Z</time></trkpt><trkpt lat="45.44245113703648" lon="11.555932631183419"><ele>317.0</ele><time>2026-04-11T12:45:08Z</time></trkpt><trkpt lat="45.44246898514001" lon="11.556088510431293"><ele>317.0</ele><time>2026-04-11T12:45:09Z</time></trkpt><trkpt lat="45.44252056416189" lon="11.556224729673877"><ele>315.25</ele><time>2026-04-11T12:45:10Z</time></trkpt><trkpt lat="45.4426122379732" lon="11.556373389252807"><ele>313.5</ele><time>2026-04-11T12:45:11Z</time></trkpt><trkpt lat="45.442706510101104" lon="11.556524927034815"><ele>311.75</ele><time>2026-04-11T12:45:12Z</time></trkpt><trkpt lat="45.44279446168172" lon="11.556691145796558"><ele>310.0</ele><time>2026-04-11T12:45:13Z</time></trkpt><trkpt lat="45.44286806354139" lon="11.556828282808612"><ele>310.0</ele><time>2026-04-11T12:45:14Z</time></trkpt><trkpt lat="45.44295110374836" lon="11.556928211593732"><ele>310.0</ele><time>2026-04-11T12:45:15Z</time></trkpt><trkpt lat="45.44305864029932" lon="11.556991606408413"><ele>310.0</ele><time>2026-04-11T12:45:15.999Z</time></trkpt><trkpt lat="45.44319445690139" lon="11.557034386300176"><ele>310.0</ele><time>2026-04-11T12:45:16.999Z</time></trkpt><trkpt lat="45.44334301840121" lon="11.55706953370559"><ele>310.25</ele><time>2026-04-11T12:45:17.999Z</time></trkpt><trkpt lat="45.44348938726991" lon="11.557123033025572"><ele>310.5</ele><time>2026-04-11T12:45:18.999Z</time></trkpt><trkpt lat="45.443621584972604" lon="11.557189502550976"><ele>310.75</ele><time>2026-04-11T12:45:19.999Z</time></trkpt><trkpt lat="45.44373613982538" lon="11.557225678267443"><ele>311.0</ele><time>2026-04-11T12:45:20.999Z</time></trkpt><trkpt lat="45.44386003102567" lon="11.557236663897944"><ele>311.75</ele><time>2026-04-11T12:45:21.999Z</time></trkpt><trkpt lat="45.44399450718092" lon="11.557204501144492"><ele>312.5</ele><time>2026-04-11T12:45:22.999Z</time></trkpt><trkpt lat="45.44412267846727" lon="11.557172937682406"><ele>313.25</ele><time>2026-04-11T12:45:23.999Z</time></trkpt><trkpt lat="45.444240754824044" lon="11.557121750736433"><ele>314.0</ele><time>2026-04-11T12:45:24.999Z</time></trkpt><trkpt lat="45.44435571211368" lon="11.557026931224074"><ele>316.0</ele><time>2026-04-11T12:45:25.999Z</time></trkpt><trkpt lat="45.44448336047285" lon="11.556913929191888"><ele>318.0</ele><time>2026-04-11T12:45:26.999Z</time></trkpt><trkpt lat="45.44461713545538" lon="11.55683427098344"><ele>320.0</ele><time>2026-04-11T12:45:27.999Z</time></trkpt><trkpt lat="45.44473092850201" lon="11.556785991759558"><ele>322.0</ele><time>2026-04-11T12:45:28.999Z</time></trkpt><trkpt lat="45.44483151284028" lon="11.55676503750099"><ele>322.0</ele><time>2026-04-11T12:45:29.999Z</time></trkpt><trkpt lat="45.44493163294331" lon="11.556787196442011"><ele>322.0</ele><time>2026-04-11T12:45:30.999Z</time></trkpt><trkpt lat="45.445009809716176" lon="11.556885920519862"><ele>322.0</ele><time>2026-04-11T12:45:31.999Z</time></trkpt><trkpt lat="45.4450568351985" lon="11.557020069428983"><ele>322.0</ele><time>2026-04-11T12:45:32.999Z</time></trkpt><trkpt lat="45.44513291661254" lon="11.557158066169322"><ele>322.0</ele><time>2026-04-11T12:45:33.999Z</time></trkpt><trkpt lat="45.445226893155215" lon="11.557289960741691"><ele>321.0</ele><time>2026-04-11T12:45:34.999Z</time></trkpt><trkpt lat="45.445311584475704" lon="11.557414547585992"><ele>320.0</ele><time>2026-04-11T12:45:35.999Z</time></trkpt><trkpt lat="45.445413808011004" lon="11.557514571759429"><ele>319.0</ele><time>2026-04-11T12:45:36.999Z</time></trkpt><trkpt lat="45.445529426074295" lon="11.557613887759548"><ele>318.0</ele><time>2026-04-11T12:45:37.999Z</time></trkpt><trkpt lat="45.445642983080795" lon="11.557698311923922"><ele>318.0</ele><time>2026-04-11T12:45:38.999Z</time></trkpt><trkpt lat="45.44575765900889" lon="11.557739471473731"><ele>318.0</ele><time>2026-04-11T12:45:39.999Z</time></trkpt><trkpt lat="45.4458620661002" lon="11.55772337652615"><ele>318.0</ele><time>2026-04-11T12:45:40.999Z</time></trkpt><trkpt lat="45.44595458300433" lon="11.557657708149058"><ele>318.0</ele><time>2026-04-11T12:45:41.999Z</time></trkpt><trkpt lat="45.44603568299714" lon="11.55756784628168"><ele>318.0</ele><time>2026-04-11T12:45:42.999Z</time></trkpt><trkpt lat="45.446120547311075" lon="11.557463668012542"><ele>318.0</ele><time>2026-04-11T12:45:43.999Z</time></trkpt><trkpt lat="45.44621891417257" lon="11.55736980881909"><ele>318.0</ele><time>2026-04-11T12:45:44.999Z</time></trkpt><trkpt lat="45.44632026032598" lon="11.557304108446358"><ele>318.0</ele><time>2026-04-11T12:45:45.999Z</time></trkpt><trkpt lat="45.44643494749591" lon="11.55730421148715"><ele>318.0</ele><time>2026-04-11T12:45:46.999Z</time></trkpt><trkpt lat="45.446543064163976" lon="11.557333848233046"><ele>319.75</ele><time>2026-04-11T12:45:47.999Z</time></trkpt><trkpt lat="45.44665667528289" lon="11.557346591929804"><ele>321.5</ele><time>2026-04-11T12:45:48.999Z</time></trkpt><trkpt lat="45.44677423371387" lon="11.557396897417815"><ele>323.25</ele><time>2026-04-11T12:45:49.999Z</time></trkpt><trkpt lat="45.44689677698745" lon="11.55743880847145"><ele>325.0</ele><time>2026-04-11T12:45:50.999Z</time></trkpt><trkpt lat="45.447021929706494" lon="11.557473664714482"><ele>326.75</ele><time>2026-04-11T12:45:51.999Z</time></trkpt><trkpt lat="45.44714683380086" lon="11.55750318779946"><ele>328.5</ele><time>2026-04-11T12:45:52.999Z</time></trkpt><trkpt lat="45.44727229006964" lon="11.557526822092203"><ele>330.25</ele><time>2026-04-11T12:45:53.999Z</time></trkpt><trkpt lat="45.447401877730904" lon="11.557544916389618"><ele>332.0</ele><time>2026-04-11T12:45:54.999Z</time></trkpt><trkpt lat="45.44754043247395" lon="11.557557806210765"><ele>332.0</ele><time>2026-04-11T12:45:55.999Z</time></trkpt><trkpt lat="45.44768524055636" lon="11.557568342365972"><ele>332.0</ele><time>2026-04-11T12:45:56.999Z</time></trkpt><trkpt lat="45.44784459530777" lon="11.557596349958304"><ele>332.0</ele><time>2026-04-11T12:45:57.999Z</time></trkpt><trkpt lat="45.44801094693664" lon="11.557647935533382"><ele>332.0</ele><time>2026-04-11T12:45:58.999Z</time></trkpt><trkpt lat="45.448186495284105" lon="11.55769583060375"><ele>332.0</ele><time>2026-04-11T12:45:59.999Z</time></trkpt><trkpt lat="45.44835811714966" lon="11.557717836898654"><ele>332.0</ele><time>2026-04-11T12:46:00.999Z</time></trkpt><trkpt lat="45.44851784964696" lon="11.557713294429501"><ele>332.0</ele><time>2026-04-11T12:46:01.999Z</time></trkpt><trkpt lat="45.44867877909547" lon="11.557685810908632"><ele>332.0</ele><time>2026-04-11T12:46:02.999Z</time></trkpt><trkpt lat="45.4488362984634" lon="11.557621005400417"><ele>332.0</ele><time>2026-04-11T12:46:03.998Z</time></trkpt><trkpt lat="45.448978118308766" lon="11.557519633652285"><ele>333.6666666666667</ele><time>2026-04-11T12:46:04.998Z</time></trkpt><trkpt lat="45.449098262471416" lon="11.557397349809488"><ele>335.3333333333333</ele><time>2026-04-11T12:46:05.998Z</time></trkpt><trkpt lat="45.449223064323036" lon="11.557243595487183"><ele>337.0</ele><time>2026-04-11T12:46:06.998Z</time></trkpt><trkpt lat="45.44938907902719" lon="11.557124310135702"><ele>337.0</ele><time>2026-04-11T12:46:07.998Z</time></trkpt><trkpt lat="45.449567259985734" lon="11.557009875524384"><ele>337.0</ele><time>2026-04-11T12:46:08.998Z</time></trkpt><trkpt lat="45.44973021499958" lon="11.55686928193338"><ele>337.0</ele><time>2026-04-11T12:46:09.998Z</time></trkpt><trkpt lat="45.44987460446193" lon="11.556712274798265"><ele>337.0</ele><time>2026-04-11T12:46:10.998Z</time></trkpt><trkpt lat="45.45000854243725" lon="11.556537426283038"><ele>337.0</ele><time>2026-04-11T12:46:11.998Z</time></trkpt><trkpt lat="45.450120763139296" lon="11.556373905705744"><ele>337.0</ele><time>2026-04-11T12:46:12.998Z</time></trkpt><trkpt lat="45.450223015321995" lon="11.556230003647476"><ele>334.75</ele><time>2026-04-11T12:46:13.998Z</time></trkpt><trkpt lat="45.450339435408736" lon="11.55614171828145"><ele>332.5</ele><time>2026-04-11T12:46:14.998Z</time></trkpt><trkpt lat="45.450453469809666" lon="11.556044925696902"><ele>330.25</ele><time>2026-04-11T12:46:15.998Z</time></trkpt><trkpt lat="45.45059905851011" lon="11.555989981754761"><ele>328.0</ele><time>2026-04-11T12:46:16.998Z</time></trkpt><trkpt lat="45.45075243122456" lon="11.555940217532383"><ele>328.0</ele><time>2026-04-11T12:46:17.998Z</time></trkpt><trkpt lat="45.4509048623714" lon="11.55589844865911"><ele>328.0</ele><time>2026-04-11T12:46:18.998Z</time></trkpt><trkpt lat="45.45102722495817" lon="11.555886076254756"><ele>328.0</ele><time>2026-04-11T12:46:19.998Z</time></trkpt><trkpt lat="45.45112999261113" lon="11.555888336011497"><ele>328.0</ele><time>2026-04-11T12:46:20.998Z</time></trkpt><trkpt lat="45.451213485442366" lon="11.55592690428902"><ele>328.0</ele><time>2026-04-11T12:46:21.998Z</time></trkpt><trkpt lat="45.45128121152242" lon="11.556049594629899"><ele>328.0</ele><time>2026-04-11T12:46:22.998Z</time></trkpt><trkpt lat="45.4513790044487" lon="11.556160805592361"><ele>328.0</ele><time>2026-04-11T12:46:23.998Z</time></trkpt><trkpt lat="45.45149462280475" lon="11.556253946936854"><ele>328.0</ele><time>2026-04-11T12:46:24.998Z</time></trkpt><trkpt lat="45.451635565015856" lon="11.556292107905962"><ele>327.5</ele><time>2026-04-11T12:46:25.998Z</time></trkpt><trkpt lat="45.451777266794096" lon="11.556260027470389"><ele>327.0</ele><time>2026-04-11T12:46:26.998Z</time></trkpt><trkpt lat="45.451907430681416" lon="11.556187988548878"><ele>326.5</ele><time>2026-04-11T12:46:27.998Z</time></trkpt><trkpt lat="45.452018345971986" lon="11.55614121167257"><ele>326.0</ele><time>2026-04-11T12:46:28.998Z</time></trkpt><trkpt lat="45.45211770180392" lon="11.556151811601978"><ele>328.75</ele><time>2026-04-11T12:46:29.998Z</time></trkpt><trkpt lat="45.45220237713888" lon="11.556238000203052"><ele>331.5</ele><time>2026-04-11T12:46:30.998Z</time></trkpt><trkpt lat="45.452326389291166" lon="11.556296669356596"><ele>334.25</ele><time>2026-04-11T12:46:31.998Z</time></trkpt><trkpt lat="45.45244995115194" lon="11.55637996517358"><ele>337.0</ele><time>2026-04-11T12:46:32.998Z</time></trkpt><trkpt lat="45.452574594547066" lon="11.556413988860605"><ele>337.0</ele><time>2026-04-11T12:46:33.998Z</time></trkpt><trkpt lat="45.45268750409824" lon="11.55639472824101"><ele>337.0</ele><time>2026-04-11T12:46:34.998Z</time></trkpt><trkpt lat="45.452790237327356" lon="11.556311286110926"><ele>337.0</ele><time>2026-04-11T12:46:35.998Z</time></trkpt><trkpt lat="45.45287241496584" lon="11.556173880058655"><ele>337.0</ele><time>2026-04-11T12:46:37Z</time></trkpt><trkpt lat="45.45293415243109" lon="11.55600102869039"><ele>338.0</ele><time>2026-04-11T12:46:38Z</time></trkpt><trkpt lat="45.452987076040834" lon="11.555804999859914"><ele>339.0</ele><time>2026-04-11T12:46:39Z</time></trkpt><trkpt lat="45.45305524565737" lon="11.55564135737397"><ele>340.0</ele><time>2026-04-11T12:46:40Z</time></trkpt><trkpt lat="45.453123718557734" lon="11.555521469039872"><ele>341.0</ele><time>2026-04-11T12:46:41Z</time></trkpt><trkpt lat="45.45319798178075" lon="11.555443390965788"><ele>341.0</ele><time>2026-04-11T12:46:42Z</time></trkpt><trkpt lat="45.45329161197022" lon="11.555402556849272"><ele>341.0</ele><time>2026-04-11T12:46:43Z</time></trkpt><trkpt lat="45.45341354732543" lon="11.555399734917057"><ele>341.0</ele><time>2026-04-11T12:46:44Z</time></trkpt><trkpt lat="45.45352873096636" lon="11.555374791166104"><ele>341.0</ele><time>2026-04-11T12:46:45Z</time></trkpt><trkpt lat="45.45361242340963" lon="11.555420269653707"><ele>341.0</ele><time>2026-04-11T12:46:46Z</time></trkpt><trkpt lat="45.45366941465363" lon="11.55551073906615"><ele>341.0</ele><time>2026-04-11T12:46:47Z</time></trkpt><trkpt lat="45.45368185808527" lon="11.555670432208416"><ele>341.0</ele><time>2026-04-11T12:46:48Z</time></trkpt><trkpt lat="45.45373877554186" lon="11.555835132417421"><ele>341.0</ele><time>2026-04-11T12:46:49Z</time></trkpt><trkpt lat="45.45377028179311" lon="11.555999481437308"><ele>341.0</ele><time>2026-04-11T12:46:50Z</time></trkpt><trkpt lat="45.45383894318546" lon="11.556112827898197"><ele>340.5</ele><time>2026-04-11T12:46:51Z</time></trkpt><trkpt lat="45.45393728306041" lon="11.55619762178419"><ele>340.0</ele><time>2026-04-11T12:46:52Z</time></trkpt><trkpt lat="45.454055862117244" lon="11.556251219267951"><ele>339.5</ele><time>2026-04-11T12:46:53Z</time></trkpt><trkpt lat="45.45418841139068" lon="11.55624867419299"><ele>339.0</ele><time>2026-04-11T12:46:54Z</time></trkpt><trkpt lat="45.45432372707952" lon="11.55619911605483"><ele>337.79999999999995</ele><time>2026-04-11T12:46:55Z</time></trkpt><trkpt lat="45.454438047896176" lon="11.55613702334884"><ele>336.59999999999997</ele><time>2026-04-11T12:46:56Z</time></trkpt><trkpt lat="45.45454738937323" lon="11.556149009612636"><ele>335.4</ele><time>2026-04-11T12:46:57Z</time></trkpt><trkpt lat="45.45465315111313" lon="11.556189830262545"><ele>334.2</ele><time>2026-04-11T12:46:58Z</time></trkpt><trkpt lat="45.454741554771836" lon="11.556245215028502"><ele>333.0</ele><time>2026-04-11T12:46:59Z</time></trkpt><trkpt lat="45.45483330794524" lon="11.55631808008773"><ele>331.79999999999995</ele><time>2026-04-11T12:47:00Z</time></trkpt><trkpt lat="45.45490230919787" lon="11.55642592492924"><ele>330.6</ele><time>2026-04-11T12:47:01Z</time></trkpt><trkpt lat="45.4549560301967" lon="11.556532515260258"><ele>329.4</ele><time>2026-04-11T12:47:02Z</time></trkpt><trkpt lat="45.455007250197575" lon="11.556633895599587"><ele>328.20000000000005</ele><time>2026-04-11T12:47:03Z</time></trkpt><trkpt lat="45.45507747124535" lon="11.556733399241505"><ele>327.0</ele><time>2026-04-11T12:47:04Z</time></trkpt><trkpt lat="45.45516474361479" lon="11.556816108988635"><ele>327.0</ele><time>2026-04-11T12:47:05Z</time></trkpt><trkpt lat="45.455255331302894" lon="11.556901155187367"><ele>327.0</ele><time>2026-04-11T12:47:06Z</time></trkpt><trkpt lat="45.455328751553566" lon="11.556991596395935"><ele>327.0</ele><time>2026-04-11T12:47:07Z</time></trkpt><trkpt lat="45.45537611321216" lon="11.557086888976935"><ele>327.0</ele><time>2026-04-11T12:47:08Z</time></trkpt><trkpt lat="45.45539897690796" lon="11.557202769468988"><ele>327.0</ele><time>2026-04-11T12:47:09Z</time></trkpt><trkpt lat="45.455388219043215" lon="11.557340732605285"><ele>327.6</ele><time>2026-04-11T12:47:10Z</time></trkpt><trkpt lat="45.455356119972976" lon="11.557481286462519"><ele>328.20000000000005</ele><time>2026-04-11T12:47:11Z</time></trkpt><trkpt lat="45.455321490800124" lon="11.55762710376545"><ele>328.8</ele><time>2026-04-11T12:47:12Z</time></trkpt><trkpt lat="45.45532048395057" lon="11.55778919665147"><ele>329.4</ele><time>2026-04-11T12:47:13Z</time></trkpt><trkpt lat="45.455362449940864" lon="11.557942300547753"><ele>330.0</ele><time>2026-04-11T12:47:14Z</time></trkpt><trkpt lat="45.45545238855255" lon="11.558063104439473"><ele>330.25</ele><time>2026-04-11T12:47:15Z</time></trkpt><trkpt lat="45.45556474586615" lon="11.558160477997571"><ele>330.5</ele><time>2026-04-11T12:47:15.999Z</time></trkpt><trkpt lat="45.45570412043756" lon="11.558224503960854"><ele>330.75</ele><time>2026-04-11T12:47:16.999Z</time></trkpt><trkpt lat="45.455849952013416" lon="11.558290256630357"><ele>331.0</ele><time>2026-04-11T12:47:17.999Z</time></trkpt><trkpt lat="45.456000443744315" lon="11.55835891758"><ele>331.0</ele><time>2026-04-11T12:47:18.999Z</time></trkpt><trkpt lat="45.456161173208876" lon="11.558431025460127"><ele>331.0</ele><time>2026-04-11T12:47:19.999Z</time></trkpt><trkpt lat="45.45633918859018" lon="11.558501291381457"><ele>331.0</ele><time>2026-04-11T12:47:20.999Z</time></trkpt><trkpt lat="45.456527350407804" lon="11.55854279495161"><ele>328.3333333333333</ele><time>2026-04-11T12:47:21.999Z</time></trkpt><trkpt lat="45.456725300438436" lon="11.558577982708437"><ele>325.6666666666667</ele><time>2026-04-11T12:47:22.999Z</time></trkpt><trkpt lat="45.45691618639026" lon="11.558611722508711"><ele>323.0</ele><time>2026-04-11T12:47:23.999Z</time></trkpt><trkpt lat="45.45709114793001" lon="11.558633232988067"><ele>321.5</ele><time>2026-04-11T12:47:24.999Z</time></trkpt><trkpt lat="45.45724302158485" lon="11.558644861196631"><ele>320.0</ele><time>2026-04-11T12:47:25.999Z</time></trkpt><trkpt lat="45.457383681088814" lon="11.55864950019729"><ele>318.5</ele><time>2026-04-11T12:47:26.999Z</time></trkpt><trkpt lat="45.45751309591686" lon="11.55868879207725"><ele>317.0</ele><time>2026-04-11T12:47:27.999Z</time></trkpt><trkpt lat="45.45766605813351" lon="11.55872203618478"><ele>322.6666666666667</ele><time>2026-04-11T12:47:28.999Z</time></trkpt><trkpt lat="45.45782901015025" lon="11.558796894412968"><ele>328.3333333333333</ele><time>2026-04-11T12:47:29.999Z</time></trkpt><trkpt lat="45.45799094406047" lon="11.558864623727974"><ele>334.0</ele><time>2026-04-11T12:47:30.999Z</time></trkpt><trkpt lat="45.458144623309735" lon="11.558934742195554"><ele>334.0</ele><time>2026-04-11T12:47:31.999Z</time></trkpt><trkpt lat="45.45827919692192" lon="11.558993356093318"><ele>334.0</ele><time>2026-04-11T12:47:32.999Z</time></trkpt><trkpt lat="45.45841896896997" lon="11.559033678066244"><ele>334.0</ele><time>2026-04-11T12:47:33.999Z</time></trkpt><trkpt lat="45.458568830166605" lon="11.559043626427968"><ele>334.0</ele><time>2026-04-11T12:47:34.999Z</time></trkpt><trkpt lat="45.45874242074144" lon="11.55906209497881"><ele>335.66666666666663</ele><time>2026-04-11T12:47:35.999Z</time></trkpt><trkpt lat="45.458929724765525" lon="11.558916895415326"><ele>337.3333333333333</ele><time>2026-04-11T12:47:36.999Z</time></trkpt><trkpt lat="45.45912049670269" lon="11.558866158893867"><ele>339.0</ele><time>2026-04-11T12:47:37.999Z</time></trkpt><trkpt lat="45.45931455667278" lon="11.558820518453313"><ele>339.0</ele><time>2026-04-11T12:47:38.999Z</time></trkpt><trkpt lat="45.459495082117876" lon="11.558777262452246"><ele>339.0</ele><time>2026-04-11T12:47:39.999Z</time></trkpt><trkpt lat="45.45965575106887" lon="11.558722486130158"><ele>339.0</ele><time>2026-04-11T12:47:40.999Z</time></trkpt><trkpt lat="45.459793208868334" lon="11.558670103014817"><ele>337.0</ele><time>2026-04-11T12:47:41.999Z</time></trkpt><trkpt lat="45.459921823337" lon="11.558601880582858"><ele>335.0</ele><time>2026-04-11T12:47:42.999Z</time></trkpt><trkpt lat="45.46002847820984" lon="11.558509206789932"><ele>333.0</ele><time>2026-04-11T12:47:43.999Z</time></trkpt><trkpt lat="45.46010622648177" lon="11.55841568375319"><ele>331.0</ele><time>2026-04-11T12:47:44.999Z</time></trkpt><trkpt lat="45.46016745556767" lon="11.558359200743434"><ele>329.0</ele><time>2026-04-11T12:47:45.999Z</time></trkpt><trkpt lat="45.46023659392032" lon="11.558373408658753"><ele>329.0</ele><time>2026-04-11T12:47:46.999Z</time></trkpt><trkpt lat="45.46028869017904" lon="11.558447932622453"><ele>329.0</ele><time>2026-04-11T12:47:47.999Z</time></trkpt><trkpt lat="45.4602998799624" lon="11.55857703343059"><ele>329.0</ele><time>2026-04-11T12:47:48.999Z</time></trkpt><trkpt lat="45.460263232217095" lon="11.558735168771964"><ele>329.0</ele><time>2026-04-11T12:47:49.999Z</time></trkpt><trkpt lat="45.46020211050088" lon="11.558906726854596"><ele>329.0</ele><time>2026-04-11T12:47:50.999Z</time></trkpt><trkpt lat="45.460132727268494" lon="11.559102687521547"><ele>332.6666666666667</ele><time>2026-04-11T12:47:51.999Z</time></trkpt><trkpt lat="45.46008223947002" lon="11.55932264689914"><ele>336.3333333333333</ele><time>2026-04-11T12:47:52.999Z</time></trkpt><trkpt lat="45.46005411203382" lon="11.559572280008265"><ele>340.0</ele><time>2026-04-11T12:47:53.999Z</time></trkpt><trkpt lat="45.46005219249333" lon="11.559826387867377"><ele>341.0</ele><time>2026-04-11T12:47:54.999Z</time></trkpt><trkpt lat="45.4600650194867" lon="11.560053853510652"><ele>342.0</ele><time>2026-04-11T12:47:55.999Z</time></trkpt><trkpt lat="45.46008522723178" lon="11.560234769886183"><ele>343.0</ele><time>2026-04-11T12:47:56.999Z</time></trkpt><trkpt lat="45.460099477566466" lon="11.560380996528568"><ele>344.0</ele><time>2026-04-11T12:47:57.999Z</time></trkpt><trkpt lat="45.46009017508726" lon="11.560505621546831"><ele>344.0</ele><time>2026-04-11T12:47:58.999Z</time></trkpt><trkpt lat="45.46003480252494" lon="11.560616568848397"><ele>344.0</ele><time>2026-04-11T12:47:59.999Z</time></trkpt><trkpt lat="45.459957992829054" lon="11.560742177077321"><ele>344.0</ele><time>2026-04-11T12:48:00.999Z</time></trkpt><trkpt lat="45.45987172025857" lon="11.560897003392405"><ele>344.0</ele><time>2026-04-11T12:48:01.999Z</time></trkpt><trkpt lat="45.459833507261905" lon="11.561098227353144"><ele>342.6666666666667</ele><time>2026-04-11T12:48:02.998Z</time></trkpt><trkpt lat="45.459840560117655" lon="11.561327029026353"><ele>341.3333333333333</ele><time>2026-04-11T12:48:03.998Z</time></trkpt><trkpt lat="45.45987965445759" lon="11.561545989019773"><ele>340.0</ele><time>2026-04-11T12:48:04.998Z</time></trkpt><trkpt lat="45.45993011558177" lon="11.561774114657519"><ele>340.0</ele><time>2026-04-11T12:48:05.998Z</time></trkpt><trkpt lat="45.45995716654002" lon="11.561965573973007"><ele>340.0</ele><time>2026-04-11T12:48:06.998Z</time></trkpt><trkpt lat="45.4599641157176" lon="11.562117445946122"><ele>340.0</ele><time>2026-04-11T12:48:07.998Z</time></trkpt><trkpt lat="45.4599932201576" lon="11.562246213746572"><ele>340.0</ele><time>2026-04-11T12:48:08.998Z</time></trkpt><trkpt lat="45.460064463886766" lon="11.562334410483123"><ele>340.0</ele><time>2026-04-11T12:48:09.998Z</time></trkpt><trkpt lat="45.460181541220756" lon="11.562400172884908"><ele>339.4</ele><time>2026-04-11T12:48:10.998Z</time></trkpt><trkpt lat="45.4603073514794" lon="11.562437248715867"><ele>338.8</ele><time>2026-04-11T12:48:11.998Z</time></trkpt><trkpt lat="45.46039049552811" lon="11.56247585082814"><ele>338.20000000000005</ele><time>2026-04-11T12:48:12.998Z</time></trkpt><trkpt lat="45.4604267677344" lon="11.562562740757587"><ele>337.6</ele><time>2026-04-11T12:48:13.998Z</time></trkpt><trkpt lat="45.46043187677797" lon="11.562683912506758"><ele>337.0</ele><time>2026-04-11T12:48:14.998Z</time></trkpt><trkpt lat="45.46038660043511" lon="11.562844505177953"><ele>336.66666666666663</ele><time>2026-04-11T12:48:15.998Z</time></trkpt><trkpt lat="45.460331879442826" lon="11.563034099048563"><ele>336.3333333333333</ele><time>2026-04-11T12:48:16.998Z</time></trkpt><trkpt lat="45.46029291208332" lon="11.563253832295093"><ele>336.0</ele><time>2026-04-11T12:48:17.998Z</time></trkpt><trkpt lat="45.46027392578052" lon="11.563478836622663"><ele>336.0</ele><time>2026-04-11T12:48:18.998Z</time></trkpt><trkpt lat="45.46028799901207" lon="11.563681182305684"><ele>336.0</ele><time>2026-04-11T12:48:19.998Z</time></trkpt><trkpt lat="45.46032536877073" lon="11.563860042704325"><ele>336.0</ele><time>2026-04-11T12:48:20.998Z</time></trkpt><trkpt lat="45.460396993223924" lon="11.564018491031481"><ele>336.0</ele><time>2026-04-11T12:48:21.998Z</time></trkpt><trkpt lat="45.460499364598135" lon="11.564154088813359"><ele>332.0</ele><time>2026-04-11T12:48:22.998Z</time></trkpt><trkpt lat="45.46061898831316" lon="11.564254380240875"><ele>328.0</ele><time>2026-04-11T12:48:23.998Z</time></trkpt><trkpt lat="45.46075899561817" lon="11.56435392288903"><ele>324.0</ele><time>2026-04-11T12:48:24.998Z</time></trkpt><trkpt lat="45.46090685611035" lon="11.56447098979458"><ele>324.0</ele><time>2026-04-11T12:48:25.998Z</time></trkpt><trkpt lat="45.46106489608055" lon="11.564611375589926"><ele>324.0</ele><time>2026-04-11T12:48:26.998Z</time></trkpt><trkpt lat="45.461234180528145" lon="11.564764524332906"><ele>324.0</ele><time>2026-04-11T12:48:27.998Z</time></trkpt><trkpt lat="45.4614005808447" lon="11.564897411774757"><ele>323.5</ele><time>2026-04-11T12:48:28.998Z</time></trkpt><trkpt lat="45.46154715393495" lon="11.565012272049906"><ele>323.0</ele><time>2026-04-11T12:48:29.998Z</time></trkpt><trkpt lat="45.46167007284816" lon="11.565128394322485"><ele>322.5</ele><time>2026-04-11T12:48:30.998Z</time></trkpt><trkpt lat="45.461741051305985" lon="11.565248504746867"><ele>322.0</ele><time>2026-04-11T12:48:31.998Z</time></trkpt><trkpt lat="45.46177716348348" lon="11.565388261439274"><ele>322.0</ele><time>2026-04-11T12:48:32.998Z</time></trkpt><trkpt lat="45.46181132428721" lon="11.565564121934134"><ele>322.0</ele><time>2026-04-11T12:48:33.998Z</time></trkpt><trkpt lat="45.461879897850736" lon="11.565729098274026"><ele>322.0</ele><time>2026-04-11T12:48:34.998Z</time></trkpt><trkpt lat="45.46200355961494" lon="11.565888882991912"><ele>322.0</ele><time>2026-04-11T12:48:35.998Z</time></trkpt><trkpt lat="45.46213871346876" lon="11.5660543438429"><ele>323.66666666666663</ele><time>2026-04-11T12:48:36.998Z</time></trkpt><trkpt lat="45.46225966038843" lon="11.566233016020778"><ele>325.3333333333333</ele><time>2026-04-11T12:48:37.998Z</time></trkpt><trkpt lat="45.46235880777445" lon="11.566401402789884"><ele>327.0</ele><time>2026-04-11T12:48:38.998Z</time></trkpt><trkpt lat="45.46242907328285" lon="11.566558578143955"><ele>327.0</ele><time>2026-04-11T12:48:39.998Z</time></trkpt><trkpt lat="45.46247192452662" lon="11.566687345103407"><ele>327.0</ele><time>2026-04-11T12:48:40.998Z</time></trkpt><trkpt lat="45.46255543023393" lon="11.566794807269234"><ele>327.0</ele><time>2026-04-11T12:48:43Z</time></trkpt><trkpt lat="45.46262747001091" lon="11.56673839092761"><ele>327.0</ele><time>2026-04-11T12:48:44Z</time></trkpt><trkpt lat="45.46267206067872" lon="11.566625372900827"><ele>327.0</ele><time>2026-04-11T12:48:45Z</time></trkpt><trkpt lat="45.46269878852626" lon="11.566462219203204"><ele>327.0</ele><time>2026-04-11T12:48:46Z</time></trkpt><trkpt lat="45.46270848382865" lon="11.566277254336619"><ele>327.0</ele><time>2026-04-11T12:48:47Z</time></trkpt><trkpt lat="45.46271898605368" lon="11.566105777872782"><ele>327.0</ele><time>2026-04-11T12:48:48Z</time></trkpt><trkpt lat="45.462755090628825" lon="11.565969434862613"><ele>327.0</ele><time>2026-04-11T12:48:49Z</time></trkpt><trkpt lat="45.46282879911778" lon="11.565850766517196"><ele>326.25</ele><time>2026-04-11T12:48:50Z</time></trkpt><trkpt lat="45.46294316086889" lon="11.565752092471772"><ele>325.5</ele><time>2026-04-11T12:48:51Z</time></trkpt><trkpt lat="45.46305817858147" lon="11.565691648300422"><ele>324.75</ele><time>2026-04-11T12:48:52Z</time></trkpt><trkpt lat="45.46316511266582" lon="11.565666104765288"><ele>324.0</ele><time>2026-04-11T12:48:53Z</time></trkpt><trkpt lat="45.46326257546905" lon="11.565672205713703"><ele>324.0</ele><time>2026-04-11T12:48:54Z</time></trkpt><trkpt lat="45.4633591812402" lon="11.565710289746878"><ele>324.0</ele><time>2026-04-11T12:48:55Z</time></trkpt><trkpt lat="45.46343022702084" lon="11.565789350130295"><ele>324.0</ele><time>2026-04-11T12:48:56Z</time></trkpt><trkpt lat="45.46346628955872" lon="11.56591554014933"><ele>324.0</ele><time>2026-04-11T12:48:57Z</time></trkpt><trkpt lat="45.463464996197224" lon="11.56605875742942"><ele>324.0</ele><time>2026-04-11T12:48:58Z</time></trkpt><trkpt lat="45.46343383953363" lon="11.566222302385592"><ele>322.4</ele><time>2026-04-11T12:48:59Z</time></trkpt><trkpt lat="45.46339874165376" lon="11.566362518777936"><ele>320.79999999999995</ele><time>2026-04-11T12:49:00Z</time></trkpt><trkpt lat="45.463374393774" lon="11.566502995555563"><ele>319.20000000000005</ele><time>2026-04-11T12:49:01Z</time></trkpt><trkpt lat="45.463366523305154" lon="11.566626482171356"><ele>317.6</ele><time>2026-04-11T12:49:02Z</time></trkpt><trkpt lat="45.463402505711926" lon="11.566755020271852"><ele>316.0</ele><time>2026-04-11T12:49:03Z</time></trkpt><trkpt lat="45.46347777019577" lon="11.566874956306975"><ele>316.0</ele><time>2026-04-11T12:49:04Z</time></trkpt><trkpt lat="45.46358216384121" lon="11.566925760070806"><ele>316.0</ele><time>2026-04-11T12:49:05Z</time></trkpt><trkpt lat="45.46370468771076" lon="11.566973451102012"><ele>316.0</ele><time>2026-04-11T12:49:06Z</time></trkpt><trkpt lat="45.463844433111625" lon="11.567069238114506"><ele>316.0</ele><time>2026-04-11T12:49:07Z</time></trkpt><trkpt lat="45.46398387172652" lon="11.567174552606724"><ele>312.25</ele><time>2026-04-11T12:49:08Z</time></trkpt><trkpt lat="45.46409330818139" lon="11.567263721933404"><ele>308.5</ele><time>2026-04-11T12:49:09Z</time></trkpt><trkpt lat="45.464199110125215" lon="11.567357790455052"><ele>304.75</ele><time>2026-04-11T12:49:10Z</time></trkpt><trkpt lat="45.464324699321416" lon="11.567461987938204"><ele>301.0</ele><time>2026-04-11T12:49:11Z</time></trkpt><trkpt lat="45.46444162194935" lon="11.567552356526447"><ele>301.0</ele><time>2026-04-11T12:49:12Z</time></trkpt><trkpt lat="45.4645266852616" lon="11.567613029530314"><ele>301.0</ele><time>2026-04-11T12:49:13Z</time></trkpt><trkpt lat="45.46460494568554" lon="11.567637045946087"><ele>301.0</ele><time>2026-04-11T12:49:14Z</time></trkpt><trkpt lat="45.464676899508504" lon="11.56763156471781"><ele>301.0</ele><time>2026-04-11T12:49:15Z</time></trkpt><trkpt lat="45.46476801037724" lon="11.56753205517532"><ele>301.0</ele><time>2026-04-11T12:49:16Z</time></trkpt><trkpt lat="45.46486430130847" lon="11.56738044466054"><ele>298.75</ele><time>2026-04-11T12:49:17Z</time></trkpt><trkpt lat="45.46496882866224" lon="11.567221925241238"><ele>296.5</ele><time>2026-04-11T12:49:18Z</time></trkpt><trkpt lat="45.46508853902719" lon="11.567119100691949"><ele>294.25</ele><time>2026-04-11T12:49:19Z</time></trkpt><trkpt lat="45.465207515339735" lon="11.56707401820936"><ele>292.0</ele><time>2026-04-11T12:49:20Z</time></trkpt><trkpt lat="45.46534204814072" lon="11.567070786578956"><ele>290.66666666666663</ele><time>2026-04-11T12:49:21Z</time></trkpt><trkpt lat="45.4654941795097" lon="11.567085002973286"><ele>289.3333333333333</ele><time>2026-04-11T12:49:22Z</time></trkpt><trkpt lat="45.46566469790115" lon="11.567097066574508"><ele>288.0</ele><time>2026-04-11T12:49:22.999Z</time></trkpt><trkpt lat="45.46583555677112" lon="11.567114285102962"><ele>288.0</ele><time>2026-04-11T12:49:23.999Z</time></trkpt><trkpt lat="45.46600373204593" lon="11.567137551650555"><ele>288.0</ele><time>2026-04-11T12:49:24.999Z</time></trkpt><trkpt lat="45.466150531696634" lon="11.567166765142455"><ele>288.0</ele><time>2026-04-11T12:49:25.999Z</time></trkpt><trkpt lat="45.466270789770626" lon="11.567197977347847"><ele>288.0</ele><time>2026-04-11T12:49:26.999Z</time></trkpt><trkpt lat="45.46638674323732" lon="11.567268893047205"><ele>287.75</ele><time>2026-04-11T12:49:27.999Z</time></trkpt><trkpt lat="45.46650837061042" lon="11.567366029251618"><ele>287.5</ele><time>2026-04-11T12:49:28.999Z</time></trkpt><trkpt lat="45.4666466348048" lon="11.567394272781181"><ele>287.25</ele><time>2026-04-11T12:49:29.999Z</time></trkpt><trkpt lat="45.46680120190441" lon="11.567342843358054"><ele>287.0</ele><time>2026-04-11T12:49:30.999Z</time></trkpt><trkpt lat="45.466962959979575" lon="11.567227695139803"><ele>287.0</ele><time>2026-04-11T12:49:31.999Z</time></trkpt><trkpt lat="45.46710162770815" lon="11.567046347562425"><ele>287.0</ele><time>2026-04-11T12:49:32.999Z</time></trkpt><trkpt lat="45.46723437015854" lon="11.566862576055762"><ele>287.0</ele><time>2026-04-11T12:49:33.999Z</time></trkpt><trkpt lat="45.46738483840103" lon="11.566772964765835"><ele>288.33333333333337</ele><time>2026-04-11T12:49:34.999Z</time></trkpt><trkpt lat="45.467565783226746" lon="11.566712438147956"><ele>289.6666666666667</ele><time>2026-04-11T12:49:35.999Z</time></trkpt><trkpt lat="45.467718713470596" lon="11.566653895540025"><ele>291.0</ele><time>2026-04-11T12:49:36.999Z</time></trkpt><trkpt lat="45.46782439592275" lon="11.566658373883575"><ele>291.0</ele><time>2026-04-11T12:49:37.999Z</time></trkpt><trkpt lat="45.467926203406684" lon="11.566702469069808"><ele>291.0</ele><time>2026-04-11T12:49:38.999Z</time></trkpt><trkpt lat="45.468024192898234" lon="11.566794439485731"><ele>291.0</ele><time>2026-04-11T12:49:39.999Z</time></trkpt><trkpt lat="45.46811372145267" lon="11.566940377610262"><ele>291.0</ele><time>2026-04-11T12:49:40.999Z</time></trkpt><trkpt lat="45.46817729936601" lon="11.567104357100483"><ele>290.75</ele><time>2026-04-11T12:49:41.999Z</time></trkpt><trkpt lat="45.46820640500077" lon="11.567285878897838"><ele>290.5</ele><time>2026-04-11T12:49:42.999Z</time></trkpt><trkpt lat="45.46822482725019" lon="11.567488491302974"><ele>290.25</ele><time>2026-04-11T12:49:43.999Z</time></trkpt><trkpt lat="45.46825951672587" lon="11.56770903242517"><ele>290.0</ele><time>2026-04-11T12:49:44.999Z</time></trkpt><trkpt lat="45.46830083526533" lon="11.5679258289642"><ele>290.0</ele><time>2026-04-11T12:49:45.999Z</time></trkpt><trkpt lat="45.468352532611135" lon="11.568152729168716"><ele>290.0</ele><time>2026-04-11T12:49:46.999Z</time></trkpt><trkpt lat="45.46842388769887" lon="11.56837007583697"><ele>290.0</ele><time>2026-04-11T12:49:47.999Z</time></trkpt><trkpt lat="45.468541175653726" lon="11.568574220163406"><ele>291.6666666666667</ele><time>2026-04-11T12:49:48.999Z</time></trkpt><trkpt lat="45.468676204565135" lon="11.568774493091118"><ele>293.3333333333333</ele><time>2026-04-11T12:49:49.999Z</time></trkpt><trkpt lat="45.468785331697056" lon="11.568957394792825"><ele>295.0</ele><time>2026-04-11T12:49:50.999Z</time></trkpt><trkpt lat="45.46887129549684" lon="11.569096359356188"><ele>295.0</ele><time>2026-04-11T12:49:51.999Z</time></trkpt><trkpt lat="45.46895444420286" lon="11.56919827884036"><ele>295.0</ele><time>2026-04-11T12:49:52.999Z</time></trkpt><trkpt lat="45.469071181780215" lon="11.56926548699142"><ele>295.0</ele><time>2026-04-11T12:49:53.999Z</time></trkpt><trkpt lat="45.46921670930982" lon="11.56928687230286"><ele>295.0</ele><time>2026-04-11T12:49:54.999Z</time></trkpt><trkpt lat="45.46935788230322" lon="11.569302791032591"><ele>295.0</ele><time>2026-04-11T12:49:55.999Z</time></trkpt><trkpt lat="45.46948393447359" lon="11.569337609996683"><ele>295.0</ele><time>2026-04-11T12:49:56.999Z</time></trkpt><trkpt lat="45.469585740740435" lon="11.569415617961216"><ele>295.0</ele><time>2026-04-11T12:49:57.999Z</time></trkpt><trkpt lat="45.46966430952964" lon="11.569538500723123"><ele>295.0</ele><time>2026-04-11T12:49:58.999Z</time></trkpt><trkpt lat="45.46971540132069" lon="11.569674715915234"><ele>293.25</ele><time>2026-04-11T12:49:59.999Z</time></trkpt><trkpt lat="45.46975359852112" lon="11.569831841732022"><ele>291.5</ele><time>2026-04-11T12:50:00.999Z</time></trkpt><trkpt lat="45.46980062191274" lon="11.57000506190129"><ele>289.75</ele><time>2026-04-11T12:50:01.999Z</time></trkpt><trkpt lat="45.46986047907072" lon="11.570182128848874"><ele>288.0</ele><time>2026-04-11T12:50:02.999Z</time></trkpt><trkpt lat="45.46992419790505" lon="11.570354307866374"><ele>289.75</ele><time>2026-04-11T12:50:03.999Z</time></trkpt><trkpt lat="45.47000034040842" lon="11.570524983755124"><ele>291.5</ele><time>2026-04-11T12:50:04.999Z</time></trkpt><trkpt lat="45.47009071788557" lon="11.570693897519014"><ele>293.25</ele><time>2026-04-11T12:50:05.999Z</time></trkpt><trkpt lat="45.47019010381647" lon="11.570843742948753"><ele>295.0</ele><time>2026-04-11T12:50:06.999Z</time></trkpt><trkpt lat="45.47028831885267" lon="11.570970254530232"><ele>295.0</ele><time>2026-04-11T12:50:07.999Z</time></trkpt><trkpt lat="45.470381711486006" lon="11.571074890236057"><ele>295.0</ele><time>2026-04-11T12:50:08.999Z</time></trkpt><trkpt lat="45.470461637498744" lon="11.571161489380863"><ele>295.0</ele><time>2026-04-11T12:50:09.998Z</time></trkpt><trkpt lat="45.47052239193383" lon="11.571242534802778"><ele>295.0</ele><time>2026-04-11T12:50:10.998Z</time></trkpt><trkpt lat="45.47055960808658" lon="11.571353063203997"><ele>295.0</ele><time>2026-04-11T12:50:11.998Z</time></trkpt><trkpt lat="45.47056693446375" lon="11.571489292674595"><ele>292.8</ele><time>2026-04-11T12:50:12.998Z</time></trkpt><trkpt lat="45.470574485450214" lon="11.571629558582686"><ele>290.6</ele><time>2026-04-11T12:50:13.998Z</time></trkpt><trkpt lat="45.470589238876975" lon="11.571779587611386"><ele>288.4</ele><time>2026-04-11T12:50:14.998Z</time></trkpt><trkpt lat="45.47061770978955" lon="11.571903009615784"><ele>286.2</ele><time>2026-04-11T12:50:15.998Z</time></trkpt><trkpt lat="45.470666814527426" lon="11.572025178426689"><ele>284.0</ele><time>2026-04-11T12:50:16.998Z</time></trkpt><trkpt lat="45.47075084147894" lon="11.572120119368659"><ele>284.0</ele><time>2026-04-11T12:50:17.998Z</time></trkpt><trkpt lat="45.47085082610941" lon="11.572197658124399"><ele>284.0</ele><time>2026-04-11T12:50:18.998Z</time></trkpt><trkpt lat="45.47096143036398" lon="11.572270214660486"><ele>284.0</ele><time>2026-04-11T12:50:19.998Z</time></trkpt><trkpt lat="45.471073162331436" lon="11.57233255915352"><ele>284.0</ele><time>2026-04-11T12:50:20.998Z</time></trkpt><trkpt lat="45.471179989627586" lon="11.57239179798744"><ele>281.5</ele><time>2026-04-11T12:50:21.998Z</time></trkpt><trkpt lat="45.47129485466975" lon="11.572453494603653"><ele>279.0</ele><time>2026-04-11T12:50:22.998Z</time></trkpt><trkpt lat="45.47140716737776" lon="11.572533924100462"><ele>276.5</ele><time>2026-04-11T12:50:23.998Z</time></trkpt><trkpt lat="45.47150300384332" lon="11.57264229326012"><ele>274.0</ele><time>2026-04-11T12:50:24.998Z</time></trkpt><trkpt lat="45.47160882001188" lon="11.572730207442497"><ele>274.0</ele><time>2026-04-11T12:50:25.998Z</time></trkpt><trkpt lat="45.471704868315804" lon="11.57282741372996"><ele>274.0</ele><time>2026-04-11T12:50:26.998Z</time></trkpt><trkpt lat="45.471801645800376" lon="11.5728733468143"><ele>274.0</ele><time>2026-04-11T12:50:27.998Z</time></trkpt><trkpt lat="45.47191103152326" lon="11.572894846189406"><ele>274.0</ele><time>2026-04-11T12:50:28.998Z</time></trkpt><trkpt lat="45.47200996488473" lon="11.572935121065827"><ele>274.0</ele><time>2026-04-11T12:50:29.998Z</time></trkpt><trkpt lat="45.47209911463046" lon="11.572980645027007"><ele>272.8</ele><time>2026-04-11T12:50:30.998Z</time></trkpt><trkpt lat="45.47219722138335" lon="11.57301170391565"><ele>271.59999999999997</ele><time>2026-04-11T12:50:31.998Z</time></trkpt><trkpt lat="45.472299764322685" lon="11.573018490271126"><ele>270.4</ele><time>2026-04-11T12:50:32.998Z</time></trkpt><trkpt lat="45.47240072883671" lon="11.57299726334867"><ele>269.2</ele><time>2026-04-11T12:50:33.998Z</time></trkpt><trkpt lat="45.47249751987689" lon="11.57295056569567"><ele>268.0</ele><time>2026-04-11T12:50:34.998Z</time></trkpt><trkpt lat="45.47259608710632" lon="11.572920926048875"><ele>268.0</ele><time>2026-04-11T12:50:35.998Z</time></trkpt><trkpt lat="45.47269194879286" lon="11.572899926714568"><ele>268.0</ele><time>2026-04-11T12:50:36.998Z</time></trkpt><trkpt lat="45.47277949576351" lon="11.572919132175988"><ele>268.0</ele><time>2026-04-11T12:50:37.998Z</time></trkpt><trkpt lat="45.47286977214599" lon="11.572968655527282"><ele>268.0</ele><time>2026-04-11T12:50:38.998Z</time></trkpt><trkpt lat="45.472963714474965" lon="11.573036517449484"><ele>268.0</ele><time>2026-04-11T12:50:39.998Z</time></trkpt><trkpt lat="45.473064005207775" lon="11.573080124261809"><ele>268.0</ele><time>2026-04-11T12:50:40.998Z</time></trkpt><trkpt lat="45.47315256829206" lon="11.573103535530118"><ele>268.0</ele><time>2026-04-11T12:50:41.998Z</time></trkpt><trkpt lat="45.47323143963086" lon="11.573133586842216"><ele>268.0</ele><time>2026-04-11T12:50:42.998Z</time></trkpt><trkpt lat="45.473305021228995" lon="11.573188916757436"><ele>268.0</ele><time>2026-04-11T12:50:43.998Z</time></trkpt><trkpt lat="45.47336896913013" lon="11.573292569205071"><ele>268.0</ele><time>2026-04-11T12:50:44.998Z</time></trkpt><trkpt lat="45.473428270024655" lon="11.573420694893159"><ele>268.0</ele><time>2026-04-11T12:50:45.998Z</time></trkpt><trkpt lat="45.47349336631924" lon="11.57353890382237"><ele>268.0</ele><time>2026-04-11T12:50:46.998Z</time></trkpt><trkpt lat="45.47357493983131" lon="11.573628076724333"><ele>268.0</ele><time>2026-04-11T12:50:47.998Z</time></trkpt><trkpt lat="45.47366930046321" lon="11.57368123248441"><ele>268.0</ele><time>2026-04-11T12:50:49Z</time></trkpt><trkpt lat="45.473754734154475" lon="11.573708110965864"><ele>268.0</ele><time>2026-04-11T12:50:50Z</time></trkpt><trkpt lat="45.47382955284843" lon="11.57372962403981"><ele>267.3333333333333</ele><time>2026-04-11T12:50:51Z</time></trkpt><trkpt lat="45.47389179041992" lon="11.57375245486962"><ele>266.66666666666663</ele><time>2026-04-11T12:50:52Z</time></trkpt><trkpt lat="45.473973149109476" lon="11.573670939925416"><ele>266.0</ele><time>2026-04-11T12:50:54Z</time></trkpt><trkpt lat="45.47402906104712" lon="11.573581685272664"><ele>265.3333333333333</ele><time>2026-04-11T12:50:56Z</time></trkpt><trkpt lat="45.47404015866205" lon="11.573453286368819"><ele>264.6666666666667</ele><time>2026-04-11T12:50:57Z</time></trkpt><trkpt lat="45.47409905072617" lon="11.573326759093693"><ele>264.0</ele><time>2026-04-11T12:50:58Z</time></trkpt><trkpt lat="45.474134078280244" lon="11.57318181889304"><ele>264.0</ele><time>2026-04-11T12:50:59Z</time></trkpt><trkpt lat="45.47419500772655" lon="11.573054298627577"><ele>264.0</ele><time>2026-04-11T12:51:00Z</time></trkpt><trkpt lat="45.47426967456377" lon="11.57294809239813"><ele>264.0</ele><time>2026-04-11T12:51:01Z</time></trkpt><trkpt lat="45.474347628119716" lon="11.57283768795183"><ele>264.0</ele><time>2026-04-11T12:51:02Z</time></trkpt><trkpt lat="45.47443874813348" lon="11.572765409569552"><ele>264.0</ele><time>2026-04-11T12:51:03Z</time></trkpt><trkpt lat="45.47453695661141" lon="11.572699053876285"><ele>263.4</ele><time>2026-04-11T12:51:04Z</time></trkpt><trkpt lat="45.47462943286057" lon="11.572668856969006"><ele>262.79999999999995</ele><time>2026-04-11T12:51:05Z</time></trkpt><trkpt lat="45.474725284359174" lon="11.572675664591612"><ele>262.20000000000005</ele><time>2026-04-11T12:51:06Z</time></trkpt><trkpt lat="45.4748157972457" lon="11.572736088217765"><ele>261.6</ele><time>2026-04-11T12:51:07Z</time></trkpt><trkpt lat="45.47491005683474" lon="11.572813081983695"><ele>261.0</ele><time>2026-04-11T12:51:08Z</time></trkpt><trkpt lat="45.47499459240895" lon="11.572920144958733"><ele>259.0</ele><time>2026-04-11T12:51:09Z</time></trkpt><trkpt lat="45.47508490368556" lon="11.573009076421261"><ele>257.0</ele><time>2026-04-11T12:51:10Z</time></trkpt><trkpt lat="45.475180009947586" lon="11.573052056174522"><ele>255.00000000000003</ele><time>2026-04-11T12:51:11Z</time></trkpt><trkpt lat="45.47527829199315" lon="11.573046389579488"><ele>253.0</ele><time>2026-04-11T12:51:12Z</time></trkpt><trkpt lat="45.47537874605804" lon="11.572996359634246"><ele>251.0</ele><time>2026-04-11T12:51:13Z</time></trkpt><trkpt lat="45.47548325855383" lon="11.572928914760702"><ele>249.8</ele><time>2026-04-11T12:51:14Z</time></trkpt><trkpt lat="45.47559796080943" lon="11.572902200684696"><ele>248.60000000000002</ele><time>2026-04-11T12:51:15Z</time></trkpt><trkpt lat="45.47570225173399" lon="11.572892358726127"><ele>247.4</ele><time>2026-04-11T12:51:16Z</time></trkpt><trkpt lat="45.475804870347" lon="11.572906645929976"><ele>246.2</ele><time>2026-04-11T12:51:17Z</time></trkpt><trkpt lat="45.47590039176685" lon="11.572924306015496"><ele>245.0</ele><time>2026-04-11T12:51:18Z</time></trkpt><trkpt lat="45.475977001008815" lon="11.573039981934667"><ele>245.0</ele><time>2026-04-11T12:51:19Z</time></trkpt><trkpt lat="45.476038468294135" lon="11.573191801814597"><ele>245.0</ele><time>2026-04-11T12:51:20Z</time></trkpt><trkpt lat="45.47611486574206" lon="11.573301014059522"><ele>245.0</ele><time>2026-04-11T12:51:21Z</time></trkpt><trkpt lat="45.47619844503763" lon="11.573386029479073"><ele>245.0</ele><time>2026-04-11T12:51:22Z</time></trkpt><trkpt lat="45.4763113547145" lon="11.573413605528026"><ele>245.0</ele><time>2026-04-11T12:51:23Z</time></trkpt><trkpt lat="45.476432349825636" lon="11.573378231092809"><ele>242.5</ele><time>2026-04-11T12:51:24Z</time></trkpt><trkpt lat="45.476554684911164" lon="11.573319838436317"><ele>240.0</ele><time>2026-04-11T12:51:25Z</time></trkpt><trkpt lat="45.47668632081836" lon="11.573308951067968"><ele>237.5</ele><time>2026-04-11T12:51:26Z</time></trkpt><trkpt lat="45.47682141515025" lon="11.573299513518528"><ele>235.0</ele><time>2026-04-11T12:51:27Z</time></trkpt><trkpt lat="45.47695854958598" lon="11.573278853642059"><ele>235.0</ele><time>2026-04-11T12:51:28Z</time></trkpt><trkpt lat="45.477096221106905" lon="11.573281507900425"><ele>235.0</ele><time>2026-04-11T12:51:28.999Z</time></trkpt><trkpt lat="45.47723177832431" lon="11.573278245816223"><ele>235.0</ele><time>2026-04-11T12:51:29.999Z</time></trkpt><trkpt lat="45.477371755113836" lon="11.573250589041809"><ele>235.0</ele><time>2026-04-11T12:51:30.999Z</time></trkpt><trkpt lat="45.477517586134795" lon="11.573221439251032"><ele>233.75</ele><time>2026-04-11T12:51:31.999Z</time></trkpt><trkpt lat="45.47765468389416" lon="11.573206510754092"><ele>232.5</ele><time>2026-04-11T12:51:32.999Z</time></trkpt><trkpt lat="45.477791864506706" lon="11.573195563687742"><ele>231.25</ele><time>2026-04-11T12:51:33.999Z</time></trkpt><trkpt lat="45.477921606096444" lon="11.57320248560304"><ele>230.0</ele><time>2026-04-11T12:51:34.999Z</time></trkpt><trkpt lat="45.4780643578743" lon="11.573225302549162"><ele>227.5</ele><time>2026-04-11T12:51:35.999Z</time></trkpt><trkpt lat="45.47821511998149" lon="11.57326922976672"><ele>225.0</ele><time>2026-04-11T12:51:36.999Z</time></trkpt><trkpt lat="45.478357532950994" lon="11.573306201886071"><ele>222.5</ele><time>2026-04-11T12:51:37.999Z</time></trkpt><trkpt lat="45.47848405506057" lon="11.573329989137182"><ele>220.0</ele><time>2026-04-11T12:51:38.999Z</time></trkpt><trkpt lat="45.478587270701624" lon="11.57335148943862"><ele>220.0</ele><time>2026-04-11T12:51:39.999Z</time></trkpt><trkpt lat="45.47867927947158" lon="11.57340847275719"><ele>220.0</ele><time>2026-04-11T12:51:40.999Z</time></trkpt><trkpt lat="45.47876974744367" lon="11.573512898222218"><ele>220.0</ele><time>2026-04-11T12:51:41.999Z</time></trkpt><trkpt lat="45.47885298219978" lon="11.573637892375041"><ele>220.0</ele><time>2026-04-11T12:51:42.999Z</time></trkpt><trkpt lat="45.47894335665614" lon="11.573768349757014"><ele>218.25</ele><time>2026-04-11T12:51:43.999Z</time></trkpt><trkpt lat="45.47901847292758" lon="11.573921245299859"><ele>216.5</ele><time>2026-04-11T12:51:44.999Z</time></trkpt><trkpt lat="45.47907221194638" lon="11.574096878240203"><ele>214.75</ele><time>2026-04-11T12:51:45.999Z</time></trkpt><trkpt lat="45.47912248752412" lon="11.574274285675722"><ele>213.0</ele><time>2026-04-11T12:51:46.999Z</time></trkpt><trkpt lat="45.479163205576384" lon="11.574462222796972"><ele>213.0</ele><time>2026-04-11T12:51:47.999Z</time></trkpt><trkpt lat="45.47919427668539" lon="11.574651487439784"><ele>213.0</ele><time>2026-04-11T12:51:48.999Z</time></trkpt><trkpt lat="45.47923152627667" lon="11.574828228791217"><ele>213.0</ele><time>2026-04-11T12:51:49.999Z</time></trkpt><trkpt lat="45.479295327686614" lon="11.574993328301069"><ele>213.0</ele><time>2026-04-11T12:51:50.999Z</time></trkpt><trkpt lat="45.479380955807464" lon="11.575135650694811"><ele>213.0</ele><time>2026-04-11T12:51:51.999Z</time></trkpt><trkpt lat="45.47949354591293" lon="11.575243748347704"><ele>213.0</ele><time>2026-04-11T12:51:52.999Z</time></trkpt><trkpt lat="45.479629796426195" lon="11.575303136859112"><ele>213.0</ele><time>2026-04-11T12:51:53.999Z</time></trkpt><trkpt lat="45.47977119708281" lon="11.57530196965946"><ele>213.0</ele><time>2026-04-11T12:51:54.999Z</time></trkpt><trkpt lat="45.479909306004366" lon="11.575253692195592"><ele>214.75</ele><time>2026-04-11T12:51:55.999Z</time></trkpt><trkpt lat="45.480044671193546" lon="11.575244086017161"><ele>216.5</ele><time>2026-04-11T12:51:56.999Z</time></trkpt><trkpt lat="45.480163452883545" lon="11.575290381846457"><ele>218.25</ele><time>2026-04-11T12:51:57.999Z</time></trkpt><trkpt lat="45.48027285429779" lon="11.575375721235625"><ele>220.0</ele><time>2026-04-11T12:51:58.999Z</time></trkpt><trkpt lat="45.48035948176158" lon="11.575479932623148"><ele>220.0</ele><time>2026-04-11T12:51:59.999Z</time></trkpt><trkpt lat="45.48041266177145" lon="11.575619676388524"><ele>220.0</ele><time>2026-04-11T12:52:00.999Z</time></trkpt><trkpt lat="45.48045025202982" lon="11.575785874005208"><ele>220.0</ele><time>2026-04-11T12:52:01.999Z</time></trkpt><trkpt lat="45.48051889024572" lon="11.575940566471534"><ele>220.0</ele><time>2026-04-11T12:52:02.999Z</time></trkpt><trkpt lat="45.480582828133194" lon="11.576095256647555"><ele>218.75</ele><time>2026-04-11T12:52:03.999Z</time></trkpt><trkpt lat="45.480691402737975" lon="11.576219299514811"><ele>217.5</ele><time>2026-04-11T12:52:04.999Z</time></trkpt><trkpt lat="45.48079842195855" lon="11.576311560061889"><ele>216.25</ele><time>2026-04-11T12:52:05.999Z</time></trkpt><trkpt lat="45.4809320804696" lon="11.576385204716532"><ele>215.0</ele><time>2026-04-11T12:52:06.999Z</time></trkpt><trkpt lat="45.48105140065084" lon="11.576483870180361"><ele>215.0</ele><time>2026-04-11T12:52:07.999Z</time></trkpt><trkpt lat="45.48115541323825" lon="11.57659970764868"><ele>215.0</ele><time>2026-04-11T12:52:08.999Z</time></trkpt><trkpt lat="45.48126627871308" lon="11.576740685767502"><ele>215.0</ele><time>2026-04-11T12:52:09.999Z</time></trkpt><trkpt lat="45.48138375782782" lon="11.576877868266138"><ele>215.0</ele><time>2026-04-11T12:52:10.999Z</time></trkpt><trkpt lat="45.481496858509786" lon="11.577026009551428"><ele>212.25</ele><time>2026-04-11T12:52:11.999Z</time></trkpt><trkpt lat="45.481596293193576" lon="11.577152713340881"><ele>209.5</ele><time>2026-04-11T12:52:12.999Z</time></trkpt><trkpt lat="45.48169909189185" lon="11.57727472761091"><ele>206.75</ele><time>2026-04-11T12:52:13.999Z</time></trkpt><trkpt lat="45.481797462751416" lon="11.57739364088063"><ele>204.0</ele><time>2026-04-11T12:52:14.998Z</time></trkpt><trkpt lat="45.48186121651623" lon="11.577534926884463"><ele>204.0</ele><time>2026-04-11T12:52:15.998Z</time></trkpt><trkpt lat="45.48191879072308" lon="11.577678596072326"><ele>204.0</ele><time>2026-04-11T12:52:16.998Z</time></trkpt><trkpt lat="45.481962584490056" lon="11.577847986141116"><ele>204.0</ele><time>2026-04-11T12:52:17.998Z</time></trkpt><trkpt lat="45.48199663289835" lon="11.578046096570016"><ele>204.0</ele><time>2026-04-11T12:52:18.998Z</time></trkpt><trkpt lat="45.482052217806505" lon="11.578253241642589"><ele>204.75</ele><time>2026-04-11T12:52:19.998Z</time></trkpt><trkpt lat="45.48208152346251" lon="11.578454171547945"><ele>205.5</ele><time>2026-04-11T12:52:20.998Z</time></trkpt><trkpt lat="45.482128659283475" lon="11.578628124825935"><ele>206.25</ele><time>2026-04-11T12:52:21.998Z</time></trkpt><trkpt lat="45.48219843821126" lon="11.578774477707574"><ele>207.0</ele><time>2026-04-11T12:52:22.998Z</time></trkpt><trkpt lat="45.48231116095297" lon="11.578876215860799"><ele>203.66666666666669</ele><time>2026-04-11T12:52:23.998Z</time></trkpt><trkpt lat="45.482445233121" lon="11.578942582343979"><ele>200.33333333333334</ele><time>2026-04-11T12:52:24.998Z</time></trkpt><trkpt lat="45.482592672915715" lon="11.578990241881877"><ele>197.0</ele><time>2026-04-11T12:52:25.998Z</time></trkpt><trkpt lat="45.48275160657381" lon="11.579017293112459"><ele>197.0</ele><time>2026-04-11T12:52:26.998Z</time></trkpt><trkpt lat="45.48288834873518" lon="11.579047781718398"><ele>197.0</ele><time>2026-04-11T12:52:27.998Z</time></trkpt><trkpt lat="45.48301690020809" lon="11.579094966639317"><ele>197.0</ele><time>2026-04-11T12:52:28.998Z</time></trkpt><trkpt lat="45.483134851008025" lon="11.579141256666134"><ele>197.0</ele><time>2026-04-11T12:52:29.998Z</time></trkpt><trkpt lat="45.48323952456776" lon="11.579163046483968"><ele>193.25</ele><time>2026-04-11T12:52:30.998Z</time></trkpt><trkpt lat="45.48334405162252" lon="11.579130254006568"><ele>189.5</ele><time>2026-04-11T12:52:31.998Z</time></trkpt><trkpt lat="45.483445806183525" lon="11.57902949648406"><ele>185.75</ele><time>2026-04-11T12:52:32.998Z</time></trkpt><trkpt lat="45.48354574804725" lon="11.578880329260391"><ele>182.0</ele><time>2026-04-11T12:52:33.998Z</time></trkpt><trkpt lat="45.483642191023556" lon="11.578725267268615"><ele>180.5</ele><time>2026-04-11T12:52:34.998Z</time></trkpt><trkpt lat="45.48374968910256" lon="11.578601533327577"><ele>179.0</ele><time>2026-04-11T12:52:35.998Z</time></trkpt><trkpt lat="45.483877043049006" lon="11.578534187938995"><ele>177.5</ele><time>2026-04-11T12:52:36.998Z</time></trkpt><trkpt lat="45.484007149162075" lon="11.57842792997202"><ele>176.0</ele><time>2026-04-11T12:52:37.998Z</time></trkpt><trkpt lat="45.48414750377025" lon="11.578334592110057"><ele>176.0</ele><time>2026-04-11T12:52:38.998Z</time></trkpt><trkpt lat="45.48427008679613" lon="11.578226336873149"><ele>176.0</ele><time>2026-04-11T12:52:39.998Z</time></trkpt><trkpt lat="45.484396844275516" lon="11.578121613221322"><ele>176.0</ele><time>2026-04-11T12:52:40.998Z</time></trkpt><trkpt lat="45.48450998956785" lon="11.57801872011879"><ele>176.0</ele><time>2026-04-11T12:52:41.998Z</time></trkpt><trkpt lat="45.484630508428744" lon="11.577927123498126"><ele>176.75</ele><time>2026-04-11T12:52:42.998Z</time></trkpt><trkpt lat="45.48475655105712" lon="11.577874162119015"><ele>177.5</ele><time>2026-04-11T12:52:43.998Z</time></trkpt><trkpt lat="45.484877973751686" lon="11.577903306073662"><ele>178.25</ele><time>2026-04-11T12:52:44.998Z</time></trkpt><trkpt lat="45.484987535900466" lon="11.577942052828838"><ele>179.0</ele><time>2026-04-11T12:52:45.998Z</time></trkpt><trkpt lat="45.485123603830914" lon="11.577982781443513"><ele>179.0</ele><time>2026-04-11T12:52:46.998Z</time></trkpt><trkpt lat="45.48526217272062" lon="11.578015535507557"><ele>179.0</ele><time>2026-04-11T12:52:47.998Z</time></trkpt><trkpt lat="45.48538185201692" lon="11.57804305941033"><ele>179.0</ele><time>2026-04-11T12:52:48.998Z</time></trkpt><trkpt lat="45.48551315645225" lon="11.578019289788328"><ele>179.0</ele><time>2026-04-11T12:52:49.998Z</time></trkpt><trkpt lat="45.485647232236694" lon="11.577981154163957"><ele>179.5</ele><time>2026-04-11T12:52:50.998Z</time></trkpt><trkpt lat="45.48578653814571" lon="11.577926869141299"><ele>180.0</ele><time>2026-04-11T12:52:51.998Z</time></trkpt><trkpt lat="45.485922587516235" lon="11.577875422600478"><ele>180.5</ele><time>2026-04-11T12:52:52.998Z</time></trkpt><trkpt lat="45.48603207214195" lon="11.577813459571756"><ele>181.0</ele><time>2026-04-11T12:52:53.998Z</time></trkpt><trkpt lat="45.486130649768" lon="11.577711771013293"><ele>179.75</ele><time>2026-04-11T12:52:55Z</time></trkpt><trkpt lat="45.486219306174874" lon="11.577577715496703"><ele>178.5</ele><time>2026-04-11T12:52:56Z</time></trkpt><trkpt lat="45.486313367304916" lon="11.577483451146978"><ele>177.25</ele><time>2026-04-11T12:52:57Z</time></trkpt><trkpt lat="45.48642047435003" lon="11.577397683601292"><ele>176.0</ele><time>2026-04-11T12:52:58Z</time></trkpt><trkpt lat="45.48653457738218" lon="11.577335604566445"><ele>176.0</ele><time>2026-04-11T12:52:59Z</time></trkpt><trkpt lat="45.48666461496388" lon="11.577269766410254"><ele>176.0</ele><time>2026-04-11T12:53:00Z</time></trkpt><trkpt lat="45.48679586130452" lon="11.577264464869174"><ele>176.0</ele><time>2026-04-11T12:53:01Z</time></trkpt><trkpt lat="45.486925829449746" lon="11.577268119615457"><ele>176.0</ele><time>2026-04-11T12:53:02Z</time></trkpt><trkpt lat="45.48705995810752" lon="11.5772978141051"><ele>174.0</ele><time>2026-04-11T12:53:03Z</time></trkpt><trkpt lat="45.48721113811574" lon="11.577307315361207"><ele>172.0</ele><time>2026-04-11T12:53:04Z</time></trkpt><trkpt lat="45.4873609769572" lon="11.57734564770509"><ele>170.0</ele><time>2026-04-11T12:53:05Z</time></trkpt><trkpt lat="45.48749874929759" lon="11.577351674093359"><ele>168.0</ele><time>2026-04-11T12:53:06Z</time></trkpt><trkpt lat="45.48762647549702" lon="11.577319709950238"><ele>168.0</ele><time>2026-04-11T12:53:07Z</time></trkpt><trkpt lat="45.48775186370115" lon="11.577268120574303"><ele>168.0</ele><time>2026-04-11T12:53:08Z</time></trkpt><trkpt lat="45.48788280420151" lon="11.57718039125787"><ele>168.0</ele><time>2026-04-11T12:53:09Z</time></trkpt><trkpt lat="45.48802076542562" lon="11.577090739111059"><ele>168.0</ele><time>2026-04-11T12:53:10Z</time></trkpt><trkpt lat="45.48815614971384" lon="11.577006221455802"><ele>165.0</ele><time>2026-04-11T12:53:11Z</time></trkpt><trkpt lat="45.48829480959491" lon="11.576937199417854"><ele>162.0</ele><time>2026-04-11T12:53:12Z</time></trkpt><trkpt lat="45.48842584259469" lon="11.57686615674331"><ele>159.0</ele><time>2026-04-11T12:53:13Z</time></trkpt><trkpt lat="45.48855323009471" lon="11.576782738995474"><ele>156.0</ele><time>2026-04-11T12:53:14Z</time></trkpt><trkpt lat="45.48867149189701" lon="11.576662478081722"><ele>156.0</ele><time>2026-04-11T12:53:15Z</time></trkpt><trkpt lat="45.48877747683787" lon="11.57653146119908"><ele>156.0</ele><time>2026-04-11T12:53:16Z</time></trkpt><trkpt lat="45.488877051237665" lon="11.576393549571339"><ele>156.0</ele><time>2026-04-11T12:53:17Z</time></trkpt><trkpt lat="45.488976116417106" lon="11.576240283505081"><ele>156.0</ele><time>2026-04-11T12:53:18Z</time></trkpt><trkpt lat="45.489061144269456" lon="11.576081583672797"><ele>155.75</ele><time>2026-04-11T12:53:19Z</time></trkpt><trkpt lat="45.48913783014711" lon="11.57590847048819"><ele>155.5</ele><time>2026-04-11T12:53:20Z</time></trkpt><trkpt lat="45.489215799069825" lon="11.575747029667909"><ele>155.25</ele><time>2026-04-11T12:53:21Z</time></trkpt><trkpt lat="45.489305024262784" lon="11.575593145483353"><ele>155.0</ele><time>2026-04-11T12:53:22Z</time></trkpt><trkpt lat="45.489410265357776" lon="11.575462084094735"><ele>155.0</ele><time>2026-04-11T12:53:23Z</time></trkpt><trkpt lat="45.4895320874115" lon="11.575359878441073"><ele>155.0</ele><time>2026-04-11T12:53:24Z</time></trkpt><trkpt lat="45.48966715312871" lon="11.575277059650954"><ele>155.0</ele><time>2026-04-11T12:53:25Z</time></trkpt><trkpt lat="45.489815175503196" lon="11.575212354450246"><ele>155.0</ele><time>2026-04-11T12:53:26Z</time></trkpt><trkpt lat="45.48996661453761" lon="11.575141880796709"><ele>154.33333333333331</ele><time>2026-04-11T12:53:27Z</time></trkpt><trkpt lat="45.49013165159438" lon="11.575092579644336"><ele>153.66666666666666</ele><time>2026-04-11T12:53:28Z</time></trkpt><trkpt lat="45.490288509817816" lon="11.575065284152362"><ele>153.0</ele><time>2026-04-11T12:53:29Z</time></trkpt><trkpt lat="45.4904312391366" lon="11.57503953132585"><ele>152.25</ele><time>2026-04-11T12:53:30Z</time></trkpt><trkpt lat="45.490562725860066" lon="11.575014022249098"><ele>151.5</ele><time>2026-04-11T12:53:31Z</time></trkpt><trkpt lat="45.49069730207516" lon="11.57495381577162"><ele>150.75</ele><time>2026-04-11T12:53:32Z</time></trkpt><trkpt lat="45.4908298593108" lon="11.57486066485413"><ele>150.0</ele><time>2026-04-11T12:53:32.999Z</time></trkpt><trkpt lat="45.49095662875648" lon="11.574765202717655"><ele>150.0</ele><time>2026-04-11T12:53:33.999Z</time></trkpt><trkpt lat="45.49107920543975" lon="11.5746994611696"><ele>150.0</ele><time>2026-04-11T12:53:34.999Z</time></trkpt><trkpt lat="45.49117844615281" lon="11.574637837429162"><ele>150.0</ele><time>2026-04-11T12:53:35.999Z</time></trkpt><trkpt lat="45.4912692982787" lon="11.574603796987049"><ele>150.0</ele><time>2026-04-11T12:53:36.999Z</time></trkpt><trkpt lat="45.49136625547036" lon="11.574617238005533"><ele>150.0</ele><time>2026-04-11T12:53:37.999Z</time></trkpt><trkpt lat="45.49143715493304" lon="11.574729888687449"><ele>149.6</ele><time>2026-04-11T12:53:38.999Z</time></trkpt><trkpt lat="45.491476985240446" lon="11.574848960664895"><ele>149.2</ele><time>2026-04-11T12:53:39.999Z</time></trkpt><trkpt lat="45.49149726669082" lon="11.575005795690254"><ele>148.8</ele><time>2026-04-11T12:53:40.999Z</time></trkpt><trkpt lat="45.491479587640406" lon="11.575162339432348"><ele>148.4</ele><time>2026-04-11T12:53:41.999Z</time></trkpt><trkpt lat="45.491458847400686" lon="11.575334462200484"><ele>148.0</ele><time>2026-04-11T12:53:42.999Z</time></trkpt><trkpt lat="45.49145685354298" lon="11.575496711567439"><ele>146.20000000000002</ele><time>2026-04-11T12:53:43.999Z</time></trkpt><trkpt lat="45.491439532599024" lon="11.575648424513975"><ele>144.4</ele><time>2026-04-11T12:53:44.999Z</time></trkpt><trkpt lat="45.4914665795485" lon="11.575775156670392"><ele>142.60000000000002</ele><time>2026-04-11T12:53:45.999Z</time></trkpt><trkpt lat="45.49152465283936" lon="11.575876753393805"><ele>140.8</ele><time>2026-04-11T12:53:46.999Z</time></trkpt><trkpt lat="45.491629349248974" lon="11.575911788343328"><ele>139.0</ele><time>2026-04-11T12:53:47.999Z</time></trkpt><trkpt lat="45.49174207235155" lon="11.575881665455116"><ele>139.0</ele><time>2026-04-11T12:53:48.999Z</time></trkpt><trkpt lat="45.49186160928103" lon="11.575783657441034"><ele>139.0</ele><time>2026-04-11T12:53:49.999Z</time></trkpt><trkpt lat="45.49198948704453" lon="11.575700406333226"><ele>139.0</ele><time>2026-04-11T12:53:50.999Z</time></trkpt><trkpt lat="45.492129391096" lon="11.575635669273598"><ele>139.0</ele><time>2026-04-11T12:53:51.999Z</time></trkpt><trkpt lat="45.49227619084754" lon="11.575621141155496"><ele>135.33333333333334</ele><time>2026-04-11T12:53:52.999Z</time></trkpt><trkpt lat="45.492433453463796" lon="11.57559186544788"><ele>131.66666666666666</ele><time>2026-04-11T12:53:53.999Z</time></trkpt><trkpt lat="45.49260708301139" lon="11.575570621436555"><ele>128.0</ele><time>2026-04-11T12:53:54.999Z</time></trkpt><trkpt lat="45.49277693747911" lon="11.575536185292352"><ele>123.66666666666666</ele><time>2026-04-11T12:53:55.999Z</time></trkpt><trkpt lat="45.49294753750556" lon="11.575537346670822"><ele>119.33333333333334</ele><time>2026-04-11T12:53:56.999Z</time></trkpt><trkpt lat="45.4931077735405" lon="11.57554571056127"><ele>115.0</ele><time>2026-04-11T12:53:57.999Z</time></trkpt><trkpt lat="45.493264567620365" lon="11.575545092943674"><ele>115.0</ele><time>2026-04-11T12:53:58.999Z</time></trkpt><trkpt lat="45.49341682720737" lon="11.575526365185498"><ele>115.0</ele><time>2026-04-11T12:53:59.999Z</time></trkpt><trkpt lat="45.493572706862956" lon="11.575484385984867"><ele>115.0</ele><time>2026-04-11T12:54:00.999Z</time></trkpt><trkpt lat="45.49373398615074" lon="11.575419552235612"><ele>115.33333333333334</ele><time>2026-04-11T12:54:01.999Z</time></trkpt><trkpt lat="45.49389820396689" lon="11.575342652756682"><ele>115.66666666666666</ele><time>2026-04-11T12:54:02.999Z</time></trkpt><trkpt lat="45.49406549298879" lon="11.575287549864912"><ele>116.0</ele><time>2026-04-11T12:54:03.999Z</time></trkpt><trkpt lat="45.494219870636876" lon="11.575247475428728"><ele>116.0</ele><time>2026-04-11T12:54:04.999Z</time></trkpt><trkpt lat="45.494369436441104" lon="11.575157559657512"><ele>116.0</ele><time>2026-04-11T12:54:05.999Z</time></trkpt><trkpt lat="45.49452372080283" lon="11.575080286868154"><ele>116.0</ele><time>2026-04-11T12:54:06.999Z</time></trkpt><trkpt lat="45.49467623326555" lon="11.57498297305086"><ele>111.0</ele><time>2026-04-11T12:54:07.999Z</time></trkpt><trkpt lat="45.494819589498746" lon="11.574871143923948"><ele>106.0</ele><time>2026-04-11T12:54:08.999Z</time></trkpt><trkpt lat="45.49496391225169" lon="11.57473829737889"><ele>101.0</ele><time>2026-04-11T12:54:09.999Z</time></trkpt><trkpt lat="45.49511333116873" lon="11.574625545558554"><ele>102.33333333333333</ele><time>2026-04-11T12:54:10.999Z</time></trkpt><trkpt lat="45.49526091836539" lon="11.574502615152287"><ele>103.66666666666666</ele><time>2026-04-11T12:54:11.999Z</time></trkpt><trkpt lat="45.495396395068205" lon="11.574371738643135"><ele>105.0</ele><time>2026-04-11T12:54:12.999Z</time></trkpt><trkpt lat="45.495524193538756" lon="11.574248630712347"><ele>105.0</ele><time>2026-04-11T12:54:13.999Z</time></trkpt><trkpt lat="45.495656411147905" lon="11.574155953907086"><ele>105.0</ele><time>2026-04-11T12:54:14.999Z</time></trkpt><trkpt lat="45.49579547585926" lon="11.574102577869747"><ele>105.0</ele><time>2026-04-11T12:54:15.999Z</time></trkpt><trkpt lat="45.49592132613332" lon="11.57407112610949"><ele>105.0</ele><time>2026-04-11T12:54:16.999Z</time></trkpt><trkpt lat="45.496051158396256" lon="11.574023062934996"><ele>105.0</ele><time>2026-04-11T12:54:17.999Z</time></trkpt><trkpt lat="45.496162070455235" lon="11.573936568501503"><ele>105.0</ele><time>2026-04-11T12:54:18.999Z</time></trkpt><trkpt lat="45.49624391343754" lon="11.57381827889466"><ele>105.0</ele><time>2026-04-11T12:54:19.998Z</time></trkpt><trkpt lat="45.496320627573326" lon="11.573669625319459"><ele>105.0</ele><time>2026-04-11T12:54:20.998Z</time></trkpt><trkpt lat="45.496399738011" lon="11.573520072541557"><ele>103.0</ele><time>2026-04-11T12:54:21.998Z</time></trkpt><trkpt lat="45.49648570082937" lon="11.573390713010642"><ele>101.0</ele><time>2026-04-11T12:54:22.998Z</time></trkpt><trkpt lat="45.496582764342776" lon="11.573275978113767"><ele>99.0</ele><time>2026-04-11T12:54:23.998Z</time></trkpt><trkpt lat="45.49668972774884" lon="11.573175700196668"><ele>97.0</ele><time>2026-04-11T12:54:24.998Z</time></trkpt><trkpt lat="45.49680706721746" lon="11.573091325896883"><ele>97.0</ele><time>2026-04-11T12:54:25.998Z</time></trkpt><trkpt lat="45.49693391525729" lon="11.57301204346767"><ele>97.0</ele><time>2026-04-11T12:54:26.998Z</time></trkpt><trkpt lat="45.49706260099592" lon="11.572940801587082"><ele>97.0</ele><time>2026-04-11T12:54:27.998Z</time></trkpt><trkpt lat="45.49719924145625" lon="11.572876971164732"><ele>97.0</ele><time>2026-04-11T12:54:28.998Z</time></trkpt><trkpt lat="45.49732946565841" lon="11.572832777280022"><ele>97.0</ele><time>2026-04-11T12:54:29.998Z</time></trkpt><trkpt lat="45.497457526770546" lon="11.572816384949089"><ele>97.0</ele><time>2026-04-11T12:54:30.998Z</time></trkpt><trkpt lat="45.49759785671303" lon="11.57284168715703"><ele>97.0</ele><time>2026-04-11T12:54:31.998Z</time></trkpt><trkpt lat="45.497734070388745" lon="11.572878143219778"><ele>97.0</ele><time>2026-04-11T12:54:32.998Z</time></trkpt><trkpt lat="45.4978795561163" lon="11.572900423409223"><ele>93.25</ele><time>2026-04-11T12:54:33.998Z</time></trkpt><trkpt lat="45.49801920108838" lon="11.57292040669481"><ele>89.5</ele><time>2026-04-11T12:54:34.998Z</time></trkpt><trkpt lat="45.498151181719976" lon="11.572940690747126"><ele>85.75</ele><time>2026-04-11T12:54:35.998Z</time></trkpt><trkpt lat="45.498278798597795" lon="11.572960956296498"><ele>82.0</ele><time>2026-04-11T12:54:36.998Z</time></trkpt><trkpt lat="45.49840016791062" lon="11.572973337011714"><ele>82.0</ele><time>2026-04-11T12:54:37.998Z</time></trkpt><trkpt lat="45.49851398306839" lon="11.572993887633817"><ele>82.0</ele><time>2026-04-11T12:54:38.998Z</time></trkpt><trkpt lat="45.49864290917251" lon="11.572989021593694"><ele>82.0</ele><time>2026-04-11T12:54:39.998Z</time></trkpt><trkpt lat="45.498760011947944" lon="11.572927053676"><ele>82.0</ele><time>2026-04-11T12:54:40.998Z</time></trkpt><trkpt lat="45.49887542076382" lon="11.572852760946736"><ele>81.5</ele><time>2026-04-11T12:54:41.998Z</time></trkpt><trkpt lat="45.49899626996572" lon="11.572792815616955"><ele>81.0</ele><time>2026-04-11T12:54:42.998Z</time></trkpt><trkpt lat="45.49912448749997" lon="11.572768757358668"><ele>80.5</ele><time>2026-04-11T12:54:43.998Z</time></trkpt><trkpt lat="45.49925537912308" lon="11.57278750351903"><ele>80.0</ele><time>2026-04-11T12:54:44.998Z</time></trkpt><trkpt lat="45.499375914807565" lon="11.572810085770906"><ele>80.0</ele><time>2026-04-11T12:54:45.998Z</time></trkpt><trkpt lat="45.4994992754236" lon="11.572774514652709"><ele>80.0</ele><time>2026-04-11T12:54:46.998Z</time></trkpt><trkpt lat="45.499610931341415" lon="11.572681397107836"><ele>80.0</ele><time>2026-04-11T12:54:47.998Z</time></trkpt><trkpt lat="45.49972405184091" lon="11.572569526268195"><ele>80.0</ele><time>2026-04-11T12:54:48.998Z</time></trkpt><trkpt lat="45.49984203030772" lon="11.572469726518612"><ele>75.33333333333334</ele><time>2026-04-11T12:54:49.998Z</time></trkpt><trkpt lat="45.49997943902197" lon="11.572414788006082"><ele>70.66666666666667</ele><time>2026-04-11T12:54:50.998Z</time></trkpt><trkpt lat="45.50013024188257" lon="11.5723657859947"><ele>66.0</ele><time>2026-04-11T12:54:51.998Z</time></trkpt><trkpt lat="45.50028291475017" lon="11.572314979033386"><ele>62.33333333333333</ele><time>2026-04-11T12:54:52.998Z</time></trkpt><trkpt lat="45.50043401324085" lon="11.572248910630387"><ele>58.666666666666664</ele><time>2026-04-11T12:54:53.998Z</time></trkpt><trkpt lat="45.500590188882214" lon="11.572188991037311"><ele>55.0</ele><time>2026-04-11T12:54:54.998Z</time></trkpt><trkpt lat="45.50073257190823" lon="11.572130424304937"><ele>55.0</ele><time>2026-04-11T12:54:55.998Z</time></trkpt><trkpt lat="45.50086403647754" lon="11.572070682357833"><ele>55.0</ele><time>2026-04-11T12:54:56.998Z</time></trkpt><trkpt lat="45.501003930124455" lon="11.572019988899074"><ele>55.0</ele><time>2026-04-11T12:54:57.998Z</time></trkpt><trkpt lat="45.501142268562376" lon="11.57196111132721"><ele>55.0</ele><time>2026-04-11T12:54:58.998Z</time></trkpt><trkpt lat="45.50127114802248" lon="11.571902188685375"><ele>53.75</ele><time>2026-04-11T12:54:59.998Z</time></trkpt><trkpt lat="45.50141168949627" lon="11.571833470160444"><ele>52.5</ele><time>2026-04-11T12:55:01Z</time></trkpt><trkpt lat="45.50153772035471" lon="11.57176100836158"><ele>51.25</ele><time>2026-04-11T12:55:02Z</time></trkpt><trkpt lat="45.50167039607294" lon="11.571667710675653"><ele>50.0</ele><time>2026-04-11T12:55:03Z</time></trkpt><trkpt lat="45.50178776821821" lon="11.571572419524989"><ele>50.0</ele><time>2026-04-11T12:55:04Z</time></trkpt><trkpt lat="45.50190480926644" lon="11.571479354953727"><ele>50.0</ele><time>2026-04-11T12:55:05Z</time></trkpt><trkpt lat="45.50201090225616" lon="11.571370994149644"><ele>50.0</ele><time>2026-04-11T12:55:06Z</time></trkpt><trkpt lat="45.502104821206046" lon="11.571238054937025"><ele>50.0</ele><time>2026-04-11T12:55:07Z</time></trkpt><trkpt lat="45.50218199580176" lon="11.571080285751995"><ele>48.0</ele><time>2026-04-11T12:55:08Z</time></trkpt><trkpt lat="45.502239123026165" lon="11.570923874054817"><ele>46.0</ele><time>2026-04-11T12:55:09Z</time></trkpt><trkpt lat="45.502315667570066" lon="11.570801990682474"><ele>44.0</ele><time>2026-04-11T12:55:10Z</time></trkpt><trkpt lat="45.50241531261799" lon="11.570733412573976"><ele>42.0</ele><time>2026-04-11T12:55:11Z</time></trkpt><trkpt lat="45.50252871131614" lon="11.570679239695748"><ele>42.0</ele><time>2026-04-11T12:55:12Z</time></trkpt><trkpt lat="45.50264387875576" lon="11.5706074724192"><ele>42.0</ele><time>2026-04-11T12:55:13Z</time></trkpt><trkpt lat="45.50275044238285" lon="11.570548487190559"><ele>42.0</ele><time>2026-04-11T12:55:14Z</time></trkpt><trkpt lat="45.50285450734087" lon="11.570456397441735"><ele>42.0</ele><time>2026-04-11T12:55:15Z</time></trkpt><trkpt lat="45.50295872281749" lon="11.570338565449392"><ele>40.75</ele><time>2026-04-11T12:55:16Z</time></trkpt><trkpt lat="45.50305208669647" lon="11.570224266267756"><ele>39.5</ele><time>2026-04-11T12:55:17Z</time></trkpt><trkpt lat="45.50314648124813" lon="11.570120845762299"><ele>38.25</ele><time>2026-04-11T12:55:18Z</time></trkpt><trkpt lat="45.503234117029535" lon="11.570017743368622"><ele>37.0</ele><time>2026-04-11T12:55:19Z</time></trkpt><trkpt lat="45.50331069642119" lon="11.569925351999412"><ele>37.0</ele><time>2026-04-11T12:55:20Z</time></trkpt><trkpt lat="45.50338416541637" lon="11.569837048094222"><ele>37.0</ele><time>2026-04-11T12:55:21Z</time></trkpt><trkpt lat="45.50347337319486" lon="11.56974974008458"><ele>37.0</ele><time>2026-04-11T12:55:22Z</time></trkpt><trkpt lat="45.503559410132084" lon="11.569680951050332"><ele>37.0</ele><time>2026-04-11T12:55:23Z</time></trkpt><trkpt lat="45.50363859894629" lon="11.569578456764807"><ele>37.0</ele><time>2026-04-11T12:55:24Z</time></trkpt><trkpt lat="45.503714638442894" lon="11.569499934680756"><ele>35.800000000000004</ele><time>2026-04-11T12:55:25Z</time></trkpt><trkpt lat="45.50378124043627" lon="11.569450704732905"><ele>34.6</ele><time>2026-04-11T12:55:26Z</time></trkpt><trkpt lat="45.50383814440971" lon="11.569408174534791"><ele>33.400000000000006</ele><time>2026-04-11T12:55:27Z</time></trkpt><trkpt lat="45.50392325819061" lon="11.56934887406489"><ele>32.2</ele><time>2026-04-11T12:55:29Z</time></trkpt><trkpt lat="45.50387086265896" lon="11.569220663335757"><ele>31.0</ele><time>2026-04-11T12:55:36Z</time></trkpt><trkpt lat="45.5037396480473" lon="11.569231578008099"><ele>31.000000000000004</ele><time>2026-04-11T12:55:38Z</time></trkpt><trkpt lat="45.50365705608639" lon="11.569231331056425"><ele>31.0</ele><time>2026-04-11T12:55:38.999Z</time></trkpt><trkpt lat="45.50359230674288" lon="11.569201621417767"><ele>31.0</ele><time>2026-04-11T12:55:39.999Z</time></trkpt><trkpt lat="45.50351450479337" lon="11.569162281783845"><ele>31.0</ele><time>2026-04-11T12:55:40.999Z</time></trkpt><trkpt lat="45.50342656324923" lon="11.569156906714394"><ele>31.000000000000004</ele><time>2026-04-11T12:55:41.999Z</time></trkpt><trkpt lat="45.50334571356486" lon="11.569174202324671"><ele>31.0</ele><time>2026-04-11T12:55:42.999Z</time></trkpt><trkpt lat="45.50326160832898" lon="11.569196539804206"><ele>31.0</ele><time>2026-04-11T12:55:43.999Z</time></trkpt><trkpt lat="45.50319044274508" lon="11.569238585367247"><ele>31.0</ele><time>2026-04-11T12:55:44.999Z</time></trkpt><trkpt lat="45.50305704624053" lon="11.569268456388398"><ele>31.0</ele><time>2026-04-11T12:55:46.999Z</time></trkpt><trkpt lat="45.502953762638704" lon="11.569292992867238"><ele>31.0</ele><time>2026-04-11T12:55:47.999Z</time></trkpt><trkpt lat="45.50283925850764" lon="11.569322061072887"><ele>31.0</ele><time>2026-04-11T12:55:48.999Z</time></trkpt><trkpt lat="45.502721204411294" lon="11.569341320862243"><ele>31.75</ele><time>2026-04-11T12:55:49.999Z</time></trkpt><trkpt lat="45.50259564635938" lon="11.56935401254022"><ele>32.5</ele><time>2026-04-11T12:55:50.999Z</time></trkpt><trkpt lat="45.50246642038422" lon="11.569378470321945"><ele>33.25</ele><time>2026-04-11T12:55:51.999Z</time></trkpt><trkpt lat="45.502328865215034" lon="11.56938170344636"><ele>34.0</ele><time>2026-04-11T12:55:52.999Z</time></trkpt><trkpt lat="45.50218380138525" lon="11.569387954913756"><ele>33.66666666666667</ele><time>2026-04-11T12:55:53.999Z</time></trkpt><trkpt lat="45.50203342975485" lon="11.569398146954766"><ele>33.333333333333336</ele><time>2026-04-11T12:55:54.999Z</time></trkpt><trkpt lat="45.50188683032541" lon="11.569400239997188"><ele>33.0</ele><time>2026-04-11T12:55:55.999Z</time></trkpt><trkpt lat="45.50172807213372" lon="11.569388922161767"><ele>33.0</ele><time>2026-04-11T12:55:56.999Z</time></trkpt><trkpt lat="45.50158536450702" lon="11.569371381091822"><ele>33.0</ele><time>2026-04-11T12:55:57.999Z</time></trkpt><trkpt lat="45.50144682025271" lon="11.569314624966701"><ele>33.0</ele><time>2026-04-11T12:55:58.999Z</time></trkpt><trkpt lat="45.501304137892" lon="11.569236663573186"><ele>33.0</ele><time>2026-04-11T12:55:59.999Z</time></trkpt><trkpt lat="45.50117093469408" lon="11.569146109007978"><ele>33.75</ele><time>2026-04-11T12:56:00.999Z</time></trkpt><trkpt lat="45.50105536298794" lon="11.569005500949535"><ele>34.5</ele><time>2026-04-11T12:56:01.999Z</time></trkpt><trkpt lat="45.50095614805022" lon="11.568859695595878"><ele>35.25</ele><time>2026-04-11T12:56:02.999Z</time></trkpt><trkpt lat="45.50086383460098" lon="11.568695124505224"><ele>36.0</ele><time>2026-04-11T12:56:03.999Z</time></trkpt><trkpt lat="45.500782429496454" lon="11.568531987818693"><ele>36.0</ele><time>2026-04-11T12:56:04.999Z</time></trkpt><trkpt lat="45.500687537340646" lon="11.568373439555158"><ele>36.0</ele><time>2026-04-11T12:56:05.999Z</time></trkpt><trkpt lat="45.500600865138345" lon="11.568203952606597"><ele>36.0</ele><time>2026-04-11T12:56:06.999Z</time></trkpt><trkpt lat="45.50051816912323" lon="11.568040660721882"><ele>36.0</ele><time>2026-04-11T12:56:07.999Z</time></trkpt><trkpt lat="45.50044247517665" lon="11.567896568335408"><ele>36.8</ele><time>2026-04-11T12:56:08.999Z</time></trkpt><trkpt lat="45.50037303794159" lon="11.567778640858474"><ele>37.6</ele><time>2026-04-11T12:56:09.999Z</time></trkpt><trkpt lat="45.500295521192655" lon="11.567667438314679"><ele>38.4</ele><time>2026-04-11T12:56:10.999Z</time></trkpt><trkpt lat="45.500209320039254" lon="11.56758697770518"><ele>39.2</ele><time>2026-04-11T12:56:11.999Z</time></trkpt><trkpt lat="45.50012001474927" lon="11.567542414526258"><ele>40.0</ele><time>2026-04-11T12:56:12.999Z</time></trkpt><trkpt lat="45.50002226403968" lon="11.567544410459972"><ele>40.0</ele><time>2026-04-11T12:56:13.999Z</time></trkpt><trkpt lat="45.49991916463992" lon="11.567516836354221"><ele>40.0</ele><time>2026-04-11T12:56:14.999Z</time></trkpt><trkpt lat="45.499792580517514" lon="11.567486761424028"><ele>40.0</ele><time>2026-04-11T12:56:15.999Z</time></trkpt><trkpt lat="45.49969763076338" lon="11.567446402098522"><ele>40.0</ele><time>2026-04-11T12:56:16.999Z</time></trkpt><trkpt lat="45.49962315381102" lon="11.567411122843483"><ele>40.0</ele><time>2026-04-11T12:56:17.999Z</time></trkpt><trkpt lat="45.4995704366894" lon="11.56733971362085"><ele>39.5</ele><time>2026-04-11T12:56:18.999Z</time></trkpt><trkpt lat="45.49952931257819" lon="11.567201955883297"><ele>39.0</ele><time>2026-04-11T12:56:19.999Z</time></trkpt><trkpt lat="45.49946354592202" lon="11.567051973628415"><ele>38.5</ele><time>2026-04-11T12:56:20.999Z</time></trkpt><trkpt lat="45.49938766149769" lon="11.566918711744167"><ele>38.0</ele><time>2026-04-11T12:56:21.999Z</time></trkpt><trkpt lat="45.49930332670008" lon="11.56680474262089"><ele>38.0</ele><time>2026-04-11T12:56:22.999Z</time></trkpt><trkpt lat="45.49919198739349" lon="11.56672264455181"><ele>38.0</ele><time>2026-04-11T12:56:23.999Z</time></trkpt><trkpt lat="45.49905647341776" lon="11.56667043363729"><ele>38.0</ele><time>2026-04-11T12:56:24.999Z</time></trkpt><trkpt lat="45.49889839934709" lon="11.566639720117518"><ele>38.0</ele><time>2026-04-11T12:56:25.998Z</time></trkpt><trkpt lat="45.49873091165008" lon="11.566630490770914"><ele>37.0</ele><time>2026-04-11T12:56:26.998Z</time></trkpt><trkpt lat="45.49855160542473" lon="11.566644219683917"><ele>36.0</ele><time>2026-04-11T12:56:27.998Z</time></trkpt><trkpt lat="45.498363530627124" lon="11.566667442395449"><ele>35.0</ele><time>2026-04-11T12:56:28.998Z</time></trkpt><trkpt lat="45.498179499041896" lon="11.566685140131705"><ele>35.0</ele><time>2026-04-11T12:56:29.998Z</time></trkpt><trkpt lat="45.49802366167778" lon="11.566673295053848"><ele>35.0</ele><time>2026-04-11T12:56:30.998Z</time></trkpt><trkpt lat="45.49788760549315" lon="11.566668608051442"><ele>35.0</ele><time>2026-04-11T12:56:31.998Z</time></trkpt><trkpt lat="45.49776382884047" lon="11.566655296226775"><ele>35.0</ele><time>2026-04-11T12:56:32.998Z</time></trkpt><trkpt lat="45.4976363506809" lon="11.566629616585866"><ele>36.75</ele><time>2026-04-11T12:56:33.998Z</time></trkpt><trkpt lat="45.49750188974277" lon="11.566585100034807"><ele>38.5</ele><time>2026-04-11T12:56:34.998Z</time></trkpt><trkpt lat="45.49736693406809" lon="11.5665162045699"><ele>40.25</ele><time>2026-04-11T12:56:35.998Z</time></trkpt><trkpt lat="45.49724815241621" lon="11.566448339384436"><ele>42.0</ele><time>2026-04-11T12:56:36.998Z</time></trkpt><trkpt lat="45.497141851292035" lon="11.566411438649947"><ele>41.0</ele><time>2026-04-11T12:56:37.998Z</time></trkpt><trkpt lat="45.49703972914347" lon="11.566385877522283"><ele>40.0</ele><time>2026-04-11T12:56:38.998Z</time></trkpt><trkpt lat="45.49691876166268" lon="11.566397859108596"><ele>39.0</ele><time>2026-04-11T12:56:39.998Z</time></trkpt><trkpt lat="45.496801266531726" lon="11.566454823934748"><ele>38.0</ele><time>2026-04-11T12:56:40.998Z</time></trkpt><trkpt lat="45.49668517513936" lon="11.566534733108162"><ele>38.0</ele><time>2026-04-11T12:56:41.998Z</time></trkpt><trkpt lat="45.496573307472005" lon="11.566628396127877"><ele>38.0</ele><time>2026-04-11T12:56:42.998Z</time></trkpt><trkpt lat="45.496462630721666" lon="11.566737100997079"><ele>38.0</ele><time>2026-04-11T12:56:43.998Z</time></trkpt><trkpt lat="45.496353862052594" lon="11.566867792827091"><ele>38.0</ele><time>2026-04-11T12:56:44.998Z</time></trkpt><trkpt lat="45.496228698465195" lon="11.566993544136581"><ele>38.666666666666664</ele><time>2026-04-11T12:56:45.998Z</time></trkpt><trkpt lat="45.49610840353813" lon="11.567138889614247"><ele>39.333333333333336</ele><time>2026-04-11T12:56:46.998Z</time></trkpt><trkpt lat="45.49598025886917" lon="11.567287083245988"><ele>40.0</ele><time>2026-04-11T12:56:47.998Z</time></trkpt><trkpt lat="45.495843136725696" lon="11.567441022962164"><ele>40.0</ele><time>2026-04-11T12:56:48.998Z</time></trkpt><trkpt lat="45.4957163159013" lon="11.567582242776753"><ele>40.0</ele><time>2026-04-11T12:56:49.998Z</time></trkpt><trkpt lat="45.49559934100895" lon="11.567709657164992"><ele>40.0</ele><time>2026-04-11T12:56:50.998Z</time></trkpt><trkpt lat="45.49547367110953" lon="11.567834087629318"><ele>41.75</ele><time>2026-04-11T12:56:51.998Z</time></trkpt><trkpt lat="45.49534736202026" lon="11.567935417837017"><ele>43.5</ele><time>2026-04-11T12:56:52.998Z</time></trkpt><trkpt lat="45.49521305830114" lon="11.568026182562182"><ele>45.25</ele><time>2026-04-11T12:56:53.998Z</time></trkpt><trkpt lat="45.49506773535553" lon="11.568094549724579"><ele>47.0</ele><time>2026-04-11T12:56:54.998Z</time></trkpt><trkpt lat="45.49491953289572" lon="11.568163194962866"><ele>47.0</ele><time>2026-04-11T12:56:55.998Z</time></trkpt><trkpt lat="45.49477500875315" lon="11.56824501687248"><ele>47.0</ele><time>2026-04-11T12:56:56.998Z</time></trkpt><trkpt lat="45.494623958643594" lon="11.568314677987281"><ele>47.0</ele><time>2026-04-11T12:56:57.998Z</time></trkpt><trkpt lat="45.494467132615036" lon="11.568385440051665"><ele>43.0</ele><time>2026-04-11T12:56:58.998Z</time></trkpt><trkpt lat="45.49432318690152" lon="11.568463502912516"><ele>39.0</ele><time>2026-04-11T12:56:59.998Z</time></trkpt><trkpt lat="45.49416079337134" lon="11.568506462032264"><ele>35.0</ele><time>2026-04-11T12:57:00.998Z</time></trkpt><trkpt lat="45.494008785780224" lon="11.568586680086728"><ele>35.0</ele><time>2026-04-11T12:57:01.998Z</time></trkpt><trkpt lat="45.493857310171336" lon="11.568638078286332"><ele>35.0</ele><time>2026-04-11T12:57:02.998Z</time></trkpt><trkpt lat="45.493717821185015" lon="11.568688169867801"><ele>35.0</ele><time>2026-04-11T12:57:03.998Z</time></trkpt><trkpt lat="45.49358215821955" lon="11.568745459210348"><ele>35.0</ele><time>2026-04-11T12:57:04.998Z</time></trkpt><trkpt lat="45.49344122954593" lon="11.568783041860772"><ele>36.25</ele><time>2026-04-11T12:57:05.998Z</time></trkpt><trkpt lat="45.4933065471912" lon="11.568860990059665"><ele>37.5</ele><time>2026-04-11T12:57:07Z</time></trkpt><trkpt lat="45.493159866222705" lon="11.568925534243412"><ele>38.75</ele><time>2026-04-11T12:57:08Z</time></trkpt><trkpt lat="45.49301829831169" lon="11.568987665508034"><ele>40.0</ele><time>2026-04-11T12:57:09Z</time></trkpt><trkpt lat="45.49287941829373" lon="11.569050945102001"><ele>40.0</ele><time>2026-04-11T12:57:10Z</time></trkpt><trkpt lat="45.49273668572728" lon="11.569130712044137"><ele>40.0</ele><time>2026-04-11T12:57:11Z</time></trkpt><trkpt lat="45.49259172837943" lon="11.569243645156096"><ele>40.0</ele><time>2026-04-11T12:57:12Z</time></trkpt><trkpt lat="45.492438498846" lon="11.569328554193527"><ele>40.0</ele><time>2026-04-11T12:57:13Z</time></trkpt><trkpt lat="45.49228605866227" lon="11.56942372504974"><ele>40.0</ele><time>2026-04-11T12:57:14Z</time></trkpt><trkpt lat="45.49213171992732" lon="11.569536191082818"><ele>40.0</ele><time>2026-04-11T12:57:15Z</time></trkpt><trkpt lat="45.491981801449946" lon="11.56962011947574"><ele>44.0</ele><time>2026-04-11T12:57:16Z</time></trkpt><trkpt lat="45.49183150915424" lon="11.569704976077603"><ele>48.0</ele><time>2026-04-11T12:57:17Z</time></trkpt><trkpt lat="45.49167978828718" lon="11.569790502333081"><ele>52.0</ele><time>2026-04-11T12:57:18Z</time></trkpt><trkpt lat="45.49152741548919" lon="11.56987380393591"><ele>52.0</ele><time>2026-04-11T12:57:19Z</time></trkpt><trkpt lat="45.4913693413783" lon="11.569953830630407"><ele>52.0</ele><time>2026-04-11T12:57:20Z</time></trkpt><trkpt lat="45.49121136710093" lon="11.57003222340806"><ele>52.0</ele><time>2026-04-11T12:57:21Z</time></trkpt><trkpt lat="45.49105494358604" lon="11.570097550741904"><ele>47.666666666666664</ele><time>2026-04-11T12:57:22Z</time></trkpt><trkpt lat="45.49089182538256" lon="11.570143821105221"><ele>43.33333333333333</ele><time>2026-04-11T12:57:23Z</time></trkpt><trkpt lat="45.49072491505417" lon="11.5701970899125"><ele>39.0</ele><time>2026-04-11T12:57:24Z</time></trkpt><trkpt lat="45.49056903827106" lon="11.570274678526326"><ele>39.666666666666664</ele><time>2026-04-11T12:57:25Z</time></trkpt><trkpt lat="45.49041853755434" lon="11.570366628748419"><ele>40.33333333333333</ele><time>2026-04-11T12:57:26Z</time></trkpt><trkpt lat="45.49027209972161" lon="11.570457649722794"><ele>41.0</ele><time>2026-04-11T12:57:27Z</time></trkpt><trkpt lat="45.490122833470586" lon="11.570559902714455"><ele>41.0</ele><time>2026-04-11T12:57:28Z</time></trkpt><trkpt lat="45.48997788077631" lon="11.570675835832313"><ele>41.0</ele><time>2026-04-11T12:57:29Z</time></trkpt><trkpt lat="45.48983766932003" lon="11.570795261206621"><ele>41.0</ele><time>2026-04-11T12:57:30Z</time></trkpt><trkpt lat="45.48971998332561" lon="11.57091656005914"><ele>41.0</ele><time>2026-04-11T12:57:31Z</time></trkpt><trkpt lat="45.48960454009059" lon="11.571060654930301"><ele>41.0</ele><time>2026-04-11T12:57:32Z</time></trkpt><trkpt lat="45.48949302809572" lon="11.571228572029158"><ele>41.0</ele><time>2026-04-11T12:57:33Z</time></trkpt><trkpt lat="45.48938869019575" lon="11.57142012544814"><ele>39.33333333333333</ele><time>2026-04-11T12:57:34Z</time></trkpt><trkpt lat="45.489276631484586" lon="11.571603674424836"><ele>37.666666666666664</ele><time>2026-04-11T12:57:35Z</time></trkpt><trkpt lat="45.48915511085166" lon="11.571788472317559"><ele>36.0</ele><time>2026-04-11T12:57:36Z</time></trkpt><trkpt lat="45.48901489994325" lon="11.571949925704114"><ele>35.333333333333336</ele><time>2026-04-11T12:57:37Z</time></trkpt><trkpt lat="45.48887223115459" lon="11.57214814531307"><ele>34.66666666666667</ele><time>2026-04-11T12:57:38Z</time></trkpt><trkpt lat="45.488726813046" lon="11.57230794806968"><ele>34.0</ele><time>2026-04-11T12:57:39Z</time></trkpt><trkpt lat="45.48859498874557" lon="11.572459525576063"><ele>34.0</ele><time>2026-04-11T12:57:40Z</time></trkpt><trkpt lat="45.488455919519005" lon="11.572602574031423"><ele>34.0</ele><time>2026-04-11T12:57:41Z</time></trkpt><trkpt lat="45.48831518735792" lon="11.572738692218477"><ele>34.0</ele><time>2026-04-11T12:57:42Z</time></trkpt><trkpt lat="45.48817134584485" lon="11.572871412442579"><ele>36.0</ele><time>2026-04-11T12:57:42.999Z</time></trkpt><trkpt lat="45.48802997885219" lon="11.573002642648516"><ele>38.0</ele><time>2026-04-11T12:57:43.999Z</time></trkpt><trkpt lat="45.48788451393736" lon="11.573129136237332"><ele>40.0</ele><time>2026-04-11T12:57:44.999Z</time></trkpt><trkpt lat="45.48773882909458" lon="11.573245231016434"><ele>40.0</ele><time>2026-04-11T12:57:45.999Z</time></trkpt><trkpt lat="45.48758931471182" lon="11.573359854263197"><ele>40.0</ele><time>2026-04-11T12:57:46.999Z</time></trkpt><trkpt lat="45.487438597767266" lon="11.573465054864034"><ele>40.0</ele><time>2026-04-11T12:57:47.999Z</time></trkpt><trkpt lat="45.48728796527667" lon="11.573560141525359"><ele>40.0</ele><time>2026-04-11T12:57:48.999Z</time></trkpt><trkpt lat="45.48714893747519" lon="11.573623455438316"><ele>40.0</ele><time>2026-04-11T12:57:49.999Z</time></trkpt><trkpt lat="45.48701360374981" lon="11.573676121572538"><ele>40.0</ele><time>2026-04-11T12:57:50.999Z</time></trkpt><trkpt lat="45.48688806023585" lon="11.57370410611739"><ele>40.0</ele><time>2026-04-11T12:57:51.999Z</time></trkpt><trkpt lat="45.48676219554699" lon="11.573669822052517"><ele>42.75</ele><time>2026-04-11T12:57:52.999Z</time></trkpt><trkpt lat="45.48662962443893" lon="11.573662979134038"><ele>45.5</ele><time>2026-04-11T12:57:53.999Z</time></trkpt><trkpt lat="45.486501013804435" lon="11.57363814117819"><ele>48.25</ele><time>2026-04-11T12:57:54.999Z</time></trkpt><trkpt lat="45.48636476128861" lon="11.573655127861477"><ele>51.0</ele><time>2026-04-11T12:57:55.999Z</time></trkpt><trkpt lat="45.48621582632908" lon="11.573705870941147"><ele>51.0</ele><time>2026-04-11T12:57:56.999Z</time></trkpt><trkpt lat="45.48604718417803" lon="11.57376163618213"><ele>51.0</ele><time>2026-04-11T12:57:57.999Z</time></trkpt><trkpt lat="45.485881229724995" lon="11.573759333773705"><ele>51.0</ele><time>2026-04-11T12:57:58.999Z</time></trkpt><trkpt lat="45.485715895683875" lon="11.573793038097868"><ele>51.0</ele><time>2026-04-11T12:57:59.999Z</time></trkpt><trkpt lat="45.48556482780434" lon="11.573790603248256"><ele>51.0</ele><time>2026-04-11T12:58:00.999Z</time></trkpt><trkpt lat="45.48542393472885" lon="11.573785000684481"><ele>51.0</ele><time>2026-04-11T12:58:01.999Z</time></trkpt><trkpt lat="45.48530211243384" lon="11.573787655947484"><ele>51.0</ele><time>2026-04-11T12:58:02.999Z</time></trkpt><trkpt lat="45.485205205211344" lon="11.573781413364937"><ele>51.199999999999996</ele><time>2026-04-11T12:58:03.999Z</time></trkpt><trkpt lat="45.48513463011157" lon="11.573727093092451"><ele>51.4</ele><time>2026-04-11T12:58:04.999Z</time></trkpt><trkpt lat="45.485068614344534" lon="11.573660853262897"><ele>51.6</ele><time>2026-04-11T12:58:05.999Z</time></trkpt><trkpt lat="45.48500261991488" lon="11.573559043836356"><ele>51.8</ele><time>2026-04-11T12:58:06.999Z</time></trkpt><trkpt lat="45.48495308019754" lon="11.573431893630602"><ele>52.0</ele><time>2026-04-11T12:58:07.999Z</time></trkpt><trkpt lat="45.484892575682274" lon="11.573289586912885"><ele>48.83333333333333</ele><time>2026-04-11T12:58:08.999Z</time></trkpt><trkpt lat="45.48482348189158" lon="11.573165817127212"><ele>45.666666666666664</ele><time>2026-04-11T12:58:09.999Z</time></trkpt><trkpt lat="45.4847699897919" lon="11.573041586814313"><ele>42.5</ele><time>2026-04-11T12:58:10.999Z</time></trkpt><trkpt lat="45.484743658849716" lon="11.572917528928809"><ele>39.33333333333333</ele><time>2026-04-11T12:58:11.999Z</time></trkpt><trkpt lat="45.48471605634007" lon="11.5728224992997"><ele>36.166666666666664</ele><time>2026-04-11T12:58:12.999Z</time></trkpt><trkpt lat="45.4847055998959" lon="11.572730747971555"><ele>33.0</ele><time>2026-04-11T12:58:13.999Z</time></trkpt><trkpt lat="45.48468208281914" lon="11.57262262357845"><ele>32.6</ele><time>2026-04-11T12:58:14.999Z</time></trkpt><trkpt lat="45.48468364695218" lon="11.572509620509983"><ele>32.199999999999996</ele><time>2026-04-11T12:58:15.999Z</time></trkpt><trkpt lat="45.484709592747365" lon="11.572379542694351"><ele>31.8</ele><time>2026-04-11T12:58:16.999Z</time></trkpt><trkpt lat="45.484779134994085" lon="11.572246092372456"><ele>31.4</ele><time>2026-04-11T12:58:17.999Z</time></trkpt><trkpt lat="45.484822412773006" lon="11.572101751552022"><ele>31.0</ele><time>2026-04-11T12:58:18.999Z</time></trkpt><trkpt lat="45.48488366540629" lon="11.571955857994864"><ele>32.25</ele><time>2026-04-11T12:58:19.999Z</time></trkpt><trkpt lat="45.48494377690452" lon="11.571792189709061"><ele>33.5</ele><time>2026-04-11T12:58:20.999Z</time></trkpt><trkpt lat="45.484986810315384" lon="11.571626546798397"><ele>34.75</ele><time>2026-04-11T12:58:21.999Z</time></trkpt><trkpt lat="45.48500480027258" lon="11.571463970035994"><ele>36.0</ele><time>2026-04-11T12:58:22.999Z</time></trkpt><trkpt lat="45.485000689055376" lon="11.571323306914024"><ele>34.4</ele><time>2026-04-11T12:58:23.999Z</time></trkpt><trkpt lat="45.48497416250278" lon="11.571179796360553"><ele>32.8</ele><time>2026-04-11T12:58:24.999Z</time></trkpt><trkpt lat="45.484934159910935" lon="11.57104716340193"><ele>31.199999999999996</ele><time>2026-04-11T12:58:25.999Z</time></trkpt><trkpt lat="45.484875405424816" lon="11.570922522995675"><ele>29.599999999999998</ele><time>2026-04-11T12:58:26.999Z</time></trkpt><trkpt lat="45.48479501691326" lon="11.570813177302405"><ele>28.0</ele><time>2026-04-11T12:58:27.999Z</time></trkpt><trkpt lat="45.484691348700586" lon="11.570722619613546"><ele>34.0</ele><time>2026-04-11T12:58:28.998Z</time></trkpt><trkpt lat="45.48457389473195" lon="11.570643246802735"><ele>40.0</ele><time>2026-04-11T12:58:29.998Z</time></trkpt><trkpt lat="45.484454473622264" lon="11.57056596581597"><ele>46.0</ele><time>2026-04-11T12:58:30.998Z</time></trkpt><trkpt lat="45.48433905373314" lon="11.570474987153558"><ele>52.0</ele><time>2026-04-11T12:58:31.998Z</time></trkpt><trkpt lat="45.484216669408944" lon="11.570391317272964"><ele>51.75</ele><time>2026-04-11T12:58:32.998Z</time></trkpt><trkpt lat="45.48409581111686" lon="11.570301649899791"><ele>51.5</ele><time>2026-04-11T12:58:33.998Z</time></trkpt><trkpt lat="45.483975924205346" lon="11.570199666048078"><ele>51.25</ele><time>2026-04-11T12:58:34.998Z</time></trkpt><trkpt lat="45.4838574442154" lon="11.570079291417015"><ele>51.0</ele><time>2026-04-11T12:58:35.998Z</time></trkpt><trkpt lat="45.48373786742661" lon="11.56994770231876"><ele>51.0</ele><time>2026-04-11T12:58:36.998Z</time></trkpt><trkpt lat="45.48362100510366" lon="11.569824828588294"><ele>51.0</ele><time>2026-04-11T12:58:37.998Z</time></trkpt><trkpt lat="45.483502593839376" lon="11.56971875545232"><ele>51.0</ele><time>2026-04-11T12:58:38.998Z</time></trkpt><trkpt lat="45.483388817472054" lon="11.569618830324217"><ele>51.0</ele><time>2026-04-11T12:58:39.998Z</time></trkpt><trkpt lat="45.48327790239868" lon="11.569515151504914"><ele>49.75</ele><time>2026-04-11T12:58:40.998Z</time></trkpt><trkpt lat="45.483161520434734" lon="11.569421216041373"><ele>48.5</ele><time>2026-04-11T12:58:41.998Z</time></trkpt><trkpt lat="45.4830573445788" lon="11.569299209689415"><ele>47.25</ele><time>2026-04-11T12:58:42.998Z</time></trkpt><trkpt lat="45.48294792065052" lon="11.56920852375909"><ele>46.0</ele><time>2026-04-11T12:58:43.998Z</time></trkpt><trkpt lat="45.48285731051777" lon="11.569109223733237"><ele>46.0</ele><time>2026-04-11T12:58:44.998Z</time></trkpt><trkpt lat="45.48277495096387" lon="11.569028701608469"><ele>46.0</ele><time>2026-04-11T12:58:45.998Z</time></trkpt><trkpt lat="45.482699839475735" lon="11.56897222424553"><ele>46.0</ele><time>2026-04-11T12:58:46.998Z</time></trkpt><trkpt lat="45.48261071534927" lon="11.568936542183323"><ele>46.0</ele><time>2026-04-11T12:58:47.998Z</time></trkpt><trkpt lat="45.48250311968934" lon="11.568920534652404"><ele>46.0</ele><time>2026-04-11T12:58:48.998Z</time></trkpt><trkpt lat="45.48238897574881" lon="11.568916953995195"><ele>46.0</ele><time>2026-04-11T12:58:49.998Z</time></trkpt><trkpt lat="45.4822699072881" lon="11.56893888906559"><ele>46.0</ele><time>2026-04-11T12:58:50.998Z</time></trkpt><trkpt lat="45.48215087938381" lon="11.568981001824213"><ele>46.0</ele><time>2026-04-11T12:58:51.998Z</time></trkpt><trkpt lat="45.48203020510706" lon="11.568996506471423"><ele>46.0</ele><time>2026-04-11T12:58:52.998Z</time></trkpt><trkpt lat="45.48191747277831" lon="11.56902690327045"><ele>44.75</ele><time>2026-04-11T12:58:53.998Z</time></trkpt><trkpt lat="45.48179960143403" lon="11.569038285527434"><ele>43.5</ele><time>2026-04-11T12:58:54.998Z</time></trkpt><trkpt lat="45.4816868115202" lon="11.569041108689769"><ele>42.25</ele><time>2026-04-11T12:58:55.998Z</time></trkpt><trkpt lat="45.48157817019063" lon="11.569074961364473"><ele>41.0</ele><time>2026-04-11T12:58:56.998Z</time></trkpt><trkpt lat="45.48147192739869" lon="11.569099176676435"><ele>41.0</ele><time>2026-04-11T12:58:57.998Z</time></trkpt><trkpt lat="45.48135858161024" lon="11.56909766924232"><ele>41.0</ele><time>2026-04-11T12:58:58.998Z</time></trkpt><trkpt lat="45.48125409490768" lon="11.569092959863145"><ele>41.0</ele><time>2026-04-11T12:58:59.998Z</time></trkpt><trkpt lat="45.48115162636796" lon="11.569033666365904"><ele>41.0</ele><time>2026-04-11T12:59:00.998Z</time></trkpt><trkpt lat="45.48104672564952" lon="11.568964877231105"><ele>41.0</ele><time>2026-04-11T12:59:01.998Z</time></trkpt><trkpt lat="45.48095063799971" lon="11.568886429360258"><ele>41.25</ele><time>2026-04-11T12:59:02.998Z</time></trkpt><trkpt lat="45.48086157614079" lon="11.56880904815932"><ele>41.5</ele><time>2026-04-11T12:59:03.998Z</time></trkpt><trkpt lat="45.48081404895749" lon="11.568676179702704"><ele>41.75</ele><time>2026-04-11T12:59:04.998Z</time></trkpt><trkpt lat="45.480738707069975" lon="11.568549779402396"><ele>42.0</ele><time>2026-04-11T12:59:05.998Z</time></trkpt><trkpt lat="45.48066871746928" lon="11.568398118493317"><ele>40.75</ele><time>2026-04-11T12:59:06.998Z</time></trkpt><trkpt lat="45.480595222338806" lon="11.568265311276331"><ele>39.5</ele><time>2026-04-11T12:59:07.998Z</time></trkpt><trkpt lat="45.48050192559275" lon="11.568147516169756"><ele>38.25</ele><time>2026-04-11T12:59:08.998Z</time></trkpt><trkpt lat="45.480397076744175" lon="11.568042524203479"><ele>37.0</ele><time>2026-04-11T12:59:09.998Z</time></trkpt><trkpt lat="45.480290191420366" lon="11.56794510889783"><ele>37.0</ele><time>2026-04-11T12:59:10.998Z</time></trkpt><trkpt lat="45.48019221185784" lon="11.56784253591595"><ele>37.0</ele><time>2026-04-11T12:59:11.998Z</time></trkpt><trkpt lat="45.48010013313163" lon="11.567748246153892"><ele>37.0</ele><time>2026-04-11T12:59:13Z</time></trkpt><trkpt lat="45.48001427744069" lon="11.567673867152198"><ele>37.0</ele><time>2026-04-11T12:59:14Z</time></trkpt><trkpt lat="45.47996699102746" lon="11.56757340648856"><ele>37.0</ele><time>2026-04-11T12:59:15Z</time></trkpt><trkpt lat="45.47994386759744" lon="11.567452792327352"><ele>37.0</ele><time>2026-04-11T12:59:16Z</time></trkpt><trkpt lat="45.47989622758514" lon="11.567308836734894"><ele>37.0</ele><time>2026-04-11T12:59:17Z</time></trkpt><trkpt lat="45.47986465272113" lon="11.567143695418117"><ele>37.0</ele><time>2026-04-11T12:59:18Z</time></trkpt><trkpt lat="45.47983894534623" lon="11.566958470038909"><ele>37.0</ele><time>2026-04-11T12:59:19Z</time></trkpt><trkpt lat="45.47982712031015" lon="11.566780964937342"><ele>36.6</ele><time>2026-04-11T12:59:20Z</time></trkpt><trkpt lat="45.4798427652119" lon="11.566628172661652"><ele>36.2</ele><time>2026-04-11T12:59:21Z</time></trkpt><trkpt lat="45.47984271115606" lon="11.566476349563551"><ele>35.8</ele><time>2026-04-11T12:59:22Z</time></trkpt><trkpt lat="45.479878357955684" lon="11.566321473187307"><ele>35.4</ele><time>2026-04-11T12:59:23Z</time></trkpt><trkpt lat="45.47991564049867" lon="11.566166072438548"><ele>35.0</ele><time>2026-04-11T12:59:24Z</time></trkpt><trkpt lat="45.47994810788966" lon="11.566007489787893"><ele>35.0</ele><time>2026-04-11T12:59:25Z</time></trkpt><trkpt lat="45.479952382847934" lon="11.565844180058733"><ele>35.0</ele><time>2026-04-11T12:59:26Z</time></trkpt><trkpt lat="45.479911257335814" lon="11.565673239765971"><ele>35.0</ele><time>2026-04-11T12:59:27Z</time></trkpt><trkpt lat="45.47986002063221" lon="11.565492065551892"><ele>35.0</ele><time>2026-04-11T12:59:28Z</time></trkpt><trkpt lat="45.479810010880364" lon="11.565327438427865"><ele>35.0</ele><time>2026-04-11T12:59:29Z</time></trkpt><trkpt lat="45.479752330982606" lon="11.565191438107176"><ele>35.0</ele><time>2026-04-11T12:59:30Z</time></trkpt><trkpt lat="45.47966396633796" lon="11.565081933063489"><ele>35.0</ele><time>2026-04-11T12:59:31Z</time></trkpt><trkpt lat="45.47955706660026" lon="11.564999883565811"><ele>35.0</ele><time>2026-04-11T12:59:32Z</time></trkpt><trkpt lat="45.47945840426934" lon="11.564895150169763"><ele>35.6</ele><time>2026-04-11T12:59:33Z</time></trkpt><trkpt lat="45.47937596698585" lon="11.564804177687634"><ele>36.2</ele><time>2026-04-11T12:59:34Z</time></trkpt><trkpt lat="45.479318841188416" lon="11.564694314570389"><ele>36.8</ele><time>2026-04-11T12:59:35Z</time></trkpt><trkpt lat="45.47927529870619" lon="11.564596794092354"><ele>37.4</ele><time>2026-04-11T12:59:36Z</time></trkpt><trkpt lat="45.47928162899429" lon="11.56447490305118"><ele>38.0</ele><time>2026-04-11T12:59:37Z</time></trkpt><trkpt lat="45.47932858549842" lon="11.564348370394663"><ele>38.0</ele><time>2026-04-11T12:59:38Z</time></trkpt><trkpt lat="45.47938926515945" lon="11.564210389873484"><ele>38.0</ele><time>2026-04-11T12:59:39Z</time></trkpt><trkpt lat="45.479464132651835" lon="11.564059158690567"><ele>38.0</ele><time>2026-04-11T12:59:40Z</time></trkpt><trkpt lat="45.479522548201764" lon="11.563906413160527"><ele>38.0</ele><time>2026-04-11T12:59:41Z</time></trkpt><trkpt lat="45.479570551222665" lon="11.56374964076575"><ele>38.0</ele><time>2026-04-11T12:59:42Z</time></trkpt><trkpt lat="45.47959857221027" lon="11.563567970231931"><ele>38.0</ele><time>2026-04-11T12:59:43Z</time></trkpt><trkpt lat="45.47960803119966" lon="11.563380295626494"><ele>38.0</ele><time>2026-04-11T12:59:44Z</time></trkpt><trkpt lat="45.479602792953486" lon="11.563183055798088"><ele>38.0</ele><time>2026-04-11T12:59:45Z</time></trkpt><trkpt lat="45.479586126284985" lon="11.562983348642307"><ele>36.75</ele><time>2026-04-11T12:59:46Z</time></trkpt><trkpt lat="45.4795916559314" lon="11.562785725546126"><ele>35.5</ele><time>2026-04-11T12:59:47Z</time></trkpt><trkpt lat="45.47964880566287" lon="11.562614237220986"><ele>34.25</ele><time>2026-04-11T12:59:48Z</time></trkpt><trkpt lat="45.47970439470888" lon="11.562422363956717"><ele>33.0</ele><time>2026-04-11T12:59:48.999Z</time></trkpt><trkpt lat="45.4797837504857" lon="11.562249777550734"><ele>33.0</ele><time>2026-04-11T12:59:49.999Z</time></trkpt><trkpt lat="45.479846226563104" lon="11.56204934803009"><ele>33.0</ele><time>2026-04-11T12:59:50.999Z</time></trkpt><trkpt lat="45.47988502122624" lon="11.561835884494753"><ele>33.0</ele><time>2026-04-11T12:59:51.999Z</time></trkpt><trkpt lat="45.47992049049652" lon="11.561647960301249"><ele>33.0</ele><time>2026-04-11T12:59:52.999Z</time></trkpt><trkpt lat="45.47996346057448" lon="11.561477057934125"><ele>34.0</ele><time>2026-04-11T12:59:53.999Z</time></trkpt><trkpt lat="45.48001115329361" lon="11.56130010481787"><ele>35.0</ele><time>2026-04-11T12:59:54.999Z</time></trkpt><trkpt lat="45.48006079203268" lon="11.561107222604923"><ele>36.0</ele><time>2026-04-11T12:59:55.999Z</time></trkpt><trkpt lat="45.48010663321172" lon="11.560920239561812"><ele>37.0</ele><time>2026-04-11T12:59:56.999Z</time></trkpt><trkpt lat="45.48017056441094" lon="11.560761872709627"><ele>37.2</ele><time>2026-04-11T12:59:57.999Z</time></trkpt><trkpt lat="45.48025051774117" lon="11.560640199641359"><ele>37.400000000000006</ele><time>2026-04-11T12:59:58.999Z</time></trkpt><trkpt lat="45.4803180856413" lon="11.560557583472406"><ele>37.599999999999994</ele><time>2026-04-11T12:59:59.999Z</time></trkpt><trkpt lat="45.480393447424674" lon="11.560455344406881"><ele>37.8</ele><time>2026-04-11T13:00:01.999Z</time></trkpt><trkpt lat="45.480449718592" lon="11.560293401361973"><ele>38.0</ele><time>2026-04-11T13:00:06.999Z</time></trkpt><trkpt lat="45.48046574713413" lon="11.560163922076493"><ele>37.75</ele><time>2026-04-11T13:00:07.999Z</time></trkpt><trkpt lat="45.48045878825493" lon="11.560019872022027"><ele>37.5</ele><time>2026-04-11T13:00:08.999Z</time></trkpt><trkpt lat="45.48042868664723" lon="11.559811854135125"><ele>37.25</ele><time>2026-04-11T13:00:09.999Z</time></trkpt><trkpt lat="45.480414236157664" lon="11.559588204401448"><ele>37.0</ele><time>2026-04-11T13:00:10.999Z</time></trkpt><trkpt lat="45.48041088531941" lon="11.559357220470613"><ele>36.66666666666667</ele><time>2026-04-11T13:00:11.999Z</time></trkpt><trkpt lat="45.48040640735548" lon="11.55911822679969"><ele>36.333333333333336</ele><time>2026-04-11T13:00:12.999Z</time></trkpt><trkpt lat="45.48040748032764" lon="11.558868832228487"><ele>36.0</ele><time>2026-04-11T13:00:13.999Z</time></trkpt><trkpt lat="45.48041033393985" lon="11.558611867579357"><ele>37.0</ele><time>2026-04-11T13:00:14.999Z</time></trkpt><trkpt lat="45.48042160425057" lon="11.558368331340139"><ele>38.0</ele><time>2026-04-11T13:00:15.999Z</time></trkpt><trkpt lat="45.4804299834888" lon="11.558131025585318"><ele>39.0</ele><time>2026-04-11T13:00:16.999Z</time></trkpt><trkpt lat="45.480437682330475" lon="11.55790522074354"><ele>36.0</ele><time>2026-04-11T13:00:17.999Z</time></trkpt><trkpt lat="45.48045445848366" lon="11.557707885566598"><ele>33.0</ele><time>2026-04-11T13:00:18.999Z</time></trkpt><trkpt lat="45.480494392643074" lon="11.55754159227706"><ele>30.0</ele><time>2026-04-11T13:00:19.999Z</time></trkpt><trkpt lat="45.480528132527034" lon="11.557383438815485"><ele>27.0</ele><time>2026-04-11T13:00:20.999Z</time></trkpt><trkpt lat="45.480544223082234" lon="11.557255609531333"><ele>27.0</ele><time>2026-04-11T13:00:21.999Z</time></trkpt><trkpt lat="45.480534148087045" lon="11.55710271770696"><ele>27.0</ele><time>2026-04-11T13:00:22.999Z</time></trkpt><trkpt lat="45.48053608862817" lon="11.556906409187151"><ele>27.0</ele><time>2026-04-11T13:00:23.999Z</time></trkpt><trkpt lat="45.48052316724137" lon="11.556689184604963"><ele>27.0</ele><time>2026-04-11T13:00:24.999Z</time></trkpt><trkpt lat="45.480505578700296" lon="11.556452174040704"><ele>27.0</ele><time>2026-04-11T13:00:25.999Z</time></trkpt><trkpt lat="45.480475897811196" lon="11.556209531424878"><ele>27.0</ele><time>2026-04-11T13:00:26.999Z</time></trkpt><trkpt lat="45.48043650943931" lon="11.555956020695799"><ele>27.0</ele><time>2026-04-11T13:00:27.999Z</time></trkpt><trkpt lat="45.480402581669594" lon="11.555704727755803"><ele>33.666666666666664</ele><time>2026-04-11T13:00:28.999Z</time></trkpt><trkpt lat="45.480372150008826" lon="11.555470625503945"><ele>40.33333333333333</ele><time>2026-04-11T13:00:29.999Z</time></trkpt><trkpt lat="45.480349060656216" lon="11.555253027854341"><ele>47.0</ele><time>2026-04-11T13:00:30.999Z</time></trkpt><trkpt lat="45.48034667029769" lon="11.55505232758876"><ele>47.75</ele><time>2026-04-11T13:00:31.999Z</time></trkpt><trkpt lat="45.48038870122037" lon="11.554868340356226"><ele>48.5</ele><time>2026-04-11T13:00:32.999Z</time></trkpt><trkpt lat="45.48043134298766" lon="11.554685341528094"><ele>49.25</ele><time>2026-04-11T13:00:33.999Z</time></trkpt><trkpt lat="45.4804639530302" lon="11.55449379716028"><ele>50.0</ele><time>2026-04-11T13:00:34.999Z</time></trkpt><trkpt lat="45.480509280988294" lon="11.554307885170676"><ele>47.25</ele><time>2026-04-11T13:00:35.999Z</time></trkpt><trkpt lat="45.48052981053486" lon="11.554128402593669"><ele>44.5</ele><time>2026-04-11T13:00:36.998Z</time></trkpt><trkpt lat="45.480539801744655" lon="11.553967924589395"><ele>41.75</ele><time>2026-04-11T13:00:37.998Z</time></trkpt><trkpt lat="45.48057784169644" lon="11.553820314368272"><ele>39.0</ele><time>2026-04-11T13:00:38.998Z</time></trkpt><trkpt lat="45.480638132851" lon="11.553694195780222"><ele>39.0</ele><time>2026-04-11T13:00:39.998Z</time></trkpt><trkpt lat="45.48071655880309" lon="11.553574491734983"><ele>39.0</ele><time>2026-04-11T13:00:40.998Z</time></trkpt><trkpt lat="45.48080799549915" lon="11.553500400444236"><ele>39.0</ele><time>2026-04-11T13:00:41.998Z</time></trkpt><trkpt lat="45.48088808793303" lon="11.553439646621314"><ele>39.0</ele><time>2026-04-11T13:00:42.998Z</time></trkpt><trkpt lat="45.480952201273105" lon="11.553373928335436"><ele>39.0</ele><time>2026-04-11T13:00:43.998Z</time></trkpt><trkpt lat="45.481009806044405" lon="11.553287403274018"><ele>39.0</ele><time>2026-04-11T13:00:44.998Z</time></trkpt><trkpt lat="45.481068496779955" lon="11.553213970392155"><ele>39.0</ele><time>2026-04-11T13:00:45.998Z</time></trkpt><trkpt lat="45.481096313003825" lon="11.553116998081562"><ele>39.0</ele><time>2026-04-11T13:00:46.998Z</time></trkpt><trkpt lat="45.481126199941734" lon="11.553021203036817"><ele>39.0</ele><time>2026-04-11T13:00:47.998Z</time></trkpt><trkpt lat="45.48114609136523" lon="11.552912340218045"><ele>39.0</ele><time>2026-04-11T13:00:48.998Z</time></trkpt><trkpt lat="45.481152287845845" lon="11.552779591710205"><ele>39.0</ele><time>2026-04-11T13:00:49.998Z</time></trkpt><trkpt lat="45.4811505576582" lon="11.552622581614926"><ele>38.5</ele><time>2026-04-11T13:00:50.998Z</time></trkpt><trkpt lat="45.48111137591958" lon="11.552456298879385"><ele>38.0</ele><time>2026-04-11T13:00:51.998Z</time></trkpt><trkpt lat="45.481035562202045" lon="11.552292643938115"><ele>37.5</ele><time>2026-04-11T13:00:52.998Z</time></trkpt><trkpt lat="45.48094705121638" lon="11.552143500745844"><ele>37.0</ele><time>2026-04-11T13:00:53.998Z</time></trkpt><trkpt lat="45.480874201077896" lon="11.552031290927642"><ele>36.5</ele><time>2026-04-11T13:00:54.998Z</time></trkpt><trkpt lat="45.48080010452479" lon="11.551951147076544"><ele>36.0</ele><time>2026-04-11T13:00:55.998Z</time></trkpt><trkpt lat="45.48071269600993" lon="11.551893734627063"><ele>35.5</ele><time>2026-04-11T13:00:56.998Z</time></trkpt><trkpt lat="45.48059598071248" lon="11.551824688896076"><ele>35.0</ele><time>2026-04-11T13:00:57.998Z</time></trkpt><trkpt lat="45.480448052898964" lon="11.551767575174505"><ele>36.0</ele><time>2026-04-11T13:00:58.998Z</time></trkpt><trkpt lat="45.48029071988208" lon="11.551710287117423"><ele>37.0</ele><time>2026-04-11T13:00:59.998Z</time></trkpt><trkpt lat="45.48013546051044" lon="11.5515749422644"><ele>38.0</ele><time>2026-04-11T13:01:00.998Z</time></trkpt><trkpt lat="45.47999591708998" lon="11.551398751088962"><ele>38.0</ele><time>2026-04-11T13:01:01.998Z</time></trkpt><trkpt lat="45.479869072953804" lon="11.551222260517187"><ele>38.0</ele><time>2026-04-11T13:01:02.998Z</time></trkpt><trkpt lat="45.47975541054265" lon="11.551069407841466"><ele>38.0</ele><time>2026-04-11T13:01:03.998Z</time></trkpt><trkpt lat="45.4796527943064" lon="11.550953452081796"><ele>38.599999999999994</ele><time>2026-04-11T13:01:04.998Z</time></trkpt><trkpt lat="45.4795579234359" lon="11.550873563281797"><ele>39.199999999999996</ele><time>2026-04-11T13:01:05.998Z</time></trkpt><trkpt lat="45.47946308417368" lon="11.550802376544738"><ele>39.8</ele><time>2026-04-11T13:01:06.998Z</time></trkpt><trkpt lat="45.47936991565115" lon="11.550727551678989"><ele>40.4</ele><time>2026-04-11T13:01:07.998Z</time></trkpt><trkpt lat="45.47929503196163" lon="11.550659410720279"><ele>41.0</ele><time>2026-04-11T13:01:08.998Z</time></trkpt><trkpt lat="45.4792258960434" lon="11.550589644897236"><ele>41.0</ele><time>2026-04-11T13:01:09.998Z</time></trkpt><trkpt lat="45.4791741549785" lon="11.550485473053424"><ele>41.0</ele><time>2026-04-11T13:01:10.998Z</time></trkpt><trkpt lat="45.47912526191313" lon="11.550402938057491"><ele>41.0</ele><time>2026-04-11T13:01:11.998Z</time></trkpt><trkpt lat="45.47912842161172" lon="11.550282221031718"><ele>41.0</ele><time>2026-04-11T13:01:12.998Z</time></trkpt><trkpt lat="45.4791426382412" lon="11.550156442672776"><ele>41.0</ele><time>2026-04-11T13:01:13.998Z</time></trkpt><trkpt lat="45.479144136708996" lon="11.550009739198044"><ele>41.0</ele><time>2026-04-11T13:01:14.998Z</time></trkpt><trkpt lat="45.47912927279748" lon="11.5498904882651"><ele>40.599999999999994</ele><time>2026-04-11T13:01:15.998Z</time></trkpt><trkpt lat="45.47911174522616" lon="11.549799162334569"><ele>40.199999999999996</ele><time>2026-04-11T13:01:16.998Z</time></trkpt><trkpt lat="45.479014375597764" lon="11.549667517180144"><ele>39.8</ele><time>2026-04-11T13:01:19Z</time></trkpt><trkpt lat="45.47893710762468" lon="11.549609838754847"><ele>39.4</ele><time>2026-04-11T13:01:20Z</time></trkpt><trkpt lat="45.47885602918044" lon="11.549565056754515"><ele>39.0</ele><time>2026-04-11T13:01:21Z</time></trkpt><trkpt lat="45.47877720774568" lon="11.549514617634712"><ele>40.0</ele><time>2026-04-11T13:01:22Z</time></trkpt><trkpt lat="45.478706082706765" lon="11.54944523347251"><ele>41.0</ele><time>2026-04-11T13:01:23Z</time></trkpt><trkpt lat="45.478643950901436" lon="11.549358053841448"><ele>42.0</ele><time>2026-04-11T13:01:24Z</time></trkpt><trkpt lat="45.47860893775289" lon="11.549244730996582"><ele>43.0</ele><time>2026-04-11T13:01:25Z</time></trkpt><trkpt lat="45.47858872284056" lon="11.549133800552932"><ele>44.0</ele><time>2026-04-11T13:01:26Z</time></trkpt><trkpt lat="45.47858686800729" lon="11.549004400348862"><ele>45.0</ele><time>2026-04-11T13:01:27Z</time></trkpt><trkpt lat="45.47860729310283" lon="11.54886753812146"><ele>45.0</ele><time>2026-04-11T13:01:28Z</time></trkpt><trkpt lat="45.4786225805934" lon="11.548752049161005"><ele>45.0</ele><time>2026-04-11T13:01:29Z</time></trkpt><trkpt lat="45.47865108587519" lon="11.54865775203049"><ele>45.0</ele><time>2026-04-11T13:01:30Z</time></trkpt><trkpt lat="45.47868768918906" lon="11.54850057354736"><ele>45.0</ele><time>2026-04-11T13:01:32Z</time></trkpt><trkpt lat="45.47871585525813" lon="11.54836532898008"><ele>45.0</ele><time>2026-04-11T13:01:34Z</time></trkpt><trkpt lat="45.478760434267286" lon="11.54815995099486"><ele>39.5</ele><time>2026-04-11T13:01:36Z</time></trkpt><trkpt lat="45.47878767539742" lon="11.548019329482097"><ele>34.0</ele><time>2026-04-11T13:01:37Z</time></trkpt><trkpt lat="45.478820263557154" lon="11.54784287092076"><ele>28.5</ele><time>2026-04-11T13:01:38Z</time></trkpt><trkpt lat="45.478857583492484" lon="11.547653967948714"><ele>23.0</ele><time>2026-04-11T13:01:39Z</time></trkpt><trkpt lat="45.47888914248125" lon="11.547481100180404"><ele>22.666666666666668</ele><time>2026-04-11T13:01:40Z</time></trkpt><trkpt lat="45.47892862417119" lon="11.547241826121969"><ele>22.333333333333332</ele><time>2026-04-11T13:01:41Z</time></trkpt><trkpt lat="45.47897322440642" lon="11.54700721520261"><ele>22.0</ele><time>2026-04-11T13:01:42Z</time></trkpt><trkpt lat="45.47901630957029" lon="11.546767800472873"><ele>22.0</ele><time>2026-04-11T13:01:43Z</time></trkpt><trkpt lat="45.47905760737779" lon="11.54654306164855"><ele>22.0</ele><time>2026-04-11T13:01:44Z</time></trkpt><trkpt lat="45.479092592358775" lon="11.546342663204257"><ele>22.0</ele><time>2026-04-11T13:01:45Z</time></trkpt><trkpt lat="45.47915253290143" lon="11.546171784436257"><ele>22.0</ele><time>2026-04-11T13:01:46Z</time></trkpt><trkpt lat="45.479223417764615" lon="11.54602262925598"><ele>22.25</ele><time>2026-04-11T13:01:47Z</time></trkpt><trkpt lat="45.47931174034657" lon="11.545883249277619"><ele>22.5</ele><time>2026-04-11T13:01:48Z</time></trkpt><trkpt lat="45.47941293348869" lon="11.545743087159092"><ele>22.75</ele><time>2026-04-11T13:01:49Z</time></trkpt><trkpt lat="45.47950145012423" lon="11.5456149102438"><ele>23.0</ele><time>2026-04-11T13:01:50Z</time></trkpt><trkpt lat="45.47957968143953" lon="11.54549942056784"><ele>23.0</ele><time>2026-04-11T13:01:51Z</time></trkpt><trkpt lat="45.47964286971179" lon="11.545373730944014"><ele>23.0</ele><time>2026-04-11T13:01:52Z</time></trkpt><trkpt lat="45.479709381568625" lon="11.545257619637168"><ele>23.0</ele><time>2026-04-11T13:01:53Z</time></trkpt><trkpt lat="45.47976754544128" lon="11.54513604535457"><ele>23.0</ele><time>2026-04-11T13:01:53.999Z</time></trkpt><trkpt lat="45.47980138827709" lon="11.5450326589016"><ele>23.0</ele><time>2026-04-11T13:01:54.999Z</time></trkpt><trkpt lat="45.479796965159075" lon="11.54493851855635"><ele>23.0</ele><time>2026-04-11T13:01:55.999Z</time></trkpt><trkpt lat="45.47976055747132" lon="11.544858700377585"><ele>23.0</ele><time>2026-04-11T13:01:56.999Z</time></trkpt><trkpt lat="45.47970676880973" lon="11.544792972146382"><ele>23.0</ele><time>2026-04-11T13:01:57.999Z</time></trkpt><trkpt lat="45.4796449548705" lon="11.544724272285464"><ele>23.0</ele><time>2026-04-11T13:01:58.999Z</time></trkpt><trkpt lat="45.47957681219993" lon="11.544636682973191"><ele>23.0</ele><time>2026-04-11T13:01:59.999Z</time></trkpt><trkpt lat="45.4795127463091" lon="11.544533743333934"><ele>23.0</ele><time>2026-04-11T13:02:00.999Z</time></trkpt><trkpt lat="45.479454566816855" lon="11.544410819884357"><ele>22.799999999999997</ele><time>2026-04-11T13:02:01.999Z</time></trkpt><trkpt lat="45.479392602421406" lon="11.544283927572598"><ele>22.6</ele><time>2026-04-11T13:02:02.999Z</time></trkpt><trkpt lat="45.47935735118041" lon="11.544174965553964"><ele>22.4</ele><time>2026-04-11T13:02:03.999Z</time></trkpt><trkpt lat="45.47931621556983" lon="11.54405976560524"><ele>22.200000000000003</ele><time>2026-04-11T13:02:04.999Z</time></trkpt><trkpt lat="45.479268449062786" lon="11.543944252580992"><ele>22.0</ele><time>2026-04-11T13:02:05.999Z</time></trkpt><trkpt lat="45.47922227682088" lon="11.543826948099111"><ele>21.833333333333332</ele><time>2026-04-11T13:02:06.999Z</time></trkpt><trkpt lat="45.47917817596123" lon="11.54371042507352"><ele>21.666666666666664</ele><time>2026-04-11T13:02:07.999Z</time></trkpt><trkpt lat="45.47913811305247" lon="11.543594171865706"><ele>21.5</ele><time>2026-04-11T13:02:08.999Z</time></trkpt><trkpt lat="45.479105292475445" lon="11.543490762195116"><ele>21.333333333333332</ele><time>2026-04-11T13:02:09.999Z</time></trkpt><trkpt lat="45.479070691009056" lon="11.543389450334125"><ele>21.166666666666668</ele><time>2026-04-11T13:02:10.999Z</time></trkpt><trkpt lat="45.47903324827474" lon="11.543276787912507"><ele>21.0</ele><time>2026-04-11T13:02:11.999Z</time></trkpt><trkpt lat="45.47898859439205" lon="11.54315906324186"><ele>21.0</ele><time>2026-04-11T13:02:12.999Z</time></trkpt><trkpt lat="45.478948204322656" lon="11.543039420684888"><ele>21.0</ele><time>2026-04-11T13:02:13.999Z</time></trkpt><trkpt lat="45.478908006859506" lon="11.542918056017612"><ele>21.0</ele><time>2026-04-11T13:02:14.999Z</time></trkpt><trkpt lat="45.47886397521104" lon="11.542796804857074"><ele>21.0</ele><time>2026-04-11T13:02:15.999Z</time></trkpt><trkpt lat="45.47882909299627" lon="11.542670344101246"><ele>21.0</ele><time>2026-04-11T13:02:16.999Z</time></trkpt><trkpt lat="45.47878800544947" lon="11.542549506661679"><ele>21.0</ele><time>2026-04-11T13:02:17.999Z</time></trkpt><trkpt lat="45.47874367640584" lon="11.54242422073528"><ele>21.0</ele><time>2026-04-11T13:02:18.999Z</time></trkpt><trkpt lat="45.478703633767225" lon="11.542306188188942"><ele>21.0</ele><time>2026-04-11T13:02:19.999Z</time></trkpt><trkpt lat="45.47866753025983" lon="11.542195536113653"><ele>21.0</ele><time>2026-04-11T13:02:20.999Z</time></trkpt><trkpt lat="45.478630799229045" lon="11.542091340396146"><ele>21.0</ele><time>2026-04-11T13:02:21.999Z</time></trkpt><trkpt lat="45.47859091577631" lon="11.541988844891286"><ele>21.0</ele><time>2026-04-11T13:02:22.999Z</time></trkpt><trkpt lat="45.478556629108304" lon="11.54188277941702"><ele>20.833333333333332</ele><time>2026-04-11T13:02:23.999Z</time></trkpt><trkpt lat="45.47852944914611" lon="11.541794104165827"><ele>20.666666666666668</ele><time>2026-04-11T13:02:24.999Z</time></trkpt><trkpt lat="45.47848848804335" lon="11.541663620832086"><ele>20.5</ele><time>2026-04-11T13:02:26.999Z</time></trkpt><trkpt lat="45.4784498122596" lon="11.541540881921414"><ele>20.333333333333336</ele><time>2026-04-11T13:02:29.999Z</time></trkpt><trkpt lat="45.47841604133618" lon="11.54143589781598"><ele>20.166666666666668</ele><time>2026-04-11T13:02:32.999Z</time></trkpt><trkpt lat="45.47838496321451" lon="11.54134920717649"><ele>20.0</ele><time>2026-04-11T13:02:34.999Z</time></trkpt><trkpt lat="45.47833657388687" lon="11.541185991200699"><ele>20.833333333333336</ele><time>2026-04-11T13:02:36.999Z</time></trkpt><trkpt lat="45.478291430405875" lon="11.541101648122467"><ele>21.666666666666668</ele><time>2026-04-11T13:02:37.999Z</time></trkpt><trkpt lat="45.47826718145024" lon="11.541000614338435"><ele>22.5</ele><time>2026-04-11T13:02:38.999Z</time></trkpt><trkpt lat="45.47823787415631" lon="11.54090928496476"><ele>23.333333333333336</ele><time>2026-04-11T13:02:39.999Z</time></trkpt><trkpt lat="45.47821307904964" lon="11.54082107316978"><ele>24.166666666666668</ele><time>2026-04-11T13:02:40.999Z</time></trkpt><trkpt lat="45.47816100048645" lon="11.54067152437573"><ele>25.0</ele><time>2026-04-11T13:02:42.998Z</time></trkpt><trkpt lat="45.47812310833797" lon="11.540559543288149"><ele>25.0</ele><time>2026-04-11T13:02:44.998Z</time></trkpt><trkpt lat="45.47804909596775" lon="11.540482063407245"><ele>25.0</ele><time>2026-04-11T13:02:55.998Z</time></trkpt><trkpt lat="45.477976993557846" lon="11.54059683722805"><ele>25.0</ele><time>2026-04-11T13:02:56.998Z</time></trkpt><trkpt lat="45.477885565953684" lon="11.540707103588208"><ele>25.0</ele><time>2026-04-11T13:02:57.998Z</time></trkpt><trkpt lat="45.47781405767087" lon="11.540817542306227"><ele>25.0</ele><time>2026-04-11T13:02:58.998Z</time></trkpt><trkpt lat="45.47773303823865" lon="11.540910079008029"><ele>24.2</ele><time>2026-04-11T13:02:59.998Z</time></trkpt><trkpt lat="45.477651034990316" lon="11.541000768708559"><ele>23.4</ele><time>2026-04-11T13:03:00.998Z</time></trkpt><trkpt lat="45.47757014183836" lon="11.541088225535386"><ele>22.6</ele><time>2026-04-11T13:03:01.998Z</time></trkpt><trkpt lat="45.47749880185113" lon="11.541178872885185"><ele>21.8</ele><time>2026-04-11T13:03:02.998Z</time></trkpt><trkpt lat="45.47741955837179" lon="11.541268282443454"><ele>21.0</ele><time>2026-04-11T13:03:03.998Z</time></trkpt><trkpt lat="45.47733419303669" lon="11.541348940192586"><ele>21.0</ele><time>2026-04-11T13:03:04.998Z</time></trkpt><trkpt lat="45.4772453861047" lon="11.541429930246458"><ele>21.0</ele><time>2026-04-11T13:03:05.998Z</time></trkpt><trkpt lat="45.477161055780236" lon="11.541518906384766"><ele>21.0</ele><time>2026-04-11T13:03:06.998Z</time></trkpt><trkpt lat="45.477072476632095" lon="11.54156469708044"><ele>21.0</ele><time>2026-04-11T13:03:07.998Z</time></trkpt><trkpt lat="45.47698313521176" lon="11.54161496598775"><ele>21.0</ele><time>2026-04-11T13:03:08.998Z</time></trkpt><trkpt lat="45.47688241535632" lon="11.541661026162034"><ele>21.200000000000003</ele><time>2026-04-11T13:03:09.998Z</time></trkpt><trkpt lat="45.47678328753027" lon="11.541693618914927"><ele>21.400000000000002</ele><time>2026-04-11T13:03:10.998Z</time></trkpt><trkpt lat="45.47668510418514" lon="11.541713085028793"><ele>21.6</ele><time>2026-04-11T13:03:11.998Z</time></trkpt><trkpt lat="45.47658447356709" lon="11.541726599303628"><ele>21.8</ele><time>2026-04-11T13:03:12.998Z</time></trkpt><trkpt lat="45.476484380616114" lon="11.541727548634585"><ele>22.0</ele><time>2026-04-11T13:03:13.998Z</time></trkpt><trkpt lat="45.476388227944646" lon="11.541728172814448"><ele>22.0</ele><time>2026-04-11T13:03:14.998Z</time></trkpt><trkpt lat="45.47630182090804" lon="11.541732889163306"><ele>22.0</ele><time>2026-04-11T13:03:15.998Z</time></trkpt><trkpt lat="45.47621448704516" lon="11.54173111112597"><ele>22.0</ele><time>2026-04-11T13:03:16.998Z</time></trkpt><trkpt lat="45.47613411524027" lon="11.541729891912748"><ele>22.0</ele><time>2026-04-11T13:03:17.998Z</time></trkpt><trkpt lat="45.47605462512941" lon="11.541727078640838"><ele>22.0</ele><time>2026-04-11T13:03:18.998Z</time></trkpt><trkpt lat="45.475974624358265" lon="11.541726393180285"><ele>22.0</ele><time>2026-04-11T13:03:19.998Z</time></trkpt><trkpt lat="45.475894837859116" lon="11.541725570124523"><ele>22.333333333333332</ele><time>2026-04-11T13:03:20.998Z</time></trkpt><trkpt lat="45.47581294924047" lon="11.541715817091179"><ele>22.666666666666664</ele><time>2026-04-11T13:03:21.998Z</time></trkpt><trkpt lat="45.475733844447454" lon="11.541710436341091"><ele>23.0</ele><time>2026-04-11T13:03:22.998Z</time></trkpt><trkpt lat="45.47565109286841" lon="11.541712863181441"><ele>23.333333333333332</ele><time>2026-04-11T13:03:23.998Z</time></trkpt><trkpt lat="45.47556731908732" lon="11.541717026991288"><ele>23.666666666666668</ele><time>2026-04-11T13:03:25Z</time></trkpt><trkpt lat="45.47549418280928" lon="11.541716608181108"><ele>24.0</ele><time>2026-04-11T13:03:26Z</time></trkpt><trkpt lat="45.47542680434258" lon="11.541709147378926"><ele>26.0</ele><time>2026-04-11T13:03:27Z</time></trkpt><trkpt lat="45.47534245675869" lon="11.541697308667505"><ele>26.0</ele><time>2026-04-11T13:03:29Z</time></trkpt><trkpt lat="45.475259556170215" lon="11.541698979997456"><ele>26.0</ele><time>2026-04-11T13:03:31Z</time></trkpt><trkpt lat="45.4751661010347" lon="11.541692560736202"><ele>26.0</ele><time>2026-04-11T13:03:33Z</time></trkpt><trkpt lat="45.475098267752" lon="11.541670991021986"><ele>26.0</ele><time>2026-04-11T13:03:36Z</time></trkpt></trkseg><trkseg><trkpt lat="45.47518201925917" lon="11.541679258838087"><ele>25.999999999999996</ele><time>2026-04-11T14:02:02.999Z</time></trkpt><trkpt lat="45.47526147410308" lon="11.54170060265918"><ele>26.0</ele><time>2026-04-11T14:02:04.999Z</time></trkpt><trkpt lat="45.475330135920544" lon="11.541713869985132"><ele>26.0</ele><time>2026-04-11T14:02:05.999Z</time></trkpt><trkpt lat="45.47541688073125" lon="11.541720505679047"><ele>26.0</ele><time>2026-04-11T14:02:06.999Z</time></trkpt><trkpt lat="45.475522828435714" lon="11.541721504188843"><ele>25.999999999999996</ele><time>2026-04-11T14:02:07.999Z</time></trkpt><trkpt lat="45.47562892094633" lon="11.541723458076525"><ele>26.0</ele><time>2026-04-11T14:02:08.999Z</time></trkpt><trkpt lat="45.47574565434939" lon="11.541729055686698"><ele>25.5</ele><time>2026-04-11T14:02:09.999Z</time></trkpt><trkpt lat="45.475860330299945" lon="11.541739067365047"><ele>25.0</ele><time>2026-04-11T14:02:10.999Z</time></trkpt><trkpt lat="45.475978742526685" lon="11.54174819524206"><ele>24.5</ele><time>2026-04-11T14:02:11.999Z</time></trkpt><trkpt lat="45.4760918502498" lon="11.541747520891048"><ele>24.0</ele><time>2026-04-11T14:02:12.999Z</time></trkpt><trkpt lat="45.476203311341564" lon="11.54177516357569"><ele>23.5</ele><time>2026-04-11T14:02:13.999Z</time></trkpt><trkpt lat="45.47631299432769" lon="11.541755533639058"><ele>23.0</ele><time>2026-04-11T14:02:14.999Z</time></trkpt><trkpt lat="45.476422243720876" lon="11.541778798710894"><ele>22.5</ele><time>2026-04-11T14:02:15.999Z</time></trkpt><trkpt lat="45.476536146418916" lon="11.541755801071584"><ele>22.0</ele><time>2026-04-11T14:02:16.999Z</time></trkpt><trkpt lat="45.47665147802924" lon="11.541758164569956"><ele>22.0</ele><time>2026-04-11T14:02:17.999Z</time></trkpt><trkpt lat="45.476767956040995" lon="11.54175114636646"><ele>22.0</ele><time>2026-04-11T14:02:18.999Z</time></trkpt><trkpt lat="45.47690042339927" lon="11.541714429012165"><ele>22.0</ele><time>2026-04-11T14:02:19.999Z</time></trkpt><trkpt lat="45.47703231564461" lon="11.541648670811545"><ele>22.0</ele><time>2026-04-11T14:02:20.999Z</time></trkpt><trkpt lat="45.47714985610161" lon="11.541570531036973"><ele>21.75</ele><time>2026-04-11T14:02:21.999Z</time></trkpt><trkpt lat="45.477263719662666" lon="11.541491033979316"><ele>21.5</ele><time>2026-04-11T14:02:22.999Z</time></trkpt><trkpt lat="45.47737200910917" lon="11.541385044604603"><ele>21.25</ele><time>2026-04-11T14:02:23.999Z</time></trkpt><trkpt lat="45.47747266083355" lon="11.541259003272181"><ele>21.0</ele><time>2026-04-11T14:02:24.999Z</time></trkpt><trkpt lat="45.4775662602456" lon="11.541130172829664"><ele>23.25</ele><time>2026-04-11T14:02:25.999Z</time></trkpt><trkpt lat="45.477659323466305" lon="11.541019282142644"><ele>25.5</ele><time>2026-04-11T14:02:26.999Z</time></trkpt><trkpt lat="45.47774769924449" lon="11.54090420309291"><ele>27.75</ele><time>2026-04-11T14:02:27.999Z</time></trkpt><trkpt lat="45.477839893951476" lon="11.540796679665645"><ele>30.0</ele><time>2026-04-11T14:02:28.999Z</time></trkpt><trkpt lat="45.47793428804868" lon="11.540688737230058"><ele>28.75</ele><time>2026-04-11T14:02:29.998Z</time></trkpt><trkpt lat="45.478039972751134" lon="11.540588312605003"><ele>27.5</ele><time>2026-04-11T14:02:30.998Z</time></trkpt><trkpt lat="45.478128314532704" lon="11.540461993318216"><ele>26.25</ele><time>2026-04-11T14:02:31.998Z</time></trkpt><trkpt lat="45.47823131236879" lon="11.540365797850827"><ele>25.0</ele><time>2026-04-11T14:02:32.998Z</time></trkpt><trkpt lat="45.47833280133614" lon="11.540271287657912"><ele>25.25</ele><time>2026-04-11T14:02:33.998Z</time></trkpt><trkpt lat="45.47844069105049" lon="11.540176357471204"><ele>25.5</ele><time>2026-04-11T14:02:34.998Z</time></trkpt><trkpt lat="45.47855109403632" lon="11.540080285244118"><ele>25.75</ele><time>2026-04-11T14:02:35.998Z</time></trkpt><trkpt lat="45.478663087019655" lon="11.539985404366968"><ele>26.0</ele><time>2026-04-11T14:02:36.998Z</time></trkpt><trkpt lat="45.47877422535532" lon="11.53988686238306"><ele>26.0</ele><time>2026-04-11T14:02:37.998Z</time></trkpt><trkpt lat="45.47888421938537" lon="11.539784023816484"><ele>26.0</ele><time>2026-04-11T14:02:38.998Z</time></trkpt><trkpt lat="45.47899901772296" lon="11.539661673629004"><ele>26.0</ele><time>2026-04-11T14:02:39.998Z</time></trkpt><trkpt lat="45.479116831603605" lon="11.539527787875468"><ele>26.0</ele><time>2026-04-11T14:02:40.998Z</time></trkpt><trkpt lat="45.47923976038175" lon="11.539385941718804"><ele>25.666666666666664</ele><time>2026-04-11T14:02:41.998Z</time></trkpt><trkpt lat="45.47936186578139" lon="11.53924862241123"><ele>25.333333333333336</ele><time>2026-04-11T14:02:42.998Z</time></trkpt><trkpt lat="45.47948849542497" lon="11.53909156147316"><ele>25.0</ele><time>2026-04-11T14:02:43.998Z</time></trkpt><trkpt lat="45.47961455798983" lon="11.538943370347605"><ele>25.0</ele><time>2026-04-11T14:02:44.998Z</time></trkpt><trkpt lat="45.47974839497886" lon="11.538800079606965"><ele>25.0</ele><time>2026-04-11T14:02:45.998Z</time></trkpt><trkpt lat="45.479884118352345" lon="11.53866131117128"><ele>25.0</ele><time>2026-04-11T14:02:46.998Z</time></trkpt><trkpt lat="45.48002349332587" lon="11.538524442605606"><ele>33.66666666666667</ele><time>2026-04-11T14:02:47.998Z</time></trkpt><trkpt lat="45.480158374856586" lon="11.538394531328313"><ele>42.333333333333336</ele><time>2026-04-11T14:02:48.998Z</time></trkpt><trkpt lat="45.480292447280355" lon="11.538264164785005"><ele>51.0</ele><time>2026-04-11T14:02:49.998Z</time></trkpt><trkpt lat="45.48042258552887" lon="11.538134077676963"><ele>51.33333333333333</ele><time>2026-04-11T14:02:50.998Z</time></trkpt><trkpt lat="45.48056739832405" lon="11.5380375677897"><ele>51.666666666666664</ele><time>2026-04-11T14:02:51.998Z</time></trkpt><trkpt lat="45.480705691396565" lon="11.537939675037057"><ele>52.0</ele><time>2026-04-11T14:02:52.998Z</time></trkpt><trkpt lat="45.48084180591371" lon="11.537832508565677"><ele>52.0</ele><time>2026-04-11T14:02:53.998Z</time></trkpt><trkpt lat="45.480985290736506" lon="11.537755857661407"><ele>52.0</ele><time>2026-04-11T14:02:54.998Z</time></trkpt><trkpt lat="45.48113228190721" lon="11.537673005574883"><ele>52.0</ele><time>2026-04-11T14:02:55.998Z</time></trkpt><trkpt lat="45.48128241300756" lon="11.537590721581374"><ele>45.33333333333333</ele><time>2026-04-11T14:02:56.998Z</time></trkpt><trkpt lat="45.481433994646245" lon="11.537508843619461"><ele>38.666666666666664</ele><time>2026-04-11T14:02:57.998Z</time></trkpt><trkpt lat="45.481586879100384" lon="11.537426180587328"><ele>32.0</ele><time>2026-04-11T14:02:58.998Z</time></trkpt><trkpt lat="45.48174142622362" lon="11.537340899001435"><ele>32.0</ele><time>2026-04-11T14:02:59.998Z</time></trkpt><trkpt lat="45.48189089668569" lon="11.537254104830689"><ele>32.0</ele><time>2026-04-11T14:03:00.998Z</time></trkpt><trkpt lat="45.48202657433267" lon="11.537170431551186"><ele>32.0</ele><time>2026-04-11T14:03:01.998Z</time></trkpt><trkpt lat="45.48215263066191" lon="11.537092778371923"><ele>32.0</ele><time>2026-04-11T14:03:02.998Z</time></trkpt><trkpt lat="45.48227164781618" lon="11.537019679003787"><ele>33.2</ele><time>2026-04-11T14:03:03.998Z</time></trkpt><trkpt lat="45.48237652327959" lon="11.536957673285158"><ele>34.400000000000006</ele><time>2026-04-11T14:03:04.998Z</time></trkpt><trkpt lat="45.48246742211239" lon="11.536922019013966"><ele>35.599999999999994</ele><time>2026-04-11T14:03:05.998Z</time></trkpt><trkpt lat="45.48255794517221" lon="11.536933109539136"><ele>36.8</ele><time>2026-04-11T14:03:06.998Z</time></trkpt><trkpt lat="45.48264797617118" lon="11.536989426601465"><ele>38.0</ele><time>2026-04-11T14:03:07.998Z</time></trkpt><trkpt lat="45.48276812158128" lon="11.537054846550708"><ele>33.33333333333333</ele><time>2026-04-11T14:03:08.998Z</time></trkpt><trkpt lat="45.482906518089564" lon="11.537128121222912"><ele>28.666666666666664</ele><time>2026-04-11T14:03:09.998Z</time></trkpt><trkpt lat="45.48304350529222" lon="11.53723896351913"><ele>24.0</ele><time>2026-04-11T14:03:10.998Z</time></trkpt><trkpt lat="45.48316382858414" lon="11.537410265870468"><ele>24.0</ele><time>2026-04-11T14:03:11.998Z</time></trkpt><trkpt lat="45.48326512622633" lon="11.537624024084115"><ele>24.0</ele><time>2026-04-11T14:03:12.998Z</time></trkpt><trkpt lat="45.48334434921342" lon="11.537862206698069"><ele>24.0</ele><time>2026-04-11T14:03:13.997Z</time></trkpt><trkpt lat="45.483404461256505" lon="11.538102297346994"><ele>23.666666666666668</ele><time>2026-04-11T14:03:14.997Z</time></trkpt><trkpt lat="45.483470597738204" lon="11.53835676748486"><ele>23.333333333333336</ele><time>2026-04-11T14:03:15.997Z</time></trkpt><trkpt lat="45.48354592180133" lon="11.538600471678421"><ele>23.0</ele><time>2026-04-11T14:03:16.997Z</time></trkpt><trkpt lat="45.483611738118576" lon="11.538826980818682"><ele>22.666666666666668</ele><time>2026-04-11T14:03:17.997Z</time></trkpt><trkpt lat="45.48368036005044" lon="11.539057095023528"><ele>22.333333333333332</ele><time>2026-04-11T14:03:18.997Z</time></trkpt><trkpt lat="45.48374979418466" lon="11.539279653348597"><ele>22.0</ele><time>2026-04-11T14:03:19.997Z</time></trkpt><trkpt lat="45.48381511372294" lon="11.539496938723108"><ele>21.666666666666664</ele><time>2026-04-11T14:03:20.997Z</time></trkpt><trkpt lat="45.483881494783404" lon="11.539716401937586"><ele>21.333333333333332</ele><time>2026-04-11T14:03:21.997Z</time></trkpt><trkpt lat="45.48395165907244" lon="11.539945308422023"><ele>21.0</ele><time>2026-04-11T14:03:22.997Z</time></trkpt><trkpt lat="45.484026688843045" lon="11.5401794160387"><ele>22.0</ele><time>2026-04-11T14:03:23.999Z</time></trkpt><trkpt lat="45.48409973763993" lon="11.540411101963006"><ele>23.0</ele><time>2026-04-11T14:03:24.999Z</time></trkpt><trkpt lat="45.48416810974732" lon="11.54064328178221"><ele>24.0</ele><time>2026-04-11T14:03:25.999Z</time></trkpt><trkpt lat="45.48423808824556" lon="11.54086439503673"><ele>24.0</ele><time>2026-04-11T14:03:26.999Z</time></trkpt><trkpt lat="45.484321218309624" lon="11.541080951147372"><ele>24.0</ele><time>2026-04-11T14:03:27.999Z</time></trkpt><trkpt lat="45.48441745864587" lon="11.541280339170845"><ele>24.0</ele><time>2026-04-11T14:03:28.999Z</time></trkpt><trkpt lat="45.484530819410445" lon="11.541459857939893"><ele>24.333333333333336</ele><time>2026-04-11T14:03:29.999Z</time></trkpt><trkpt lat="45.48465351948191" lon="11.541608538817963"><ele>24.666666666666668</ele><time>2026-04-11T14:03:30.999Z</time></trkpt><trkpt lat="45.48478091461143" lon="11.541732627106759"><ele>25.0</ele><time>2026-04-11T14:03:31.999Z</time></trkpt><trkpt lat="45.484912154891035" lon="11.541840442183178"><ele>25.0</ele><time>2026-04-11T14:03:32.999Z</time></trkpt><trkpt lat="45.48506234416186" lon="11.541928332178662"><ele>25.0</ele><time>2026-04-11T14:03:33.999Z</time></trkpt><trkpt lat="45.48520551814495" lon="11.54199469917059"><ele>25.0</ele><time>2026-04-11T14:03:34.999Z</time></trkpt><trkpt lat="45.485364972229135" lon="11.54203852185132"><ele>24.333333333333336</ele><time>2026-04-11T14:03:35.999Z</time></trkpt><trkpt lat="45.485519296379586" lon="11.54209208069746"><ele>23.666666666666668</ele><time>2026-04-11T14:03:36.999Z</time></trkpt><trkpt lat="45.485671066691935" lon="11.54214875238468"><ele>23.0</ele><time>2026-04-11T14:03:37.999Z</time></trkpt><trkpt lat="45.48581445592416" lon="11.542204348801054"><ele>23.0</ele><time>2026-04-11T14:03:38.999Z</time></trkpt><trkpt lat="45.48594724219598" lon="11.542257706703628"><ele>23.0</ele><time>2026-04-11T14:03:39.999Z</time></trkpt><trkpt lat="45.486071502974504" lon="11.542305663594092"><ele>23.0</ele><time>2026-04-11T14:03:40.999Z</time></trkpt><trkpt lat="45.48620099392659" lon="11.54234932391982"><ele>23.0</ele><time>2026-04-11T14:03:41.999Z</time></trkpt><trkpt lat="45.48633857953697" lon="11.542394032149321"><ele>23.0</ele><time>2026-04-11T14:03:42.999Z</time></trkpt><trkpt lat="45.486476243054796" lon="11.542440046378031"><ele>23.0</ele><time>2026-04-11T14:03:43.999Z</time></trkpt><trkpt lat="45.486609972963606" lon="11.54249071163613"><ele>23.0</ele><time>2026-04-11T14:03:44.999Z</time></trkpt><trkpt lat="45.486748743787025" lon="11.542539612101155"><ele>23.0</ele><time>2026-04-11T14:03:45.999Z</time></trkpt><trkpt lat="45.48688606592133" lon="11.542588046696554"><ele>23.0</ele><time>2026-04-11T14:03:46.999Z</time></trkpt><trkpt lat="45.48702113410902" lon="11.542637077380697"><ele>23.0</ele><time>2026-04-11T14:03:47.999Z</time></trkpt><trkpt lat="45.487167448889046" lon="11.54268680567363"><ele>23.0</ele><time>2026-04-11T14:03:48.999Z</time></trkpt><trkpt lat="45.48729929087121" lon="11.542742349495784"><ele>23.0</ele><time>2026-04-11T14:03:49.999Z</time></trkpt><trkpt lat="45.487435778855314" lon="11.542785933928934"><ele>23.0</ele><time>2026-04-11T14:03:50.999Z</time></trkpt><trkpt lat="45.48756971460794" lon="11.54283825318228"><ele>23.0</ele><time>2026-04-11T14:03:51.999Z</time></trkpt><trkpt lat="45.487711033881816" lon="11.542888755436946"><ele>23.0</ele><time>2026-04-11T14:03:52.999Z</time></trkpt><trkpt lat="45.487857244603504" lon="11.542942171033433"><ele>23.0</ele><time>2026-04-11T14:03:53.999Z</time></trkpt><trkpt lat="45.488000722215304" lon="11.54299484053771"><ele>23.0</ele><time>2026-04-11T14:03:54.999Z</time></trkpt><trkpt lat="45.48814610013434" lon="11.54304866075762"><ele>23.0</ele><time>2026-04-11T14:03:55.999Z</time></trkpt><trkpt lat="45.48829903524367" lon="11.54310300671621"><ele>23.0</ele><time>2026-04-11T14:03:56.999Z</time></trkpt><trkpt lat="45.48843964305086" lon="11.543152547614746"><ele>23.0</ele><time>2026-04-11T14:03:57.999Z</time></trkpt><trkpt lat="45.48860462603411" lon="11.543209160717918"><ele>23.0</ele><time>2026-04-11T14:03:58.999Z</time></trkpt><trkpt lat="45.488756887841284" lon="11.543262149025514"><ele>23.0</ele><time>2026-04-11T14:03:59.999Z</time></trkpt><trkpt lat="45.48890720147878" lon="11.54331241717272"><ele>23.333333333333336</ele><time>2026-04-11T14:04:00.999Z</time></trkpt><trkpt lat="45.489055051664636" lon="11.543376116590926"><ele>23.666666666666668</ele><time>2026-04-11T14:04:01.999Z</time></trkpt><trkpt lat="45.48920424017733" lon="11.543433178135805"><ele>24.0</ele><time>2026-04-11T14:04:02.999Z</time></trkpt><trkpt lat="45.489340726837725" lon="11.543481910575668"><ele>24.0</ele><time>2026-04-11T14:04:03.999Z</time></trkpt><trkpt lat="45.4894652444743" lon="11.54352337623509"><ele>24.0</ele><time>2026-04-11T14:04:04.999Z</time></trkpt><trkpt lat="45.48957690386503" lon="11.543558736837856"><ele>24.0</ele><time>2026-04-11T14:04:05.999Z</time></trkpt><trkpt lat="45.489680611391066" lon="11.543596137253871"><ele>24.0</ele><time>2026-04-11T14:04:06.999Z</time></trkpt><trkpt lat="45.48976737404033" lon="11.54362595422963"><ele>24.0</ele><time>2026-04-11T14:04:07.999Z</time></trkpt><trkpt lat="45.489835870365106" lon="11.543648983337333"><ele>27.0</ele><time>2026-04-11T14:04:08.999Z</time></trkpt><trkpt lat="45.48990052887242" lon="11.543677118057946"><ele>30.0</ele><time>2026-04-11T14:04:09.999Z</time></trkpt><trkpt lat="45.489994587163544" lon="11.543678487585526"><ele>33.0</ele><time>2026-04-11T14:04:11.999Z</time></trkpt><trkpt lat="45.489969225939326" lon="11.543504099061156"><ele>36.0</ele><time>2026-04-11T14:04:13.999Z</time></trkpt><trkpt lat="45.48998195072486" lon="11.543378235006461"><ele>39.0</ele><time>2026-04-11T14:04:14.999Z</time></trkpt><trkpt lat="45.48995132738014" lon="11.543233536149222"><ele>39.0</ele><time>2026-04-11T14:04:15.999Z</time></trkpt><trkpt lat="45.4899185289621" lon="11.543059229843182"><ele>39.0</ele><time>2026-04-11T14:04:16.999Z</time></trkpt><trkpt lat="45.489884089458656" lon="11.542873394034446"><ele>39.0</ele><time>2026-04-11T14:04:17.999Z</time></trkpt><trkpt lat="45.489847434698476" lon="11.542671699855898"><ele>39.0</ele><time>2026-04-11T14:04:18.999Z</time></trkpt><trkpt lat="45.48981051515608" lon="11.542469115485538"><ele>41.0</ele><time>2026-04-11T14:04:19.999Z</time></trkpt><trkpt lat="45.48977438761147" lon="11.542260896130703"><ele>43.0</ele><time>2026-04-11T14:04:20.999Z</time></trkpt><trkpt lat="45.489734589944284" lon="11.542058717414886"><ele>45.0</ele><time>2026-04-11T14:04:21.999Z</time></trkpt><trkpt lat="45.48970226974239" lon="11.541856844729153"><ele>47.0</ele><time>2026-04-11T14:04:22.999Z</time></trkpt><trkpt lat="45.489672672515745" lon="11.541652142270628"><ele>48.75</ele><time>2026-04-11T14:04:23.999Z</time></trkpt><trkpt lat="45.48963231348511" lon="11.541447844965287"><ele>50.5</ele><time>2026-04-11T14:04:24.999Z</time></trkpt><trkpt lat="45.489574000931505" lon="11.54125409264308"><ele>52.25</ele><time>2026-04-11T14:04:25.999Z</time></trkpt><trkpt lat="45.48950769464485" lon="11.541072217850822"><ele>54.0</ele><time>2026-04-11T14:04:26.999Z</time></trkpt><trkpt lat="45.48944456283478" lon="11.540883914666177"><ele>47.333333333333336</ele><time>2026-04-11T14:04:27.999Z</time></trkpt><trkpt lat="45.489405352148324" lon="11.54067628158029"><ele>40.66666666666667</ele><time>2026-04-11T14:04:28.999Z</time></trkpt><trkpt lat="45.48936298975921" lon="11.540443978104674"><ele>34.0</ele><time>2026-04-11T14:04:29.999Z</time></trkpt><trkpt lat="45.48931019949484" lon="11.540172625156512"><ele>34.0</ele><time>2026-04-11T14:04:30.999Z</time></trkpt><trkpt lat="45.48924287362822" lon="11.539880592997129"><ele>34.0</ele><time>2026-04-11T14:04:31.999Z</time></trkpt><trkpt lat="45.489154469675604" lon="11.539592862895704"><ele>34.0</ele><time>2026-04-11T14:04:32.999Z</time></trkpt><trkpt lat="45.489063530997406" lon="11.539283516446183"><ele>38.5</ele><time>2026-04-11T14:04:33.998Z</time></trkpt><trkpt lat="45.488966625833434" lon="11.538967455090797"><ele>43.0</ele><time>2026-04-11T14:04:34.998Z</time></trkpt><trkpt lat="45.488872435880616" lon="11.538640488253375"><ele>44.0</ele><time>2026-04-11T14:04:35.998Z</time></trkpt><trkpt lat="45.48877943240995" lon="11.538305286123256"><ele>45.0</ele><time>2026-04-11T14:04:36.998Z</time></trkpt><trkpt lat="45.488684458603565" lon="11.537965161508284"><ele>35.5</ele><time>2026-04-11T14:04:37.998Z</time></trkpt><trkpt lat="45.48858759431037" lon="11.537621492768949"><ele>26.0</ele><time>2026-04-11T14:04:38.998Z</time></trkpt><trkpt lat="45.488498054609806" lon="11.537287534346572"><ele>26.0</ele><time>2026-04-11T14:04:39.998Z</time></trkpt><trkpt lat="45.488411946373624" lon="11.536954475050845"><ele>26.0</ele><time>2026-04-11T14:04:40.998Z</time></trkpt><trkpt lat="45.488329886893496" lon="11.536629255837948"><ele>26.0</ele><time>2026-04-11T14:04:41.998Z</time></trkpt><trkpt lat="45.48824729048428" lon="11.536306518596954"><ele>26.0</ele><time>2026-04-11T14:04:42.998Z</time></trkpt><trkpt lat="45.488160995013956" lon="11.535984661695037"><ele>25.0</ele><time>2026-04-11T14:04:43.998Z</time></trkpt><trkpt lat="45.488075353319026" lon="11.535653842691348"><ele>24.0</ele><time>2026-04-11T14:04:44.998Z</time></trkpt><trkpt lat="45.48799502092375" lon="11.53531199611399"><ele>23.5</ele><time>2026-04-11T14:04:45.998Z</time></trkpt><trkpt lat="45.48792682352397" lon="11.53496353166008"><ele>23.0</ele><time>2026-04-11T14:04:46.998Z</time></trkpt><trkpt lat="45.48786584078849" lon="11.534616596975269"><ele>21.5</ele><time>2026-04-11T14:04:47.998Z</time></trkpt><trkpt lat="45.48780203158224" lon="11.534265819720883"><ele>20.0</ele><time>2026-04-11T14:04:48.998Z</time></trkpt><trkpt lat="45.487747268368835" lon="11.533938161203812"><ele>20.0</ele><time>2026-04-11T14:04:49.998Z</time></trkpt><trkpt lat="45.48771771853138" lon="11.533593267410408"><ele>20.0</ele><time>2026-04-11T14:04:50.998Z</time></trkpt><trkpt lat="45.48768288320783" lon="11.533263427157356"><ele>20.0</ele><time>2026-04-11T14:04:51.998Z</time></trkpt><trkpt lat="45.4876537993996" lon="11.532912167761701"><ele>20.0</ele><time>2026-04-11T14:04:52.998Z</time></trkpt><trkpt lat="45.48760871323162" lon="11.532569152150346"><ele>20.666666666666668</ele><time>2026-04-11T14:04:53.998Z</time></trkpt><trkpt lat="45.48759281666948" lon="11.532243078709168"><ele>21.333333333333332</ele><time>2026-04-11T14:04:54.998Z</time></trkpt><trkpt lat="45.487573802613504" lon="11.531933326207504"><ele>22.0</ele><time>2026-04-11T14:04:55.998Z</time></trkpt><trkpt lat="45.48756326435769" lon="11.531636210676321"><ele>24.666666666666664</ele><time>2026-04-11T14:04:56.998Z</time></trkpt><trkpt lat="45.48756238704102" lon="11.5313609978951"><ele>27.333333333333332</ele><time>2026-04-11T14:04:57.998Z</time></trkpt><trkpt lat="45.48755753686794" lon="11.531101192313738"><ele>30.0</ele><time>2026-04-11T14:04:58.998Z</time></trkpt><trkpt lat="45.48754327565439" lon="11.530852476561106"><ele>31.666666666666664</ele><time>2026-04-11T14:04:59.998Z</time></trkpt><trkpt lat="45.487511526971936" lon="11.530622676062524"><ele>33.33333333333333</ele><time>2026-04-11T14:05:00.998Z</time></trkpt><trkpt lat="45.48745922310827" lon="11.530403865205647"><ele>35.0</ele><time>2026-04-11T14:05:01.998Z</time></trkpt><trkpt lat="45.487388552525516" lon="11.530195930225771"><ele>37.33333333333333</ele><time>2026-04-11T14:05:02.998Z</time></trkpt><trkpt lat="45.48730935792983" lon="11.529994223764993"><ele>39.666666666666664</ele><time>2026-04-11T14:05:03.998Z</time></trkpt><trkpt lat="45.48724575221095" lon="11.529795175505134"><ele>42.0</ele><time>2026-04-11T14:05:04.998Z</time></trkpt><trkpt lat="45.48721045909687" lon="11.529558193647546"><ele>45.0</ele><time>2026-04-11T14:05:05.998Z</time></trkpt><trkpt lat="45.48714465422873" lon="11.52932260103352"><ele>48.0</ele><time>2026-04-11T14:05:06.998Z</time></trkpt><trkpt lat="45.487092742997554" lon="11.529077890161826"><ele>51.0</ele><time>2026-04-11T14:05:07.998Z</time></trkpt><trkpt lat="45.4870394923868" lon="11.528856711216278"><ele>46.0</ele><time>2026-04-11T14:05:08.998Z</time></trkpt><trkpt lat="45.48698099468387" lon="11.528656673285857"><ele>41.0</ele><time>2026-04-11T14:05:09.998Z</time></trkpt><trkpt lat="45.48691771195904" lon="11.528475799095494"><ele>36.0</ele><time>2026-04-11T14:05:10.998Z</time></trkpt><trkpt lat="45.48689053030044" lon="11.5282927903668"><ele>31.0</ele><time>2026-04-11T14:05:11.998Z</time></trkpt><trkpt lat="45.48687955078284" lon="11.528101706017665"><ele>32.333333333333336</ele><time>2026-04-11T14:05:12.998Z</time></trkpt><trkpt lat="45.4868665238152" lon="11.527885523909836"><ele>33.666666666666664</ele><time>2026-04-11T14:05:13.998Z</time></trkpt><trkpt lat="45.48683010577499" lon="11.527668356481765"><ele>35.0</ele><time>2026-04-11T14:05:14.998Z</time></trkpt><trkpt lat="45.486800278603006" lon="11.527441958309796"><ele>35.0</ele><time>2026-04-11T14:05:15.998Z</time></trkpt><trkpt lat="45.48677138666252" lon="11.52721716948641"><ele>35.0</ele><time>2026-04-11T14:05:16.998Z</time></trkpt><trkpt lat="45.48677994538875" lon="11.526980251500344"><ele>35.0</ele><time>2026-04-11T14:05:17.998Z</time></trkpt><trkpt lat="45.486781745388775" lon="11.526748654500468"><ele>36.33333333333333</ele><time>2026-04-11T14:05:18.998Z</time></trkpt><trkpt lat="45.48677329011131" lon="11.526510213869903"><ele>37.666666666666664</ele><time>2026-04-11T14:05:19.998Z</time></trkpt><trkpt lat="45.48673638778887" lon="11.526270674971476"><ele>39.0</ele><time>2026-04-11T14:05:20.998Z</time></trkpt><trkpt lat="45.486678994393394" lon="11.526029651208763"><ele>39.666666666666664</ele><time>2026-04-11T14:05:21.998Z</time></trkpt><trkpt lat="45.48665717216156" lon="11.525776400323444"><ele>40.33333333333333</ele><time>2026-04-11T14:05:22.998Z</time></trkpt><trkpt lat="45.48662504102019" lon="11.525510193038965"><ele>41.0</ele><time>2026-04-11T14:05:23.997Z</time></trkpt><trkpt lat="45.486571238244636" lon="11.52524512384115"><ele>44.0</ele><time>2026-04-11T14:05:24.997Z</time></trkpt><trkpt lat="45.48651544138397" lon="11.524969043996697"><ele>47.0</ele><time>2026-04-11T14:05:25.997Z</time></trkpt><trkpt lat="45.48645494373087" lon="11.52471922514068"><ele>50.0</ele><time>2026-04-11T14:05:26.997Z</time></trkpt><trkpt lat="45.486392099674326" lon="11.524475406489953"><ele>52.0</ele><time>2026-04-11T14:05:27.997Z</time></trkpt><trkpt lat="45.48634863801976" lon="11.524240844834441"><ele>54.0</ele><time>2026-04-11T14:05:28.997Z</time></trkpt><trkpt lat="45.486288692101695" lon="11.523996012012232"><ele>56.0</ele><time>2026-04-11T14:05:29.999Z</time></trkpt><trkpt lat="45.48622910353806" lon="11.523757652589055"><ele>47.333333333333336</ele><time>2026-04-11T14:05:30.999Z</time></trkpt><trkpt lat="45.48614628632104" lon="11.52353127201717"><ele>38.66666666666667</ele><time>2026-04-11T14:05:31.999Z</time></trkpt><trkpt lat="45.48608337497886" lon="11.523283011507452"><ele>30.0</ele><time>2026-04-11T14:05:32.999Z</time></trkpt><trkpt lat="45.48603031914741" lon="11.523026225551762"><ele>31.333333333333336</ele><time>2026-04-11T14:05:33.999Z</time></trkpt><trkpt lat="45.48598942408106" lon="11.522768315943475"><ele>32.66666666666667</ele><time>2026-04-11T14:05:34.999Z</time></trkpt><trkpt lat="45.48595056141067" lon="11.522501956946865"><ele>34.0</ele><time>2026-04-11T14:05:35.999Z</time></trkpt><trkpt lat="45.48591682697478" lon="11.522236823554865"><ele>35.66666666666667</ele><time>2026-04-11T14:05:36.999Z</time></trkpt><trkpt lat="45.485886338271115" lon="11.521995360818844"><ele>37.333333333333336</ele><time>2026-04-11T14:05:37.999Z</time></trkpt><trkpt lat="45.485836466868335" lon="11.52175963824053"><ele>39.0</ele><time>2026-04-11T14:05:38.999Z</time></trkpt><trkpt lat="45.48575208260144" lon="11.521563187505867"><ele>39.0</ele><time>2026-04-11T14:05:39.999Z</time></trkpt><trkpt lat="45.485666283210385" lon="11.521386573879216"><ele>39.0</ele><time>2026-04-11T14:05:40.999Z</time></trkpt><trkpt lat="45.48561908539389" lon="11.521203673056597"><ele>39.0</ele><time>2026-04-11T14:05:41.999Z</time></trkpt><trkpt lat="45.48561267274496" lon="11.521004115996853"><ele>39.0</ele><time>2026-04-11T14:05:42.999Z</time></trkpt><trkpt lat="45.48562064800362" lon="11.520812232109858"><ele>40.5</ele><time>2026-04-11T14:05:43.999Z</time></trkpt><trkpt lat="45.48561652624694" lon="11.520644645627549"><ele>42.0</ele><time>2026-04-11T14:05:44.999Z</time></trkpt><trkpt lat="45.48557748794856" lon="11.520471011720051"><ele>43.5</ele><time>2026-04-11T14:05:45.999Z</time></trkpt><trkpt lat="45.48550252192224" lon="11.520293031851402"><ele>45.0</ele><time>2026-04-11T14:05:46.999Z</time></trkpt><trkpt lat="45.485395739577406" lon="11.520123348042395"><ele>40.333333333333336</ele><time>2026-04-11T14:05:47.999Z</time></trkpt><trkpt lat="45.485276333438534" lon="11.519962950158591"><ele>35.66666666666667</ele><time>2026-04-11T14:05:48.999Z</time></trkpt><trkpt lat="45.4851463975288" lon="11.519807220826465"><ele>31.0</ele><time>2026-04-11T14:05:49.999Z</time></trkpt><trkpt lat="45.48502790535032" lon="11.519664714992786"><ele>34.66666666666667</ele><time>2026-04-11T14:05:50.999Z</time></trkpt><trkpt lat="45.484921365381595" lon="11.519513501006001"><ele>38.333333333333336</ele><time>2026-04-11T14:05:51.999Z</time></trkpt><trkpt lat="45.48483760046735" lon="11.519338162789333"><ele>42.0</ele><time>2026-04-11T14:05:52.999Z</time></trkpt><trkpt lat="45.484777468227584" lon="11.519134781720167"><ele>42.0</ele><time>2026-04-11T14:05:53.999Z</time></trkpt><trkpt lat="45.48470130842035" lon="11.51891294650368"><ele>42.0</ele><time>2026-04-11T14:05:54.999Z</time></trkpt><trkpt lat="45.48458732136488" lon="11.518713118943065"><ele>42.0</ele><time>2026-04-11T14:05:55.999Z</time></trkpt><trkpt lat="45.48444334115925" lon="11.518554932176205"><ele>40.666666666666664</ele><time>2026-04-11T14:05:56.999Z</time></trkpt><trkpt lat="45.48428676021798" lon="11.518415597186813"><ele>39.33333333333333</ele><time>2026-04-11T14:05:57.999Z</time></trkpt><trkpt lat="45.48414275278381" lon="11.51827553276384"><ele>38.0</ele><time>2026-04-11T14:05:58.999Z</time></trkpt><trkpt lat="45.48402320070155" lon="11.518163516492773"><ele>38.0</ele><time>2026-04-11T14:05:59.999Z</time></trkpt><trkpt lat="45.48385833003206" lon="11.518004181041487"><ele>38.0</ele><time>2026-04-11T14:06:00.999Z</time></trkpt><trkpt lat="45.48373251103674" lon="11.517844717715587"><ele>38.0</ele><time>2026-04-11T14:06:01.999Z</time></trkpt><trkpt lat="45.48362008517651" lon="11.517653165845362"><ele>35.666666666666664</ele><time>2026-04-11T14:06:02.999Z</time></trkpt><trkpt lat="45.48350913861514" lon="11.517452394247218"><ele>33.333333333333336</ele><time>2026-04-11T14:06:03.999Z</time></trkpt><trkpt lat="45.48338103443186" lon="11.51725028073735"><ele>31.0</ele><time>2026-04-11T14:06:04.999Z</time></trkpt><trkpt lat="45.483255277669365" lon="11.517045620087135"><ele>30.666666666666668</ele><time>2026-04-11T14:06:05.999Z</time></trkpt><trkpt lat="45.48312081192235" lon="11.516843376018388"><ele>30.333333333333336</ele><time>2026-04-11T14:06:06.999Z</time></trkpt><trkpt lat="45.482974962027896" lon="11.516673134496942"><ele>30.0</ele><time>2026-04-11T14:06:07.999Z</time></trkpt><trkpt lat="45.48281012829878" lon="11.516557456355155"><ele>30.0</ele><time>2026-04-11T14:06:08.999Z</time></trkpt><trkpt lat="45.48263728027307" lon="11.516460810041439"><ele>30.0</ele><time>2026-04-11T14:06:09.999Z</time></trkpt><trkpt lat="45.48249569132295" lon="11.516311858729017"><ele>30.0</ele><time>2026-04-11T14:06:10.999Z</time></trkpt><trkpt lat="45.48237965638174" lon="11.516107189985933"><ele>29.0</ele><time>2026-04-11T14:06:11.999Z</time></trkpt><trkpt lat="45.482300302905" lon="11.51586768340397"><ele>28.0</ele><time>2026-04-11T14:06:12.999Z</time></trkpt><trkpt lat="45.48221393168511" lon="11.51563203499368"><ele>27.0</ele><time>2026-04-11T14:06:13.999Z</time></trkpt><trkpt lat="45.48207482525091" lon="11.51545181132972"><ele>31.666666666666664</ele><time>2026-04-11T14:06:14.999Z</time></trkpt><trkpt lat="45.48189004407403" lon="11.51534041111949"><ele>36.33333333333333</ele><time>2026-04-11T14:06:15.999Z</time></trkpt><trkpt lat="45.481698702589476" lon="11.515266231053854"><ele>41.0</ele><time>2026-04-11T14:06:16.999Z</time></trkpt><trkpt lat="45.481506084645545" lon="11.515163189961447"><ele>41.0</ele><time>2026-04-11T14:06:17.999Z</time></trkpt><trkpt lat="45.481330937254995" lon="11.515047571335149"><ele>41.0</ele><time>2026-04-11T14:06:18.999Z</time></trkpt><trkpt lat="45.48116181515536" lon="11.514903329561575"><ele>41.0</ele><time>2026-04-11T14:06:19.999Z</time></trkpt><trkpt lat="45.48099842555926" lon="11.514751935083833"><ele>40.0</ele><time>2026-04-11T14:06:20.999Z</time></trkpt><trkpt lat="45.480829834904235" lon="11.514597653413905"><ele>39.0</ele><time>2026-04-11T14:06:21.999Z</time></trkpt><trkpt lat="45.48067887524117" lon="11.51441850048341"><ele>38.0</ele><time>2026-04-11T14:06:22.999Z</time></trkpt><trkpt lat="45.480543123828575" lon="11.514217919603054"><ele>36.666666666666664</ele><time>2026-04-11T14:06:23.999Z</time></trkpt><trkpt lat="45.48039426049735" lon="11.514038882194766"><ele>35.333333333333336</ele><time>2026-04-11T14:06:24.999Z</time></trkpt><trkpt lat="45.480263625098665" lon="11.513830152124592"><ele>34.0</ele><time>2026-04-11T14:06:25.999Z</time></trkpt><trkpt lat="45.48012454327929" lon="11.513632195835093"><ele>34.0</ele><time>2026-04-11T14:06:26.999Z</time></trkpt><trkpt lat="45.479970625748834" lon="11.513470593465716"><ele>34.0</ele><time>2026-04-11T14:06:27.999Z</time></trkpt><trkpt lat="45.47979394260967" lon="11.513360473392535"><ele>34.0</ele><time>2026-04-11T14:06:28.999Z</time></trkpt><trkpt lat="45.47960766957381" lon="11.513307837478493"><ele>33.0</ele><time>2026-04-11T14:06:29.999Z</time></trkpt><trkpt lat="45.47942362529108" lon="11.513291372551713"><ele>32.0</ele><time>2026-04-11T14:06:30.999Z</time></trkpt><trkpt lat="45.479255858647804" lon="11.513225715087849"><ele>31.0</ele><time>2026-04-11T14:06:31.999Z</time></trkpt><trkpt lat="45.479101191912896" lon="11.51313663637588"><ele>31.0</ele><time>2026-04-11T14:06:32.999Z</time></trkpt><trkpt lat="45.47897331399582" lon="11.512999453916253"><ele>31.0</ele><time>2026-04-11T14:06:33.999Z</time></trkpt><trkpt lat="45.47883716023571" lon="11.512845062392062"><ele>31.0</ele><time>2026-04-11T14:06:34.999Z</time></trkpt><trkpt lat="45.47868597811896" lon="11.51270361266769"><ele>31.333333333333336</ele><time>2026-04-11T14:06:35.999Z</time></trkpt><trkpt lat="45.47851881606706" lon="11.512577616851788"><ele>31.666666666666664</ele><time>2026-04-11T14:06:36.999Z</time></trkpt><trkpt lat="45.478341770695096" lon="11.512483034809621"><ele>32.0</ele><time>2026-04-11T14:06:37.999Z</time></trkpt><trkpt lat="45.478176713045286" lon="11.512389899298224"><ele>32.0</ele><time>2026-04-11T14:06:38.999Z</time></trkpt><trkpt lat="45.47803152770855" lon="11.512250005379125"><ele>32.0</ele><time>2026-04-11T14:06:39.999Z</time></trkpt><trkpt lat="45.477878807311264" lon="11.512138250738145"><ele>32.0</ele><time>2026-04-11T14:06:40.999Z</time></trkpt><trkpt lat="45.477730325979955" lon="11.512012246483613"><ele>34.0</ele><time>2026-04-11T14:06:41.999Z</time></trkpt><trkpt lat="45.47758604148927" lon="11.511884529345348"><ele>36.0</ele><time>2026-04-11T14:06:42.999Z</time></trkpt><trkpt lat="45.477443553719525" lon="11.51175907584861"><ele>38.0</ele><time>2026-04-11T14:06:43.999Z</time></trkpt><trkpt lat="45.47729104110014" lon="11.511639949416097"><ele>38.0</ele><time>2026-04-11T14:06:44.999Z</time></trkpt><trkpt lat="45.47711490919429" lon="11.511564349082041"><ele>38.0</ele><time>2026-04-11T14:06:45.999Z</time></trkpt><trkpt lat="45.47694090958752" lon="11.511537283330401"><ele>38.0</ele><time>2026-04-11T14:06:46.999Z</time></trkpt><trkpt lat="45.47676998684827" lon="11.511521079432626"><ele>36.0</ele><time>2026-04-11T14:06:47.999Z</time></trkpt><trkpt lat="45.476601102330136" lon="11.511486188722602"><ele>34.0</ele><time>2026-04-11T14:06:48.999Z</time></trkpt><trkpt lat="45.476453748137516" lon="11.511397344158386"><ele>32.0</ele><time>2026-04-11T14:06:49.999Z</time></trkpt><trkpt lat="45.47630274948994" lon="11.511315464172364"><ele>30.666666666666664</ele><time>2026-04-11T14:06:50.998Z</time></trkpt><trkpt lat="45.47613578526435" lon="11.511248167699852"><ele>29.333333333333336</ele><time>2026-04-11T14:06:51.998Z</time></trkpt><trkpt lat="45.47597305203163" lon="11.511131923631424"><ele>28.0</ele><time>2026-04-11T14:06:52.998Z</time></trkpt><trkpt lat="45.47579477389793" lon="11.511049242702763"><ele>29.333333333333336</ele><time>2026-04-11T14:06:53.998Z</time></trkpt><trkpt lat="45.47562927961629" lon="11.510942235787127"><ele>30.666666666666664</ele><time>2026-04-11T14:06:54.998Z</time></trkpt><trkpt lat="45.475460884002416" lon="11.510846089869576"><ele>32.0</ele><time>2026-04-11T14:06:55.998Z</time></trkpt><trkpt lat="45.47528373103096" lon="11.510751760887844"><ele>32.0</ele><time>2026-04-11T14:06:56.998Z</time></trkpt><trkpt lat="45.475107159436014" lon="11.510658910736478"><ele>32.0</ele><time>2026-04-11T14:06:57.998Z</time></trkpt><trkpt lat="45.47492022494423" lon="11.510558777957483"><ele>32.0</ele><time>2026-04-11T14:06:58.998Z</time></trkpt><trkpt lat="45.474731760978976" lon="11.510457313287713"><ele>33.33333333333333</ele><time>2026-04-11T14:06:59.998Z</time></trkpt><trkpt lat="45.47453647373528" lon="11.510353267304028"><ele>34.666666666666664</ele><time>2026-04-11T14:07:00.998Z</time></trkpt><trkpt lat="45.47433589445775" lon="11.51025001101543"><ele>36.0</ele><time>2026-04-11T14:07:01.998Z</time></trkpt><trkpt lat="45.474137122770045" lon="11.510135391332685"><ele>36.0</ele><time>2026-04-11T14:07:02.998Z</time></trkpt><trkpt lat="45.47393519108009" lon="11.510016471731962"><ele>36.0</ele><time>2026-04-11T14:07:03.998Z</time></trkpt><trkpt lat="45.47373627476679" lon="11.509898330998451"><ele>36.0</ele><time>2026-04-11T14:07:04.998Z</time></trkpt><trkpt lat="45.4735358752343" lon="11.509784006234224"><ele>35.666666666666664</ele><time>2026-04-11T14:07:05.998Z</time></trkpt><trkpt lat="45.47333722115815" lon="11.509669266933495"><ele>35.33333333333333</ele><time>2026-04-11T14:07:06.998Z</time></trkpt><trkpt lat="45.473152115517046" lon="11.509559680090927"><ele>35.0</ele><time>2026-04-11T14:07:07.998Z</time></trkpt><trkpt lat="45.472979086234716" lon="11.509455577978864"><ele>33.666666666666664</ele><time>2026-04-11T14:07:08.998Z</time></trkpt><trkpt lat="45.47280772286241" lon="11.509349554013662"><ele>32.333333333333336</ele><time>2026-04-11T14:07:09.998Z</time></trkpt><trkpt lat="45.4726490618777" lon="11.509231032087191"><ele>31.0</ele><time>2026-04-11T14:07:10.998Z</time></trkpt><trkpt lat="45.4724901405571" lon="11.509095519620546"><ele>31.0</ele><time>2026-04-11T14:07:11.998Z</time></trkpt><trkpt lat="45.47233462711481" lon="11.50896156013463"><ele>31.0</ele><time>2026-04-11T14:07:12.998Z</time></trkpt><trkpt lat="45.4721732867012" lon="11.508834022580755"><ele>31.0</ele><time>2026-04-11T14:07:13.998Z</time></trkpt><trkpt lat="45.472027275543745" lon="11.508719106361246"><ele>33.0</ele><time>2026-04-11T14:07:14.998Z</time></trkpt><trkpt lat="45.47189046253912" lon="11.508618030329085"><ele>35.0</ele><time>2026-04-11T14:07:15.998Z</time></trkpt><trkpt lat="45.471758630970676" lon="11.50857231602422"><ele>37.0</ele><time>2026-04-11T14:07:16.998Z</time></trkpt><trkpt lat="45.47160806980547" lon="11.508597125871885"><ele>39.0</ele><time>2026-04-11T14:07:17.998Z</time></trkpt><trkpt lat="45.47144658385653" lon="11.508684203155068"><ele>38.333333333333336</ele><time>2026-04-11T14:07:18.998Z</time></trkpt><trkpt lat="45.47129577859665" lon="11.508791225468146"><ele>37.66666666666667</ele><time>2026-04-11T14:07:19.998Z</time></trkpt><trkpt lat="45.47114595882344" lon="11.508887592777885"><ele>37.0</ele><time>2026-04-11T14:07:20.998Z</time></trkpt><trkpt lat="45.470994351735136" lon="11.508979121585662"><ele>37.0</ele><time>2026-04-11T14:07:21.998Z</time></trkpt><trkpt lat="45.4708438571381" lon="11.509072001587251"><ele>37.0</ele><time>2026-04-11T14:07:22.998Z</time></trkpt><trkpt lat="45.470696279913966" lon="11.509185269321069"><ele>37.0</ele><time>2026-04-11T14:07:23.998Z</time></trkpt><trkpt lat="45.470566027433605" lon="11.509296991650906"><ele>37.0</ele><time>2026-04-11T14:07:24.998Z</time></trkpt><trkpt lat="45.470469627603705" lon="11.509424949562575"><ele>37.0</ele><time>2026-04-11T14:07:25.998Z</time></trkpt><trkpt lat="45.470396194093745" lon="11.509572526201456"><ele>37.0</ele><time>2026-04-11T14:07:26.998Z</time></trkpt><trkpt lat="45.47033127957629" lon="11.50971272664983"><ele>37.0</ele><time>2026-04-11T14:07:27.998Z</time></trkpt><trkpt lat="45.47026076247889" lon="11.509815132177497"><ele>37.0</ele><time>2026-04-11T14:07:28.998Z</time></trkpt><trkpt lat="45.47016707735896" lon="11.509873413584666"><ele>37.0</ele><time>2026-04-11T14:07:29.998Z</time></trkpt><trkpt lat="45.47004176969401" lon="11.509890752044962"><ele>37.0</ele><time>2026-04-11T14:07:30.998Z</time></trkpt><trkpt lat="45.46991872398961" lon="11.509858344167576"><ele>37.0</ele><time>2026-04-11T14:07:31.998Z</time></trkpt><trkpt lat="45.46978315716471" lon="11.509856233709428"><ele>37.0</ele><time>2026-04-11T14:07:32.998Z</time></trkpt><trkpt lat="45.46965874896879" lon="11.509784485488382"><ele>37.0</ele><time>2026-04-11T14:07:33.998Z</time></trkpt><trkpt lat="45.46953501967888" lon="11.509720859807857"><ele>37.0</ele><time>2026-04-11T14:07:34.998Z</time></trkpt><trkpt lat="45.469403074660576" lon="11.509644809578477"><ele>37.0</ele><time>2026-04-11T14:07:36Z</time></trkpt><trkpt lat="45.46926142419755" lon="11.509577902987335"><ele>39.0</ele><time>2026-04-11T14:07:37Z</time></trkpt><trkpt lat="45.46914119064845" lon="11.509443766439933"><ele>41.0</ele><time>2026-04-11T14:07:38Z</time></trkpt><trkpt lat="45.46902186417223" lon="11.509310745900509"><ele>43.0</ele><time>2026-04-11T14:07:39Z</time></trkpt><trkpt lat="45.46889906597275" lon="11.509185173481145"><ele>44.333333333333336</ele><time>2026-04-11T14:07:40Z</time></trkpt><trkpt lat="45.468764993528744" lon="11.509081886448616"><ele>45.666666666666664</ele><time>2026-04-11T14:07:41Z</time></trkpt><trkpt lat="45.468621740742265" lon="11.50898059390342"><ele>47.0</ele><time>2026-04-11T14:07:42Z</time></trkpt><trkpt lat="45.46850486970241" lon="11.508861134636856"><ele>47.0</ele><time>2026-04-11T14:07:43Z</time></trkpt><trkpt lat="45.46839655868412" lon="11.50874146364122"><ele>47.0</ele><time>2026-04-11T14:07:44Z</time></trkpt><trkpt lat="45.46828897258571" lon="11.508586561626304"><ele>47.0</ele><time>2026-04-11T14:07:45Z</time></trkpt><trkpt lat="45.46816068392596" lon="11.508425394526329"><ele>47.0</ele><time>2026-04-11T14:07:46Z</time></trkpt><trkpt lat="45.468016015590706" lon="11.50828983054027"><ele>47.0</ele><time>2026-04-11T14:07:47Z</time></trkpt><trkpt lat="45.46786923633997" lon="11.508151096199292"><ele>47.0</ele><time>2026-04-11T14:07:48Z</time></trkpt><trkpt lat="45.46772993326745" lon="11.507983980771384"><ele>50.0</ele><time>2026-04-11T14:07:49Z</time></trkpt><trkpt lat="45.467593640646314" lon="11.50782671589307"><ele>53.0</ele><time>2026-04-11T14:07:50Z</time></trkpt><trkpt lat="45.46745092377826" lon="11.50767969745837"><ele>56.0</ele><time>2026-04-11T14:07:51Z</time></trkpt><trkpt lat="45.467327447142175" lon="11.507523747306534"><ele>56.0</ele><time>2026-04-11T14:07:52Z</time></trkpt><trkpt lat="45.46721838080164" lon="11.507384404468175"><ele>56.0</ele><time>2026-04-11T14:07:53Z</time></trkpt><trkpt lat="45.467124552756246" lon="11.50725111968357"><ele>56.0</ele><time>2026-04-11T14:07:54Z</time></trkpt><trkpt lat="45.46703899281215" lon="11.507143302678974"><ele>56.0</ele><time>2026-04-11T14:07:55Z</time></trkpt><trkpt lat="45.466983795936216" lon="11.50703648638578"><ele>56.0</ele><time>2026-04-11T14:07:56Z</time></trkpt><trkpt lat="45.466932982913036" lon="11.50693960930398"><ele>55.99999999999999</ele><time>2026-04-11T14:07:58Z</time></trkpt><trkpt lat="45.467013347878954" lon="11.506846756108022"><ele>55.99999999999999</ele><time>2026-04-11T14:08:00Z</time></trkpt><trkpt lat="45.467084348885464" lon="11.506912901322766"><ele>56.0</ele><time>2026-04-11T14:08:01Z</time></trkpt><trkpt lat="45.467153254190436" lon="11.506991049813458"><ele>56.0</ele><time>2026-04-11T14:08:02Z</time></trkpt><trkpt lat="45.46724612175915" lon="11.507091695305817"><ele>56.0</ele><time>2026-04-11T14:08:03Z</time></trkpt><trkpt lat="45.467366232385444" lon="11.507202463131858"><ele>56.0</ele><time>2026-04-11T14:08:04Z</time></trkpt><trkpt lat="45.467487532259135" lon="11.50730977175866"><ele>56.0</ele><time>2026-04-11T14:08:05Z</time></trkpt><trkpt lat="45.46758215310174" lon="11.507394715734074"><ele>56.0</ele><time>2026-04-11T14:08:06Z</time></trkpt><trkpt lat="45.4676832181798" lon="11.507443743007828"><ele>56.0</ele><time>2026-04-11T14:08:07Z</time></trkpt><trkpt lat="45.46780846250237" lon="11.507451778211284"><ele>56.0</ele><time>2026-04-11T14:08:08Z</time></trkpt><trkpt lat="45.46794206676531" lon="11.507471053388063"><ele>56.0</ele><time>2026-04-11T14:08:09Z</time></trkpt><trkpt lat="45.468066121904265" lon="11.507536475613003"><ele>56.0</ele><time>2026-04-11T14:08:10Z</time></trkpt><trkpt lat="45.46818605779835" lon="11.50762691916958"><ele>58.75</ele><time>2026-04-11T14:08:11Z</time></trkpt><trkpt lat="45.46830384702284" lon="11.507693460779109"><ele>61.5</ele><time>2026-04-11T14:08:12Z</time></trkpt><trkpt lat="45.46840600944564" lon="11.50778117099149"><ele>64.25</ele><time>2026-04-11T14:08:13Z</time></trkpt><trkpt lat="45.46850498047965" lon="11.507844983849722"><ele>67.0</ele><time>2026-04-11T14:08:14Z</time></trkpt><trkpt lat="45.46861466361041" lon="11.50787901116378"><ele>67.0</ele><time>2026-04-11T14:08:14.999Z</time></trkpt><trkpt lat="45.468742361679276" lon="11.507883702507497"><ele>67.0</ele><time>2026-04-11T14:08:15.999Z</time></trkpt><trkpt lat="45.46888861103696" lon="11.50787853025173"><ele>67.0</ele><time>2026-04-11T14:08:16.999Z</time></trkpt><trkpt lat="45.46903457720532" lon="11.507916863168111"><ele>67.0</ele><time>2026-04-11T14:08:17.999Z</time></trkpt><trkpt lat="45.469180972425185" lon="11.507906838705814"><ele>65.5</ele><time>2026-04-11T14:08:18.999Z</time></trkpt><trkpt lat="45.46931491564322" lon="11.50791989944781"><ele>64.0</ele><time>2026-04-11T14:08:19.999Z</time></trkpt><trkpt lat="45.469442433513024" lon="11.507928468241301"><ele>62.5</ele><time>2026-04-11T14:08:20.999Z</time></trkpt><trkpt lat="45.46957198816415" lon="11.507903554300134"><ele>61.0</ele><time>2026-04-11T14:08:21.999Z</time></trkpt><trkpt lat="45.4696951800567" lon="11.50784266321166"><ele>65.19999999999999</ele><time>2026-04-11T14:08:22.999Z</time></trkpt><trkpt lat="45.469787364687384" lon="11.507783248367561"><ele>69.39999999999999</ele><time>2026-04-11T14:08:23.999Z</time></trkpt><trkpt lat="45.46984811466953" lon="11.507734252400875"><ele>73.6</ele><time>2026-04-11T14:08:24.999Z</time></trkpt><trkpt lat="45.46987907925174" lon="11.507574491506146"><ele>77.8</ele><time>2026-04-11T14:08:26.999Z</time></trkpt><trkpt lat="45.469818029932725" lon="11.507468488673126"><ele>82.0</ele><time>2026-04-11T14:08:27.999Z</time></trkpt><trkpt lat="45.4696869955452" lon="11.507429429737455"><ele>80.33333333333333</ele><time>2026-04-11T14:08:28.999Z</time></trkpt><trkpt lat="45.46956402125531" lon="11.507349508183351"><ele>78.66666666666667</ele><time>2026-04-11T14:08:29.999Z</time></trkpt><trkpt lat="45.46942430949709" lon="11.507226197281156"><ele>77.0</ele><time>2026-04-11T14:08:30.999Z</time></trkpt><trkpt lat="45.469251756255744" lon="11.507088773682723"><ele>82.66666666666667</ele><time>2026-04-11T14:08:31.999Z</time></trkpt><trkpt lat="45.4690862476853" lon="11.506942819527803"><ele>88.33333333333333</ele><time>2026-04-11T14:08:32.999Z</time></trkpt><trkpt lat="45.468927671181326" lon="11.506809216102841"><ele>94.0</ele><time>2026-04-11T14:08:33.999Z</time></trkpt><trkpt lat="45.46877449559667" lon="11.50667845874348"><ele>94.0</ele><time>2026-04-11T14:08:34.999Z</time></trkpt><trkpt lat="45.4686152529653" lon="11.506564883469364"><ele>94.0</ele><time>2026-04-11T14:08:35.999Z</time></trkpt><trkpt lat="45.46843087831485" lon="11.506481692383685"><ele>94.0</ele><time>2026-04-11T14:08:36.999Z</time></trkpt><trkpt lat="45.46823315574032" lon="11.506427369061237"><ele>94.0</ele><time>2026-04-11T14:08:37.999Z</time></trkpt><trkpt lat="45.468032818759355" lon="11.506347044287308"><ele>94.0</ele><time>2026-04-11T14:08:38.999Z</time></trkpt><trkpt lat="45.46785067781697" lon="11.506276089421872"><ele>94.0</ele><time>2026-04-11T14:08:39.999Z</time></trkpt><trkpt lat="45.4676816096913" lon="11.506208863947416"><ele>97.75</ele><time>2026-04-11T14:08:40.999Z</time></trkpt><trkpt lat="45.46754508344551" lon="11.506182462263379"><ele>101.5</ele><time>2026-04-11T14:08:41.999Z</time></trkpt><trkpt lat="45.46744875052568" lon="11.506125405744712"><ele>105.25</ele><time>2026-04-11T14:08:42.999Z</time></trkpt><trkpt lat="45.46735221202496" lon="11.506085564245963"><ele>109.0</ele><time>2026-04-11T14:08:44.999Z</time></trkpt><trkpt lat="45.46740947276719" lon="11.505926417674793"><ele>109.0</ele><time>2026-04-11T14:08:46.999Z</time></trkpt><trkpt lat="45.46750067124658" lon="11.505909743374538"><ele>109.0</ele><time>2026-04-11T14:08:47.999Z</time></trkpt><trkpt lat="45.46763530084141" lon="11.50593144141192"><ele>109.0</ele><time>2026-04-11T14:08:48.999Z</time></trkpt><trkpt lat="45.46779644501271" lon="11.505945273200433"><ele>109.0</ele><time>2026-04-11T14:08:49.999Z</time></trkpt><trkpt lat="45.467973615853985" lon="11.505932970928159"><ele>111.0</ele><time>2026-04-11T14:08:50.999Z</time></trkpt><trkpt lat="45.46816250413649" lon="11.505887452755251"><ele>113.0</ele><time>2026-04-11T14:08:51.999Z</time></trkpt><trkpt lat="45.46837301206597" lon="11.50579590956995"><ele>115.0</ele><time>2026-04-11T14:08:52.999Z</time></trkpt><trkpt lat="45.46860869517804" lon="11.505715592345908"><ele>117.0</ele><time>2026-04-11T14:08:53.999Z</time></trkpt><trkpt lat="45.46885693408144" lon="11.505666696225887"><ele>119.0</ele><time>2026-04-11T14:08:54.999Z</time></trkpt><trkpt lat="45.46911868631346" lon="11.50564930835385"><ele>119.0</ele><time>2026-04-11T14:08:55.999Z</time></trkpt><trkpt lat="45.46938177357965" lon="11.505619899572686"><ele>119.0</ele><time>2026-04-11T14:08:56.999Z</time></trkpt><trkpt lat="45.46963795492071" lon="11.50561228865461"><ele>124.0</ele><time>2026-04-11T14:08:57.999Z</time></trkpt><trkpt lat="45.46986876102171" lon="11.505600555861108"><ele>129.0</ele><time>2026-04-11T14:08:58.999Z</time></trkpt><trkpt lat="45.47009369481991" lon="11.505609464936592"><ele>129.0</ele><time>2026-04-11T14:08:59.999Z</time></trkpt><trkpt lat="45.470328131655435" lon="11.505630766453026"><ele>129.0</ele><time>2026-04-11T14:09:00.999Z</time></trkpt><trkpt lat="45.470528033439585" lon="11.50563331987814"><ele>129.0</ele><time>2026-04-11T14:09:01.999Z</time></trkpt><trkpt lat="45.470695986437484" lon="11.505606248559534"><ele>131.0</ele><time>2026-04-11T14:09:02.999Z</time></trkpt><trkpt lat="45.47085059055757" lon="11.505640649030276"><ele>133.0</ele><time>2026-04-11T14:09:03.999Z</time></trkpt><trkpt lat="45.47098137605991" lon="11.505651629004355"><ele>135.0</ele><time>2026-04-11T14:09:04.999Z</time></trkpt><trkpt lat="45.47108908680865" lon="11.505674894252172"><ele>137.0</ele><time>2026-04-11T14:09:05.999Z</time></trkpt><trkpt lat="45.47116413753315" lon="11.505680960429881"><ele>137.0</ele><time>2026-04-11T14:09:06.999Z</time></trkpt><trkpt lat="45.471216319801684" lon="11.505578151361657"><ele>137.0</ele><time>2026-04-11T14:09:08.999Z</time></trkpt><trkpt lat="45.471206845155244" lon="11.505476680158623"><ele>137.0</ele><time>2026-04-11T14:09:09.999Z</time></trkpt><trkpt lat="45.47113054323152" lon="11.505415931347187"><ele>137.0</ele><time>2026-04-11T14:09:10.999Z</time></trkpt><trkpt lat="45.471005245851686" lon="11.505415323460362"><ele>137.0</ele><time>2026-04-11T14:09:11.998Z</time></trkpt><trkpt lat="45.470864835385754" lon="11.50535510986958"><ele>143.0</ele><time>2026-04-11T14:09:12.998Z</time></trkpt><trkpt lat="45.470712881338855" lon="11.50527361950707"><ele>149.0</ele><time>2026-04-11T14:09:13.998Z</time></trkpt><trkpt lat="45.47053640384261" lon="11.50516169349658"><ele>155.0</ele><time>2026-04-11T14:09:14.998Z</time></trkpt><trkpt lat="45.470357659750846" lon="11.505033092190216"><ele>155.0</ele><time>2026-04-11T14:09:15.998Z</time></trkpt><trkpt lat="45.47016490269696" lon="11.504884433392204"><ele>155.0</ele><time>2026-04-11T14:09:16.998Z</time></trkpt><trkpt lat="45.46995689903287" lon="11.504716914830492"><ele>162.5</ele><time>2026-04-11T14:09:17.998Z</time></trkpt><trkpt lat="45.46973061469969" lon="11.504573897968525"><ele>170.0</ele><time>2026-04-11T14:09:18.998Z</time></trkpt><trkpt lat="45.46950397980334" lon="11.504408051665063"><ele>170.0</ele><time>2026-04-11T14:09:19.998Z</time></trkpt><trkpt lat="45.46928858856918" lon="11.504199261612722"><ele>170.0</ele><time>2026-04-11T14:09:20.998Z</time></trkpt><trkpt lat="45.46909034116573" lon="11.504009455745765"><ele>170.0</ele><time>2026-04-11T14:09:21.998Z</time></trkpt><trkpt lat="45.46891554004219" lon="11.50384135481478"><ele>170.0</ele><time>2026-04-11T14:09:22.998Z</time></trkpt><trkpt lat="45.46874263499576" lon="11.503718056475034"><ele>170.0</ele><time>2026-04-11T14:09:23.998Z</time></trkpt><trkpt lat="45.46858367575008" lon="11.503636777850538"><ele>174.0</ele><time>2026-04-11T14:09:24.998Z</time></trkpt><trkpt lat="45.468454330978254" lon="11.503594034524815"><ele>178.0</ele><time>2026-04-11T14:09:25.998Z</time></trkpt><trkpt lat="45.4683727194908" lon="11.50354380155827"><ele>182.0</ele><time>2026-04-11T14:09:26.998Z</time></trkpt><trkpt lat="45.46830144601088" lon="11.503489008720743"><ele>186.0</ele><time>2026-04-11T14:09:28.998Z</time></trkpt><trkpt lat="45.46841546695217" lon="11.503393635183144"><ele>190.0</ele><time>2026-04-11T14:09:30.998Z</time></trkpt><trkpt lat="45.46851293765026" lon="11.50342695621003"><ele>190.0</ele><time>2026-04-11T14:09:31.998Z</time></trkpt><trkpt lat="45.46863197616764" lon="11.50347951542629"><ele>190.0</ele><time>2026-04-11T14:09:32.998Z</time></trkpt><trkpt lat="45.468785241867046" lon="11.503522214062976"><ele>190.0</ele><time>2026-04-11T14:09:33.998Z</time></trkpt><trkpt lat="45.468964129537675" lon="11.503549292045362"><ele>193.0</ele><time>2026-04-11T14:09:34.998Z</time></trkpt><trkpt lat="45.46916150035392" lon="11.50357451459632"><ele>196.0</ele><time>2026-04-11T14:09:35.998Z</time></trkpt><trkpt lat="45.46937877844861" lon="11.50360291692602"><ele>199.0</ele><time>2026-04-11T14:09:36.998Z</time></trkpt><trkpt lat="45.46960824977528" lon="11.503637459131264"><ele>204.0</ele><time>2026-04-11T14:09:37.998Z</time></trkpt><trkpt lat="45.469848720515344" lon="11.503675325923012"><ele>209.0</ele><time>2026-04-11T14:09:38.998Z</time></trkpt><trkpt lat="45.47009300065417" lon="11.50370680534691"><ele>209.0</ele><time>2026-04-11T14:09:39.998Z</time></trkpt><trkpt lat="45.47035514616375" lon="11.503719109913304"><ele>209.0</ele><time>2026-04-11T14:09:40.998Z</time></trkpt><trkpt lat="45.47060366069644" lon="11.503712599401247"><ele>200.0</ele><time>2026-04-11T14:09:42Z</time></trkpt><trkpt lat="45.47084615023084" lon="11.50374750885304"><ele>191.0</ele><time>2026-04-11T14:09:43Z</time></trkpt><trkpt lat="45.471100867946774" lon="11.503830581533867"><ele>195.5</ele><time>2026-04-11T14:09:44Z</time></trkpt><trkpt lat="45.47135161944829" lon="11.503903559540504"><ele>200.0</ele><time>2026-04-11T14:09:45Z</time></trkpt><trkpt lat="45.47161867545142" lon="11.503928476194131"><ele>200.0</ele><time>2026-04-11T14:09:46Z</time></trkpt><trkpt lat="45.471826223359045" lon="11.503927320817786"><ele>200.0</ele><time>2026-04-11T14:09:47Z</time></trkpt><trkpt lat="45.472017840114866" lon="11.50393574295962"><ele>200.0</ele><time>2026-04-11T14:09:48Z</time></trkpt><trkpt lat="45.47218250694088" lon="11.503934294380963"><ele>201.33333333333334</ele><time>2026-04-11T14:09:49Z</time></trkpt><trkpt lat="45.472338006884456" lon="11.50388801700467"><ele>202.66666666666669</ele><time>2026-04-11T14:09:50Z</time></trkpt><trkpt lat="45.47249483390898" lon="11.503792896798316"><ele>204.0</ele><time>2026-04-11T14:09:51Z</time></trkpt><trkpt lat="45.472655448754956" lon="11.503651794735346"><ele>212.66666666666669</ele><time>2026-04-11T14:09:52Z</time></trkpt><trkpt lat="45.47284103115529" lon="11.503535289461098"><ele>221.33333333333334</ele><time>2026-04-11T14:09:53Z</time></trkpt><trkpt lat="45.47304056019204" lon="11.503450274573895"><ele>230.0</ele><time>2026-04-11T14:09:54Z</time></trkpt><trkpt lat="45.47324443127612" lon="11.503384089562928"><ele>230.0</ele><time>2026-04-11T14:09:55Z</time></trkpt><trkpt lat="45.47343725770206" lon="11.50331832661619"><ele>230.0</ele><time>2026-04-11T14:09:56Z</time></trkpt><trkpt lat="45.47362408218563" lon="11.503328857496864"><ele>230.0</ele><time>2026-04-11T14:09:57Z</time></trkpt><trkpt lat="45.47380274804594" lon="11.503359526732524"><ele>233.0</ele><time>2026-04-11T14:09:58Z</time></trkpt><trkpt lat="45.473986936606444" lon="11.503429732824793"><ele>236.0</ele><time>2026-04-11T14:09:59Z</time></trkpt><trkpt lat="45.474173587815116" lon="11.503497012386388"><ele>239.0</ele><time>2026-04-11T14:10:00Z</time></trkpt><trkpt lat="45.47434817689882" lon="11.5036134477923"><ele>239.0</ele><time>2026-04-11T14:10:01Z</time></trkpt><trkpt lat="45.4745294740659" lon="11.503746586948"><ele>239.0</ele><time>2026-04-11T14:10:02Z</time></trkpt><trkpt lat="45.474704874725816" lon="11.503907852156068"><ele>239.0</ele><time>2026-04-11T14:10:03Z</time></trkpt><trkpt lat="45.47486066498141" lon="11.504054749006919"><ele>235.75</ele><time>2026-04-11T14:10:04Z</time></trkpt><trkpt lat="45.4749935815292" lon="11.504181764443613"><ele>232.5</ele><time>2026-04-11T14:10:05Z</time></trkpt><trkpt lat="45.47511778968027" lon="11.504283552368644"><ele>229.25</ele><time>2026-04-11T14:10:06Z</time></trkpt><trkpt lat="45.47522511506752" lon="11.50437767108376"><ele>226.0</ele><time>2026-04-11T14:10:07Z</time></trkpt><trkpt lat="45.47531947488517" lon="11.504423955711712"><ele>226.0</ele><time>2026-04-11T14:10:08Z</time></trkpt><trkpt lat="45.47539896784925" lon="11.504440736282916"><ele>226.00000000000003</ele><time>2026-04-11T14:10:09Z</time></trkpt><trkpt lat="45.47546783678733" lon="11.504358683340595"><ele>226.00000000000003</ele><time>2026-04-11T14:10:10Z</time></trkpt><trkpt lat="45.47553216612028" lon="11.504258080124544"><ele>226.0</ele><time>2026-04-11T14:10:11Z</time></trkpt><trkpt lat="45.47561066932523" lon="11.504135471800994"><ele>226.0</ele><time>2026-04-11T14:10:12Z</time></trkpt><trkpt lat="45.47571789726595" lon="11.504031366603138"><ele>226.4</ele><time>2026-04-11T14:10:13Z</time></trkpt><trkpt lat="45.47580316414782" lon="11.503923547507597"><ele>226.8</ele><time>2026-04-11T14:10:14Z</time></trkpt><trkpt lat="45.47587759768879" lon="11.50383832579582"><ele>227.20000000000002</ele><time>2026-04-11T14:10:15Z</time></trkpt><trkpt lat="45.47593985959648" lon="11.50377715884109"><ele>227.60000000000002</ele><time>2026-04-11T14:10:16Z</time></trkpt><trkpt lat="45.47600990014602" lon="11.503737602569563"><ele>228.0</ele><time>2026-04-11T14:10:22Z</time></trkpt><trkpt lat="45.47602252231611" lon="11.503502227813156"><ele>228.0</ele><time>2026-04-11T14:10:24Z</time></trkpt><trkpt lat="45.476011752701346" lon="11.503354111799457"><ele>228.0</ele><time>2026-04-11T14:10:25Z</time></trkpt><trkpt lat="45.475997466412956" lon="11.503202712687262"><ele>228.0</ele><time>2026-04-11T14:10:26Z</time></trkpt><trkpt lat="45.47598329751679" lon="11.503052557350355"><ele>228.0</ele><time>2026-04-11T14:10:27Z</time></trkpt><trkpt lat="45.475971243754294" lon="11.502907165546745"><ele>228.0</ele><time>2026-04-11T14:10:27.999Z</time></trkpt><trkpt lat="45.475959715582036" lon="11.50276741040408"><ele>228.8</ele><time>2026-04-11T14:10:28.999Z</time></trkpt><trkpt lat="45.47594884548025" lon="11.502630607579816"><ele>229.60000000000002</ele><time>2026-04-11T14:10:29.999Z</time></trkpt><trkpt lat="45.47593801278339" lon="11.502485314044272"><ele>230.39999999999998</ele><time>2026-04-11T14:10:30.999Z</time></trkpt><trkpt lat="45.47593164819051" lon="11.502340427806578"><ele>231.2</ele><time>2026-04-11T14:10:31.999Z</time></trkpt><trkpt lat="45.475931931918325" lon="11.502195446773431"><ele>232.0</ele><time>2026-04-11T14:10:32.999Z</time></trkpt><trkpt lat="45.47593588777158" lon="11.502029439852857"><ele>232.25</ele><time>2026-04-11T14:10:33.999Z</time></trkpt><trkpt lat="45.475941007449485" lon="11.501850469062845"><ele>232.5</ele><time>2026-04-11T14:10:34.999Z</time></trkpt><trkpt lat="45.47594811059326" lon="11.501665747190694"><ele>232.75</ele><time>2026-04-11T14:10:35.999Z</time></trkpt><trkpt lat="45.47595473672404" lon="11.501477032744312"><ele>233.0</ele><time>2026-04-11T14:10:36.999Z</time></trkpt><trkpt lat="45.47595735659597" lon="11.501293071198369"><ele>233.25</ele><time>2026-04-11T14:10:37.999Z</time></trkpt><trkpt lat="45.47595665671876" lon="11.50111779100777"><ele>233.5</ele><time>2026-04-11T14:10:38.999Z</time></trkpt><trkpt lat="45.475953286909565" lon="11.500947804720472"><ele>233.75</ele><time>2026-04-11T14:10:39.999Z</time></trkpt><trkpt lat="45.47594892309497" lon="11.500782296685959"><ele>234.0</ele><time>2026-04-11T14:10:40.999Z</time></trkpt><trkpt lat="45.4759438871367" lon="11.500617828317083"><ele>234.0</ele><time>2026-04-11T14:10:41.999Z</time></trkpt><trkpt lat="45.47593794031004" lon="11.50047422879503"><ele>234.0</ele><time>2026-04-11T14:10:42.999Z</time></trkpt><trkpt lat="45.47593134944129" lon="11.500356400406725"><ele>234.0</ele><time>2026-04-11T14:10:43.999Z</time></trkpt><trkpt lat="45.475922333873136" lon="11.500238752667059"><ele>234.0</ele><time>2026-04-11T14:10:44.999Z</time></trkpt><trkpt lat="45.475912548269676" lon="11.500125720360915"><ele>234.0</ele><time>2026-04-11T14:10:45.999Z</time></trkpt><trkpt lat="45.475900433178" lon="11.499997220637317"><ele>234.0</ele><time>2026-04-11T14:10:46.999Z</time></trkpt><trkpt lat="45.475862087630475" lon="11.499867290546137"><ele>235.0</ele><time>2026-04-11T14:10:47.999Z</time></trkpt><trkpt lat="45.47584545426067" lon="11.499712289537385"><ele>235.99999999999997</ele><time>2026-04-11T14:10:48.999Z</time></trkpt><trkpt lat="45.47583121656886" lon="11.499564805035735"><ele>236.99999999999997</ele><time>2026-04-11T14:10:49.999Z</time></trkpt><trkpt lat="45.47580486867787" lon="11.499418605860825"><ele>238.0</ele><time>2026-04-11T14:10:50.999Z</time></trkpt><trkpt lat="45.47580898641829" lon="11.49930335482674"><ele>239.0</ele><time>2026-04-11T14:10:51.999Z</time></trkpt><trkpt lat="45.47578837264754" lon="11.49919905641896"><ele>239.16666666666669</ele><time>2026-04-11T14:10:52.999Z</time></trkpt><trkpt lat="45.47576980904037" lon="11.49910470714331"><ele>239.33333333333334</ele><time>2026-04-11T14:10:53.999Z</time></trkpt><trkpt lat="45.475746406903944" lon="11.498987493466558"><ele>239.5</ele><time>2026-04-11T14:10:54.999Z</time></trkpt><trkpt lat="45.475719802397634" lon="11.49886998718484"><ele>239.66666666666669</ele><time>2026-04-11T14:10:55.999Z</time></trkpt><trkpt lat="45.475693606990845" lon="11.498748954010768"><ele>239.83333333333334</ele><time>2026-04-11T14:10:56.999Z</time></trkpt><trkpt lat="45.4756659185078" lon="11.49862102214804"><ele>240.0</ele><time>2026-04-11T14:10:57.999Z</time></trkpt><trkpt lat="45.47563977759082" lon="11.498498694290607"><ele>240.6</ele><time>2026-04-11T14:10:58.999Z</time></trkpt><trkpt lat="45.4756105745978" lon="11.49835214476201"><ele>241.2</ele><time>2026-04-11T14:10:59.999Z</time></trkpt><trkpt lat="45.47558026411754" lon="11.498200037432017"><ele>241.8</ele><time>2026-04-11T14:11:00.999Z</time></trkpt><trkpt lat="45.47555069600547" lon="11.498052437175335"><ele>242.4</ele><time>2026-04-11T14:11:01.999Z</time></trkpt><trkpt lat="45.47552496425979" lon="11.497915468580397"><ele>243.0</ele><time>2026-04-11T14:11:02.999Z</time></trkpt><trkpt lat="45.47549945659592" lon="11.497793755337728"><ele>243.16666666666666</ele><time>2026-04-11T14:11:03.999Z</time></trkpt><trkpt lat="45.47546451390641" lon="11.497701618867737"><ele>243.33333333333331</ele><time>2026-04-11T14:11:04.999Z</time></trkpt><trkpt lat="45.475451331427806" lon="11.49760535525002"><ele>243.5</ele><time>2026-04-11T14:11:05.999Z</time></trkpt><trkpt lat="45.475431769711605" lon="11.497504364821578"><ele>243.66666666666666</ele><time>2026-04-11T14:11:06.999Z</time></trkpt><trkpt lat="45.47541927450337" lon="11.49741597795538"><ele>243.83333333333331</ele><time>2026-04-11T14:11:07.999Z</time></trkpt><trkpt lat="45.475419375528475" lon="11.497244669684973"><ele>244.0</ele><time>2026-04-11T14:11:09.999Z</time></trkpt><trkpt lat="45.47540544262081" lon="11.497133354747602"><ele>245.0</ele><time>2026-04-11T14:11:10.999Z</time></trkpt><trkpt lat="45.475393046162615" lon="11.497018506339025"><ele>245.99999999999997</ele><time>2026-04-11T14:11:11.999Z</time></trkpt><trkpt lat="45.47538315958176" lon="11.496894003519225"><ele>246.99999999999997</ele><time>2026-04-11T14:11:12.999Z</time></trkpt><trkpt lat="45.4753729088273" lon="11.496764914789196"><ele>248.0</ele><time>2026-04-11T14:11:13.999Z</time></trkpt><trkpt lat="45.47536126689321" lon="11.496618307085793"><ele>249.0</ele><time>2026-04-11T14:11:14.999Z</time></trkpt><trkpt lat="45.47534702320416" lon="11.49641172033283"><ele>248.33333333333331</ele><time>2026-04-11T14:11:15.999Z</time></trkpt><trkpt lat="45.475330021135164" lon="11.49613214981974"><ele>247.66666666666666</ele><time>2026-04-11T14:11:16.999Z</time></trkpt><trkpt lat="45.47531606610455" lon="11.495829558491542"><ele>247.0</ele><time>2026-04-11T14:11:17.999Z</time></trkpt><trkpt lat="45.47530608055299" lon="11.495558895515583"><ele>248.75</ele><time>2026-04-11T14:11:18.999Z</time></trkpt><trkpt lat="45.475299231389826" lon="11.49531603267392"><ele>250.5</ele><time>2026-04-11T14:11:19.999Z</time></trkpt><trkpt lat="45.47527823846938" lon="11.495113376663657"><ele>252.25</ele><time>2026-04-11T14:11:20.999Z</time></trkpt><trkpt lat="45.47529999466731" lon="11.494935197019435"><ele>254.0</ele><time>2026-04-11T14:11:21.999Z</time></trkpt><trkpt lat="45.47531895893043" lon="11.494785845485294"><ele>254.0</ele><time>2026-04-11T14:11:22.999Z</time></trkpt><trkpt lat="45.47537143582043" lon="11.494654545416388"><ele>254.0</ele><time>2026-04-11T14:11:23.998Z</time></trkpt><trkpt lat="45.475466196695564" lon="11.494524314086298"><ele>254.0</ele><time>2026-04-11T14:11:24.998Z</time></trkpt><trkpt lat="45.475588541620176" lon="11.494379646981718"><ele>254.0</ele><time>2026-04-11T14:11:25.998Z</time></trkpt><trkpt lat="45.47573178278157" lon="11.494233462939341"><ele>253.0</ele><time>2026-04-11T14:11:26.998Z</time></trkpt><trkpt lat="45.4758672574155" lon="11.494086998575701"><ele>252.0</ele><time>2026-04-11T14:11:27.998Z</time></trkpt><trkpt lat="45.47599702104305" lon="11.493946510598823"><ele>251.0</ele><time>2026-04-11T14:11:28.998Z</time></trkpt><trkpt lat="45.47614017756141" lon="11.493810483554173"><ele>250.33333333333334</ele><time>2026-04-11T14:11:29.998Z</time></trkpt><trkpt lat="45.47628837918253" lon="11.493681968568831"><ele>249.66666666666669</ele><time>2026-04-11T14:11:30.998Z</time></trkpt><trkpt lat="45.47644416850208" lon="11.493564320615054"><ele>249.0</ele><time>2026-04-11T14:11:31.998Z</time></trkpt><trkpt lat="45.47659871189111" lon="11.493461450373452"><ele>249.0</ele><time>2026-04-11T14:11:32.998Z</time></trkpt><trkpt lat="45.47674755827617" lon="11.493375379292022"><ele>249.0</ele><time>2026-04-11T14:11:33.998Z</time></trkpt><trkpt lat="45.47690740399681" lon="11.493309089559373"><ele>249.0</ele><time>2026-04-11T14:11:34.998Z</time></trkpt><trkpt lat="45.47703639400861" lon="11.49325366261085"><ele>246.0</ele><time>2026-04-11T14:11:35.998Z</time></trkpt><trkpt lat="45.47718564164692" lon="11.493211127997307"><ele>243.0</ele><time>2026-04-11T14:11:36.998Z</time></trkpt><trkpt lat="45.47733954529591" lon="11.493128326223397"><ele>240.0</ele><time>2026-04-11T14:11:37.998Z</time></trkpt><trkpt lat="45.477493029514" lon="11.493007601577423"><ele>239.25</ele><time>2026-04-11T14:11:38.998Z</time></trkpt><trkpt lat="45.477628544291164" lon="11.492885190979031"><ele>238.5</ele><time>2026-04-11T14:11:39.998Z</time></trkpt><trkpt lat="45.47775375488382" lon="11.492781884049409"><ele>237.75</ele><time>2026-04-11T14:11:40.998Z</time></trkpt><trkpt lat="45.477862351040336" lon="11.492681133633827"><ele>237.0</ele><time>2026-04-11T14:11:41.998Z</time></trkpt><trkpt lat="45.47797168792039" lon="11.492581056177741"><ele>237.0</ele><time>2026-04-11T14:11:42.998Z</time></trkpt><trkpt lat="45.47802267688858" lon="11.492362221074313"><ele>237.0</ele><time>2026-04-11T14:11:43.998Z</time></trkpt><trkpt lat="45.478089834963995" lon="11.492166514424175"><ele>237.0</ele><time>2026-04-11T14:11:44.998Z</time></trkpt><trkpt lat="45.478154302089614" lon="11.491957547293554"><ele>239.0</ele><time>2026-04-11T14:11:45.998Z</time></trkpt><trkpt lat="45.47822108055208" lon="11.491738727519675"><ele>241.0</ele><time>2026-04-11T14:11:46.998Z</time></trkpt><trkpt lat="45.4782832540291" lon="11.491538551773292"><ele>243.0</ele><time>2026-04-11T14:11:48Z</time></trkpt><trkpt lat="45.4783386809699" lon="11.491327103276141"><ele>245.33333333333331</ele><time>2026-04-11T14:11:49Z</time></trkpt><trkpt lat="45.47837439639746" lon="11.491106106449624"><ele>247.66666666666666</ele><time>2026-04-11T14:11:50Z</time></trkpt><trkpt lat="45.47837320086815" lon="11.490865412401378"><ele>250.0</ele><time>2026-04-11T14:11:51Z</time></trkpt><trkpt lat="45.47839192321004" lon="11.490617926366554"><ele>249.66666666666666</ele><time>2026-04-11T14:11:52Z</time></trkpt><trkpt lat="45.47839633777275" lon="11.490367199423122"><ele>249.33333333333331</ele><time>2026-04-11T14:11:53Z</time></trkpt><trkpt lat="45.47839896305787" lon="11.49015089716011"><ele>249.0</ele><time>2026-04-11T14:11:54Z</time></trkpt><trkpt lat="45.478389360936895" lon="11.489941986130853"><ele>249.0</ele><time>2026-04-11T14:11:55Z</time></trkpt><trkpt lat="45.47833677895475" lon="11.48973787475664"><ele>249.0</ele><time>2026-04-11T14:11:56Z</time></trkpt><trkpt lat="45.478280431995245" lon="11.489506645411778"><ele>249.0</ele><time>2026-04-11T14:11:57Z</time></trkpt><trkpt lat="45.4782145879545" lon="11.489263519068958"><ele>248.33333333333331</ele><time>2026-04-11T14:11:58Z</time></trkpt><trkpt lat="45.478161787742636" lon="11.48900952207478"><ele>247.66666666666666</ele><time>2026-04-11T14:11:59Z</time></trkpt><trkpt lat="45.47811750772529" lon="11.488754346343345"><ele>247.0</ele><time>2026-04-11T14:12:00Z</time></trkpt><trkpt lat="45.47807837499177" lon="11.488520831395727"><ele>247.0</ele><time>2026-04-11T14:12:01Z</time></trkpt><trkpt lat="45.47804176414815" lon="11.488295375830008"><ele>247.0</ele><time>2026-04-11T14:12:02Z</time></trkpt><trkpt lat="45.47801085362394" lon="11.488081137589607"><ele>247.0</ele><time>2026-04-11T14:12:03Z</time></trkpt><trkpt lat="45.47799259738354" lon="11.487893079685314"><ele>247.0</ele><time>2026-04-11T14:12:04Z</time></trkpt><trkpt lat="45.47799112044272" lon="11.487723357272168"><ele>248.66666666666666</ele><time>2026-04-11T14:12:05Z</time></trkpt><trkpt lat="45.47800704913133" lon="11.48753401106001"><ele>250.33333333333331</ele><time>2026-04-11T14:12:06Z</time></trkpt><trkpt lat="45.47803153895337" lon="11.487309097276412"><ele>252.0</ele><time>2026-04-11T14:12:07Z</time></trkpt><trkpt lat="45.47805559823842" lon="11.487064164364522"><ele>252.0</ele><time>2026-04-11T14:12:08Z</time></trkpt><trkpt lat="45.4780816166882" lon="11.486806291245038"><ele>252.0</ele><time>2026-04-11T14:12:09Z</time></trkpt><trkpt lat="45.47811586967271" lon="11.486557729752503"><ele>252.0</ele><time>2026-04-11T14:12:10Z</time></trkpt><trkpt lat="45.47816134667477" lon="11.486308518299671"><ele>250.66666666666669</ele><time>2026-04-11T14:12:11Z</time></trkpt><trkpt lat="45.47822180256629" lon="11.486058445353603"><ele>249.33333333333334</ele><time>2026-04-11T14:12:12Z</time></trkpt><trkpt lat="45.47828617876693" lon="11.485796795715483"><ele>248.0</ele><time>2026-04-11T14:12:13Z</time></trkpt><trkpt lat="45.47835085973449" lon="11.485529094245761"><ele>246.0</ele><time>2026-04-11T14:12:14Z</time></trkpt><trkpt lat="45.47841587638472" lon="11.485259458284734"><ele>244.0</ele><time>2026-04-11T14:12:15Z</time></trkpt><trkpt lat="45.47848216601431" lon="11.484983283520078"><ele>242.0</ele><time>2026-04-11T14:12:16Z</time></trkpt><trkpt lat="45.47854300454132" lon="11.484727145015652"><ele>240.33333333333334</ele><time>2026-04-11T14:12:17Z</time></trkpt><trkpt lat="45.47859577688821" lon="11.48447435171409"><ele>238.66666666666669</ele><time>2026-04-11T14:12:18Z</time></trkpt><trkpt lat="45.47862692148824" lon="11.484216518131996"><ele>237.0</ele><time>2026-04-11T14:12:19Z</time></trkpt><trkpt lat="45.47865185077645" lon="11.483967709127256"><ele>236.33333333333331</ele><time>2026-04-11T14:12:20Z</time></trkpt><trkpt lat="45.478667076861086" lon="11.48372265047061"><ele>235.66666666666666</ele><time>2026-04-11T14:12:21Z</time></trkpt><trkpt lat="45.47868351552672" lon="11.48348802034786"><ele>235.0</ele><time>2026-04-11T14:12:22Z</time></trkpt><trkpt lat="45.47870086322841" lon="11.483258226604256"><ele>235.0</ele><time>2026-04-11T14:12:23Z</time></trkpt><trkpt lat="45.478693116922905" lon="11.483026515582093"><ele>235.0</ele><time>2026-04-11T14:12:24Z</time></trkpt><trkpt lat="45.47864170439386" lon="11.482799051318747"><ele>235.0</ele><time>2026-04-11T14:12:25Z</time></trkpt><trkpt lat="45.478592988436226" lon="11.482560464402157"><ele>236.5</ele><time>2026-04-11T14:12:26Z</time></trkpt><trkpt lat="45.47854821554308" lon="11.482349358425212"><ele>238.0</ele><time>2026-04-11T14:12:27Z</time></trkpt><trkpt lat="45.478507947823566" lon="11.482158288359471"><ele>239.5</ele><time>2026-04-11T14:12:28Z</time></trkpt><trkpt lat="45.47845079094866" lon="11.482004903961876"><ele>241.0</ele><time>2026-04-11T14:12:29Z</time></trkpt><trkpt lat="45.478389170097536" lon="11.48189829629725"><ele>241.0</ele><time>2026-04-11T14:12:30Z</time></trkpt><trkpt lat="45.47828447450532" lon="11.481852788310471"><ele>241.0</ele><time>2026-04-11T14:12:31Z</time></trkpt><trkpt lat="45.478164082608075" lon="11.481880007918098"><ele>241.0</ele><time>2026-04-11T14:12:32Z</time></trkpt><trkpt lat="45.47806917049293" lon="11.481985798959538"><ele>241.0</ele><time>2026-04-11T14:12:33Z</time></trkpt><trkpt lat="45.478010470895555" lon="11.482169440755166"><ele>241.0</ele><time>2026-04-11T14:12:34Z</time></trkpt><trkpt lat="45.47795390352453" lon="11.482401686041289"><ele>241.0</ele><time>2026-04-11T14:12:35Z</time></trkpt><trkpt lat="45.47787184799722" lon="11.482628413869051"><ele>241.0</ele><time>2026-04-11T14:12:36Z</time></trkpt><trkpt lat="45.47781212033018" lon="11.482857929072022"><ele>242.25</ele><time>2026-04-11T14:12:36.999Z</time></trkpt><trkpt lat="45.47774696493455" lon="11.483059830571152"><ele>243.5</ele><time>2026-04-11T14:12:37.999Z</time></trkpt><trkpt lat="45.47767914262097" lon="11.483235243666073"><ele>244.75</ele><time>2026-04-11T14:12:38.999Z</time></trkpt><trkpt lat="45.47760214914435" lon="11.483384178107217"><ele>246.0</ele><time>2026-04-11T14:12:39.999Z</time></trkpt><trkpt lat="45.47754693498116" lon="11.483514020619394"><ele>246.0</ele><time>2026-04-11T14:12:40.999Z</time></trkpt><trkpt lat="45.47751451225239" lon="11.483630805269504"><ele>246.00000000000003</ele><time>2026-04-11T14:12:41.999Z</time></trkpt><trkpt lat="45.47745672377991" lon="11.483718972238355"><ele>246.00000000000003</ele><time>2026-04-11T14:12:42.999Z</time></trkpt><trkpt lat="45.47739829026385" lon="11.483842274722031"><ele>246.0</ele><time>2026-04-11T14:12:43.999Z</time></trkpt><trkpt lat="45.477318022096085" lon="11.483978136124215"><ele>246.0</ele><time>2026-04-11T14:12:44.999Z</time></trkpt><trkpt lat="45.47720244199774" lon="11.484093850605884"><ele>242.25</ele><time>2026-04-11T14:12:45.999Z</time></trkpt><trkpt lat="45.47707324012452" lon="11.484164074484827"><ele>238.5</ele><time>2026-04-11T14:12:46.999Z</time></trkpt><trkpt lat="45.476956322593296" lon="11.484217193725438"><ele>234.75</ele><time>2026-04-11T14:12:47.999Z</time></trkpt><trkpt lat="45.476850622202086" lon="11.484244330827497"><ele>231.0</ele><time>2026-04-11T14:12:48.999Z</time></trkpt><trkpt lat="45.47674230599948" lon="11.484237044740869"><ele>231.0</ele><time>2026-04-11T14:12:49.999Z</time></trkpt><trkpt lat="45.47662394796772" lon="11.484184964782328"><ele>231.00000000000003</ele><time>2026-04-11T14:12:50.999Z</time></trkpt><trkpt lat="45.47650867737186" lon="11.484127337094819"><ele>231.00000000000003</ele><time>2026-04-11T14:12:51.999Z</time></trkpt><trkpt lat="45.47641624595703" lon="11.484063127383601"><ele>231.0</ele><time>2026-04-11T14:12:52.999Z</time></trkpt><trkpt lat="45.476339390655205" lon="11.483992540929949"><ele>231.0</ele><time>2026-04-11T14:12:53.999Z</time></trkpt><trkpt lat="45.476347244893525" lon="11.483836927062864"><ele>231.60000000000002</ele><time>2026-04-11T14:12:54.999Z</time></trkpt><trkpt lat="45.47637122450458" lon="11.483710906014613"><ele>232.20000000000002</ele><time>2026-04-11T14:12:55.999Z</time></trkpt><trkpt lat="45.476428269965545" lon="11.483601179217702"><ele>232.79999999999998</ele><time>2026-04-11T14:12:56.999Z</time></trkpt><trkpt lat="45.47646971173154" lon="11.483447546920367"><ele>233.39999999999998</ele><time>2026-04-11T14:12:57.999Z</time></trkpt><trkpt lat="45.476520898158874" lon="11.483279910941224"><ele>234.0</ele><time>2026-04-11T14:12:58.999Z</time></trkpt><trkpt lat="45.47657375970458" lon="11.48311304078703"><ele>234.0</ele><time>2026-04-11T14:12:59.999Z</time></trkpt><trkpt lat="45.476629900231636" lon="11.482941226476004"><ele>234.0</ele><time>2026-04-11T14:13:00.999Z</time></trkpt><trkpt lat="45.47668768100184" lon="11.482774558066167"><ele>234.0</ele><time>2026-04-11T14:13:01.999Z</time></trkpt><trkpt lat="45.47671357192572" lon="11.482581930146376"><ele>234.0</ele><time>2026-04-11T14:13:02.999Z</time></trkpt><trkpt lat="45.476732834643" lon="11.482368042366993"><ele>231.0</ele><time>2026-04-11T14:13:03.999Z</time></trkpt><trkpt lat="45.47673727438633" lon="11.482125905871303"><ele>228.0</ele><time>2026-04-11T14:13:04.999Z</time></trkpt><trkpt lat="45.47673624559385" lon="11.481881687666954"><ele>225.0</ele><time>2026-04-11T14:13:05.999Z</time></trkpt><trkpt lat="45.47676825418549" lon="11.481636495606265"><ele>223.66666666666669</ele><time>2026-04-11T14:13:06.999Z</time></trkpt><trkpt lat="45.47679211465837" lon="11.481390044252217"><ele>222.33333333333334</ele><time>2026-04-11T14:13:07.999Z</time></trkpt><trkpt lat="45.47684101992273" lon="11.48115688733543"><ele>221.0</ele><time>2026-04-11T14:13:08.999Z</time></trkpt><trkpt lat="45.476884452382386" lon="11.480918717323458"><ele>217.33333333333334</ele><time>2026-04-11T14:13:09.999Z</time></trkpt><trkpt lat="45.47692403561443" lon="11.480673141836252"><ele>213.66666666666669</ele><time>2026-04-11T14:13:10.999Z</time></trkpt><trkpt lat="45.476964631114775" lon="11.480420258603022"><ele>210.0</ele><time>2026-04-11T14:13:11.999Z</time></trkpt><trkpt lat="45.47700953052939" lon="11.480146590787756"><ele>206.33333333333331</ele><time>2026-04-11T14:13:12.999Z</time></trkpt><trkpt lat="45.47705989651642" lon="11.479859915071094"><ele>202.66666666666666</ele><time>2026-04-11T14:13:13.999Z</time></trkpt><trkpt lat="45.477107781576635" lon="11.479571879890315"><ele>199.0</ele><time>2026-04-11T14:13:14.999Z</time></trkpt><trkpt lat="45.47713603528735" lon="11.479286991380896"><ele>214.66666666666666</ele><time>2026-04-11T14:13:15.999Z</time></trkpt><trkpt lat="45.477144668087064" lon="11.478983033850637"><ele>230.33333333333331</ele><time>2026-04-11T14:13:16.999Z</time></trkpt><trkpt lat="45.477128478320644" lon="11.47865525919766"><ele>246.0</ele><time>2026-04-11T14:13:17.999Z</time></trkpt><trkpt lat="45.47710831387997" lon="11.478335171547347"><ele>228.33333333333331</ele><time>2026-04-11T14:13:18.999Z</time></trkpt><trkpt lat="45.47708881360216" lon="11.478027041738597"><ele>210.66666666666666</ele><time>2026-04-11T14:13:19.999Z</time></trkpt><trkpt lat="45.47706816444102" lon="11.477732514666505"><ele>193.0</ele><time>2026-04-11T14:13:20.999Z</time></trkpt><trkpt lat="45.47707217550428" lon="11.477451898557572"><ele>192.33333333333331</ele><time>2026-04-11T14:13:21.999Z</time></trkpt><trkpt lat="45.47709835541026" lon="11.477137644619402"><ele>191.66666666666666</ele><time>2026-04-11T14:13:22.999Z</time></trkpt><trkpt lat="45.477132898458436" lon="11.476829800694892"><ele>191.0</ele><time>2026-04-11T14:13:23.999Z</time></trkpt><trkpt lat="45.477152685576364" lon="11.476541045139642"><ele>190.33333333333331</ele><time>2026-04-11T14:13:24.999Z</time></trkpt><trkpt lat="45.477148815735994" lon="11.476227887422974"><ele>189.66666666666666</ele><time>2026-04-11T14:13:25.999Z</time></trkpt><trkpt lat="45.4771236729464" lon="11.475907319335048"><ele>189.0</ele><time>2026-04-11T14:13:26.999Z</time></trkpt><trkpt lat="45.4770880242919" lon="11.47556646817537"><ele>190.5</ele><time>2026-04-11T14:13:27.999Z</time></trkpt><trkpt lat="45.47709338174854" lon="11.475230467804506"><ele>192.0</ele><time>2026-04-11T14:13:28.998Z</time></trkpt><trkpt lat="45.477091937366595" lon="11.474913311332973"><ele>192.0</ele><time>2026-04-11T14:13:29.998Z</time></trkpt><trkpt lat="45.47709480793689" lon="11.474624935716912"><ele>192.0</ele><time>2026-04-11T14:13:30.998Z</time></trkpt><trkpt lat="45.477108694941386" lon="11.47435127013933"><ele>192.0</ele><time>2026-04-11T14:13:31.998Z</time></trkpt><trkpt lat="45.47714594494411" lon="11.47408079609854"><ele>200.33333333333331</ele><time>2026-04-11T14:13:32.998Z</time></trkpt><trkpt lat="45.47719309229568" lon="11.473801560773467"><ele>208.66666666666666</ele><time>2026-04-11T14:13:33.998Z</time></trkpt><trkpt lat="45.47723269208577" lon="11.473528589230721"><ele>217.0</ele><time>2026-04-11T14:13:34.998Z</time></trkpt><trkpt lat="45.477235012362144" lon="11.473285881464673"><ele>217.0</ele><time>2026-04-11T14:13:35.998Z</time></trkpt><trkpt lat="45.477217347933475" lon="11.47303771715211"><ele>217.0</ele><time>2026-04-11T14:13:36.998Z</time></trkpt><trkpt lat="45.477173934239" lon="11.472821896792201"><ele>217.0</ele><time>2026-04-11T14:13:37.998Z</time></trkpt><trkpt lat="45.477114405699915" lon="11.472630269311143"><ele>209.0</ele><time>2026-04-11T14:13:38.998Z</time></trkpt><trkpt lat="45.47702282713054" lon="11.472465658431405"><ele>201.0</ele><time>2026-04-11T14:13:39.998Z</time></trkpt><trkpt lat="45.47691170276139" lon="11.472334430031871"><ele>193.0</ele><time>2026-04-11T14:13:40.998Z</time></trkpt><trkpt lat="45.47681852432382" lon="11.472201189146498"><ele>185.0</ele><time>2026-04-11T14:13:41.998Z</time></trkpt><trkpt lat="45.476760146387036" lon="11.472055822607699"><ele>184.66666666666666</ele><time>2026-04-11T14:13:42.998Z</time></trkpt><trkpt lat="45.47677194169782" lon="11.47187368854025"><ele>184.33333333333334</ele><time>2026-04-11T14:13:43.998Z</time></trkpt><trkpt lat="45.476756543034405" lon="11.471640275931662"><ele>184.0</ele><time>2026-04-11T14:13:44.998Z</time></trkpt><trkpt lat="45.47673869454565" lon="11.47137268379825"><ele>184.66666666666669</ele><time>2026-04-11T14:13:45.998Z</time></trkpt><trkpt lat="45.4767208064746" lon="11.471092305689812"><ele>185.33333333333334</ele><time>2026-04-11T14:13:46.998Z</time></trkpt><trkpt lat="45.47669970689622" lon="11.470816184459883"><ele>186.0</ele><time>2026-04-11T14:13:47.998Z</time></trkpt><trkpt lat="45.476667328213104" lon="11.470553229899522"><ele>185.33333333333334</ele><time>2026-04-11T14:13:48.998Z</time></trkpt><trkpt lat="45.476608666174535" lon="11.470315847004791"><ele>184.66666666666669</ele><time>2026-04-11T14:13:49.998Z</time></trkpt><trkpt lat="45.476571697335466" lon="11.470069293433085"><ele>184.0</ele><time>2026-04-11T14:13:50.998Z</time></trkpt><trkpt lat="45.476535157062706" lon="11.469830250772947"><ele>184.0</ele><time>2026-04-11T14:13:51.998Z</time></trkpt><trkpt lat="45.47652285512209" lon="11.469610603338136"><ele>184.0</ele><time>2026-04-11T14:13:52.998Z</time></trkpt><trkpt lat="45.47648709585989" lon="11.46942386414101"><ele>184.0</ele><time>2026-04-11T14:13:54Z</time></trkpt><trkpt lat="45.476456743017096" lon="11.469247065255525"><ele>184.0</ele><time>2026-04-11T14:13:55Z</time></trkpt><trkpt lat="45.47633583080109" lon="11.469119977896918"><ele>183.25</ele><time>2026-04-11T14:13:56Z</time></trkpt><trkpt lat="45.47620352522847" lon="11.469020717690986"><ele>182.5</ele><time>2026-04-11T14:13:57Z</time></trkpt><trkpt lat="45.47610438405935" lon="11.468898476612912"><ele>181.75</ele><time>2026-04-11T14:13:58Z</time></trkpt><trkpt lat="45.47602144169285" lon="11.46877455640044"><ele>181.0</ele><time>2026-04-11T14:13:59Z</time></trkpt><trkpt lat="45.47594529265122" lon="11.468653162440274"><ele>181.0</ele><time>2026-04-11T14:14:00Z</time></trkpt><trkpt lat="45.47585635153257" lon="11.468531247321211"><ele>181.0</ele><time>2026-04-11T14:14:01Z</time></trkpt><trkpt lat="45.475772064965305" lon="11.468386619692565"><ele>181.0</ele><time>2026-04-11T14:14:02Z</time></trkpt><trkpt lat="45.47569067067258" lon="11.468218066153682"><ele>181.0</ele><time>2026-04-11T14:14:03Z</time></trkpt><trkpt lat="45.47560623003457" lon="11.468042943784491"><ele>185.0</ele><time>2026-04-11T14:14:04Z</time></trkpt><trkpt lat="45.475533914095266" lon="11.46786144336778"><ele>189.0</ele><time>2026-04-11T14:14:05Z</time></trkpt><trkpt lat="45.47546930221359" lon="11.467692865757162"><ele>193.0</ele><time>2026-04-11T14:14:06Z</time></trkpt><trkpt lat="45.475400485879405" lon="11.467547071639856"><ele>197.0</ele><time>2026-04-11T14:14:07Z</time></trkpt><trkpt lat="45.475333606329436" lon="11.46741799794073"><ele>190.5</ele><time>2026-04-11T14:14:08Z</time></trkpt><trkpt lat="45.475269611377236" lon="11.467293587909966"><ele>184.0</ele><time>2026-04-11T14:14:09Z</time></trkpt><trkpt lat="45.47521018116293" lon="11.467149126817265"><ele>177.5</ele><time>2026-04-11T14:14:10Z</time></trkpt><trkpt lat="45.47514735548524" lon="11.467003193746715"><ele>171.0</ele><time>2026-04-11T14:14:11Z</time></trkpt><trkpt lat="45.47509236936475" lon="11.466877521159741"><ele>171.0</ele><time>2026-04-11T14:14:12Z</time></trkpt><trkpt lat="45.475037351745506" lon="11.466759068349567"><ele>171.0</ele><time>2026-04-11T14:14:13Z</time></trkpt><trkpt lat="45.47500365327672" lon="11.466607775858924"><ele>171.0</ele><time>2026-04-11T14:14:14Z</time></trkpt><trkpt lat="45.474978193326194" lon="11.466449987954299"><ele>171.0</ele><time>2026-04-11T14:14:15Z</time></trkpt><trkpt lat="45.4749568453195" lon="11.466303010209558"><ele>171.0</ele><time>2026-04-11T14:14:16Z</time></trkpt><trkpt lat="45.474926189393486" lon="11.466170798091014"><ele>172.75</ele><time>2026-04-11T14:14:17Z</time></trkpt><trkpt lat="45.47490157714734" lon="11.466031466452458"><ele>174.5</ele><time>2026-04-11T14:14:18Z</time></trkpt><trkpt lat="45.47479363783091" lon="11.465935814114632"><ele>176.25</ele><time>2026-04-11T14:14:19Z</time></trkpt><trkpt lat="45.47469347994353" lon="11.46584446948605"><ele>178.0</ele><time>2026-04-11T14:14:20Z</time></trkpt><trkpt lat="45.474595020318375" lon="11.465767554882463"><ele>172.75</ele><time>2026-04-11T14:14:21Z</time></trkpt><trkpt lat="45.474514274951254" lon="11.465653188173254"><ele>167.5</ele><time>2026-04-11T14:14:22Z</time></trkpt><trkpt lat="45.474445064145" lon="11.465509450050112"><ele>162.25</ele><time>2026-04-11T14:14:23Z</time></trkpt><trkpt lat="45.47436568760466" lon="11.465340939666296"><ele>157.0</ele><time>2026-04-11T14:14:24Z</time></trkpt><trkpt lat="45.474271816570926" lon="11.465184978098142"><ele>157.0</ele><time>2026-04-11T14:14:25Z</time></trkpt><trkpt lat="45.47419350626082" lon="11.465038801119606"><ele>157.0</ele><time>2026-04-11T14:14:26Z</time></trkpt><trkpt lat="45.47409851347217" lon="11.46490415016716"><ele>157.0</ele><time>2026-04-11T14:14:27Z</time></trkpt><trkpt lat="45.47400176415638" lon="11.464763579521556"><ele>157.0</ele><time>2026-04-11T14:14:28Z</time></trkpt><trkpt lat="45.47390582004545" lon="11.46462144951054"><ele>154.75</ele><time>2026-04-11T14:14:29Z</time></trkpt><trkpt lat="45.47381601795545" lon="11.464485027686736"><ele>152.5</ele><time>2026-04-11T14:14:30Z</time></trkpt><trkpt lat="45.47370786724232" lon="11.464385521604287"><ele>150.25</ele><time>2026-04-11T14:14:31Z</time></trkpt><trkpt lat="45.473594634190846" lon="11.464310269426162"><ele>148.0</ele><time>2026-04-11T14:14:32Z</time></trkpt><trkpt lat="45.47348931295789" lon="11.464242002684037"><ele>148.0</ele><time>2026-04-11T14:14:33Z</time></trkpt><trkpt lat="45.47338666769989" lon="11.464172300343902"><ele>148.0</ele><time>2026-04-11T14:14:34Z</time></trkpt><trkpt lat="45.473287972046855" lon="11.464107596666622"><ele>148.0</ele><time>2026-04-11T14:14:35Z</time></trkpt><trkpt lat="45.47318873176218" lon="11.464059715826915"><ele>148.0</ele><time>2026-04-11T14:14:36Z</time></trkpt><trkpt lat="45.47309193885416" lon="11.464055152962533"><ele>148.0</ele><time>2026-04-11T14:14:37Z</time></trkpt><trkpt lat="45.47299871139787" lon="11.46407279431967"><ele>145.20000000000002</ele><time>2026-04-11T14:14:38Z</time></trkpt><trkpt lat="45.472899430214376" lon="11.46408780785879"><ele>142.4</ele><time>2026-04-11T14:14:39Z</time></trkpt><trkpt lat="45.47280359195993" lon="11.46408998704415"><ele>139.60000000000002</ele><time>2026-04-11T14:14:40Z</time></trkpt><trkpt lat="45.47271450680731" lon="11.464091399977718"><ele>136.8</ele><time>2026-04-11T14:14:40.999Z</time></trkpt><trkpt lat="45.4726323326783" lon="11.464083548074083"><ele>134.0</ele><time>2026-04-11T14:14:41.999Z</time></trkpt><trkpt lat="45.47255872646949" lon="11.46402796953476"><ele>134.0</ele><time>2026-04-11T14:14:42.999Z</time></trkpt><trkpt lat="45.47248628955778" lon="11.463968096218304"><ele>134.0</ele><time>2026-04-11T14:14:43.999Z</time></trkpt><trkpt lat="45.472397922256754" lon="11.463904902692994"><ele>134.0</ele><time>2026-04-11T14:14:44.999Z</time></trkpt><trkpt lat="45.47231551568274" lon="11.463809761941688"><ele>134.0</ele><time>2026-04-11T14:14:45.999Z</time></trkpt><trkpt lat="45.47222266206396" lon="11.463714814551297"><ele>134.0</ele><time>2026-04-11T14:14:46.999Z</time></trkpt><trkpt lat="45.472150698072156" lon="11.463594268350732"><ele>130.75</ele><time>2026-04-11T14:14:47.999Z</time></trkpt><trkpt lat="45.47209098411749" lon="11.463467463623786"><ele>127.5</ele><time>2026-04-11T14:14:48.999Z</time></trkpt><trkpt lat="45.47202836164562" lon="11.46332768901391"><ele>124.25</ele><time>2026-04-11T14:14:49.999Z</time></trkpt><trkpt lat="45.47195210299672" lon="11.46318581682862"><ele>121.0</ele><time>2026-04-11T14:14:50.999Z</time></trkpt><trkpt lat="45.471885369651815" lon="11.463033011195588"><ele>122.5</ele><time>2026-04-11T14:14:51.999Z</time></trkpt><trkpt lat="45.47182089731961" lon="11.462890377597015"><ele>124.0</ele><time>2026-04-11T14:14:52.999Z</time></trkpt><trkpt lat="45.471757849461916" lon="11.462753976274945"><ele>125.5</ele><time>2026-04-11T14:14:53.999Z</time></trkpt><trkpt lat="45.47169705137671" lon="11.462614197377377"><ele>127.0</ele><time>2026-04-11T14:14:54.999Z</time></trkpt><trkpt lat="45.47165746806838" lon="11.462463811488456"><ele>127.0</ele><time>2026-04-11T14:14:55.999Z</time></trkpt><trkpt lat="45.47162874613089" lon="11.462322424554344"><ele>126.99999999999999</ele><time>2026-04-11T14:14:56.999Z</time></trkpt><trkpt lat="45.47163045361422" lon="11.462190342507716"><ele>126.99999999999999</ele><time>2026-04-11T14:14:57.999Z</time></trkpt><trkpt lat="45.47162891686782" lon="11.46204267295078"><ele>127.0</ele><time>2026-04-11T14:14:58.999Z</time></trkpt><trkpt lat="45.4716291451818" lon="11.461883714102314"><ele>127.0</ele><time>2026-04-11T14:14:59.999Z</time></trkpt><trkpt lat="45.471629145184714" lon="11.461712887008531"><ele>127.0</ele><time>2026-04-11T14:15:00.999Z</time></trkpt><trkpt lat="45.471613597193894" lon="11.461542951244434"><ele>127.0</ele><time>2026-04-11T14:15:01.999Z</time></trkpt><trkpt lat="45.47161886538843" lon="11.461383754069095"><ele>127.0</ele><time>2026-04-11T14:15:02.999Z</time></trkpt><trkpt lat="45.47162107764391" lon="11.461211036088777"><ele>127.0</ele><time>2026-04-11T14:15:03.999Z</time></trkpt><trkpt lat="45.471619389846744" lon="11.461031410817785"><ele>126.5</ele><time>2026-04-11T14:15:04.999Z</time></trkpt><trkpt lat="45.47159014397739" lon="11.460854226445337"><ele>126.0</ele><time>2026-04-11T14:15:05.999Z</time></trkpt><trkpt lat="45.47153081904835" lon="11.460699775661432"><ele>125.5</ele><time>2026-04-11T14:15:06.999Z</time></trkpt><trkpt lat="45.471442118506154" lon="11.460573298721002"><ele>125.0</ele><time>2026-04-11T14:15:07.999Z</time></trkpt><trkpt lat="45.47134565528304" lon="11.460460931709388"><ele>121.75</ele><time>2026-04-11T14:15:08.999Z</time></trkpt><trkpt lat="45.47125070366159" lon="11.460342867724966"><ele>118.5</ele><time>2026-04-11T14:15:09.999Z</time></trkpt><trkpt lat="45.47119617411253" lon="11.460199225816456"><ele>115.25</ele><time>2026-04-11T14:15:10.999Z</time></trkpt><trkpt lat="45.47114937996121" lon="11.460044039194493"><ele>112.0</ele><time>2026-04-11T14:15:11.999Z</time></trkpt><trkpt lat="45.47108969427893" lon="11.45990890741127"><ele>112.0</ele><time>2026-04-11T14:15:12.999Z</time></trkpt><trkpt lat="45.47102498709237" lon="11.45977075043179"><ele>112.0</ele><time>2026-04-11T14:15:13.999Z</time></trkpt><trkpt lat="45.47094164770204" lon="11.459643977774153"><ele>112.0</ele><time>2026-04-11T14:15:14.999Z</time></trkpt><trkpt lat="45.47083533168154" lon="11.459542756236688"><ele>112.0</ele><time>2026-04-11T14:15:15.999Z</time></trkpt><trkpt lat="45.470718155164" lon="11.45945293191243"><ele>111.0</ele><time>2026-04-11T14:15:16.999Z</time></trkpt><trkpt lat="45.47061986256628" lon="11.459346173485763"><ele>110.0</ele><time>2026-04-11T14:15:17.999Z</time></trkpt><trkpt lat="45.47051401251295" lon="11.45925910814631"><ele>109.0</ele><time>2026-04-11T14:15:18.999Z</time></trkpt><trkpt lat="45.470407560757934" lon="11.459181602487588"><ele>108.0</ele><time>2026-04-11T14:15:19.999Z</time></trkpt><trkpt lat="45.47030367357136" lon="11.459117801485696"><ele>108.0</ele><time>2026-04-11T14:15:20.999Z</time></trkpt><trkpt lat="45.47020013471304" lon="11.459070578805024"><ele>108.00000000000001</ele><time>2026-04-11T14:15:21.999Z</time></trkpt><trkpt lat="45.47009795556693" lon="11.45904015145005"><ele>108.00000000000001</ele><time>2026-04-11T14:15:22.999Z</time></trkpt><trkpt lat="45.469997789157794" lon="11.45902161034035"><ele>108.0</ele><time>2026-04-11T14:15:23.999Z</time></trkpt><trkpt lat="45.46990719371725" lon="11.458980120385238"><ele>108.0</ele><time>2026-04-11T14:15:24.999Z</time></trkpt><trkpt lat="45.46982203975792" lon="11.458915722110616"><ele>108.0</ele><time>2026-04-11T14:15:25.999Z</time></trkpt><trkpt lat="45.469747878436515" lon="11.458835824391896"><ele>108.00000000000001</ele><time>2026-04-11T14:15:26.999Z</time></trkpt><trkpt lat="45.46968873852067" lon="11.458742732182742"><ele>108.00000000000001</ele><time>2026-04-11T14:15:27.999Z</time></trkpt><trkpt lat="45.46964089817974" lon="11.458624774811755"><ele>108.0</ele><time>2026-04-11T14:15:28.999Z</time></trkpt><trkpt lat="45.469590374800816" lon="11.458485960321344"><ele>108.0</ele><time>2026-04-11T14:15:29.999Z</time></trkpt><trkpt lat="45.469553220026185" lon="11.458349530806812"><ele>103.4</ele><time>2026-04-11T14:15:30.998Z</time></trkpt><trkpt lat="45.46951284505347" lon="11.458234459230061"><ele>98.80000000000001</ele><time>2026-04-11T14:15:31.998Z</time></trkpt><trkpt lat="45.469460693652096" lon="11.45813156193179"><ele>94.2</ele><time>2026-04-11T14:15:32.998Z</time></trkpt><trkpt lat="45.469421048596246" lon="11.458019076748077"><ele>89.6</ele><time>2026-04-11T14:15:33.998Z</time></trkpt><trkpt lat="45.469381551994196" lon="11.457899072162238"><ele>85.0</ele><time>2026-04-11T14:15:34.998Z</time></trkpt><trkpt lat="45.46935001935991" lon="11.457775162676498"><ele>84.6</ele><time>2026-04-11T14:15:35.998Z</time></trkpt><trkpt lat="45.46935926712729" lon="11.45763727833288"><ele>84.2</ele><time>2026-04-11T14:15:36.998Z</time></trkpt><trkpt lat="45.46937174729445" lon="11.457503870478932"><ele>83.80000000000001</ele><time>2026-04-11T14:15:37.998Z</time></trkpt><trkpt lat="45.469408327416225" lon="11.457363367285451"><ele>83.4</ele><time>2026-04-11T14:15:38.998Z</time></trkpt><trkpt lat="45.469444802170656" lon="11.457208222148003"><ele>83.0</ele><time>2026-04-11T14:15:39.998Z</time></trkpt><trkpt lat="45.46948618546705" lon="11.457046154870598"><ele>81.75</ele><time>2026-04-11T14:15:40.998Z</time></trkpt><trkpt lat="45.469528001705356" lon="11.456891779402445"><ele>80.5</ele><time>2026-04-11T14:15:41.998Z</time></trkpt><trkpt lat="45.46957219812622" lon="11.456737897683867"><ele>79.25</ele><time>2026-04-11T14:15:42.998Z</time></trkpt><trkpt lat="45.46961946434056" lon="11.456576001179261"><ele>78.0</ele><time>2026-04-11T14:15:43.998Z</time></trkpt><trkpt lat="45.46967044915256" lon="11.456401367661003"><ele>82.75</ele><time>2026-04-11T14:15:44.998Z</time></trkpt><trkpt lat="45.46970804603153" lon="11.456217650733947"><ele>87.5</ele><time>2026-04-11T14:15:45.998Z</time></trkpt><trkpt lat="45.469767516315365" lon="11.456039041798842"><ele>92.25</ele><time>2026-04-11T14:15:46.998Z</time></trkpt><trkpt lat="45.469804126562984" lon="11.455844498673661"><ele>97.0</ele><time>2026-04-11T14:15:47.998Z</time></trkpt><trkpt lat="45.46982978086264" lon="11.45563618137612"><ele>96.75</ele><time>2026-04-11T14:15:48.998Z</time></trkpt><trkpt lat="45.469833392989095" lon="11.455421894397105"><ele>96.5</ele><time>2026-04-11T14:15:49.998Z</time></trkpt><trkpt lat="45.46984907016385" lon="11.455218411645042"><ele>96.25</ele><time>2026-04-11T14:15:50.998Z</time></trkpt><trkpt lat="45.46983879285693" lon="11.45503516583293"><ele>96.0</ele><time>2026-04-11T14:15:51.998Z</time></trkpt><trkpt lat="45.46983754545996" lon="11.45484988349915"><ele>96.0</ele><time>2026-04-11T14:15:52.998Z</time></trkpt><trkpt lat="45.46981793048922" lon="11.454663268002522"><ele>96.0</ele><time>2026-04-11T14:15:53.998Z</time></trkpt><trkpt lat="45.46976879349311" lon="11.454485804898425"><ele>96.0</ele><time>2026-04-11T14:15:54.998Z</time></trkpt><trkpt lat="45.46971372632667" lon="11.454317752736689"><ele>96.0</ele><time>2026-04-11T14:15:55.998Z</time></trkpt><trkpt lat="45.46966486101565" lon="11.454164398297024"><ele>95.8</ele><time>2026-04-11T14:15:56.998Z</time></trkpt><trkpt lat="45.46962298926622" lon="11.454023887019767"><ele>95.6</ele><time>2026-04-11T14:15:57.998Z</time></trkpt><trkpt lat="45.46958458209643" lon="11.453891442173383"><ele>95.4</ele><time>2026-04-11T14:15:58.998Z</time></trkpt><trkpt lat="45.469550366320505" lon="11.453763936331217"><ele>95.2</ele><time>2026-04-11T14:16:00Z</time></trkpt><trkpt lat="45.46955289011054" lon="11.453635602872234"><ele>95.0</ele><time>2026-04-11T14:16:01Z</time></trkpt><trkpt lat="45.46954760824777" lon="11.4534986445815"><ele>94.2</ele><time>2026-04-11T14:16:02Z</time></trkpt><trkpt lat="45.46953685133985" lon="11.453371729659247"><ele>93.4</ele><time>2026-04-11T14:16:03Z</time></trkpt><trkpt lat="45.469547408672774" lon="11.453249644864208"><ele>92.6</ele><time>2026-04-11T14:16:04Z</time></trkpt><trkpt lat="45.46956879294804" lon="11.453111496321029"><ele>91.8</ele><time>2026-04-11T14:16:05Z</time></trkpt><trkpt lat="45.46960551669153" lon="11.452939585630226"><ele>91.0</ele><time>2026-04-11T14:16:06Z</time></trkpt><trkpt lat="45.46965679370586" lon="11.452748490588638"><ele>91.0</ele><time>2026-04-11T14:16:07Z</time></trkpt><trkpt lat="45.469731005902425" lon="11.452544072654874"><ele>91.0</ele><time>2026-04-11T14:16:08Z</time></trkpt><trkpt lat="45.46980827741764" lon="11.452313962131084"><ele>91.0</ele><time>2026-04-11T14:16:09Z</time></trkpt><trkpt lat="45.46987746712094" lon="11.45209598280921"><ele>86.0</ele><time>2026-04-11T14:16:10Z</time></trkpt><trkpt lat="45.469943056113216" lon="11.451891234655458"><ele>81.0</ele><time>2026-04-11T14:16:11Z</time></trkpt><trkpt lat="45.47001147265584" lon="11.451687659183484"><ele>76.0</ele><time>2026-04-11T14:16:12Z</time></trkpt><trkpt lat="45.47007832485307" lon="11.451484638108715"><ele>73.0</ele><time>2026-04-11T14:16:13Z</time></trkpt><trkpt lat="45.47014463503547" lon="11.451284347697955"><ele>70.0</ele><time>2026-04-11T14:16:14Z</time></trkpt><trkpt lat="45.4702044715034" lon="11.45109007709407"><ele>67.0</ele><time>2026-04-11T14:16:15Z</time></trkpt><trkpt lat="45.47026823873127" lon="11.450905212350674"><ele>64.0</ele><time>2026-04-11T14:16:16Z</time></trkpt><trkpt lat="45.470329835595095" lon="11.450733197692866"><ele>64.0</ele><time>2026-04-11T14:16:17Z</time></trkpt><trkpt lat="45.47040361589713" lon="11.450593117941748"><ele>64.0</ele><time>2026-04-11T14:16:18Z</time></trkpt><trkpt lat="45.470497789852544" lon="11.450469255402922"><ele>64.0</ele><time>2026-04-11T14:16:19Z</time></trkpt><trkpt lat="45.47060426135256" lon="11.450349299297708"><ele>64.0</ele><time>2026-04-11T14:16:20Z</time></trkpt><trkpt lat="45.47070948346256" lon="11.450232377024701"><ele>63.25</ele><time>2026-04-11T14:16:21Z</time></trkpt><trkpt lat="45.470804425745975" lon="11.450117458609563"><ele>62.5</ele><time>2026-04-11T14:16:22Z</time></trkpt><trkpt lat="45.47090030850635" lon="11.449999635987322"><ele>61.75</ele><time>2026-04-11T14:16:23Z</time></trkpt><trkpt lat="45.47099503496188" lon="11.44987346971021"><ele>61.0</ele><time>2026-04-11T14:16:24Z</time></trkpt><trkpt lat="45.471081278677666" lon="11.449722010843837"><ele>60.0</ele><time>2026-04-11T14:16:25Z</time></trkpt><trkpt lat="45.471151409890005" lon="11.449551499733152"><ele>59.0</ele><time>2026-04-11T14:16:26Z</time></trkpt><trkpt lat="45.471212982882136" lon="11.449389625508982"><ele>58.0</ele><time>2026-04-11T14:16:27Z</time></trkpt><trkpt lat="45.471259401260454" lon="11.449224728650005"><ele>57.0</ele><time>2026-04-11T14:16:28Z</time></trkpt><trkpt lat="45.47127843453289" lon="11.449040012443476"><ele>57.0</ele><time>2026-04-11T14:16:29Z</time></trkpt><trkpt lat="45.47128260324168" lon="11.448853987381733"><ele>57.0</ele><time>2026-04-11T14:16:30Z</time></trkpt><trkpt lat="45.471280682274156" lon="11.44868198531966"><ele>57.0</ele><time>2026-04-11T14:16:31Z</time></trkpt><trkpt lat="45.471292286271854" lon="11.44852814957986"><ele>57.0</ele><time>2026-04-11T14:16:32Z</time></trkpt><trkpt lat="45.47131047252056" lon="11.44839138576422"><ele>56.0</ele><time>2026-04-11T14:16:33Z</time></trkpt><trkpt lat="45.47134675556993" lon="11.448278994993496"><ele>55.0</ele><time>2026-04-11T14:16:34Z</time></trkpt><trkpt lat="45.47138837887276" lon="11.448178644661903"><ele>54.0</ele><time>2026-04-11T14:16:35Z</time></trkpt><trkpt lat="45.47145660093176" lon="11.448081716125852"><ele>53.0</ele><time>2026-04-11T14:16:36Z</time></trkpt><trkpt lat="45.47153258441911" lon="11.447976504313432"><ele>52.0</ele><time>2026-04-11T14:16:37Z</time></trkpt><trkpt lat="45.47159869923024" lon="11.447856949720004"><ele>51.25</ele><time>2026-04-11T14:16:38Z</time></trkpt><trkpt lat="45.471672793087016" lon="11.447730572799369"><ele>50.5</ele><time>2026-04-11T14:16:39Z</time></trkpt><trkpt lat="45.47174841754385" lon="11.447608760913523"><ele>49.75</ele><time>2026-04-11T14:16:40Z</time></trkpt><trkpt lat="45.47182027562241" lon="11.447480093542088"><ele>49.0</ele><time>2026-04-11T14:16:41Z</time></trkpt><trkpt lat="45.47188741528179" lon="11.447341291835986"><ele>49.0</ele><time>2026-04-11T14:16:42Z</time></trkpt><trkpt lat="45.47194914209942" lon="11.447196505121203"><ele>49.0</ele><time>2026-04-11T14:16:43Z</time></trkpt><trkpt lat="45.472005944589725" lon="11.447047178342286"><ele>49.0</ele><time>2026-04-11T14:16:43.999Z</time></trkpt><trkpt lat="45.47206470828252" lon="11.446913604808884"><ele>49.0</ele><time>2026-04-11T14:16:44.999Z</time></trkpt><trkpt lat="45.47211520497834" lon="11.446802233915735"><ele>49.0</ele><time>2026-04-11T14:16:45.999Z</time></trkpt><trkpt lat="45.472158196483804" lon="11.44669981329993"><ele>48.99999999999999</ele><time>2026-04-11T14:16:46.999Z</time></trkpt><trkpt lat="45.47220429920137" lon="11.446598447671242"><ele>49.0</ele><time>2026-04-11T14:16:47.999Z</time></trkpt><trkpt lat="45.47224908307997" lon="11.446498091198592"><ele>49.0</ele><time>2026-04-11T14:16:48.999Z</time></trkpt><trkpt lat="45.47229345688061" lon="11.44638989617894"><ele>49.0</ele><time>2026-04-11T14:16:49.999Z</time></trkpt><trkpt lat="45.47234301288626" lon="11.446276862615498"><ele>48.99999999999999</ele><time>2026-04-11T14:16:50.999Z</time></trkpt><trkpt lat="45.472393797450174" lon="11.446176711692905"><ele>49.0</ele><time>2026-04-11T14:16:51.999Z</time></trkpt><trkpt lat="45.47244088072867" lon="11.446083082856852"><ele>48.99999999999999</ele><time>2026-04-11T14:16:52.999Z</time></trkpt><trkpt lat="45.472489385666485" lon="11.445991865298199"><ele>49.0</ele><time>2026-04-11T14:16:53.999Z</time></trkpt><trkpt lat="45.47254116678773" lon="11.445894181850464"><ele>49.0</ele><time>2026-04-11T14:16:54.999Z</time></trkpt><trkpt lat="45.47259483057554" lon="11.445793602213296"><ele>49.0</ele><time>2026-04-11T14:16:55.999Z</time></trkpt><trkpt lat="45.47265168572351" lon="11.445689233206743"><ele>48.99999999999999</ele><time>2026-04-11T14:16:56.999Z</time></trkpt><trkpt lat="45.47270932426449" lon="11.445577164064215"><ele>49.0</ele><time>2026-04-11T14:16:57.999Z</time></trkpt><trkpt lat="45.47276790721294" lon="11.4454571637913"><ele>49.0</ele><time>2026-04-11T14:16:58.999Z</time></trkpt><trkpt lat="45.4728313202014" lon="11.44533359904997"><ele>49.0</ele><time>2026-04-11T14:16:59.999Z</time></trkpt><trkpt lat="45.472896619268454" lon="11.445205848277169"><ele>49.0</ele><time>2026-04-11T14:17:00.999Z</time></trkpt><trkpt lat="45.472966022959625" lon="11.445073690672322"><ele>49.0</ele><time>2026-04-11T14:17:01.999Z</time></trkpt><trkpt lat="45.473040971594784" lon="11.444936048752782"><ele>49.0</ele><time>2026-04-11T14:17:02.999Z</time></trkpt><trkpt lat="45.47311844328922" lon="11.444808809215727"><ele>49.0</ele><time>2026-04-11T14:17:03.999Z</time></trkpt><trkpt lat="45.47319501256885" lon="11.444686425145822"><ele>49.0</ele><time>2026-04-11T14:17:04.999Z</time></trkpt><trkpt lat="45.47327319898246" lon="11.444567066955969"><ele>49.0</ele><time>2026-04-11T14:17:05.999Z</time></trkpt><trkpt lat="45.473348692635035" lon="11.44444383610386"><ele>48.75</ele><time>2026-04-11T14:17:06.999Z</time></trkpt><trkpt lat="45.47342900797726" lon="11.444322412559183"><ele>48.5</ele><time>2026-04-11T14:17:07.999Z</time></trkpt><trkpt lat="45.47351125915932" lon="11.44420093241596"><ele>48.25</ele><time>2026-04-11T14:17:08.999Z</time></trkpt><trkpt lat="45.47359308343452" lon="11.444080806440958"><ele>48.0</ele><time>2026-04-11T14:17:09.999Z</time></trkpt><trkpt lat="45.47367571683235" lon="11.44395835753693"><ele>48.0</ele><time>2026-04-11T14:17:10.999Z</time></trkpt><trkpt lat="45.473753492874955" lon="11.443840443620328"><ele>48.0</ele><time>2026-04-11T14:17:11.999Z</time></trkpt><trkpt lat="45.47382411827537" lon="11.443731307021547"><ele>48.0</ele><time>2026-04-11T14:17:12.999Z</time></trkpt><trkpt lat="45.473899704923866" lon="11.44361676619205"><ele>48.0</ele><time>2026-04-11T14:17:13.999Z</time></trkpt><trkpt lat="45.473979131253344" lon="11.44349510410477"><ele>48.0</ele><time>2026-04-11T14:17:14.999Z</time></trkpt><trkpt lat="45.47406545877549" lon="11.443369019537448"><ele>47.75</ele><time>2026-04-11T14:17:15.999Z</time></trkpt><trkpt lat="45.474156750691805" lon="11.443239620724908"><ele>47.5</ele><time>2026-04-11T14:17:16.999Z</time></trkpt><trkpt lat="45.47425344326493" lon="11.443106872243952"><ele>47.25</ele><time>2026-04-11T14:17:17.999Z</time></trkpt><trkpt lat="45.474352920690656" lon="11.442970451563301"><ele>47.0</ele><time>2026-04-11T14:17:18.999Z</time></trkpt><trkpt lat="45.47444981283688" lon="11.442832195780422"><ele>47.0</ele><time>2026-04-11T14:17:19.999Z</time></trkpt><trkpt lat="45.474534655125396" lon="11.442712769088738"><ele>47.0</ele><time>2026-04-11T14:17:20.999Z</time></trkpt><trkpt lat="45.474620082647384" lon="11.442592531108488"><ele>47.0</ele><time>2026-04-11T14:17:21.999Z</time></trkpt><trkpt lat="45.47470217494868" lon="11.442479542427034"><ele>47.0</ele><time>2026-04-11T14:17:22.999Z</time></trkpt><trkpt lat="45.47478356291468" lon="11.442368527428165"><ele>47.0</ele><time>2026-04-11T14:17:23.999Z</time></trkpt><trkpt lat="45.474874020966034" lon="11.442248185772547"><ele>47.0</ele><time>2026-04-11T14:17:24.999Z</time></trkpt><trkpt lat="45.474963818220914" lon="11.442129211107048"><ele>47.0</ele><time>2026-04-11T14:17:25.999Z</time></trkpt><trkpt lat="45.47505089335034" lon="11.442005313803"><ele>47.0</ele><time>2026-04-11T14:17:26.999Z</time></trkpt><trkpt lat="45.475123931570195" lon="11.441891011381054"><ele>47.0</ele><time>2026-04-11T14:17:27.999Z</time></trkpt><trkpt lat="45.475193175499584" lon="11.441794525668202"><ele>47.0</ele><time>2026-04-11T14:17:28.999Z</time></trkpt><trkpt lat="45.475262485638765" lon="11.44169436456827"><ele>47.0</ele><time>2026-04-11T14:17:29.999Z</time></trkpt><trkpt lat="45.47533165349356" lon="11.441592613684708"><ele>47.0</ele><time>2026-04-11T14:17:30.999Z</time></trkpt><trkpt lat="45.475399031613655" lon="11.441489996597161"><ele>47.0</ele><time>2026-04-11T14:17:31.999Z</time></trkpt><trkpt lat="45.4754563325689" lon="11.441407774973191"><ele>46.666666666666664</ele><time>2026-04-11T14:17:32.998Z</time></trkpt><trkpt lat="45.475510057900735" lon="11.441325362408811"><ele>46.33333333333333</ele><time>2026-04-11T14:17:33.998Z</time></trkpt><trkpt lat="45.4755586002678" lon="11.441258852894903"><ele>46.0</ele><time>2026-04-11T14:17:34.998Z</time></trkpt><trkpt lat="45.4756073514071" lon="11.441199057355357"><ele>45.666666666666664</ele><time>2026-04-11T14:17:35.998Z</time></trkpt><trkpt lat="45.475666825698646" lon="11.441135124696961"><ele>45.333333333333336</ele><time>2026-04-11T14:17:36.998Z</time></trkpt><trkpt lat="45.47574459186856" lon="11.441089367394037"><ele>45.0</ele><time>2026-04-11T14:17:37.998Z</time></trkpt><trkpt lat="45.47579466199945" lon="11.44098971465749"><ele>45.0</ele><time>2026-04-11T14:17:38.998Z</time></trkpt><trkpt lat="45.47585461921646" lon="11.440897886229608"><ele>45.0</ele><time>2026-04-11T14:17:39.998Z</time></trkpt><trkpt lat="45.47589847252034" lon="11.440804113446674"><ele>45.0</ele><time>2026-04-11T14:17:40.998Z</time></trkpt><trkpt lat="45.475914072659926" lon="11.440687553405096"><ele>45.0</ele><time>2026-04-11T14:17:41.998Z</time></trkpt><trkpt lat="45.47597306031765" lon="11.440609894410121"><ele>45.0</ele><time>2026-04-11T14:17:42.998Z</time></trkpt><trkpt lat="45.476023723411764" lon="11.440495077331052"><ele>45.0</ele><time>2026-04-11T14:17:43.998Z</time></trkpt><trkpt lat="45.47609194239272" lon="11.44039619220487"><ele>45.0</ele><time>2026-04-11T14:17:44.998Z</time></trkpt><trkpt lat="45.47616173310666" lon="11.440292994231063"><ele>45.0</ele><time>2026-04-11T14:17:45.998Z</time></trkpt><trkpt lat="45.47623275020699" lon="11.440183829317599"><ele>45.0</ele><time>2026-04-11T14:17:46.998Z</time></trkpt><trkpt lat="45.47630598682997" lon="11.440070230862064"><ele>45.0</ele><time>2026-04-11T14:17:47.998Z</time></trkpt><trkpt lat="45.47638160543047" lon="11.43995826457656"><ele>45.0</ele><time>2026-04-11T14:17:48.998Z</time></trkpt><trkpt lat="45.4764553325536" lon="11.439842663762454"><ele>45.4</ele><time>2026-04-11T14:17:49.998Z</time></trkpt><trkpt lat="45.47652921235248" lon="11.439727463617515"><ele>45.8</ele><time>2026-04-11T14:17:50.998Z</time></trkpt><trkpt lat="45.476602327225635" lon="11.439610218275524"><ele>46.2</ele><time>2026-04-11T14:17:51.998Z</time></trkpt><trkpt lat="45.476674382240574" lon="11.439494366453932"><ele>46.6</ele><time>2026-04-11T14:17:52.998Z</time></trkpt><trkpt lat="45.476751482342955" lon="11.439378170333157"><ele>47.0</ele><time>2026-04-11T14:17:53.998Z</time></trkpt><trkpt lat="45.476829544579644" lon="11.439258950255663"><ele>47.0</ele><time>2026-04-11T14:17:54.998Z</time></trkpt><trkpt lat="45.47690737124859" lon="11.439143198320062"><ele>47.0</ele><time>2026-04-11T14:17:55.998Z</time></trkpt><trkpt lat="45.47698395310095" lon="11.439025312570976"><ele>47.0</ele><time>2026-04-11T14:17:56.998Z</time></trkpt><trkpt lat="45.47705839765804" lon="11.438905317494187"><ele>47.0</ele><time>2026-04-11T14:17:57.998Z</time></trkpt><trkpt lat="45.477133904382136" lon="11.438787295169295"><ele>47.0</ele><time>2026-04-11T14:17:58.998Z</time></trkpt><trkpt lat="45.477209842160924" lon="11.438668607052763"><ele>47.25</ele><time>2026-04-11T14:17:59.998Z</time></trkpt><trkpt lat="45.47728491859084" lon="11.438551687609918"><ele>47.5</ele><time>2026-04-11T14:18:00.998Z</time></trkpt><trkpt lat="45.47736249241991" lon="11.438422751287613"><ele>47.75</ele><time>2026-04-11T14:18:01.998Z</time></trkpt><trkpt lat="45.47744928517324" lon="11.438291666238548"><ele>48.0</ele><time>2026-04-11T14:18:02.998Z</time></trkpt><trkpt lat="45.477534886194995" lon="11.438164259740207"><ele>48.0</ele><time>2026-04-11T14:18:03.998Z</time></trkpt><trkpt lat="45.477626140431" lon="11.438025647362373"><ele>48.0</ele><time>2026-04-11T14:18:04.998Z</time></trkpt><trkpt lat="45.47771598956099" lon="11.437884307374866"><ele>48.0</ele><time>2026-04-11T14:18:06Z</time></trkpt><trkpt lat="45.477802208720185" lon="11.437742514374525"><ele>48.0</ele><time>2026-04-11T14:18:07Z</time></trkpt><trkpt lat="45.477889639733874" lon="11.437608398756726"><ele>48.0</ele><time>2026-04-11T14:18:08Z</time></trkpt><trkpt lat="45.477979836754336" lon="11.437469332437564"><ele>48.0</ele><time>2026-04-11T14:18:09Z</time></trkpt><trkpt lat="45.47807281115201" lon="11.437327803756498"><ele>48.0</ele><time>2026-04-11T14:18:10Z</time></trkpt><trkpt lat="45.47816160923043" lon="11.437189617492201"><ele>48.0</ele><time>2026-04-11T14:18:11Z</time></trkpt><trkpt lat="45.4782497162895" lon="11.437047811613152"><ele>48.0</ele><time>2026-04-11T14:18:12Z</time></trkpt><trkpt lat="45.47834259019725" lon="11.436907498007168"><ele>48.0</ele><time>2026-04-11T14:18:13Z</time></trkpt><trkpt lat="45.478435260766254" lon="11.43676876431431"><ele>48.0</ele><time>2026-04-11T14:18:14Z</time></trkpt><trkpt lat="45.478525586049194" lon="11.436628228630104"><ele>48.0</ele><time>2026-04-11T14:18:15Z</time></trkpt><trkpt lat="45.47861415507211" lon="11.43648924133051"><ele>48.0</ele><time>2026-04-11T14:18:16Z</time></trkpt><trkpt lat="45.47870594622739" lon="11.436346904749605"><ele>48.0</ele><time>2026-04-11T14:18:17Z</time></trkpt><trkpt lat="45.47880065603769" lon="11.43620119158824"><ele>48.0</ele><time>2026-04-11T14:18:18Z</time></trkpt><trkpt lat="45.47889285344638" lon="11.436058132150412"><ele>48.0</ele><time>2026-04-11T14:18:19Z</time></trkpt><trkpt lat="45.47898222897109" lon="11.435914736212426"><ele>48.5</ele><time>2026-04-11T14:18:20Z</time></trkpt><trkpt lat="45.47907327650972" lon="11.435773053919657"><ele>49.0</ele><time>2026-04-11T14:18:21Z</time></trkpt><trkpt lat="45.47916699058804" lon="11.43562619592608"><ele>49.5</ele><time>2026-04-11T14:18:22Z</time></trkpt><trkpt lat="45.479258191537" lon="11.435483722506325"><ele>50.0</ele><time>2026-04-11T14:18:23Z</time></trkpt><trkpt lat="45.47934880966704" lon="11.435344390383683"><ele>50.0</ele><time>2026-04-11T14:18:24Z</time></trkpt><trkpt lat="45.479438018583494" lon="11.435210850302777"><ele>50.0</ele><time>2026-04-11T14:18:25Z</time></trkpt><trkpt lat="45.479522728369766" lon="11.435080303662717"><ele>50.0</ele><time>2026-04-11T14:18:26Z</time></trkpt><trkpt lat="45.47961171273734" lon="11.434951783841875"><ele>50.0</ele><time>2026-04-11T14:18:27Z</time></trkpt><trkpt lat="45.47970645269532" lon="11.434827815024395"><ele>49.75</ele><time>2026-04-11T14:18:28Z</time></trkpt><trkpt lat="45.47979701323659" lon="11.434691145316485"><ele>49.5</ele><time>2026-04-11T14:18:29Z</time></trkpt><trkpt lat="45.47988351931242" lon="11.434560206383654"><ele>49.25</ele><time>2026-04-11T14:18:30Z</time></trkpt><trkpt lat="45.479973118122075" lon="11.434428595981938"><ele>49.0</ele><time>2026-04-11T14:18:31Z</time></trkpt><trkpt lat="45.48005952894618" lon="11.43429244617165"><ele>49.5</ele><time>2026-04-11T14:18:32Z</time></trkpt><trkpt lat="45.480144428573155" lon="11.434156035158948"><ele>50.0</ele><time>2026-04-11T14:18:33Z</time></trkpt><trkpt lat="45.480233260838745" lon="11.434019046829675"><ele>50.5</ele><time>2026-04-11T14:18:34Z</time></trkpt><trkpt lat="45.48031954003133" lon="11.433889840928364"><ele>51.0</ele><time>2026-04-11T14:18:35Z</time></trkpt><trkpt lat="45.48039497322284" lon="11.433777756066137"><ele>50.833333333333336</ele><time>2026-04-11T14:18:36Z</time></trkpt><trkpt lat="45.48046391563516" lon="11.43367516473388"><ele>50.66666666666667</ele><time>2026-04-11T14:18:37Z</time></trkpt><trkpt lat="45.48052445775457" lon="11.43358034029923"><ele>50.5</ele><time>2026-04-11T14:18:38Z</time></trkpt><trkpt lat="45.48057649729704" lon="11.433497168161074"><ele>50.333333333333336</ele><time>2026-04-11T14:18:39Z</time></trkpt><trkpt lat="45.48062452351401" lon="11.43342419204418"><ele>50.16666666666667</ele><time>2026-04-11T14:18:40Z</time></trkpt><trkpt lat="45.48070151837804" lon="11.43331317694927"><ele>50.0</ele><time>2026-04-11T14:18:42Z</time></trkpt><trkpt lat="45.480757630931144" lon="11.433226954638153"><ele>50.0</ele><time>2026-04-11T14:18:44Z</time></trkpt><trkpt lat="45.48082487609664" lon="11.43312773587677"><ele>50.0</ele><time>2026-04-11T14:18:45.999Z</time></trkpt><trkpt lat="45.48088432755902" lon="11.433061365648921"><ele>50.0</ele><time>2026-04-11T14:18:48.999Z</time></trkpt><trkpt lat="45.480973334618085" lon="11.433013490795227"><ele>50.0</ele><time>2026-04-11T14:18:50.999Z</time></trkpt><trkpt lat="45.48107652477534" lon="11.43294933350521"><ele>50.0</ele><time>2026-04-11T14:18:52.999Z</time></trkpt><trkpt lat="45.48116157361143" lon="11.433053582348455"><ele>50.0</ele><time>2026-04-11T14:18:53.999Z</time></trkpt><trkpt lat="45.481225755376855" lon="11.43311800898586"><ele>50.0</ele><time>2026-04-11T14:18:54.999Z</time></trkpt><trkpt lat="45.48129267552986" lon="11.433201387119345"><ele>50.0</ele><time>2026-04-11T14:18:55.999Z</time></trkpt><trkpt lat="45.48136923207923" lon="11.433288316713295"><ele>50.0</ele><time>2026-04-11T14:18:56.999Z</time></trkpt><trkpt lat="45.48144642191464" lon="11.433369486078831"><ele>50.0</ele><time>2026-04-11T14:18:57.999Z</time></trkpt><trkpt lat="45.48151889897863" lon="11.433447860276722"><ele>50.00000000000001</ele><time>2026-04-11T14:18:58.999Z</time></trkpt><trkpt lat="45.48158792884197" lon="11.43352272002806"><ele>50.0</ele><time>2026-04-11T14:18:59.999Z</time></trkpt><trkpt lat="45.481652860729" lon="11.43359560253246"><ele>50.0</ele><time>2026-04-11T14:19:00.999Z</time></trkpt><trkpt lat="45.48171789712005" lon="11.433669321572891"><ele>50.0</ele><time>2026-04-11T14:19:01.999Z</time></trkpt><trkpt lat="45.48178433267359" lon="11.433745177108262"><ele>50.00000000000001</ele><time>2026-04-11T14:19:02.999Z</time></trkpt><trkpt lat="45.481852702942874" lon="11.433820912264382"><ele>50.0</ele><time>2026-04-11T14:19:03.999Z</time></trkpt><trkpt lat="45.48192196325119" lon="11.433896532571998"><ele>50.2</ele><time>2026-04-11T14:19:04.999Z</time></trkpt><trkpt lat="45.481991526944284" lon="11.433974622034716"><ele>50.4</ele><time>2026-04-11T14:19:05.999Z</time></trkpt><trkpt lat="45.48206258848766" lon="11.434056559766965"><ele>50.599999999999994</ele><time>2026-04-11T14:19:06.999Z</time></trkpt><trkpt lat="45.48213783618042" lon="11.434141114076278"><ele>50.8</ele><time>2026-04-11T14:19:07.999Z</time></trkpt><trkpt lat="45.48221724396823" lon="11.434230746210819"><ele>51.0</ele><time>2026-04-11T14:19:08.999Z</time></trkpt><trkpt lat="45.48230609710437" lon="11.434331656545712"><ele>51.0</ele><time>2026-04-11T14:19:09.999Z</time></trkpt><trkpt lat="45.482395512656915" lon="11.43443712380689"><ele>51.0</ele><time>2026-04-11T14:19:10.999Z</time></trkpt><trkpt lat="45.482480479017575" lon="11.434541421340747"><ele>51.0</ele><time>2026-04-11T14:19:11.999Z</time></trkpt><trkpt lat="45.482571039602234" lon="11.434645873450492"><ele>51.0</ele><time>2026-04-11T14:19:12.999Z</time></trkpt><trkpt lat="45.48266770774393" lon="11.434751199541308"><ele>51.0</ele><time>2026-04-11T14:19:13.999Z</time></trkpt><trkpt lat="45.482778866980354" lon="11.43487455108317"><ele>51.0</ele><time>2026-04-11T14:19:14.999Z</time></trkpt><trkpt lat="45.48289007912615" lon="11.434995874405036"><ele>51.0</ele><time>2026-04-11T14:19:15.999Z</time></trkpt><trkpt lat="45.48301614937304" lon="11.435123187197183"><ele>51.0</ele><time>2026-04-11T14:19:16.999Z</time></trkpt><trkpt lat="45.48313864608282" lon="11.435291045968397"><ele>51.33333333333333</ele><time>2026-04-11T14:19:17.999Z</time></trkpt><trkpt lat="45.48328866644698" lon="11.435439908172546"><ele>51.666666666666664</ele><time>2026-04-11T14:19:18.999Z</time></trkpt><trkpt lat="45.48342486743492" lon="11.43561700527215"><ele>52.0</ele><time>2026-04-11T14:19:19.999Z</time></trkpt><trkpt lat="45.48355806414639" lon="11.435783015963114"><ele>52.0</ele><time>2026-04-11T14:19:20.999Z</time></trkpt><trkpt lat="45.483693573276796" lon="11.435935749955567"><ele>52.0</ele><time>2026-04-11T14:19:21.999Z</time></trkpt><trkpt lat="45.48383243568551" lon="11.436089704158743"><ele>52.0</ele><time>2026-04-11T14:19:22.999Z</time></trkpt><trkpt lat="45.483973962456" lon="11.43624529237562"><ele>51.666666666666664</ele><time>2026-04-11T14:19:23.999Z</time></trkpt><trkpt lat="45.48412658316155" lon="11.436412741356207"><ele>51.33333333333333</ele><time>2026-04-11T14:19:24.999Z</time></trkpt><trkpt lat="45.48428087348881" lon="11.43660584343407"><ele>51.0</ele><time>2026-04-11T14:19:25.999Z</time></trkpt><trkpt lat="45.48443127760423" lon="11.43681732365458"><ele>51.0</ele><time>2026-04-11T14:19:26.999Z</time></trkpt><trkpt lat="45.484577484871195" lon="11.437035074952016"><ele>51.0</ele><time>2026-04-11T14:19:27.999Z</time></trkpt><trkpt lat="45.48472826242648" lon="11.437257658027047"><ele>51.0</ele><time>2026-04-11T14:19:28.999Z</time></trkpt><trkpt lat="45.48487479044119" lon="11.437475107826506"><ele>50.66666666666667</ele><time>2026-04-11T14:19:29.999Z</time></trkpt><trkpt lat="45.48501535228211" lon="11.437683166444392"><ele>50.333333333333336</ele><time>2026-04-11T14:19:30.999Z</time></trkpt><trkpt lat="45.48517772766494" lon="11.43789056648079"><ele>50.0</ele><time>2026-04-11T14:19:31.999Z</time></trkpt><trkpt lat="45.485357493853925" lon="11.438076218828403"><ele>50.5</ele><time>2026-04-11T14:19:32.999Z</time></trkpt><trkpt lat="45.48555911385905" lon="11.43823666457548"><ele>51.0</ele><time>2026-04-11T14:19:33.999Z</time></trkpt><trkpt lat="45.48577651191243" lon="11.438352594191953"><ele>51.0</ele><time>2026-04-11T14:19:34.998Z</time></trkpt><trkpt lat="45.486005425484265" lon="11.438431427814306"><ele>51.0</ele><time>2026-04-11T14:19:35.998Z</time></trkpt><trkpt lat="45.4862426874972" lon="11.438461718028641"><ele>51.5</ele><time>2026-04-11T14:19:36.998Z</time></trkpt><trkpt lat="45.48648064451303" lon="11.438443655912279"><ele>52.0</ele><time>2026-04-11T14:19:37.998Z</time></trkpt><trkpt lat="45.48670034677024" lon="11.438391562434067"><ele>52.0</ele><time>2026-04-11T14:19:38.998Z</time></trkpt><trkpt lat="45.48689113841364" lon="11.438349534894302"><ele>52.0</ele><time>2026-04-11T14:19:39.998Z</time></trkpt><trkpt lat="45.487068645777065" lon="11.438321588869867"><ele>52.0</ele><time>2026-04-11T14:19:40.998Z</time></trkpt><trkpt lat="45.48723547191149" lon="11.438292852678785"><ele>52.0</ele><time>2026-04-11T14:19:41.998Z</time></trkpt><trkpt lat="45.48739349977252" lon="11.438263029929562"><ele>52.0</ele><time>2026-04-11T14:19:42.998Z</time></trkpt><trkpt lat="45.48755297250628" lon="11.438257272294631"><ele>52.0</ele><time>2026-04-11T14:19:43.998Z</time></trkpt><trkpt lat="45.48770182490357" lon="11.438236050070808"><ele>52.0</ele><time>2026-04-11T14:19:44.998Z</time></trkpt><trkpt lat="45.48784384131871" lon="11.438215802470076"><ele>52.0</ele><time>2026-04-11T14:19:45.998Z</time></trkpt><trkpt lat="45.48797875813624" lon="11.438187224473962"><ele>52.0</ele><time>2026-04-11T14:19:46.998Z</time></trkpt><trkpt lat="45.488103774027046" lon="11.43815994828124"><ele>52.0</ele><time>2026-04-11T14:19:47.998Z</time></trkpt><trkpt lat="45.48821942963227" lon="11.438134714335106"><ele>52.33333333333333</ele><time>2026-04-11T14:19:48.998Z</time></trkpt><trkpt lat="45.48831496594936" lon="11.438096562624862"><ele>52.666666666666664</ele><time>2026-04-11T14:19:49.998Z</time></trkpt><trkpt lat="45.488408891138164" lon="11.438083369731894"><ele>53.0</ele><time>2026-04-11T14:19:50.998Z</time></trkpt><trkpt lat="45.488474019378664" lon="11.438073722734023"><ele>53.33333333333333</ele><time>2026-04-11T14:19:51.998Z</time></trkpt><trkpt lat="45.48856262390785" lon="11.438081008890025"><ele>53.666666666666664</ele><time>2026-04-11T14:19:54.998Z</time></trkpt><trkpt lat="45.48865835049953" lon="11.438112465635719"><ele>54.0</ele><time>2026-04-11T14:19:56.998Z</time></trkpt><trkpt lat="45.488728216468644" lon="11.438160470581664"><ele>53.800000000000004</ele><time>2026-04-11T14:19:57.998Z</time></trkpt><trkpt lat="45.488808085921036" lon="11.438231368763109"><ele>53.60000000000001</ele><time>2026-04-11T14:19:58.998Z</time></trkpt><trkpt lat="45.488904221355064" lon="11.438301541996152"><ele>53.4</ele><time>2026-04-11T14:19:59.998Z</time></trkpt><trkpt lat="45.48901268812128" lon="11.438347261420112"><ele>53.2</ele><time>2026-04-11T14:20:00.998Z</time></trkpt><trkpt lat="45.489120995723724" lon="11.438340923729918"><ele>53.0</ele><time>2026-04-11T14:20:01.998Z</time></trkpt><trkpt lat="45.48923345701307" lon="11.438330887151368"><ele>53.0</ele><time>2026-04-11T14:20:02.998Z</time></trkpt><trkpt lat="45.489340983741805" lon="11.43824999423736"><ele>53.0</ele><time>2026-04-11T14:20:03.998Z</time></trkpt><trkpt lat="45.4894179261751" lon="11.438107246176482"><ele>53.0</ele><time>2026-04-11T14:20:04.998Z</time></trkpt><trkpt lat="45.48947687240443" lon="11.437937248980063"><ele>53.0</ele><time>2026-04-11T14:20:05.998Z</time></trkpt><trkpt lat="45.4894913160789" lon="11.43774782030443"><ele>53.75</ele><time>2026-04-11T14:20:06.998Z</time></trkpt><trkpt lat="45.489472530588195" lon="11.437572580174837"><ele>54.5</ele><time>2026-04-11T14:20:07.998Z</time></trkpt><trkpt lat="45.48941865800987" lon="11.43743079406022"><ele>55.25</ele><time>2026-04-11T14:20:08.998Z</time></trkpt><trkpt lat="45.48934290188316" lon="11.437295523790715"><ele>56.0</ele><time>2026-04-11T14:20:09.998Z</time></trkpt><trkpt lat="45.48924676644056" lon="11.437194574716898"><ele>56.0</ele><time>2026-04-11T14:20:10.998Z</time></trkpt><trkpt lat="45.48914659675134" lon="11.437143643672272"><ele>56.0</ele><time>2026-04-11T14:20:12Z</time></trkpt><trkpt lat="45.48900587261742" lon="11.437104629426832"><ele>56.0</ele><time>2026-04-11T14:20:14Z</time></trkpt><trkpt lat="45.48890611904639" lon="11.437107966021864"><ele>56.0</ele><time>2026-04-11T14:20:15Z</time></trkpt><trkpt lat="45.488808663473144" lon="11.437157882531565"><ele>55.5</ele><time>2026-04-11T14:20:16Z</time></trkpt><trkpt lat="45.48868930580523" lon="11.437116417144473"><ele>55.0</ele><time>2026-04-11T14:20:17Z</time></trkpt><trkpt lat="45.4885782795678" lon="11.437044354501639"><ele>54.5</ele><time>2026-04-11T14:20:18Z</time></trkpt><trkpt lat="45.48846507769366" lon="11.43691286319926"><ele>54.0</ele><time>2026-04-11T14:20:19Z</time></trkpt><trkpt lat="45.48836767233571" lon="11.43671885407854"><ele>54.0</ele><time>2026-04-11T14:20:20Z</time></trkpt><trkpt lat="45.48823119917451" lon="11.436545553204478"><ele>54.0</ele><time>2026-04-11T14:20:21Z</time></trkpt><trkpt lat="45.48809434499066" lon="11.436341385905298"><ele>54.0</ele><time>2026-04-11T14:20:22Z</time></trkpt><trkpt lat="45.4879480576188" lon="11.436136058834544"><ele>53.0</ele><time>2026-04-11T14:20:23Z</time></trkpt><trkpt lat="45.487799058805656" lon="11.4359245702744"><ele>52.0</ele><time>2026-04-11T14:20:24Z</time></trkpt><trkpt lat="45.4876410794674" lon="11.435699632557904"><ele>51.0</ele><time>2026-04-11T14:20:25Z</time></trkpt><trkpt lat="45.4874846688965" lon="11.43547859512114"><ele>51.33333333333333</ele><time>2026-04-11T14:20:26Z</time></trkpt><trkpt lat="45.48732603866687" lon="11.43525845059818"><ele>51.666666666666664</ele><time>2026-04-11T14:20:27Z</time></trkpt><trkpt lat="45.48717116938222" lon="11.435040805207288"><ele>52.0</ele><time>2026-04-11T14:20:28Z</time></trkpt><trkpt lat="45.48703513703204" lon="11.434810557703695"><ele>52.0</ele><time>2026-04-11T14:20:29Z</time></trkpt><trkpt lat="45.486915548303344" lon="11.434588403737807"><ele>52.0</ele><time>2026-04-11T14:20:30Z</time></trkpt><trkpt lat="45.48681627174255" lon="11.434346795998316"><ele>52.0</ele><time>2026-04-11T14:20:31Z</time></trkpt><trkpt lat="45.48674223821284" lon="11.434090577024655"><ele>52.0</ele><time>2026-04-11T14:20:32Z</time></trkpt><trkpt lat="45.48671302939067" lon="11.433814382944764"><ele>52.0</ele><time>2026-04-11T14:20:33Z</time></trkpt><trkpt lat="45.48671231070781" lon="11.4335265757738"><ele>52.0</ele><time>2026-04-11T14:20:34Z</time></trkpt><trkpt lat="45.48674303694433" lon="11.433238119751893"><ele>51.0</ele><time>2026-04-11T14:20:35Z</time></trkpt><trkpt lat="45.48679400414759" lon="11.43294758469006"><ele>50.0</ele><time>2026-04-11T14:20:36Z</time></trkpt><trkpt lat="45.48683263576664" lon="11.432657793936935"><ele>49.0</ele><time>2026-04-11T14:20:37Z</time></trkpt><trkpt lat="45.48685521740585" lon="11.432369366585815"><ele>49.33333333333333</ele><time>2026-04-11T14:20:38Z</time></trkpt><trkpt lat="45.48686855680285" lon="11.432080515561879"><ele>49.66666666666667</ele><time>2026-04-11T14:20:39Z</time></trkpt><trkpt lat="45.486838771388435" lon="11.431769941591156"><ele>50.0</ele><time>2026-04-11T14:20:40Z</time></trkpt><trkpt lat="45.48676471439479" lon="11.431495495702581"><ele>50.333333333333336</ele><time>2026-04-11T14:20:41Z</time></trkpt><trkpt lat="45.48665274116847" lon="11.431263675865981"><ele>50.66666666666667</ele><time>2026-04-11T14:20:42Z</time></trkpt><trkpt lat="45.48651184355956" lon="11.431053433204092"><ele>51.0</ele><time>2026-04-11T14:20:43Z</time></trkpt><trkpt lat="45.48634811392926" lon="11.430863629772775"><ele>51.0</ele><time>2026-04-11T14:20:44Z</time></trkpt><trkpt lat="45.48617321312552" lon="11.430695410449664"><ele>51.0</ele><time>2026-04-11T14:20:45Z</time></trkpt><trkpt lat="45.48599437901845" lon="11.430545319126276"><ele>51.0</ele><time>2026-04-11T14:20:46Z</time></trkpt><trkpt lat="45.48581729086919" lon="11.430406135661134"><ele>51.33333333333333</ele><time>2026-04-11T14:20:47Z</time></trkpt><trkpt lat="45.485648078094506" lon="11.43026135021596"><ele>51.666666666666664</ele><time>2026-04-11T14:20:48Z</time></trkpt><trkpt lat="45.48548272940637" lon="11.430110804472507"><ele>52.0</ele><time>2026-04-11T14:20:48.999Z</time></trkpt><trkpt lat="45.485326110213926" lon="11.42995967110788"><ele>51.33333333333333</ele><time>2026-04-11T14:20:49.999Z</time></trkpt><trkpt lat="45.48518479384677" lon="11.429803810967062"><ele>50.66666666666667</ele><time>2026-04-11T14:20:50.999Z</time></trkpt><trkpt lat="45.48506545765015" lon="11.429633756436465"><ele>50.0</ele><time>2026-04-11T14:20:51.999Z</time></trkpt><trkpt lat="45.484966461671924" lon="11.42944868550936"><ele>50.0</ele><time>2026-04-11T14:20:52.999Z</time></trkpt><trkpt lat="45.48487790514896" lon="11.429227973632125"><ele>50.0</ele><time>2026-04-11T14:20:53.999Z</time></trkpt><trkpt lat="45.48483061599212" lon="11.4289688378711"><ele>50.0</ele><time>2026-04-11T14:20:54.999Z</time></trkpt><trkpt lat="45.48480315481427" lon="11.428678440566575"><ele>50.333333333333336</ele><time>2026-04-11T14:20:55.999Z</time></trkpt><trkpt lat="45.484813327857694" lon="11.428378787232171"><ele>50.66666666666667</ele><time>2026-04-11T14:20:56.999Z</time></trkpt><trkpt lat="45.4848743713923" lon="11.428083114962684"><ele>51.0</ele><time>2026-04-11T14:20:57.999Z</time></trkpt><trkpt lat="45.484968419518026" lon="11.427815140549344"><ele>51.33333333333333</ele><time>2026-04-11T14:20:58.999Z</time></trkpt><trkpt lat="45.48509170144721" lon="11.42757545521015"><ele>51.666666666666664</ele><time>2026-04-11T14:20:59.999Z</time></trkpt><trkpt lat="45.48521668356297" lon="11.427337264933723"><ele>52.0</ele><time>2026-04-11T14:21:00.999Z</time></trkpt><trkpt lat="45.48533878574503" lon="11.427143807303183"><ele>52.0</ele><time>2026-04-11T14:21:01.999Z</time></trkpt><trkpt lat="45.48542656411066" lon="11.426947177076688"><ele>52.0</ele><time>2026-04-11T14:21:02.999Z</time></trkpt><trkpt lat="45.485463702795975" lon="11.426733631406783"><ele>52.0</ele><time>2026-04-11T14:21:03.999Z</time></trkpt><trkpt lat="45.485447385458635" lon="11.426529243582223"><ele>52.0</ele><time>2026-04-11T14:21:04.999Z</time></trkpt><trkpt lat="45.48538981811249" lon="11.426356599575168"><ele>52.0</ele><time>2026-04-11T14:21:05.999Z</time></trkpt><trkpt lat="45.48531808385389" lon="11.426220232440805"><ele>52.0</ele><time>2026-04-11T14:21:06.999Z</time></trkpt><trkpt lat="45.485266283581666" lon="11.426101448172243"><ele>52.0</ele><time>2026-04-11T14:21:07.999Z</time></trkpt><trkpt lat="45.48526852818894" lon="11.426001772303115"><ele>52.0</ele><time>2026-04-11T14:21:08.999Z</time></trkpt><trkpt lat="45.48527003603456" lon="11.425887040854231"><ele>52.0</ele><time>2026-04-11T14:21:10.999Z</time></trkpt><trkpt lat="45.48531265707718" lon="11.425769692672626"><ele>52.0</ele><time>2026-04-11T14:21:14.999Z</time></trkpt><trkpt lat="45.485356688836966" lon="11.425595130605826"><ele>52.0</ele><time>2026-04-11T14:21:16.999Z</time></trkpt><trkpt lat="45.485369834589626" lon="11.425477876422988"><ele>52.0</ele><time>2026-04-11T14:21:17.999Z</time></trkpt><trkpt lat="45.48537300183123" lon="11.425365126784774"><ele>52.0</ele><time>2026-04-11T14:21:18.999Z</time></trkpt><trkpt lat="45.485364154256374" lon="11.425242573283057"><ele>51.75</ele><time>2026-04-11T14:21:19.999Z</time></trkpt><trkpt lat="45.485346870975334" lon="11.425090129682246"><ele>51.5</ele><time>2026-04-11T14:21:20.999Z</time></trkpt><trkpt lat="45.48535072963386" lon="11.424927897087702"><ele>51.25</ele><time>2026-04-11T14:21:21.999Z</time></trkpt><trkpt lat="45.48538372237932" lon="11.424771082595546"><ele>51.0</ele><time>2026-04-11T14:21:22.999Z</time></trkpt><trkpt lat="45.485438302942676" lon="11.424620833789577"><ele>50.4</ele><time>2026-04-11T14:21:23.999Z</time></trkpt><trkpt lat="45.48549486287189" lon="11.424483539946404"><ele>49.8</ele><time>2026-04-11T14:21:24.999Z</time></trkpt><trkpt lat="45.48555046110242" lon="11.424340827798497"><ele>49.199999999999996</ele><time>2026-04-11T14:21:25.999Z</time></trkpt><trkpt lat="45.48560221546454" lon="11.424216240168816"><ele>48.599999999999994</ele><time>2026-04-11T14:21:26.999Z</time></trkpt><trkpt lat="45.485649075785815" lon="11.424112525830347"><ele>48.0</ele><time>2026-04-11T14:21:27.999Z</time></trkpt><trkpt lat="45.485690596357756" lon="11.424031931822938"><ele>48.0</ele><time>2026-04-11T14:21:28.999Z</time></trkpt><trkpt lat="45.48577638924024" lon="11.423922358016478"><ele>48.0</ele><time>2026-04-11T14:21:30.999Z</time></trkpt><trkpt lat="45.48591549929439" lon="11.423809816636652"><ele>48.0</ele><time>2026-04-11T14:21:32.999Z</time></trkpt><trkpt lat="45.48602090020155" lon="11.42375568709284"><ele>48.0</ele><time>2026-04-11T14:21:33.999Z</time></trkpt><trkpt lat="45.48613130840411" lon="11.423693194752996"><ele>48.5</ele><time>2026-04-11T14:21:34.999Z</time></trkpt><trkpt lat="45.48623344237205" lon="11.42360542287779"><ele>49.0</ele><time>2026-04-11T14:21:35.999Z</time></trkpt><trkpt lat="45.486341926964776" lon="11.4235109195489"><ele>49.5</ele><time>2026-04-11T14:21:36.999Z</time></trkpt><trkpt lat="45.486423994353544" lon="11.423381773895413"><ele>50.0</ele><time>2026-04-11T14:21:37.999Z</time></trkpt><trkpt lat="45.486454567090696" lon="11.423202566579311"><ele>50.6</ele><time>2026-04-11T14:21:38.998Z</time></trkpt><trkpt lat="45.486475738221934" lon="11.423047281022047"><ele>51.2</ele><time>2026-04-11T14:21:39.998Z</time></trkpt><trkpt lat="45.48647221961134" lon="11.42290116147809"><ele>51.8</ele><time>2026-04-11T14:21:40.998Z</time></trkpt><trkpt lat="45.48645942442477" lon="11.42277202043196"><ele>52.4</ele><time>2026-04-11T14:21:41.998Z</time></trkpt><trkpt lat="45.48642842722618" lon="11.422638132486878"><ele>53.0</ele><time>2026-04-11T14:21:42.998Z</time></trkpt><trkpt lat="45.486394280611556" lon="11.422504302670124"><ele>53.0</ele><time>2026-04-11T14:21:43.998Z</time></trkpt><trkpt lat="45.48637500113685" lon="11.422383507611354"><ele>53.0</ele><time>2026-04-11T14:21:44.998Z</time></trkpt><trkpt lat="45.48643755980186" lon="11.422190881500569"><ele>53.0</ele><time>2026-04-11T14:21:46.998Z</time></trkpt><trkpt lat="45.486494253890356" lon="11.422100947233837"><ele>53.0</ele><time>2026-04-11T14:21:47.998Z</time></trkpt><trkpt lat="45.48656219399508" lon="11.421971593902295"><ele>53.0</ele><time>2026-04-11T14:21:48.998Z</time></trkpt><trkpt lat="45.486647703691176" lon="11.42185294890592"><ele>54.0</ele><time>2026-04-11T14:21:49.998Z</time></trkpt><trkpt lat="45.4867462404599" lon="11.421713926482045"><ele>55.0</ele><time>2026-04-11T14:21:50.998Z</time></trkpt><trkpt lat="45.48687247404356" lon="11.42156102183068"><ele>56.0</ele><time>2026-04-11T14:21:51.998Z</time></trkpt><trkpt lat="45.48701369328368" lon="11.421420883988988"><ele>56.0</ele><time>2026-04-11T14:21:52.998Z</time></trkpt><trkpt lat="45.48717752698541" lon="11.421267318492161"><ele>56.0</ele><time>2026-04-11T14:21:53.998Z</time></trkpt><trkpt lat="45.48734413124884" lon="11.421081782105881"><ele>56.0</ele><time>2026-04-11T14:21:54.998Z</time></trkpt><trkpt lat="45.4875206731385" lon="11.420824436229173"><ele>56.0</ele><time>2026-04-11T14:21:55.998Z</time></trkpt><trkpt lat="45.48769984065717" lon="11.420514405152833"><ele>56.0</ele><time>2026-04-11T14:21:56.998Z</time></trkpt><trkpt lat="45.48789558525653" lon="11.420197569081726"><ele>56.0</ele><time>2026-04-11T14:21:57.998Z</time></trkpt><trkpt lat="45.488115272372404" lon="11.41987743228437"><ele>56.0</ele><time>2026-04-11T14:21:58.998Z</time></trkpt><trkpt lat="45.488341606201665" lon="11.419545655384706"><ele>56.0</ele><time>2026-04-11T14:21:59.998Z</time></trkpt><trkpt lat="45.48857152848179" lon="11.419197408549566"><ele>56.0</ele><time>2026-04-11T14:22:00.998Z</time></trkpt><trkpt lat="45.48879790988746" lon="11.418839486883332"><ele>57.0</ele><time>2026-04-11T14:22:01.998Z</time></trkpt><trkpt lat="45.48900012758915" lon="11.418484546176883"><ele>58.0</ele><time>2026-04-11T14:22:02.998Z</time></trkpt><trkpt lat="45.48917639682221" lon="11.418146968856313"><ele>58.5</ele><time>2026-04-11T14:22:03.998Z</time></trkpt><trkpt lat="45.48935222548051" lon="11.41780038434755"><ele>59.0</ele><time>2026-04-11T14:22:04.998Z</time></trkpt><trkpt lat="45.48954936277634" lon="11.41745049443957"><ele>59.0</ele><time>2026-04-11T14:22:05.998Z</time></trkpt><trkpt lat="45.48976993580079" lon="11.417096524772566"><ele>59.0</ele><time>2026-04-11T14:22:06.998Z</time></trkpt><trkpt lat="45.49000624360204" lon="11.41675489076482"><ele>59.0</ele><time>2026-04-11T14:22:07.998Z</time></trkpt><trkpt lat="45.49024956235549" lon="11.416412508453803"><ele>59.0</ele><time>2026-04-11T14:22:08.998Z</time></trkpt><trkpt lat="45.49048842475844" lon="11.416067031169103"><ele>58.0</ele><time>2026-04-11T14:22:09.998Z</time></trkpt><trkpt lat="45.49072209290095" lon="11.41573379639064"><ele>57.0</ele><time>2026-04-11T14:22:10.998Z</time></trkpt><trkpt lat="45.490957733259556" lon="11.415388550435605"><ele>57.0</ele><time>2026-04-11T14:22:11.998Z</time></trkpt><trkpt lat="45.491204535560136" lon="11.41502778015092"><ele>57.0</ele><time>2026-04-11T14:22:12.998Z</time></trkpt><trkpt lat="45.491441535055856" lon="11.414682420581281"><ele>56.5</ele><time>2026-04-11T14:22:13.998Z</time></trkpt><trkpt lat="45.49165876406044" lon="11.41436783229678"><ele>56.0</ele><time>2026-04-11T14:22:14.998Z</time></trkpt><trkpt lat="45.49187605317493" lon="11.414066817242071"><ele>56.0</ele><time>2026-04-11T14:22:15.998Z</time></trkpt><trkpt lat="45.492085279436026" lon="11.41375705475895"><ele>56.0</ele><time>2026-04-11T14:22:16.998Z</time></trkpt><trkpt lat="45.492296329207534" lon="11.413452347534028"><ele>56.0</ele><time>2026-04-11T14:22:18Z</time></trkpt><trkpt lat="45.49250683512398" lon="11.41315199799765"><ele>56.0</ele><time>2026-04-11T14:22:19Z</time></trkpt><trkpt lat="45.492716573440504" lon="11.412851498579144"><ele>57.5</ele><time>2026-04-11T14:22:20Z</time></trkpt><trkpt lat="45.492925839957216" lon="11.412553985721322"><ele>59.0</ele><time>2026-04-11T14:22:21Z</time></trkpt><trkpt lat="45.493134959510975" lon="11.412255177713828"><ele>59.0</ele><time>2026-04-11T14:22:22Z</time></trkpt><trkpt lat="45.49334749750612" lon="11.411946213388575"><ele>59.0</ele><time>2026-04-11T14:22:23Z</time></trkpt><trkpt lat="45.493561652549275" lon="11.411637560905634"><ele>58.5</ele><time>2026-04-11T14:22:24Z</time></trkpt><trkpt lat="45.49377286219706" lon="11.411321318883502"><ele>58.0</ele><time>2026-04-11T14:22:25Z</time></trkpt><trkpt lat="45.49398167514063" lon="11.41102343015336"><ele>58.0</ele><time>2026-04-11T14:22:26Z</time></trkpt><trkpt lat="45.49418733966837" lon="11.410720909691248"><ele>58.0</ele><time>2026-04-11T14:22:27Z</time></trkpt><trkpt lat="45.494389568753604" lon="11.41043465079526"><ele>59.5</ele><time>2026-04-11T14:22:28Z</time></trkpt><trkpt lat="45.494593622106564" lon="11.410141365050908"><ele>61.0</ele><time>2026-04-11T14:22:29Z</time></trkpt><trkpt lat="45.49479585153558" lon="11.409849093210369"><ele>61.5</ele><time>2026-04-11T14:22:30Z</time></trkpt><trkpt lat="45.49499905886682" lon="11.409557828559526"><ele>62.0</ele><time>2026-04-11T14:22:31Z</time></trkpt><trkpt lat="45.49520060672603" lon="11.40926815386394"><ele>62.0</ele><time>2026-04-11T14:22:32Z</time></trkpt><trkpt lat="45.49540279676734" lon="11.408968674363305"><ele>62.0</ele><time>2026-04-11T14:22:33Z</time></trkpt><trkpt lat="45.495605243835364" lon="11.408676588647817"><ele>61.0</ele><time>2026-04-11T14:22:34Z</time></trkpt><trkpt lat="45.495805705842294" lon="11.4083733789943"><ele>60.0</ele><time>2026-04-11T14:22:35Z</time></trkpt><trkpt lat="45.49600942861987" lon="11.408056101708823"><ele>59.5</ele><time>2026-04-11T14:22:36Z</time></trkpt><trkpt lat="45.496212381393924" lon="11.407717495437659"><ele>59.0</ele><time>2026-04-11T14:22:37Z</time></trkpt><trkpt lat="45.49640754178554" lon="11.407349341124153"><ele>60.5</ele><time>2026-04-11T14:22:38Z</time></trkpt><trkpt lat="45.496597992339375" lon="11.406961412198855"><ele>62.0</ele><time>2026-04-11T14:22:39Z</time></trkpt><trkpt lat="45.496821471980674" lon="11.406598797897953"><ele>62.0</ele><time>2026-04-11T14:22:40Z</time></trkpt><trkpt lat="45.49701976183293" lon="11.406189240814385"><ele>62.0</ele><time>2026-04-11T14:22:41Z</time></trkpt><trkpt lat="45.49720045134172" lon="11.405804299126684"><ele>63.0</ele><time>2026-04-11T14:22:42Z</time></trkpt><trkpt lat="45.49727936633481" lon="11.405319135998115"><ele>64.0</ele><time>2026-04-11T14:22:43Z</time></trkpt><trkpt lat="45.497435092512546" lon="11.404906598252103"><ele>66.0</ele><time>2026-04-11T14:22:44Z</time></trkpt><trkpt lat="45.49759746999881" lon="11.404482080606341"><ele>68.0</ele><time>2026-04-11T14:22:45Z</time></trkpt><trkpt lat="45.49776736312364" lon="11.404054777102358"><ele>68.0</ele><time>2026-04-11T14:22:46Z</time></trkpt><trkpt lat="45.497938165012606" lon="11.403619779188679"><ele>68.0</ele><time>2026-04-11T14:22:47Z</time></trkpt><trkpt lat="45.49810341785074" lon="11.403189792557916"><ele>67.0</ele><time>2026-04-11T14:22:48Z</time></trkpt><trkpt lat="45.4982663800914" lon="11.402767397182176"><ele>66.0</ele><time>2026-04-11T14:22:49Z</time></trkpt><trkpt lat="45.49842834309128" lon="11.402346884070708"><ele>66.5</ele><time>2026-04-11T14:22:50Z</time></trkpt><trkpt lat="45.4985868755506" lon="11.401926664065265"><ele>67.0</ele><time>2026-04-11T14:22:51Z</time></trkpt><trkpt lat="45.498735613055665" lon="11.401508591785706"><ele>65.5</ele><time>2026-04-11T14:22:52Z</time></trkpt><trkpt lat="45.49890609025703" lon="11.401091344650073"><ele>64.0</ele><time>2026-04-11T14:22:53Z</time></trkpt><trkpt lat="45.499065176442464" lon="11.400677379632683"><ele>64.5</ele><time>2026-04-11T14:22:53.999Z</time></trkpt><trkpt lat="45.49922668862971" lon="11.400263899516897"><ele>65.0</ele><time>2026-04-11T14:22:54.999Z</time></trkpt><trkpt lat="45.499390095851204" lon="11.39984514934994"><ele>65.0</ele><time>2026-04-11T14:22:55.999Z</time></trkpt><trkpt lat="45.499554847586964" lon="11.39942858503875"><ele>65.0</ele><time>2026-04-11T14:22:56.999Z</time></trkpt><trkpt lat="45.49972091288887" lon="11.39900863920935"><ele>64.5</ele><time>2026-04-11T14:22:57.999Z</time></trkpt><trkpt lat="45.49990618479381" lon="11.398602919556776"><ele>64.0</ele><time>2026-04-11T14:22:58.999Z</time></trkpt><trkpt lat="45.50010743774975" lon="11.398205418140396"><ele>65.5</ele><time>2026-04-11T14:22:59.999Z</time></trkpt><trkpt lat="45.5003161373213" lon="11.397823837823204"><ele>67.0</ele><time>2026-04-11T14:23:00.999Z</time></trkpt><trkpt lat="45.50054219531616" lon="11.397452029744265"><ele>67.5</ele><time>2026-04-11T14:23:01.999Z</time></trkpt><trkpt lat="45.50077509036235" lon="11.397098622712912"><ele>68.0</ele><time>2026-04-11T14:23:02.999Z</time></trkpt><trkpt lat="45.50101665869119" lon="11.396763115556476"><ele>69.0</ele><time>2026-04-11T14:23:03.999Z</time></trkpt><trkpt lat="45.5012643946183" lon="11.396447394858875"><ele>70.0</ele><time>2026-04-11T14:23:04.999Z</time></trkpt><trkpt lat="45.501516906919214" lon="11.396151407838467"><ele>70.0</ele><time>2026-04-11T14:23:05.999Z</time></trkpt><trkpt lat="45.50176841478167" lon="11.395884538308852"><ele>70.0</ele><time>2026-04-11T14:23:06.999Z</time></trkpt><trkpt lat="45.50203264662441" lon="11.3956090498365"><ele>68.5</ele><time>2026-04-11T14:23:07.999Z</time></trkpt><trkpt lat="45.50230885215677" lon="11.395352041741477"><ele>67.0</ele><time>2026-04-11T14:23:08.999Z</time></trkpt><trkpt lat="45.502586983666504" lon="11.395106155950733"><ele>67.0</ele><time>2026-04-11T14:23:09.999Z</time></trkpt><trkpt lat="45.502860675923884" lon="11.39487069660121"><ele>67.0</ele><time>2026-04-11T14:23:10.999Z</time></trkpt><trkpt lat="45.50312711852069" lon="11.394635563895465"><ele>67.0</ele><time>2026-04-11T14:23:11.999Z</time></trkpt><trkpt lat="45.50339089376254" lon="11.39439945637312"><ele>67.0</ele><time>2026-04-11T14:23:12.999Z</time></trkpt><trkpt lat="45.50365458135516" lon="11.394168132171144"><ele>67.5</ele><time>2026-04-11T14:23:13.999Z</time></trkpt><trkpt lat="45.50391728290328" lon="11.393938179001232"><ele>68.0</ele><time>2026-04-11T14:23:14.999Z</time></trkpt><trkpt lat="45.504179484906395" lon="11.393711743035919"><ele>68.5</ele><time>2026-04-11T14:23:15.999Z</time></trkpt><trkpt lat="45.50443968744287" lon="11.393484270608997"><ele>69.0</ele><time>2026-04-11T14:23:16.999Z</time></trkpt><trkpt lat="45.50469620956216" lon="11.39326073582826"><ele>70.0</ele><time>2026-04-11T14:23:17.999Z</time></trkpt><trkpt lat="45.50494966473398" lon="11.393038536036327"><ele>71.0</ele><time>2026-04-11T14:23:18.999Z</time></trkpt><trkpt lat="45.50520144760042" lon="11.392818650766358"><ele>70.5</ele><time>2026-04-11T14:23:19.999Z</time></trkpt><trkpt lat="45.50544890499664" lon="11.392598045740925"><ele>70.0</ele><time>2026-04-11T14:23:20.999Z</time></trkpt><trkpt lat="45.50569989200266" lon="11.392374743665902"><ele>70.0</ele><time>2026-04-11T14:23:21.999Z</time></trkpt><trkpt lat="45.505948466617575" lon="11.392154167223703"><ele>70.0</ele><time>2026-04-11T14:23:22.999Z</time></trkpt><trkpt lat="45.506196150941896" lon="11.391934806481618"><ele>69.5</ele><time>2026-04-11T14:23:23.999Z</time></trkpt><trkpt lat="45.5064405671257" lon="11.391717897703973"><ele>69.0</ele><time>2026-04-11T14:23:24.999Z</time></trkpt><trkpt lat="45.50668549082736" lon="11.391503346796533"><ele>70.5</ele><time>2026-04-11T14:23:25.999Z</time></trkpt><trkpt lat="45.506925409611846" lon="11.391292189748288"><ele>72.0</ele><time>2026-04-11T14:23:26.999Z</time></trkpt><trkpt lat="45.50714536884755" lon="11.391096433702662"><ele>72.0</ele><time>2026-04-11T14:23:27.999Z</time></trkpt><trkpt lat="45.50734983718321" lon="11.39091345862525"><ele>72.0</ele><time>2026-04-11T14:23:28.999Z</time></trkpt><trkpt lat="45.50754797924358" lon="11.390736947026795"><ele>72.0</ele><time>2026-04-11T14:23:29.999Z</time></trkpt><trkpt lat="45.50773489788951" lon="11.39056079515041"><ele>72.0</ele><time>2026-04-11T14:23:30.999Z</time></trkpt><trkpt lat="45.50792488041679" lon="11.3903957643149"><ele>72.0</ele><time>2026-04-11T14:23:31.999Z</time></trkpt><trkpt lat="45.508102240937575" lon="11.390242632771631"><ele>73.0</ele><time>2026-04-11T14:23:32.999Z</time></trkpt><trkpt lat="45.50826423062962" lon="11.39010132035959"><ele>74.0</ele><time>2026-04-11T14:23:33.999Z</time></trkpt><trkpt lat="45.50841230136095" lon="11.389974388726543"><ele>75.0</ele><time>2026-04-11T14:23:34.999Z</time></trkpt><trkpt lat="45.50854871225807" lon="11.389859689103165"><ele>75.0</ele><time>2026-04-11T14:23:35.999Z</time></trkpt><trkpt lat="45.50867812290432" lon="11.389754110018599"><ele>75.0</ele><time>2026-04-11T14:23:36.999Z</time></trkpt><trkpt lat="45.508791130998816" lon="11.389666186374356"><ele>75.0</ele><time>2026-04-11T14:23:37.999Z</time></trkpt><trkpt lat="45.50889751181546" lon="11.389588856027832"><ele>75.0</ele><time>2026-04-11T14:23:38.999Z</time></trkpt><trkpt lat="45.508984438533055" lon="11.38953329618958"><ele>75.4</ele><time>2026-04-11T14:23:39.999Z</time></trkpt><trkpt lat="45.509054917809664" lon="11.389499409731386"><ele>75.8</ele><time>2026-04-11T14:23:40.999Z</time></trkpt><trkpt lat="45.50914536361127" lon="11.389467289374107"><ele>76.2</ele><time>2026-04-11T14:23:42.999Z</time></trkpt><trkpt lat="45.50925708404651" lon="11.38948257470249"><ele>76.6</ele><time>2026-04-11T14:23:44.998Z</time></trkpt><trkpt lat="45.50937426490997" lon="11.389575706046184"><ele>77.0</ele><time>2026-04-11T14:23:45.998Z</time></trkpt><trkpt lat="45.50949641852798" lon="11.38965972642847"><ele>76.75</ele><time>2026-04-11T14:23:46.998Z</time></trkpt><trkpt lat="45.509623779076215" lon="11.389710464843942"><ele>76.5</ele><time>2026-04-11T14:23:47.998Z</time></trkpt><trkpt lat="45.509776659909924" lon="11.389710273363841"><ele>76.25</ele><time>2026-04-11T14:23:48.998Z</time></trkpt><trkpt lat="45.50993262878942" lon="11.389669381684245"><ele>76.0</ele><time>2026-04-11T14:23:49.998Z</time></trkpt><trkpt lat="45.51007419260534" lon="11.389577937577874"><ele>76.0</ele><time>2026-04-11T14:23:50.998Z</time></trkpt><trkpt lat="45.510202268709534" lon="11.38943465570034"><ele>76.0</ele><time>2026-04-11T14:23:51.998Z</time></trkpt><trkpt lat="45.51030318327125" lon="11.389251500820126"><ele>76.0</ele><time>2026-04-11T14:23:52.998Z</time></trkpt><trkpt lat="45.51038001092791" lon="11.389055475765245"><ele>77.0</ele><time>2026-04-11T14:23:53.998Z</time></trkpt><trkpt lat="45.510429494188834" lon="11.388822422595034"><ele>78.0</ele><time>2026-04-11T14:23:54.998Z</time></trkpt><trkpt lat="45.51043783451053" lon="11.388558181095709"><ele>79.0</ele><time>2026-04-11T14:23:56.998Z</time></trkpt><trkpt lat="45.51039223352503" lon="11.388362430742163"><ele>79.0</ele><time>2026-04-11T14:23:57.998Z</time></trkpt><trkpt lat="45.51034890338563" lon="11.38816920747473"><ele>79.0</ele><time>2026-04-11T14:23:58.998Z</time></trkpt><trkpt lat="45.51024908801436" lon="11.388024743423802"><ele>79.0</ele><time>2026-04-11T14:23:59.998Z</time></trkpt><trkpt lat="45.510150201111486" lon="11.387893691184358"><ele>79.0</ele><time>2026-04-11T14:24:00.998Z</time></trkpt><trkpt lat="45.51003763966992" lon="11.387788243523682"><ele>79.5</ele><time>2026-04-11T14:24:01.998Z</time></trkpt><trkpt lat="45.50991314721971" lon="11.38771913447512"><ele>80.0</ele><time>2026-04-11T14:24:02.998Z</time></trkpt><trkpt lat="45.50978207040617" lon="11.387676601594785"><ele>80.5</ele><time>2026-04-11T14:24:03.998Z</time></trkpt><trkpt lat="45.509669113164996" lon="11.387586857728689"><ele>81.0</ele><time>2026-04-11T14:24:04.998Z</time></trkpt><trkpt lat="45.50956842711179" lon="11.387527897792884"><ele>80.5</ele><time>2026-04-11T14:24:05.998Z</time></trkpt><trkpt lat="45.50948923452189" lon="11.38743706071556"><ele>80.0</ele><time>2026-04-11T14:24:06.998Z</time></trkpt><trkpt lat="45.50943256292344" lon="11.387314469871075"><ele>79.5</ele><time>2026-04-11T14:24:07.998Z</time></trkpt><trkpt lat="45.509383967084176" lon="11.387155820393602"><ele>79.0</ele><time>2026-04-11T14:24:08.998Z</time></trkpt><trkpt lat="45.50936069556311" lon="11.386973828725848"><ele>79.0</ele><time>2026-04-11T14:24:09.998Z</time></trkpt><trkpt lat="45.50937942294232" lon="11.38677486633891"><ele>79.0</ele><time>2026-04-11T14:24:10.998Z</time></trkpt><trkpt lat="45.50938943028623" lon="11.386586634179814"><ele>79.0</ele><time>2026-04-11T14:24:11.998Z</time></trkpt><trkpt lat="45.509404708618675" lon="11.38639007863534"><ele>79.0</ele><time>2026-04-11T14:24:12.998Z</time></trkpt><trkpt lat="45.50942873558375" lon="11.386184784512096"><ele>79.66666666666666</ele><time>2026-04-11T14:24:13.998Z</time></trkpt><trkpt lat="45.50945925083644" lon="11.38597531715859"><ele>80.33333333333333</ele><time>2026-04-11T14:24:14.998Z</time></trkpt><trkpt lat="45.509496323609355" lon="11.385771145588238"><ele>81.0</ele><time>2026-04-11T14:24:15.998Z</time></trkpt><trkpt lat="45.50953808352092" lon="11.385557571434957"><ele>81.0</ele><time>2026-04-11T14:24:16.998Z</time></trkpt><trkpt lat="45.50958002134849" lon="11.385309556530833"><ele>81.0</ele><time>2026-04-11T14:24:17.998Z</time></trkpt><trkpt lat="45.50963033105269" lon="11.385085767281751"><ele>81.0</ele><time>2026-04-11T14:24:18.998Z</time></trkpt><trkpt lat="45.50968283502494" lon="11.384844907201355"><ele>80.33333333333333</ele><time>2026-04-11T14:24:19.998Z</time></trkpt><trkpt lat="45.509733246544904" lon="11.384603686721354"><ele>79.66666666666666</ele><time>2026-04-11T14:24:20.998Z</time></trkpt><trkpt lat="45.50978178499218" lon="11.384372821954974"><ele>79.0</ele><time>2026-04-11T14:24:21.998Z</time></trkpt><trkpt lat="45.50982838503918" lon="11.384135124548514"><ele>79.0</ele><time>2026-04-11T14:24:22.998Z</time></trkpt><trkpt lat="45.50987772086935" lon="11.383912779826286"><ele>79.0</ele><time>2026-04-11T14:24:24Z</time></trkpt><trkpt lat="45.50992687305073" lon="11.383707436513168"><ele>79.0</ele><time>2026-04-11T14:24:25Z</time></trkpt><trkpt lat="45.50997031797949" lon="11.383534131987949"><ele>79.0</ele><time>2026-04-11T14:24:26Z</time></trkpt><trkpt lat="45.51000745595059" lon="11.383383156523767"><ele>78.83333333333333</ele><time>2026-04-11T14:24:27Z</time></trkpt><trkpt lat="45.510034963988616" lon="11.383265083888643"><ele>78.66666666666666</ele><time>2026-04-11T14:24:28Z</time></trkpt><trkpt lat="45.510067493227425" lon="11.383168271210572"><ele>78.5</ele><time>2026-04-11T14:24:29Z</time></trkpt><trkpt lat="45.51014293383227" lon="11.383092089211297"><ele>78.33333333333333</ele><time>2026-04-11T14:24:31Z</time></trkpt><trkpt lat="45.510198142811326" lon="11.383027636759678"><ele>78.16666666666667</ele><time>2026-04-11T14:24:33Z</time></trkpt><trkpt lat="45.510210123500585" lon="11.382904370857327"><ele>78.0</ele><time>2026-04-11T14:25:02.999Z</time></trkpt><trkpt lat="45.51023168672896" lon="11.38275391024936"><ele>78.6</ele><time>2026-04-11T14:27:31.999Z</time></trkpt><trkpt lat="45.51021611003123" lon="11.382623594430244"><ele>79.19999999999999</ele><time>2026-04-11T14:27:33.999Z</time></trkpt><trkpt lat="45.51019206308211" lon="11.382519987825322"><ele>79.8</ele><time>2026-04-11T14:27:43.999Z</time></trkpt><trkpt lat="45.51019942775231" lon="11.382423328006272"><ele>80.39999999999999</ele><time>2026-04-11T14:27:44.999Z</time></trkpt><trkpt lat="45.510227628373435" lon="11.382287477748172"><ele>81.0</ele><time>2026-04-11T14:27:45.999Z</time></trkpt><trkpt lat="45.51026371927414" lon="11.382123007603235"><ele>81.0</ele><time>2026-04-11T14:27:46.999Z</time></trkpt><trkpt lat="45.51029993219031" lon="11.381954090320967"><ele>81.0</ele><time>2026-04-11T14:27:47.999Z</time></trkpt><trkpt lat="45.510331216087835" lon="11.381786183027579"><ele>81.0</ele><time>2026-04-11T14:27:48.999Z</time></trkpt><trkpt lat="45.51037748105822" lon="11.381582131753705"><ele>81.0</ele><time>2026-04-11T14:27:49.999Z</time></trkpt><trkpt lat="45.51043266042204" lon="11.381360633568494"><ele>81.33333333333333</ele><time>2026-04-11T14:27:50.999Z</time></trkpt><trkpt lat="45.5104738691156" lon="11.381115814130563"><ele>81.66666666666666</ele><time>2026-04-11T14:27:51.999Z</time></trkpt><trkpt lat="45.51053670450993" lon="11.380873571088836"><ele>82.0</ele><time>2026-04-11T14:27:52.999Z</time></trkpt><trkpt lat="45.510592235995595" lon="11.380628871181981"><ele>82.33333333333333</ele><time>2026-04-11T14:27:53.999Z</time></trkpt><trkpt lat="45.51065014921856" lon="11.380388728195188"><ele>82.66666666666667</ele><time>2026-04-11T14:27:54.999Z</time></trkpt><trkpt lat="45.51071356585305" lon="11.380160710725606"><ele>83.0</ele><time>2026-04-11T14:27:55.999Z</time></trkpt><trkpt lat="45.51078610000575" lon="11.379936417167086"><ele>83.0</ele><time>2026-04-11T14:27:56.999Z</time></trkpt><trkpt lat="45.510865737778175" lon="11.379721806387037"><ele>83.0</ele><time>2026-04-11T14:27:57.999Z</time></trkpt><trkpt lat="45.510945269959805" lon="11.379521811131944"><ele>83.0</ele><time>2026-04-11T14:27:58.999Z</time></trkpt><trkpt lat="45.511024111747375" lon="11.379311305202423"><ele>82.66666666666667</ele><time>2026-04-11T14:27:59.999Z</time></trkpt><trkpt lat="45.51110230523547" lon="11.379102595570673"><ele>82.33333333333333</ele><time>2026-04-11T14:28:00.999Z</time></trkpt><trkpt lat="45.51118360470144" lon="11.378880919132481"><ele>82.0</ele><time>2026-04-11T14:28:01.998Z</time></trkpt><trkpt lat="45.51125128571869" lon="11.378725592225424"><ele>82.0</ele><time>2026-04-11T14:28:02.998Z</time></trkpt><trkpt lat="45.511325039872595" lon="11.378538142769855"><ele>82.0</ele><time>2026-04-11T14:28:03.998Z</time></trkpt><trkpt lat="45.51139570838115" lon="11.378351355231349"><ele>82.0</ele><time>2026-04-11T14:28:04.998Z</time></trkpt><trkpt lat="45.511464301497064" lon="11.378173568682353"><ele>82.0</ele><time>2026-04-11T14:28:05.998Z</time></trkpt><trkpt lat="45.51153259161367" lon="11.377998090088564"><ele>82.75</ele><time>2026-04-11T14:28:06.998Z</time></trkpt><trkpt lat="45.51160136568376" lon="11.377823552961704"><ele>83.5</ele><time>2026-04-11T14:28:07.998Z</time></trkpt><trkpt lat="45.51167399058609" lon="11.377639390844589"><ele>84.25</ele><time>2026-04-11T14:28:08.998Z</time></trkpt><trkpt lat="45.51174304781648" lon="11.377450276397584"><ele>85.0</ele><time>2026-04-11T14:28:09.998Z</time></trkpt><trkpt lat="45.51181297942547" lon="11.377257751408886"><ele>84.66666666666666</ele><time>2026-04-11T14:28:10.998Z</time></trkpt><trkpt lat="45.51188453525493" lon="11.37706897882004"><ele>84.33333333333333</ele><time>2026-04-11T14:28:11.998Z</time></trkpt><trkpt lat="45.511957953930235" lon="11.376879615812518"><ele>84.0</ele><time>2026-04-11T14:28:12.998Z</time></trkpt><trkpt lat="45.512031227595685" lon="11.376683309748055"><ele>84.0</ele><time>2026-04-11T14:28:13.998Z</time></trkpt><trkpt lat="45.51209999288952" lon="11.376483131995732"><ele>84.0</ele><time>2026-04-11T14:28:14.998Z</time></trkpt><trkpt lat="45.512162629161864" lon="11.376260433550689"><ele>84.0</ele><time>2026-04-11T14:28:15.998Z</time></trkpt><trkpt lat="45.51221161797626" lon="11.376015309214052"><ele>84.0</ele><time>2026-04-11T14:28:16.998Z</time></trkpt><trkpt lat="45.51224172963898" lon="11.375749893207628"><ele>84.0</ele><time>2026-04-11T14:28:17.998Z</time></trkpt><trkpt lat="45.51227023525031" lon="11.375489618198957"><ele>84.0</ele><time>2026-04-11T14:28:18.998Z</time></trkpt><trkpt lat="45.512308041376954" lon="11.37524613190185"><ele>84.33333333333333</ele><time>2026-04-11T14:28:19.998Z</time></trkpt><trkpt lat="45.512376426247826" lon="11.375037572014378"><ele>84.66666666666666</ele><time>2026-04-11T14:28:20.998Z</time></trkpt><trkpt lat="45.51245619911985" lon="11.374827146749556"><ele>85.0</ele><time>2026-04-11T14:28:21.998Z</time></trkpt><trkpt lat="45.512545620381516" lon="11.374614871311264"><ele>84.33333333333333</ele><time>2026-04-11T14:28:22.998Z</time></trkpt><trkpt lat="45.512628476847105" lon="11.374382157076404"><ele>83.66666666666667</ele><time>2026-04-11T14:28:23.998Z</time></trkpt><trkpt lat="45.51273416603949" lon="11.374154258234137"><ele>83.0</ele><time>2026-04-11T14:28:24.998Z</time></trkpt><trkpt lat="45.51283659621654" lon="11.37392050749589"><ele>82.0</ele><time>2026-04-11T14:28:25.998Z</time></trkpt><trkpt lat="45.5129256504007" lon="11.37370586322453"><ele>81.0</ele><time>2026-04-11T14:28:26.998Z</time></trkpt><trkpt lat="45.51301211099113" lon="11.373509007314746"><ele>80.0</ele><time>2026-04-11T14:28:27.998Z</time></trkpt><trkpt lat="45.51309634851184" lon="11.37332110364677"><ele>80.0</ele><time>2026-04-11T14:28:28.998Z</time></trkpt><trkpt lat="45.51317994175422" lon="11.373133059256142"><ele>80.0</ele><time>2026-04-11T14:28:29.998Z</time></trkpt><trkpt lat="45.513261916251444" lon="11.372938252678317"><ele>80.0</ele><time>2026-04-11T14:28:30.998Z</time></trkpt><trkpt lat="45.513341513940695" lon="11.372758042297095"><ele>80.0</ele><time>2026-04-11T14:28:31.998Z</time></trkpt><trkpt lat="45.513419229709996" lon="11.372569380657543"><ele>80.0</ele><time>2026-04-11T14:28:32.998Z</time></trkpt><trkpt lat="45.513497722266855" lon="11.372367783655545"><ele>80.0</ele><time>2026-04-11T14:28:33.998Z</time></trkpt><trkpt lat="45.513566510141125" lon="11.372161298199064"><ele>80.0</ele><time>2026-04-11T14:28:34.998Z</time></trkpt><trkpt lat="45.513618236906055" lon="11.371944412981575"><ele>80.0</ele><time>2026-04-11T14:28:36Z</time></trkpt><trkpt lat="45.51365177705923" lon="11.371721325250348"><ele>80.0</ele><time>2026-04-11T14:28:37Z</time></trkpt><trkpt lat="45.51366455383824" lon="11.371510190261741"><ele>80.33333333333334</ele><time>2026-04-11T14:28:38Z</time></trkpt><trkpt lat="45.513673307032036" lon="11.371291845273847"><ele>80.66666666666667</ele><time>2026-04-11T14:28:39Z</time></trkpt><trkpt lat="45.51367713539813" lon="11.371047109768082"><ele>81.0</ele><time>2026-04-11T14:28:40Z</time></trkpt><trkpt lat="45.513675048929855" lon="11.37079816384385"><ele>81.0</ele><time>2026-04-11T14:28:41Z</time></trkpt><trkpt lat="45.51366978424872" lon="11.370544877583388"><ele>81.0</ele><time>2026-04-11T14:28:42Z</time></trkpt><trkpt lat="45.51366196366793" lon="11.370299354280414"><ele>81.0</ele><time>2026-04-11T14:28:43Z</time></trkpt><trkpt lat="45.51364890043742" lon="11.370065033208528"><ele>81.33333333333333</ele><time>2026-04-11T14:28:44Z</time></trkpt><trkpt lat="45.513643946823095" lon="11.369831394716103"><ele>81.66666666666666</ele><time>2026-04-11T14:28:45Z</time></trkpt><trkpt lat="45.513639294684914" lon="11.369594786179142"><ele>82.0</ele><time>2026-04-11T14:28:46Z</time></trkpt><trkpt lat="45.513632490382506" lon="11.369351233611589"><ele>82.0</ele><time>2026-04-11T14:28:47Z</time></trkpt><trkpt lat="45.513627865042295" lon="11.369102570521692"><ele>82.0</ele><time>2026-04-11T14:28:48Z</time></trkpt><trkpt lat="45.51362254679643" lon="11.368862604105965"><ele>82.0</ele><time>2026-04-11T14:28:49Z</time></trkpt><trkpt lat="45.51361663946064" lon="11.368624717590716"><ele>82.25</ele><time>2026-04-11T14:28:50Z</time></trkpt><trkpt lat="45.513606726306406" lon="11.36839246422265"><ele>82.5</ele><time>2026-04-11T14:28:51Z</time></trkpt><trkpt lat="45.513614048991165" lon="11.368177474910421"><ele>82.75</ele><time>2026-04-11T14:28:52Z</time></trkpt><trkpt lat="45.51361046266963" lon="11.367988686130357"><ele>83.0</ele><time>2026-04-11T14:28:53Z</time></trkpt><trkpt lat="45.5136070840865" lon="11.367810832584315"><ele>83.4</ele><time>2026-04-11T14:28:54Z</time></trkpt><trkpt lat="45.51360442184819" lon="11.367670688186196"><ele>83.80000000000001</ele><time>2026-04-11T14:28:55Z</time></trkpt><trkpt lat="45.513602276572286" lon="11.36755775756719"><ele>84.2</ele><time>2026-04-11T14:28:56Z</time></trkpt><trkpt lat="45.513600037421604" lon="11.367439885369595"><ele>84.6</ele><time>2026-04-11T14:28:58Z</time></trkpt><trkpt lat="45.51359832741292" lon="11.367349864028343"><ele>85.0</ele><time>2026-04-11T14:29:11Z</time></trkpt><trkpt lat="45.51346804882237" lon="11.367333830792127"><ele>85.0</ele><time>2026-04-11T14:29:12Z</time></trkpt><trkpt lat="45.51334298849372" lon="11.367382821040298"><ele>85.0</ele><time>2026-04-11T14:29:13Z</time></trkpt><trkpt lat="45.51321558252458" lon="11.36742240236936"><ele>85.0</ele><time>2026-04-11T14:29:14Z</time></trkpt><trkpt lat="45.51305706347365" lon="11.367434968429832"><ele>85.0</ele><time>2026-04-11T14:29:15Z</time></trkpt><trkpt lat="45.51287944591195" lon="11.367442362727228"><ele>85.0</ele><time>2026-04-11T14:29:16Z</time></trkpt><trkpt lat="45.51268424388158" lon="11.367460698338318"><ele>85.0</ele><time>2026-04-11T14:29:17Z</time></trkpt><trkpt lat="45.512481134075536" lon="11.367483355959243"><ele>85.0</ele><time>2026-04-11T14:29:18Z</time></trkpt><trkpt lat="45.51227393009475" lon="11.367509475190232"><ele>86.0</ele><time>2026-04-11T14:29:19Z</time></trkpt><trkpt lat="45.512072485485916" lon="11.36753121550263"><ele>87.0</ele><time>2026-04-11T14:29:20Z</time></trkpt><trkpt lat="45.5118838062547" lon="11.367546258295155"><ele>88.0</ele><time>2026-04-11T14:29:21Z</time></trkpt><trkpt lat="45.51169070527511" lon="11.367547283167504"><ele>88.0</ele><time>2026-04-11T14:29:21.999Z</time></trkpt><trkpt lat="45.51149160287238" lon="11.367514054789407"><ele>88.0</ele><time>2026-04-11T14:29:22.999Z</time></trkpt><trkpt lat="45.511288051120026" lon="11.367500414720295"><ele>88.0</ele><time>2026-04-11T14:29:23.999Z</time></trkpt><trkpt lat="45.51109571609426" lon="11.36752189922602"><ele>87.66666666666666</ele><time>2026-04-11T14:29:24.999Z</time></trkpt><trkpt lat="45.510909713233865" lon="11.3675087780123"><ele>87.33333333333333</ele><time>2026-04-11T14:29:25.999Z</time></trkpt><trkpt lat="45.5107381973991" lon="11.367469312166223"><ele>87.0</ele><time>2026-04-11T14:29:26.999Z</time></trkpt><trkpt lat="45.51057992160817" lon="11.367465140447186"><ele>87.0</ele><time>2026-04-11T14:29:27.999Z</time></trkpt><trkpt lat="45.51041536474627" lon="11.367526314315763"><ele>87.0</ele><time>2026-04-11T14:29:28.999Z</time></trkpt><trkpt lat="45.51026324768994" lon="11.367635906880125"><ele>87.0</ele><time>2026-04-11T14:29:29.999Z</time></trkpt><trkpt lat="45.51013657881394" lon="11.367790157477447"><ele>86.66666666666667</ele><time>2026-04-11T14:29:30.999Z</time></trkpt><trkpt lat="45.510036027683604" lon="11.367969612941305"><ele>86.33333333333334</ele><time>2026-04-11T14:29:31.999Z</time></trkpt><trkpt lat="45.50996527005997" lon="11.368172599108918"><ele>86.0</ele><time>2026-04-11T14:29:32.999Z</time></trkpt><trkpt lat="45.50987209175822" lon="11.368315439207336"><ele>86.0</ele><time>2026-04-11T14:29:33.999Z</time></trkpt><trkpt lat="45.509768895382656" lon="11.368428473262536"><ele>86.0</ele><time>2026-04-11T14:29:34.999Z</time></trkpt><trkpt lat="45.50965692080774" lon="11.368539867595043"><ele>86.0</ele><time>2026-04-11T14:29:35.999Z</time></trkpt><trkpt lat="45.509503411735494" lon="11.368572744338094"><ele>86.0</ele><time>2026-04-11T14:29:36.999Z</time></trkpt><trkpt lat="45.50932120165573" lon="11.36865641524398"><ele>86.0</ele><time>2026-04-11T14:29:37.999Z</time></trkpt><trkpt lat="45.50913101703402" lon="11.368722977443806"><ele>86.0</ele><time>2026-04-11T14:29:38.999Z</time></trkpt><trkpt lat="45.50895917583051" lon="11.368817462682562"><ele>86.0</ele><time>2026-04-11T14:29:39.999Z</time></trkpt><trkpt lat="45.50880201980067" lon="11.368909786934541"><ele>85.0</ele><time>2026-04-11T14:29:40.999Z</time></trkpt><trkpt lat="45.50866086639247" lon="11.368993327790195"><ele>84.0</ele><time>2026-04-11T14:29:41.999Z</time></trkpt><trkpt lat="45.50854176344757" lon="11.36910587939084"><ele>83.0</ele><time>2026-04-11T14:29:42.999Z</time></trkpt><trkpt lat="45.508419851788005" lon="11.369185927348228"><ele>82.0</ele><time>2026-04-11T14:29:43.999Z</time></trkpt><trkpt lat="45.508314397820136" lon="11.369316543180132"><ele>82.0</ele><time>2026-04-11T14:29:44.999Z</time></trkpt><trkpt lat="45.50818756112156" lon="11.369443288478564"><ele>82.0</ele><time>2026-04-11T14:29:45.999Z</time></trkpt><trkpt lat="45.508074255574485" lon="11.369628363627154"><ele>82.0</ele><time>2026-04-11T14:29:46.999Z</time></trkpt><trkpt lat="45.50793690731536" lon="11.369818416586867"><ele>82.33333333333333</ele><time>2026-04-11T14:29:47.999Z</time></trkpt><trkpt lat="45.50777109831044" lon="11.369990826609529"><ele>82.66666666666667</ele><time>2026-04-11T14:29:48.999Z</time></trkpt><trkpt lat="45.5075759010031" lon="11.370140146410623"><ele>83.0</ele><time>2026-04-11T14:29:49.999Z</time></trkpt><trkpt lat="45.507370844723766" lon="11.37031360589019"><ele>83.0</ele><time>2026-04-11T14:29:50.999Z</time></trkpt><trkpt lat="45.507163446100186" lon="11.370489863585137"><ele>83.0</ele><time>2026-04-11T14:29:51.999Z</time></trkpt><trkpt lat="45.5069421472837" lon="11.37065644890608"><ele>82.0</ele><time>2026-04-11T14:29:52.999Z</time></trkpt><trkpt lat="45.50672611997985" lon="11.370803031978786"><ele>81.0</ele><time>2026-04-11T14:29:53.999Z</time></trkpt><trkpt lat="45.50651885590038" lon="11.370934144111812"><ele>81.0</ele><time>2026-04-11T14:29:54.999Z</time></trkpt><trkpt lat="45.506312314604806" lon="11.37107463834598"><ele>81.0</ele><time>2026-04-11T14:29:55.999Z</time></trkpt><trkpt lat="45.50612029058246" lon="11.371257099942502"><ele>82.0</ele><time>2026-04-11T14:29:56.999Z</time></trkpt><trkpt lat="45.505950300489665" lon="11.371500725942223"><ele>83.0</ele><time>2026-04-11T14:29:57.999Z</time></trkpt><trkpt lat="45.50578124713643" lon="11.371728765767658"><ele>83.0</ele><time>2026-04-11T14:29:58.999Z</time></trkpt><trkpt lat="45.50556951586128" lon="11.371884338000978"><ele>83.0</ele><time>2026-04-11T14:29:59.999Z</time></trkpt><trkpt lat="45.50537409538141" lon="11.372038823709447"><ele>82.33333333333334</ele><time>2026-04-11T14:30:00.999Z</time></trkpt><trkpt lat="45.50518389014995" lon="11.372204765226574"><ele>81.66666666666667</ele><time>2026-04-11T14:30:01.999Z</time></trkpt><trkpt lat="45.50498437044503" lon="11.37234143427951"><ele>81.0</ele><time>2026-04-11T14:30:02.999Z</time></trkpt><trkpt lat="45.50477260350028" lon="11.372436440741955"><ele>80.66666666666667</ele><time>2026-04-11T14:30:03.999Z</time></trkpt><trkpt lat="45.50456583349909" lon="11.372518335513018"><ele>80.33333333333334</ele><time>2026-04-11T14:30:04.999Z</time></trkpt><trkpt lat="45.50435456418648" lon="11.372613660700912"><ele>80.0</ele><time>2026-04-11T14:30:05.999Z</time></trkpt><trkpt lat="45.504131683517635" lon="11.372685455324346"><ele>80.0</ele><time>2026-04-11T14:30:06.998Z</time></trkpt><trkpt lat="45.50391973056275" lon="11.37277566328447"><ele>80.0</ele><time>2026-04-11T14:30:07.998Z</time></trkpt><trkpt lat="45.50371121440969" lon="11.372848842577275"><ele>80.0</ele><time>2026-04-11T14:30:08.998Z</time></trkpt><trkpt lat="45.503523511971224" lon="11.3728866485778"><ele>79.66666666666667</ele><time>2026-04-11T14:30:09.998Z</time></trkpt><trkpt lat="45.50334321032616" lon="11.372906245006119"><ele>79.33333333333333</ele><time>2026-04-11T14:30:10.998Z</time></trkpt><trkpt lat="45.50318064369771" lon="11.372973852331763"><ele>79.0</ele><time>2026-04-11T14:30:11.998Z</time></trkpt><trkpt lat="45.50303293186293" lon="11.373104650109031"><ele>79.33333333333333</ele><time>2026-04-11T14:30:12.998Z</time></trkpt><trkpt lat="45.50289958433883" lon="11.373231063606395"><ele>79.66666666666667</ele><time>2026-04-11T14:30:13.998Z</time></trkpt><trkpt lat="45.50279092203217" lon="11.37330474008714"><ele>80.0</ele><time>2026-04-11T14:30:14.998Z</time></trkpt><trkpt lat="45.50263319858304" lon="11.373492079170008"><ele>80.0</ele><time>2026-04-11T14:30:15.998Z</time></trkpt><trkpt lat="45.502480991834624" lon="11.37366827879512"><ele>80.0</ele><time>2026-04-11T14:30:16.998Z</time></trkpt><trkpt lat="45.50238693579397" lon="11.373883051810557"><ele>80.0</ele><time>2026-04-11T14:30:17.998Z</time></trkpt><trkpt lat="45.50229675459864" lon="11.37412452564463"><ele>80.0</ele><time>2026-04-11T14:30:18.998Z</time></trkpt><trkpt lat="45.50214981133792" lon="11.37428787232723"><ele>80.0</ele><time>2026-04-11T14:30:19.998Z</time></trkpt><trkpt lat="45.50199639663535" lon="11.374429083811036"><ele>80.0</ele><time>2026-04-11T14:30:20.998Z</time></trkpt><trkpt lat="45.50185990853213" lon="11.37455465840234"><ele>79.5</ele><time>2026-04-11T14:30:21.998Z</time></trkpt><trkpt lat="45.50173218886591" lon="11.374661692552166"><ele>79.0</ele><time>2026-04-11T14:30:22.998Z</time></trkpt><trkpt lat="45.50162468535117" lon="11.374768183290403"><ele>78.5</ele><time>2026-04-11T14:30:23.998Z</time></trkpt><trkpt lat="45.5015149296418" lon="11.374831678776161"><ele>78.0</ele><time>2026-04-11T14:30:24.998Z</time></trkpt><trkpt lat="45.50138316526907" lon="11.374837571154078"><ele>77.66666666666667</ele><time>2026-04-11T14:30:25.998Z</time></trkpt><trkpt lat="45.5012419983553" lon="11.374786643892813"><ele>77.33333333333334</ele><time>2026-04-11T14:30:26.998Z</time></trkpt><trkpt lat="45.50110774446879" lon="11.374665679061968"><ele>77.0</ele><time>2026-04-11T14:30:27.998Z</time></trkpt><trkpt lat="45.50100015303238" lon="11.374488038139367"><ele>77.66666666666667</ele><time>2026-04-11T14:30:28.998Z</time></trkpt><trkpt lat="45.50090566669004" lon="11.3742627476209"><ele>78.33333333333333</ele><time>2026-04-11T14:30:29.998Z</time></trkpt><trkpt lat="45.50082473620522" lon="11.374023256068455"><ele>79.0</ele><time>2026-04-11T14:30:30.998Z</time></trkpt><trkpt lat="45.50072483375351" lon="11.373783133050361"><ele>79.0</ele><time>2026-04-11T14:30:31.998Z</time></trkpt><trkpt lat="45.50062075625512" lon="11.373566699775026"><ele>79.0</ele><time>2026-04-11T14:30:32.998Z</time></trkpt><trkpt lat="45.50051990346068" lon="11.373342698304906"><ele>79.0</ele><time>2026-04-11T14:30:33.998Z</time></trkpt><trkpt lat="45.5003592581048" lon="11.373195865016575"><ele>78.33333333333333</ele><time>2026-04-11T14:30:34.998Z</time></trkpt><trkpt lat="45.50018569633583" lon="11.373079891378303"><ele>77.66666666666667</ele><time>2026-04-11T14:30:35.998Z</time></trkpt><trkpt lat="45.49999919104363" lon="11.372963366502612"><ele>77.0</ele><time>2026-04-11T14:30:36.998Z</time></trkpt><trkpt lat="45.49981344434805" lon="11.37282530782778"><ele>76.66666666666667</ele><time>2026-04-11T14:30:37.998Z</time></trkpt><trkpt lat="45.49962240302876" lon="11.372678457117834"><ele>76.33333333333333</ele><time>2026-04-11T14:30:38.998Z</time></trkpt><trkpt lat="45.499440535886954" lon="11.372543808220048"><ele>76.0</ele><time>2026-04-11T14:30:39.998Z</time></trkpt><trkpt lat="45.49925364038914" lon="11.3724110682725"><ele>76.33333333333333</ele><time>2026-04-11T14:30:40.998Z</time></trkpt><trkpt lat="45.499080517225536" lon="11.372290058144928"><ele>76.66666666666667</ele><time>2026-04-11T14:30:42Z</time></trkpt><trkpt lat="45.498912320346804" lon="11.372198341879834"><ele>77.0</ele><time>2026-04-11T14:30:43Z</time></trkpt><trkpt lat="45.49873916934038" lon="11.372125029628027"><ele>77.0</ele><time>2026-04-11T14:30:44Z</time></trkpt><trkpt lat="45.498564042152005" lon="11.372055118187767"><ele>77.0</ele><time>2026-04-11T14:30:45Z</time></trkpt><trkpt lat="45.49839684536383" lon="11.371938407726633"><ele>77.0</ele><time>2026-04-11T14:30:46Z</time></trkpt><trkpt lat="45.49825070578261" lon="11.37177089020284"><ele>77.0</ele><time>2026-04-11T14:30:47Z</time></trkpt><trkpt lat="45.49811943468402" lon="11.371570369353849"><ele>77.0</ele><time>2026-04-11T14:30:48Z</time></trkpt><trkpt lat="45.49799999547998" lon="11.371370502775296"><ele>77.0</ele><time>2026-04-11T14:30:49Z</time></trkpt><trkpt lat="45.49788068379157" lon="11.371183626290996"><ele>77.33333333333334</ele><time>2026-04-11T14:30:50Z</time></trkpt><trkpt lat="45.4977570697982" lon="11.37099997070411"><ele>77.66666666666667</ele><time>2026-04-11T14:30:51Z</time></trkpt><trkpt lat="45.497631424250216" lon="11.370813554982508"><ele>78.0</ele><time>2026-04-11T14:30:52Z</time></trkpt><trkpt lat="45.49751193503156" lon="11.37062759742223"><ele>78.0</ele><time>2026-04-11T14:30:53Z</time></trkpt><trkpt lat="45.49738737114921" lon="11.370433099351708"><ele>78.0</ele><time>2026-04-11T14:30:54Z</time></trkpt><trkpt lat="45.497259387405805" lon="11.370245561769565"><ele>78.0</ele><time>2026-04-11T14:30:55Z</time></trkpt><trkpt lat="45.49714187236092" lon="11.370074394089507"><ele>77.66666666666667</ele><time>2026-04-11T14:30:56Z</time></trkpt><trkpt lat="45.49702657973505" lon="11.369913701000812"><ele>77.33333333333334</ele><time>2026-04-11T14:30:57Z</time></trkpt><trkpt lat="45.496889068659605" lon="11.369793688049361"><ele>77.0</ele><time>2026-04-11T14:30:58Z</time></trkpt><trkpt lat="45.496725981051846" lon="11.369727763783713"><ele>77.0</ele><time>2026-04-11T14:30:59Z</time></trkpt><trkpt lat="45.49654806107765" lon="11.369694262220163"><ele>77.0</ele><time>2026-04-11T14:31:00Z</time></trkpt><trkpt lat="45.496390540519634" lon="11.369630309234232"><ele>77.0</ele><time>2026-04-11T14:31:01Z</time></trkpt><trkpt lat="45.496244617025305" lon="11.36953225983298"><ele>77.0</ele><time>2026-04-11T14:31:02Z</time></trkpt><trkpt lat="45.49611186459805" lon="11.36939048734419"><ele>77.0</ele><time>2026-04-11T14:31:03Z</time></trkpt><trkpt lat="45.495975357396325" lon="11.36922012310557"><ele>77.0</ele><time>2026-04-11T14:31:04Z</time></trkpt><trkpt lat="45.4958287318425" lon="11.369064214887278"><ele>77.0</ele><time>2026-04-11T14:31:05Z</time></trkpt><trkpt lat="45.49565137179942" lon="11.368925596612938"><ele>77.0</ele><time>2026-04-11T14:31:06Z</time></trkpt><trkpt lat="45.495460412521616" lon="11.368810439877947"><ele>77.0</ele><time>2026-04-11T14:31:07Z</time></trkpt><trkpt lat="45.495262331288984" lon="11.368697903716216"><ele>77.33333333333334</ele><time>2026-04-11T14:31:08Z</time></trkpt><trkpt lat="45.49507234772404" lon="11.368569292462261"><ele>77.66666666666667</ele><time>2026-04-11T14:31:09Z</time></trkpt><trkpt lat="45.494882338087564" lon="11.368422860864763"><ele>78.0</ele><time>2026-04-11T14:31:10Z</time></trkpt><trkpt lat="45.494701531304116" lon="11.368290648406736"><ele>78.33333333333333</ele><time>2026-04-11T14:31:11Z</time></trkpt><trkpt lat="45.49452829742884" lon="11.368171847208925"><ele>78.66666666666666</ele><time>2026-04-11T14:31:12Z</time></trkpt><trkpt lat="45.49436721331523" lon="11.368074526254624"><ele>79.0</ele><time>2026-04-11T14:31:13Z</time></trkpt><trkpt lat="45.4942201437914" lon="11.367999067187764"><ele>78.75</ele><time>2026-04-11T14:31:14Z</time></trkpt><trkpt lat="45.4940746061547" lon="11.367946881673436"><ele>78.5</ele><time>2026-04-11T14:31:15Z</time></trkpt><trkpt lat="45.493948686830834" lon="11.36791573149165"><ele>78.25</ele><time>2026-04-11T14:31:16Z</time></trkpt><trkpt lat="45.493836760925" lon="11.367925958946195"><ele>78.0</ele><time>2026-04-11T14:31:17Z</time></trkpt><trkpt lat="45.493733731788694" lon="11.367980063812713"><ele>78.0</ele><time>2026-04-11T14:31:18Z</time></trkpt><trkpt lat="45.49364495334709" lon="11.368102562713169"><ele>78.0</ele><time>2026-04-11T14:31:19Z</time></trkpt><trkpt lat="45.493568869900265" lon="11.368267158372527"><ele>78.0</ele><time>2026-04-11T14:31:20Z</time></trkpt><trkpt lat="45.49348945837077" lon="11.36843143902132"><ele>78.0</ele><time>2026-04-11T14:31:21Z</time></trkpt><trkpt lat="45.49340680808325" lon="11.368573407389878"><ele>78.0</ele><time>2026-04-11T14:31:22Z</time></trkpt><trkpt lat="45.49333087908847" lon="11.368699461068077"><ele>78.0</ele><time>2026-04-11T14:31:23Z</time></trkpt><trkpt lat="45.49326542056405" lon="11.368808771066105"><ele>78.0</ele><time>2026-04-11T14:31:24Z</time></trkpt><trkpt lat="45.493208190555464" lon="11.36889784524976"><ele>78.0</ele><time>2026-04-11T14:31:25Z</time></trkpt><trkpt lat="45.493157379685535" lon="11.368965633531381"><ele>78.0</ele><time>2026-04-11T14:31:26Z</time></trkpt><trkpt lat="45.4930523628989" lon="11.369010686138882"><ele>78.0</ele><time>2026-04-11T14:31:27.999Z</time></trkpt><trkpt lat="45.492947539706755" lon="11.368805160552272"><ele>78.0</ele><time>2026-04-11T14:31:30.999Z</time></trkpt><trkpt lat="45.49292268098035" lon="11.36866103596891"><ele>78.0</ele><time>2026-04-11T14:31:31.999Z</time></trkpt><trkpt lat="45.49289172070222" lon="11.368495134492967"><ele>78.0</ele><time>2026-04-11T14:31:32.999Z</time></trkpt><trkpt lat="45.492844981699605" lon="11.368293101672258"><ele>78.66666666666667</ele><time>2026-04-11T14:31:33.999Z</time></trkpt><trkpt lat="45.492799216928695" lon="11.36807496390398"><ele>79.33333333333334</ele><time>2026-04-11T14:31:34.999Z</time></trkpt><trkpt lat="45.4927549321011" lon="11.367841152515322"><ele>80.0</ele><time>2026-04-11T14:31:35.999Z</time></trkpt><trkpt lat="45.492707975517966" lon="11.367633609749289"><ele>80.2</ele><time>2026-04-11T14:31:36.999Z</time></trkpt><trkpt lat="45.492669676510964" lon="11.367457234469788"><ele>80.4</ele><time>2026-04-11T14:31:37.999Z</time></trkpt><trkpt lat="45.4926372056513" lon="11.367305500698109"><ele>80.6</ele><time>2026-04-11T14:31:38.999Z</time></trkpt><trkpt lat="45.49260978285119" lon="11.367168665494438"><ele>80.8</ele><time>2026-04-11T14:31:39.999Z</time></trkpt><trkpt lat="45.49258120406125" lon="11.367050773473236"><ele>81.0</ele><time>2026-04-11T14:31:40.999Z</time></trkpt><trkpt lat="45.492530102945594" lon="11.366965088307541"><ele>81.19999999999999</ele><time>2026-04-11T14:31:41.999Z</time></trkpt><trkpt lat="45.49245451745986" lon="11.366921835223051"><ele>81.39999999999999</ele><time>2026-04-11T14:31:42.999Z</time></trkpt><trkpt lat="45.492363366568256" lon="11.36692524847917"><ele>81.6</ele><time>2026-04-11T14:31:43.999Z</time></trkpt><trkpt lat="45.492277199200565" lon="11.366986636203935"><ele>81.8</ele><time>2026-04-11T14:31:44.999Z</time></trkpt><trkpt lat="45.492192163088994" lon="11.367076456952372"><ele>82.0</ele><time>2026-04-11T14:31:45.999Z</time></trkpt><trkpt lat="45.492091966381594" lon="11.36718670143984"><ele>81.33333333333333</ele><time>2026-04-11T14:31:46.999Z</time></trkpt><trkpt lat="45.491969296581274" lon="11.367302282400246"><ele>80.66666666666667</ele><time>2026-04-11T14:31:47.999Z</time></trkpt><trkpt lat="45.491825932445735" lon="11.367428117219958"><ele>80.0</ele><time>2026-04-11T14:31:48.999Z</time></trkpt><trkpt lat="45.491686877064815" lon="11.36755044251438"><ele>80.0</ele><time>2026-04-11T14:31:49.999Z</time></trkpt><trkpt lat="45.49153543434868" lon="11.36768088116354"><ele>80.0</ele><time>2026-04-11T14:31:50.999Z</time></trkpt><trkpt lat="45.491384471689074" lon="11.367805129348751"><ele>80.0</ele><time>2026-04-11T14:31:51.999Z</time></trkpt><trkpt lat="45.49124642465191" lon="11.367915297132837"><ele>80.0</ele><time>2026-04-11T14:31:52.999Z</time></trkpt><trkpt lat="45.49111679747014" lon="11.368017228007545"><ele>80.0</ele><time>2026-04-11T14:31:53.999Z</time></trkpt><trkpt lat="45.4909877056042" lon="11.368123878205466"><ele>80.0</ele><time>2026-04-11T14:31:54.999Z</time></trkpt><trkpt lat="45.49087414892034" lon="11.368220155527995"><ele>80.0</ele><time>2026-04-11T14:31:55.999Z</time></trkpt><trkpt lat="45.490774285214414" lon="11.3683023916936"><ele>80.0</ele><time>2026-04-11T14:31:56.999Z</time></trkpt><trkpt lat="45.49069111498662" lon="11.368368767149692"><ele>80.0</ele><time>2026-04-11T14:31:57.999Z</time></trkpt><trkpt lat="45.49061908864385" lon="11.368426777557342"><ele>80.0</ele><time>2026-04-11T14:31:58.999Z</time></trkpt><trkpt lat="45.49054862798221" lon="11.368458615446109"><ele>80.0</ele><time>2026-04-11T14:31:59.999Z</time></trkpt><trkpt lat="45.4904754120288" lon="11.368445223126475"><ele>80.0</ele><time>2026-04-11T14:32:00.999Z</time></trkpt><trkpt lat="45.490413224867616" lon="11.36837990562544"><ele>80.0</ele><time>2026-04-11T14:32:01.999Z</time></trkpt><trkpt lat="45.49034348464851" lon="11.368294303154121"><ele>79.2</ele><time>2026-04-11T14:32:02.999Z</time></trkpt><trkpt lat="45.49027179304199" lon="11.368194103332897"><ele>78.4</ele><time>2026-04-11T14:32:03.999Z</time></trkpt><trkpt lat="45.490180830144666" lon="11.368137543484048"><ele>77.6</ele><time>2026-04-11T14:32:04.999Z</time></trkpt><trkpt lat="45.49007446547586" lon="11.36816038009565"><ele>76.8</ele><time>2026-04-11T14:32:05.999Z</time></trkpt><trkpt lat="45.489990684567644" lon="11.368261752961489"><ele>76.0</ele><time>2026-04-11T14:32:06.999Z</time></trkpt><trkpt lat="45.48994595920273" lon="11.368399689221583"><ele>76.0</ele><time>2026-04-11T14:32:07.999Z</time></trkpt><trkpt lat="45.4899467969432" lon="11.368555341399063"><ele>76.0</ele><time>2026-04-11T14:32:08.998Z</time></trkpt><trkpt lat="45.489963040458534" lon="11.368709663384031"><ele>76.0</ele><time>2026-04-11T14:32:09.998Z</time></trkpt><trkpt lat="45.4899474501553" lon="11.368866289497328"><ele>76.0</ele><time>2026-04-11T14:32:10.998Z</time></trkpt><trkpt lat="45.48994085474282" lon="11.3690214840423"><ele>76.0</ele><time>2026-04-11T14:32:11.998Z</time></trkpt><trkpt lat="45.48977448265892" lon="11.369130389473645"><ele>76.0</ele><time>2026-04-11T14:32:12.998Z</time></trkpt><trkpt lat="45.489656545649744" lon="11.36923812576345"><ele>76.0</ele><time>2026-04-11T14:32:13.998Z</time></trkpt><trkpt lat="45.48952749997011" lon="11.369372570909375"><ele>76.0</ele><time>2026-04-11T14:32:14.998Z</time></trkpt><trkpt lat="45.48938352986727" lon="11.369481384534213"><ele>76.0</ele><time>2026-04-11T14:32:15.998Z</time></trkpt><trkpt lat="45.48923821255238" lon="11.36961290399857"><ele>76.0</ele><time>2026-04-11T14:32:16.998Z</time></trkpt><trkpt lat="45.48909267676893" lon="11.369755588228688"><ele>76.0</ele><time>2026-04-11T14:32:17.998Z</time></trkpt><trkpt lat="45.488940815469434" lon="11.369910285490088"><ele>75.66666666666666</ele><time>2026-04-11T14:32:18.998Z</time></trkpt><trkpt lat="45.48878731615309" lon="11.370076755417132"><ele>75.33333333333333</ele><time>2026-04-11T14:32:19.998Z</time></trkpt><trkpt lat="45.488635202994445" lon="11.370251148004336"><ele>75.0</ele><time>2026-04-11T14:32:20.998Z</time></trkpt><trkpt lat="45.488479390616945" lon="11.37043559827591"><ele>75.66666666666667</ele><time>2026-04-11T14:32:21.998Z</time></trkpt><trkpt lat="45.48833376149915" lon="11.37060096514087"><ele>76.33333333333334</ele><time>2026-04-11T14:32:22.998Z</time></trkpt><trkpt lat="45.488190434777785" lon="11.370762719241673"><ele>77.0</ele><time>2026-04-11T14:32:23.998Z</time></trkpt><trkpt lat="45.488053816413455" lon="11.370923375640452"><ele>76.33333333333334</ele><time>2026-04-11T14:32:24.998Z</time></trkpt><trkpt lat="45.487906850515856" lon="11.37109551936094"><ele>75.66666666666667</ele><time>2026-04-11T14:32:25.998Z</time></trkpt><trkpt lat="45.487762670596155" lon="11.371262514711178"><ele>75.0</ele><time>2026-04-11T14:32:26.998Z</time></trkpt><trkpt lat="45.48761823318137" lon="11.37143162636648"><ele>75.0</ele><time>2026-04-11T14:32:27.998Z</time></trkpt><trkpt lat="45.48747335496413" lon="11.37160480323676"><ele>75.0</ele><time>2026-04-11T14:32:28.998Z</time></trkpt><trkpt lat="45.48732747840751" lon="11.371785097233671"><ele>75.0</ele><time>2026-04-11T14:32:29.998Z</time></trkpt><trkpt lat="45.48718055731905" lon="11.37196807519018"><ele>74.33333333333333</ele><time>2026-04-11T14:32:30.998Z</time></trkpt><trkpt lat="45.48703373691708" lon="11.372150754370235"><ele>73.66666666666666</ele><time>2026-04-11T14:32:31.998Z</time></trkpt><trkpt lat="45.486890181175596" lon="11.3723357908213"><ele>73.0</ele><time>2026-04-11T14:32:32.998Z</time></trkpt><trkpt lat="45.4867500025516" lon="11.372516737890848"><ele>73.0</ele><time>2026-04-11T14:32:33.998Z</time></trkpt><trkpt lat="45.48661032008396" lon="11.372697454565163"><ele>73.0</ele><time>2026-04-11T14:32:34.998Z</time></trkpt><trkpt lat="45.48646955371271" lon="11.372877243306586"><ele>73.0</ele><time>2026-04-11T14:32:35.998Z</time></trkpt><trkpt lat="45.48632886001255" lon="11.373065294441151"><ele>73.33333333333333</ele><time>2026-04-11T14:32:36.998Z</time></trkpt><trkpt lat="45.486191975142646" lon="11.373257402994275"><ele>73.66666666666667</ele><time>2026-04-11T14:32:37.998Z</time></trkpt><trkpt lat="45.4860553727905" lon="11.373452941283764"><ele>74.0</ele><time>2026-04-11T14:32:38.998Z</time></trkpt><trkpt lat="45.48591818278389" lon="11.373651254924088"><ele>74.0</ele><time>2026-04-11T14:32:39.998Z</time></trkpt><trkpt lat="45.48578503552475" lon="11.373846793937094"><ele>74.0</ele><time>2026-04-11T14:32:40.998Z</time></trkpt><trkpt lat="45.485656530382734" lon="11.374039714134211"><ele>74.0</ele><time>2026-04-11T14:32:41.998Z</time></trkpt><trkpt lat="45.485529335374785" lon="11.374226821809607"><ele>74.0</ele><time>2026-04-11T14:32:42.998Z</time></trkpt><trkpt lat="45.485399480978344" lon="11.374416065233223"><ele>74.0</ele><time>2026-04-11T14:32:43.998Z</time></trkpt><trkpt lat="45.485275703604856" lon="11.374605695553095"><ele>74.0</ele><time>2026-04-11T14:32:44.998Z</time></trkpt><trkpt lat="45.485147122886325" lon="11.374794329515545"><ele>74.0</ele><time>2026-04-11T14:32:45.998Z</time></trkpt><trkpt lat="45.48502130422461" lon="11.374965072104493"><ele>74.0</ele><time>2026-04-11T14:32:46.998Z</time></trkpt><trkpt lat="45.4848978224993" lon="11.37512456833516"><ele>74.0</ele><time>2026-04-11T14:32:48Z</time></trkpt><trkpt lat="45.484781387840236" lon="11.375270981195376"><ele>74.0</ele><time>2026-04-11T14:32:49Z</time></trkpt><trkpt lat="45.484657872088135" lon="11.3754133485897"><ele>74.0</ele><time>2026-04-11T14:32:50Z</time></trkpt><trkpt lat="45.48452606483112" lon="11.375563390622473"><ele>74.0</ele><time>2026-04-11T14:32:51Z</time></trkpt><trkpt lat="45.484391028153304" lon="11.375716507761814"><ele>74.33333333333334</ele><time>2026-04-11T14:32:52Z</time></trkpt><trkpt lat="45.48425352004504" lon="11.375870393637246"><ele>74.66666666666667</ele><time>2026-04-11T14:32:53Z</time></trkpt><trkpt lat="45.48411276746367" lon="11.37602389271629"><ele>75.0</ele><time>2026-04-11T14:32:54Z</time></trkpt><trkpt lat="45.48397320396661" lon="11.376183743377517"><ele>75.33333333333333</ele><time>2026-04-11T14:32:55Z</time></trkpt><trkpt lat="45.48382730709441" lon="11.376359491411222"><ele>75.66666666666666</ele><time>2026-04-11T14:32:56Z</time></trkpt><trkpt lat="45.48368532054538" lon="11.376523994144204"><ele>76.0</ele><time>2026-04-11T14:32:57Z</time></trkpt><trkpt lat="45.48353957797905" lon="11.376680312855827"><ele>74.0</ele><time>2026-04-11T14:32:58Z</time></trkpt><trkpt lat="45.483407485665296" lon="11.376827160673088"><ele>72.0</ele><time>2026-04-11T14:32:59Z</time></trkpt><trkpt lat="45.48327783170736" lon="11.376975172849425"><ele>70.0</ele><time>2026-04-11T14:33:00Z</time></trkpt><trkpt lat="45.48314107659087" lon="11.377122194471166"><ele>70.0</ele><time>2026-04-11T14:33:01Z</time></trkpt><trkpt lat="45.482996067015186" lon="11.3772645764372"><ele>70.0</ele><time>2026-04-11T14:33:02Z</time></trkpt><trkpt lat="45.482848617274655" lon="11.377409652694178"><ele>70.0</ele><time>2026-04-11T14:33:03Z</time></trkpt><trkpt lat="45.48269608875286" lon="11.377552789751116"><ele>70.0</ele><time>2026-04-11T14:33:04Z</time></trkpt><trkpt lat="45.48254417665429" lon="11.37768974274615"><ele>70.0</ele><time>2026-04-11T14:33:05Z</time></trkpt><trkpt lat="45.48237788429803" lon="11.377830691110061"><ele>70.0</ele><time>2026-04-11T14:33:06Z</time></trkpt><trkpt lat="45.48221139963456" lon="11.377970616517876"><ele>70.0</ele><time>2026-04-11T14:33:07Z</time></trkpt><trkpt lat="45.48205312590658" lon="11.378101830484939"><ele>70.0</ele><time>2026-04-11T14:33:08Z</time></trkpt><trkpt lat="45.48189926111789" lon="11.378221924087986"><ele>70.0</ele><time>2026-04-11T14:33:09Z</time></trkpt><trkpt lat="45.48174945546979" lon="11.3783463269234"><ele>70.0</ele><time>2026-04-11T14:33:10Z</time></trkpt><trkpt lat="45.481596256868556" lon="11.378467702136398"><ele>70.0</ele><time>2026-04-11T14:33:11Z</time></trkpt><trkpt lat="45.481439031971796" lon="11.378583943373819"><ele>70.0</ele><time>2026-04-11T14:33:12Z</time></trkpt><trkpt lat="45.48128155373298" lon="11.378698520971557"><ele>69.33333333333333</ele><time>2026-04-11T14:33:13Z</time></trkpt><trkpt lat="45.48112374021839" lon="11.37881733072895"><ele>68.66666666666667</ele><time>2026-04-11T14:33:14Z</time></trkpt><trkpt lat="45.480964908412815" lon="11.378939789672108"><ele>68.0</ele><time>2026-04-11T14:33:15Z</time></trkpt><trkpt lat="45.4808084744626" lon="11.379063246154322"><ele>67.66666666666667</ele><time>2026-04-11T14:33:16Z</time></trkpt><trkpt lat="45.480644114006786" lon="11.379193449206582"><ele>67.33333333333333</ele><time>2026-04-11T14:33:17Z</time></trkpt><trkpt lat="45.48049110204089" lon="11.379316036071756"><ele>67.0</ele><time>2026-04-11T14:33:18Z</time></trkpt><trkpt lat="45.480328639164995" lon="11.379446159811318"><ele>66.66666666666666</ele><time>2026-04-11T14:33:19Z</time></trkpt><trkpt lat="45.48017331845634" lon="11.379569103368981"><ele>66.33333333333333</ele><time>2026-04-11T14:33:20Z</time></trkpt><trkpt lat="45.480015962161715" lon="11.379688638685742"><ele>66.0</ele><time>2026-04-11T14:33:21Z</time></trkpt><trkpt lat="45.47986018714081" lon="11.379806556838469"><ele>66.0</ele><time>2026-04-11T14:33:22Z</time></trkpt><trkpt lat="45.4797016482036" lon="11.37992719989515"><ele>66.0</ele><time>2026-04-11T14:33:23Z</time></trkpt><trkpt lat="45.47954646984321" lon="11.380046972541704"><ele>66.0</ele><time>2026-04-11T14:33:24Z</time></trkpt><trkpt lat="45.479394532216475" lon="11.380166065709066"><ele>66.0</ele><time>2026-04-11T14:33:25Z</time></trkpt><trkpt lat="45.4792491027154" lon="11.380278852737415"><ele>66.0</ele><time>2026-04-11T14:33:26Z</time></trkpt><trkpt lat="45.47911272681742" lon="11.380381237782311"><ele>66.0</ele><time>2026-04-11T14:33:27Z</time></trkpt><trkpt lat="45.47897881706145" lon="11.380484134078806"><ele>66.66666666666667</ele><time>2026-04-11T14:33:28Z</time></trkpt><trkpt lat="45.47884138803734" lon="11.380588424834299"><ele>67.33333333333334</ele><time>2026-04-11T14:33:28.999Z</time></trkpt><trkpt lat="45.47870408165067" lon="11.380695345211048"><ele>68.0</ele><time>2026-04-11T14:33:29.999Z</time></trkpt><trkpt lat="45.47856747801123" lon="11.380797698821192"><ele>68.0</ele><time>2026-04-11T14:33:30.999Z</time></trkpt><trkpt lat="45.47843479483343" lon="11.38088304871965"><ele>68.0</ele><time>2026-04-11T14:33:31.999Z</time></trkpt><trkpt lat="45.47831449998087" lon="11.380949804730472"><ele>68.0</ele><time>2026-04-11T14:33:32.999Z</time></trkpt><trkpt lat="45.47819742709506" lon="11.381020997834312"><ele>68.0</ele><time>2026-04-11T14:33:33.999Z</time></trkpt><trkpt lat="45.47809666922166" lon="11.381093709315543"><ele>68.0</ele><time>2026-04-11T14:33:34.999Z</time></trkpt><trkpt lat="45.478004806841916" lon="11.381155680306815"><ele>68.0</ele><time>2026-04-11T14:33:35.999Z</time></trkpt><trkpt lat="45.477920544183135" lon="11.381192871533006"><ele>68.0</ele><time>2026-04-11T14:33:36.999Z</time></trkpt><trkpt lat="45.4778378039691" lon="11.381230028163793"><ele>68.0</ele><time>2026-04-11T14:33:37.999Z</time></trkpt><trkpt lat="45.477762779471796" lon="11.381271444055702"><ele>68.0</ele><time>2026-04-11T14:33:38.999Z</time></trkpt><trkpt lat="45.47763991212082" lon="11.381059703063885"><ele>67.5</ele><time>2026-04-11T14:33:39.999Z</time></trkpt><trkpt lat="45.477543178593216" lon="11.380942089738976"><ele>67.0</ele><time>2026-04-11T14:33:40.999Z</time></trkpt><trkpt lat="45.477428614706504" lon="11.380826724057904"><ele>66.5</ele><time>2026-04-11T14:33:41.999Z</time></trkpt><trkpt lat="45.47729918154677" lon="11.380709447731292"><ele>66.0</ele><time>2026-04-11T14:33:42.999Z</time></trkpt><trkpt lat="45.477168242619186" lon="11.380589245016349"><ele>65.66666666666667</ele><time>2026-04-11T14:33:43.999Z</time></trkpt><trkpt lat="45.47702617642031" lon="11.380475759345641"><ele>65.33333333333334</ele><time>2026-04-11T14:33:44.999Z</time></trkpt><trkpt lat="45.47686210163178" lon="11.380372365621836"><ele>65.0</ele><time>2026-04-11T14:33:45.999Z</time></trkpt><trkpt lat="45.47668856164286" lon="11.380277143717871"><ele>65.0</ele><time>2026-04-11T14:33:46.999Z</time></trkpt><trkpt lat="45.47651268969785" lon="11.380171664248754"><ele>65.0</ele><time>2026-04-11T14:33:47.999Z</time></trkpt><trkpt lat="45.47635251114713" lon="11.38008035099251"><ele>65.0</ele><time>2026-04-11T14:33:48.999Z</time></trkpt><trkpt lat="45.476199006259684" lon="11.379984521310954"><ele>65.0</ele><time>2026-04-11T14:33:49.999Z</time></trkpt><trkpt lat="45.476053245290906" lon="11.379895532180816"><ele>65.0</ele><time>2026-04-11T14:33:50.999Z</time></trkpt><trkpt lat="45.47591001655631" lon="11.379795689173267"><ele>65.0</ele><time>2026-04-11T14:33:51.999Z</time></trkpt><trkpt lat="45.4757744920801" lon="11.379664452895655"><ele>65.0</ele><time>2026-04-11T14:33:52.999Z</time></trkpt><trkpt lat="45.47564921523523" lon="11.37950899164191"><ele>65.0</ele><time>2026-04-11T14:33:53.999Z</time></trkpt><trkpt lat="45.47553702607871" lon="11.379327732791356"><ele>65.0</ele><time>2026-04-11T14:33:54.999Z</time></trkpt><trkpt lat="45.47546913765166" lon="11.379133155929967"><ele>65.0</ele><time>2026-04-11T14:33:55.999Z</time></trkpt><trkpt lat="45.47539238940394" lon="11.378979105472382"><ele>65.0</ele><time>2026-04-11T14:33:56.999Z</time></trkpt><trkpt lat="45.47534939604832" lon="11.378840241634911"><ele>65.0</ele><time>2026-04-11T14:33:57.999Z</time></trkpt><trkpt lat="45.47531777231189" lon="11.378729382020245"><ele>65.0</ele><time>2026-04-11T14:33:58.999Z</time></trkpt><trkpt lat="45.475298496498354" lon="11.378622409340192"><ele>65.0</ele><time>2026-04-11T14:33:59.999Z</time></trkpt><trkpt lat="45.47529931234133" lon="11.378495179183263"><ele>64.75</ele><time>2026-04-11T14:34:00.999Z</time></trkpt><trkpt lat="45.47530608185421" lon="11.378333340276894"><ele>64.5</ele><time>2026-04-11T14:34:01.999Z</time></trkpt><trkpt lat="45.47525704199753" lon="11.378165424204505"><ele>64.25</ele><time>2026-04-11T14:34:02.999Z</time></trkpt><trkpt lat="45.47516391498361" lon="11.378048045961101"><ele>64.0</ele><time>2026-04-11T14:34:03.999Z</time></trkpt><trkpt lat="45.47506534556445" lon="11.377980003456011"><ele>64.0</ele><time>2026-04-11T14:34:04.999Z</time></trkpt><trkpt lat="45.47510849584812" lon="11.377771851350616"><ele>64.0</ele><time>2026-04-11T14:34:05.999Z</time></trkpt><trkpt lat="45.47510572588998" lon="11.377601648115338"><ele>64.0</ele><time>2026-04-11T14:34:06.999Z</time></trkpt><trkpt lat="45.47509817557187" lon="11.377428835206313"><ele>64.0</ele><time>2026-04-11T14:34:07.999Z</time></trkpt><trkpt lat="45.47509856523403" lon="11.377234145139992"><ele>64.25</ele><time>2026-04-11T14:34:08.999Z</time></trkpt><trkpt lat="45.47509144852448" lon="11.37702627394404"><ele>64.5</ele><time>2026-04-11T14:34:09.998Z</time></trkpt><trkpt lat="45.47508598435096" lon="11.376817766355744"><ele>64.75</ele><time>2026-04-11T14:34:10.998Z</time></trkpt><trkpt lat="45.47508223706558" lon="11.376613200770635"><ele>65.0</ele><time>2026-04-11T14:34:11.998Z</time></trkpt><trkpt lat="45.47507714667027" lon="11.37641494866327"><ele>65.2</ele><time>2026-04-11T14:34:12.998Z</time></trkpt><trkpt lat="45.475074420510765" lon="11.376240048765993"><ele>65.4</ele><time>2026-04-11T14:34:13.998Z</time></trkpt><trkpt lat="45.47506996433022" lon="11.376090811435073"><ele>65.6</ele><time>2026-04-11T14:34:14.998Z</time></trkpt><trkpt lat="45.47506089794883" lon="11.375976679605797"><ele>65.8</ele><time>2026-04-11T14:34:15.998Z</time></trkpt><trkpt lat="45.47503562705338" lon="11.375829673559013"><ele>66.0</ele><time>2026-04-11T14:34:17.998Z</time></trkpt><trkpt lat="45.47504842212648" lon="11.375705081848112"><ele>66.0</ele><time>2026-04-11T14:34:19.998Z</time></trkpt><trkpt lat="45.47492022639496" lon="11.375585944661355"><ele>66.0</ele><time>2026-04-11T14:34:21.998Z</time></trkpt><trkpt lat="45.47484063547755" lon="11.375567396866026"><ele>66.0</ele><time>2026-04-11T14:34:22.998Z</time></trkpt><trkpt lat="45.474756109299" lon="11.375552373443938"><ele>66.0</ele><time>2026-04-11T14:34:23.998Z</time></trkpt><trkpt lat="45.4746816554827" lon="11.375513665518556"><ele>66.0</ele><time>2026-04-11T14:34:24.998Z</time></trkpt><trkpt lat="45.474610800530044" lon="11.375458825543944"><ele>66.2</ele><time>2026-04-11T14:34:25.998Z</time></trkpt><trkpt lat="45.474542357409206" lon="11.375366051543631"><ele>66.39999999999999</ele><time>2026-04-11T14:34:26.998Z</time></trkpt><trkpt lat="45.47450033153286" lon="11.375233120460042"><ele>66.6</ele><time>2026-04-11T14:34:27.998Z</time></trkpt><trkpt lat="45.47450690047158" lon="11.375072944689585"><ele>66.8</ele><time>2026-04-11T14:34:28.998Z</time></trkpt><trkpt lat="45.47447705031094" lon="11.3748996793711"><ele>67.0</ele><time>2026-04-11T14:34:29.998Z</time></trkpt><trkpt lat="45.474472808795994" lon="11.374722688193584"><ele>67.0</ele><time>2026-04-11T14:34:30.998Z</time></trkpt><trkpt lat="45.47445972615236" lon="11.37455437718995"><ele>67.0</ele><time>2026-04-11T14:34:31.998Z</time></trkpt><trkpt lat="45.47444801975294" lon="11.37440507560519"><ele>67.0</ele><time>2026-04-11T14:34:32.998Z</time></trkpt><trkpt lat="45.47443891351552" lon="11.374279091695545"><ele>67.0</ele><time>2026-04-11T14:34:33.998Z</time></trkpt><trkpt lat="45.474428439505836" lon="11.37417374454797"><ele>67.0</ele><time>2026-04-11T14:34:34.998Z</time></trkpt><trkpt lat="45.47436764982439" lon="11.374018428008114"><ele>67.0</ele><time>2026-04-11T14:34:36.998Z</time></trkpt><trkpt lat="45.47431120384753" lon="11.3739391924798"><ele>67.0</ele><time>2026-04-11T14:34:37.998Z</time></trkpt><trkpt lat="45.47423227846651" lon="11.373848766603421"><ele>67.0</ele><time>2026-04-11T14:34:38.998Z</time></trkpt><trkpt lat="45.47414872789531" lon="11.37374434776248"><ele>67.0</ele><time>2026-04-11T14:34:39.998Z</time></trkpt><trkpt lat="45.47406370205283" lon="11.373621277225086"><ele>67.0</ele><time>2026-04-11T14:34:40.998Z</time></trkpt><trkpt lat="45.47402107004585" lon="11.37347193814874"><ele>67.5</ele><time>2026-04-11T14:34:41.998Z</time></trkpt><trkpt lat="45.473984799512145" lon="11.373332102733277"><ele>68.0</ele><time>2026-04-11T14:34:42.998Z</time></trkpt><trkpt lat="45.47393383049365" lon="11.373212998301225"><ele>68.5</ele><time>2026-04-11T14:34:43.998Z</time></trkpt><trkpt lat="45.47390922171609" lon="11.373101068622192"><ele>69.0</ele><time>2026-04-11T14:34:44.998Z</time></trkpt><trkpt lat="45.47387120511811" lon="11.372970628066222"><ele>69.5</ele><time>2026-04-11T14:34:46.998Z</time></trkpt><trkpt lat="45.47384176697322" lon="11.372887981069365"><ele>70.0</ele><time>2026-04-11T14:34:49.998Z</time></trkpt><trkpt lat="45.47380045320745" lon="11.372756569226418"><ele>70.66666666666666</ele><time>2026-04-11T14:34:51.997Z</time></trkpt><trkpt lat="45.47362839596649" lon="11.372794172576322"><ele>71.33333333333333</ele><time>2026-04-11T14:34:52.997Z</time></trkpt><trkpt lat="45.47349945124036" lon="11.372808584027368"><ele>72.0</ele><time>2026-04-11T14:34:54Z</time></trkpt><trkpt lat="45.473347128962274" lon="11.37281180882408"><ele>72.0</ele><time>2026-04-11T14:34:55Z</time></trkpt><trkpt lat="45.47317765007574" lon="11.372790978464922"><ele>72.0</ele><time>2026-04-11T14:34:56Z</time></trkpt><trkpt lat="45.47299642373403" lon="11.372774591289534"><ele>72.0</ele><time>2026-04-11T14:34:57Z</time></trkpt><trkpt lat="45.472803942957206" lon="11.372780482276534"><ele>71.0</ele><time>2026-04-11T14:34:58Z</time></trkpt><trkpt lat="45.472616203553216" lon="11.372790841953494"><ele>70.0</ele><time>2026-04-11T14:34:59Z</time></trkpt><trkpt lat="45.47242490490649" lon="11.372829279688206"><ele>69.0</ele><time>2026-04-11T14:35:00Z</time></trkpt><trkpt lat="45.4722190459806" lon="11.372832155716086"><ele>68.66666666666667</ele><time>2026-04-11T14:35:01Z</time></trkpt><trkpt lat="45.47200672321306" lon="11.372803559436809"><ele>68.33333333333334</ele><time>2026-04-11T14:35:02Z</time></trkpt><trkpt lat="45.47181263106991" lon="11.37277043854653"><ele>68.0</ele><time>2026-04-11T14:35:03Z</time></trkpt><trkpt lat="45.47163072089154" lon="11.372747133871336"><ele>68.0</ele><time>2026-04-11T14:35:04Z</time></trkpt><trkpt lat="45.47144595018906" lon="11.372700567525188"><ele>68.0</ele><time>2026-04-11T14:35:05Z</time></trkpt><trkpt lat="45.471260337199745" lon="11.372616593369269"><ele>68.0</ele><time>2026-04-11T14:35:06Z</time></trkpt><trkpt lat="45.47109664901349" lon="11.37251203103912"><ele>68.25</ele><time>2026-04-11T14:35:07Z</time></trkpt><trkpt lat="45.47095350111053" lon="11.372429659029683"><ele>68.5</ele><time>2026-04-11T14:35:08Z</time></trkpt><trkpt lat="45.470833074882805" lon="11.372366470877317"><ele>68.75</ele><time>2026-04-11T14:35:09Z</time></trkpt><trkpt lat="45.470730501406464" lon="11.372317495720353"><ele>69.0</ele><time>2026-04-11T14:35:10Z</time></trkpt><trkpt lat="45.47062228295007" lon="11.372249864257693"><ele>69.0</ele><time>2026-04-11T14:35:11Z</time></trkpt><trkpt lat="45.470487334462014" lon="11.372232889421094"><ele>69.0</ele><time>2026-04-11T14:35:12Z</time></trkpt><trkpt lat="45.4703664748038" lon="11.372227966919814"><ele>69.0</ele><time>2026-04-11T14:35:13Z</time></trkpt><trkpt lat="45.470261565475624" lon="11.372272299529524"><ele>69.0</ele><time>2026-04-11T14:35:14Z</time></trkpt><trkpt lat="45.470164296248946" lon="11.372330537333367"><ele>69.0</ele><time>2026-04-11T14:35:15Z</time></trkpt><trkpt lat="45.47006453436679" lon="11.372378907666043"><ele>69.0</ele><time>2026-04-11T14:35:16Z</time></trkpt><trkpt lat="45.46995614531831" lon="11.372423983568547"><ele>69.0</ele><time>2026-04-11T14:35:17Z</time></trkpt><trkpt lat="45.46985622830094" lon="11.372467514036945"><ele>69.0</ele><time>2026-04-11T14:35:18Z</time></trkpt><trkpt lat="45.469769638825596" lon="11.372493127838222"><ele>69.0</ele><time>2026-04-11T14:35:19Z</time></trkpt><trkpt lat="45.469690194053435" lon="11.372479488817875"><ele>69.0</ele><time>2026-04-11T14:35:20Z</time></trkpt><trkpt lat="45.46962126707634" lon="11.37241412273065"><ele>69.0</ele><time>2026-04-11T14:35:21Z</time></trkpt><trkpt lat="45.46958830573664" lon="11.372286588016577"><ele>69.0</ele><time>2026-04-11T14:35:22Z</time></trkpt><trkpt lat="45.46951836298285" lon="11.372159345885967"><ele>69.0</ele><time>2026-04-11T14:35:23Z</time></trkpt><trkpt lat="45.46944753430839" lon="11.372001165817455"><ele>69.0</ele><time>2026-04-11T14:35:24Z</time></trkpt><trkpt lat="45.46935494645315" lon="11.371824762478473"><ele>70.0</ele><time>2026-04-11T14:35:25Z</time></trkpt><trkpt lat="45.46926118509887" lon="11.371638227829713"><ele>71.0</ele><time>2026-04-11T14:35:26Z</time></trkpt><trkpt lat="45.46915733345233" lon="11.371428752233621"><ele>72.0</ele><time>2026-04-11T14:35:27Z</time></trkpt><trkpt lat="45.46905188437249" lon="11.371215580518843"><ele>72.33333333333333</ele><time>2026-04-11T14:35:28Z</time></trkpt><trkpt lat="45.46894764255458" lon="11.371004247834358"><ele>72.66666666666666</ele><time>2026-04-11T14:35:29Z</time></trkpt><trkpt lat="45.46883476076481" lon="11.370775209834926"><ele>73.0</ele><time>2026-04-11T14:35:30Z</time></trkpt><trkpt lat="45.46872149062085" lon="11.370541161508191"><ele>76.66666666666666</ele><time>2026-04-11T14:35:31Z</time></trkpt><trkpt lat="45.46860839293169" lon="11.370305724698829"><ele>80.33333333333333</ele><time>2026-04-11T14:35:31.999Z</time></trkpt><trkpt lat="45.468488183657705" lon="11.37007135889451"><ele>84.0</ele><time>2026-04-11T14:35:32.999Z</time></trkpt><trkpt lat="45.46838130272239" lon="11.369831882593505"><ele>86.33333333333333</ele><time>2026-04-11T14:35:33.999Z</time></trkpt><trkpt lat="45.46835230030785" lon="11.369573207505333"><ele>88.66666666666666</ele><time>2026-04-11T14:35:34.999Z</time></trkpt><trkpt lat="45.46834564192391" lon="11.36929589257542"><ele>91.0</ele><time>2026-04-11T14:35:35.999Z</time></trkpt><trkpt lat="45.46834158746743" lon="11.368992841180601"><ele>91.33333333333333</ele><time>2026-04-11T14:35:36.999Z</time></trkpt><trkpt lat="45.46832847004379" lon="11.368692420818478"><ele>91.66666666666667</ele><time>2026-04-11T14:35:37.999Z</time></trkpt><trkpt lat="45.468307017426824" lon="11.368385568147591"><ele>92.0</ele><time>2026-04-11T14:35:38.999Z</time></trkpt><trkpt lat="45.4682593543511" lon="11.368057260610133"><ele>91.5</ele><time>2026-04-11T14:35:39.999Z</time></trkpt><trkpt lat="45.4681991851292" lon="11.367697804518656"><ele>91.0</ele><time>2026-04-11T14:35:40.999Z</time></trkpt><trkpt lat="45.46814731669554" lon="11.367340142698643"><ele>93.0</ele><time>2026-04-11T14:35:41.999Z</time></trkpt><trkpt lat="45.46809803118392" lon="11.366968575385306"><ele>95.0</ele><time>2026-04-11T14:35:42.999Z</time></trkpt><trkpt lat="45.46804195664178" lon="11.366600028583322"><ele>101.0</ele><time>2026-04-11T14:35:43.999Z</time></trkpt><trkpt lat="45.46797592257804" lon="11.366230674256082"><ele>107.0</ele><time>2026-04-11T14:35:44.999Z</time></trkpt><trkpt lat="45.46791348610838" lon="11.365905718755823"><ele>109.66666666666666</ele><time>2026-04-11T14:35:45.999Z</time></trkpt><trkpt lat="45.467858785058205" lon="11.365613566615737"><ele>112.33333333333334</ele><time>2026-04-11T14:35:46.999Z</time></trkpt><trkpt lat="45.46782106657547" lon="11.36535031198623"><ele>115.0</ele><time>2026-04-11T14:35:47.999Z</time></trkpt><trkpt lat="45.46783732295722" lon="11.365109647500704"><ele>115.25</ele><time>2026-04-11T14:35:48.999Z</time></trkpt><trkpt lat="45.467833444494154" lon="11.364893870957834"><ele>115.5</ele><time>2026-04-11T14:35:49.999Z</time></trkpt><trkpt lat="45.46785128381108" lon="11.364724915494474"><ele>115.75</ele><time>2026-04-11T14:35:50.999Z</time></trkpt><trkpt lat="45.46785020251375" lon="11.364586296592481"><ele>116.0</ele><time>2026-04-11T14:35:51.999Z</time></trkpt><trkpt lat="45.467840775873874" lon="11.36446521563551"><ele>114.8</ele><time>2026-04-11T14:35:52.999Z</time></trkpt><trkpt lat="45.46783006948523" lon="11.364335779962355"><ele>113.6</ele><time>2026-04-11T14:35:53.999Z</time></trkpt><trkpt lat="45.46779845593233" lon="11.364198240183537"><ele>112.4</ele><time>2026-04-11T14:35:54.999Z</time></trkpt><trkpt lat="45.46774772634916" lon="11.36404538528547"><ele>111.2</ele><time>2026-04-11T14:35:55.999Z</time></trkpt><trkpt lat="45.467677380991454" lon="11.363881580113299"><ele>110.0</ele><time>2026-04-11T14:35:56.999Z</time></trkpt><trkpt lat="45.46758218280246" lon="11.36372270616735"><ele>107.33333333333333</ele><time>2026-04-11T14:35:57.999Z</time></trkpt><trkpt lat="45.46745852527803" lon="11.363576086515458"><ele>104.66666666666666</ele><time>2026-04-11T14:35:58.999Z</time></trkpt><trkpt lat="45.46731412966814" lon="11.363443352422054"><ele>102.0</ele><time>2026-04-11T14:35:59.999Z</time></trkpt><trkpt lat="45.46717226986545" lon="11.363327163095944"><ele>99.66666666666667</ele><time>2026-04-11T14:36:00.999Z</time></trkpt><trkpt lat="45.46702400781875" lon="11.363216977092295"><ele>97.33333333333334</ele><time>2026-04-11T14:36:01.999Z</time></trkpt><trkpt lat="45.46687238733106" lon="11.363112244632154"><ele>95.0</ele><time>2026-04-11T14:36:02.999Z</time></trkpt><trkpt lat="45.46671756224444" lon="11.363007765056345"><ele>91.33333333333334</ele><time>2026-04-11T14:36:03.999Z</time></trkpt><trkpt lat="45.46655957384544" lon="11.362894564295507"><ele>87.66666666666667</ele><time>2026-04-11T14:36:04.999Z</time></trkpt><trkpt lat="45.466411419527695" lon="11.36275800574103"><ele>84.0</ele><time>2026-04-11T14:36:05.999Z</time></trkpt><trkpt lat="45.46626842217853" lon="11.362610529204632"><ele>82.33333333333333</ele><time>2026-04-11T14:36:06.999Z</time></trkpt><trkpt lat="45.466133193760996" lon="11.362472256349662"><ele>80.66666666666666</ele><time>2026-04-11T14:36:07.999Z</time></trkpt><trkpt lat="45.466008300386775" lon="11.362314659803808"><ele>79.0</ele><time>2026-04-11T14:36:08.999Z</time></trkpt><trkpt lat="45.46589267264065" lon="11.36214071046094"><ele>76.66666666666666</ele><time>2026-04-11T14:36:09.999Z</time></trkpt><trkpt lat="45.46578997000075" lon="11.361959297805189"><ele>74.33333333333333</ele><time>2026-04-11T14:36:10.999Z</time></trkpt><trkpt lat="45.465703267289115" lon="11.36176857052041"><ele>72.0</ele><time>2026-04-11T14:36:11.999Z</time></trkpt><trkpt lat="45.465596398204" lon="11.361624193816127"><ele>72.0</ele><time>2026-04-11T14:36:12.998Z</time></trkpt><trkpt lat="45.46550791493548" lon="11.361492973305893"><ele>72.0</ele><time>2026-04-11T14:36:13.998Z</time></trkpt><trkpt lat="45.465419674543966" lon="11.361392804897836"><ele>72.0</ele><time>2026-04-11T14:36:14.998Z</time></trkpt><trkpt lat="45.46534780639691" lon="11.3613113588733"><ele>72.0</ele><time>2026-04-11T14:36:15.998Z</time></trkpt><trkpt lat="45.465296893853726" lon="11.361249954050518"><ele>72.0</ele><time>2026-04-11T14:36:16.998Z</time></trkpt><trkpt lat="45.46524184826581" lon="11.361176340505361"><ele>71.75</ele><time>2026-04-11T14:36:17.998Z</time></trkpt><trkpt lat="45.46516646953336" lon="11.361053407442734"><ele>71.5</ele><time>2026-04-11T14:36:18.998Z</time></trkpt><trkpt lat="45.465095026899576" lon="11.360889994580837"><ele>71.25</ele><time>2026-04-11T14:36:19.998Z</time></trkpt><trkpt lat="45.46504756789799" lon="11.360693439734636"><ele>71.0</ele><time>2026-04-11T14:36:20.998Z</time></trkpt><trkpt lat="45.46500204273326" lon="11.360477762858583"><ele>71.0</ele><time>2026-04-11T14:36:21.998Z</time></trkpt><trkpt lat="45.46493857506171" lon="11.360274686707275"><ele>71.0</ele><time>2026-04-11T14:36:22.998Z</time></trkpt><trkpt lat="45.46486052663615" lon="11.360083520415072"><ele>71.0</ele><time>2026-04-11T14:36:23.998Z</time></trkpt><trkpt lat="45.46473181432721" lon="11.359944765065515"><ele>70.5</ele><time>2026-04-11T14:36:24.998Z</time></trkpt><trkpt lat="45.464602071150274" lon="11.359816271087366"><ele>70.0</ele><time>2026-04-11T14:36:25.998Z</time></trkpt><trkpt lat="45.464494947150364" lon="11.359699510698805"><ele>69.5</ele><time>2026-04-11T14:36:26.998Z</time></trkpt><trkpt lat="45.46438866599188" lon="11.35960776058933"><ele>69.0</ele><time>2026-04-11T14:36:27.998Z</time></trkpt><trkpt lat="45.46426246070255" lon="11.359543585742562"><ele>69.0</ele><time>2026-04-11T14:36:28.998Z</time></trkpt><trkpt lat="45.46411802090804" lon="11.359458688250413"><ele>69.0</ele><time>2026-04-11T14:36:29.998Z</time></trkpt><trkpt lat="45.46397192082653" lon="11.359327310497317"><ele>69.0</ele><time>2026-04-11T14:36:30.998Z</time></trkpt><trkpt lat="45.463826577536715" lon="11.359175443872413"><ele>68.66666666666667</ele><time>2026-04-11T14:36:31.998Z</time></trkpt><trkpt lat="45.46368200888913" lon="11.359010997556526"><ele>68.33333333333334</ele><time>2026-04-11T14:36:32.998Z</time></trkpt><trkpt lat="45.46351799595426" lon="11.358855298666281"><ele>68.0</ele><time>2026-04-11T14:36:33.998Z</time></trkpt><trkpt lat="45.46336927045303" lon="11.358696463866766"><ele>68.0</ele><time>2026-04-11T14:36:34.998Z</time></trkpt><trkpt lat="45.463199245064956" lon="11.358578916032112"><ele>68.0</ele><time>2026-04-11T14:36:35.998Z</time></trkpt><trkpt lat="45.46300367027591" lon="11.358528748973608"><ele>68.0</ele><time>2026-04-11T14:36:36.998Z</time></trkpt><trkpt lat="45.46279379801256" lon="11.358492503740617"><ele>64.5</ele><time>2026-04-11T14:36:37.998Z</time></trkpt><trkpt lat="45.462564657644876" lon="11.358459019327961"><ele>61.0</ele><time>2026-04-11T14:36:38.998Z</time></trkpt><trkpt lat="45.46234256720355" lon="11.358432675291953"><ele>61.0</ele><time>2026-04-11T14:36:39.998Z</time></trkpt><trkpt lat="45.46210692794386" lon="11.358432349842955"><ele>61.0</ele><time>2026-04-11T14:36:40.998Z</time></trkpt><trkpt lat="45.46186630741805" lon="11.358469216174903"><ele>61.0</ele><time>2026-04-11T14:36:41.998Z</time></trkpt><trkpt lat="45.46161932799998" lon="11.358529832853424"><ele>61.0</ele><time>2026-04-11T14:36:42.998Z</time></trkpt><trkpt lat="45.46137138582574" lon="11.35860100960438"><ele>61.5</ele><time>2026-04-11T14:36:43.998Z</time></trkpt><trkpt lat="45.46112505021115" lon="11.358685463596764"><ele>62.0</ele><time>2026-04-11T14:36:44.998Z</time></trkpt><trkpt lat="45.46088130373753" lon="11.358759084997022"><ele>62.0</ele><time>2026-04-11T14:36:45.998Z</time></trkpt><trkpt lat="45.46065789281363" lon="11.358821501135084"><ele>62.0</ele><time>2026-04-11T14:36:46.998Z</time></trkpt><trkpt lat="45.46045131611677" lon="11.35888130333757"><ele>62.0</ele><time>2026-04-11T14:36:47.998Z</time></trkpt><trkpt lat="45.46025153377408" lon="11.358938859831706"><ele>60.333333333333336</ele><time>2026-04-11T14:36:48.998Z</time></trkpt><trkpt lat="45.46005905400728" lon="11.358993942321803"><ele>58.66666666666667</ele><time>2026-04-11T14:36:49.998Z</time></trkpt><trkpt lat="45.45986952394874" lon="11.359059957282485"><ele>57.0</ele><time>2026-04-11T14:36:50.998Z</time></trkpt><trkpt lat="45.45967924001296" lon="11.359133790051057"><ele>57.33333333333333</ele><time>2026-04-11T14:36:51.998Z</time></trkpt><trkpt lat="45.45948979178559" lon="11.35920756227283"><ele>57.666666666666664</ele><time>2026-04-11T14:36:52.997Z</time></trkpt><trkpt lat="45.45929667275435" lon="11.359280336265796"><ele>58.0</ele><time>2026-04-11T14:36:53.997Z</time></trkpt><trkpt lat="45.45910074826921" lon="11.359347892123523"><ele>58.0</ele><time>2026-04-11T14:36:54.997Z</time></trkpt><trkpt lat="45.45889008073646" lon="11.359405729253645"><ele>58.0</ele><time>2026-04-11T14:36:55.997Z</time></trkpt><trkpt lat="45.458667326585456" lon="11.359460794273593"><ele>58.0</ele><time>2026-04-11T14:36:56.997Z</time></trkpt><trkpt lat="45.45843889467467" lon="11.359503520181061"><ele>57.0</ele><time>2026-04-11T14:36:57.997Z</time></trkpt><trkpt lat="45.45820131938677" lon="11.359533902272647"><ele>56.0</ele><time>2026-04-11T14:36:58.997Z</time></trkpt><trkpt lat="45.45794466320654" lon="11.359569580409945"><ele>56.0</ele><time>2026-04-11T14:37:00Z</time></trkpt><trkpt lat="45.45769020312241" lon="11.359605869514938"><ele>56.0</ele><time>2026-04-11T14:37:01Z</time></trkpt><trkpt lat="45.45743402960847" lon="11.359649527305125"><ele>53.5</ele><time>2026-04-11T14:37:02Z</time></trkpt><trkpt lat="45.4571662738509" lon="11.359701512483646"><ele>51.0</ele><time>2026-04-11T14:37:03Z</time></trkpt><trkpt lat="45.45691389819923" lon="11.359766185382272"><ele>51.0</ele><time>2026-04-11T14:37:04Z</time></trkpt><trkpt lat="45.45669846616952" lon="11.359848418812298"><ele>51.0</ele><time>2026-04-11T14:37:05Z</time></trkpt><trkpt lat="45.45648714283952" lon="11.359927582343639"><ele>51.0</ele><time>2026-04-11T14:37:06Z</time></trkpt><trkpt lat="45.45629467399162" lon="11.359991566177312"><ele>51.33333333333333</ele><time>2026-04-11T14:37:07Z</time></trkpt><trkpt lat="45.45611336096761" lon="11.360001475756892"><ele>51.666666666666664</ele><time>2026-04-11T14:37:08Z</time></trkpt><trkpt lat="45.455945018594335" lon="11.359987969692854"><ele>52.0</ele><time>2026-04-11T14:37:09Z</time></trkpt><trkpt lat="45.45576743141699" lon="11.359944744461936"><ele>52.0</ele><time>2026-04-11T14:37:10Z</time></trkpt><trkpt lat="45.45557479842368" lon="11.35990288632468"><ele>52.0</ele><time>2026-04-11T14:37:11Z</time></trkpt><trkpt lat="45.45537584781744" lon="11.359833099387274"><ele>52.0</ele><time>2026-04-11T14:37:12Z</time></trkpt><trkpt lat="45.45517058492107" lon="11.359778637011678"><ele>51.0</ele><time>2026-04-11T14:37:13Z</time></trkpt><trkpt lat="45.454958054739194" lon="11.359721039276918"><ele>50.0</ele><time>2026-04-11T14:37:14Z</time></trkpt><trkpt lat="45.45476163286345" lon="11.35959977048374"><ele>49.0</ele><time>2026-04-11T14:37:15Z</time></trkpt><trkpt lat="45.45457961970479" lon="11.359495451961337"><ele>51.0</ele><time>2026-04-11T14:37:16Z</time></trkpt><trkpt lat="45.4544144541525" lon="11.35942002385116"><ele>53.0</ele><time>2026-04-11T14:37:17Z</time></trkpt><trkpt lat="45.45425084528652" lon="11.359362998863817"><ele>55.0</ele><time>2026-04-11T14:37:18Z</time></trkpt><trkpt lat="45.45407800917148" lon="11.359357546607939"><ele>55.0</ele><time>2026-04-11T14:37:19Z</time></trkpt><trkpt lat="45.45388695191449" lon="11.359375134440981"><ele>55.0</ele><time>2026-04-11T14:37:20Z</time></trkpt><trkpt lat="45.4537010673806" lon="11.359419570735456"><ele>55.0</ele><time>2026-04-11T14:37:21Z</time></trkpt><trkpt lat="45.453535818782804" lon="11.3594835646569"><ele>56.0</ele><time>2026-04-11T14:37:22Z</time></trkpt><trkpt lat="45.453370784337544" lon="11.359568862350882"><ele>57.0</ele><time>2026-04-11T14:37:23Z</time></trkpt><trkpt lat="45.45320854350241" lon="11.359664974219674"><ele>58.0</ele><time>2026-04-11T14:37:24Z</time></trkpt><trkpt lat="45.45304421124624" lon="11.35975236539349"><ele>54.33333333333333</ele><time>2026-04-11T14:37:25Z</time></trkpt><trkpt lat="45.452875483146705" lon="11.359823980360675"><ele>50.666666666666664</ele><time>2026-04-11T14:37:26Z</time></trkpt><trkpt lat="45.45271271867252" lon="11.359893830828328"><ele>47.0</ele><time>2026-04-11T14:37:27Z</time></trkpt><trkpt lat="45.45255912593572" lon="11.359971315902591"><ele>47.0</ele><time>2026-04-11T14:37:28Z</time></trkpt><trkpt lat="45.45241994085903" lon="11.360034519200818"><ele>47.0</ele><time>2026-04-11T14:37:29Z</time></trkpt><trkpt lat="45.452291682755586" lon="11.360082799534387"><ele>47.0</ele><time>2026-04-11T14:37:30Z</time></trkpt><trkpt lat="45.45217399268987" lon="11.360107948723721"><ele>47.0</ele><time>2026-04-11T14:37:31Z</time></trkpt><trkpt lat="45.45206645005749" lon="11.36010489970686"><ele>46.8</ele><time>2026-04-11T14:37:32Z</time></trkpt><trkpt lat="45.451972596509584" lon="11.360081512953387"><ele>46.6</ele><time>2026-04-11T14:37:33Z</time></trkpt><trkpt lat="45.45191018727245" lon="11.360043879706042"><ele>46.4</ele><time>2026-04-11T14:37:34Z</time></trkpt><trkpt lat="45.451835014026706" lon="11.359900295758376"><ele>46.199999999999996</ele><time>2026-04-11T14:37:35.999Z</time></trkpt><trkpt lat="45.451826564989624" lon="11.359744974268011"><ele>46.0</ele><time>2026-04-11T14:37:36.999Z</time></trkpt><trkpt lat="45.45181657544322" lon="11.359585850036728"><ele>46.0</ele><time>2026-04-11T14:37:37.999Z</time></trkpt><trkpt lat="45.45179605565399" lon="11.359399283363548"><ele>46.0</ele><time>2026-04-11T14:37:38.999Z</time></trkpt><trkpt lat="45.45177493521907" lon="11.359200684509664"><ele>46.0</ele><time>2026-04-11T14:37:39.999Z</time></trkpt><trkpt lat="45.45174931943955" lon="11.358994953844896"><ele>46.0</ele><time>2026-04-11T14:37:40.999Z</time></trkpt><trkpt lat="45.451722708523185" lon="11.358775432642682"><ele>47.0</ele><time>2026-04-11T14:37:41.999Z</time></trkpt><trkpt lat="45.451697005883425" lon="11.35855079631699"><ele>48.0</ele><time>2026-04-11T14:37:42.999Z</time></trkpt><trkpt lat="45.45166406408157" lon="11.358307675999942"><ele>49.0</ele><time>2026-04-11T14:37:43.999Z</time></trkpt><trkpt lat="45.45163251294503" lon="11.358055087728625"><ele>50.666666666666664</ele><time>2026-04-11T14:37:44.999Z</time></trkpt><trkpt lat="45.45160446035771" lon="11.357811150047395"><ele>52.33333333333333</ele><time>2026-04-11T14:37:45.999Z</time></trkpt><trkpt lat="45.45157340522283" lon="11.357578019717538"><ele>54.0</ele><time>2026-04-11T14:37:46.999Z</time></trkpt><trkpt lat="45.45153135781716" lon="11.357346291565948"><ele>56.25</ele><time>2026-04-11T14:37:47.999Z</time></trkpt><trkpt lat="45.451468769102206" lon="11.357135586561327"><ele>58.5</ele><time>2026-04-11T14:37:48.999Z</time></trkpt><trkpt lat="45.45139186637501" lon="11.356966537534399"><ele>60.75</ele><time>2026-04-11T14:37:49.999Z</time></trkpt><trkpt lat="45.45128558502577" lon="11.356850984777454"><ele>63.0</ele><time>2026-04-11T14:37:50.999Z</time></trkpt><trkpt lat="45.45113986268514" lon="11.35681171439513"><ele>63.0</ele><time>2026-04-11T14:37:51.999Z</time></trkpt><trkpt lat="45.45097549794792" lon="11.356827708234837"><ele>63.0</ele><time>2026-04-11T14:37:52.999Z</time></trkpt><trkpt lat="45.45079714779886" lon="11.356844274638927"><ele>63.0</ele><time>2026-04-11T14:37:53.999Z</time></trkpt><trkpt lat="45.45063494282322" lon="11.35687430902025"><ele>63.0</ele><time>2026-04-11T14:37:54.999Z</time></trkpt><trkpt lat="45.45050056097255" lon="11.356933545308628"><ele>63.0</ele><time>2026-04-11T14:37:55.999Z</time></trkpt><trkpt lat="45.45037728888228" lon="11.357009466300884"><ele>63.0</ele><time>2026-04-11T14:37:56.999Z</time></trkpt><trkpt lat="45.45027396751221" lon="11.357063479958825"><ele>63.0</ele><time>2026-04-11T14:37:57.999Z</time></trkpt><trkpt lat="45.450184144733186" lon="11.357066232604932"><ele>63.0</ele><time>2026-04-11T14:37:58.999Z</time></trkpt><trkpt lat="45.45010180780487" lon="11.357009855454654"><ele>63.0</ele><time>2026-04-11T14:37:59.999Z</time></trkpt><trkpt lat="45.45004816231305" lon="11.356896815032847"><ele>63.0</ele><time>2026-04-11T14:38:00.999Z</time></trkpt><trkpt lat="45.45003492427088" lon="11.356743552112365"><ele>63.0</ele><time>2026-04-11T14:38:01.999Z</time></trkpt><trkpt lat="45.45004345920224" lon="11.356580092320097"><ele>63.0</ele><time>2026-04-11T14:38:02.999Z</time></trkpt><trkpt lat="45.45005206751666" lon="11.356403410029763"><ele>64.5</ele><time>2026-04-11T14:38:03.999Z</time></trkpt><trkpt lat="45.4500525615529" lon="11.356232155618923"><ele>66.0</ele><time>2026-04-11T14:38:04.999Z</time></trkpt><trkpt lat="45.450055423328386" lon="11.356072133869912"><ele>67.5</ele><time>2026-04-11T14:38:05.999Z</time></trkpt><trkpt lat="45.45006322412685" lon="11.355899689645003"><ele>69.0</ele><time>2026-04-11T14:38:06.999Z</time></trkpt><trkpt lat="45.4500769809716" lon="11.355739400157123"><ele>69.0</ele><time>2026-04-11T14:38:07.999Z</time></trkpt><trkpt lat="45.45010273300197" lon="11.355606264086774"><ele>69.0</ele><time>2026-04-11T14:38:08.999Z</time></trkpt><trkpt lat="45.45012681120883" lon="11.355485892440827"><ele>69.0</ele><time>2026-04-11T14:38:09.999Z</time></trkpt><trkpt lat="45.450143854706695" lon="11.355384458693809"><ele>69.0</ele><time>2026-04-11T14:38:10.999Z</time></trkpt><trkpt lat="45.45015301237942" lon="11.355292077452647"><ele>69.0</ele><time>2026-04-11T14:38:11.999Z</time></trkpt><trkpt lat="45.45016625578496" lon="11.35520164359069"><ele>69.0</ele><time>2026-04-11T14:38:12.999Z</time></trkpt><trkpt lat="45.450179554148235" lon="11.355106433387487"><ele>68.33333333333333</ele><time>2026-04-11T14:38:13.999Z</time></trkpt><trkpt lat="45.45019427910187" lon="11.355001061859365"><ele>67.66666666666667</ele><time>2026-04-11T14:38:14.999Z</time></trkpt><trkpt lat="45.45023777530344" lon="11.354817839538818"><ele>67.0</ele><time>2026-04-11T14:38:16.998Z</time></trkpt><trkpt lat="45.45027322490717" lon="11.354730195785656"><ele>66.33333333333334</ele><time>2026-04-11T14:38:17.998Z</time></trkpt><trkpt lat="45.4503382478004" lon="11.354679645230185"><ele>65.66666666666667</ele><time>2026-04-11T14:38:18.998Z</time></trkpt><trkpt lat="45.45042337202866" lon="11.354664778020842"><ele>65.0</ele><time>2026-04-11T14:38:19.998Z</time></trkpt><trkpt lat="45.45052191160098" lon="11.354651666522951"><ele>62.8</ele><time>2026-04-11T14:38:20.998Z</time></trkpt><trkpt lat="45.45063127497781" lon="11.354607611437627"><ele>60.6</ele><time>2026-04-11T14:38:21.998Z</time></trkpt><trkpt lat="45.45073441615362" lon="11.354539580020386"><ele>58.400000000000006</ele><time>2026-04-11T14:38:22.998Z</time></trkpt><trkpt lat="45.45083642983931" lon="11.354470528738775"><ele>56.2</ele><time>2026-04-11T14:38:23.998Z</time></trkpt><trkpt lat="45.45093623241023" lon="11.35441379123285"><ele>54.0</ele><time>2026-04-11T14:38:24.998Z</time></trkpt><trkpt lat="45.45102439374004" lon="11.354363890807276"><ele>54.0</ele><time>2026-04-11T14:38:25.998Z</time></trkpt><trkpt lat="45.451107811953456" lon="11.354314389688296"><ele>54.00000000000001</ele><time>2026-04-11T14:38:26.998Z</time></trkpt><trkpt lat="45.45118479962598" lon="11.354267265852947"><ele>54.00000000000001</ele><time>2026-04-11T14:38:27.998Z</time></trkpt><trkpt lat="45.45126704990124" lon="11.354209483080123"><ele>54.0</ele><time>2026-04-11T14:38:28.998Z</time></trkpt><trkpt lat="45.45133623959715" lon="11.354122024727799"><ele>54.0</ele><time>2026-04-11T14:38:29.998Z</time></trkpt><trkpt lat="45.45139527717516" lon="11.354007693480971"><ele>54.0</ele><time>2026-04-11T14:38:30.998Z</time></trkpt><trkpt lat="45.451436619287364" lon="11.353877866008562"><ele>54.00000000000001</ele><time>2026-04-11T14:38:31.998Z</time></trkpt><trkpt lat="45.451462301512656" lon="11.353735561486586"><ele>54.00000000000001</ele><time>2026-04-11T14:38:32.998Z</time></trkpt><trkpt lat="45.451481418756764" lon="11.353579919837884"><ele>54.0</ele><time>2026-04-11T14:38:33.998Z</time></trkpt><trkpt lat="45.45148574028153" lon="11.353424930363873"><ele>54.0</ele><time>2026-04-11T14:38:34.998Z</time></trkpt><trkpt lat="45.451491978306265" lon="11.353258405613332"><ele>54.0</ele><time>2026-04-11T14:38:35.998Z</time></trkpt><trkpt lat="45.45153033185174" lon="11.353101976119701"><ele>54.0</ele><time>2026-04-11T14:38:36.998Z</time></trkpt><trkpt lat="45.45161374818589" lon="11.352973483868634"><ele>54.0</ele><time>2026-04-11T14:38:37.998Z</time></trkpt><trkpt lat="45.45168869015326" lon="11.352839236804382"><ele>54.0</ele><time>2026-04-11T14:38:38.998Z</time></trkpt><trkpt lat="45.451776921914366" lon="11.352713853178216"><ele>52.0</ele><time>2026-04-11T14:38:39.998Z</time></trkpt><trkpt lat="45.45185939489049" lon="11.352591379832068"><ele>50.0</ele><time>2026-04-11T14:38:40.998Z</time></trkpt><trkpt lat="45.45194124368509" lon="11.352461999180028"><ele>48.0</ele><time>2026-04-11T14:38:41.998Z</time></trkpt><trkpt lat="45.45200988550099" lon="11.352336962502983"><ele>46.0</ele><time>2026-04-11T14:38:42.998Z</time></trkpt><trkpt lat="45.45206301420634" lon="11.352204947060029"><ele>45.4</ele><time>2026-04-11T14:38:43.998Z</time></trkpt><trkpt lat="45.45209773443724" lon="11.352054714218337"><ele>44.8</ele><time>2026-04-11T14:38:44.998Z</time></trkpt><trkpt lat="45.45211937355622" lon="11.351912528855014"><ele>44.199999999999996</ele><time>2026-04-11T14:38:45.998Z</time></trkpt><trkpt lat="45.45214153122437" lon="11.351790574146529"><ele>43.599999999999994</ele><time>2026-04-11T14:38:46.998Z</time></trkpt><trkpt lat="45.45216117698207" lon="11.351695671625242"><ele>43.0</ele><time>2026-04-11T14:38:47.998Z</time></trkpt><trkpt lat="45.45218500142985" lon="11.351587402451502"><ele>43.8</ele><time>2026-04-11T14:38:57.997Z</time></trkpt><trkpt lat="45.45222540368691" lon="11.351491538982833"><ele>44.599999999999994</ele><time>2026-04-11T14:39:02.997Z</time></trkpt><trkpt lat="45.45230263375767" lon="11.351419839792763"><ele>45.400000000000006</ele><time>2026-04-11T14:39:12Z</time></trkpt><trkpt lat="45.45238737835887" lon="11.351390920707427"><ele>46.2</ele><time>2026-04-11T14:39:13Z</time></trkpt><trkpt lat="45.452489903765255" lon="11.351358029291042"><ele>47.0</ele><time>2026-04-11T14:39:14Z</time></trkpt><trkpt lat="45.4526190001698" lon="11.351325139839163"><ele>47.0</ele><time>2026-04-11T14:39:15Z</time></trkpt><trkpt lat="45.452766464924984" lon="11.351296177709514"><ele>47.0</ele><time>2026-04-11T14:39:16Z</time></trkpt><trkpt lat="45.4529185132881" lon="11.35125819205731"><ele>47.0</ele><time>2026-04-11T14:39:17Z</time></trkpt><trkpt lat="45.453083091843595" lon="11.351219616032632"><ele>47.666666666666664</ele><time>2026-04-11T14:39:18Z</time></trkpt><trkpt lat="45.453259639406" lon="11.351173674196781"><ele>48.33333333333333</ele><time>2026-04-11T14:39:19Z</time></trkpt><trkpt lat="45.45344381160331" lon="11.35113073078267"><ele>49.0</ele><time>2026-04-11T14:39:20Z</time></trkpt><trkpt lat="45.453616369951064" lon="11.351096439913988"><ele>49.0</ele><time>2026-04-11T14:39:21Z</time></trkpt><trkpt lat="45.45377283264027" lon="11.351057895059501"><ele>49.0</ele><time>2026-04-11T14:39:22Z</time></trkpt><trkpt lat="45.4539155648005" lon="11.351029907125156"><ele>49.0</ele><time>2026-04-11T14:39:23Z</time></trkpt><trkpt lat="45.454048728967344" lon="11.351001629017027"><ele>49.0</ele><time>2026-04-11T14:39:24Z</time></trkpt><trkpt lat="45.454169923896934" lon="11.350974920311643"><ele>48.5</ele><time>2026-04-11T14:39:25Z</time></trkpt><trkpt lat="45.45428075636476" lon="11.350947922169038"><ele>48.0</ele><time>2026-04-11T14:39:26Z</time></trkpt><trkpt lat="45.45438743194822" lon="11.35092160229415"><ele>47.5</ele><time>2026-04-11T14:39:27Z</time></trkpt><trkpt lat="45.45450365605673" lon="11.35088533464131"><ele>47.0</ele><time>2026-04-11T14:39:28Z</time></trkpt><trkpt lat="45.45461672319928" lon="11.350833519754687"><ele>47.0</ele><time>2026-04-11T14:39:29Z</time></trkpt><trkpt lat="45.45472098709936" lon="11.350769552688792"><ele>47.0</ele><time>2026-04-11T14:39:30Z</time></trkpt><trkpt lat="45.45482224653721" lon="11.350690111264427"><ele>47.0</ele><time>2026-04-11T14:39:31Z</time></trkpt><trkpt lat="45.45491412877304" lon="11.350600877876566"><ele>47.0</ele><time>2026-04-11T14:39:32Z</time></trkpt><trkpt lat="45.45500604753225" lon="11.350494015579253"><ele>46.75</ele><time>2026-04-11T14:39:33Z</time></trkpt><trkpt lat="45.45509491739392" lon="11.350373148062928"><ele>46.5</ele><time>2026-04-11T14:39:34Z</time></trkpt><trkpt lat="45.45517664390051" lon="11.350244078070078"><ele>46.25</ele><time>2026-04-11T14:39:35Z</time></trkpt><trkpt lat="45.455259364792305" lon="11.350093771435729"><ele>46.0</ele><time>2026-04-11T14:39:36Z</time></trkpt><trkpt lat="45.45534373047347" lon="11.349928249428007"><ele>46.0</ele><time>2026-04-11T14:39:37Z</time></trkpt><trkpt lat="45.455436902258896" lon="11.349745397562208"><ele>46.0</ele><time>2026-04-11T14:39:38Z</time></trkpt><trkpt lat="45.45556772319093" lon="11.34953857516634"><ele>46.0</ele><time>2026-04-11T14:39:39Z</time></trkpt><trkpt lat="45.45567676684933" lon="11.349280320242553"><ele>46.333333333333336</ele><time>2026-04-11T14:39:40Z</time></trkpt><trkpt lat="45.455822041006115" lon="11.349034191038616"><ele>46.666666666666664</ele><time>2026-04-11T14:39:41Z</time></trkpt><trkpt lat="45.45594851448287" lon="11.348873413329155"><ele>47.0</ele><time>2026-04-11T14:39:41.999Z</time></trkpt><trkpt lat="45.456071388917046" lon="11.348669686264621"><ele>47.0</ele><time>2026-04-11T14:39:42.999Z</time></trkpt><trkpt lat="45.456179770517615" lon="11.34847395162014"><ele>47.0</ele><time>2026-04-11T14:39:43.999Z</time></trkpt><trkpt lat="45.4562790319624" lon="11.348290460980056"><ele>47.0</ele><time>2026-04-11T14:39:44.999Z</time></trkpt><trkpt lat="45.4563747164284" lon="11.348118498605572"><ele>47.25</ele><time>2026-04-11T14:39:45.999Z</time></trkpt><trkpt lat="45.45646459467844" lon="11.347953422723817"><ele>47.5</ele><time>2026-04-11T14:39:46.999Z</time></trkpt><trkpt lat="45.45654040436863" lon="11.347793542656026"><ele>47.75</ele><time>2026-04-11T14:39:47.999Z</time></trkpt><trkpt lat="45.456605266307676" lon="11.347639695206253"><ele>48.0</ele><time>2026-04-11T14:39:48.999Z</time></trkpt><trkpt lat="45.45666130258865" lon="11.34749301864662"><ele>48.0</ele><time>2026-04-11T14:39:49.999Z</time></trkpt><trkpt lat="45.45671544284822" lon="11.347340241613287"><ele>48.0</ele><time>2026-04-11T14:39:50.999Z</time></trkpt><trkpt lat="45.45676628471658" lon="11.347181509096188"><ele>48.0</ele><time>2026-04-11T14:39:51.999Z</time></trkpt><trkpt lat="45.45681482718073" lon="11.347017460577755"><ele>48.0</ele><time>2026-04-11T14:39:52.999Z</time></trkpt><trkpt lat="45.45686373138039" lon="11.346855279458703"><ele>47.5</ele><time>2026-04-11T14:39:53.999Z</time></trkpt><trkpt lat="45.45691647252064" lon="11.346687189913547"><ele>47.0</ele><time>2026-04-11T14:39:54.999Z</time></trkpt><trkpt lat="45.45697316812658" lon="11.346515934244755"><ele>46.5</ele><time>2026-04-11T14:39:55.999Z</time></trkpt><trkpt lat="45.45702456207079" lon="11.34635852947337"><ele>46.0</ele><time>2026-04-11T14:39:56.999Z</time></trkpt><trkpt lat="45.457074590666494" lon="11.34619813878871"><ele>47.25</ele><time>2026-04-11T14:39:57.999Z</time></trkpt><trkpt lat="45.457127766375244" lon="11.346026879168594"><ele>48.5</ele><time>2026-04-11T14:39:58.999Z</time></trkpt><trkpt lat="45.457181086071564" lon="11.34585407755959"><ele>49.75</ele><time>2026-04-11T14:39:59.999Z</time></trkpt><trkpt lat="45.45723875821374" lon="11.345684808961682"><ele>51.0</ele><time>2026-04-11T14:40:00.999Z</time></trkpt><trkpt lat="45.45728743426444" lon="11.345528081225451"><ele>51.0</ele><time>2026-04-11T14:40:01.999Z</time></trkpt><trkpt lat="45.45733463057176" lon="11.345364274777419"><ele>51.0</ele><time>2026-04-11T14:40:02.999Z</time></trkpt><trkpt lat="45.45738295367536" lon="11.345199935676419"><ele>51.0</ele><time>2026-04-11T14:40:03.999Z</time></trkpt><trkpt lat="45.457420546843316" lon="11.345033940032458"><ele>51.0</ele><time>2026-04-11T14:40:04.999Z</time></trkpt><trkpt lat="45.457432801717005" lon="11.344865257769714"><ele>50.5</ele><time>2026-04-11T14:40:05.999Z</time></trkpt><trkpt lat="45.457418011709365" lon="11.344691681000123"><ele>50.0</ele><time>2026-04-11T14:40:06.999Z</time></trkpt><trkpt lat="45.45738073717735" lon="11.344504833730122"><ele>49.5</ele><time>2026-04-11T14:40:07.999Z</time></trkpt><trkpt lat="45.457338827876164" lon="11.344306335291984"><ele>49.0</ele><time>2026-04-11T14:40:08.999Z</time></trkpt><trkpt lat="45.457309702225416" lon="11.344106274145158"><ele>49.0</ele><time>2026-04-11T14:40:09.999Z</time></trkpt><trkpt lat="45.45728533625139" lon="11.343904896988791"><ele>49.0</ele><time>2026-04-11T14:40:10.999Z</time></trkpt><trkpt lat="45.457267035195585" lon="11.343697913410233"><ele>49.0</ele><time>2026-04-11T14:40:11.999Z</time></trkpt><trkpt lat="45.45723898675261" lon="11.343493394440465"><ele>49.0</ele><time>2026-04-11T14:40:12.999Z</time></trkpt><trkpt lat="45.45719934022123" lon="11.343295104778793"><ele>49.0</ele><time>2026-04-11T14:40:13.999Z</time></trkpt><trkpt lat="45.4571746658423" lon="11.343118718371866"><ele>49.0</ele><time>2026-04-11T14:40:14.999Z</time></trkpt><trkpt lat="45.457156498367006" lon="11.342958240189354"><ele>49.0</ele><time>2026-04-11T14:40:15.999Z</time></trkpt><trkpt lat="45.45714279237269" lon="11.342821368712091"><ele>49.0</ele><time>2026-04-11T14:40:16.999Z</time></trkpt><trkpt lat="45.45713001710656" lon="11.342683313890268"><ele>49.0</ele><time>2026-04-11T14:40:17.999Z</time></trkpt><trkpt lat="45.45712075981922" lon="11.34255859176849"><ele>48.400000000000006</ele><time>2026-04-11T14:40:18.999Z</time></trkpt><trkpt lat="45.45711688598092" lon="11.342443883342229"><ele>47.8</ele><time>2026-04-11T14:40:19.999Z</time></trkpt><trkpt lat="45.457111122837404" lon="11.342327045782035"><ele>47.2</ele><time>2026-04-11T14:40:20.999Z</time></trkpt><trkpt lat="45.457094580118024" lon="11.342209320476142"><ele>46.599999999999994</ele><time>2026-04-11T14:40:21.998Z</time></trkpt><trkpt lat="45.45709956327507" lon="11.342086303701233"><ele>46.0</ele><time>2026-04-11T14:40:22.998Z</time></trkpt><trkpt lat="45.45708335431037" lon="11.341914438101709"><ele>46.0</ele><time>2026-04-11T14:40:23.998Z</time></trkpt><trkpt lat="45.45707384135292" lon="11.341702283568138"><ele>46.0</ele><time>2026-04-11T14:40:24.998Z</time></trkpt><trkpt lat="45.457063395996286" lon="11.341454667108655"><ele>46.0</ele><time>2026-04-11T14:40:25.998Z</time></trkpt><trkpt lat="45.457053145823735" lon="11.341198668652208"><ele>46.333333333333336</ele><time>2026-04-11T14:40:26.998Z</time></trkpt><trkpt lat="45.457040259140534" lon="11.340918106703628"><ele>46.666666666666664</ele><time>2026-04-11T14:40:27.998Z</time></trkpt><trkpt lat="45.457018597735164" lon="11.340646896661532"><ele>47.0</ele><time>2026-04-11T14:40:28.998Z</time></trkpt><trkpt lat="45.45698013605841" lon="11.340410365685827"><ele>47.666666666666664</ele><time>2026-04-11T14:40:29.998Z</time></trkpt><trkpt lat="45.45689724271739" lon="11.34018897338851"><ele>48.33333333333333</ele><time>2026-04-11T14:40:30.998Z</time></trkpt><trkpt lat="45.45676821986948" lon="11.33997821393705"><ele>49.0</ele><time>2026-04-11T14:40:31.998Z</time></trkpt><trkpt lat="45.456581891527875" lon="11.33977748530972"><ele>49.0</ele><time>2026-04-11T14:40:32.998Z</time></trkpt><trkpt lat="45.45648108820775" lon="11.339690117518284"><ele>49.0</ele><time>2026-04-11T14:40:33.998Z</time></trkpt><trkpt lat="45.45628503671676" lon="11.339622459887554"><ele>49.0</ele><time>2026-04-11T14:40:34.998Z</time></trkpt><trkpt lat="45.45607939506129" lon="11.33955696750797"><ele>49.0</ele><time>2026-04-11T14:40:35.998Z</time></trkpt><trkpt lat="45.45587727613274" lon="11.339462718950179"><ele>49.0</ele><time>2026-04-11T14:40:36.998Z</time></trkpt><trkpt lat="45.455678360050875" lon="11.339364659358818"><ele>49.0</ele><time>2026-04-11T14:40:37.998Z</time></trkpt><trkpt lat="45.45549048464266" lon="11.33928322026962"><ele>48.666666666666664</ele><time>2026-04-11T14:40:38.998Z</time></trkpt><trkpt lat="45.45531594672006" lon="11.33920174505618"><ele>48.33333333333333</ele><time>2026-04-11T14:40:39.998Z</time></trkpt><trkpt lat="45.45514668046587" lon="11.339116498317956"><ele>48.0</ele><time>2026-04-11T14:40:40.998Z</time></trkpt><trkpt lat="45.4549851735225" lon="11.33903763284542"><ele>48.0</ele><time>2026-04-11T14:40:41.998Z</time></trkpt><trkpt lat="45.45483092195122" lon="11.338960592282525"><ele>48.0</ele><time>2026-04-11T14:40:42.998Z</time></trkpt><trkpt lat="45.45468099184472" lon="11.338886030596875"><ele>48.0</ele><time>2026-04-11T14:40:43.998Z</time></trkpt><trkpt lat="45.45453970384691" lon="11.33881186524165"><ele>48.0</ele><time>2026-04-11T14:40:44.998Z</time></trkpt><trkpt lat="45.45440242182767" lon="11.338744738618997"><ele>48.0</ele><time>2026-04-11T14:40:45.998Z</time></trkpt><trkpt lat="45.45428025663097" lon="11.338669770623858"><ele>48.0</ele><time>2026-04-11T14:40:46.998Z</time></trkpt><trkpt lat="45.45417973130989" lon="11.338569168914047"><ele>48.0</ele><time>2026-04-11T14:40:47.998Z</time></trkpt><trkpt lat="45.45409475928657" lon="11.338432995554973"><ele>48.0</ele><time>2026-04-11T14:40:48.998Z</time></trkpt><trkpt lat="45.45402652338566" lon="11.338257571088052"><ele>48.0</ele><time>2026-04-11T14:40:49.998Z</time></trkpt><trkpt lat="45.454021531191074" lon="11.338040122320942"><ele>48.0</ele><time>2026-04-11T14:40:50.998Z</time></trkpt><trkpt lat="45.45400039163219" lon="11.337845536791479"><ele>48.0</ele><time>2026-04-11T14:40:51.998Z</time></trkpt><trkpt lat="45.45399064507697" lon="11.337632968635887"><ele>47.666666666666664</ele><time>2026-04-11T14:40:52.998Z</time></trkpt><trkpt lat="45.45398264849553" lon="11.337420048370516"><ele>47.33333333333333</ele><time>2026-04-11T14:40:53.998Z</time></trkpt><trkpt lat="45.45396793166766" lon="11.337208280620436"><ele>47.0</ele><time>2026-04-11T14:40:54.998Z</time></trkpt><trkpt lat="45.45396088116554" lon="11.336988420434247"><ele>47.0</ele><time>2026-04-11T14:40:55.998Z</time></trkpt><trkpt lat="45.453962120477314" lon="11.33675904982111"><ele>47.0</ele><time>2026-04-11T14:40:56.998Z</time></trkpt><trkpt lat="45.45395504803499" lon="11.336521850248266"><ele>47.0</ele><time>2026-04-11T14:40:57.998Z</time></trkpt><trkpt lat="45.453945907703954" lon="11.33631348008939"><ele>45.33333333333333</ele><time>2026-04-11T14:40:58.998Z</time></trkpt><trkpt lat="45.45394494156717" lon="11.336107724156884"><ele>43.666666666666664</ele><time>2026-04-11T14:40:59.998Z</time></trkpt><trkpt lat="45.453967083738824" lon="11.33589711342878"><ele>42.0</ele><time>2026-04-11T14:41:00.998Z</time></trkpt><trkpt lat="45.45402728586427" lon="11.33568638032118"><ele>41.0</ele><time>2026-04-11T14:41:01.997Z</time></trkpt><trkpt lat="45.45411353858089" lon="11.335485935856967"><ele>40.0</ele><time>2026-04-11T14:41:02.997Z</time></trkpt><trkpt lat="45.454221782003074" lon="11.335319637304535"><ele>39.0</ele><time>2026-04-11T14:41:03.997Z</time></trkpt><trkpt lat="45.45434904750911" lon="11.335167746955918"><ele>39.0</ele><time>2026-04-11T14:41:04.997Z</time></trkpt><trkpt lat="45.454481812738905" lon="11.335026785662446"><ele>39.0</ele><time>2026-04-11T14:41:05.997Z</time></trkpt><trkpt lat="45.45461694945481" lon="11.334886736576937"><ele>39.0</ele><time>2026-04-11T14:41:06.997Z</time></trkpt><trkpt lat="45.454751542398114" lon="11.334746324541875"><ele>39.0</ele><time>2026-04-11T14:41:07.997Z</time></trkpt><trkpt lat="45.4548775003738" lon="11.334610128826542"><ele>39.0</ele><time>2026-04-11T14:41:08.997Z</time></trkpt><trkpt lat="45.45498697544495" lon="11.334472407658785"><ele>39.0</ele><time>2026-04-11T14:41:09.997Z</time></trkpt><trkpt lat="45.45508078945557" lon="11.33430938942429"><ele>39.0</ele><time>2026-04-11T14:41:10.997Z</time></trkpt><trkpt lat="45.455160163874005" lon="11.334124301971519"><ele>39.0</ele><time>2026-04-11T14:41:12Z</time></trkpt><trkpt lat="45.455220850373784" lon="11.333925123102246"><ele>39.0</ele><time>2026-04-11T14:41:13Z</time></trkpt><trkpt lat="45.45526243917801" lon="11.333727733023782"><ele>39.0</ele><time>2026-04-11T14:41:14Z</time></trkpt><trkpt lat="45.45528703079539" lon="11.33352801794659"><ele>38.666666666666664</ele><time>2026-04-11T14:41:15Z</time></trkpt><trkpt lat="45.45530895470695" lon="11.333315545483643"><ele>38.33333333333333</ele><time>2026-04-11T14:41:16Z</time></trkpt><trkpt lat="45.455330898786684" lon="11.33310273693902"><ele>38.0</ele><time>2026-04-11T14:41:17Z</time></trkpt><trkpt lat="45.45536073188936" lon="11.332879246567588"><ele>38.0</ele><time>2026-04-11T14:41:18Z</time></trkpt><trkpt lat="45.455383198597545" lon="11.33263024512687"><ele>38.0</ele><time>2026-04-11T14:41:19Z</time></trkpt><trkpt lat="45.455427574731495" lon="11.332349454015977"><ele>38.0</ele><time>2026-04-11T14:41:20Z</time></trkpt><trkpt lat="45.45546555718018" lon="11.332052061724525"><ele>38.5</ele><time>2026-04-11T14:41:21Z</time></trkpt><trkpt lat="45.45549681533983" lon="11.331722250618075"><ele>39.0</ele><time>2026-04-11T14:41:22Z</time></trkpt><trkpt lat="45.45555237502172" lon="11.331383260282516"><ele>39.0</ele><time>2026-04-11T14:41:23Z</time></trkpt><trkpt lat="45.45560120930158" lon="11.33102899279497"><ele>39.0</ele><time>2026-04-11T14:41:24Z</time></trkpt><trkpt lat="45.45564837792401" lon="11.330664995932448"><ele>39.5</ele><time>2026-04-11T14:41:25Z</time></trkpt><trkpt lat="45.45569563121398" lon="11.330301284282074"><ele>40.0</ele><time>2026-04-11T14:41:26Z</time></trkpt><trkpt lat="45.455746716237165" lon="11.32993429333404"><ele>40.5</ele><time>2026-04-11T14:41:27Z</time></trkpt><trkpt lat="45.4558094816356" lon="11.329558742756035"><ele>41.0</ele><time>2026-04-11T14:41:28Z</time></trkpt><trkpt lat="45.45587625317317" lon="11.329202155253308"><ele>39.5</ele><time>2026-04-11T14:41:29Z</time></trkpt><trkpt lat="45.45595318611552" lon="11.32885636518957"><ele>38.0</ele><time>2026-04-11T14:41:30Z</time></trkpt><trkpt lat="45.45604835042297" lon="11.328507973103711"><ele>38.0</ele><time>2026-04-11T14:41:31Z</time></trkpt><trkpt lat="45.45615531354335" lon="11.328173470611093"><ele>38.0</ele><time>2026-04-11T14:41:32Z</time></trkpt><trkpt lat="45.45627237829198" lon="11.327837885208144"><ele>38.0</ele><time>2026-04-11T14:41:33Z</time></trkpt><trkpt lat="45.45638578171232" lon="11.32751043208302"><ele>38.0</ele><time>2026-04-11T14:41:34Z</time></trkpt><trkpt lat="45.45649145858312" lon="11.32720338148125"><ele>38.0</ele><time>2026-04-11T14:41:35Z</time></trkpt><trkpt lat="45.45659396018422" lon="11.3268859540185"><ele>38.0</ele><time>2026-04-11T14:41:36Z</time></trkpt><trkpt lat="45.45669614078663" lon="11.326569074425144"><ele>38.0</ele><time>2026-04-11T14:41:37Z</time></trkpt><trkpt lat="45.456797975351385" lon="11.32627742800881"><ele>38.0</ele><time>2026-04-11T14:41:38Z</time></trkpt><trkpt lat="45.45689854298703" lon="11.325970533720167"><ele>38.0</ele><time>2026-04-11T14:41:39Z</time></trkpt><trkpt lat="45.45697808308793" lon="11.325659523955894"><ele>38.0</ele><time>2026-04-11T14:41:40Z</time></trkpt><trkpt lat="45.45702188745943" lon="11.325345309872496"><ele>38.0</ele><time>2026-04-11T14:41:41Z</time></trkpt><trkpt lat="45.45704439151203" lon="11.325035831077779"><ele>38.0</ele><time>2026-04-11T14:41:42Z</time></trkpt><trkpt lat="45.45706708501419" lon="11.324737360177664"><ele>38.0</ele><time>2026-04-11T14:41:43Z</time></trkpt><trkpt lat="45.45709547475023" lon="11.324454635564024"><ele>37.666666666666664</ele><time>2026-04-11T14:41:44Z</time></trkpt><trkpt lat="45.457132643482204" lon="11.3241913699376"><ele>37.333333333333336</ele><time>2026-04-11T14:41:45Z</time></trkpt><trkpt lat="45.45719544752772" lon="11.323948806893414"><ele>37.0</ele><time>2026-04-11T14:41:45.999Z</time></trkpt><trkpt lat="45.457295553408166" lon="11.323718361238763"><ele>37.66666666666667</ele><time>2026-04-11T14:41:46.999Z</time></trkpt><trkpt lat="45.45741908137784" lon="11.323519618742477"><ele>38.333333333333336</ele><time>2026-04-11T14:41:47.999Z</time></trkpt><trkpt lat="45.4575586021891" lon="11.323336172817339"><ele>39.0</ele><time>2026-04-11T14:41:48.999Z</time></trkpt><trkpt lat="45.457704672517885" lon="11.32318341631399"><ele>39.0</ele><time>2026-04-11T14:41:49.999Z</time></trkpt><trkpt lat="45.457840639211355" lon="11.323042386696786"><ele>39.0</ele><time>2026-04-11T14:41:50.999Z</time></trkpt><trkpt lat="45.45795755467772" lon="11.322911752041929"><ele>39.0</ele><time>2026-04-11T14:41:51.999Z</time></trkpt><trkpt lat="45.45807151991643" lon="11.32277877738364"><ele>39.0</ele><time>2026-04-11T14:41:52.999Z</time></trkpt><trkpt lat="45.45818120933618" lon="11.322653399019059"><ele>39.0</ele><time>2026-04-11T14:41:53.999Z</time></trkpt><trkpt lat="45.45829863555431" lon="11.322526422843769"><ele>39.0</ele><time>2026-04-11T14:41:54.999Z</time></trkpt><trkpt lat="45.45842399730662" lon="11.322392237899752"><ele>39.0</ele><time>2026-04-11T14:41:55.999Z</time></trkpt><trkpt lat="45.45855291464973" lon="11.3222450732614"><ele>39.333333333333336</ele><time>2026-04-11T14:41:56.999Z</time></trkpt><trkpt lat="45.45868182305318" lon="11.322089635932059"><ele>39.66666666666667</ele><time>2026-04-11T14:41:57.999Z</time></trkpt><trkpt lat="45.45880537098023" lon="11.321927169220448"><ele>40.0</ele><time>2026-04-11T14:41:58.999Z</time></trkpt><trkpt lat="45.45892663681973" lon="11.321757482916105"><ele>40.0</ele><time>2026-04-11T14:41:59.999Z</time></trkpt><trkpt lat="45.45904505819663" lon="11.321591692820476"><ele>40.0</ele><time>2026-04-11T14:42:00.999Z</time></trkpt><trkpt lat="45.459163650756956" lon="11.321429245922152"><ele>40.0</ele><time>2026-04-11T14:42:01.999Z</time></trkpt><trkpt lat="45.459269283825854" lon="11.321283182564619"><ele>40.0</ele><time>2026-04-11T14:42:02.999Z</time></trkpt><trkpt lat="45.45937419371217" lon="11.321136936972843"><ele>40.0</ele><time>2026-04-11T14:42:03.999Z</time></trkpt><trkpt lat="45.459480987259106" lon="11.320987765679002"><ele>40.0</ele><time>2026-04-11T14:42:04.999Z</time></trkpt><trkpt lat="45.45958958288366" lon="11.320839829497864"><ele>40.0</ele><time>2026-04-11T14:42:05.999Z</time></trkpt><trkpt lat="45.459690882975764" lon="11.32069627367508"><ele>40.25</ele><time>2026-04-11T14:42:06.999Z</time></trkpt><trkpt lat="45.459797607958365" lon="11.320557698931392"><ele>40.5</ele><time>2026-04-11T14:42:07.999Z</time></trkpt><trkpt lat="45.45989571405634" lon="11.320407806068078"><ele>40.75</ele><time>2026-04-11T14:42:08.999Z</time></trkpt><trkpt lat="45.45999520024091" lon="11.320272681465747"><ele>41.0</ele><time>2026-04-11T14:42:09.999Z</time></trkpt><trkpt lat="45.46008718058146" lon="11.32014876332544"><ele>41.0</ele><time>2026-04-11T14:42:10.999Z</time></trkpt><trkpt lat="45.460175381642706" lon="11.320025096057648"><ele>41.0</ele><time>2026-04-11T14:42:11.999Z</time></trkpt><trkpt lat="45.460262048380336" lon="11.319904642192734"><ele>41.0</ele><time>2026-04-11T14:42:12.999Z</time></trkpt><trkpt lat="45.46034921045081" lon="11.319780227633347"><ele>41.0</ele><time>2026-04-11T14:42:13.999Z</time></trkpt><trkpt lat="45.460434134525" lon="11.319659965911395"><ele>41.4</ele><time>2026-04-11T14:42:14.999Z</time></trkpt><trkpt lat="45.46051426193912" lon="11.319546523013686"><ele>41.8</ele><time>2026-04-11T14:42:15.999Z</time></trkpt><trkpt lat="45.46058788150549" lon="11.319432459763055"><ele>42.199999999999996</ele><time>2026-04-11T14:42:16.999Z</time></trkpt><trkpt lat="45.46066136050876" lon="11.319339913385548"><ele>42.599999999999994</ele><time>2026-04-11T14:42:17.999Z</time></trkpt><trkpt lat="45.46073290419039" lon="11.319239127748306"><ele>43.0</ele><time>2026-04-11T14:42:18.999Z</time></trkpt><trkpt lat="45.46080392664679" lon="11.319135251958443"><ele>43.0</ele><time>2026-04-11T14:42:19.999Z</time></trkpt><trkpt lat="45.460862029613835" lon="11.319039443375567"><ele>43.0</ele><time>2026-04-11T14:42:20.999Z</time></trkpt><trkpt lat="45.460909189174785" lon="11.318954495435486"><ele>43.0</ele><time>2026-04-11T14:42:21.999Z</time></trkpt><trkpt lat="45.460954712182755" lon="11.318881159447924"><ele>43.0</ele><time>2026-04-11T14:42:22.999Z</time></trkpt><trkpt lat="45.46099770104008" lon="11.318814344467718"><ele>43.0</ele><time>2026-04-11T14:42:23.999Z</time></trkpt><trkpt lat="45.461054550325976" lon="11.318734786158865"><ele>43.0</ele><time>2026-04-11T14:42:24.999Z</time></trkpt><trkpt lat="45.46113059690691" lon="11.318653182886363"><ele>42.75</ele><time>2026-04-11T14:42:25.998Z</time></trkpt><trkpt lat="45.46121831549519" lon="11.318571638719698"><ele>42.5</ele><time>2026-04-11T14:42:26.998Z</time></trkpt><trkpt lat="45.46131609952098" lon="11.318480642125834"><ele>42.25</ele><time>2026-04-11T14:42:27.998Z</time></trkpt><trkpt lat="45.46141017772697" lon="11.318387681661076"><ele>42.0</ele><time>2026-04-11T14:42:28.998Z</time></trkpt><trkpt lat="45.461510794883935" lon="11.318287502592087"><ele>42.25</ele><time>2026-04-11T14:42:29.998Z</time></trkpt><trkpt lat="45.4616098456799" lon="11.318191506835309"><ele>42.5</ele><time>2026-04-11T14:42:30.998Z</time></trkpt><trkpt lat="45.461705303830506" lon="11.318098745119125"><ele>42.75</ele><time>2026-04-11T14:42:31.998Z</time></trkpt><trkpt lat="45.461804018824864" lon="11.318007407338586"><ele>43.0</ele><time>2026-04-11T14:42:32.998Z</time></trkpt><trkpt lat="45.46190641035926" lon="11.317912311682834"><ele>43.0</ele><time>2026-04-11T14:42:33.998Z</time></trkpt><trkpt lat="45.46200997367412" lon="11.31781502558289"><ele>43.0</ele><time>2026-04-11T14:42:34.998Z</time></trkpt><trkpt lat="45.462107213333034" lon="11.317723017984102"><ele>43.0</ele><time>2026-04-11T14:42:35.998Z</time></trkpt><trkpt lat="45.462206292912136" lon="11.317634706836198"><ele>43.0</ele><time>2026-04-11T14:42:36.998Z</time></trkpt><trkpt lat="45.46230793464232" lon="11.317542166792212"><ele>43.0</ele><time>2026-04-11T14:42:37.998Z</time></trkpt><trkpt lat="45.462413011624115" lon="11.3174453038671"><ele>43.0</ele><time>2026-04-11T14:42:38.998Z</time></trkpt><trkpt lat="45.462521735954006" lon="11.31735245849451"><ele>43.0</ele><time>2026-04-11T14:42:39.998Z</time></trkpt><trkpt lat="45.46262928434875" lon="11.317255289929085"><ele>43.0</ele><time>2026-04-11T14:42:40.998Z</time></trkpt><trkpt lat="45.4627356466881" lon="11.317155616967305"><ele>43.0</ele><time>2026-04-11T14:42:41.998Z</time></trkpt><trkpt lat="45.46284339584826" lon="11.317052794969303"><ele>43.0</ele><time>2026-04-11T14:42:42.998Z</time></trkpt><trkpt lat="45.462948165701846" lon="11.316947757352038"><ele>43.0</ele><time>2026-04-11T14:42:43.998Z</time></trkpt><trkpt lat="45.46305787703517" lon="11.31684978653147"><ele>43.0</ele><time>2026-04-11T14:42:44.998Z</time></trkpt><trkpt lat="45.46318253095519" lon="11.316762586192477"><ele>43.75</ele><time>2026-04-11T14:42:45.998Z</time></trkpt><trkpt lat="45.46331265557267" lon="11.31669665043158"><ele>44.5</ele><time>2026-04-11T14:42:46.998Z</time></trkpt><trkpt lat="45.463448844153845" lon="11.316638867456657"><ele>45.25</ele><time>2026-04-11T14:42:47.998Z</time></trkpt><trkpt lat="45.463587038833325" lon="11.316577853834461"><ele>46.0</ele><time>2026-04-11T14:42:48.998Z</time></trkpt><trkpt lat="45.463718211855344" lon="11.316517544570775"><ele>46.25</ele><time>2026-04-11T14:42:49.998Z</time></trkpt><trkpt lat="45.46384550528365" lon="11.316458198007949"><ele>46.5</ele><time>2026-04-11T14:42:50.998Z</time></trkpt><trkpt lat="45.46398138188991" lon="11.316398494546325"><ele>46.75</ele><time>2026-04-11T14:42:51.998Z</time></trkpt><trkpt lat="45.46411968220183" lon="11.316336618140685"><ele>47.0</ele><time>2026-04-11T14:42:52.998Z</time></trkpt><trkpt lat="45.46425941570919" lon="11.316270821285999"><ele>47.0</ele><time>2026-04-11T14:42:53.998Z</time></trkpt><trkpt lat="45.46440189317406" lon="11.316200317439671"><ele>47.0</ele><time>2026-04-11T14:42:54.998Z</time></trkpt><trkpt lat="45.464544242868634" lon="11.316117148988694"><ele>47.0</ele><time>2026-04-11T14:42:55.998Z</time></trkpt><trkpt lat="45.464689753512296" lon="11.316011336248295"><ele>47.666666666666664</ele><time>2026-04-11T14:42:56.998Z</time></trkpt><trkpt lat="45.464821601366324" lon="11.315884007860673"><ele>48.33333333333333</ele><time>2026-04-11T14:42:57.998Z</time></trkpt><trkpt lat="45.46494623866067" lon="11.315747786187421"><ele>49.0</ele><time>2026-04-11T14:42:58.998Z</time></trkpt><trkpt lat="45.465065246766805" lon="11.315615766703397"><ele>47.666666666666664</ele><time>2026-04-11T14:42:59.998Z</time></trkpt><trkpt lat="45.465177308686485" lon="11.31549232519629"><ele>46.33333333333333</ele><time>2026-04-11T14:43:00.998Z</time></trkpt><trkpt lat="45.465292974499405" lon="11.315367279851008"><ele>45.0</ele><time>2026-04-11T14:43:01.998Z</time></trkpt><trkpt lat="45.46542714679289" lon="11.315233006388224"><ele>45.0</ele><time>2026-04-11T14:43:02.998Z</time></trkpt><trkpt lat="45.465592038764136" lon="11.315091929521628"><ele>45.0</ele><time>2026-04-11T14:43:03.998Z</time></trkpt><trkpt lat="45.465776686575325" lon="11.314934313309939"><ele>45.0</ele><time>2026-04-11T14:43:04.998Z</time></trkpt><trkpt lat="45.465958510969095" lon="11.314733677690672"><ele>45.0</ele><time>2026-04-11T14:43:05.997Z</time></trkpt><trkpt lat="45.46614419393652" lon="11.314553510629558"><ele>45.0</ele><time>2026-04-11T14:43:06.997Z</time></trkpt><trkpt lat="45.46631710530368" lon="11.314329947620003"><ele>46.5</ele><time>2026-04-11T14:43:07.997Z</time></trkpt><trkpt lat="45.46647191059609" lon="11.314073010804373"><ele>48.0</ele><time>2026-04-11T14:43:08.997Z</time></trkpt><trkpt lat="45.466605472487416" lon="11.313802948328465"><ele>48.0</ele><time>2026-04-11T14:43:09.997Z</time></trkpt><trkpt lat="45.466734913687446" lon="11.313518455495517"><ele>48.0</ele><time>2026-04-11T14:43:10.997Z</time></trkpt><trkpt lat="45.466856399931885" lon="11.313255163085877"><ele>48.0</ele><time>2026-04-11T14:43:11.997Z</time></trkpt><trkpt lat="45.46699398577242" lon="11.31298561465263"><ele>48.0</ele><time>2026-04-11T14:43:12.997Z</time></trkpt><trkpt lat="45.46713798639062" lon="11.312753903814825"><ele>49.33333333333333</ele><time>2026-04-11T14:43:13.997Z</time></trkpt><trkpt lat="45.46728651069452" lon="11.312547604854622"><ele>50.666666666666664</ele><time>2026-04-11T14:43:14.997Z</time></trkpt><trkpt lat="45.46742400246843" lon="11.312358471801243"><ele>52.0</ele><time>2026-04-11T14:43:15.997Z</time></trkpt><trkpt lat="45.46755610792022" lon="11.31217864314613"><ele>52.0</ele><time>2026-04-11T14:43:16.997Z</time></trkpt><trkpt lat="45.46767389488094" lon="11.311992116354263"><ele>52.0</ele><time>2026-04-11T14:43:18Z</time></trkpt><trkpt lat="45.4677786240395" lon="11.311820655826269"><ele>52.0</ele><time>2026-04-11T14:43:19Z</time></trkpt><trkpt lat="45.46788865400924" lon="11.311656600528627"><ele>53.666666666666664</ele><time>2026-04-11T14:43:20Z</time></trkpt><trkpt lat="45.468013060766324" lon="11.31149887047923"><ele>55.33333333333333</ele><time>2026-04-11T14:43:21Z</time></trkpt><trkpt lat="45.46814995984509" lon="11.31135390091569"><ele>57.0</ele><time>2026-04-11T14:43:22Z</time></trkpt><trkpt lat="45.468271011354545" lon="11.311228901559794"><ele>57.0</ele><time>2026-04-11T14:43:23Z</time></trkpt><trkpt lat="45.46836601827926" lon="11.311094649328062"><ele>57.0</ele><time>2026-04-11T14:43:24Z</time></trkpt><trkpt lat="45.46845303620459" lon="11.310947573750195"><ele>57.0</ele><time>2026-04-11T14:43:25Z</time></trkpt><trkpt lat="45.46853485153293" lon="11.310774297577249"><ele>57.0</ele><time>2026-04-11T14:43:26Z</time></trkpt><trkpt lat="45.468608351196366" lon="11.310606528846266"><ele>56.33333333333333</ele><time>2026-04-11T14:43:27Z</time></trkpt><trkpt lat="45.46871992008508" lon="11.31039505316653"><ele>55.666666666666664</ele><time>2026-04-11T14:43:28Z</time></trkpt><trkpt lat="45.468855010584576" lon="11.310171375601755"><ele>55.0</ele><time>2026-04-11T14:43:29Z</time></trkpt><trkpt lat="45.46896978412427" lon="11.309929325945589"><ele>54.33333333333333</ele><time>2026-04-11T14:43:30Z</time></trkpt><trkpt lat="45.46908729828706" lon="11.309699273952377"><ele>53.66666666666667</ele><time>2026-04-11T14:43:31Z</time></trkpt><trkpt lat="45.46920449790874" lon="11.309483638677277"><ele>53.0</ele><time>2026-04-11T14:43:32Z</time></trkpt><trkpt lat="45.46931672071312" lon="11.30926825802104"><ele>53.0</ele><time>2026-04-11T14:43:33Z</time></trkpt><trkpt lat="45.46942883633538" lon="11.309055728239105"><ele>53.0</ele><time>2026-04-11T14:43:34Z</time></trkpt><trkpt lat="45.46954114171464" lon="11.308854165333893"><ele>53.0</ele><time>2026-04-11T14:43:35Z</time></trkpt><trkpt lat="45.46964892338114" lon="11.308678140241689"><ele>52.66666666666667</ele><time>2026-04-11T14:43:36Z</time></trkpt><trkpt lat="45.46976283345418" lon="11.30851729025225"><ele>52.33333333333333</ele><time>2026-04-11T14:43:37Z</time></trkpt><trkpt lat="45.46989057520296" lon="11.308363706058232"><ele>52.0</ele><time>2026-04-11T14:43:38Z</time></trkpt><trkpt lat="45.47002415222012" lon="11.308222212862926"><ele>52.0</ele><time>2026-04-11T14:43:39Z</time></trkpt><trkpt lat="45.4701558450798" lon="11.308085260144798"><ele>52.0</ele><time>2026-04-11T14:43:40Z</time></trkpt><trkpt lat="45.47029007506582" lon="11.3079547167816"><ele>52.0</ele><time>2026-04-11T14:43:41Z</time></trkpt><trkpt lat="45.47042466245916" lon="11.307828581013144"><ele>52.0</ele><time>2026-04-11T14:43:42Z</time></trkpt><trkpt lat="45.47056163715792" lon="11.307699956172796"><ele>52.0</ele><time>2026-04-11T14:43:43Z</time></trkpt><trkpt lat="45.470694601741755" lon="11.307573802157997"><ele>52.0</ele><time>2026-04-11T14:43:44Z</time></trkpt><trkpt lat="45.470829938265744" lon="11.307439574816861"><ele>52.0</ele><time>2026-04-11T14:43:45Z</time></trkpt><trkpt lat="45.470961935636126" lon="11.3073071841878"><ele>52.0</ele><time>2026-04-11T14:43:46Z</time></trkpt><trkpt lat="45.47109848498341" lon="11.307174471049219"><ele>52.0</ele><time>2026-04-11T14:43:47Z</time></trkpt><trkpt lat="45.471235057146906" lon="11.307040196488785"><ele>51.33333333333333</ele><time>2026-04-11T14:43:48Z</time></trkpt><trkpt lat="45.4713692347241" lon="11.306909448282605"><ele>50.66666666666667</ele><time>2026-04-11T14:43:49Z</time></trkpt><trkpt lat="45.47151046859098" lon="11.306774283162014"><ele>50.0</ele><time>2026-04-11T14:43:50Z</time></trkpt><trkpt lat="45.47164456627113" lon="11.306641440165516"><ele>50.0</ele><time>2026-04-11T14:43:50.999Z</time></trkpt><trkpt lat="45.47177482192471" lon="11.306511390326563"><ele>50.0</ele><time>2026-04-11T14:43:51.999Z</time></trkpt><trkpt lat="45.47190588254151" lon="11.306383235879892"><ele>50.0</ele><time>2026-04-11T14:43:52.999Z</time></trkpt><trkpt lat="45.472027351814134" lon="11.306258207787026"><ele>50.333333333333336</ele><time>2026-04-11T14:43:53.999Z</time></trkpt><trkpt lat="45.47215517756933" lon="11.306132634581283"><ele>50.66666666666667</ele><time>2026-04-11T14:43:54.999Z</time></trkpt><trkpt lat="45.472283112482366" lon="11.306011261741709"><ele>51.0</ele><time>2026-04-11T14:43:55.999Z</time></trkpt><trkpt lat="45.4724112417523" lon="11.30588838895057"><ele>51.0</ele><time>2026-04-11T14:43:56.999Z</time></trkpt><trkpt lat="45.47253756388912" lon="11.305769107843377"><ele>51.0</ele><time>2026-04-11T14:43:57.999Z</time></trkpt><trkpt lat="45.47266420718437" lon="11.305646385783962"><ele>51.0</ele><time>2026-04-11T14:43:58.999Z</time></trkpt><trkpt lat="45.47279564236533" lon="11.305520779661897"><ele>51.33333333333333</ele><time>2026-04-11T14:43:59.999Z</time></trkpt><trkpt lat="45.47292229634376" lon="11.305396032461253"><ele>51.666666666666664</ele><time>2026-04-11T14:44:00.999Z</time></trkpt><trkpt lat="45.473048434582296" lon="11.305268136864148"><ele>52.0</ele><time>2026-04-11T14:44:01.999Z</time></trkpt><trkpt lat="45.473170648703956" lon="11.305147595047465"><ele>52.0</ele><time>2026-04-11T14:44:02.999Z</time></trkpt><trkpt lat="45.473283426158744" lon="11.305037055145089"><ele>52.0</ele><time>2026-04-11T14:44:03.999Z</time></trkpt><trkpt lat="45.47339591995714" lon="11.304928242188753"><ele>52.0</ele><time>2026-04-11T14:44:04.999Z</time></trkpt><trkpt lat="45.47351352336809" lon="11.304813456816406"><ele>52.0</ele><time>2026-04-11T14:44:05.999Z</time></trkpt><trkpt lat="45.47363514578446" lon="11.30469476339668"><ele>52.33333333333333</ele><time>2026-04-11T14:44:06.999Z</time></trkpt><trkpt lat="45.4737548306905" lon="11.304575895646494"><ele>52.66666666666667</ele><time>2026-04-11T14:44:07.999Z</time></trkpt><trkpt lat="45.47387936405318" lon="11.30445274610992"><ele>53.0</ele><time>2026-04-11T14:44:08.999Z</time></trkpt><trkpt lat="45.47400649376857" lon="11.30433154125718"><ele>53.75</ele><time>2026-04-11T14:44:09.999Z</time></trkpt><trkpt lat="45.47413032257017" lon="11.304214185123534"><ele>54.5</ele><time>2026-04-11T14:44:10.999Z</time></trkpt><trkpt lat="45.474256021187266" lon="11.304091783899569"><ele>55.25</ele><time>2026-04-11T14:44:11.999Z</time></trkpt><trkpt lat="45.47437511477578" lon="11.30397106423088"><ele>56.0</ele><time>2026-04-11T14:44:12.999Z</time></trkpt><trkpt lat="45.47449860036557" lon="11.30385407542173"><ele>57.75</ele><time>2026-04-11T14:44:13.999Z</time></trkpt><trkpt lat="45.47461697587601" lon="11.303744595029956"><ele>59.5</ele><time>2026-04-11T14:44:14.999Z</time></trkpt><trkpt lat="45.474741861541936" lon="11.30365362761987"><ele>61.25</ele><time>2026-04-11T14:44:15.999Z</time></trkpt><trkpt lat="45.474875890677176" lon="11.303570456018203"><ele>63.0</ele><time>2026-04-11T14:44:16.999Z</time></trkpt><trkpt lat="45.47501745732543" lon="11.303504118706499"><ele>63.0</ele><time>2026-04-11T14:44:17.999Z</time></trkpt><trkpt lat="45.47517211621937" lon="11.30344484458406"><ele>63.0</ele><time>2026-04-11T14:44:18.999Z</time></trkpt><trkpt lat="45.475336288527316" lon="11.303393899889219"><ele>63.0</ele><time>2026-04-11T14:44:19.999Z</time></trkpt><trkpt lat="45.475506226365034" lon="11.303360176016856"><ele>64.33333333333333</ele><time>2026-04-11T14:44:20.999Z</time></trkpt><trkpt lat="45.47568162964839" lon="11.303340098074456"><ele>65.66666666666666</ele><time>2026-04-11T14:44:21.999Z</time></trkpt><trkpt lat="45.47586109852721" lon="11.303338812209905"><ele>67.0</ele><time>2026-04-11T14:44:22.999Z</time></trkpt><trkpt lat="45.47603725356647" lon="11.303374738108953"><ele>67.0</ele><time>2026-04-11T14:44:23.999Z</time></trkpt><trkpt lat="45.476206006798435" lon="11.303428524048524"><ele>67.0</ele><time>2026-04-11T14:44:24.999Z</time></trkpt><trkpt lat="45.47634660544283" lon="11.303476604633472"><ele>67.0</ele><time>2026-04-11T14:44:25.999Z</time></trkpt><trkpt lat="45.47648390127806" lon="11.303465047772628"><ele>66.33333333333333</ele><time>2026-04-11T14:44:26.999Z</time></trkpt><trkpt lat="45.476621427491914" lon="11.303381222224097"><ele>65.66666666666667</ele><time>2026-04-11T14:44:27.999Z</time></trkpt><trkpt lat="45.47675209372387" lon="11.303223176585966"><ele>65.0</ele><time>2026-04-11T14:44:28.999Z</time></trkpt><trkpt lat="45.47689759373439" lon="11.303046115126389"><ele>65.0</ele><time>2026-04-11T14:44:29.999Z</time></trkpt><trkpt lat="45.47705960276153" lon="11.302886346548274"><ele>65.0</ele><time>2026-04-11T14:44:30.998Z</time></trkpt><trkpt lat="45.47722495931876" lon="11.302725602737505"><ele>65.0</ele><time>2026-04-11T14:44:31.998Z</time></trkpt><trkpt lat="45.4773916919501" lon="11.302557606245303"><ele>65.0</ele><time>2026-04-11T14:44:32.998Z</time></trkpt><trkpt lat="45.47754620399452" lon="11.302374777321726"><ele>65.0</ele><time>2026-04-11T14:44:33.998Z</time></trkpt><trkpt lat="45.477678899183665" lon="11.302151550946526"><ele>65.0</ele><time>2026-04-11T14:44:34.998Z</time></trkpt><trkpt lat="45.477774208848636" lon="11.30189977566384"><ele>65.0</ele><time>2026-04-11T14:44:35.998Z</time></trkpt><trkpt lat="45.47782107625344" lon="11.301615196468788"><ele>65.0</ele><time>2026-04-11T14:44:36.998Z</time></trkpt><trkpt lat="45.4778356180842" lon="11.301312881745394"><ele>65.0</ele><time>2026-04-11T14:44:37.998Z</time></trkpt><trkpt lat="45.47783782448444" lon="11.300994899111178"><ele>64.33333333333334</ele><time>2026-04-11T14:44:38.998Z</time></trkpt><trkpt lat="45.47785716569095" lon="11.30067402975628"><ele>63.66666666666667</ele><time>2026-04-11T14:44:39.998Z</time></trkpt><trkpt lat="45.477886380431755" lon="11.30035914930035"><ele>63.0</ele><time>2026-04-11T14:44:40.998Z</time></trkpt><trkpt lat="45.47791227646029" lon="11.300048613145202"><ele>66.66666666666667</ele><time>2026-04-11T14:44:41.998Z</time></trkpt><trkpt lat="45.47794755729365" lon="11.299741545374275"><ele>70.33333333333334</ele><time>2026-04-11T14:44:42.998Z</time></trkpt><trkpt lat="45.4780014099951" lon="11.299433273545652"><ele>74.0</ele><time>2026-04-11T14:44:43.998Z</time></trkpt><trkpt lat="45.47807817795504" lon="11.299132071382623"><ele>75.33333333333334</ele><time>2026-04-11T14:44:44.998Z</time></trkpt><trkpt lat="45.478172853709346" lon="11.298845266077148"><ele>76.66666666666667</ele><time>2026-04-11T14:44:45.998Z</time></trkpt><trkpt lat="45.4782842723685" lon="11.298579196443354"><ele>78.0</ele><time>2026-04-11T14:44:46.998Z</time></trkpt><trkpt lat="45.478404604314775" lon="11.298321140283909"><ele>79.66666666666667</ele><time>2026-04-11T14:44:47.998Z</time></trkpt><trkpt lat="45.47853945059165" lon="11.298080667771103"><ele>81.33333333333334</ele><time>2026-04-11T14:44:48.998Z</time></trkpt><trkpt lat="45.47867098392625" lon="11.297867210899973"><ele>83.0</ele><time>2026-04-11T14:44:49.998Z</time></trkpt><trkpt lat="45.47878552077358" lon="11.297675227673192"><ele>83.0</ele><time>2026-04-11T14:44:50.998Z</time></trkpt><trkpt lat="45.47888732997438" lon="11.297491266187505"><ele>83.0</ele><time>2026-04-11T14:44:51.998Z</time></trkpt><trkpt lat="45.47897774861877" lon="11.297328953532865"><ele>83.0</ele><time>2026-04-11T14:44:52.998Z</time></trkpt><trkpt lat="45.47905105651536" lon="11.297204820483332"><ele>83.0</ele><time>2026-04-11T14:44:53.998Z</time></trkpt><trkpt lat="45.47910941999939" lon="11.297091891791998"><ele>83.2</ele><time>2026-04-11T14:44:54.998Z</time></trkpt><trkpt lat="45.4791489209804" lon="11.296982739096048"><ele>83.4</ele><time>2026-04-11T14:44:55.998Z</time></trkpt><trkpt lat="45.479168628264794" lon="11.296872068331682"><ele>83.60000000000001</ele><time>2026-04-11T14:44:56.998Z</time></trkpt><trkpt lat="45.47917388501279" lon="11.296734986099537"><ele>83.80000000000001</ele><time>2026-04-11T14:44:57.998Z</time></trkpt><trkpt lat="45.47917932956818" lon="11.296569711573694"><ele>84.0</ele><time>2026-04-11T14:44:58.998Z</time></trkpt><trkpt lat="45.47919470358902" lon="11.296400541750511"><ele>82.75</ele><time>2026-04-11T14:44:59.998Z</time></trkpt><trkpt lat="45.47921473459829" lon="11.296204593812698"><ele>81.5</ele><time>2026-04-11T14:45:00.998Z</time></trkpt><trkpt lat="45.47924077291603" lon="11.296012412433283"><ele>80.25</ele><time>2026-04-11T14:45:01.998Z</time></trkpt><trkpt lat="45.47926439525192" lon="11.295810344313505"><ele>79.0</ele><time>2026-04-11T14:45:02.998Z</time></trkpt><trkpt lat="45.47928713687108" lon="11.295604350214589"><ele>78.0</ele><time>2026-04-11T14:45:03.998Z</time></trkpt><trkpt lat="45.47930964933345" lon="11.295397932558613"><ele>77.0</ele><time>2026-04-11T14:45:04.998Z</time></trkpt><trkpt lat="45.479329555680664" lon="11.295193493873736"><ele>76.0</ele><time>2026-04-11T14:45:05.998Z</time></trkpt><trkpt lat="45.47934942234482" lon="11.294992751156947"><ele>75.0</ele><time>2026-04-11T14:45:06.998Z</time></trkpt><trkpt lat="45.47937167956176" lon="11.294794893055482"><ele>74.25</ele><time>2026-04-11T14:45:07.998Z</time></trkpt><trkpt lat="45.47939489278742" lon="11.29459250397073"><ele>73.5</ele><time>2026-04-11T14:45:08.998Z</time></trkpt><trkpt lat="45.479420345662795" lon="11.294389011904158"><ele>72.75</ele><time>2026-04-11T14:45:09.998Z</time></trkpt><trkpt lat="45.47944423253186" lon="11.294185677498907"><ele>72.0</ele><time>2026-04-11T14:45:10.997Z</time></trkpt><trkpt lat="45.479465249613355" lon="11.293982095538029"><ele>72.0</ele><time>2026-04-11T14:45:11.997Z</time></trkpt><trkpt lat="45.4794891016538" lon="11.293788889233669"><ele>72.0</ele><time>2026-04-11T14:45:12.997Z</time></trkpt><trkpt lat="45.4795112085811" lon="11.293605319912613"><ele>72.0</ele><time>2026-04-11T14:45:13.997Z</time></trkpt><trkpt lat="45.47952324797817" lon="11.293419662261432"><ele>72.0</ele><time>2026-04-11T14:45:14.997Z</time></trkpt><trkpt lat="45.47954960848969" lon="11.29323792536393"><ele>72.2</ele><time>2026-04-11T14:45:15.997Z</time></trkpt><trkpt lat="45.47957089118836" lon="11.293064941976441"><ele>72.4</ele><time>2026-04-11T14:45:16.997Z</time></trkpt><trkpt lat="45.47958289973509" lon="11.292894180913303"><ele>72.6</ele><time>2026-04-11T14:45:17.997Z</time></trkpt><trkpt lat="45.47960873955149" lon="11.292734240791235"><ele>72.8</ele><time>2026-04-11T14:45:18.997Z</time></trkpt><trkpt lat="45.47962191917261" lon="11.292611945933976"><ele>73.0</ele><time>2026-04-11T14:45:19.997Z</time></trkpt><trkpt lat="45.47963325195697" lon="11.292514698564311"><ele>73.6</ele><time>2026-04-11T14:45:20.997Z</time></trkpt><trkpt lat="45.47964709560801" lon="11.292380848286456"><ele>74.19999999999999</ele><time>2026-04-11T14:45:22.997Z</time></trkpt><trkpt lat="45.479667611495564" lon="11.292234251620656"><ele>74.8</ele><time>2026-04-11T14:45:25Z</time></trkpt><trkpt lat="45.47968031107508" lon="11.29212951546161"><ele>75.39999999999999</ele><time>2026-04-11T14:45:26Z</time></trkpt><trkpt lat="45.47968931172307" lon="11.292012089663476"><ele>76.0</ele><time>2026-04-11T14:45:27Z</time></trkpt><trkpt lat="45.4797065876802" lon="11.291881936507446"><ele>76.83333333333333</ele><time>2026-04-11T14:45:28Z</time></trkpt><trkpt lat="45.479724920218914" lon="11.291754054898"><ele>77.66666666666666</ele><time>2026-04-11T14:45:29Z</time></trkpt><trkpt lat="45.47973260861198" lon="11.291615993382168"><ele>78.5</ele><time>2026-04-11T14:45:30Z</time></trkpt><trkpt lat="45.479739155653036" lon="11.291483614745657"><ele>79.33333333333333</ele><time>2026-04-11T14:45:31Z</time></trkpt><trkpt lat="45.47973566665165" lon="11.291372409647815"><ele>80.16666666666667</ele><time>2026-04-11T14:45:32Z</time></trkpt><trkpt lat="45.479727406203516" lon="11.291277158534232"><ele>81.0</ele><time>2026-04-11T14:45:33Z</time></trkpt><trkpt lat="45.479715136290814" lon="11.291179064730942"><ele>81.33333333333333</ele><time>2026-04-11T14:45:34Z</time></trkpt><trkpt lat="45.47968676400333" lon="11.291075439809367"><ele>81.66666666666667</ele><time>2026-04-11T14:45:35Z</time></trkpt><trkpt lat="45.47967162580777" lon="11.29096668582542"><ele>82.0</ele><time>2026-04-11T14:45:36Z</time></trkpt><trkpt lat="45.47963684614289" lon="11.290883224081393"><ele>82.33333333333334</ele><time>2026-04-11T14:45:37Z</time></trkpt><trkpt lat="45.47962462174092" lon="11.290787966087475"><ele>82.66666666666667</ele><time>2026-04-11T14:45:38Z</time></trkpt><trkpt lat="45.47961139334767" lon="11.290678926185125"><ele>83.0</ele><time>2026-04-11T14:45:39Z</time></trkpt><trkpt lat="45.47952951105436" lon="11.290497481014961"><ele>82.0</ele><time>2026-04-11T14:45:40Z</time></trkpt><trkpt lat="45.479477858240635" lon="11.290368311748622"><ele>81.0</ele><time>2026-04-11T14:45:41Z</time></trkpt><trkpt lat="45.47941992009703" lon="11.290236590072885"><ele>80.0</ele><time>2026-04-11T14:45:42Z</time></trkpt><trkpt lat="45.4793521942083" lon="11.290101898084131"><ele>79.0</ele><time>2026-04-11T14:45:43Z</time></trkpt><trkpt lat="45.47928346927124" lon="11.289962378745638"><ele>78.0</ele><time>2026-04-11T14:45:44Z</time></trkpt><trkpt lat="45.479219726089994" lon="11.289842430325855"><ele>77.6</ele><time>2026-04-11T14:45:45Z</time></trkpt><trkpt lat="45.479152206248166" lon="11.289738111501391"><ele>77.19999999999999</ele><time>2026-04-11T14:45:46Z</time></trkpt><trkpt lat="45.47910390316631" lon="11.289602970682557"><ele>76.8</ele><time>2026-04-11T14:45:47Z</time></trkpt><trkpt lat="45.479026894936155" lon="11.289477664810317"><ele>76.39999999999999</ele><time>2026-04-11T14:45:48Z</time></trkpt><trkpt lat="45.47898892268124" lon="11.289350666802296"><ele>76.0</ele><time>2026-04-11T14:45:49Z</time></trkpt><trkpt lat="45.47891707093514" lon="11.289203199103456"><ele>76.0</ele><time>2026-04-11T14:45:50Z</time></trkpt><trkpt lat="45.478859176956" lon="11.28906226986827"><ele>76.0</ele><time>2026-04-11T14:45:51Z</time></trkpt><trkpt lat="45.47880052412551" lon="11.288934555837546"><ele>76.0</ele><time>2026-04-11T14:45:52Z</time></trkpt><trkpt lat="45.47874509577767" lon="11.288809424128265"><ele>76.0</ele><time>2026-04-11T14:45:53Z</time></trkpt><trkpt lat="45.47869193274422" lon="11.288689491900241"><ele>76.0</ele><time>2026-04-11T14:45:54Z</time></trkpt><trkpt lat="45.47865381345994" lon="11.288603078808958"><ele>75.2</ele><time>2026-04-11T14:45:55Z</time></trkpt><trkpt lat="45.47858043538753" lon="11.288425408707349"><ele>74.39999999999999</ele><time>2026-04-11T14:45:56.999Z</time></trkpt><trkpt lat="45.478527477230614" lon="11.288294660086262"><ele>73.6</ele><time>2026-04-11T14:45:57.999Z</time></trkpt><trkpt lat="45.478475246104296" lon="11.288173836807447"><ele>72.8</ele><time>2026-04-11T14:45:58.999Z</time></trkpt><trkpt lat="45.47843764549464" lon="11.28808968824902"><ele>72.0</ele><time>2026-04-11T14:45:59.999Z</time></trkpt><trkpt lat="45.47837120861023" lon="11.288001808597368"><ele>72.0</ele><time>2026-04-11T14:46:01.999Z</time></trkpt><trkpt lat="45.478464232958316" lon="11.287871265592385"><ele>72.0</ele><time>2026-04-11T14:46:02.999Z</time></trkpt><trkpt lat="45.478560374033066" lon="11.287845688495134"><ele>72.0</ele><time>2026-04-11T14:46:03.999Z</time></trkpt><trkpt lat="45.47868306232024" lon="11.28779065839541"><ele>72.0</ele><time>2026-04-11T14:46:04.999Z</time></trkpt><trkpt lat="45.47883889283417" lon="11.28776467169949"><ele>72.66666666666667</ele><time>2026-04-11T14:46:05.999Z</time></trkpt><trkpt lat="45.479009795257255" lon="11.287728966865735"><ele>73.33333333333334</ele><time>2026-04-11T14:46:06.999Z</time></trkpt><trkpt lat="45.479198392645536" lon="11.287687329604484"><ele>74.0</ele><time>2026-04-11T14:46:07.999Z</time></trkpt><trkpt lat="45.47936114564071" lon="11.287637688166742"><ele>74.0</ele><time>2026-04-11T14:46:08.999Z</time></trkpt><trkpt lat="45.47950469209895" lon="11.287574831579832"><ele>74.0</ele><time>2026-04-11T14:46:09.999Z</time></trkpt><trkpt lat="45.47964176288079" lon="11.287493480291806"><ele>74.0</ele><time>2026-04-11T14:46:10.999Z</time></trkpt><trkpt lat="45.47977124418767" lon="11.287394440636733"><ele>74.0</ele><time>2026-04-11T14:46:11.999Z</time></trkpt><trkpt lat="45.47989609968543" lon="11.287269034037404"><ele>74.75</ele><time>2026-04-11T14:46:12.999Z</time></trkpt><trkpt lat="45.48001813310084" lon="11.287156359473459"><ele>75.5</ele><time>2026-04-11T14:46:13.999Z</time></trkpt><trkpt lat="45.480141263454136" lon="11.28705367702234"><ele>76.25</ele><time>2026-04-11T14:46:14.999Z</time></trkpt><trkpt lat="45.48025090035891" lon="11.286970201431487"><ele>77.0</ele><time>2026-04-11T14:46:15.999Z</time></trkpt><trkpt lat="45.48034988964381" lon="11.286899196743203"><ele>77.6</ele><time>2026-04-11T14:46:16.999Z</time></trkpt><trkpt lat="45.48043842681452" lon="11.286839653945865"><ele>78.2</ele><time>2026-04-11T14:46:17.999Z</time></trkpt><trkpt lat="45.48052162527668" lon="11.286792911119868"><ele>78.8</ele><time>2026-04-11T14:46:18.999Z</time></trkpt><trkpt lat="45.48059472607298" lon="11.286761120861046"><ele>79.4</ele><time>2026-04-11T14:46:19.999Z</time></trkpt><trkpt lat="45.480684941168015" lon="11.286882818175599"><ele>80.0</ele><time>2026-04-11T14:46:21.999Z</time></trkpt><trkpt lat="45.48062485014866" lon="11.287026772423104"><ele>80.0</ele><time>2026-04-11T14:46:23.999Z</time></trkpt><trkpt lat="45.480594719285286" lon="11.287181701219806"><ele>80.0</ele><time>2026-04-11T14:46:24.999Z</time></trkpt><trkpt lat="45.48054380491483" lon="11.287353510573107"><ele>80.0</ele><time>2026-04-11T14:46:25.999Z</time></trkpt><trkpt lat="45.48049692708582" lon="11.287546915793907"><ele>80.0</ele><time>2026-04-11T14:46:26.999Z</time></trkpt><trkpt lat="45.480436199171535" lon="11.287746695572153"><ele>79.5</ele><time>2026-04-11T14:46:27.999Z</time></trkpt><trkpt lat="45.48034954465142" lon="11.28790740185367"><ele>79.0</ele><time>2026-04-11T14:46:28.999Z</time></trkpt><trkpt lat="45.480262778951605" lon="11.288065403597763"><ele>78.5</ele><time>2026-04-11T14:46:29.999Z</time></trkpt><trkpt lat="45.48017306435783" lon="11.288209360569427"><ele>78.0</ele><time>2026-04-11T14:46:30.999Z</time></trkpt><trkpt lat="45.48009432948018" lon="11.288352764612528"><ele>77.8</ele><time>2026-04-11T14:46:31.999Z</time></trkpt><trkpt lat="45.4800111882906" lon="11.288481227848367"><ele>77.6</ele><time>2026-04-11T14:46:32.999Z</time></trkpt><trkpt lat="45.479940924809654" lon="11.288607731853636"><ele>77.4</ele><time>2026-04-11T14:46:33.999Z</time></trkpt><trkpt lat="45.47987545845446" lon="11.288714246680016"><ele>77.2</ele><time>2026-04-11T14:46:34.999Z</time></trkpt><trkpt lat="45.479819354446896" lon="11.28879602682124"><ele>77.0</ele><time>2026-04-11T14:46:35.999Z</time></trkpt><trkpt lat="45.47975335589762" lon="11.288894535077755"><ele>77.2</ele><time>2026-04-11T14:46:37.998Z</time></trkpt><trkpt lat="45.47971060427453" lon="11.288973161658868"><ele>77.4</ele><time>2026-04-11T14:46:41.998Z</time></trkpt><trkpt lat="45.47986258259794" lon="11.289113027403799"><ele>77.6</ele><time>2026-04-11T14:46:42.998Z</time></trkpt><trkpt lat="45.4799459376144" lon="11.289170324104484"><ele>77.8</ele><time>2026-04-11T14:46:43.998Z</time></trkpt><trkpt lat="45.48001906160786" lon="11.2892216771442"><ele>78.0</ele><time>2026-04-11T14:46:44.998Z</time></trkpt><trkpt lat="45.480102725339286" lon="11.28928318302867"><ele>78.0</ele><time>2026-04-11T14:46:45.998Z</time></trkpt><trkpt lat="45.480197507683435" lon="11.2893535552594"><ele>78.0</ele><time>2026-04-11T14:46:46.998Z</time></trkpt><trkpt lat="45.48029396032791" lon="11.289422074463983"><ele>78.0</ele><time>2026-04-11T14:46:47.998Z</time></trkpt><trkpt lat="45.4803789409003" lon="11.289490345805326"><ele>78.0</ele><time>2026-04-11T14:46:48.998Z</time></trkpt><trkpt lat="45.48046433360887" lon="11.289553261535094"><ele>78.0</ele><time>2026-04-11T14:46:49.998Z</time></trkpt><trkpt lat="45.48055908855348" lon="11.289598326455028"><ele>78.4</ele><time>2026-04-11T14:46:50.998Z</time></trkpt><trkpt lat="45.480660487706395" lon="11.289620546851971"><ele>78.8</ele><time>2026-04-11T14:46:51.998Z</time></trkpt><trkpt lat="45.480769452829094" lon="11.289619339807581"><ele>79.2</ele><time>2026-04-11T14:46:52.998Z</time></trkpt><trkpt lat="45.480877256550194" lon="11.289594817694741"><ele>79.6</ele><time>2026-04-11T14:46:53.998Z</time></trkpt><trkpt lat="45.48098143402678" lon="11.289563176280305"><ele>80.0</ele><time>2026-04-11T14:46:54.998Z</time></trkpt><trkpt lat="45.481058176979914" lon="11.28944567995554"><ele>80.0</ele><time>2026-04-11T14:46:55.998Z</time></trkpt><trkpt lat="45.48113447048625" lon="11.289356418965541"><ele>80.0</ele><time>2026-04-11T14:46:56.998Z</time></trkpt><trkpt lat="45.4812434061516" lon="11.289338042329577"><ele>80.0</ele><time>2026-04-11T14:46:57.998Z</time></trkpt><trkpt lat="45.481380116774986" lon="11.28931357976064"><ele>80.0</ele><time>2026-04-11T14:46:58.998Z</time></trkpt><trkpt lat="45.481532871327815" lon="11.28939165223247"><ele>82.66666666666667</ele><time>2026-04-11T14:46:59.998Z</time></trkpt><trkpt lat="45.481684944556264" lon="11.289452611842947"><ele>85.33333333333333</ele><time>2026-04-11T14:47:00.998Z</time></trkpt><trkpt lat="45.48185943314838" lon="11.289528885845398"><ele>88.0</ele><time>2026-04-11T14:47:01.998Z</time></trkpt><trkpt lat="45.48203961075164" lon="11.289622302043748"><ele>89.33333333333333</ele><time>2026-04-11T14:47:02.998Z</time></trkpt><trkpt lat="45.48222846442552" lon="11.289704039326415"><ele>90.66666666666667</ele><time>2026-04-11T14:47:03.998Z</time></trkpt><trkpt lat="45.48243806016812" lon="11.289754522619697"><ele>92.0</ele><time>2026-04-11T14:47:04.998Z</time></trkpt><trkpt lat="45.48264506382264" lon="11.289828203357116"><ele>92.66666666666667</ele><time>2026-04-11T14:47:05.998Z</time></trkpt><trkpt lat="45.48284370448336" lon="11.289895608712701"><ele>93.33333333333333</ele><time>2026-04-11T14:47:06.998Z</time></trkpt><trkpt lat="45.483051656344145" lon="11.289922952411308"><ele>94.0</ele><time>2026-04-11T14:47:07.998Z</time></trkpt><trkpt lat="45.48326519803499" lon="11.289927265160781"><ele>97.0</ele><time>2026-04-11T14:47:08.998Z</time></trkpt><trkpt lat="45.48347978227469" lon="11.29000908931162"><ele>100.0</ele><time>2026-04-11T14:47:09.998Z</time></trkpt><trkpt lat="45.48368223606461" lon="11.290109324109928"><ele>103.0</ele><time>2026-04-11T14:47:10.998Z</time></trkpt><trkpt lat="45.48386396099626" lon="11.290191216819045"><ele>106.0</ele><time>2026-04-11T14:47:11.998Z</time></trkpt><trkpt lat="45.48403691521748" lon="11.29025248457259"><ele>109.0</ele><time>2026-04-11T14:47:12.998Z</time></trkpt><trkpt lat="45.484224071409486" lon="11.29028274967526"><ele>112.0</ele><time>2026-04-11T14:47:13.998Z</time></trkpt><trkpt lat="45.48441436087602" lon="11.290247797998433"><ele>116.66666666666667</ele><time>2026-04-11T14:47:14.998Z</time></trkpt><trkpt lat="45.484622330921205" lon="11.290235383514586"><ele>121.33333333333334</ele><time>2026-04-11T14:47:15.998Z</time></trkpt><trkpt lat="45.48481218012093" lon="11.290274741886691"><ele>126.0</ele><time>2026-04-11T14:47:16.998Z</time></trkpt><trkpt lat="45.484974107089954" lon="11.290341162912823"><ele>126.0</ele><time>2026-04-11T14:47:17.997Z</time></trkpt><trkpt lat="45.48510982829192" lon="11.290416195288673"><ele>126.0</ele><time>2026-04-11T14:47:18.997Z</time></trkpt><trkpt lat="45.485242737545235" lon="11.290453396760533"><ele>126.0</ele><time>2026-04-11T14:47:19.997Z</time></trkpt><trkpt lat="45.485371415705735" lon="11.290410422953924"><ele>126.0</ele><time>2026-04-11T14:47:20.997Z</time></trkpt><trkpt lat="45.485496490399875" lon="11.29029734061201"><ele>129.33333333333334</ele><time>2026-04-11T14:47:21.997Z</time></trkpt><trkpt lat="45.48564329718522" lon="11.290182780711138"><ele>132.66666666666669</ele><time>2026-04-11T14:47:22.997Z</time></trkpt><trkpt lat="45.485793902526325" lon="11.290103467195985"><ele>136.0</ele><time>2026-04-11T14:47:23.997Z</time></trkpt><trkpt lat="45.4859148324304" lon="11.290080619187343"><ele>136.0</ele><time>2026-04-11T14:47:24.997Z</time></trkpt><trkpt lat="45.48599100323868" lon="11.290055542700964"><ele>136.0</ele><time>2026-04-11T14:47:25.997Z</time></trkpt><trkpt lat="45.48601833520587" lon="11.289805903433612"><ele>136.0</ele><time>2026-04-11T14:47:27.997Z</time></trkpt><trkpt lat="45.48600717714689" lon="11.289616238311467"><ele>136.0</ele><time>2026-04-11T14:47:28.997Z</time></trkpt><trkpt lat="45.48604855597253" lon="11.289516706575316"><ele>135.4</ele><time>2026-04-11T14:47:30Z</time></trkpt><trkpt lat="45.48612070628429" lon="11.28950164132893"><ele>134.8</ele><time>2026-04-11T14:47:31Z</time></trkpt><trkpt lat="45.48621117601472" lon="11.289562495903958"><ele>134.20000000000002</ele><time>2026-04-11T14:47:32Z</time></trkpt><trkpt lat="45.48630752026512" lon="11.289680942438041"><ele>133.6</ele><time>2026-04-11T14:47:33Z</time></trkpt><trkpt lat="45.4864276243672" lon="11.28979802098225"><ele>133.0</ele><time>2026-04-11T14:47:34Z</time></trkpt><trkpt lat="45.486582730843125" lon="11.289908810070528"><ele>136.75</ele><time>2026-04-11T14:47:35Z</time></trkpt><trkpt lat="45.486744570699045" lon="11.289982183890181"><ele>140.5</ele><time>2026-04-11T14:47:36Z</time></trkpt><trkpt lat="45.486878018477924" lon="11.290018939260321"><ele>144.25</ele><time>2026-04-11T14:47:37Z</time></trkpt><trkpt lat="45.48698384334369" lon="11.29011596571076"><ele>148.0</ele><time>2026-04-11T14:47:38Z</time></trkpt><trkpt lat="45.48701114899856" lon="11.290275135628328"><ele>148.0</ele><time>2026-04-11T14:47:39Z</time></trkpt><trkpt lat="45.48707029647724" lon="11.290423895902704"><ele>148.0</ele><time>2026-04-11T14:47:40Z</time></trkpt><trkpt lat="45.48715004381898" lon="11.29056854596242"><ele>148.0</ele><time>2026-04-11T14:47:41Z</time></trkpt><trkpt lat="45.487265211836466" lon="11.290683076888472"><ele>148.0</ele><time>2026-04-11T14:47:42Z</time></trkpt><trkpt lat="45.48742627425608" lon="11.29072476384144"><ele>150.33333333333334</ele><time>2026-04-11T14:47:43Z</time></trkpt><trkpt lat="45.487607637625416" lon="11.290751495032454"><ele>152.66666666666666</ele><time>2026-04-11T14:47:44Z</time></trkpt><trkpt lat="45.4877190290834" lon="11.290924012024695"><ele>155.0</ele><time>2026-04-11T14:47:45Z</time></trkpt><trkpt lat="45.48785438638736" lon="11.291054903613212"><ele>158.8</ele><time>2026-04-11T14:47:46Z</time></trkpt><trkpt lat="45.48795291765783" lon="11.291181582931841"><ele>162.6</ele><time>2026-04-11T14:47:47Z</time></trkpt><trkpt lat="45.48804415061422" lon="11.291255467027158"><ele>166.39999999999998</ele><time>2026-04-11T14:47:48Z</time></trkpt><trkpt lat="45.48812882901164" lon="11.29127385792823"><ele>170.2</ele><time>2026-04-11T14:47:49Z</time></trkpt><trkpt lat="45.48820288998084" lon="11.291226059351423"><ele>174.0</ele><time>2026-04-11T14:47:50Z</time></trkpt><trkpt lat="45.48824427491634" lon="11.291104315643935"><ele>174.0</ele><time>2026-04-11T14:47:51Z</time></trkpt><trkpt lat="45.488230889646445" lon="11.290919890140335"><ele>174.0</ele><time>2026-04-11T14:47:52Z</time></trkpt><trkpt lat="45.48820110147023" lon="11.290727405926594"><ele>174.0</ele><time>2026-04-11T14:47:53Z</time></trkpt><trkpt lat="45.48820634503374" lon="11.290581567748585"><ele>174.0</ele><time>2026-04-11T14:47:54Z</time></trkpt><trkpt lat="45.48827354737573" lon="11.290490706348935"><ele>174.0</ele><time>2026-04-11T14:47:56Z</time></trkpt><trkpt lat="45.488344417592195" lon="11.290557963785501"><ele>174.0</ele><time>2026-04-11T14:47:57Z</time></trkpt><trkpt lat="45.488392263704746" lon="11.290700620588163"><ele>174.0</ele><time>2026-04-11T14:47:58Z</time></trkpt><trkpt lat="45.48848505693169" lon="11.290838424395831"><ele>174.0</ele><time>2026-04-11T14:47:59Z</time></trkpt><trkpt lat="45.48858191724034" lon="11.291008233046036"><ele>174.0</ele><time>2026-04-11T14:48:00Z</time></trkpt><trkpt lat="45.48869393246519" lon="11.291176258793614"><ele>174.0</ele><time>2026-04-11T14:48:01Z</time></trkpt><trkpt lat="45.488792806065604" lon="11.291299955489135"><ele>174.0</ele><time>2026-04-11T14:48:02Z</time></trkpt><trkpt lat="45.488880338859005" lon="11.291381478782066"><ele>174.0</ele><time>2026-04-11T14:48:03Z</time></trkpt><trkpt lat="45.48896131526221" lon="11.291391902685817"><ele>177.79999999999998</ele><time>2026-04-11T14:48:03.999Z</time></trkpt><trkpt lat="45.48903802128089" lon="11.291332469502992"><ele>181.6</ele><time>2026-04-11T14:48:04.999Z</time></trkpt><trkpt lat="45.48908248207543" lon="11.291221370470195"><ele>185.4</ele><time>2026-04-11T14:48:05.999Z</time></trkpt><trkpt lat="45.489072662939954" lon="11.291094084204023"><ele>189.2</ele><time>2026-04-11T14:48:06.999Z</time></trkpt><trkpt lat="45.48896441878966" lon="11.290965190155884"><ele>193.0</ele><time>2026-04-11T14:48:07.999Z</time></trkpt><trkpt lat="45.48886415256376" lon="11.290794001293191"><ele>193.0</ele><time>2026-04-11T14:48:08.999Z</time></trkpt><trkpt lat="45.488799995004946" lon="11.290637017806597"><ele>193.0</ele><time>2026-04-11T14:48:09.999Z</time></trkpt><trkpt lat="45.48876307313514" lon="11.290529163565699"><ele>193.0</ele><time>2026-04-11T14:48:10.999Z</time></trkpt><trkpt lat="45.48878730716687" lon="11.290410751571024"><ele>193.0</ele><time>2026-04-11T14:48:12.999Z</time></trkpt><trkpt lat="45.48886853947565" lon="11.29042591210558"><ele>193.0</ele><time>2026-04-11T14:48:13.999Z</time></trkpt><trkpt lat="45.488935575292274" lon="11.290532994103485"><ele>193.0</ele><time>2026-04-11T14:48:14.999Z</time></trkpt><trkpt lat="45.4890406272688" lon="11.290606681478476"><ele>193.0</ele><time>2026-04-11T14:48:15.999Z</time></trkpt><trkpt lat="45.48915762118281" lon="11.290700648228754"><ele>193.0</ele><time>2026-04-11T14:48:16.999Z</time></trkpt><trkpt lat="45.489257866610586" lon="11.290750257903943"><ele>193.0</ele><time>2026-04-11T14:48:17.999Z</time></trkpt><trkpt lat="45.48933844388442" lon="11.290741025188142"><ele>193.0</ele><time>2026-04-11T14:48:18.999Z</time></trkpt><trkpt lat="45.48940286072276" lon="11.290586071410948"><ele>195.8</ele><time>2026-04-11T14:48:20.999Z</time></trkpt><trkpt lat="45.489357807452954" lon="11.290489935227518"><ele>198.60000000000002</ele><time>2026-04-11T14:48:21.999Z</time></trkpt><trkpt lat="45.48925367861644" lon="11.290424596292842"><ele>201.39999999999998</ele><time>2026-04-11T14:48:22.999Z</time></trkpt><trkpt lat="45.48911794004743" lon="11.290401928884624"><ele>204.2</ele><time>2026-04-11T14:48:23.999Z</time></trkpt><trkpt lat="45.48902316470321" lon="11.290331872955221"><ele>207.0</ele><time>2026-04-11T14:48:24.999Z</time></trkpt><trkpt lat="45.488963017028816" lon="11.290248988238224"><ele>207.0</ele><time>2026-04-11T14:48:25.999Z</time></trkpt><trkpt lat="45.48897528538119" lon="11.290123951071177"><ele>207.0</ele><time>2026-04-11T14:48:26.999Z</time></trkpt><trkpt lat="45.48903268072122" lon="11.290014604038936"><ele>207.0</ele><time>2026-04-11T14:48:27.999Z</time></trkpt><trkpt lat="45.4891348790596" lon="11.289920878448674"><ele>207.0</ele><time>2026-04-11T14:48:28.999Z</time></trkpt><trkpt lat="45.48923719507633" lon="11.289792951858889"><ele>207.0</ele><time>2026-04-11T14:48:29.999Z</time></trkpt><trkpt lat="45.48929385576607" lon="11.289586948870063"><ele>208.66666666666669</ele><time>2026-04-11T14:48:30.999Z</time></trkpt><trkpt lat="45.489297622444475" lon="11.289322502977033"><ele>210.33333333333334</ele><time>2026-04-11T14:48:31.999Z</time></trkpt><trkpt lat="45.48926339440413" lon="11.289033620135548"><ele>212.0</ele><time>2026-04-11T14:48:32.999Z</time></trkpt><trkpt lat="45.489199683830364" lon="11.288738117383373"><ele>214.66666666666669</ele><time>2026-04-11T14:48:33.999Z</time></trkpt><trkpt lat="45.489145779356114" lon="11.288458327843582"><ele>217.33333333333331</ele><time>2026-04-11T14:48:34.999Z</time></trkpt><trkpt lat="45.48911636982814" lon="11.288226120831656"><ele>220.0</ele><time>2026-04-11T14:48:35.999Z</time></trkpt><trkpt lat="45.48908165846685" lon="11.288048925658943"><ele>220.4</ele><time>2026-04-11T14:48:36.999Z</time></trkpt><trkpt lat="45.48905978745391" lon="11.28792506833117"><ele>220.8</ele><time>2026-04-11T14:48:37.999Z</time></trkpt><trkpt lat="45.48903880672865" lon="11.28777217801953"><ele>221.2</ele><time>2026-04-11T14:48:39.999Z</time></trkpt><trkpt lat="45.48914123257754" lon="11.287774692499264"><ele>221.6</ele><time>2026-04-11T14:48:41.999Z</time></trkpt><trkpt lat="45.48915914653733" lon="11.287861592246358"><ele>222.0</ele><time>2026-04-11T14:48:42.999Z</time></trkpt><trkpt lat="45.48915091698809" lon="11.288000636408151"><ele>221.5</ele><time>2026-04-11T14:48:43.998Z</time></trkpt><trkpt lat="45.48916848533203" lon="11.288156375835472"><ele>221.0</ele><time>2026-04-11T14:48:44.998Z</time></trkpt><trkpt lat="45.489228844657625" lon="11.288330224504294"><ele>220.5</ele><time>2026-04-11T14:48:45.998Z</time></trkpt><trkpt lat="45.489299898294966" lon="11.28852319694414"><ele>220.0</ele><time>2026-04-11T14:48:46.998Z</time></trkpt><trkpt lat="45.48937159874839" lon="11.288711566146942"><ele>217.33333333333331</ele><time>2026-04-11T14:48:47.998Z</time></trkpt><trkpt lat="45.4894370568213" lon="11.288945686633921"><ele>214.66666666666669</ele><time>2026-04-11T14:48:48.998Z</time></trkpt><trkpt lat="45.48952395812999" lon="11.28918211229811"><ele>212.0</ele><time>2026-04-11T14:48:49.998Z</time></trkpt><trkpt lat="45.48958646107641" lon="11.289377626179208"><ele>218.75</ele><time>2026-04-11T14:48:50.998Z</time></trkpt><trkpt lat="45.48964526605898" lon="11.289501719627664"><ele>225.5</ele><time>2026-04-11T14:48:51.998Z</time></trkpt><trkpt lat="45.48972806513518" lon="11.289568778024261"><ele>232.25</ele><time>2026-04-11T14:48:53.998Z</time></trkpt><trkpt lat="45.48977446452414" lon="11.289490068326572"><ele>239.0</ele><time>2026-04-11T14:48:54.998Z</time></trkpt><trkpt lat="45.48972245551668" lon="11.28923322700472"><ele>239.0</ele><time>2026-04-11T14:48:56.998Z</time></trkpt><trkpt lat="45.489628330777435" lon="11.289082586989629"><ele>239.0</ele><time>2026-04-11T14:48:57.998Z</time></trkpt><trkpt lat="45.48957693859688" lon="11.28885761345887"><ele>239.0</ele><time>2026-04-11T14:48:58.998Z</time></trkpt><trkpt lat="45.48952333586549" lon="11.288606209576473"><ele>234.75</ele><time>2026-04-11T14:48:59.998Z</time></trkpt><trkpt lat="45.48948203674285" lon="11.28837320319971"><ele>230.5</ele><time>2026-04-11T14:49:00.998Z</time></trkpt><trkpt lat="45.48944007923618" lon="11.288194145175222"><ele>226.25</ele><time>2026-04-11T14:49:01.998Z</time></trkpt><trkpt lat="45.48940433107613" lon="11.288058804375096"><ele>222.0</ele><time>2026-04-11T14:49:02.998Z</time></trkpt><trkpt lat="45.48943052867859" lon="11.287924757506788"><ele>222.0</ele><time>2026-04-11T14:49:04.998Z</time></trkpt><trkpt lat="45.489528836167764" lon="11.288012992563104"><ele>222.0</ele><time>2026-04-11T14:49:07.998Z</time></trkpt><trkpt lat="45.48948720544214" lon="11.288164867439978"><ele>222.0</ele><time>2026-04-11T14:49:08.998Z</time></trkpt><trkpt lat="45.48953697372776" lon="11.288300104039452"><ele>222.0</ele><time>2026-04-11T14:49:09.998Z</time></trkpt><trkpt lat="45.489607409758854" lon="11.288459415606047"><ele>229.0</ele><time>2026-04-11T14:49:10.998Z</time></trkpt><trkpt lat="45.489688882849876" lon="11.28862451168137"><ele>236.0</ele><time>2026-04-11T14:49:11.998Z</time></trkpt><trkpt lat="45.48974645620554" lon="11.288750294602147"><ele>243.0</ele><time>2026-04-11T14:49:12.998Z</time></trkpt><trkpt lat="45.48979150985536" lon="11.28882619827577"><ele>250.0</ele><time>2026-04-11T14:49:13.998Z</time></trkpt><trkpt lat="45.489854978502414" lon="11.288828176789668"><ele>257.0</ele><time>2026-04-11T14:49:15.998Z</time></trkpt><trkpt lat="45.48986978123127" lon="11.288612441594895"><ele>257.0</ele><time>2026-04-11T14:49:16.998Z</time></trkpt><trkpt lat="45.48977660286161" lon="11.288490249473794"><ele>257.0</ele><time>2026-04-11T14:49:17.998Z</time></trkpt><trkpt lat="45.48967842386175" lon="11.28834745131373"><ele>257.0</ele><time>2026-04-11T14:49:18.998Z</time></trkpt><trkpt lat="45.48965387880737" lon="11.288159938079291"><ele>257.0</ele><time>2026-04-11T14:49:19.998Z</time></trkpt><trkpt lat="45.48966073844649" lon="11.287988860372431"><ele>257.0</ele><time>2026-04-11T14:49:20.998Z</time></trkpt><trkpt lat="45.48971702616741" lon="11.287894379560312"><ele>257.0</ele><time>2026-04-11T14:49:22.998Z</time></trkpt><trkpt lat="45.48976687087743" lon="11.28796326318091"><ele>257.0</ele><time>2026-04-11T14:49:23.997Z</time></trkpt><trkpt lat="45.4897793411431" lon="11.288077255481326"><ele>257.0</ele><time>2026-04-11T14:49:24.997Z</time></trkpt><trkpt lat="45.489726455200575" lon="11.28820911963846"><ele>257.0</ele><time>2026-04-11T14:49:25.997Z</time></trkpt><trkpt lat="45.48974070783488" lon="11.28833532371453"><ele>257.0</ele><time>2026-04-11T14:49:26.997Z</time></trkpt><trkpt lat="45.48982980108711" lon="11.288446654396049"><ele>257.0</ele><time>2026-04-11T14:49:27.997Z</time></trkpt><trkpt lat="45.489938701274966" lon="11.288492450741204"><ele>257.0</ele><time>2026-04-11T14:49:28.997Z</time></trkpt><trkpt lat="45.49006569727085" lon="11.288504609597917"><ele>257.0</ele><time>2026-04-11T14:49:29.997Z</time></trkpt><trkpt lat="45.49015840628946" lon="11.288505528938018"><ele>257.0</ele><time>2026-04-11T14:49:30.997Z</time></trkpt><trkpt lat="45.49022555820155" lon="11.288389971902195"><ele>257.0</ele><time>2026-04-11T14:49:32.997Z</time></trkpt><trkpt lat="45.49017627921576" lon="11.288287695895997"><ele>257.0</ele><time>2026-04-11T14:49:33.997Z</time></trkpt><trkpt lat="45.49007654279268" lon="11.288260062951377"><ele>257.0</ele><time>2026-04-11T14:49:34.997Z</time></trkpt><trkpt lat="45.48997163657379" lon="11.288278186351633"><ele>257.0</ele><time>2026-04-11T14:49:36Z</time></trkpt><trkpt lat="45.489913453180456" lon="11.288225328985407"><ele>257.0</ele><time>2026-04-11T14:49:37Z</time></trkpt><trkpt lat="45.48990619069658" lon="11.288123068709767"><ele>257.0</ele><time>2026-04-11T14:49:38Z</time></trkpt><trkpt lat="45.48996033848758" lon="11.288023090847055"><ele>257.0</ele><time>2026-04-11T14:49:39Z</time></trkpt><trkpt lat="45.4900630480858" lon="11.287987755010905"><ele>256.75</ele><time>2026-04-11T14:49:40Z</time></trkpt><trkpt lat="45.49018116504973" lon="11.28798184760107"><ele>256.5</ele><time>2026-04-11T14:49:41Z</time></trkpt><trkpt lat="45.49031556034346" lon="11.288015792308592"><ele>256.25</ele><time>2026-04-11T14:49:42Z</time></trkpt><trkpt lat="45.49046638372898" lon="11.28808814092763"><ele>256.0</ele><time>2026-04-11T14:49:43Z</time></trkpt><trkpt lat="45.49061484447413" lon="11.288138113806319"><ele>259.5</ele><time>2026-04-11T14:49:44Z</time></trkpt><trkpt lat="45.49075418581652" lon="11.288145848677775"><ele>263.0</ele><time>2026-04-11T14:49:45Z</time></trkpt><trkpt lat="45.49089860286804" lon="11.288068974842403"><ele>266.5</ele><time>2026-04-11T14:49:46Z</time></trkpt><trkpt lat="45.491017679304626" lon="11.287963789058857"><ele>270.0</ele><time>2026-04-11T14:49:47Z</time></trkpt><trkpt lat="45.491095296516235" lon="11.287834778973677"><ele>271.0</ele><time>2026-04-11T14:49:48Z</time></trkpt><trkpt lat="45.49114170188045" lon="11.287646540154318"><ele>272.0</ele><time>2026-04-11T14:49:49Z</time></trkpt><trkpt lat="45.491162227402185" lon="11.287436563369624"><ele>273.0</ele><time>2026-04-11T14:49:50Z</time></trkpt><trkpt lat="45.49119891084147" lon="11.287194190534441"><ele>273.0</ele><time>2026-04-11T14:49:51Z</time></trkpt><trkpt lat="45.491240774818365" lon="11.286937097445186"><ele>273.0</ele><time>2026-04-11T14:49:52Z</time></trkpt><trkpt lat="45.49126473184459" lon="11.286694475700688"><ele>273.0</ele><time>2026-04-11T14:49:53Z</time></trkpt><trkpt lat="45.4913139473564" lon="11.286482222342237"><ele>278.6666666666667</ele><time>2026-04-11T14:49:54Z</time></trkpt><trkpt lat="45.49145234782455" lon="11.286351660131166"><ele>284.33333333333337</ele><time>2026-04-11T14:49:55Z</time></trkpt><trkpt lat="45.491585168589936" lon="11.286207686700372"><ele>290.0</ele><time>2026-04-11T14:49:56Z</time></trkpt><trkpt lat="45.49170956261729" lon="11.28607768790471"><ele>290.0</ele><time>2026-04-11T14:49:57Z</time></trkpt><trkpt lat="45.491812132223004" lon="11.285969423678733"><ele>290.0</ele><time>2026-04-11T14:49:58Z</time></trkpt><trkpt lat="45.49187315014893" lon="11.285796998727676"><ele>290.0</ele><time>2026-04-11T14:49:59Z</time></trkpt><trkpt lat="45.49189877272851" lon="11.285571110888332"><ele>290.0</ele><time>2026-04-11T14:50:00Z</time></trkpt><trkpt lat="45.49187308398763" lon="11.285344981529544"><ele>292.6666666666667</ele><time>2026-04-11T14:50:01Z</time></trkpt><trkpt lat="45.49179183585527" lon="11.28513827295481"><ele>295.3333333333333</ele><time>2026-04-11T14:50:02Z</time></trkpt><trkpt lat="45.49168560311579" lon="11.284956820922408"><ele>298.0</ele><time>2026-04-11T14:50:03Z</time></trkpt><trkpt lat="45.49161629428747" lon="11.284814141419364"><ele>298.4</ele><time>2026-04-11T14:50:04Z</time></trkpt><trkpt lat="45.49159815427168" lon="11.284669186626617"><ele>298.8</ele><time>2026-04-11T14:50:05Z</time></trkpt><trkpt lat="45.49158798138441" lon="11.28455590226783"><ele>299.2</ele><time>2026-04-11T14:50:06Z</time></trkpt><trkpt lat="45.491662927986" lon="11.284453177208494"><ele>299.6</ele><time>2026-04-11T14:50:07Z</time></trkpt><trkpt lat="45.49177667942347" lon="11.284398983301609"><ele>300.0</ele><time>2026-04-11T14:50:08Z</time></trkpt><trkpt lat="45.49190253377576" lon="11.284440564116403"><ele>300.0</ele><time>2026-04-11T14:50:08.999Z</time></trkpt><trkpt lat="45.49202303941423" lon="11.284442766607205"><ele>300.0</ele><time>2026-04-11T14:50:09.999Z</time></trkpt><trkpt lat="45.492120374696434" lon="11.284469088770637"><ele>300.0</ele><time>2026-04-11T14:50:10.999Z</time></trkpt><trkpt lat="45.49219814383598" lon="11.284489051992766"><ele>300.0</ele><time>2026-04-11T14:50:11.999Z</time></trkpt><trkpt lat="45.49231138218068" lon="11.284497209664645"><ele>300.0</ele><time>2026-04-11T14:50:22.999Z</time></trkpt><trkpt lat="45.49239379008878" lon="11.284518407405551"><ele>303.75</ele><time>2026-04-11T14:50:23.999Z</time></trkpt><trkpt lat="45.492502528279935" lon="11.28453556532293"><ele>307.5</ele><time>2026-04-11T14:50:24.999Z</time></trkpt><trkpt lat="45.492625296020286" lon="11.284559692841611"><ele>311.25</ele><time>2026-04-11T14:50:25.999Z</time></trkpt><trkpt lat="45.49276287270821" lon="11.284599367240656"><ele>315.0</ele><time>2026-04-11T14:50:26.999Z</time></trkpt><trkpt lat="45.49285506595949" lon="11.284619496302659"><ele>315.0</ele><time>2026-04-11T14:50:27.999Z</time></trkpt><trkpt lat="45.49292148839819" lon="11.284579823730702"><ele>315.0</ele><time>2026-04-11T14:50:28.999Z</time></trkpt><trkpt lat="45.492942006098176" lon="11.28446113860588"><ele>315.0</ele><time>2026-04-11T14:50:29.999Z</time></trkpt><trkpt lat="45.49289831135425" lon="11.284307338821868"><ele>315.0</ele><time>2026-04-11T14:50:30.999Z</time></trkpt><trkpt lat="45.49281560745855" lon="11.284151817103238"><ele>315.0</ele><time>2026-04-11T14:50:31.999Z</time></trkpt><trkpt lat="45.492808999446105" lon="11.283995755456528"><ele>315.5</ele><time>2026-04-11T14:50:32.999Z</time></trkpt><trkpt lat="45.49288209289933" lon="11.28389848933954"><ele>316.0</ele><time>2026-04-11T14:50:33.999Z</time></trkpt><trkpt lat="45.492998087924605" lon="11.283860287251008"><ele>316.5</ele><time>2026-04-11T14:50:34.999Z</time></trkpt><trkpt lat="45.4931403766008" lon="11.283932728401997"><ele>317.0</ele><time>2026-04-11T14:50:35.999Z</time></trkpt><trkpt lat="45.49330545545497" lon="11.283962103799595"><ele>319.5</ele><time>2026-04-11T14:50:36.999Z</time></trkpt><trkpt lat="45.49344771555851" lon="11.284009381963326"><ele>322.0</ele><time>2026-04-11T14:50:37.999Z</time></trkpt><trkpt lat="45.49354670504093" lon="11.284009412290299"><ele>324.5</ele><time>2026-04-11T14:50:38.999Z</time></trkpt><trkpt lat="45.49362440751744" lon="11.283916192237871"><ele>327.0</ele><time>2026-04-11T14:50:39.999Z</time></trkpt><trkpt lat="45.49371772406603" lon="11.283748940164203"><ele>330.0</ele><time>2026-04-11T14:50:40.999Z</time></trkpt><trkpt lat="45.493858922268885" lon="11.283633262796275"><ele>333.0</ele><time>2026-04-11T14:50:41.999Z</time></trkpt><trkpt lat="45.49404864568737" lon="11.283529223377217"><ele>336.0</ele><time>2026-04-11T14:50:42.999Z</time></trkpt><trkpt lat="45.49426635200423" lon="11.283449381284143"><ele>336.0</ele><time>2026-04-11T14:50:43.999Z</time></trkpt><trkpt lat="45.494505986102205" lon="11.283428806104153"><ele>336.0</ele><time>2026-04-11T14:50:44.999Z</time></trkpt><trkpt lat="45.49476644693426" lon="11.283377413396165"><ele>337.5</ele><time>2026-04-11T14:50:45.999Z</time></trkpt><trkpt lat="45.49504025693504" lon="11.283320799690477"><ele>339.0</ele><time>2026-04-11T14:50:46.999Z</time></trkpt><trkpt lat="45.495317297366974" lon="11.283200819725593"><ele>341.0</ele><time>2026-04-11T14:50:47.999Z</time></trkpt><trkpt lat="45.49559977412982" lon="11.283081147393927"><ele>343.0</ele><time>2026-04-11T14:50:48.998Z</time></trkpt><trkpt lat="45.49586084871224" lon="11.28298434155388"><ele>343.0</ele><time>2026-04-11T14:50:49.998Z</time></trkpt><trkpt lat="45.49608723417439" lon="11.282899414471677"><ele>343.0</ele><time>2026-04-11T14:50:50.998Z</time></trkpt><trkpt lat="45.49627426463695" lon="11.282827830540636"><ele>343.0</ele><time>2026-04-11T14:50:51.998Z</time></trkpt><trkpt lat="45.496427357504366" lon="11.282765139853103"><ele>344.25</ele><time>2026-04-11T14:50:52.998Z</time></trkpt><trkpt lat="45.496563460030316" lon="11.282721395371297"><ele>345.5</ele><time>2026-04-11T14:50:53.998Z</time></trkpt><trkpt lat="45.49670089214447" lon="11.282769333749478"><ele>346.75</ele><time>2026-04-11T14:50:54.998Z</time></trkpt><trkpt lat="45.49685582239072" lon="11.282855657327037"><ele>348.0</ele><time>2026-04-11T14:50:55.998Z</time></trkpt><trkpt lat="45.49700958431741" lon="11.283007170272196"><ele>353.3333333333333</ele><time>2026-04-11T14:50:56.998Z</time></trkpt><trkpt lat="45.49714967708751" lon="11.28320290971558"><ele>358.66666666666663</ele><time>2026-04-11T14:50:57.998Z</time></trkpt><trkpt lat="45.497310101440185" lon="11.283400893367068"><ele>364.0</ele><time>2026-04-11T14:50:58.998Z</time></trkpt><trkpt lat="45.49745769755688" lon="11.283632143814739"><ele>364.0</ele><time>2026-04-11T14:50:59.998Z</time></trkpt><trkpt lat="45.49758719868584" lon="11.283823924078986"><ele>364.0</ele><time>2026-04-11T14:51:00.998Z</time></trkpt><trkpt lat="45.4976849229497" lon="11.283982712190252"><ele>364.0</ele><time>2026-04-11T14:51:01.998Z</time></trkpt><trkpt lat="45.49776818340841" lon="11.284090236040832"><ele>364.0</ele><time>2026-04-11T14:51:02.998Z</time></trkpt><trkpt lat="45.497894263277416" lon="11.28414038973585"><ele>366.0</ele><time>2026-04-11T14:51:03.998Z</time></trkpt><trkpt lat="45.498043810705994" lon="11.28416909794268"><ele>368.0</ele><time>2026-04-11T14:51:04.998Z</time></trkpt><trkpt lat="45.49816837814077" lon="11.284179403225695"><ele>370.0</ele><time>2026-04-11T14:51:05.998Z</time></trkpt><trkpt lat="45.49823788187762" lon="11.284226509253836"><ele>372.0</ele><time>2026-04-11T14:51:06.998Z</time></trkpt><trkpt lat="45.49826432974713" lon="11.284328764855571"><ele>374.0</ele><time>2026-04-11T14:51:07.998Z</time></trkpt><trkpt lat="45.498212667464706" lon="11.284500950746352"><ele>374.0</ele><time>2026-04-11T14:51:08.998Z</time></trkpt><trkpt lat="45.49824217577386" lon="11.284590967244359"><ele>374.0</ele><time>2026-04-11T14:51:09.998Z</time></trkpt><trkpt lat="45.49838815978353" lon="11.284548443029157"><ele>374.0</ele><time>2026-04-11T14:51:11.998Z</time></trkpt><trkpt lat="45.498412904003374" lon="11.28439689868303"><ele>374.0</ele><time>2026-04-11T14:51:12.998Z</time></trkpt><trkpt lat="45.49842294244062" lon="11.284198155401937"><ele>374.0</ele><time>2026-04-11T14:51:13.998Z</time></trkpt><trkpt lat="45.49843586295056" lon="11.28397004321475"><ele>374.0</ele><time>2026-04-11T14:51:14.998Z</time></trkpt><trkpt lat="45.49841063977108" lon="11.28372597339505"><ele>374.0</ele><time>2026-04-11T14:51:15.998Z</time></trkpt><trkpt lat="45.49831774480324" lon="11.283476962380051"><ele>376.0</ele><time>2026-04-11T14:51:16.998Z</time></trkpt><trkpt lat="45.49821387188173" lon="11.283289964625014"><ele>378.0</ele><time>2026-04-11T14:51:17.998Z</time></trkpt><trkpt lat="45.498162034021775" lon="11.283119864321513"><ele>380.0</ele><time>2026-04-11T14:51:18.998Z</time></trkpt><trkpt lat="45.498127917837145" lon="11.282975665198414"><ele>382.0</ele><time>2026-04-11T14:51:19.998Z</time></trkpt><trkpt lat="45.498121633002775" lon="11.282838523795945"><ele>382.75</ele><time>2026-04-11T14:51:20.998Z</time></trkpt><trkpt lat="45.4981823432773" lon="11.282704640349086"><ele>383.5</ele><time>2026-04-11T14:51:21.998Z</time></trkpt><trkpt lat="45.49829433345679" lon="11.28265724963141"><ele>384.25</ele><time>2026-04-11T14:51:22.998Z</time></trkpt><trkpt lat="45.49840519003674" lon="11.282632804250138"><ele>385.0</ele><time>2026-04-11T14:51:23.998Z</time></trkpt><trkpt lat="45.49851805300042" lon="11.282721541846437"><ele>385.0</ele><time>2026-04-11T14:51:24.998Z</time></trkpt><trkpt lat="45.49861505400027" lon="11.282866721134363"><ele>385.0</ele><time>2026-04-11T14:51:25.998Z</time></trkpt><trkpt lat="45.498724003786265" lon="11.283017857681862"><ele>385.0</ele><time>2026-04-11T14:51:26.998Z</time></trkpt><trkpt lat="45.49884040082747" lon="11.283162115026611"><ele>385.0</ele><time>2026-04-11T14:51:27.998Z</time></trkpt><trkpt lat="45.498937087042854" lon="11.283309586894143"><ele>386.8</ele><time>2026-04-11T14:51:28.997Z</time></trkpt><trkpt lat="45.49900766882017" lon="11.283423665877375"><ele>388.6</ele><time>2026-04-11T14:51:29.997Z</time></trkpt><trkpt lat="45.49906988827046" lon="11.283493626652294"><ele>390.4</ele><time>2026-04-11T14:51:30.997Z</time></trkpt><trkpt lat="45.49915021758469" lon="11.283501816061614"><ele>392.2</ele><time>2026-04-11T14:51:31.997Z</time></trkpt><trkpt lat="45.49925234435965" lon="11.283421972637722"><ele>394.0</ele><time>2026-04-11T14:51:32.997Z</time></trkpt><trkpt lat="45.49933157086186" lon="11.283287032417965"><ele>394.0</ele><time>2026-04-11T14:51:33.997Z</time></trkpt><trkpt lat="45.49936152728892" lon="11.283142163237654"><ele>394.0</ele><time>2026-04-11T14:51:34.997Z</time></trkpt><trkpt lat="45.49932176192825" lon="11.282986870646925"><ele>394.0</ele><time>2026-04-11T14:51:35.997Z</time></trkpt><trkpt lat="45.49923217475008" lon="11.282841883697913"><ele>394.0</ele><time>2026-04-11T14:51:36.997Z</time></trkpt><trkpt lat="45.49914301299247" lon="11.28268405909803"><ele>396.25</ele><time>2026-04-11T14:51:37.997Z</time></trkpt><trkpt lat="45.49907157943534" lon="11.282519277782743"><ele>398.5</ele><time>2026-04-11T14:51:38.997Z</time></trkpt><trkpt lat="45.49906441943611" lon="11.282366955461374"><ele>400.75</ele><time>2026-04-11T14:51:39.997Z</time></trkpt><trkpt lat="45.49908039127217" lon="11.282205751113421"><ele>403.0</ele><time>2026-04-11T14:51:40.997Z</time></trkpt><trkpt lat="45.49908962001597" lon="11.282045116486024"><ele>405.0</ele><time>2026-04-11T14:51:42Z</time></trkpt><trkpt lat="45.49913749087536" lon="11.281956955410488"><ele>407.0</ele><time>2026-04-11T14:51:43Z</time></trkpt><trkpt lat="45.4992038925724" lon="11.28196228534797"><ele>409.0</ele><time>2026-04-11T14:51:44Z</time></trkpt><trkpt lat="45.49927179384359" lon="11.282055266313385"><ele>411.0</ele><time>2026-04-11T14:51:45Z</time></trkpt><trkpt lat="45.49934835760354" lon="11.282157457916778"><ele>413.0</ele><time>2026-04-11T14:51:46Z</time></trkpt><trkpt lat="45.499444701273326" lon="11.282232069871892"><ele>415.0</ele><time>2026-04-11T14:51:47Z</time></trkpt><trkpt lat="45.49954209510034" lon="11.282277041787324"><ele>417.0</ele><time>2026-04-11T14:51:48Z</time></trkpt><trkpt lat="45.49962475204365" lon="11.282249813026185"><ele>419.0</ele><time>2026-04-11T14:51:49Z</time></trkpt><trkpt lat="45.4996600520731" lon="11.28205049221774"><ele>421.0</ele><time>2026-04-11T14:51:50Z</time></trkpt><trkpt lat="45.49964608726757" lon="11.281860172470793"><ele>421.0</ele><time>2026-04-11T14:51:51Z</time></trkpt><trkpt lat="45.49965901929214" lon="11.281682915208915"><ele>421.0</ele><time>2026-04-11T14:51:52Z</time></trkpt><trkpt lat="45.49972693936801" lon="11.281518588095471"><ele>421.0</ele><time>2026-04-11T14:51:53Z</time></trkpt><trkpt lat="45.499818766772655" lon="11.281378288974308"><ele>421.0</ele><time>2026-04-11T14:51:54Z</time></trkpt><trkpt lat="45.499918618470375" lon="11.28131014663885"><ele>424.0</ele><time>2026-04-11T14:51:55Z</time></trkpt><trkpt lat="45.50003772170669" lon="11.281238002135087"><ele>427.0</ele><time>2026-04-11T14:51:56Z</time></trkpt><trkpt lat="45.50018455468697" lon="11.281152826842641"><ele>430.0</ele><time>2026-04-11T14:51:57Z</time></trkpt><trkpt lat="45.500347007368774" lon="11.28108671166282"><ele>429.0</ele><time>2026-04-11T14:51:58Z</time></trkpt><trkpt lat="45.500499481401384" lon="11.281054970843174"><ele>428.0</ele><time>2026-04-11T14:51:59Z</time></trkpt><trkpt lat="45.50063235025094" lon="11.28106932062061"><ele>427.0</ele><time>2026-04-11T14:52:00Z</time></trkpt><trkpt lat="45.50075069918561" lon="11.281164706049127"><ele>426.0</ele><time>2026-04-11T14:52:01Z</time></trkpt><trkpt lat="45.50089458603286" lon="11.281211676149967"><ele>426.0</ele><time>2026-04-11T14:52:02Z</time></trkpt><trkpt lat="45.50101318641509" lon="11.281271220387675"><ele>426.0</ele><time>2026-04-11T14:52:03Z</time></trkpt><trkpt lat="45.50111820287998" lon="11.281314796375217"><ele>426.0</ele><time>2026-04-11T14:52:04Z</time></trkpt><trkpt lat="45.50123463846502" lon="11.281366209962846"><ele>426.0</ele><time>2026-04-11T14:52:05Z</time></trkpt><trkpt lat="45.501340748928364" lon="11.281457966994584"><ele>427.75</ele><time>2026-04-11T14:52:06Z</time></trkpt><trkpt lat="45.501471781372096" lon="11.2815203585077"><ele>429.5</ele><time>2026-04-11T14:52:07Z</time></trkpt><trkpt lat="45.50158060180664" lon="11.281645707305827"><ele>431.25</ele><time>2026-04-11T14:52:08Z</time></trkpt><trkpt lat="45.50171406026929" lon="11.281769743476884"><ele>433.0</ele><time>2026-04-11T14:52:09Z</time></trkpt><trkpt lat="45.50181625462746" lon="11.281974304241118"><ele>433.0</ele><time>2026-04-11T14:52:10Z</time></trkpt><trkpt lat="45.50194281071491" lon="11.282168080686043"><ele>433.0</ele><time>2026-04-11T14:52:11Z</time></trkpt><trkpt lat="45.5020325740019" lon="11.282347269891009"><ele>433.0</ele><time>2026-04-11T14:52:12Z</time></trkpt><trkpt lat="45.502098795524745" lon="11.282492333791454"><ele>434.4</ele><time>2026-04-11T14:52:13Z</time></trkpt><trkpt lat="45.50211351318815" lon="11.282614448071685"><ele>435.79999999999995</ele><time>2026-04-11T14:52:13.999Z</time></trkpt><trkpt lat="45.5021364546689" lon="11.282750817106697"><ele>437.2</ele><time>2026-04-11T14:52:14.999Z</time></trkpt><trkpt lat="45.502187905723744" lon="11.282916154868047"><ele>438.6</ele><time>2026-04-11T14:52:15.999Z</time></trkpt><trkpt lat="45.502249100555495" lon="11.283084691142042"><ele>440.0</ele><time>2026-04-11T14:52:16.999Z</time></trkpt><trkpt lat="45.50234197714045" lon="11.28322741875323"><ele>440.0</ele><time>2026-04-11T14:52:17.999Z</time></trkpt><trkpt lat="45.50244778006032" lon="11.283328558569917"><ele>440.0</ele><time>2026-04-11T14:52:18.999Z</time></trkpt><trkpt lat="45.502556215990325" lon="11.283368326681883"><ele>440.0</ele><time>2026-04-11T14:52:19.999Z</time></trkpt><trkpt lat="45.50267503688426" lon="11.283337257726126"><ele>440.0</ele><time>2026-04-11T14:52:20.999Z</time></trkpt><trkpt lat="45.50280276218529" lon="11.283264412854566"><ele>442.5</ele><time>2026-04-11T14:52:21.999Z</time></trkpt><trkpt lat="45.50295803523367" lon="11.283248661003258"><ele>445.0</ele><time>2026-04-11T14:52:22.999Z</time></trkpt><trkpt lat="45.50308590041549" lon="11.283346935258443"><ele>447.5</ele><time>2026-04-11T14:52:23.999Z</time></trkpt><trkpt lat="45.50320114216574" lon="11.28343993575428"><ele>450.0</ele><time>2026-04-11T14:52:24.999Z</time></trkpt><trkpt lat="45.50328795736707" lon="11.283488360801313"><ele>450.0</ele><time>2026-04-11T14:52:25.999Z</time></trkpt><trkpt lat="45.50337338129445" lon="11.283485493719406"><ele>450.0</ele><time>2026-04-11T14:52:26.999Z</time></trkpt><trkpt lat="45.503443313477916" lon="11.283415847340121"><ele>450.0</ele><time>2026-04-11T14:52:27.999Z</time></trkpt><trkpt lat="45.50349232792918" lon="11.283345495590668"><ele>450.0</ele><time>2026-04-11T14:52:28.999Z</time></trkpt><trkpt lat="45.50355400657111" lon="11.28326921663012"><ele>450.0</ele><time>2026-04-11T14:52:29.999Z</time></trkpt><trkpt lat="45.50363473986786" lon="11.283189630925568"><ele>450.0</ele><time>2026-04-11T14:52:30.999Z</time></trkpt><trkpt lat="45.50370080791098" lon="11.283122386468984"><ele>451.0</ele><time>2026-04-11T14:52:31.999Z</time></trkpt><trkpt lat="45.503775753641236" lon="11.283051905183665"><ele>452.0</ele><time>2026-04-11T14:52:33.999Z</time></trkpt><trkpt lat="45.5038281883867" lon="11.282945046151728"><ele>453.0</ele><time>2026-04-11T14:53:45.997Z</time></trkpt><trkpt lat="45.50388024222789" lon="11.282871843653508"><ele>454.0</ele><time>2026-04-11T14:53:46.997Z</time></trkpt><trkpt lat="45.50395079629404" lon="11.282800235148335"><ele>455.0</ele><time>2026-04-11T14:53:48Z</time></trkpt><trkpt lat="45.50402606755796" lon="11.28274206540811"><ele>456.0</ele><time>2026-04-11T14:53:49Z</time></trkpt><trkpt lat="45.504114920568306" lon="11.282726058762538"><ele>456.0</ele><time>2026-04-11T14:53:50Z</time></trkpt><trkpt lat="45.504205711296585" lon="11.282725845997161"><ele>456.0</ele><time>2026-04-11T14:53:51Z</time></trkpt><trkpt lat="45.50429696337476" lon="11.282726316664085"><ele>456.0</ele><time>2026-04-11T14:53:52Z</time></trkpt><trkpt lat="45.504389970251694" lon="11.282733037407843"><ele>456.0</ele><time>2026-04-11T14:53:53Z</time></trkpt><trkpt lat="45.504465743412474" lon="11.28275761930041"><ele>456.0</ele><time>2026-04-11T14:53:54Z</time></trkpt><trkpt lat="45.50458629979185" lon="11.28283505294014"><ele>457.8</ele><time>2026-04-11T14:53:56Z</time></trkpt><trkpt lat="45.50463556991935" lon="11.282937073997523"><ele>459.6</ele><time>2026-04-11T14:53:57Z</time></trkpt><trkpt lat="45.5046455406126" lon="11.283076912672001"><ele>461.4</ele><time>2026-04-11T14:53:58Z</time></trkpt><trkpt lat="45.50469033832043" lon="11.283212098749672"><ele>463.2</ele><time>2026-04-11T14:53:59Z</time></trkpt><trkpt lat="45.504736185442226" lon="11.283365490525304"><ele>465.0</ele><time>2026-04-11T14:54:00Z</time></trkpt><trkpt lat="45.50481686711417" lon="11.283515844816817"><ele>465.0</ele><time>2026-04-11T14:54:01Z</time></trkpt><trkpt lat="45.50492519156417" lon="11.283642151286653"><ele>465.0</ele><time>2026-04-11T14:54:02Z</time></trkpt><trkpt lat="45.50504802140066" lon="11.283759879283526"><ele>465.0</ele><time>2026-04-11T14:54:03Z</time></trkpt><trkpt lat="45.50511367902235" lon="11.283945337700088"><ele>465.0</ele><time>2026-04-11T14:54:04Z</time></trkpt><trkpt lat="45.505166649354585" lon="11.284126519551284"><ele>464.0</ele><time>2026-04-11T14:54:05Z</time></trkpt><trkpt lat="45.50521460121108" lon="11.284280560715905"><ele>463.0</ele><time>2026-04-11T14:54:06Z</time></trkpt><trkpt lat="45.505233260472195" lon="11.284398383555596"><ele>462.0</ele><time>2026-04-11T14:54:07Z</time></trkpt><trkpt lat="45.50521633060564" lon="11.284497042728976"><ele>461.0</ele><time>2026-04-11T14:54:08Z</time></trkpt><trkpt lat="45.50509592771693" lon="11.284536137963064"><ele>460.0</ele><time>2026-04-11T14:54:09Z</time></trkpt><trkpt lat="45.50501475119144" lon="11.284644456645479"><ele>461.6666666666667</ele><time>2026-04-11T14:54:10Z</time></trkpt><trkpt lat="45.504947388787826" lon="11.28479582127074"><ele>463.33333333333337</ele><time>2026-04-11T14:54:11Z</time></trkpt><trkpt lat="45.504897626566844" lon="11.28500086470972"><ele>465.0</ele><time>2026-04-11T14:54:12Z</time></trkpt><trkpt lat="45.50486633040357" lon="11.285243068902203"><ele>465.0</ele><time>2026-04-11T14:54:13Z</time></trkpt><trkpt lat="45.50483551796733" lon="11.28549074461224"><ele>465.0</ele><time>2026-04-11T14:54:14Z</time></trkpt><trkpt lat="45.50481700172598" lon="11.285721336276094"><ele>465.0</ele><time>2026-04-11T14:54:15Z</time></trkpt><trkpt lat="45.50479410171057" lon="11.285921792951571"><ele>466.0</ele><time>2026-04-11T14:54:16Z</time></trkpt><trkpt lat="45.50482144375668" lon="11.286098991183179"><ele>467.0</ele><time>2026-04-11T14:54:17Z</time></trkpt><trkpt lat="45.504850613152904" lon="11.286280378876622"><ele>468.0</ele><time>2026-04-11T14:54:18Z</time></trkpt><trkpt lat="45.50486374092317" lon="11.286473820732477"><ele>469.0</ele><time>2026-04-11T14:54:19Z</time></trkpt><trkpt lat="45.50483350927498" lon="11.286688082751006"><ele>469.75</ele><time>2026-04-11T14:54:20Z</time></trkpt><trkpt lat="45.50480700869789" lon="11.286916723315683"><ele>470.5</ele><time>2026-04-11T14:54:21Z</time></trkpt><trkpt lat="45.50473620796452" lon="11.287107861773785"><ele>471.25</ele><time>2026-04-11T14:54:21.999Z</time></trkpt><trkpt lat="45.50473236868826" lon="11.287290556356481"><ele>472.0</ele><time>2026-04-11T14:54:22.999Z</time></trkpt><trkpt lat="45.50471959115017" lon="11.287439663808524"><ele>473.0</ele><time>2026-04-11T14:54:23.999Z</time></trkpt><trkpt lat="45.50467222715753" lon="11.287547199607612"><ele>474.0</ele><time>2026-04-11T14:54:24.999Z</time></trkpt><trkpt lat="45.50456074133057" lon="11.287570809106452"><ele>475.0</ele><time>2026-04-11T14:54:25.999Z</time></trkpt><trkpt lat="45.504448906857526" lon="11.287672400217122"><ele>476.0</ele><time>2026-04-11T14:54:26.999Z</time></trkpt><trkpt lat="45.50434707934098" lon="11.287835829736217"><ele>475.66666666666663</ele><time>2026-04-11T14:54:27.999Z</time></trkpt><trkpt lat="45.50425451252907" lon="11.288048387806983"><ele>475.33333333333337</ele><time>2026-04-11T14:54:28.999Z</time></trkpt><trkpt lat="45.504135046144015" lon="11.288279264046091"><ele>475.0</ele><time>2026-04-11T14:54:29.999Z</time></trkpt><trkpt lat="45.504019968480115" lon="11.288528875945019"><ele>475.0</ele><time>2026-04-11T14:54:30.999Z</time></trkpt><trkpt lat="45.503907155725955" lon="11.288779853997381"><ele>475.0</ele><time>2026-04-11T14:54:31.999Z</time></trkpt><trkpt lat="45.50377816718611" lon="11.289026551324321"><ele>475.0</ele><time>2026-04-11T14:54:32.999Z</time></trkpt><trkpt lat="45.503623156527325" lon="11.289231302546572"><ele>473.6666666666667</ele><time>2026-04-11T14:54:33.999Z</time></trkpt><trkpt lat="45.50345901781373" lon="11.289430476580606"><ele>472.33333333333337</ele><time>2026-04-11T14:54:34.999Z</time></trkpt><trkpt lat="45.50329822565352" lon="11.289623302232494"><ele>471.0</ele><time>2026-04-11T14:54:35.999Z</time></trkpt><trkpt lat="45.50319364157315" lon="11.289814809337924"><ele>472.0</ele><time>2026-04-11T14:54:36.999Z</time></trkpt><trkpt lat="45.50309400773542" lon="11.289969602986325"><ele>473.0</ele><time>2026-04-11T14:54:37.999Z</time></trkpt><trkpt lat="45.50299089227905" lon="11.29009191841868"><ele>474.0</ele><time>2026-04-11T14:54:38.999Z</time></trkpt><trkpt lat="45.50285769294032" lon="11.290194627488976"><ele>475.0</ele><time>2026-04-11T14:54:39.999Z</time></trkpt><trkpt lat="45.50276793461887" lon="11.290332239558213"><ele>475.0</ele><time>2026-04-11T14:54:40.999Z</time></trkpt><trkpt lat="45.5026853372731" lon="11.290468867383035"><ele>475.0</ele><time>2026-04-11T14:54:41.999Z</time></trkpt><trkpt lat="45.50263752828436" lon="11.290645009782837"><ele>475.0</ele><time>2026-04-11T14:54:42.999Z</time></trkpt><trkpt lat="45.50263784980327" lon="11.290814651748821"><ele>475.0</ele><time>2026-04-11T14:54:43.999Z</time></trkpt><trkpt lat="45.5026969286815" lon="11.290961297455002"><ele>479.0</ele><time>2026-04-11T14:54:44.999Z</time></trkpt><trkpt lat="45.50279862251444" lon="11.291099415649533"><ele>483.0</ele><time>2026-04-11T14:54:45.999Z</time></trkpt><trkpt lat="45.502870531070414" lon="11.291292243298484"><ele>487.0</ele><time>2026-04-11T14:54:46.999Z</time></trkpt><trkpt lat="45.502887544598224" lon="11.291511863200755"><ele>491.0</ele><time>2026-04-11T14:54:47.999Z</time></trkpt><trkpt lat="45.50292385804141" lon="11.291761757953733"><ele>498.0</ele><time>2026-04-11T14:54:48.999Z</time></trkpt><trkpt lat="45.50300270634957" lon="11.291997589377017"><ele>505.0</ele><time>2026-04-11T14:54:49.999Z</time></trkpt><trkpt lat="45.503078898201125" lon="11.292243666422804"><ele>512.0</ele><time>2026-04-11T14:54:50.999Z</time></trkpt><trkpt lat="45.50311002524724" lon="11.292459716628588"><ele>512.0</ele><time>2026-04-11T14:54:51.999Z</time></trkpt><trkpt lat="45.503101675123375" lon="11.292659043740326"><ele>512.0</ele><time>2026-04-11T14:54:52.999Z</time></trkpt><trkpt lat="45.503097690580006" lon="11.2928885571577"><ele>512.0</ele><time>2026-04-11T14:54:53.999Z</time></trkpt><trkpt lat="45.503071196929746" lon="11.29313509415724"><ele>513.6666666666666</ele><time>2026-04-11T14:54:54.999Z</time></trkpt><trkpt lat="45.50306330593516" lon="11.293360743345009"><ele>515.3333333333334</ele><time>2026-04-11T14:54:55.999Z</time></trkpt><trkpt lat="45.50308590758757" lon="11.293581056704932"><ele>517.0</ele><time>2026-04-11T14:54:56.999Z</time></trkpt><trkpt lat="45.503132456857344" lon="11.293806224816459"><ele>516.0</ele><time>2026-04-11T14:54:57.999Z</time></trkpt><trkpt lat="45.50317885224781" lon="11.294035010910461"><ele>515.0</ele><time>2026-04-11T14:54:58.999Z</time></trkpt><trkpt lat="45.50317400979167" lon="11.294268055198696"><ele>514.0</ele><time>2026-04-11T14:54:59.999Z</time></trkpt><trkpt lat="45.50322919166551" lon="11.294441555715798"><ele>514.0</ele><time>2026-04-11T14:55:00.999Z</time></trkpt><trkpt lat="45.50331140552872" lon="11.294603224088556"><ele>514.0</ele><time>2026-04-11T14:55:01.998Z</time></trkpt><trkpt lat="45.5034021659911" lon="11.294803878624416"><ele>514.0</ele><time>2026-04-11T14:55:02.998Z</time></trkpt><trkpt lat="45.50352106983499" lon="11.294989220830285"><ele>512.25</ele><time>2026-04-11T14:55:03.998Z</time></trkpt><trkpt lat="45.503641719482644" lon="11.295143645572608"><ele>510.5</ele><time>2026-04-11T14:55:04.998Z</time></trkpt><trkpt lat="45.503739348853294" lon="11.295276808833917"><ele>508.75</ele><time>2026-04-11T14:55:05.998Z</time></trkpt><trkpt lat="45.50379845681115" lon="11.295415705243643"><ele>507.0</ele><time>2026-04-11T14:55:06.998Z</time></trkpt><trkpt lat="45.50378832270248" lon="11.295566459535653"><ele>510.0</ele><time>2026-04-11T14:55:07.998Z</time></trkpt><trkpt lat="45.50378306199825" lon="11.295762872818852"><ele>513.0</ele><time>2026-04-11T14:55:08.998Z</time></trkpt><trkpt lat="45.50378808647828" lon="11.295959507525396"><ele>516.0</ele><time>2026-04-11T14:55:09.998Z</time></trkpt><trkpt lat="45.50382250153677" lon="11.29614504677171"><ele>519.0</ele><time>2026-04-11T14:55:10.998Z</time></trkpt><trkpt lat="45.50386049818336" lon="11.29633367584336"><ele>518.75</ele><time>2026-04-11T14:55:11.998Z</time></trkpt><trkpt lat="45.50391993684652" lon="11.296505675308945"><ele>518.5</ele><time>2026-04-11T14:55:12.998Z</time></trkpt><trkpt lat="45.50398952488678" lon="11.296652634242125"><ele>518.25</ele><time>2026-04-11T14:55:13.998Z</time></trkpt><trkpt lat="45.50403196701365" lon="11.296801524907536"><ele>518.0</ele><time>2026-04-11T14:55:14.998Z</time></trkpt><trkpt lat="45.50408393988759" lon="11.29693244617242"><ele>518.0</ele><time>2026-04-11T14:55:15.998Z</time></trkpt><trkpt lat="45.50413449584292" lon="11.29706328778569"><ele>518.0</ele><time>2026-04-11T14:55:16.998Z</time></trkpt><trkpt lat="45.50418556741974" lon="11.297195463821444"><ele>518.0</ele><time>2026-04-11T14:55:17.998Z</time></trkpt><trkpt lat="45.50425510339499" lon="11.297321727034072"><ele>518.0</ele><time>2026-04-11T14:55:18.998Z</time></trkpt><trkpt lat="45.50432267772055" lon="11.297440637588513"><ele>518.0</ele><time>2026-04-11T14:55:19.998Z</time></trkpt><trkpt lat="45.5044235568835" lon="11.297513371566877"><ele>517.75</ele><time>2026-04-11T14:55:20.998Z</time></trkpt><trkpt lat="45.5045276939587" lon="11.297564414779199"><ele>517.5</ele><time>2026-04-11T14:55:21.998Z</time></trkpt><trkpt lat="45.50463580897929" lon="11.29759071737377"><ele>517.25</ele><time>2026-04-11T14:55:22.998Z</time></trkpt><trkpt lat="45.504745603060925" lon="11.297622216594721"><ele>517.0</ele><time>2026-04-11T14:55:23.998Z</time></trkpt><trkpt lat="45.50486193784449" lon="11.297653839210248"><ele>517.0</ele><time>2026-04-11T14:55:24.998Z</time></trkpt><trkpt lat="45.50497184402837" lon="11.297684922246281"><ele>517.0</ele><time>2026-04-11T14:55:25.998Z</time></trkpt><trkpt lat="45.505082477123665" lon="11.297718104126734"><ele>517.0</ele><time>2026-04-11T14:55:26.998Z</time></trkpt><trkpt lat="45.50519455110619" lon="11.297753106257666"><ele>517.0</ele><time>2026-04-11T14:55:27.998Z</time></trkpt><trkpt lat="45.50530680023231" lon="11.29778549510163"><ele>514.5</ele><time>2026-04-11T14:55:28.998Z</time></trkpt><trkpt lat="45.50542200265182" lon="11.297787586662192"><ele>512.0</ele><time>2026-04-11T14:55:29.998Z</time></trkpt><trkpt lat="45.50553844610743" lon="11.2977504175476"><ele>509.5</ele><time>2026-04-11T14:55:30.998Z</time></trkpt><trkpt lat="45.5056488386348" lon="11.297671005806066"><ele>507.0</ele><time>2026-04-11T14:55:31.998Z</time></trkpt><trkpt lat="45.505747641957015" lon="11.297557421966033"><ele>507.0</ele><time>2026-04-11T14:55:32.998Z</time></trkpt><trkpt lat="45.50583185016226" lon="11.297423204187428"><ele>507.0</ele><time>2026-04-11T14:55:33.998Z</time></trkpt><trkpt lat="45.5058989104833" lon="11.297265644469245"><ele>507.0</ele><time>2026-04-11T14:55:34.998Z</time></trkpt><trkpt lat="45.50596974207209" lon="11.297120603483412"><ele>507.0</ele><time>2026-04-11T14:55:35.998Z</time></trkpt><trkpt lat="45.50603884484457" lon="11.2969834922798"><ele>509.40000000000003</ele><time>2026-04-11T14:55:36.998Z</time></trkpt><trkpt lat="45.506101834051975" lon="11.296861326526574"><ele>511.80000000000007</ele><time>2026-04-11T14:55:37.998Z</time></trkpt><trkpt lat="45.50616527893279" lon="11.296747543794243"><ele>514.2</ele><time>2026-04-11T14:55:38.998Z</time></trkpt><trkpt lat="45.50623192245368" lon="11.29663888082518"><ele>516.6</ele><time>2026-04-11T14:55:39.998Z</time></trkpt><trkpt lat="45.50630516136545" lon="11.296538393534647"><ele>519.0</ele><time>2026-04-11T14:55:40.998Z</time></trkpt><trkpt lat="45.50638435187948" lon="11.296462886485116"><ele>519.0</ele><time>2026-04-11T14:55:41.997Z</time></trkpt><trkpt lat="45.50646424398446" lon="11.296390403292133"><ele>519.0</ele><time>2026-04-11T14:55:42.997Z</time></trkpt><trkpt lat="45.506549862189736" lon="11.296323110123495"><ele>519.0</ele><time>2026-04-11T14:55:43.997Z</time></trkpt><trkpt lat="45.50663933225965" lon="11.296259821859786"><ele>519.0</ele><time>2026-04-11T14:55:44.997Z</time></trkpt><trkpt lat="45.506734663086796" lon="11.296194425736822"><ele>519.0</ele><time>2026-04-11T14:55:45.997Z</time></trkpt><trkpt lat="45.506827045585645" lon="11.296129462067896"><ele>519.0</ele><time>2026-04-11T14:55:46.997Z</time></trkpt><trkpt lat="45.50692126571241" lon="11.296067436802653"><ele>519.0</ele><time>2026-04-11T14:55:47.997Z</time></trkpt><trkpt lat="45.50701219397137" lon="11.296003592262256"><ele>519.0</ele><time>2026-04-11T14:55:48.997Z</time></trkpt><trkpt lat="45.507104724030334" lon="11.295942639258138"><ele>519.0</ele><time>2026-04-11T14:55:49.997Z</time></trkpt><trkpt lat="45.50719947586766" lon="11.295889917316073"><ele>519.0</ele><time>2026-04-11T14:55:50.997Z</time></trkpt><trkpt lat="45.507300142499474" lon="11.295872277600603"><ele>513.2</ele><time>2026-04-11T14:55:51.997Z</time></trkpt><trkpt lat="45.50738800364925" lon="11.295941971701337"><ele>507.4</ele><time>2026-04-11T14:55:52.997Z</time></trkpt><trkpt lat="45.5074554361338" lon="11.296048496281458"><ele>501.6</ele><time>2026-04-11T14:55:54Z</time></trkpt><trkpt lat="45.507498126950765" lon="11.29617754020906"><ele>495.8</ele><time>2026-04-11T14:55:55Z</time></trkpt><trkpt lat="45.50752841744373" lon="11.296316544050399"><ele>490.0</ele><time>2026-04-11T14:55:56Z</time></trkpt><trkpt lat="45.507531135865186" lon="11.296456860363852"><ele>487.8</ele><time>2026-04-11T14:55:57Z</time></trkpt><trkpt lat="45.5075506018931" lon="11.296606908358669"><ele>485.6</ele><time>2026-04-11T14:55:58Z</time></trkpt><trkpt lat="45.507570683159" lon="11.296755608996284"><ele>483.4</ele><time>2026-04-11T14:55:59Z</time></trkpt><trkpt lat="45.50761656823553" lon="11.296896608480589"><ele>481.2</ele><time>2026-04-11T14:56:00Z</time></trkpt><trkpt lat="45.507680316341414" lon="11.297027256419682"><ele>479.0</ele><time>2026-04-11T14:56:01Z</time></trkpt><trkpt lat="45.50773820204652" lon="11.297167365689392"><ele>476.25</ele><time>2026-04-11T14:56:02Z</time></trkpt><trkpt lat="45.507795962719655" lon="11.297311715747071"><ele>473.5</ele><time>2026-04-11T14:56:03Z</time></trkpt><trkpt lat="45.50787697453694" lon="11.297462850333826"><ele>470.75</ele><time>2026-04-11T14:56:04Z</time></trkpt><trkpt lat="45.50796994238239" lon="11.297597862598984"><ele>468.0</ele><time>2026-04-11T14:56:05Z</time></trkpt><trkpt lat="45.508069144678274" lon="11.29771900953484"><ele>468.0</ele><time>2026-04-11T14:56:06Z</time></trkpt><trkpt lat="45.50816502807878" lon="11.29784154912828"><ele>468.0</ele><time>2026-04-11T14:56:07Z</time></trkpt><trkpt lat="45.50826613473406" lon="11.29794744699339"><ele>468.0</ele><time>2026-04-11T14:56:08Z</time></trkpt><trkpt lat="45.508388604338826" lon="11.298005782461548"><ele>468.0</ele><time>2026-04-11T14:56:09Z</time></trkpt><trkpt lat="45.50852169019612" lon="11.298039237850766"><ele>464.75</ele><time>2026-04-11T14:56:10Z</time></trkpt><trkpt lat="45.50865469229789" lon="11.2980890876591"><ele>461.5</ele><time>2026-04-11T14:56:11Z</time></trkpt><trkpt lat="45.508774898753124" lon="11.298151875396714"><ele>458.25</ele><time>2026-04-11T14:56:12Z</time></trkpt><trkpt lat="45.508874403665196" lon="11.298213294733491"><ele>455.0</ele><time>2026-04-11T14:56:13Z</time></trkpt><trkpt lat="45.508965297356035" lon="11.298284457835571"><ele>454.0</ele><time>2026-04-11T14:56:14Z</time></trkpt><trkpt lat="45.509034177591715" lon="11.298385556368224"><ele>453.0</ele><time>2026-04-11T14:56:15Z</time></trkpt><trkpt lat="45.5090800997765" lon="11.298521967982552"><ele>452.0</ele><time>2026-04-11T14:56:16Z</time></trkpt><trkpt lat="45.509083902370705" lon="11.298672943870613"><ele>451.0</ele><time>2026-04-11T14:56:17Z</time></trkpt><trkpt lat="45.50908566868531" lon="11.298816950548163"><ele>450.0</ele><time>2026-04-11T14:56:18Z</time></trkpt><trkpt lat="45.509093868498496" lon="11.298970127426136"><ele>447.25</ele><time>2026-04-11T14:56:19Z</time></trkpt><trkpt lat="45.50907632132943" lon="11.299123018817642"><ele>444.5</ele><time>2026-04-11T14:56:20Z</time></trkpt><trkpt lat="45.50907035663054" lon="11.29927998611325"><ele>441.75</ele><time>2026-04-11T14:56:21Z</time></trkpt><trkpt lat="45.50904037621935" lon="11.299429271729728"><ele>439.0</ele><time>2026-04-11T14:56:22Z</time></trkpt><trkpt lat="45.50898800422277" lon="11.299589072641163"><ele>439.0</ele><time>2026-04-11T14:56:23Z</time></trkpt><trkpt lat="45.50892115702496" lon="11.299742103099991"><ele>439.0</ele><time>2026-04-11T14:56:24Z</time></trkpt><trkpt lat="45.50884659763786" lon="11.299882430528667"><ele>439.0</ele><time>2026-04-11T14:56:25Z</time></trkpt><trkpt lat="45.50878463427557" lon="11.300036909496713"><ele>439.0</ele><time>2026-04-11T14:56:26Z</time></trkpt><trkpt lat="45.508750819892136" lon="11.300211743290285"><ele>437.5</ele><time>2026-04-11T14:56:27Z</time></trkpt><trkpt lat="45.50874113974643" lon="11.300390488222062"><ele>436.0</ele><time>2026-04-11T14:56:27.999Z</time></trkpt><trkpt lat="45.50877721864216" lon="11.300576640339102"><ele>434.5</ele><time>2026-04-11T14:56:28.999Z</time></trkpt><trkpt lat="45.50884245572488" lon="11.300766639885975"><ele>433.0</ele><time>2026-04-11T14:56:29.999Z</time></trkpt><trkpt lat="45.50892829508713" lon="11.300948763966714"><ele>427.6666666666667</ele><time>2026-04-11T14:56:30.999Z</time></trkpt><trkpt lat="45.50902464152593" lon="11.301142913563405"><ele>422.33333333333337</ele><time>2026-04-11T14:56:31.999Z</time></trkpt><trkpt lat="45.50912477815415" lon="11.30133876030374"><ele>417.0</ele><time>2026-04-11T14:56:32.999Z</time></trkpt><trkpt lat="45.50921223061577" lon="11.301535227653504"><ele>413.0</ele><time>2026-04-11T14:56:33.999Z</time></trkpt><trkpt lat="45.50930298014713" lon="11.301721462943371"><ele>409.0</ele><time>2026-04-11T14:56:34.999Z</time></trkpt><trkpt lat="45.50939523010243" lon="11.30190614995512"><ele>405.0</ele><time>2026-04-11T14:56:35.999Z</time></trkpt><trkpt lat="45.50948002905685" lon="11.302085444384025"><ele>405.0</ele><time>2026-04-11T14:56:36.999Z</time></trkpt><trkpt lat="45.509556670663194" lon="11.302240869957437"><ele>405.0</ele><time>2026-04-11T14:56:37.999Z</time></trkpt><trkpt lat="45.509618009907534" lon="11.302389066886608"><ele>405.0</ele><time>2026-04-11T14:56:38.999Z</time></trkpt><trkpt lat="45.509643456700246" lon="11.302555274975937"><ele>405.0</ele><time>2026-04-11T14:56:39.999Z</time></trkpt><trkpt lat="45.50960177168433" lon="11.30273334586826"><ele>401.66666666666663</ele><time>2026-04-11T14:56:40.999Z</time></trkpt><trkpt lat="45.509546540137016" lon="11.302915055981314"><ele>398.3333333333333</ele><time>2026-04-11T14:56:41.999Z</time></trkpt><trkpt lat="45.50951600079366" lon="11.30314236664035"><ele>395.0</ele><time>2026-04-11T14:56:42.999Z</time></trkpt><trkpt lat="45.5094938418859" lon="11.303383831557266"><ele>392.0</ele><time>2026-04-11T14:56:43.999Z</time></trkpt><trkpt lat="45.509489943063606" lon="11.303626865482483"><ele>389.0</ele><time>2026-04-11T14:56:44.999Z</time></trkpt><trkpt lat="45.509479585095626" lon="11.303859757778916"><ele>386.0</ele><time>2026-04-11T14:56:45.999Z</time></trkpt><trkpt lat="45.50945917163396" lon="11.304086417162031"><ele>385.25</ele><time>2026-04-11T14:56:46.999Z</time></trkpt><trkpt lat="45.50944455563389" lon="11.3043020603448"><ele>384.5</ele><time>2026-04-11T14:56:47.999Z</time></trkpt><trkpt lat="45.509440279231114" lon="11.304488207915293"><ele>383.75</ele><time>2026-04-11T14:56:48.999Z</time></trkpt><trkpt lat="45.50940803029552" lon="11.30462926934809"><ele>383.0</ele><time>2026-04-11T14:56:49.999Z</time></trkpt><trkpt lat="45.50936249969299" lon="11.304752115740905"><ele>380.0</ele><time>2026-04-11T14:56:50.999Z</time></trkpt><trkpt lat="45.50926685954586" lon="11.304803687135907"><ele>377.0</ele><time>2026-04-11T14:56:51.999Z</time></trkpt><trkpt lat="45.509145861677204" lon="11.304847498589124"><ele>374.0</ele><time>2026-04-11T14:56:52.999Z</time></trkpt><trkpt lat="45.50900835458314" lon="11.30490754191374"><ele>371.0</ele><time>2026-04-11T14:56:53.999Z</time></trkpt><trkpt lat="45.50886533411652" lon="11.304978513119933"><ele>370.5</ele><time>2026-04-11T14:56:54.999Z</time></trkpt><trkpt lat="45.50873410857847" lon="11.305040149938376"><ele>370.0</ele><time>2026-04-11T14:56:55.999Z</time></trkpt><trkpt lat="45.508616782421164" lon="11.30509985158663"><ele>369.5</ele><time>2026-04-11T14:56:56.999Z</time></trkpt><trkpt lat="45.508517347386395" lon="11.305139469630337"><ele>369.0</ele><time>2026-04-11T14:56:57.999Z</time></trkpt><trkpt lat="45.508440094897885" lon="11.305193091292818"><ele>369.0</ele><time>2026-04-11T14:56:58.999Z</time></trkpt><trkpt lat="45.50839768939198" lon="11.30528140788655"><ele>369.0</ele><time>2026-04-11T14:56:59.999Z</time></trkpt><trkpt lat="45.50841125293007" lon="11.305397341278951"><ele>369.0</ele><time>2026-04-11T14:57:00.999Z</time></trkpt><trkpt lat="45.50847687994148" lon="11.305486030032624"><ele>369.0</ele><time>2026-04-11T14:57:01.999Z</time></trkpt><trkpt lat="45.50857216441854" lon="11.305528002683428"><ele>369.0</ele><time>2026-04-11T14:57:02.999Z</time></trkpt><trkpt lat="45.50870308364666" lon="11.30551676710042"><ele>369.6666666666667</ele><time>2026-04-11T14:57:03.999Z</time></trkpt><trkpt lat="45.508852356736526" lon="11.305493028052567"><ele>370.33333333333337</ele><time>2026-04-11T14:57:04.999Z</time></trkpt><trkpt lat="45.509026220588254" lon="11.30548367651839"><ele>371.0</ele><time>2026-04-11T14:57:05.999Z</time></trkpt><trkpt lat="45.509206305315516" lon="11.305481975033867"><ele>371.0</ele><time>2026-04-11T14:57:06.999Z</time></trkpt><trkpt lat="45.509374084617896" lon="11.305472549882797"><ele>371.0</ele><time>2026-04-11T14:57:07.998Z</time></trkpt><trkpt lat="45.50953372191085" lon="11.30546792881328"><ele>371.0</ele><time>2026-04-11T14:57:08.998Z</time></trkpt><trkpt lat="45.50969063730584" lon="11.305464062163445"><ele>367.6666666666667</ele><time>2026-04-11T14:57:09.998Z</time></trkpt><trkpt lat="45.509845186016406" lon="11.305453567942225"><ele>364.3333333333333</ele><time>2026-04-11T14:57:10.998Z</time></trkpt><trkpt lat="45.50999726152202" lon="11.305421806495838"><ele>361.0</ele><time>2026-04-11T14:57:11.998Z</time></trkpt><trkpt lat="45.51015075757173" lon="11.305359230823523"><ele>361.0</ele><time>2026-04-11T14:57:12.998Z</time></trkpt><trkpt lat="45.510309215152134" lon="11.305276770320278"><ele>361.0</ele><time>2026-04-11T14:57:13.998Z</time></trkpt><trkpt lat="45.510457945470705" lon="11.305197496731319"><ele>361.0</ele><time>2026-04-11T14:57:14.998Z</time></trkpt><trkpt lat="45.510598071058155" lon="11.305129132940165"><ele>359.8</ele><time>2026-04-11T14:57:15.998Z</time></trkpt><trkpt lat="45.510717378210984" lon="11.305069755247255"><ele>358.6</ele><time>2026-04-11T14:57:16.998Z</time></trkpt><trkpt lat="45.51081697190179" lon="11.305007566986879"><ele>357.4</ele><time>2026-04-11T14:57:17.998Z</time></trkpt><trkpt lat="45.51087792259824" lon="11.304904290931429"><ele>356.2</ele><time>2026-04-11T14:57:18.998Z</time></trkpt><trkpt lat="45.5108935221036" lon="11.304760572585577"><ele>355.0</ele><time>2026-04-11T14:57:19.998Z</time></trkpt><trkpt lat="45.51087946486259" lon="11.304614714391043"><ele>355.0</ele><time>2026-04-11T14:57:20.998Z</time></trkpt><trkpt lat="45.510899883729685" lon="11.304490666772441"><ele>355.0</ele><time>2026-04-11T14:57:21.998Z</time></trkpt><trkpt lat="45.51098401547277" lon="11.304409087864903"><ele>355.0</ele><time>2026-04-11T14:57:22.998Z</time></trkpt><trkpt lat="45.511122120117115" lon="11.304420717468481"><ele>355.0</ele><time>2026-04-11T14:57:23.998Z</time></trkpt><trkpt lat="45.51124624609093" lon="11.304383495351566"><ele>348.5</ele><time>2026-04-11T14:57:24.998Z</time></trkpt><trkpt lat="45.511388560264024" lon="11.304365859029746"><ele>342.0</ele><time>2026-04-11T14:57:25.998Z</time></trkpt><trkpt lat="45.51153030146329" lon="11.304339717485854"><ele>335.5</ele><time>2026-04-11T14:57:26.998Z</time></trkpt><trkpt lat="45.51166501732582" lon="11.304313685884512"><ele>329.0</ele><time>2026-04-11T14:57:27.998Z</time></trkpt><trkpt lat="45.51179340496286" lon="11.30427434421171"><ele>329.0</ele><time>2026-04-11T14:57:28.998Z</time></trkpt><trkpt lat="45.51191355146962" lon="11.304225873705146"><ele>329.0</ele><time>2026-04-11T14:57:29.998Z</time></trkpt><trkpt lat="45.51203478406163" lon="11.304170234661475"><ele>329.0</ele><time>2026-04-11T14:57:30.998Z</time></trkpt><trkpt lat="45.51214657005076" lon="11.304079027493971"><ele>329.0</ele><time>2026-04-11T14:57:31.998Z</time></trkpt><trkpt lat="45.51223734694203" lon="11.303949324299479"><ele>324.0</ele><time>2026-04-11T14:57:32.998Z</time></trkpt><trkpt lat="45.51228754629944" lon="11.303780880756825"><ele>319.0</ele><time>2026-04-11T14:57:33.998Z</time></trkpt><trkpt lat="45.51228217488237" lon="11.30358874441843"><ele>314.0</ele><time>2026-04-11T14:57:34.998Z</time></trkpt><trkpt lat="45.51225336185642" lon="11.303463262122877"><ele>309.0</ele><time>2026-04-11T14:57:35.998Z</time></trkpt><trkpt lat="45.51223424017134" lon="11.303249883732134"><ele>309.0</ele><time>2026-04-11T14:57:36.998Z</time></trkpt><trkpt lat="45.5122053253982" lon="11.303042653500691"><ele>309.0</ele><time>2026-04-11T14:57:37.998Z</time></trkpt><trkpt lat="45.51226392596222" lon="11.302846531399048"><ele>309.0</ele><time>2026-04-11T14:57:38.998Z</time></trkpt><trkpt lat="45.512351025931494" lon="11.302651295672575"><ele>309.0</ele><time>2026-04-11T14:57:39.998Z</time></trkpt><trkpt lat="45.512456725842576" lon="11.302466099511907"><ele>309.0</ele><time>2026-04-11T14:57:40.998Z</time></trkpt><trkpt lat="45.5125808519519" lon="11.302290221300302"><ele>309.0</ele><time>2026-04-11T14:57:41.998Z</time></trkpt><trkpt lat="45.51268704312133" lon="11.30210589072678"><ele>310.0</ele><time>2026-04-11T14:57:42.998Z</time></trkpt><trkpt lat="45.51278616137363" lon="11.30193162324035"><ele>311.0</ele><time>2026-04-11T14:57:43.998Z</time></trkpt><trkpt lat="45.51284732795042" lon="11.301728591004174"><ele>312.0</ele><time>2026-04-11T14:57:44.998Z</time></trkpt><trkpt lat="45.51294888548603" lon="11.301600514515524"><ele>313.0</ele><time>2026-04-11T14:57:45.998Z</time></trkpt><trkpt lat="45.51307303936705" lon="11.30153857557432"><ele>310.25</ele><time>2026-04-11T14:57:46.998Z</time></trkpt><trkpt lat="45.5131954186367" lon="11.301574378306032"><ele>307.5</ele><time>2026-04-11T14:57:47.997Z</time></trkpt><trkpt lat="45.51336173279581" lon="11.301589401158804"><ele>304.75</ele><time>2026-04-11T14:57:48.997Z</time></trkpt><trkpt lat="45.51351143579055" lon="11.301602923547684"><ele>302.0</ele><time>2026-04-11T14:57:49.997Z</time></trkpt><trkpt lat="45.513656576970384" lon="11.301616033884288"><ele>301.25</ele><time>2026-04-11T14:57:50.997Z</time></trkpt><trkpt lat="45.51380970755266" lon="11.301634369284876"><ele>300.5</ele><time>2026-04-11T14:57:51.997Z</time></trkpt><trkpt lat="45.513948179928235" lon="11.30164268951602"><ele>299.75</ele><time>2026-04-11T14:57:52.997Z</time></trkpt><trkpt lat="45.51408490311353" lon="11.30166096496063"><ele>299.0</ele><time>2026-04-11T14:57:53.997Z</time></trkpt><trkpt lat="45.514207884103826" lon="11.301678001349508"><ele>299.0</ele><time>2026-04-11T14:57:54.997Z</time></trkpt><trkpt lat="45.51430517000074" lon="11.301741823945257"><ele>299.0</ele><time>2026-04-11T14:57:55.997Z</time></trkpt><trkpt lat="45.51435632504294" lon="11.301850309469922"><ele>299.0</ele><time>2026-04-11T14:57:56.997Z</time></trkpt><trkpt lat="45.51440509860421" lon="11.301974527591339"><ele>299.0</ele><time>2026-04-11T14:57:57.997Z</time></trkpt><trkpt lat="45.51443281914238" lon="11.302115442258314"><ele>299.0</ele><time>2026-04-11T14:57:58.997Z</time></trkpt><trkpt lat="45.514444937492875" lon="11.302253777259136"><ele>296.25</ele><time>2026-04-11T14:58:00Z</time></trkpt><trkpt lat="45.51447771355881" lon="11.302402466240217"><ele>293.5</ele><time>2026-04-11T14:58:01Z</time></trkpt><trkpt lat="45.51448733254892" lon="11.302559026429144"><ele>290.75</ele><time>2026-04-11T14:58:02Z</time></trkpt><trkpt lat="45.51450331335341" lon="11.302717535326623"><ele>288.0</ele><time>2026-04-11T14:58:03Z</time></trkpt><trkpt lat="45.514532355806054" lon="11.302888700409527"><ele>287.75</ele><time>2026-04-11T14:58:04Z</time></trkpt><trkpt lat="45.51457774036242" lon="11.303061917062445"><ele>287.5</ele><time>2026-04-11T14:58:05Z</time></trkpt><trkpt lat="45.514646430613666" lon="11.303224048693265"><ele>287.25</ele><time>2026-04-11T14:58:06Z</time></trkpt><trkpt lat="45.514728112010886" lon="11.303380746262452"><ele>287.0</ele><time>2026-04-11T14:58:07Z</time></trkpt><trkpt lat="45.51481691184519" lon="11.303537209626121"><ele>285.75</ele><time>2026-04-11T14:58:08Z</time></trkpt><trkpt lat="45.514900729007444" lon="11.303688666588828"><ele>284.5</ele><time>2026-04-11T14:58:09Z</time></trkpt><trkpt lat="45.51498173521813" lon="11.303843005073816"><ele>283.25</ele><time>2026-04-11T14:58:10Z</time></trkpt><trkpt lat="45.51505656173745" lon="11.303992122799585"><ele>282.0</ele><time>2026-04-11T14:58:11Z</time></trkpt><trkpt lat="45.515084207198896" lon="11.304174767811698"><ele>280.5</ele><time>2026-04-11T14:58:12Z</time></trkpt><trkpt lat="45.515108775355195" lon="11.304356784797022"><ele>279.0</ele><time>2026-04-11T14:58:13Z</time></trkpt><trkpt lat="45.51512966777244" lon="11.30456417318868"><ele>277.5</ele><time>2026-04-11T14:58:14Z</time></trkpt><trkpt lat="45.515164382065635" lon="11.304776452432735"><ele>276.0</ele><time>2026-04-11T14:58:15Z</time></trkpt><trkpt lat="45.515186797472786" lon="11.304988277888564"><ele>273.5</ele><time>2026-04-11T14:58:16Z</time></trkpt><trkpt lat="45.515193624168404" lon="11.305199662774308"><ele>271.0</ele><time>2026-04-11T14:58:17Z</time></trkpt><trkpt lat="45.51521552476236" lon="11.305415169868223"><ele>268.5</ele><time>2026-04-11T14:58:18Z</time></trkpt><trkpt lat="45.515225625116166" lon="11.305626714499157"><ele>266.0</ele><time>2026-04-11T14:58:19Z</time></trkpt><trkpt lat="45.51522565800245" lon="11.30584402668773"><ele>263.75</ele><time>2026-04-11T14:58:20Z</time></trkpt><trkpt lat="45.51522097975535" lon="11.306061383697912"><ele>261.5</ele><time>2026-04-11T14:58:21Z</time></trkpt><trkpt lat="45.5152166767254" lon="11.306272346117415"><ele>259.25</ele><time>2026-04-11T14:58:22Z</time></trkpt><trkpt lat="45.515211704989014" lon="11.30647539948848"><ele>257.0</ele><time>2026-04-11T14:58:23Z</time></trkpt><trkpt lat="45.51520584630987" lon="11.306676258411946"><ele>254.75</ele><time>2026-04-11T14:58:24Z</time></trkpt><trkpt lat="45.51521458103094" lon="11.306878699263748"><ele>252.5</ele><time>2026-04-11T14:58:25Z</time></trkpt><trkpt lat="45.51521187243238" lon="11.307083785273909"><ele>250.25</ele><time>2026-04-11T14:58:26Z</time></trkpt><trkpt lat="45.51520430015419" lon="11.30729144164427"><ele>248.0</ele><time>2026-04-11T14:58:27Z</time></trkpt><trkpt lat="45.515200176155254" lon="11.307493494319548"><ele>245.75</ele><time>2026-04-11T14:58:28Z</time></trkpt><trkpt lat="45.515197148219606" lon="11.307698458929146"><ele>243.5</ele><time>2026-04-11T14:58:29Z</time></trkpt><trkpt lat="45.51518724391751" lon="11.307901438786034"><ele>241.25</ele><time>2026-04-11T14:58:29.999Z</time></trkpt><trkpt lat="45.51518347535978" lon="11.308101683471438"><ele>239.0</ele><time>2026-04-11T14:58:30.999Z</time></trkpt><trkpt lat="45.515180272402276" lon="11.30830216629217"><ele>237.0</ele><time>2026-04-11T14:58:31.999Z</time></trkpt><trkpt lat="45.51517723672537" lon="11.308504118630967"><ele>235.0</ele><time>2026-04-11T14:58:32.999Z</time></trkpt><trkpt lat="45.51517487986747" lon="11.308702399336166"><ele>233.0</ele><time>2026-04-11T14:58:33.999Z</time></trkpt><trkpt lat="45.51517917647781" lon="11.30890250406349"><ele>231.0</ele><time>2026-04-11T14:58:34.999Z</time></trkpt><trkpt lat="45.51519399072189" lon="11.309103865577537"><ele>228.0</ele><time>2026-04-11T14:58:35.999Z</time></trkpt><trkpt lat="45.51521806483144" lon="11.30930545178318"><ele>225.0</ele><time>2026-04-11T14:58:36.999Z</time></trkpt><trkpt lat="45.51525302414507" lon="11.3095082155459"><ele>222.0</ele><time>2026-04-11T14:58:37.999Z</time></trkpt><trkpt lat="45.515305220824004" lon="11.309727170591902"><ele>219.66666666666669</ele><time>2026-04-11T14:58:38.999Z</time></trkpt><trkpt lat="45.515355503657204" lon="11.30994435704416"><ele>217.33333333333334</ele><time>2026-04-11T14:58:39.999Z</time></trkpt><trkpt lat="45.515398218373264" lon="11.310164568692281"><ele>215.0</ele><time>2026-04-11T14:58:40.999Z</time></trkpt><trkpt lat="45.51543667375371" lon="11.310372186054176"><ele>218.0</ele><time>2026-04-11T14:58:41.999Z</time></trkpt><trkpt lat="45.5154749754815" lon="11.310582118915521"><ele>221.0</ele><time>2026-04-11T14:58:42.999Z</time></trkpt><trkpt lat="45.515511656867396" lon="11.310792249386896"><ele>224.0</ele><time>2026-04-11T14:58:43.999Z</time></trkpt><trkpt lat="45.515551597253356" lon="11.310989432108132"><ele>227.0</ele><time>2026-04-11T14:58:44.999Z</time></trkpt><trkpt lat="45.51558836213287" lon="11.311189613178225"><ele>227.0</ele><time>2026-04-11T14:58:45.999Z</time></trkpt><trkpt lat="45.515631878052524" lon="11.311393108095105"><ele>227.0</ele><time>2026-04-11T14:58:46.999Z</time></trkpt><trkpt lat="45.51569679092415" lon="11.311572635332853"><ele>227.0</ele><time>2026-04-11T14:58:47.999Z</time></trkpt><trkpt lat="45.51580076951131" lon="11.311729638758202"><ele>227.0</ele><time>2026-04-11T14:58:48.999Z</time></trkpt><trkpt lat="45.51592507579132" lon="11.311856691543497"><ele>220.75</ele><time>2026-04-11T14:58:49.999Z</time></trkpt><trkpt lat="45.51604031335754" lon="11.311979832806784"><ele>214.5</ele><time>2026-04-11T14:58:50.999Z</time></trkpt><trkpt lat="45.51612935911987" lon="11.312106604105034"><ele>208.25</ele><time>2026-04-11T14:58:51.999Z</time></trkpt><trkpt lat="45.51621441531584" lon="11.31224823510225"><ele>202.0</ele><time>2026-04-11T14:58:52.999Z</time></trkpt><trkpt lat="45.5162977117526" lon="11.312389687642447"><ele>200.75</ele><time>2026-04-11T14:58:53.999Z</time></trkpt><trkpt lat="45.51641009211374" lon="11.312518682241745"><ele>199.5</ele><time>2026-04-11T14:58:54.999Z</time></trkpt><trkpt lat="45.51649362266475" lon="11.312688460637993"><ele>198.25</ele><time>2026-04-11T14:58:55.999Z</time></trkpt><trkpt lat="45.516565924419425" lon="11.312856120172833"><ele>197.0</ele><time>2026-04-11T14:58:56.999Z</time></trkpt><trkpt lat="45.51665378650583" lon="11.313016120950381"><ele>192.75</ele><time>2026-04-11T14:58:57.999Z</time></trkpt><trkpt lat="45.516721405047" lon="11.313178786781448"><ele>188.5</ele><time>2026-04-11T14:58:58.999Z</time></trkpt><trkpt lat="45.51681083948007" lon="11.313316130086845"><ele>184.25</ele><time>2026-04-11T14:58:59.999Z</time></trkpt><trkpt lat="45.51691512448588" lon="11.3134135051955"><ele>180.0</ele><time>2026-04-11T14:59:00.999Z</time></trkpt><trkpt lat="45.51701936705717" lon="11.313498404863768"><ele>180.4</ele><time>2026-04-11T14:59:01.999Z</time></trkpt><trkpt lat="45.517126260605544" lon="11.313564487668426"><ele>180.8</ele><time>2026-04-11T14:59:02.999Z</time></trkpt><trkpt lat="45.51723802254622" lon="11.313613323197837"><ele>181.2</ele><time>2026-04-11T14:59:03.999Z</time></trkpt><trkpt lat="45.5173136350699" lon="11.313724183523965"><ele>181.6</ele><time>2026-04-11T14:59:04.999Z</time></trkpt><trkpt lat="45.517370072204244" lon="11.313848166649098"><ele>182.0</ele><time>2026-04-11T14:59:05.999Z</time></trkpt><trkpt lat="45.51740187643655" lon="11.313978432930325"><ele>180.39999999999998</ele><time>2026-04-11T14:59:06.999Z</time></trkpt><trkpt lat="45.51741417988168" lon="11.314106642068351"><ele>178.79999999999998</ele><time>2026-04-11T14:59:07.999Z</time></trkpt><trkpt lat="45.51741203110238" lon="11.314241558484902"><ele>177.2</ele><time>2026-04-11T14:59:08.999Z</time></trkpt><trkpt lat="45.517440476394185" lon="11.314387033545174"><ele>175.6</ele><time>2026-04-11T14:59:09.999Z</time></trkpt><trkpt lat="45.51746310280204" lon="11.314511085965272"><ele>174.0</ele><time>2026-04-11T14:59:10.999Z</time></trkpt><trkpt lat="45.51753022378518" lon="11.314630622268105"><ele>171.75</ele><time>2026-04-11T14:59:11.999Z</time></trkpt><trkpt lat="45.51761891332649" lon="11.314753016819576"><ele>169.5</ele><time>2026-04-11T14:59:12.998Z</time></trkpt><trkpt lat="45.517692845425486" lon="11.314906005597855"><ele>167.25</ele><time>2026-04-11T14:59:13.998Z</time></trkpt><trkpt lat="45.51777811526327" lon="11.315040431461666"><ele>165.0</ele><time>2026-04-11T14:59:14.998Z</time></trkpt><trkpt lat="45.517852288339924" lon="11.315196987756952"><ele>166.25</ele><time>2026-04-11T14:59:15.998Z</time></trkpt><trkpt lat="45.517923731493056" lon="11.31534611352853"><ele>167.5</ele><time>2026-04-11T14:59:16.998Z</time></trkpt><trkpt lat="45.51798801754283" lon="11.315484167051782"><ele>168.75</ele><time>2026-04-11T14:59:17.998Z</time></trkpt><trkpt lat="45.51807536907997" lon="11.315602194413557"><ele>170.0</ele><time>2026-04-11T14:59:18.998Z</time></trkpt><trkpt lat="45.5181764567286" lon="11.315702252044877"><ele>167.8</ele><time>2026-04-11T14:59:19.998Z</time></trkpt><trkpt lat="45.518266994154345" lon="11.315782001388344"><ele>165.6</ele><time>2026-04-11T14:59:20.998Z</time></trkpt><trkpt lat="45.518337658291856" lon="11.315864566611529"><ele>163.4</ele><time>2026-04-11T14:59:21.998Z</time></trkpt><trkpt lat="45.51838463581329" lon="11.31595003373335"><ele>161.2</ele><time>2026-04-11T14:59:22.998Z</time></trkpt><trkpt lat="45.51842858880662" lon="11.316062037026692"><ele>159.0</ele><time>2026-04-11T14:59:23.998Z</time></trkpt><trkpt lat="45.518491219636" lon="11.316158442055345"><ele>159.0</ele><time>2026-04-11T14:59:24.998Z</time></trkpt><trkpt lat="45.51854483204039" lon="11.316271750297272"><ele>159.0</ele><time>2026-04-11T14:59:25.998Z</time></trkpt><trkpt lat="45.518585434892415" lon="11.31641713759442"><ele>159.0</ele><time>2026-04-11T14:59:26.998Z</time></trkpt><trkpt lat="45.51863378560249" lon="11.31656993662477"><ele>159.0</ele><time>2026-04-11T14:59:27.998Z</time></trkpt><trkpt lat="45.51868944569429" lon="11.316712445934643"><ele>159.0</ele><time>2026-04-11T14:59:28.998Z</time></trkpt><trkpt lat="45.51873125234913" lon="11.316879625899823"><ele>156.25</ele><time>2026-04-11T14:59:29.998Z</time></trkpt><trkpt lat="45.51878127623613" lon="11.317056453036193"><ele>153.5</ele><time>2026-04-11T14:59:30.998Z</time></trkpt><trkpt lat="45.51882774348589" lon="11.317230145840126"><ele>150.75</ele><time>2026-04-11T14:59:31.998Z</time></trkpt><trkpt lat="45.51887441515649" lon="11.317398305784842"><ele>148.0</ele><time>2026-04-11T14:59:32.998Z</time></trkpt><trkpt lat="45.518914608970455" lon="11.317566680042974"><ele>145.75</ele><time>2026-04-11T14:59:33.998Z</time></trkpt><trkpt lat="45.5189646068378" lon="11.317736421705124"><ele>143.5</ele><time>2026-04-11T14:59:34.998Z</time></trkpt><trkpt lat="45.5190271074937" lon="11.317900388976051"><ele>141.25</ele><time>2026-04-11T14:59:35.998Z</time></trkpt><trkpt lat="45.51910345804901" lon="11.31805748670039"><ele>139.0</ele><time>2026-04-11T14:59:36.998Z</time></trkpt><trkpt lat="45.51919256320502" lon="11.318199856897547"><ele>138.75</ele><time>2026-04-11T14:59:37.998Z</time></trkpt><trkpt lat="45.5192947071612" lon="11.318343455826591"><ele>138.5</ele><time>2026-04-11T14:59:38.998Z</time></trkpt><trkpt lat="45.519400632100336" lon="11.318491830488984"><ele>138.25</ele><time>2026-04-11T14:59:39.998Z</time></trkpt><trkpt lat="45.51949745814263" lon="11.31864650953382"><ele>138.0</ele><time>2026-04-11T14:59:40.998Z</time></trkpt><trkpt lat="45.51959511231657" lon="11.31879971238784"><ele>137.0</ele><time>2026-04-11T14:59:41.998Z</time></trkpt><trkpt lat="45.51969621342327" lon="11.31895867696162"><ele>136.0</ele><time>2026-04-11T14:59:42.998Z</time></trkpt><trkpt lat="45.519792573786745" lon="11.319112529763053"><ele>135.0</ele><time>2026-04-11T14:59:43.998Z</time></trkpt><trkpt lat="45.51989196844383" lon="11.31926892962535"><ele>134.0</ele><time>2026-04-11T14:59:44.998Z</time></trkpt><trkpt lat="45.519989019917375" lon="11.319418688007199"><ele>134.0</ele><time>2026-04-11T14:59:45.998Z</time></trkpt><trkpt lat="45.52008844327228" lon="11.319573709382485"><ele>134.0</ele><time>2026-04-11T14:59:46.998Z</time></trkpt><trkpt lat="45.52018607544283" lon="11.319731655655087"><ele>134.0</ele><time>2026-04-11T14:59:47.998Z</time></trkpt><trkpt lat="45.52028401304392" lon="11.31989641086038"><ele>134.0</ele><time>2026-04-11T14:59:48.998Z</time></trkpt><trkpt lat="45.52038669929129" lon="11.320059341498176"><ele>132.0</ele><time>2026-04-11T14:59:49.998Z</time></trkpt><trkpt lat="45.52048974945338" lon="11.320224178061244"><ele>130.0</ele><time>2026-04-11T14:59:50.998Z</time></trkpt><trkpt lat="45.52059040256496" lon="11.320387996582982"><ele>128.0</ele><time>2026-04-11T14:59:51.998Z</time></trkpt><trkpt lat="45.520697065027335" lon="11.320550112282433"><ele>127.66666666666666</ele><time>2026-04-11T14:59:52.998Z</time></trkpt><trkpt lat="45.52080833942816" lon="11.320718969267755"><ele>127.33333333333334</ele><time>2026-04-11T14:59:53.997Z</time></trkpt><trkpt lat="45.52091402979193" lon="11.32088397766519"><ele>127.0</ele><time>2026-04-11T14:59:54.997Z</time></trkpt><trkpt lat="45.52101527705134" lon="11.3210464472663"><ele>127.0</ele><time>2026-04-11T14:59:55.997Z</time></trkpt><trkpt lat="45.52111545203352" lon="11.321193654947304"><ele>127.0</ele><time>2026-04-11T14:59:56.997Z</time></trkpt><trkpt lat="45.521199659957986" lon="11.321337416598496"><ele>127.0</ele><time>2026-04-11T14:59:57.997Z</time></trkpt><trkpt lat="45.521289651306624" lon="11.321467425230946"><ele>127.0</ele><time>2026-04-11T14:59:58.997Z</time></trkpt><trkpt lat="45.521363765461835" lon="11.321590481927824"><ele>126.33333333333334</ele><time>2026-04-11T14:59:59.997Z</time></trkpt><trkpt lat="45.52143152053427" lon="11.321700309246875"><ele>125.66666666666667</ele><time>2026-04-11T15:00:00.997Z</time></trkpt><trkpt lat="45.52149251377461" lon="11.321785406174396"><ele>125.0</ele><time>2026-04-11T15:00:01.997Z</time></trkpt><trkpt lat="45.521569528032785" lon="11.32182319209699"><ele>124.33333333333334</ele><time>2026-04-11T15:00:02.997Z</time></trkpt><trkpt lat="45.5216467141234" lon="11.321782614073769"><ele>123.66666666666667</ele><time>2026-04-11T15:00:03.997Z</time></trkpt><trkpt lat="45.52171508768438" lon="11.321690262239791"><ele>123.0</ele><time>2026-04-11T15:00:04.997Z</time></trkpt><trkpt lat="45.521784726808924" lon="11.321574730869221"><ele>123.0</ele><time>2026-04-11T15:00:06Z</time></trkpt><trkpt lat="45.521863789812954" lon="11.321473074132767"><ele>123.0</ele><time>2026-04-11T15:00:07Z</time></trkpt><trkpt lat="45.5219388284408" lon="11.321382295838776"><ele>123.0</ele><time>2026-04-11T15:00:08Z</time></trkpt><trkpt lat="45.52199327990509" lon="11.321305259727485"><ele>123.0</ele><time>2026-04-11T15:00:09Z</time></trkpt><trkpt lat="45.52204098873346" lon="11.321245982607197"><ele>123.0</ele><time>2026-04-11T15:00:10Z</time></trkpt><trkpt lat="45.522133690926914" lon="11.321300461515577"><ele>123.0</ele><time>2026-04-11T15:00:12Z</time></trkpt><trkpt lat="45.52222846459508" lon="11.321376690242918"><ele>123.0</ele><time>2026-04-11T15:00:14Z</time></trkpt><trkpt lat="45.52228989687046" lon="11.321449986771391"><ele>123.0</ele><time>2026-04-11T15:00:17Z</time></trkpt><trkpt lat="45.52232960680688" lon="11.321527531874008"><ele>123.0</ele><time>2026-04-11T15:00:21Z</time></trkpt><trkpt lat="45.52236078175284" lon="11.32161862488254"><ele>123.0</ele><time>2026-04-11T15:00:23Z</time></trkpt><trkpt lat="45.522332316819984" lon="11.321772590855128"><ele>123.0</ele><time>2026-04-11T15:00:25Z</time></trkpt><trkpt lat="45.5223033872159" lon="11.321868819895743"><ele>123.0</ele><time>2026-04-11T15:00:26Z</time></trkpt><trkpt lat="45.52229753696781" lon="11.321969053764985"><ele>123.0</ele><time>2026-04-11T15:00:27Z</time></trkpt><trkpt lat="45.522317976443844" lon="11.322067448513113"><ele>123.0</ele><time>2026-04-11T15:00:28Z</time></trkpt><trkpt lat="45.52236206886828" lon="11.32213905720164"><ele>123.0</ele><time>2026-04-11T15:00:29Z</time></trkpt><trkpt lat="45.522426460154676" lon="11.322185954804254"><ele>123.0</ele><time>2026-04-11T15:00:30Z</time></trkpt><trkpt lat="45.52250535905301" lon="11.322184012082017"><ele>123.0</ele><time>2026-04-11T15:00:31Z</time></trkpt><trkpt lat="45.52258191597203" lon="11.32213970003757"><ele>123.0</ele><time>2026-04-11T15:00:32Z</time></trkpt><trkpt lat="45.52264000757634" lon="11.322052690446954"><ele>123.0</ele><time>2026-04-11T15:00:33Z</time></trkpt><trkpt lat="45.52272112597589" lon="11.32204355897945"><ele>123.0</ele><time>2026-04-11T15:00:34Z</time></trkpt><trkpt lat="45.522794556288204" lon="11.32202231513835"><ele>123.0</ele><time>2026-04-11T15:00:35Z</time></trkpt><trkpt lat="45.52285422591652" lon="11.32199253215002"><ele>123.0</ele><time>2026-04-11T15:00:36Z</time></trkpt><trkpt lat="45.522925588503306" lon="11.32203469812985"><ele>123.0</ele><time>2026-04-11T15:00:37Z</time></trkpt><trkpt lat="45.52300060183826" lon="11.322072394588089"><ele>123.0</ele><time>2026-04-11T15:00:38Z</time></trkpt><trkpt lat="45.523064878652505" lon="11.322128026464748"><ele>123.0</ele><time>2026-04-11T15:00:39Z</time></trkpt><trkpt lat="45.52311957820947" lon="11.322179097509245"><ele>123.0</ele><time>2026-04-11T15:00:39.999Z</time></trkpt><trkpt lat="45.523173087094676" lon="11.322231889658699"><ele>123.0</ele><time>2026-04-11T15:00:40.999Z</time></trkpt><trkpt lat="45.5232284973699" lon="11.322278183991031"><ele>123.0</ele><time>2026-04-11T15:00:41.999Z</time></trkpt><trkpt lat="45.52333590197505" lon="11.322371388330794"><ele>123.0</ele><time>2026-04-11T15:00:43.999Z</time></trkpt><trkpt lat="45.523400792106266" lon="11.322435501323854"><ele>123.0</ele><time>2026-04-11T15:00:44.999Z</time></trkpt><trkpt lat="45.523476432748645" lon="11.322506409534379"><ele>123.0</ele><time>2026-04-11T15:00:45.999Z</time></trkpt><trkpt lat="45.52354604431219" lon="11.322578698492903"><ele>123.0</ele><time>2026-04-11T15:00:46.999Z</time></trkpt><trkpt lat="45.52362268070777" lon="11.32265539728026"><ele>123.0</ele><time>2026-04-11T15:00:47.999Z</time></trkpt><trkpt lat="45.523698865840906" lon="11.322729402401633"><ele>123.0</ele><time>2026-04-11T15:00:48.999Z</time></trkpt><trkpt lat="45.52377237116556" lon="11.322798909957731"><ele>123.0</ele><time>2026-04-11T15:00:49.999Z</time></trkpt><trkpt lat="45.52383038852103" lon="11.322857476067236"><ele>123.0</ele><time>2026-04-11T15:00:50.999Z</time></trkpt><trkpt lat="45.52388899850379" lon="11.322916180506724"><ele>123.0</ele><time>2026-04-11T15:00:51.999Z</time></trkpt><trkpt lat="45.52395175494349" lon="11.322973825998002"><ele>123.0</ele><time>2026-04-11T15:00:52.999Z</time></trkpt><trkpt lat="45.524010161297035" lon="11.323026842646923"><ele>123.0</ele><time>2026-04-11T15:00:53.999Z</time></trkpt><trkpt lat="45.524118642851704" lon="11.32308541735455"><ele>123.0</ele><time>2026-04-11T15:00:55.999Z</time></trkpt><trkpt lat="45.524226128550445" lon="11.323131340807674"><ele>123.0</ele><time>2026-04-11T15:00:57.999Z</time></trkpt><trkpt lat="45.52428680579621" lon="11.323175946576479"><ele>123.0</ele><time>2026-04-11T15:00:58.999Z</time></trkpt><trkpt lat="45.524353910847836" lon="11.323215734406014"><ele>123.33333333333333</ele><time>2026-04-11T15:00:59.999Z</time></trkpt><trkpt lat="45.5244361101523" lon="11.323226024014266"><ele>123.66666666666666</ele><time>2026-04-11T15:01:00.999Z</time></trkpt><trkpt lat="45.524521520120366" lon="11.323198252923365"><ele>124.0</ele><time>2026-04-11T15:01:01.999Z</time></trkpt><trkpt lat="45.52458582116928" lon="11.323115444775897"><ele>124.33333333333333</ele><time>2026-04-11T15:01:02.999Z</time></trkpt><trkpt lat="45.52468959355011" lon="11.323088521724127"><ele>124.66666666666666</ele><time>2026-04-11T15:01:03.999Z</time></trkpt><trkpt lat="45.524770290200955" lon="11.323045659463183"><ele>125.0</ele><time>2026-04-11T15:01:04.999Z</time></trkpt><trkpt lat="45.5248466446761" lon="11.322981608251606"><ele>125.0</ele><time>2026-04-11T15:01:05.999Z</time></trkpt><trkpt lat="45.52492071691852" lon="11.322909659627898"><ele>125.0</ele><time>2026-04-11T15:01:06.999Z</time></trkpt><trkpt lat="45.52499968213925" lon="11.322838228405825"><ele>125.0</ele><time>2026-04-11T15:01:07.999Z</time></trkpt><trkpt lat="45.52508478485029" lon="11.322756964186084"><ele>125.0</ele><time>2026-04-11T15:01:08.999Z</time></trkpt><trkpt lat="45.525166319833495" lon="11.32266983859204"><ele>125.0</ele><time>2026-04-11T15:01:09.999Z</time></trkpt><trkpt lat="45.52524601849368" lon="11.322564755134243"><ele>125.0</ele><time>2026-04-11T15:01:10.999Z</time></trkpt><trkpt lat="45.52531879402793" lon="11.322450314082323"><ele>125.0</ele><time>2026-04-11T15:01:11.999Z</time></trkpt><trkpt lat="45.525384906211585" lon="11.322334112876813"><ele>125.0</ele><time>2026-04-11T15:01:12.999Z</time></trkpt><trkpt lat="45.525458542592524" lon="11.322208315104218"><ele>125.0</ele><time>2026-04-11T15:01:13.999Z</time></trkpt><trkpt lat="45.525531914352975" lon="11.322080453746647"><ele>125.0</ele><time>2026-04-11T15:01:14.999Z</time></trkpt><trkpt lat="45.525612494615345" lon="11.321932923774066"><ele>125.25</ele><time>2026-04-11T15:01:15.999Z</time></trkpt><trkpt lat="45.52569581433167" lon="11.321781954201086"><ele>125.5</ele><time>2026-04-11T15:01:16.999Z</time></trkpt><trkpt lat="45.52577615072899" lon="11.321634988104762"><ele>125.75</ele><time>2026-04-11T15:01:17.999Z</time></trkpt><trkpt lat="45.52585394433561" lon="11.321480555909847"><ele>126.0</ele><time>2026-04-11T15:01:18.999Z</time></trkpt><trkpt lat="45.52593221329723" lon="11.321326169557182"><ele>126.0</ele><time>2026-04-11T15:01:19.999Z</time></trkpt><trkpt lat="45.52601463116587" lon="11.321159651377972"><ele>126.0</ele><time>2026-04-11T15:01:20.999Z</time></trkpt><trkpt lat="45.526098032525454" lon="11.320987534023153"><ele>126.0</ele><time>2026-04-11T15:01:21.998Z</time></trkpt><trkpt lat="45.52617532496276" lon="11.320812237411175"><ele>126.0</ele><time>2026-04-11T15:01:22.998Z</time></trkpt><trkpt lat="45.526244555624324" lon="11.320632925938867"><ele>126.5</ele><time>2026-04-11T15:01:23.998Z</time></trkpt><trkpt lat="45.5263063446567" lon="11.320450160359464"><ele>127.0</ele><time>2026-04-11T15:01:24.998Z</time></trkpt><trkpt lat="45.52636397191899" lon="11.320259822905525"><ele>127.5</ele><time>2026-04-11T15:01:25.998Z</time></trkpt><trkpt lat="45.526420008137094" lon="11.320067047810628"><ele>128.0</ele><time>2026-04-11T15:01:26.998Z</time></trkpt><trkpt lat="45.52647707935582" lon="11.319876243195191"><ele>127.75</ele><time>2026-04-11T15:01:27.998Z</time></trkpt><trkpt lat="45.526531434127925" lon="11.319690732366636"><ele>127.5</ele><time>2026-04-11T15:01:28.998Z</time></trkpt><trkpt lat="45.526590708592366" lon="11.319503501500515"><ele>127.25</ele><time>2026-04-11T15:01:29.998Z</time></trkpt><trkpt lat="45.52664818063511" lon="11.319314904633044"><ele>127.0</ele><time>2026-04-11T15:01:30.998Z</time></trkpt><trkpt lat="45.526706904603245" lon="11.319119412597878"><ele>127.0</ele><time>2026-04-11T15:01:31.998Z</time></trkpt><trkpt lat="45.52676741571597" lon="11.318917372997012"><ele>127.0</ele><time>2026-04-11T15:01:32.998Z</time></trkpt><trkpt lat="45.52682810973054" lon="11.318722032824901"><ele>127.0</ele><time>2026-04-11T15:01:33.998Z</time></trkpt><trkpt lat="45.52689192263226" lon="11.318526189667377"><ele>127.0</ele><time>2026-04-11T15:01:34.998Z</time></trkpt><trkpt lat="45.52696279022926" lon="11.318328307339"><ele>127.0</ele><time>2026-04-11T15:01:35.998Z</time></trkpt><trkpt lat="45.52704142083096" lon="11.318130860930658"><ele>127.0</ele><time>2026-04-11T15:01:36.998Z</time></trkpt><trkpt lat="45.52712535220902" lon="11.317925491712124"><ele>127.66666666666667</ele><time>2026-04-11T15:01:37.998Z</time></trkpt><trkpt lat="45.52720280894868" lon="11.317725453373914"><ele>128.33333333333334</ele><time>2026-04-11T15:01:38.998Z</time></trkpt><trkpt lat="45.527287188832254" lon="11.317514989856205"><ele>129.0</ele><time>2026-04-11T15:01:39.998Z</time></trkpt><trkpt lat="45.52737519759711" lon="11.317316028469042"><ele>128.66666666666666</ele><time>2026-04-11T15:01:40.998Z</time></trkpt><trkpt lat="45.5274541828178" lon="11.317124564868214"><ele>128.33333333333331</ele><time>2026-04-11T15:01:41.998Z</time></trkpt><trkpt lat="45.52753778373207" lon="11.316923601741774"><ele>128.0</ele><time>2026-04-11T15:01:42.998Z</time></trkpt><trkpt lat="45.52762052061575" lon="11.316733900558877"><ele>128.0</ele><time>2026-04-11T15:01:43.998Z</time></trkpt><trkpt lat="45.52770602018185" lon="11.316534815951565"><ele>128.0</ele><time>2026-04-11T15:01:44.998Z</time></trkpt><trkpt lat="45.52779330703686" lon="11.316333406915962"><ele>128.0</ele><time>2026-04-11T15:01:45.998Z</time></trkpt><trkpt lat="45.52788240535863" lon="11.31613262411907"><ele>130.66666666666666</ele><time>2026-04-11T15:01:46.998Z</time></trkpt><trkpt lat="45.52796536080961" lon="11.31593558246019"><ele>133.33333333333334</ele><time>2026-04-11T15:01:47.998Z</time></trkpt><trkpt lat="45.52804350528424" lon="11.315730326349588"><ele>136.0</ele><time>2026-04-11T15:01:48.998Z</time></trkpt><trkpt lat="45.52812931904232" lon="11.315527939856194"><ele>136.0</ele><time>2026-04-11T15:01:49.998Z</time></trkpt><trkpt lat="45.52821385489791" lon="11.315324997820218"><ele>136.0</ele><time>2026-04-11T15:01:50.998Z</time></trkpt><trkpt lat="45.528301311244775" lon="11.315113762378337"><ele>136.0</ele><time>2026-04-11T15:01:51.998Z</time></trkpt><trkpt lat="45.528392087340585" lon="11.31490728826117"><ele>135.66666666666669</ele><time>2026-04-11T15:01:52.998Z</time></trkpt><trkpt lat="45.52848070237888" lon="11.31469284206844"><ele>135.33333333333334</ele><time>2026-04-11T15:01:53.998Z</time></trkpt><trkpt lat="45.528568490953866" lon="11.314475954656205"><ele>135.0</ele><time>2026-04-11T15:01:54.998Z</time></trkpt><trkpt lat="45.52865258004208" lon="11.31426894857523"><ele>136.66666666666666</ele><time>2026-04-11T15:01:55.998Z</time></trkpt><trkpt lat="45.5287387937626" lon="11.314064451980961"><ele>138.33333333333331</ele><time>2026-04-11T15:01:56.998Z</time></trkpt><trkpt lat="45.52882630819937" lon="11.31386108787348"><ele>140.0</ele><time>2026-04-11T15:01:57.998Z</time></trkpt><trkpt lat="45.52890850648272" lon="11.313657075703102"><ele>140.0</ele><time>2026-04-11T15:01:58.998Z</time></trkpt><trkpt lat="45.528990728547875" lon="11.313447056016711"><ele>140.0</ele><time>2026-04-11T15:01:59.998Z</time></trkpt><trkpt lat="45.52906897521881" lon="11.31323865898549"><ele>140.0</ele><time>2026-04-11T15:02:00.998Z</time></trkpt><trkpt lat="45.52915217502668" lon="11.313023893814684"><ele>138.33333333333331</ele><time>2026-04-11T15:02:01.998Z</time></trkpt><trkpt lat="45.529230896386004" lon="11.312803446284203"><ele>136.66666666666666</ele><time>2026-04-11T15:02:02.997Z</time></trkpt><trkpt lat="45.52931299150358" lon="11.312571066980658"><ele>135.0</ele><time>2026-04-11T15:02:03.997Z</time></trkpt><trkpt lat="45.52940024036776" lon="11.31234347024349"><ele>135.33333333333334</ele><time>2026-04-11T15:02:04.997Z</time></trkpt><trkpt lat="45.529484951422994" lon="11.31212255291736"><ele>135.66666666666669</ele><time>2026-04-11T15:02:05.997Z</time></trkpt><trkpt lat="45.529569495597684" lon="11.311906923805735"><ele>136.0</ele><time>2026-04-11T15:02:06.997Z</time></trkpt><trkpt lat="45.529646347769884" lon="11.311696949808447"><ele>136.66666666666669</ele><time>2026-04-11T15:02:07.997Z</time></trkpt><trkpt lat="45.52972182277271" lon="11.311479743446727"><ele>137.33333333333334</ele><time>2026-04-11T15:02:08.997Z</time></trkpt><trkpt lat="45.529797854915024" lon="11.31126056411014"><ele>138.0</ele><time>2026-04-11T15:02:09.997Z</time></trkpt><trkpt lat="45.529876395777606" lon="11.31104576319688"><ele>138.0</ele><time>2026-04-11T15:02:10.997Z</time></trkpt><trkpt lat="45.52995911144679" lon="11.310826563701323"><ele>138.0</ele><time>2026-04-11T15:02:12Z</time></trkpt><trkpt lat="45.53004580858908" lon="11.310596503436644"><ele>138.0</ele><time>2026-04-11T15:02:13Z</time></trkpt><trkpt lat="45.5301281663575" lon="11.310370188659169"><ele>137.75</ele><time>2026-04-11T15:02:14Z</time></trkpt><trkpt lat="45.5302052996719" lon="11.310168442620341"><ele>137.5</ele><time>2026-04-11T15:02:15Z</time></trkpt><trkpt lat="45.530277415051934" lon="11.309984595584462"><ele>137.25</ele><time>2026-04-11T15:02:16Z</time></trkpt><trkpt lat="45.53033881958406" lon="11.309818032264987"><ele>137.0</ele><time>2026-04-11T15:02:17Z</time></trkpt><trkpt lat="45.53039123274177" lon="11.309676426998019"><ele>137.2</ele><time>2026-04-11T15:02:18Z</time></trkpt><trkpt lat="45.53043412380771" lon="11.309563744335374"><ele>137.39999999999998</ele><time>2026-04-11T15:02:19Z</time></trkpt><trkpt lat="45.53047597589107" lon="11.309462287177299"><ele>137.60000000000002</ele><time>2026-04-11T15:02:20Z</time></trkpt><trkpt lat="45.530513254465696" lon="11.309370664061076"><ele>137.8</ele><time>2026-04-11T15:02:21Z</time></trkpt><trkpt lat="45.530569154538796" lon="11.30924153290741"><ele>138.0</ele><time>2026-04-11T15:02:23Z</time></trkpt><trkpt lat="45.53046801779408" lon="11.309150437918738"><ele>137.8</ele><time>2026-04-11T15:02:24Z</time></trkpt><trkpt lat="45.53037731915574" lon="11.309052256816331"><ele>137.60000000000002</ele><time>2026-04-11T15:02:25Z</time></trkpt><trkpt lat="45.53032886239689" lon="11.30887810632126"><ele>137.39999999999998</ele><time>2026-04-11T15:02:26Z</time></trkpt><trkpt lat="45.53024877188497" lon="11.308789948986673"><ele>137.2</ele><time>2026-04-11T15:02:27Z</time></trkpt><trkpt lat="45.530192116060924" lon="11.308714471312422"><ele>137.0</ele><time>2026-04-11T15:02:28Z</time></trkpt><trkpt lat="45.530142896419214" lon="11.308624358846568"><ele>137.5</ele><time>2026-04-11T15:02:30Z</time></trkpt><trkpt lat="45.53008488495535" lon="11.308561395649106"><ele>138.0</ele><time>2026-04-11T15:37:28.998Z</time></trkpt><trkpt lat="45.53000451438107" lon="11.308454179293138"><ele>138.5</ele><time>2026-04-11T15:37:29.998Z</time></trkpt><trkpt lat="45.529916833873266" lon="11.308320253093452"><ele>139.0</ele><time>2026-04-11T15:37:30.998Z</time></trkpt><trkpt lat="45.52982050819471" lon="11.308168020149221"><ele>139.0</ele><time>2026-04-11T15:37:31.998Z</time></trkpt><trkpt lat="45.52972156134156" lon="11.308011648847682"><ele>139.0</ele><time>2026-04-11T15:37:32.998Z</time></trkpt><trkpt lat="45.52963636164054" lon="11.307852607473029"><ele>139.0</ele><time>2026-04-11T15:37:33.998Z</time></trkpt><trkpt lat="45.52957123480455" lon="11.307712625916249"><ele>139.0</ele><time>2026-04-11T15:37:34.998Z</time></trkpt><trkpt lat="45.529518875658205" lon="11.307578809848003"><ele>139.0</ele><time>2026-04-11T15:37:35.998Z</time></trkpt><trkpt lat="45.52946504642962" lon="11.307450601586238"><ele>139.0</ele><time>2026-04-11T15:37:36.998Z</time></trkpt><trkpt lat="45.52942327528159" lon="11.307361809812917"><ele>139.0</ele><time>2026-04-11T15:37:37.997Z</time></trkpt><trkpt lat="45.52938345152496" lon="11.307228467347462"><ele>139.0</ele><time>2026-04-11T15:37:39.997Z</time></trkpt><trkpt lat="45.52944092594694" lon="11.307103259900256"><ele>139.0</ele><time>2026-04-11T15:37:41.997Z</time></trkpt><trkpt lat="45.52949381321297" lon="11.30703082963782"><ele>138.8</ele><time>2026-04-11T15:37:42.997Z</time></trkpt><trkpt lat="45.52955716218311" lon="11.306973517863545"><ele>138.60000000000002</ele><time>2026-04-11T15:37:43.997Z</time></trkpt><trkpt lat="45.52965522531982" lon="11.306877290787273"><ele>138.4</ele><time>2026-04-11T15:37:45.997Z</time></trkpt><trkpt lat="45.52972905969172" lon="11.306797510351995"><ele>138.20000000000002</ele><time>2026-04-11T15:37:47.997Z</time></trkpt><trkpt lat="45.529780386195924" lon="11.306738788462898"><ele>138.0</ele><time>2026-04-11T15:37:49.997Z</time></trkpt><trkpt lat="45.52981887041483" lon="11.30653666526975"><ele>138.0</ele><time>2026-04-11T15:38:02Z</time></trkpt><trkpt lat="45.52980145867844" lon="11.306418781684533"><ele>138.0</ele><time>2026-04-11T15:38:03Z</time></trkpt><trkpt lat="45.529797581026344" lon="11.306280950696861"><ele>138.0</ele><time>2026-04-11T15:38:04Z</time></trkpt><trkpt lat="45.529797552697374" lon="11.306117141723513"><ele>138.0</ele><time>2026-04-11T15:38:05Z</time></trkpt><trkpt lat="45.52982347020336" lon="11.305975719031705"><ele>138.0</ele><time>2026-04-11T15:38:06Z</time></trkpt><trkpt lat="45.52986420160897" lon="11.305854124941202"><ele>138.0</ele><time>2026-04-11T15:38:07Z</time></trkpt><trkpt lat="45.52990512144246" lon="11.305744264069086"><ele>138.0</ele><time>2026-04-11T15:38:08Z</time></trkpt><trkpt lat="45.529939821976505" lon="11.305632269825654"><ele>138.0</ele><time>2026-04-11T15:38:09Z</time></trkpt><trkpt lat="45.52996810538836" lon="11.305514944973384"><ele>138.0</ele><time>2026-04-11T15:38:10Z</time></trkpt><trkpt lat="45.530003363345145" lon="11.30538830496329"><ele>138.0</ele><time>2026-04-11T15:38:11Z</time></trkpt><trkpt lat="45.53004460619574" lon="11.305247729198635"><ele>138.0</ele><time>2026-04-11T15:38:12Z</time></trkpt><trkpt lat="45.530089359027784" lon="11.305090004112405"><ele>138.0</ele><time>2026-04-11T15:38:13Z</time></trkpt><trkpt lat="45.5301366368272" lon="11.304909077646382"><ele>138.0</ele><time>2026-04-11T15:38:14Z</time></trkpt><trkpt lat="45.530192582426466" lon="11.304703550025833"><ele>138.0</ele><time>2026-04-11T15:38:15Z</time></trkpt><trkpt lat="45.53024943747436" lon="11.30446089986927"><ele>138.0</ele><time>2026-04-11T15:38:16Z</time></trkpt><trkpt lat="45.53033917126425" lon="11.304207768708023"><ele>138.0</ele><time>2026-04-11T15:38:17Z</time></trkpt><trkpt lat="45.53041665171553" lon="11.303916531127493"><ele>138.0</ele><time>2026-04-11T15:38:18Z</time></trkpt><trkpt lat="45.530544700778215" lon="11.30363924631237"><ele>139.0</ele><time>2026-04-11T15:38:19Z</time></trkpt><trkpt lat="45.5306913693603" lon="11.303348476239174"><ele>140.0</ele><time>2026-04-11T15:38:20Z</time></trkpt><trkpt lat="45.53084174834057" lon="11.303060006492343"><ele>140.5</ele><time>2026-04-11T15:38:21Z</time></trkpt><trkpt lat="45.531001725133365" lon="11.302794097028668"><ele>141.0</ele><time>2026-04-11T15:38:22Z</time></trkpt><trkpt lat="45.5311694559319" lon="11.302555079097546"><ele>141.33333333333334</ele><time>2026-04-11T15:38:23Z</time></trkpt><trkpt lat="45.5313302118685" lon="11.302320182769389"><ele>141.66666666666669</ele><time>2026-04-11T15:38:24Z</time></trkpt><trkpt lat="45.53148286051299" lon="11.302095626871822"><ele>142.0</ele><time>2026-04-11T15:38:25Z</time></trkpt><trkpt lat="45.531624043158985" lon="11.301877983497103"><ele>142.0</ele><time>2026-04-11T15:38:26Z</time></trkpt><trkpt lat="45.531759914418124" lon="11.301675828381507"><ele>142.0</ele><time>2026-04-11T15:38:26.999Z</time></trkpt><trkpt lat="45.53188924793658" lon="11.301486655238232"><ele>142.0</ele><time>2026-04-11T15:38:27.999Z</time></trkpt><trkpt lat="45.532014189887384" lon="11.301308832129157"><ele>143.33333333333334</ele><time>2026-04-11T15:38:28.999Z</time></trkpt><trkpt lat="45.53213293304205" lon="11.301149828287286"><ele>144.66666666666666</ele><time>2026-04-11T15:38:29.999Z</time></trkpt><trkpt lat="45.532248324058756" lon="11.301007399809038"><ele>146.0</ele><time>2026-04-11T15:38:30.999Z</time></trkpt><trkpt lat="45.532365269223114" lon="11.300867648840518"><ele>146.0</ele><time>2026-04-11T15:38:31.999Z</time></trkpt><trkpt lat="45.53247966960975" lon="11.300750746863095"><ele>146.0</ele><time>2026-04-11T15:38:32.999Z</time></trkpt><trkpt lat="45.53260250666053" lon="11.300667132970776"><ele>146.0</ele><time>2026-04-11T15:38:33.999Z</time></trkpt><trkpt lat="45.53272221126454" lon="11.300610630687173"><ele>146.0</ele><time>2026-04-11T15:38:34.999Z</time></trkpt><trkpt lat="45.53282934801612" lon="11.300571977038729"><ele>146.0</ele><time>2026-04-11T15:38:35.999Z</time></trkpt><trkpt lat="45.53291817373765" lon="11.300495934331984"><ele>146.0</ele><time>2026-04-11T15:38:36.999Z</time></trkpt><trkpt lat="45.5330119656857" lon="11.300419921696577"><ele>146.0</ele><time>2026-04-11T15:38:37.999Z</time></trkpt><trkpt lat="45.53306748338422" lon="11.30028344354853"><ele>146.0</ele><time>2026-04-11T15:38:38.999Z</time></trkpt><trkpt lat="45.533063497407966" lon="11.300125576791054"><ele>146.0</ele><time>2026-04-11T15:38:39.999Z</time></trkpt><trkpt lat="45.53303212806682" lon="11.299980839884832"><ele>146.0</ele><time>2026-04-11T15:38:40.999Z</time></trkpt><trkpt lat="45.53297254462446" lon="11.299842566437299"><ele>146.0</ele><time>2026-04-11T15:38:41.999Z</time></trkpt><trkpt lat="45.532884496850095" lon="11.299708508700094"><ele>146.0</ele><time>2026-04-11T15:38:42.999Z</time></trkpt><trkpt lat="45.532770321699566" lon="11.29956744127913"><ele>146.0</ele><time>2026-04-11T15:38:43.999Z</time></trkpt><trkpt lat="45.53264757649224" lon="11.299408910382725"><ele>147.0</ele><time>2026-04-11T15:38:44.999Z</time></trkpt><trkpt lat="45.53251724587706" lon="11.299241194782404"><ele>148.0</ele><time>2026-04-11T15:38:45.999Z</time></trkpt><trkpt lat="45.53240639330516" lon="11.299093690408856"><ele>149.0</ele><time>2026-04-11T15:38:46.999Z</time></trkpt><trkpt lat="45.53230860657679" lon="11.29895741758754"><ele>148.5</ele><time>2026-04-11T15:38:47.999Z</time></trkpt><trkpt lat="45.532235350228866" lon="11.298813609479648"><ele>148.0</ele><time>2026-04-11T15:38:48.999Z</time></trkpt><trkpt lat="45.53218404924914" lon="11.298655488291347"><ele>147.5</ele><time>2026-04-11T15:38:49.999Z</time></trkpt><trkpt lat="45.53215644031136" lon="11.298470810241843"><ele>147.0</ele><time>2026-04-11T15:38:50.999Z</time></trkpt><trkpt lat="45.53215415344731" lon="11.298299056047806"><ele>147.0</ele><time>2026-04-11T15:38:51.999Z</time></trkpt><trkpt lat="45.53215734583878" lon="11.298138157065855"><ele>147.0</ele><time>2026-04-11T15:38:52.999Z</time></trkpt><trkpt lat="45.53216951922824" lon="11.29798675961769"><ele>147.0</ele><time>2026-04-11T15:38:53.999Z</time></trkpt><trkpt lat="45.53220670173212" lon="11.297842069436081"><ele>147.0</ele><time>2026-04-11T15:38:54.999Z</time></trkpt><trkpt lat="45.532272818981966" lon="11.29772117987245"><ele>147.0</ele><time>2026-04-11T15:38:55.999Z</time></trkpt><trkpt lat="45.5323813605358" lon="11.297661617496004"><ele>147.0</ele><time>2026-04-11T15:38:56.999Z</time></trkpt><trkpt lat="45.532493089305675" lon="11.297600912265768"><ele>147.0</ele><time>2026-04-11T15:38:57.999Z</time></trkpt><trkpt lat="45.5326266497691" lon="11.297524958626598"><ele>147.0</ele><time>2026-04-11T15:38:58.999Z</time></trkpt><trkpt lat="45.532755022295376" lon="11.297393651678112"><ele>147.0</ele><time>2026-04-11T15:38:59.999Z</time></trkpt><trkpt lat="45.53290182322246" lon="11.297269620023119"><ele>147.66666666666666</ele><time>2026-04-11T15:39:00.999Z</time></trkpt><trkpt lat="45.53306064433596" lon="11.29713887977856"><ele>148.33333333333331</ele><time>2026-04-11T15:39:01.999Z</time></trkpt><trkpt lat="45.53322750489815" lon="11.297002339577107"><ele>149.0</ele><time>2026-04-11T15:39:02.999Z</time></trkpt><trkpt lat="45.53340588289747" lon="11.296854734629116"><ele>149.0</ele><time>2026-04-11T15:39:03.999Z</time></trkpt><trkpt lat="45.53359152822601" lon="11.296704912756905"><ele>149.0</ele><time>2026-04-11T15:39:04.998Z</time></trkpt><trkpt lat="45.53377571841601" lon="11.296541416984384"><ele>149.0</ele><time>2026-04-11T15:39:05.998Z</time></trkpt><trkpt lat="45.53396080981025" lon="11.296369512597387"><ele>149.66666666666666</ele><time>2026-04-11T15:39:06.998Z</time></trkpt><trkpt lat="45.53414505312938" lon="11.296195840261932"><ele>150.33333333333334</ele><time>2026-04-11T15:39:07.998Z</time></trkpt><trkpt lat="45.534329397159404" lon="11.296014067721105"><ele>151.0</ele><time>2026-04-11T15:39:08.998Z</time></trkpt><trkpt lat="45.534517802994635" lon="11.295835926300793"><ele>151.0</ele><time>2026-04-11T15:39:09.998Z</time></trkpt><trkpt lat="45.53469558353249" lon="11.29566802631449"><ele>151.0</ele><time>2026-04-11T15:39:10.998Z</time></trkpt><trkpt lat="45.53486085287797" lon="11.295512572898081"><ele>151.0</ele><time>2026-04-11T15:39:11.998Z</time></trkpt><trkpt lat="45.535014691109346" lon="11.295366090305201"><ele>151.33333333333334</ele><time>2026-04-11T15:39:12.998Z</time></trkpt><trkpt lat="45.53515939943391" lon="11.295227701599531"><ele>151.66666666666666</ele><time>2026-04-11T15:39:13.998Z</time></trkpt><trkpt lat="45.53529634392884" lon="11.295087523004394"><ele>152.0</ele><time>2026-04-11T15:39:14.998Z</time></trkpt><trkpt lat="45.535432040595126" lon="11.294943869792226"><ele>152.66666666666666</ele><time>2026-04-11T15:39:15.998Z</time></trkpt><trkpt lat="45.535572293040765" lon="11.294804715605268"><ele>153.33333333333334</ele><time>2026-04-11T15:39:16.998Z</time></trkpt><trkpt lat="45.53570597069495" lon="11.294659966827025"><ele>154.0</ele><time>2026-04-11T15:39:17.998Z</time></trkpt><trkpt lat="45.5358322474323" lon="11.294499451768445"><ele>154.33333333333334</ele><time>2026-04-11T15:39:18.998Z</time></trkpt><trkpt lat="45.53595243883965" lon="11.294325327331334"><ele>154.66666666666666</ele><time>2026-04-11T15:39:19.998Z</time></trkpt><trkpt lat="45.53605780288834" lon="11.294133268801945"><ele>155.0</ele><time>2026-04-11T15:39:20.998Z</time></trkpt><trkpt lat="45.536152274288064" lon="11.293930722833528"><ele>155.0</ele><time>2026-04-11T15:39:21.998Z</time></trkpt><trkpt lat="45.53624197295471" lon="11.293729729604093"><ele>155.0</ele><time>2026-04-11T15:39:22.998Z</time></trkpt><trkpt lat="45.53632373543927" lon="11.293521929436332"><ele>155.0</ele><time>2026-04-11T15:39:23.998Z</time></trkpt><trkpt lat="45.5364229786398" lon="11.29332759496591"><ele>155.0</ele><time>2026-04-11T15:39:24.998Z</time></trkpt><trkpt lat="45.53649248219382" lon="11.293111037378543"><ele>155.0</ele><time>2026-04-11T15:39:25.998Z</time></trkpt><trkpt lat="45.53656784267404" lon="11.292927692689396"><ele>155.0</ele><time>2026-04-11T15:39:26.998Z</time></trkpt><trkpt lat="45.53664039793876" lon="11.292756137559172"><ele>154.83333333333331</ele><time>2026-04-11T15:39:27.998Z</time></trkpt><trkpt lat="45.536704365015254" lon="11.292609696947352"><ele>154.66666666666666</ele><time>2026-04-11T15:39:28.998Z</time></trkpt><trkpt lat="45.53676827928787" lon="11.292498957486725"><ele>154.5</ele><time>2026-04-11T15:39:29.998Z</time></trkpt><trkpt lat="45.53683182665107" lon="11.292433383815306"><ele>154.33333333333334</ele><time>2026-04-11T15:39:30.998Z</time></trkpt><trkpt lat="45.536904509965595" lon="11.292399477999371"><ele>154.16666666666669</ele><time>2026-04-11T15:39:31.998Z</time></trkpt><trkpt lat="45.53697620857836" lon="11.292392017303769"><ele>154.0</ele><time>2026-04-11T15:39:32.998Z</time></trkpt><trkpt lat="45.53703243755877" lon="11.292348478691846"><ele>154.0</ele><time>2026-04-11T15:39:33.998Z</time></trkpt><trkpt lat="45.53706061016421" lon="11.29217068478488"><ele>154.0</ele><time>2026-04-11T15:39:35.998Z</time></trkpt><trkpt lat="45.5370238394242" lon="11.292076859973065"><ele>154.0</ele><time>2026-04-11T15:39:36.998Z</time></trkpt><trkpt lat="45.53696742735426" lon="11.291989119470903"><ele>154.0</ele><time>2026-04-11T15:39:37.998Z</time></trkpt><trkpt lat="45.53693961185661" lon="11.291873537691753"><ele>154.0</ele><time>2026-04-11T15:39:38.998Z</time></trkpt><trkpt lat="45.53695697450278" lon="11.291753421907078"><ele>154.0</ele><time>2026-04-11T15:39:39.998Z</time></trkpt><trkpt lat="45.536996676857626" lon="11.291637759663326"><ele>154.0</ele><time>2026-04-11T15:39:40.998Z</time></trkpt><trkpt lat="45.53703306896569" lon="11.291514717330287"><ele>154.0</ele><time>2026-04-11T15:39:41.998Z</time></trkpt><trkpt lat="45.53706340176935" lon="11.291389104663741"><ele>154.0</ele><time>2026-04-11T15:39:42.998Z</time></trkpt><trkpt lat="45.537084563859835" lon="11.2912563341702"><ele>154.0</ele><time>2026-04-11T15:39:43.997Z</time></trkpt><trkpt lat="45.53710223320684" lon="11.291131444255095"><ele>154.4</ele><time>2026-04-11T15:39:44.997Z</time></trkpt><trkpt lat="45.53712558743759" lon="11.29100038344435"><ele>154.8</ele><time>2026-04-11T15:39:45.997Z</time></trkpt><trkpt lat="45.53714792108942" lon="11.290868061253894"><ele>155.2</ele><time>2026-04-11T15:39:46.997Z</time></trkpt><trkpt lat="45.53717479437147" lon="11.290730538265603"><ele>155.6</ele><time>2026-04-11T15:39:47.997Z</time></trkpt><trkpt lat="45.537212167621625" lon="11.290591955461752"><ele>156.0</ele><time>2026-04-11T15:39:48.997Z</time></trkpt><trkpt lat="45.53726089438876" lon="11.290456811516602"><ele>156.0</ele><time>2026-04-11T15:39:49.997Z</time></trkpt><trkpt lat="45.53729815552664" lon="11.290340542779582"><ele>156.0</ele><time>2026-04-11T15:39:50.997Z</time></trkpt><trkpt lat="45.53734633438203" lon="11.29024453037901"><ele>156.0</ele><time>2026-04-11T15:39:51.997Z</time></trkpt><trkpt lat="45.537411763254084" lon="11.290188086045932"><ele>156.0</ele><time>2026-04-11T15:39:52.997Z</time></trkpt><trkpt lat="45.53748815670084" lon="11.290178366594665"><ele>156.0</ele><time>2026-04-11T15:39:53.997Z</time></trkpt><trkpt lat="45.53756031879295" lon="11.290238706246912"><ele>156.0</ele><time>2026-04-11T15:39:54.997Z</time></trkpt><trkpt lat="45.5376450229373" lon="11.290263024274436"><ele>156.0</ele><time>2026-04-11T15:39:55.997Z</time></trkpt><trkpt lat="45.53773867705144" lon="11.290310669193214"><ele>156.0</ele><time>2026-04-11T15:39:56.997Z</time></trkpt><trkpt lat="45.537826212769986" lon="11.290357213065828"><ele>156.0</ele><time>2026-04-11T15:39:57.997Z</time></trkpt><trkpt lat="45.537915062632386" lon="11.290401052747642"><ele>156.0</ele><time>2026-04-11T15:39:58.997Z</time></trkpt><trkpt lat="45.53800899285249" lon="11.290446953645795"><ele>156.0</ele><time>2026-04-11T15:40:00Z</time></trkpt><trkpt lat="45.538110790455825" lon="11.2904973044961"><ele>156.75</ele><time>2026-04-11T15:40:01Z</time></trkpt><trkpt lat="45.538218396798385" lon="11.290543943467473"><ele>157.5</ele><time>2026-04-11T15:40:02Z</time></trkpt><trkpt lat="45.53833447116544" lon="11.290556530595396"><ele>158.25</ele><time>2026-04-11T15:40:03Z</time></trkpt><trkpt lat="45.53844864194527" lon="11.290516417214716"><ele>159.0</ele><time>2026-04-11T15:40:04Z</time></trkpt><trkpt lat="45.538550397674136" lon="11.290419820389378"><ele>159.0</ele><time>2026-04-11T15:40:05Z</time></trkpt><trkpt lat="45.53863667957606" lon="11.290289743868659"><ele>159.0</ele><time>2026-04-11T15:40:06Z</time></trkpt><trkpt lat="45.53870345744393" lon="11.290134157750327"><ele>159.0</ele><time>2026-04-11T15:40:07Z</time></trkpt><trkpt lat="45.53876509505716" lon="11.289984682215895"><ele>159.0</ele><time>2026-04-11T15:40:08Z</time></trkpt><trkpt lat="45.538818411072164" lon="11.289858468064674"><ele>159.2</ele><time>2026-04-11T15:40:09Z</time></trkpt><trkpt lat="45.53885928665705" lon="11.28974384175563"><ele>159.4</ele><time>2026-04-11T15:40:10Z</time></trkpt><trkpt lat="45.53889376378367" lon="11.289661957558902"><ele>159.6</ele><time>2026-04-11T15:40:11Z</time></trkpt><trkpt lat="45.538820612665496" lon="11.289529277581018"><ele>159.8</ele><time>2026-04-11T15:40:12Z</time></trkpt><trkpt lat="45.5387461409045" lon="11.289428737038188"><ele>160.0</ele><time>2026-04-11T15:40:13Z</time></trkpt><trkpt lat="45.538666497796264" lon="11.289319958428862"><ele>159.0</ele><time>2026-04-11T15:40:14Z</time></trkpt><trkpt lat="45.538591197116396" lon="11.28921126961288"><ele>158.0</ele><time>2026-04-11T15:40:15Z</time></trkpt><trkpt lat="45.53851945860942" lon="11.289133800350218"><ele>157.0</ele><time>2026-04-11T15:40:16Z</time></trkpt><trkpt lat="45.53846844618174" lon="11.289060230793202"><ele>156.0</ele><time>2026-04-11T15:40:17Z</time></trkpt><trkpt lat="45.53832473025807" lon="11.289169753719817"><ele>155.0</ele><time>2026-04-11T15:40:19Z</time></trkpt><trkpt lat="45.53826180804764" lon="11.289292886286882"><ele>155.0</ele><time>2026-04-11T15:40:20Z</time></trkpt><trkpt lat="45.53818014096056" lon="11.289424746862865"><ele>155.0</ele><time>2026-04-11T15:40:21Z</time></trkpt><trkpt lat="45.53813087575511" lon="11.289598066014738"><ele>155.0</ele><time>2026-04-11T15:40:22Z</time></trkpt><trkpt lat="45.53807624829983" lon="11.28977610049337"><ele>155.0</ele><time>2026-04-11T15:40:23Z</time></trkpt><trkpt lat="45.53802956186486" lon="11.289953112264714"><ele>155.2</ele><time>2026-04-11T15:40:24Z</time></trkpt><trkpt lat="45.53798238470234" lon="11.290096271358683"><ele>155.4</ele><time>2026-04-11T15:40:25Z</time></trkpt><trkpt lat="45.537952349919024" lon="11.290198960076314"><ele>155.6</ele><time>2026-04-11T15:40:26Z</time></trkpt><trkpt lat="45.53789903575652" lon="11.290304126122377"><ele>155.8</ele><time>2026-04-11T15:40:28Z</time></trkpt><trkpt lat="45.537833240744455" lon="11.29031008131413"><ele>156.0</ele><time>2026-04-11T15:40:30Z</time></trkpt><trkpt lat="45.53771323129745" lon="11.290261407309632"><ele>156.0</ele><time>2026-04-11T15:40:31.999Z</time></trkpt><trkpt lat="45.53764312011288" lon="11.290228914776694"><ele>156.0</ele><time>2026-04-11T15:40:32.999Z</time></trkpt><trkpt lat="45.537571288798745" lon="11.290196973342768"><ele>156.0</ele><time>2026-04-11T15:40:33.999Z</time></trkpt><trkpt lat="45.537506864205426" lon="11.290165040444002"><ele>156.0</ele><time>2026-04-11T15:40:34.999Z</time></trkpt><trkpt lat="45.53743777061406" lon="11.290154417395437"><ele>156.0</ele><time>2026-04-11T15:40:35.999Z</time></trkpt><trkpt lat="45.53736883195264" lon="11.290177702917877"><ele>156.0</ele><time>2026-04-11T15:40:36.999Z</time></trkpt><trkpt lat="45.537312412087125" lon="11.290239873381914"><ele>156.0</ele><time>2026-04-11T15:40:37.999Z</time></trkpt><trkpt lat="45.537275452718646" lon="11.290341493022671"><ele>156.0</ele><time>2026-04-11T15:40:38.999Z</time></trkpt><trkpt lat="45.537220242752305" lon="11.290438311142022"><ele>156.0</ele><time>2026-04-11T15:40:39.999Z</time></trkpt><trkpt lat="45.53719124126435" lon="11.290570867014015"><ele>156.0</ele><time>2026-04-11T15:40:40.999Z</time></trkpt><trkpt lat="45.53714899565845" lon="11.290703726271525"><ele>156.0</ele><time>2026-04-11T15:40:41.999Z</time></trkpt><trkpt lat="45.53712135987245" lon="11.29085031911547"><ele>156.0</ele><time>2026-04-11T15:40:42.999Z</time></trkpt><trkpt lat="45.537099640829226" lon="11.290977114485157"><ele>156.0</ele><time>2026-04-11T15:40:43.999Z</time></trkpt><trkpt lat="45.5370701327501" lon="11.291104988073418"><ele>156.0</ele><time>2026-04-11T15:40:44.999Z</time></trkpt><trkpt lat="45.53704319570082" lon="11.291223020357531"><ele>156.0</ele><time>2026-04-11T15:40:45.999Z</time></trkpt><trkpt lat="45.537024571247336" lon="11.291329137910857"><ele>156.0</ele><time>2026-04-11T15:40:46.999Z</time></trkpt><trkpt lat="45.5370040067112" lon="11.29143277705484"><ele>156.0</ele><time>2026-04-11T15:40:47.999Z</time></trkpt><trkpt lat="45.53698347768154" lon="11.291547319708451"><ele>156.0</ele><time>2026-04-11T15:40:48.999Z</time></trkpt><trkpt lat="45.536962003265856" lon="11.291667907224834"><ele>155.6</ele><time>2026-04-11T15:40:49.999Z</time></trkpt><trkpt lat="45.53693932973044" lon="11.291787170499427"><ele>155.2</ele><time>2026-04-11T15:40:50.999Z</time></trkpt><trkpt lat="45.536926021260605" lon="11.291882200220167"><ele>154.8</ele><time>2026-04-11T15:40:51.999Z</time></trkpt><trkpt lat="45.53689728901602" lon="11.29202617718073"><ele>154.4</ele><time>2026-04-11T15:40:53.999Z</time></trkpt><trkpt lat="45.53685833163547" lon="11.29222469935908"><ele>154.0</ele><time>2026-04-11T15:40:55.999Z</time></trkpt><trkpt lat="45.536861179508584" lon="11.292320296816122"><ele>154.0</ele><time>2026-04-11T15:40:56.999Z</time></trkpt><trkpt lat="45.53690273677044" lon="11.292397124231144"><ele>154.0</ele><time>2026-04-11T15:40:57.999Z</time></trkpt><trkpt lat="45.53697506828105" lon="11.292426441262391"><ele>154.0</ele><time>2026-04-11T15:40:58.999Z</time></trkpt><trkpt lat="45.53706232411505" lon="11.29240506644677"><ele>154.0</ele><time>2026-04-11T15:40:59.999Z</time></trkpt><trkpt lat="45.537156691015596" lon="11.292366697565544"><ele>154.0</ele><time>2026-04-11T15:41:00.999Z</time></trkpt><trkpt lat="45.53725606517063" lon="11.292368934284232"><ele>154.0</ele><time>2026-04-11T15:41:01.999Z</time></trkpt><trkpt lat="45.53735434923768" lon="11.292351616644119"><ele>154.4</ele><time>2026-04-11T15:41:02.999Z</time></trkpt><trkpt lat="45.53744072386846" lon="11.292459002948936"><ele>154.8</ele><time>2026-04-11T15:41:03.999Z</time></trkpt><trkpt lat="45.53751480192003" lon="11.292528232675162"><ele>155.2</ele><time>2026-04-11T15:41:04.999Z</time></trkpt><trkpt lat="45.53757939750434" lon="11.292589104581957"><ele>155.6</ele><time>2026-04-11T15:41:05.999Z</time></trkpt><trkpt lat="45.53763792610286" lon="11.292649291076762"><ele>156.0</ele><time>2026-04-11T15:41:06.999Z</time></trkpt><trkpt lat="45.53772698065965" lon="11.292753627340971"><ele>156.0</ele><time>2026-04-11T15:41:08.999Z</time></trkpt><trkpt lat="45.53777886949859" lon="11.292808153837885"><ele>156.0</ele><time>2026-04-11T15:41:09.999Z</time></trkpt><trkpt lat="45.537832111302286" lon="11.292869523119329"><ele>156.0</ele><time>2026-04-11T15:41:10.998Z</time></trkpt><trkpt lat="45.537884493095895" lon="11.292929198928437"><ele>156.0</ele><time>2026-04-11T15:41:11.998Z</time></trkpt><trkpt lat="45.5379403654826" lon="11.293001097728617"><ele>156.0</ele><time>2026-04-11T15:41:13.998Z</time></trkpt><trkpt lat="45.53798954217621" lon="11.2930674751833"><ele>156.0</ele><time>2026-04-11T15:41:18.998Z</time></trkpt><trkpt lat="45.53801055219788" lon="11.293250839166772"><ele>156.0</ele><time>2026-04-11T15:41:27.998Z</time></trkpt><trkpt lat="45.53797577849314" lon="11.293334421975283"><ele>156.0</ele><time>2026-04-11T15:41:28.998Z</time></trkpt><trkpt lat="45.53792214583926" lon="11.293486560860721"><ele>156.0</ele><time>2026-04-11T15:41:30.998Z</time></trkpt><trkpt lat="45.53788739133068" lon="11.293598591949662"><ele>156.0</ele><time>2026-04-11T15:41:31.998Z</time></trkpt><trkpt lat="45.53784589729884" lon="11.293726362494377"><ele>156.0</ele><time>2026-04-11T15:41:32.998Z</time></trkpt><trkpt lat="45.53780967509505" lon="11.293870089121237"><ele>156.0</ele><time>2026-04-11T15:41:33.998Z</time></trkpt><trkpt lat="45.537764711339435" lon="11.293990066080525"><ele>156.0</ele><time>2026-04-11T15:41:34.998Z</time></trkpt><trkpt lat="45.53772722101167" lon="11.294102265964803"><ele>156.0</ele><time>2026-04-11T15:41:35.998Z</time></trkpt><trkpt lat="45.537700079332275" lon="11.29420662459092"><ele>156.0</ele><time>2026-04-11T15:41:36.998Z</time></trkpt><trkpt lat="45.537726427606536" lon="11.294369328801325"><ele>156.0</ele><time>2026-04-11T15:41:38.998Z</time></trkpt><trkpt lat="45.53780338355027" lon="11.29443835853651"><ele>156.0</ele><time>2026-04-11T15:41:39.998Z</time></trkpt><trkpt lat="45.537905411966385" lon="11.294521057451"><ele>156.0</ele><time>2026-04-11T15:41:40.998Z</time></trkpt><trkpt lat="45.538021710725026" lon="11.294593675239978"><ele>156.0</ele><time>2026-04-11T15:41:41.998Z</time></trkpt><trkpt lat="45.538092649640745" lon="11.29467164115627"><ele>156.0</ele><time>2026-04-11T15:41:42.998Z</time></trkpt><trkpt lat="45.53821243783845" lon="11.294798678220944"><ele>156.0</ele><time>2026-04-11T15:41:52.997Z</time></trkpt><trkpt lat="45.538306374993695" lon="11.29485798237916"><ele>156.0</ele><time>2026-04-11T15:41:53.997Z</time></trkpt><trkpt lat="45.53840394166956" lon="11.294941015839836"><ele>156.0</ele><time>2026-04-11T15:41:54.997Z</time></trkpt><trkpt lat="45.53850204134667" lon="11.29505071905246"><ele>156.0</ele><time>2026-04-11T15:41:55.997Z</time></trkpt><trkpt lat="45.5385973529482" lon="11.295182221396125"><ele>156.0</ele><time>2026-04-11T15:41:56.997Z</time></trkpt><trkpt lat="45.53868968099434" lon="11.295311056117589"><ele>156.0</ele><time>2026-04-11T15:41:57.997Z</time></trkpt><trkpt lat="45.53878266303263" lon="11.295420354409714"><ele>156.0</ele><time>2026-04-11T15:41:58.997Z</time></trkpt><trkpt lat="45.53886166138091" lon="11.295537280570443"><ele>156.0</ele><time>2026-04-11T15:41:59.997Z</time></trkpt><trkpt lat="45.53892779014629" lon="11.295663293070714"><ele>158.0</ele><time>2026-04-11T15:42:00.997Z</time></trkpt><trkpt lat="45.53899461640311" lon="11.295797304777958"><ele>160.0</ele><time>2026-04-11T15:42:01.997Z</time></trkpt><trkpt lat="45.53906465539295" lon="11.295950811687858"><ele>162.0</ele><time>2026-04-11T15:42:02.997Z</time></trkpt><trkpt lat="45.54850952870909" lon="11.304649810273773"><ele>219.2</ele><time>2026-04-11T15:45:13.999Z</time></trkpt><trkpt lat="45.54864029842552" lon="11.304640725232845"><ele>276.4</ele><time>2026-04-11T15:45:14.999Z</time></trkpt><trkpt lat="45.548737263228574" lon="11.304673032265729"><ele>333.59999999999997</ele><time>2026-04-11T15:45:15.999Z</time></trkpt><trkpt lat="45.548796101201525" lon="11.304733407755004"><ele>390.79999999999995</ele><time>2026-04-11T15:45:16.999Z</time></trkpt><trkpt lat="45.54884362386708" lon="11.304817339643527"><ele>448.0</ele><time>2026-04-11T15:45:17.999Z</time></trkpt><trkpt lat="45.54888080882835" lon="11.30494844977445"><ele>451.79999999999995</ele><time>2026-04-11T15:45:18.999Z</time></trkpt><trkpt lat="45.5489423858447" lon="11.305095333386772"><ele>455.59999999999997</ele><time>2026-04-11T15:45:19.999Z</time></trkpt><trkpt lat="45.54900535910564" lon="11.30523248954845"><ele>459.40000000000003</ele><time>2026-04-11T15:45:20.999Z</time></trkpt><trkpt lat="45.54906094774651" lon="11.30534373225706"><ele>463.20000000000005</ele><time>2026-04-11T15:45:21.999Z</time></trkpt><trkpt lat="45.54910481248178" lon="11.305438888079316"><ele>467.0</ele><time>2026-04-11T15:45:22.998Z</time></trkpt><trkpt lat="45.549172129029635" lon="11.305629814524965"><ele>467.0</ele><time>2026-04-11T15:45:25.998Z</time></trkpt><trkpt lat="45.549220010059585" lon="11.305710544970108"><ele>467.0</ele><time>2026-04-11T15:45:28.998Z</time></trkpt><trkpt lat="45.54934463759542" lon="11.305552062506088"><ele>467.0</ele><time>2026-04-11T15:45:29.998Z</time></trkpt><trkpt lat="45.54942203700021" lon="11.305464602991405"><ele>467.0</ele><time>2026-04-11T15:45:30.998Z</time></trkpt><trkpt lat="45.54951561792634" lon="11.305343635778131"><ele>469.66666666666663</ele><time>2026-04-11T15:45:31.998Z</time></trkpt><trkpt lat="45.54964479571044" lon="11.305242197724715"><ele>472.33333333333337</ele><time>2026-04-11T15:45:32.998Z</time></trkpt><trkpt lat="45.549798659548976" lon="11.305126582457808"><ele>475.0</ele><time>2026-04-11T15:45:33.998Z</time></trkpt><trkpt lat="45.54997421880126" lon="11.305002060422238"><ele>475.0</ele><time>2026-04-11T15:45:34.998Z</time></trkpt><trkpt lat="45.55018397568407" lon="11.30493811340796"><ele>475.0</ele><time>2026-04-11T15:45:35.998Z</time></trkpt><trkpt lat="45.55041284745559" lon="11.304893649062963"><ele>475.0</ele><time>2026-04-11T15:45:36.998Z</time></trkpt><trkpt lat="45.55065005551668" lon="11.304833357060081"><ele>475.0</ele><time>2026-04-11T15:45:37.998Z</time></trkpt><trkpt lat="45.55090010969084" lon="11.304729324289182"><ele>475.0</ele><time>2026-04-11T15:45:38.998Z</time></trkpt><trkpt lat="45.55112929365188" lon="11.304599697747246"><ele>478.6666666666667</ele><time>2026-04-11T15:45:39.998Z</time></trkpt><trkpt lat="45.55131632339934" lon="11.304472535888126"><ele>482.33333333333337</ele><time>2026-04-11T15:45:40.998Z</time></trkpt><trkpt lat="45.55149991980103" lon="11.304411171432692"><ele>486.0</ele><time>2026-04-11T15:45:41.998Z</time></trkpt><trkpt lat="45.55166775647686" lon="11.304480798802603"><ele>486.0</ele><time>2026-04-11T15:45:42.998Z</time></trkpt><trkpt lat="45.551828665857066" lon="11.304527217887046"><ele>486.0</ele><time>2026-04-11T15:45:43.998Z</time></trkpt><trkpt lat="45.55212924581597" lon="11.304432173044344"><ele>491.33333333333337</ele><time>2026-04-11T15:45:45.998Z</time></trkpt><trkpt lat="45.55228438082917" lon="11.30433668775759"><ele>496.6666666666667</ele><time>2026-04-11T15:45:46.998Z</time></trkpt><trkpt lat="45.5524400652133" lon="11.304212532929549"><ele>502.0</ele><time>2026-04-11T15:45:47.998Z</time></trkpt><trkpt lat="45.552579842786216" lon="11.304039038184888"><ele>501.0</ele><time>2026-04-11T15:45:48.998Z</time></trkpt><trkpt lat="45.55269735811715" lon="11.303900772064319"><ele>500.0</ele><time>2026-04-11T15:45:49.998Z</time></trkpt><trkpt lat="45.55279222749212" lon="11.303793659454241"><ele>499.0</ele><time>2026-04-11T15:45:50.998Z</time></trkpt><trkpt lat="45.552929543862454" lon="11.303788455974578"><ele>498.0</ele><time>2026-04-11T15:45:51.998Z</time></trkpt><trkpt lat="45.55306106860367" lon="11.30378993681666"><ele>500.59999999999997</ele><time>2026-04-11T15:45:52.998Z</time></trkpt><trkpt lat="45.55316126649243" lon="11.303775568085413"><ele>503.19999999999993</ele><time>2026-04-11T15:45:53.998Z</time></trkpt><trkpt lat="45.55323215004448" lon="11.303747122977379"><ele>505.8</ele><time>2026-04-11T15:45:54.998Z</time></trkpt><trkpt lat="45.5533528068065" lon="11.303632516996094"><ele>508.4</ele><time>2026-04-11T15:45:56.998Z</time></trkpt><trkpt lat="45.553420747472835" lon="11.303532837056675"><ele>511.0</ele><time>2026-04-11T15:45:57.998Z</time></trkpt><trkpt lat="45.553473225229645" lon="11.303400641717182"><ele>511.0</ele><time>2026-04-11T15:45:58.998Z</time></trkpt><trkpt lat="45.55351970040478" lon="11.303242142118037"><ele>511.0</ele><time>2026-04-11T15:45:59.998Z</time></trkpt><trkpt lat="45.55357851295533" lon="11.303076038091419"><ele>511.0</ele><time>2026-04-11T15:46:00.998Z</time></trkpt><trkpt lat="45.553639490788626" lon="11.302910582837134"><ele>511.0</ele><time>2026-04-11T15:46:01.998Z</time></trkpt><trkpt lat="45.55370458710946" lon="11.302737804981193"><ele>510.33333333333337</ele><time>2026-04-11T15:46:02.997Z</time></trkpt><trkpt lat="45.55377513189049" lon="11.302565189632064"><ele>509.66666666666663</ele><time>2026-04-11T15:46:03.997Z</time></trkpt><trkpt lat="45.553839651439255" lon="11.302403163334239"><ele>509.0</ele><time>2026-04-11T15:46:04.997Z</time></trkpt><trkpt lat="45.55398221247902" lon="11.302148084120036"><ele>509.0</ele><time>2026-04-11T15:46:06.997Z</time></trkpt><trkpt lat="45.5540670918076" lon="11.302056637015209"><ele>509.0</ele><time>2026-04-11T15:46:07.997Z</time></trkpt><trkpt lat="45.554147816409696" lon="11.301973311828633"><ele>509.0</ele><time>2026-04-11T15:46:08.997Z</time></trkpt><trkpt lat="45.5542292348694" lon="11.301904686683887"><ele>509.0</ele><time>2026-04-11T15:46:09.997Z</time></trkpt><trkpt lat="45.554303399544374" lon="11.301862803296375"><ele>509.0</ele><time>2026-04-11T15:46:10.997Z</time></trkpt><trkpt lat="45.554393823105414" lon="11.301798298772198"><ele>508.99999999999994</ele><time>2026-04-11T15:46:11.997Z</time></trkpt><trkpt lat="45.5544879024" lon="11.301724682584812"><ele>509.0</ele><time>2026-04-11T15:46:12.997Z</time></trkpt><trkpt lat="45.55456893448155" lon="11.301654480431768"><ele>509.0</ele><time>2026-04-11T15:46:13.997Z</time></trkpt><trkpt lat="45.554643214728436" lon="11.301593477153753"><ele>509.0</ele><time>2026-04-11T15:46:14.997Z</time></trkpt><trkpt lat="45.5546963628069" lon="11.301532241487152"><ele>508.99999999999994</ele><time>2026-04-11T15:46:15.997Z</time></trkpt><trkpt lat="45.55474105523156" lon="11.301422723173369"><ele>509.0</ele><time>2026-04-11T15:46:18Z</time></trkpt><trkpt lat="45.554818217070384" lon="11.30138768123395"><ele>518.0</ele><time>2026-04-11T15:46:27Z</time></trkpt></trkseg></trk></gpx>